<?xml version="1.0" encoding="UTF-8"?>
<gpx version="1.1" creator="https://www.youtrack.es" xsi:schemaLocation="http://www.topografix.com/GPX/1/1 http://www.topografix.com/GPX/1/1/gpx.xsd http://www.garmin.com/xmlschemas/GpxExtensions/v3 http://www.garmin.com/xmlschemas/GpxExtensionsv3.xsd http://www.garmin.com/xmlschemas/TrackPointExtension/v1 http://www.garmin.com/xmlschemas/TrackPointExtensionv1.xsd" xmlns:gpxtpx="http://www.garmin.com/xmlschemas/TrackPointExtension/v1" xmlns:gpxx="http://www.garmin.com/xmlschemas/GpxExtensions/v3" xmlns:xsi="http://www.w3.org/2001/XMLSchema-instance">
  <metadata>
    <link href="https://www.youtrack.es">
      <text>YouTrack.es</text>
    </link>
    <time>2026-05-10T15:48:38Z</time>
  </metadata>
  <trk>
    <src>https://www.youtrack.es</src>
    <link href="https://www.youtrack.es/ruta/9878-forves">
      <text>YouTrack.es</text>
    </link>
    <trkseg>
      <trkpt lat="38.2738370" lon="-0.6838190">
        <ele>91.8</ele>
        <time>2019-12-11T06:21:03Z</time>
      </trkpt>
      <trkpt lat="38.2735090" lon="-0.6837470">
        <ele>92.1</ele>
        <time>2019-12-11T06:22:01Z</time>
      </trkpt>
      <trkpt lat="38.2734300" lon="-0.6836510">
        <ele>91.8</ele>
        <time>2019-12-11T06:22:04Z</time>
      </trkpt>
      <trkpt lat="38.2733520" lon="-0.6835550">
        <ele>91.4</ele>
        <time>2019-12-11T06:22:06Z</time>
      </trkpt>
      <trkpt lat="38.2733150" lon="-0.6835100">
        <ele>91.2</ele>
        <time>2019-12-11T06:22:07Z</time>
      </trkpt>
      <trkpt lat="38.2732770" lon="-0.6834670">
        <ele>91.1</ele>
        <time>2019-12-11T06:22:08Z</time>
      </trkpt>
      <trkpt lat="38.2740870" lon="-0.6841160">
        <ele>90.4</ele>
        <time>2018-03-30T06:00:02Z</time>
      </trkpt>
      <trkpt lat="38.2740870" lon="-0.6841390">
        <ele>90.4</ele>
        <time>2018-03-30T06:00:03Z</time>
      </trkpt>
      <trkpt lat="38.2740860" lon="-0.6841610">
        <ele>90.5</ele>
        <time>2018-03-30T06:00:04Z</time>
      </trkpt>
      <trkpt lat="38.2740780" lon="-0.6842070">
        <ele>90.6</ele>
        <time>2018-03-30T06:00:05Z</time>
      </trkpt>
      <trkpt lat="38.2740690" lon="-0.6842560">
        <ele>90.7</ele>
        <time>2018-03-30T06:00:06Z</time>
      </trkpt>
      <trkpt lat="38.2740600" lon="-0.6843070">
        <ele>90.9</ele>
        <time>2018-03-30T06:00:07Z</time>
      </trkpt>
      <trkpt lat="38.2740520" lon="-0.6843600">
        <ele>91.0</ele>
        <time>2018-03-30T06:00:08Z</time>
      </trkpt>
      <trkpt lat="38.2740430" lon="-0.6844130">
        <ele>91.1</ele>
        <time>2018-03-30T06:00:09Z</time>
      </trkpt>
      <trkpt lat="38.2740350" lon="-0.6844680">
        <ele>91.3</ele>
        <time>2018-03-30T06:00:10Z</time>
      </trkpt>
      <trkpt lat="38.2740250" lon="-0.6845230">
        <ele>91.4</ele>
        <time>2018-03-30T06:00:11Z</time>
      </trkpt>
      <trkpt lat="38.2740160" lon="-0.6845790">
        <ele>91.6</ele>
        <time>2018-03-30T06:00:12Z</time>
      </trkpt>
      <trkpt lat="38.2740070" lon="-0.6846350">
        <ele>91.8</ele>
        <time>2018-03-30T06:00:13Z</time>
      </trkpt>
      <trkpt lat="38.2739990" lon="-0.6846930">
        <ele>91.9</ele>
        <time>2018-03-30T06:00:14Z</time>
      </trkpt>
      <trkpt lat="38.2739880" lon="-0.6847520">
        <ele>92.1</ele>
        <time>2018-03-30T06:00:15Z</time>
      </trkpt>
      <trkpt lat="38.2739770" lon="-0.6848120">
        <ele>92.3</ele>
        <time>2018-03-30T06:00:16Z</time>
      </trkpt>
      <trkpt lat="38.2739660" lon="-0.6848730">
        <ele>92.5</ele>
        <time>2018-03-30T06:00:17Z</time>
      </trkpt>
      <trkpt lat="38.2739550" lon="-0.6849380">
        <ele>92.7</ele>
        <time>2018-03-30T06:00:18Z</time>
      </trkpt>
      <trkpt lat="38.2739440" lon="-0.6850030">
        <ele>92.9</ele>
        <time>2018-03-30T06:00:19Z</time>
      </trkpt>
      <trkpt lat="38.2739300" lon="-0.6850660">
        <ele>93.0</ele>
        <time>2018-03-30T06:00:20Z</time>
      </trkpt>
      <trkpt lat="38.2739170" lon="-0.6851300">
        <ele>92.9</ele>
        <time>2018-03-30T06:00:21Z</time>
      </trkpt>
      <trkpt lat="38.2739060" lon="-0.6851950">
        <ele>92.8</ele>
        <time>2018-03-30T06:00:22Z</time>
      </trkpt>
      <trkpt lat="38.2738940" lon="-0.6852590">
        <ele>92.8</ele>
        <time>2018-03-30T06:00:23Z</time>
      </trkpt>
      <trkpt lat="38.2738830" lon="-0.6853250">
        <ele>92.7</ele>
        <time>2018-03-30T06:00:24Z</time>
      </trkpt>
      <trkpt lat="38.2738690" lon="-0.6853880">
        <ele>92.7</ele>
        <time>2018-03-30T06:00:25Z</time>
      </trkpt>
      <trkpt lat="38.2738580" lon="-0.6854540">
        <ele>92.7</ele>
        <time>2018-03-30T06:00:26Z</time>
      </trkpt>
      <trkpt lat="38.2738460" lon="-0.6855200">
        <ele>92.6</ele>
        <time>2018-03-30T06:00:27Z</time>
      </trkpt>
      <trkpt lat="38.2738320" lon="-0.6855870">
        <ele>92.6</ele>
        <time>2018-03-30T06:00:28Z</time>
      </trkpt>
      <trkpt lat="38.2738180" lon="-0.6856550">
        <ele>92.5</ele>
        <time>2018-03-30T06:00:29Z</time>
      </trkpt>
      <trkpt lat="38.2738050" lon="-0.6857250">
        <ele>92.5</ele>
        <time>2018-03-30T06:00:30Z</time>
      </trkpt>
      <trkpt lat="38.2737920" lon="-0.6857960">
        <ele>92.5</ele>
        <time>2018-03-30T06:00:31Z</time>
      </trkpt>
      <trkpt lat="38.2737790" lon="-0.6858670">
        <ele>92.4</ele>
        <time>2018-03-30T06:00:32Z</time>
      </trkpt>
      <trkpt lat="38.2737650" lon="-0.6859360">
        <ele>92.4</ele>
        <time>2018-03-30T06:00:33Z</time>
      </trkpt>
      <trkpt lat="38.2737490" lon="-0.6860050">
        <ele>92.3</ele>
        <time>2018-03-30T06:00:34Z</time>
      </trkpt>
      <trkpt lat="38.2737320" lon="-0.6860730">
        <ele>92.3</ele>
        <time>2018-03-30T06:00:35Z</time>
      </trkpt>
      <trkpt lat="38.2737210" lon="-0.6861460">
        <ele>92.2</ele>
        <time>2018-03-30T06:00:36Z</time>
      </trkpt>
      <trkpt lat="38.2737080" lon="-0.6862170">
        <ele>92.2</ele>
        <time>2018-03-30T06:00:37Z</time>
      </trkpt>
      <trkpt lat="38.2736970" lon="-0.6862950">
        <ele>92.1</ele>
        <time>2018-03-30T06:00:38Z</time>
      </trkpt>
      <trkpt lat="38.2736840" lon="-0.6863690">
        <ele>92.0</ele>
        <time>2018-03-30T06:00:39Z</time>
      </trkpt>
      <trkpt lat="38.2736720" lon="-0.6864470">
        <ele>91.9</ele>
        <time>2018-03-30T06:00:40Z</time>
      </trkpt>
      <trkpt lat="38.2736590" lon="-0.6865220">
        <ele>91.9</ele>
        <time>2018-03-30T06:00:41Z</time>
      </trkpt>
      <trkpt lat="38.2736470" lon="-0.6865990">
        <ele>91.8</ele>
        <time>2018-03-30T06:00:42Z</time>
      </trkpt>
      <trkpt lat="38.2736350" lon="-0.6866760">
        <ele>91.8</ele>
        <time>2018-03-30T06:00:43Z</time>
      </trkpt>
      <trkpt lat="38.2736250" lon="-0.6867570">
        <ele>91.7</ele>
        <time>2018-03-30T06:00:44Z</time>
      </trkpt>
      <trkpt lat="38.2736110" lon="-0.6868320">
        <ele>91.7</ele>
        <time>2018-03-30T06:00:45Z</time>
      </trkpt>
      <trkpt lat="38.2735980" lon="-0.6869070">
        <ele>91.6</ele>
        <time>2018-03-30T06:00:46Z</time>
      </trkpt>
      <trkpt lat="38.2735880" lon="-0.6869870">
        <ele>91.6</ele>
        <time>2018-03-30T06:00:47Z</time>
      </trkpt>
      <trkpt lat="38.2735760" lon="-0.6870630">
        <ele>91.5</ele>
        <time>2018-03-30T06:00:48Z</time>
      </trkpt>
      <trkpt lat="38.2735650" lon="-0.6871420">
        <ele>91.5</ele>
        <time>2018-03-30T06:00:49Z</time>
      </trkpt>
      <trkpt lat="38.2735540" lon="-0.6872210">
        <ele>91.5</ele>
        <time>2018-03-30T06:00:50Z</time>
      </trkpt>
      <trkpt lat="38.2735430" lon="-0.6872980">
        <ele>91.5</ele>
        <time>2018-03-30T06:00:51Z</time>
      </trkpt>
      <trkpt lat="38.2735320" lon="-0.6873750">
        <ele>91.4</ele>
        <time>2018-03-30T06:00:52Z</time>
      </trkpt>
      <trkpt lat="38.2735210" lon="-0.6874520">
        <ele>91.4</ele>
        <time>2018-03-30T06:00:53Z</time>
      </trkpt>
      <trkpt lat="38.2735090" lon="-0.6875300">
        <ele>91.4</ele>
        <time>2018-03-30T06:00:54Z</time>
      </trkpt>
      <trkpt lat="38.2734970" lon="-0.6876080">
        <ele>91.4</ele>
        <time>2018-03-30T06:00:55Z</time>
      </trkpt>
      <trkpt lat="38.2734850" lon="-0.6876860">
        <ele>91.3</ele>
        <time>2018-03-30T06:00:56Z</time>
      </trkpt>
      <trkpt lat="38.2734720" lon="-0.6877620">
        <ele>91.3</ele>
        <time>2018-03-30T06:00:57Z</time>
      </trkpt>
      <trkpt lat="38.2734570" lon="-0.6878380">
        <ele>91.2</ele>
        <time>2018-03-30T06:00:58Z</time>
      </trkpt>
      <trkpt lat="38.2734440" lon="-0.6879150">
        <ele>91.1</ele>
        <time>2018-03-30T06:00:59Z</time>
      </trkpt>
      <trkpt lat="38.2734310" lon="-0.6879920">
        <ele>91.1</ele>
        <time>2018-03-30T06:01:00Z</time>
      </trkpt>
      <trkpt lat="38.2734190" lon="-0.6880700">
        <ele>91.0</ele>
        <time>2018-03-30T06:01:01Z</time>
      </trkpt>
      <trkpt lat="38.2734050" lon="-0.6881470">
        <ele>91.0</ele>
        <time>2018-03-30T06:01:02Z</time>
      </trkpt>
      <trkpt lat="38.2733920" lon="-0.6882230">
        <ele>90.3</ele>
        <time>2018-03-30T06:01:03Z</time>
      </trkpt>
      <trkpt lat="38.2733790" lon="-0.6883010">
        <ele>88.3</ele>
        <time>2018-03-30T06:01:04Z</time>
      </trkpt>
      <trkpt lat="38.2733660" lon="-0.6883780">
        <ele>86.2</ele>
        <time>2018-03-30T06:01:05Z</time>
      </trkpt>
      <trkpt lat="38.2733540" lon="-0.6884550">
        <ele>86.0</ele>
        <time>2018-03-30T06:01:06Z</time>
      </trkpt>
      <trkpt lat="38.2733410" lon="-0.6885310">
        <ele>86.0</ele>
        <time>2018-03-30T06:01:07Z</time>
      </trkpt>
      <trkpt lat="38.2733300" lon="-0.6886080">
        <ele>86.0</ele>
        <time>2018-03-30T06:01:08Z</time>
      </trkpt>
      <trkpt lat="38.2733190" lon="-0.6886860">
        <ele>86.0</ele>
        <time>2018-03-30T06:01:09Z</time>
      </trkpt>
      <trkpt lat="38.2733040" lon="-0.6887610">
        <ele>86.0</ele>
        <time>2018-03-30T06:01:10Z</time>
      </trkpt>
      <trkpt lat="38.2732910" lon="-0.6888370">
        <ele>86.0</ele>
        <time>2018-03-30T06:01:11Z</time>
      </trkpt>
      <trkpt lat="38.2732780" lon="-0.6889120">
        <ele>86.0</ele>
        <time>2018-03-30T06:01:12Z</time>
      </trkpt>
      <trkpt lat="38.2732650" lon="-0.6889880">
        <ele>86.0</ele>
        <time>2018-03-30T06:01:13Z</time>
      </trkpt>
      <trkpt lat="38.2732530" lon="-0.6890650">
        <ele>86.0</ele>
        <time>2018-03-30T06:01:14Z</time>
      </trkpt>
      <trkpt lat="38.2732400" lon="-0.6891390">
        <ele>86.0</ele>
        <time>2018-03-30T06:01:15Z</time>
      </trkpt>
      <trkpt lat="38.2732250" lon="-0.6892140">
        <ele>86.0</ele>
        <time>2018-03-30T06:01:16Z</time>
      </trkpt>
      <trkpt lat="38.2732110" lon="-0.6892880">
        <ele>86.0</ele>
        <time>2018-03-30T06:01:17Z</time>
      </trkpt>
      <trkpt lat="38.2731980" lon="-0.6893650">
        <ele>86.0</ele>
        <time>2018-03-30T06:01:18Z</time>
      </trkpt>
      <trkpt lat="38.2731850" lon="-0.6894420">
        <ele>86.0</ele>
        <time>2018-03-30T06:01:19Z</time>
      </trkpt>
      <trkpt lat="38.2731730" lon="-0.6895200">
        <ele>86.0</ele>
        <time>2018-03-30T06:01:20Z</time>
      </trkpt>
      <trkpt lat="38.2731590" lon="-0.6895970">
        <ele>86.0</ele>
        <time>2018-03-30T06:01:21Z</time>
      </trkpt>
      <trkpt lat="38.2731460" lon="-0.6896720">
        <ele>86.0</ele>
        <time>2018-03-30T06:01:22Z</time>
      </trkpt>
      <trkpt lat="38.2731320" lon="-0.6897470">
        <ele>85.8</ele>
        <time>2018-03-30T06:01:23Z</time>
      </trkpt>
      <trkpt lat="38.2731200" lon="-0.6898240">
        <ele>85.6</ele>
        <time>2018-03-30T06:01:24Z</time>
      </trkpt>
      <trkpt lat="38.2731070" lon="-0.6899000">
        <ele>85.7</ele>
        <time>2018-03-30T06:01:25Z</time>
      </trkpt>
      <trkpt lat="38.2730940" lon="-0.6899780">
        <ele>86.1</ele>
        <time>2018-03-30T06:01:26Z</time>
      </trkpt>
      <trkpt lat="38.2730820" lon="-0.6900550">
        <ele>86.6</ele>
        <time>2018-03-30T06:01:27Z</time>
      </trkpt>
      <trkpt lat="38.2730710" lon="-0.6901280">
        <ele>87.0</ele>
        <time>2018-03-30T06:01:28Z</time>
      </trkpt>
      <trkpt lat="38.2730640" lon="-0.6902040">
        <ele>87.6</ele>
        <time>2018-03-30T06:01:29Z</time>
      </trkpt>
      <trkpt lat="38.2730650" lon="-0.6902810">
        <ele>88.0</ele>
        <time>2018-03-30T06:01:30Z</time>
      </trkpt>
      <trkpt lat="38.2730850" lon="-0.6903490">
        <ele>88.0</ele>
        <time>2018-03-30T06:01:31Z</time>
      </trkpt>
      <trkpt lat="38.2731060" lon="-0.6904170">
        <ele>88.6</ele>
        <time>2018-03-30T06:01:32Z</time>
      </trkpt>
      <trkpt lat="38.2731220" lon="-0.6904890">
        <ele>88.9</ele>
        <time>2018-03-30T06:01:33Z</time>
      </trkpt>
      <trkpt lat="38.2731270" lon="-0.6905660">
        <ele>89.2</ele>
        <time>2018-03-30T06:01:34Z</time>
      </trkpt>
      <trkpt lat="38.2731150" lon="-0.6906380">
        <ele>89.4</ele>
        <time>2018-03-30T06:01:35Z</time>
      </trkpt>
      <trkpt lat="38.2730860" lon="-0.6907030">
        <ele>89.6</ele>
        <time>2018-03-30T06:01:36Z</time>
      </trkpt>
      <trkpt lat="38.2730470" lon="-0.6907630">
        <ele>89.8</ele>
        <time>2018-03-30T06:01:37Z</time>
      </trkpt>
      <trkpt lat="38.2730060" lon="-0.6908230">
        <ele>90.0</ele>
        <time>2018-03-30T06:01:38Z</time>
      </trkpt>
      <trkpt lat="38.2729690" lon="-0.6908860">
        <ele>90.0</ele>
        <time>2018-03-30T06:01:39Z</time>
      </trkpt>
      <trkpt lat="38.2729370" lon="-0.6909510">
        <ele>89.9</ele>
        <time>2018-03-30T06:01:40Z</time>
      </trkpt>
      <trkpt lat="38.2729140" lon="-0.6910200">
        <ele>89.8</ele>
        <time>2018-03-30T06:01:41Z</time>
      </trkpt>
      <trkpt lat="38.2728970" lon="-0.6910980">
        <ele>89.7</ele>
        <time>2018-03-30T06:01:42Z</time>
      </trkpt>
      <trkpt lat="38.2728830" lon="-0.6911780">
        <ele>89.6</ele>
        <time>2018-03-30T06:01:43Z</time>
      </trkpt>
      <trkpt lat="38.2728690" lon="-0.6912580">
        <ele>89.5</ele>
        <time>2018-03-30T06:01:44Z</time>
      </trkpt>
      <trkpt lat="38.2728530" lon="-0.6913360">
        <ele>89.5</ele>
        <time>2018-03-30T06:01:45Z</time>
      </trkpt>
      <trkpt lat="38.2728410" lon="-0.6914170">
        <ele>89.4</ele>
        <time>2018-03-30T06:01:46Z</time>
      </trkpt>
      <trkpt lat="38.2728330" lon="-0.6914990">
        <ele>89.3</ele>
        <time>2018-03-30T06:01:47Z</time>
      </trkpt>
      <trkpt lat="38.2728200" lon="-0.6915800">
        <ele>89.2</ele>
        <time>2018-03-30T06:01:48Z</time>
      </trkpt>
      <trkpt lat="38.2728070" lon="-0.6916590">
        <ele>89.1</ele>
        <time>2018-03-30T06:01:49Z</time>
      </trkpt>
      <trkpt lat="38.2727930" lon="-0.6917380">
        <ele>89.1</ele>
        <time>2018-03-30T06:01:50Z</time>
      </trkpt>
      <trkpt lat="38.2727800" lon="-0.6918180">
        <ele>89.0</ele>
        <time>2018-03-30T06:01:51Z</time>
      </trkpt>
      <trkpt lat="38.2727670" lon="-0.6918980">
        <ele>88.9</ele>
        <time>2018-03-30T06:01:52Z</time>
      </trkpt>
      <trkpt lat="38.2727530" lon="-0.6919770">
        <ele>88.8</ele>
        <time>2018-03-30T06:01:53Z</time>
      </trkpt>
      <trkpt lat="38.2727400" lon="-0.6920570">
        <ele>88.7</ele>
        <time>2018-03-30T06:01:54Z</time>
      </trkpt>
      <trkpt lat="38.2727280" lon="-0.6921370">
        <ele>88.7</ele>
        <time>2018-03-30T06:01:55Z</time>
      </trkpt>
      <trkpt lat="38.2727160" lon="-0.6922170">
        <ele>88.6</ele>
        <time>2018-03-30T06:01:56Z</time>
      </trkpt>
      <trkpt lat="38.2727040" lon="-0.6922970">
        <ele>88.5</ele>
        <time>2018-03-30T06:01:57Z</time>
      </trkpt>
      <trkpt lat="38.2726910" lon="-0.6923750">
        <ele>88.4</ele>
        <time>2018-03-30T06:01:58Z</time>
      </trkpt>
      <trkpt lat="38.2726790" lon="-0.6924550">
        <ele>88.3</ele>
        <time>2018-03-30T06:01:59Z</time>
      </trkpt>
      <trkpt lat="38.2726670" lon="-0.6925360">
        <ele>88.2</ele>
        <time>2018-03-30T06:02:00Z</time>
      </trkpt>
      <trkpt lat="38.2726530" lon="-0.6926140">
        <ele>88.1</ele>
        <time>2018-03-30T06:02:01Z</time>
      </trkpt>
      <trkpt lat="38.2726410" lon="-0.6926920">
        <ele>88.0</ele>
        <time>2018-03-30T06:02:02Z</time>
      </trkpt>
      <trkpt lat="38.2726270" lon="-0.6927690">
        <ele>88.0</ele>
        <time>2018-03-30T06:02:03Z</time>
      </trkpt>
      <trkpt lat="38.2726140" lon="-0.6928470">
        <ele>88.1</ele>
        <time>2018-03-30T06:02:04Z</time>
      </trkpt>
      <trkpt lat="38.2726010" lon="-0.6929240">
        <ele>88.1</ele>
        <time>2018-03-30T06:02:05Z</time>
      </trkpt>
      <trkpt lat="38.2725880" lon="-0.6930010">
        <ele>88.2</ele>
        <time>2018-03-30T06:02:06Z</time>
      </trkpt>
      <trkpt lat="38.2725760" lon="-0.6930810">
        <ele>88.2</ele>
        <time>2018-03-30T06:02:07Z</time>
      </trkpt>
      <trkpt lat="38.2725630" lon="-0.6931580">
        <ele>88.3</ele>
        <time>2018-03-30T06:02:08Z</time>
      </trkpt>
      <trkpt lat="38.2725490" lon="-0.6932340">
        <ele>88.3</ele>
        <time>2018-03-30T06:02:09Z</time>
      </trkpt>
      <trkpt lat="38.2725370" lon="-0.6933150">
        <ele>88.3</ele>
        <time>2018-03-30T06:02:10Z</time>
      </trkpt>
      <trkpt lat="38.2725230" lon="-0.6933930">
        <ele>88.4</ele>
        <time>2018-03-30T06:02:11Z</time>
      </trkpt>
      <trkpt lat="38.2725100" lon="-0.6934720">
        <ele>88.4</ele>
        <time>2018-03-30T06:02:12Z</time>
      </trkpt>
      <trkpt lat="38.2724970" lon="-0.6935510">
        <ele>88.5</ele>
        <time>2018-03-30T06:02:13Z</time>
      </trkpt>
      <trkpt lat="38.2724820" lon="-0.6936280">
        <ele>88.5</ele>
        <time>2018-03-30T06:02:14Z</time>
      </trkpt>
      <trkpt lat="38.2724670" lon="-0.6937060">
        <ele>88.6</ele>
        <time>2018-03-30T06:02:15Z</time>
      </trkpt>
      <trkpt lat="38.2724560" lon="-0.6937860">
        <ele>88.6</ele>
        <time>2018-03-30T06:02:16Z</time>
      </trkpt>
      <trkpt lat="38.2724430" lon="-0.6938630">
        <ele>88.7</ele>
        <time>2018-03-30T06:02:17Z</time>
      </trkpt>
      <trkpt lat="38.2724290" lon="-0.6939410">
        <ele>88.7</ele>
        <time>2018-03-30T06:02:18Z</time>
      </trkpt>
      <trkpt lat="38.2724160" lon="-0.6940200">
        <ele>88.8</ele>
        <time>2018-03-30T06:02:19Z</time>
      </trkpt>
      <trkpt lat="38.2724050" lon="-0.6941010">
        <ele>88.8</ele>
        <time>2018-03-30T06:02:20Z</time>
      </trkpt>
      <trkpt lat="38.2723930" lon="-0.6941770">
        <ele>88.9</ele>
        <time>2018-03-30T06:02:21Z</time>
      </trkpt>
      <trkpt lat="38.2723890" lon="-0.6942560">
        <ele>88.9</ele>
        <time>2018-03-30T06:02:22Z</time>
      </trkpt>
      <trkpt lat="38.2723900" lon="-0.6943330">
        <ele>89.0</ele>
        <time>2018-03-30T06:02:23Z</time>
      </trkpt>
      <trkpt lat="38.2723970" lon="-0.6944120">
        <ele>89.0</ele>
        <time>2018-03-30T06:02:24Z</time>
      </trkpt>
      <trkpt lat="38.2724120" lon="-0.6944860">
        <ele>89.0</ele>
        <time>2018-03-30T06:02:25Z</time>
      </trkpt>
      <trkpt lat="38.2724350" lon="-0.6945540">
        <ele>89.0</ele>
        <time>2018-03-30T06:02:26Z</time>
      </trkpt>
      <trkpt lat="38.2724570" lon="-0.6946230">
        <ele>89.3</ele>
        <time>2018-03-30T06:02:27Z</time>
      </trkpt>
      <trkpt lat="38.2724830" lon="-0.6946910">
        <ele>90.1</ele>
        <time>2018-03-30T06:02:28Z</time>
      </trkpt>
      <trkpt lat="38.2725200" lon="-0.6947460">
        <ele>90.8</ele>
        <time>2018-03-30T06:02:29Z</time>
      </trkpt>
      <trkpt lat="38.2725680" lon="-0.6947840">
        <ele>91.6</ele>
        <time>2018-03-30T06:02:30Z</time>
      </trkpt>
      <trkpt lat="38.2726230" lon="-0.6948020">
        <ele>92.3</ele>
        <time>2018-03-30T06:02:31Z</time>
      </trkpt>
      <trkpt lat="38.2726820" lon="-0.6948160">
        <ele>93.0</ele>
        <time>2018-03-30T06:02:32Z</time>
      </trkpt>
      <trkpt lat="38.2727370" lon="-0.6948330">
        <ele>93.2</ele>
        <time>2018-03-30T06:02:33Z</time>
      </trkpt>
      <trkpt lat="38.2727930" lon="-0.6948500">
        <ele>93.3</ele>
        <time>2018-03-30T06:02:34Z</time>
      </trkpt>
      <trkpt lat="38.2728490" lon="-0.6948660">
        <ele>93.5</ele>
        <time>2018-03-30T06:02:35Z</time>
      </trkpt>
      <trkpt lat="38.2729050" lon="-0.6948830">
        <ele>93.8</ele>
        <time>2018-03-30T06:02:36Z</time>
      </trkpt>
      <trkpt lat="38.2729610" lon="-0.6948980">
        <ele>94.0</ele>
        <time>2018-03-30T06:02:37Z</time>
      </trkpt>
      <trkpt lat="38.2730160" lon="-0.6949180">
        <ele>94.3</ele>
        <time>2018-03-30T06:02:38Z</time>
      </trkpt>
      <trkpt lat="38.2730720" lon="-0.6949370">
        <ele>94.5</ele>
        <time>2018-03-30T06:02:39Z</time>
      </trkpt>
      <trkpt lat="38.2731270" lon="-0.6949510">
        <ele>94.7</ele>
        <time>2018-03-30T06:02:40Z</time>
      </trkpt>
      <trkpt lat="38.2731840" lon="-0.6949670">
        <ele>94.8</ele>
        <time>2018-03-30T06:02:41Z</time>
      </trkpt>
      <trkpt lat="38.2732390" lon="-0.6949870">
        <ele>94.8</ele>
        <time>2018-03-30T06:02:42Z</time>
      </trkpt>
      <trkpt lat="38.2732950" lon="-0.6950070">
        <ele>94.9</ele>
        <time>2018-03-30T06:02:43Z</time>
      </trkpt>
      <trkpt lat="38.2733510" lon="-0.6950290">
        <ele>94.9</ele>
        <time>2018-03-30T06:02:44Z</time>
      </trkpt>
      <trkpt lat="38.2734070" lon="-0.6950500">
        <ele>94.9</ele>
        <time>2018-03-30T06:02:45Z</time>
      </trkpt>
      <trkpt lat="38.2734650" lon="-0.6950720">
        <ele>95.0</ele>
        <time>2018-03-30T06:02:46Z</time>
      </trkpt>
      <trkpt lat="38.2735240" lon="-0.6950920">
        <ele>95.0</ele>
        <time>2018-03-30T06:02:47Z</time>
      </trkpt>
      <trkpt lat="38.2735830" lon="-0.6951120">
        <ele>95.0</ele>
        <time>2018-03-30T06:02:48Z</time>
      </trkpt>
      <trkpt lat="38.2736430" lon="-0.6951320">
        <ele>95.1</ele>
        <time>2018-03-30T06:02:49Z</time>
      </trkpt>
      <trkpt lat="38.2737050" lon="-0.6951460">
        <ele>95.1</ele>
        <time>2018-03-30T06:02:50Z</time>
      </trkpt>
      <trkpt lat="38.2737660" lon="-0.6951590">
        <ele>95.1</ele>
        <time>2018-03-30T06:02:51Z</time>
      </trkpt>
      <trkpt lat="38.2738270" lon="-0.6951680">
        <ele>95.1</ele>
        <time>2018-03-30T06:02:52Z</time>
      </trkpt>
      <trkpt lat="38.2738880" lon="-0.6951750">
        <ele>95.1</ele>
        <time>2018-03-30T06:02:53Z</time>
      </trkpt>
      <trkpt lat="38.2739480" lon="-0.6951810">
        <ele>95.1</ele>
        <time>2018-03-30T06:02:54Z</time>
      </trkpt>
      <trkpt lat="38.2740080" lon="-0.6951880">
        <ele>95.1</ele>
        <time>2018-03-30T06:02:55Z</time>
      </trkpt>
      <trkpt lat="38.2740670" lon="-0.6952020">
        <ele>95.1</ele>
        <time>2018-03-30T06:02:56Z</time>
      </trkpt>
      <trkpt lat="38.2741250" lon="-0.6952210">
        <ele>95.1</ele>
        <time>2018-03-30T06:02:57Z</time>
      </trkpt>
      <trkpt lat="38.2741810" lon="-0.6952500">
        <ele>95.0</ele>
        <time>2018-03-30T06:02:58Z</time>
      </trkpt>
      <trkpt lat="38.2742330" lon="-0.6952860">
        <ele>95.0</ele>
        <time>2018-03-30T06:02:59Z</time>
      </trkpt>
      <trkpt lat="38.2742840" lon="-0.6953220">
        <ele>95.0</ele>
        <time>2018-03-30T06:03:00Z</time>
      </trkpt>
      <trkpt lat="38.2743360" lon="-0.6953640">
        <ele>95.0</ele>
        <time>2018-03-30T06:03:01Z</time>
      </trkpt>
      <trkpt lat="38.2743870" lon="-0.6954060">
        <ele>95.0</ele>
        <time>2018-03-30T06:03:02Z</time>
      </trkpt>
      <trkpt lat="38.2744360" lon="-0.6954490">
        <ele>95.0</ele>
        <time>2018-03-30T06:03:03Z</time>
      </trkpt>
      <trkpt lat="38.2744870" lon="-0.6954890">
        <ele>95.0</ele>
        <time>2018-03-30T06:03:04Z</time>
      </trkpt>
      <trkpt lat="38.2745370" lon="-0.6955340">
        <ele>95.0</ele>
        <time>2018-03-30T06:03:05Z</time>
      </trkpt>
      <trkpt lat="38.2745870" lon="-0.6955770">
        <ele>95.0</ele>
        <time>2018-03-30T06:03:06Z</time>
      </trkpt>
      <trkpt lat="38.2746380" lon="-0.6956200">
        <ele>95.0</ele>
        <time>2018-03-30T06:03:07Z</time>
      </trkpt>
      <trkpt lat="38.2746880" lon="-0.6956620">
        <ele>95.0</ele>
        <time>2018-03-30T06:03:08Z</time>
      </trkpt>
      <trkpt lat="38.2747380" lon="-0.6957050">
        <ele>95.0</ele>
        <time>2018-03-30T06:03:09Z</time>
      </trkpt>
      <trkpt lat="38.2747900" lon="-0.6957490">
        <ele>95.0</ele>
        <time>2018-03-30T06:03:10Z</time>
      </trkpt>
      <trkpt lat="38.2748410" lon="-0.6957930">
        <ele>95.0</ele>
        <time>2018-03-30T06:03:11Z</time>
      </trkpt>
      <trkpt lat="38.2748930" lon="-0.6958340">
        <ele>95.0</ele>
        <time>2018-03-30T06:03:12Z</time>
      </trkpt>
      <trkpt lat="38.2749460" lon="-0.6958730">
        <ele>95.0</ele>
        <time>2018-03-30T06:03:13Z</time>
      </trkpt>
      <trkpt lat="38.2749990" lon="-0.6959130">
        <ele>95.0</ele>
        <time>2018-03-30T06:03:14Z</time>
      </trkpt>
      <trkpt lat="38.2750510" lon="-0.6959520">
        <ele>95.0</ele>
        <time>2018-03-30T06:03:15Z</time>
      </trkpt>
      <trkpt lat="38.2751040" lon="-0.6959920">
        <ele>95.0</ele>
        <time>2018-03-30T06:03:16Z</time>
      </trkpt>
      <trkpt lat="38.2751570" lon="-0.6960310">
        <ele>95.1</ele>
        <time>2018-03-30T06:03:17Z</time>
      </trkpt>
      <trkpt lat="38.2752100" lon="-0.6960690">
        <ele>95.1</ele>
        <time>2018-03-30T06:03:18Z</time>
      </trkpt>
      <trkpt lat="38.2752630" lon="-0.6961050">
        <ele>95.1</ele>
        <time>2018-03-30T06:03:19Z</time>
      </trkpt>
      <trkpt lat="38.2753170" lon="-0.6961400">
        <ele>95.1</ele>
        <time>2018-03-30T06:03:20Z</time>
      </trkpt>
      <trkpt lat="38.2753710" lon="-0.6961730">
        <ele>95.1</ele>
        <time>2018-03-30T06:03:21Z</time>
      </trkpt>
      <trkpt lat="38.2754260" lon="-0.6962060">
        <ele>95.1</ele>
        <time>2018-03-30T06:03:22Z</time>
      </trkpt>
      <trkpt lat="38.2754810" lon="-0.6962390">
        <ele>95.1</ele>
        <time>2018-03-30T06:03:23Z</time>
      </trkpt>
      <trkpt lat="38.2755350" lon="-0.6962710">
        <ele>95.1</ele>
        <time>2018-03-30T06:03:24Z</time>
      </trkpt>
      <trkpt lat="38.2755920" lon="-0.6963010">
        <ele>95.1</ele>
        <time>2018-03-30T06:03:25Z</time>
      </trkpt>
      <trkpt lat="38.2756500" lon="-0.6963260">
        <ele>95.2</ele>
        <time>2018-03-30T06:03:26Z</time>
      </trkpt>
      <trkpt lat="38.2757100" lon="-0.6963470">
        <ele>95.2</ele>
        <time>2018-03-30T06:03:27Z</time>
      </trkpt>
      <trkpt lat="38.2757700" lon="-0.6963610">
        <ele>95.2</ele>
        <time>2018-03-30T06:03:28Z</time>
      </trkpt>
      <trkpt lat="38.2758310" lon="-0.6963700">
        <ele>95.2</ele>
        <time>2018-03-30T06:03:29Z</time>
      </trkpt>
      <trkpt lat="38.2758940" lon="-0.6963760">
        <ele>95.2</ele>
        <time>2018-03-30T06:03:30Z</time>
      </trkpt>
      <trkpt lat="38.2759570" lon="-0.6963760">
        <ele>95.2</ele>
        <time>2018-03-30T06:03:31Z</time>
      </trkpt>
      <trkpt lat="38.2760210" lon="-0.6963710">
        <ele>95.3</ele>
        <time>2018-03-30T06:03:32Z</time>
      </trkpt>
      <trkpt lat="38.2760840" lon="-0.6963600">
        <ele>95.3</ele>
        <time>2018-03-30T06:03:33Z</time>
      </trkpt>
      <trkpt lat="38.2761470" lon="-0.6963470">
        <ele>95.4</ele>
        <time>2018-03-30T06:03:34Z</time>
      </trkpt>
      <trkpt lat="38.2762080" lon="-0.6963330">
        <ele>95.4</ele>
        <time>2018-03-30T06:03:35Z</time>
      </trkpt>
      <trkpt lat="38.2762700" lon="-0.6963180">
        <ele>95.5</ele>
        <time>2018-03-30T06:03:36Z</time>
      </trkpt>
      <trkpt lat="38.2763310" lon="-0.6963010">
        <ele>95.5</ele>
        <time>2018-03-30T06:03:37Z</time>
      </trkpt>
      <trkpt lat="38.2763920" lon="-0.6962840">
        <ele>95.5</ele>
        <time>2018-03-30T06:03:38Z</time>
      </trkpt>
      <trkpt lat="38.2764530" lon="-0.6962630">
        <ele>95.6</ele>
        <time>2018-03-30T06:03:39Z</time>
      </trkpt>
      <trkpt lat="38.2765160" lon="-0.6962450">
        <ele>95.8</ele>
        <time>2018-03-30T06:03:40Z</time>
      </trkpt>
      <trkpt lat="38.2765760" lon="-0.6962260">
        <ele>95.9</ele>
        <time>2018-03-30T06:03:41Z</time>
      </trkpt>
      <trkpt lat="38.2766370" lon="-0.6962090">
        <ele>96.0</ele>
        <time>2018-03-30T06:03:42Z</time>
      </trkpt>
      <trkpt lat="38.2766970" lon="-0.6961920">
        <ele>95.9</ele>
        <time>2018-03-30T06:03:43Z</time>
      </trkpt>
      <trkpt lat="38.2767570" lon="-0.6961780">
        <ele>95.9</ele>
        <time>2018-03-30T06:03:44Z</time>
      </trkpt>
      <trkpt lat="38.2768170" lon="-0.6961670">
        <ele>95.8</ele>
        <time>2018-03-30T06:03:45Z</time>
      </trkpt>
      <trkpt lat="38.2768790" lon="-0.6961630">
        <ele>95.8</ele>
        <time>2018-03-30T06:03:46Z</time>
      </trkpt>
      <trkpt lat="38.2769430" lon="-0.6961590">
        <ele>95.7</ele>
        <time>2018-03-30T06:03:47Z</time>
      </trkpt>
      <trkpt lat="38.2770070" lon="-0.6961570">
        <ele>95.7</ele>
        <time>2018-03-30T06:03:48Z</time>
      </trkpt>
      <trkpt lat="38.2770720" lon="-0.6961570">
        <ele>95.6</ele>
        <time>2018-03-30T06:03:49Z</time>
      </trkpt>
      <trkpt lat="38.2771370" lon="-0.6961560">
        <ele>95.6</ele>
        <time>2018-03-30T06:03:50Z</time>
      </trkpt>
      <trkpt lat="38.2772020" lon="-0.6961560">
        <ele>95.5</ele>
        <time>2018-03-30T06:03:51Z</time>
      </trkpt>
      <trkpt lat="38.2772670" lon="-0.6961560">
        <ele>95.5</ele>
        <time>2018-03-30T06:03:52Z</time>
      </trkpt>
      <trkpt lat="38.2773310" lon="-0.6961580">
        <ele>95.4</ele>
        <time>2018-03-30T06:03:53Z</time>
      </trkpt>
      <trkpt lat="38.2773950" lon="-0.6961600">
        <ele>95.4</ele>
        <time>2018-03-30T06:03:54Z</time>
      </trkpt>
      <trkpt lat="38.2774570" lon="-0.6961640">
        <ele>95.3</ele>
        <time>2018-03-30T06:03:55Z</time>
      </trkpt>
      <trkpt lat="38.2775180" lon="-0.6961720">
        <ele>95.3</ele>
        <time>2018-03-30T06:03:56Z</time>
      </trkpt>
      <trkpt lat="38.2775810" lon="-0.6961840">
        <ele>95.3</ele>
        <time>2018-03-30T06:03:57Z</time>
      </trkpt>
      <trkpt lat="38.2776390" lon="-0.6961960">
        <ele>95.2</ele>
        <time>2018-03-30T06:03:58Z</time>
      </trkpt>
      <trkpt lat="38.2776960" lon="-0.6962120">
        <ele>95.2</ele>
        <time>2018-03-30T06:03:59Z</time>
      </trkpt>
      <trkpt lat="38.2777520" lon="-0.6962320">
        <ele>95.1</ele>
        <time>2018-03-30T06:04:00Z</time>
      </trkpt>
      <trkpt lat="38.2778100" lon="-0.6962610">
        <ele>95.1</ele>
        <time>2018-03-30T06:04:01Z</time>
      </trkpt>
      <trkpt lat="38.2778650" lon="-0.6962860">
        <ele>95.0</ele>
        <time>2018-03-30T06:04:02Z</time>
      </trkpt>
      <trkpt lat="38.2779210" lon="-0.6963100">
        <ele>95.0</ele>
        <time>2018-03-30T06:04:03Z</time>
      </trkpt>
      <trkpt lat="38.2779770" lon="-0.6963320">
        <ele>95.0</ele>
        <time>2018-03-30T06:04:04Z</time>
      </trkpt>
      <trkpt lat="38.2780330" lon="-0.6963550">
        <ele>95.0</ele>
        <time>2018-03-30T06:04:05Z</time>
      </trkpt>
      <trkpt lat="38.2780900" lon="-0.6963770">
        <ele>95.0</ele>
        <time>2018-03-30T06:04:06Z</time>
      </trkpt>
      <trkpt lat="38.2781480" lon="-0.6964000">
        <ele>95.0</ele>
        <time>2018-03-30T06:04:07Z</time>
      </trkpt>
      <trkpt lat="38.2782060" lon="-0.6964200">
        <ele>95.0</ele>
        <time>2018-03-30T06:04:08Z</time>
      </trkpt>
      <trkpt lat="38.2782640" lon="-0.6964360">
        <ele>95.0</ele>
        <time>2018-03-30T06:04:09Z</time>
      </trkpt>
      <trkpt lat="38.2783230" lon="-0.6964520">
        <ele>95.1</ele>
        <time>2018-03-30T06:04:10Z</time>
      </trkpt>
      <trkpt lat="38.2783820" lon="-0.6964660">
        <ele>95.6</ele>
        <time>2018-03-30T06:04:11Z</time>
      </trkpt>
      <trkpt lat="38.2784390" lon="-0.6964820">
        <ele>96.0</ele>
        <time>2018-03-30T06:04:12Z</time>
      </trkpt>
      <trkpt lat="38.2784960" lon="-0.6964950">
        <ele>96.0</ele>
        <time>2018-03-30T06:04:13Z</time>
      </trkpt>
      <trkpt lat="38.2785530" lon="-0.6965100">
        <ele>96.0</ele>
        <time>2018-03-30T06:04:14Z</time>
      </trkpt>
      <trkpt lat="38.2786090" lon="-0.6965270">
        <ele>96.0</ele>
        <time>2018-03-30T06:04:15Z</time>
      </trkpt>
      <trkpt lat="38.2786650" lon="-0.6965450">
        <ele>96.0</ele>
        <time>2018-03-30T06:04:16Z</time>
      </trkpt>
      <trkpt lat="38.2787190" lon="-0.6965630">
        <ele>96.0</ele>
        <time>2018-03-30T06:04:17Z</time>
      </trkpt>
      <trkpt lat="38.2787730" lon="-0.6965830">
        <ele>96.0</ele>
        <time>2018-03-30T06:04:18Z</time>
      </trkpt>
      <trkpt lat="38.2788270" lon="-0.6966030">
        <ele>95.9</ele>
        <time>2018-03-30T06:04:19Z</time>
      </trkpt>
      <trkpt lat="38.2788810" lon="-0.6966200">
        <ele>96.0</ele>
        <time>2018-03-30T06:04:20Z</time>
      </trkpt>
      <trkpt lat="38.2789350" lon="-0.6966390">
        <ele>96.1</ele>
        <time>2018-03-30T06:04:21Z</time>
      </trkpt>
      <trkpt lat="38.2789890" lon="-0.6966550">
        <ele>96.0</ele>
        <time>2018-03-30T06:04:22Z</time>
      </trkpt>
      <trkpt lat="38.2790430" lon="-0.6966700">
        <ele>96.1</ele>
        <time>2018-03-30T06:04:23Z</time>
      </trkpt>
      <trkpt lat="38.2790960" lon="-0.6966820">
        <ele>96.0</ele>
        <time>2018-03-30T06:04:24Z</time>
      </trkpt>
      <trkpt lat="38.2791490" lon="-0.6966920">
        <ele>96.0</ele>
        <time>2018-03-30T06:04:25Z</time>
      </trkpt>
      <trkpt lat="38.2792010" lon="-0.6966940">
        <ele>96.0</ele>
        <time>2018-03-30T06:04:26Z</time>
      </trkpt>
      <trkpt lat="38.2792490" lon="-0.6966800">
        <ele>96.3</ele>
        <time>2018-03-30T06:04:27Z</time>
      </trkpt>
      <trkpt lat="38.2792920" lon="-0.6966500">
        <ele>97.0</ele>
        <time>2018-03-30T06:04:28Z</time>
      </trkpt>
      <trkpt lat="38.2793250" lon="-0.6966080">
        <ele>97.6</ele>
        <time>2018-03-30T06:04:29Z</time>
      </trkpt>
      <trkpt lat="38.2793480" lon="-0.6965570">
        <ele>98.2</ele>
        <time>2018-03-30T06:04:30Z</time>
      </trkpt>
      <trkpt lat="38.2793670" lon="-0.6965060">
        <ele>98.7</ele>
        <time>2018-03-30T06:04:31Z</time>
      </trkpt>
      <trkpt lat="38.2793820" lon="-0.6964500">
        <ele>99.0</ele>
        <time>2018-03-30T06:04:32Z</time>
      </trkpt>
      <trkpt lat="38.2793960" lon="-0.6963890">
        <ele>99.0</ele>
        <time>2018-03-30T06:04:33Z</time>
      </trkpt>
      <trkpt lat="38.2794140" lon="-0.6963260">
        <ele>99.0</ele>
        <time>2018-03-30T06:04:34Z</time>
      </trkpt>
      <trkpt lat="38.2794360" lon="-0.6962640">
        <ele>99.0</ele>
        <time>2018-03-30T06:04:35Z</time>
      </trkpt>
      <trkpt lat="38.2794670" lon="-0.6962060">
        <ele>99.0</ele>
        <time>2018-03-30T06:04:36Z</time>
      </trkpt>
      <trkpt lat="38.2795050" lon="-0.6961560">
        <ele>99.0</ele>
        <time>2018-03-30T06:04:37Z</time>
      </trkpt>
      <trkpt lat="38.2795470" lon="-0.6961110">
        <ele>99.0</ele>
        <time>2018-03-30T06:04:38Z</time>
      </trkpt>
      <trkpt lat="38.2795950" lon="-0.6960750">
        <ele>99.0</ele>
        <time>2018-03-30T06:04:39Z</time>
      </trkpt>
      <trkpt lat="38.2796450" lon="-0.6960480">
        <ele>99.0</ele>
        <time>2018-03-30T06:04:40Z</time>
      </trkpt>
      <trkpt lat="38.2796980" lon="-0.6960310">
        <ele>99.0</ele>
        <time>2018-03-30T06:04:41Z</time>
      </trkpt>
      <trkpt lat="38.2797530" lon="-0.6960260">
        <ele>99.0</ele>
        <time>2018-03-30T06:04:42Z</time>
      </trkpt>
      <trkpt lat="38.2798090" lon="-0.6960320">
        <ele>99.0</ele>
        <time>2018-03-30T06:04:43Z</time>
      </trkpt>
      <trkpt lat="38.2798600" lon="-0.6960540">
        <ele>99.0</ele>
        <time>2018-03-30T06:04:44Z</time>
      </trkpt>
      <trkpt lat="38.2799120" lon="-0.6960780">
        <ele>99.0</ele>
        <time>2018-03-30T06:04:45Z</time>
      </trkpt>
      <trkpt lat="38.2799600" lon="-0.6961110">
        <ele>99.2</ele>
        <time>2018-03-30T06:04:46Z</time>
      </trkpt>
      <trkpt lat="38.2800040" lon="-0.6961540">
        <ele>99.5</ele>
        <time>2018-03-30T06:04:47Z</time>
      </trkpt>
      <trkpt lat="38.2800430" lon="-0.6962070">
        <ele>99.8</ele>
        <time>2018-03-30T06:04:48Z</time>
      </trkpt>
      <trkpt lat="38.2800740" lon="-0.6962700">
        <ele>100.2</ele>
        <time>2018-03-30T06:04:49Z</time>
      </trkpt>
      <trkpt lat="38.2801010" lon="-0.6963370">
        <ele>100.5</ele>
        <time>2018-03-30T06:04:50Z</time>
      </trkpt>
      <trkpt lat="38.2801250" lon="-0.6964050">
        <ele>100.8</ele>
        <time>2018-03-30T06:04:51Z</time>
      </trkpt>
      <trkpt lat="38.2801520" lon="-0.6964740">
        <ele>101.0</ele>
        <time>2018-03-30T06:04:52Z</time>
      </trkpt>
      <trkpt lat="38.2801860" lon="-0.6965390">
        <ele>101.0</ele>
        <time>2018-03-30T06:04:53Z</time>
      </trkpt>
      <trkpt lat="38.2802310" lon="-0.6965900">
        <ele>101.0</ele>
        <time>2018-03-30T06:04:54Z</time>
      </trkpt>
      <trkpt lat="38.2802820" lon="-0.6966280">
        <ele>101.0</ele>
        <time>2018-03-30T06:04:55Z</time>
      </trkpt>
      <trkpt lat="38.2803420" lon="-0.6966450">
        <ele>101.0</ele>
        <time>2018-03-30T06:04:56Z</time>
      </trkpt>
      <trkpt lat="38.2804020" lon="-0.6966520">
        <ele>101.0</ele>
        <time>2018-03-30T06:04:57Z</time>
      </trkpt>
      <trkpt lat="38.2804610" lon="-0.6966540">
        <ele>101.1</ele>
        <time>2018-03-30T06:04:58Z</time>
      </trkpt>
      <trkpt lat="38.2805200" lon="-0.6966550">
        <ele>101.2</ele>
        <time>2018-03-30T06:04:59Z</time>
      </trkpt>
      <trkpt lat="38.2805790" lon="-0.6966560">
        <ele>101.4</ele>
        <time>2018-03-30T06:05:00Z</time>
      </trkpt>
      <trkpt lat="38.2806370" lon="-0.6966550">
        <ele>101.5</ele>
        <time>2018-03-30T06:05:01Z</time>
      </trkpt>
      <trkpt lat="38.2806970" lon="-0.6966570">
        <ele>101.6</ele>
        <time>2018-03-30T06:05:02Z</time>
      </trkpt>
      <trkpt lat="38.2807550" lon="-0.6966590">
        <ele>101.8</ele>
        <time>2018-03-30T06:05:03Z</time>
      </trkpt>
      <trkpt lat="38.2808120" lon="-0.6966610">
        <ele>101.9</ele>
        <time>2018-03-30T06:05:04Z</time>
      </trkpt>
      <trkpt lat="38.2808670" lon="-0.6966610">
        <ele>102.0</ele>
        <time>2018-03-30T06:05:05Z</time>
      </trkpt>
      <trkpt lat="38.2809210" lon="-0.6966600">
        <ele>102.0</ele>
        <time>2018-03-30T06:05:06Z</time>
      </trkpt>
      <trkpt lat="38.2809750" lon="-0.6966590">
        <ele>102.1</ele>
        <time>2018-03-30T06:05:07Z</time>
      </trkpt>
      <trkpt lat="38.2810280" lon="-0.6966600">
        <ele>102.1</ele>
        <time>2018-03-30T06:05:08Z</time>
      </trkpt>
      <trkpt lat="38.2810800" lon="-0.6966620">
        <ele>102.1</ele>
        <time>2018-03-30T06:05:09Z</time>
      </trkpt>
      <trkpt lat="38.2811340" lon="-0.6966640">
        <ele>102.1</ele>
        <time>2018-03-30T06:05:10Z</time>
      </trkpt>
      <trkpt lat="38.2811860" lon="-0.6966630">
        <ele>102.0</ele>
        <time>2018-03-30T06:05:11Z</time>
      </trkpt>
      <trkpt lat="38.2812380" lon="-0.6966610">
        <ele>102.0</ele>
        <time>2018-03-30T06:05:12Z</time>
      </trkpt>
      <trkpt lat="38.2812920" lon="-0.6966630">
        <ele>102.0</ele>
        <time>2018-03-30T06:05:13Z</time>
      </trkpt>
      <trkpt lat="38.2813450" lon="-0.6966700">
        <ele>102.0</ele>
        <time>2018-03-30T06:05:14Z</time>
      </trkpt>
      <trkpt lat="38.2814000" lon="-0.6966800">
        <ele>102.0</ele>
        <time>2018-03-30T06:05:15Z</time>
      </trkpt>
      <trkpt lat="38.2814550" lon="-0.6966930">
        <ele>102.0</ele>
        <time>2018-03-30T06:05:16Z</time>
      </trkpt>
      <trkpt lat="38.2815110" lon="-0.6967050">
        <ele>102.0</ele>
        <time>2018-03-30T06:05:17Z</time>
      </trkpt>
      <trkpt lat="38.2815670" lon="-0.6967160">
        <ele>102.0</ele>
        <time>2018-03-30T06:05:18Z</time>
      </trkpt>
      <trkpt lat="38.2816220" lon="-0.6967260">
        <ele>102.0</ele>
        <time>2018-03-30T06:05:19Z</time>
      </trkpt>
      <trkpt lat="38.2816780" lon="-0.6967380">
        <ele>102.1</ele>
        <time>2018-03-30T06:05:20Z</time>
      </trkpt>
      <trkpt lat="38.2817330" lon="-0.6967510">
        <ele>102.1</ele>
        <time>2018-03-30T06:05:21Z</time>
      </trkpt>
      <trkpt lat="38.2817890" lon="-0.6967670">
        <ele>102.2</ele>
        <time>2018-03-30T06:05:22Z</time>
      </trkpt>
      <trkpt lat="38.2818440" lon="-0.6967840">
        <ele>102.2</ele>
        <time>2018-03-30T06:05:23Z</time>
      </trkpt>
      <trkpt lat="38.2818990" lon="-0.6968060">
        <ele>102.2</ele>
        <time>2018-03-30T06:05:24Z</time>
      </trkpt>
      <trkpt lat="38.2819520" lon="-0.6968300">
        <ele>102.2</ele>
        <time>2018-03-30T06:05:25Z</time>
      </trkpt>
      <trkpt lat="38.2820070" lon="-0.6968550">
        <ele>102.2</ele>
        <time>2018-03-30T06:05:26Z</time>
      </trkpt>
      <trkpt lat="38.2820620" lon="-0.6968800">
        <ele>102.1</ele>
        <time>2018-03-30T06:05:27Z</time>
      </trkpt>
      <trkpt lat="38.2821160" lon="-0.6969050">
        <ele>102.1</ele>
        <time>2018-03-30T06:05:28Z</time>
      </trkpt>
      <trkpt lat="38.2821710" lon="-0.6969310">
        <ele>102.2</ele>
        <time>2018-03-30T06:05:29Z</time>
      </trkpt>
      <trkpt lat="38.2822260" lon="-0.6969550">
        <ele>102.1</ele>
        <time>2018-03-30T06:05:30Z</time>
      </trkpt>
      <trkpt lat="38.2822800" lon="-0.6969800">
        <ele>102.0</ele>
        <time>2018-03-30T06:05:31Z</time>
      </trkpt>
      <trkpt lat="38.2823340" lon="-0.6969970">
        <ele>102.0</ele>
        <time>2018-03-30T06:05:32Z</time>
      </trkpt>
      <trkpt lat="38.2823900" lon="-0.6970120">
        <ele>102.1</ele>
        <time>2018-03-30T06:05:33Z</time>
      </trkpt>
      <trkpt lat="38.2824450" lon="-0.6970240">
        <ele>102.3</ele>
        <time>2018-03-30T06:05:34Z</time>
      </trkpt>
      <trkpt lat="38.2824990" lon="-0.6970360">
        <ele>102.3</ele>
        <time>2018-03-30T06:05:35Z</time>
      </trkpt>
      <trkpt lat="38.2825550" lon="-0.6970470">
        <ele>102.4</ele>
        <time>2018-03-30T06:05:36Z</time>
      </trkpt>
      <trkpt lat="38.2826110" lon="-0.6970570">
        <ele>102.5</ele>
        <time>2018-03-30T06:05:37Z</time>
      </trkpt>
      <trkpt lat="38.2826670" lon="-0.6970660">
        <ele>102.6</ele>
        <time>2018-03-30T06:05:38Z</time>
      </trkpt>
      <trkpt lat="38.2827220" lon="-0.6970780">
        <ele>102.7</ele>
        <time>2018-03-30T06:05:39Z</time>
      </trkpt>
      <trkpt lat="38.2827770" lon="-0.6970930">
        <ele>102.8</ele>
        <time>2018-03-30T06:05:40Z</time>
      </trkpt>
      <trkpt lat="38.2828330" lon="-0.6971100">
        <ele>102.9</ele>
        <time>2018-03-30T06:05:41Z</time>
      </trkpt>
      <trkpt lat="38.2828880" lon="-0.6971270">
        <ele>102.9</ele>
        <time>2018-03-30T06:05:42Z</time>
      </trkpt>
      <trkpt lat="38.2829430" lon="-0.6971460">
        <ele>103.0</ele>
        <time>2018-03-30T06:05:43Z</time>
      </trkpt>
      <trkpt lat="38.2829980" lon="-0.6971630">
        <ele>103.1</ele>
        <time>2018-03-30T06:05:44Z</time>
      </trkpt>
      <trkpt lat="38.2830520" lon="-0.6971790">
        <ele>103.2</ele>
        <time>2018-03-30T06:05:45Z</time>
      </trkpt>
      <trkpt lat="38.2831050" lon="-0.6971890">
        <ele>103.4</ele>
        <time>2018-03-30T06:05:46Z</time>
      </trkpt>
      <trkpt lat="38.2831590" lon="-0.6972010">
        <ele>103.4</ele>
        <time>2018-03-30T06:05:47Z</time>
      </trkpt>
      <trkpt lat="38.2832150" lon="-0.6972110">
        <ele>103.5</ele>
        <time>2018-03-30T06:05:48Z</time>
      </trkpt>
      <trkpt lat="38.2832690" lon="-0.6972220">
        <ele>103.5</ele>
        <time>2018-03-30T06:05:49Z</time>
      </trkpt>
      <trkpt lat="38.2833240" lon="-0.6972340">
        <ele>103.6</ele>
        <time>2018-03-30T06:05:50Z</time>
      </trkpt>
      <trkpt lat="38.2833770" lon="-0.6972470">
        <ele>103.6</ele>
        <time>2018-03-30T06:05:51Z</time>
      </trkpt>
      <trkpt lat="38.2834300" lon="-0.6972620">
        <ele>103.6</ele>
        <time>2018-03-30T06:05:52Z</time>
      </trkpt>
      <trkpt lat="38.2834840" lon="-0.6972770">
        <ele>103.7</ele>
        <time>2018-03-30T06:05:53Z</time>
      </trkpt>
      <trkpt lat="38.2835380" lon="-0.6972890">
        <ele>103.7</ele>
        <time>2018-03-30T06:05:54Z</time>
      </trkpt>
      <trkpt lat="38.2835940" lon="-0.6973040">
        <ele>103.7</ele>
        <time>2018-03-30T06:05:55Z</time>
      </trkpt>
      <trkpt lat="38.2836470" lon="-0.6973160">
        <ele>103.8</ele>
        <time>2018-03-30T06:05:56Z</time>
      </trkpt>
      <trkpt lat="38.2836970" lon="-0.6973310">
        <ele>103.8</ele>
        <time>2018-03-30T06:05:57Z</time>
      </trkpt>
      <trkpt lat="38.2837460" lon="-0.6973500">
        <ele>103.8</ele>
        <time>2018-03-30T06:05:58Z</time>
      </trkpt>
      <trkpt lat="38.2837990" lon="-0.6973700">
        <ele>103.8</ele>
        <time>2018-03-30T06:05:59Z</time>
      </trkpt>
      <trkpt lat="38.2838540" lon="-0.6973880">
        <ele>103.8</ele>
        <time>2018-03-30T06:06:00Z</time>
      </trkpt>
      <trkpt lat="38.2839100" lon="-0.6974080">
        <ele>103.8</ele>
        <time>2018-03-30T06:06:01Z</time>
      </trkpt>
      <trkpt lat="38.2839720" lon="-0.6974280">
        <ele>103.8</ele>
        <time>2018-03-30T06:06:02Z</time>
      </trkpt>
      <trkpt lat="38.2840390" lon="-0.6974450">
        <ele>103.8</ele>
        <time>2018-03-30T06:06:03Z</time>
      </trkpt>
      <trkpt lat="38.2841050" lon="-0.6974590">
        <ele>103.9</ele>
        <time>2018-03-30T06:06:04Z</time>
      </trkpt>
      <trkpt lat="38.2841760" lon="-0.6974700">
        <ele>104.0</ele>
        <time>2018-03-30T06:06:05Z</time>
      </trkpt>
      <trkpt lat="38.2842470" lon="-0.6974770">
        <ele>104.2</ele>
        <time>2018-03-30T06:06:06Z</time>
      </trkpt>
      <trkpt lat="38.2843200" lon="-0.6974800">
        <ele>104.6</ele>
        <time>2018-03-30T06:06:07Z</time>
      </trkpt>
      <trkpt lat="38.2843950" lon="-0.6974780">
        <ele>105.1</ele>
        <time>2018-03-30T06:06:08Z</time>
      </trkpt>
      <trkpt lat="38.2844690" lon="-0.6974770">
        <ele>105.3</ele>
        <time>2018-03-30T06:06:09Z</time>
      </trkpt>
      <trkpt lat="38.2845440" lon="-0.6974780">
        <ele>105.5</ele>
        <time>2018-03-30T06:06:10Z</time>
      </trkpt>
      <trkpt lat="38.2846180" lon="-0.6974790">
        <ele>105.8</ele>
        <time>2018-03-30T06:06:11Z</time>
      </trkpt>
      <trkpt lat="38.2846870" lon="-0.6974800">
        <ele>106.0</ele>
        <time>2018-03-30T06:06:12Z</time>
      </trkpt>
      <trkpt lat="38.2847510" lon="-0.6974800">
        <ele>106.2</ele>
        <time>2018-03-30T06:06:13Z</time>
      </trkpt>
      <trkpt lat="38.2848120" lon="-0.6974810">
        <ele>106.4</ele>
        <time>2018-03-30T06:06:14Z</time>
      </trkpt>
      <trkpt lat="38.2848690" lon="-0.6974820">
        <ele>106.6</ele>
        <time>2018-03-30T06:06:15Z</time>
      </trkpt>
      <trkpt lat="38.2849210" lon="-0.6974840">
        <ele>106.8</ele>
        <time>2018-03-30T06:06:16Z</time>
      </trkpt>
      <trkpt lat="38.2849730" lon="-0.6974840">
        <ele>106.9</ele>
        <time>2018-03-30T06:06:17Z</time>
      </trkpt>
      <trkpt lat="38.2850230" lon="-0.6974830">
        <ele>107.1</ele>
        <time>2018-03-30T06:06:18Z</time>
      </trkpt>
      <trkpt lat="38.2850700" lon="-0.6974830">
        <ele>107.2</ele>
        <time>2018-03-30T06:06:19Z</time>
      </trkpt>
      <trkpt lat="38.2851170" lon="-0.6974820">
        <ele>107.2</ele>
        <time>2018-03-30T06:06:20Z</time>
      </trkpt>
      <trkpt lat="38.2851630" lon="-0.6974760">
        <ele>107.3</ele>
        <time>2018-03-30T06:06:21Z</time>
      </trkpt>
      <trkpt lat="38.2852080" lon="-0.6974650">
        <ele>107.3</ele>
        <time>2018-03-30T06:06:22Z</time>
      </trkpt>
      <trkpt lat="38.2852520" lon="-0.6974540">
        <ele>107.3</ele>
        <time>2018-03-30T06:06:23Z</time>
      </trkpt>
      <trkpt lat="38.2852940" lon="-0.6974380">
        <ele>107.3</ele>
        <time>2018-03-30T06:06:24Z</time>
      </trkpt>
      <trkpt lat="38.2853350" lon="-0.6974170">
        <ele>107.3</ele>
        <time>2018-03-30T06:06:25Z</time>
      </trkpt>
      <trkpt lat="38.2853770" lon="-0.6973930">
        <ele>107.3</ele>
        <time>2018-03-30T06:06:26Z</time>
      </trkpt>
      <trkpt lat="38.2854160" lon="-0.6973690">
        <ele>107.3</ele>
        <time>2018-03-30T06:06:27Z</time>
      </trkpt>
      <trkpt lat="38.2854520" lon="-0.6973450">
        <ele>107.3</ele>
        <time>2018-03-30T06:06:28Z</time>
      </trkpt>
      <trkpt lat="38.2854910" lon="-0.6973230">
        <ele>107.3</ele>
        <time>2018-03-30T06:06:29Z</time>
      </trkpt>
      <trkpt lat="38.2855310" lon="-0.6972950">
        <ele>107.3</ele>
        <time>2018-03-30T06:06:30Z</time>
      </trkpt>
      <trkpt lat="38.2855710" lon="-0.6972660">
        <ele>107.3</ele>
        <time>2018-03-30T06:06:31Z</time>
      </trkpt>
      <trkpt lat="38.2856120" lon="-0.6972350">
        <ele>107.3</ele>
        <time>2018-03-30T06:06:32Z</time>
      </trkpt>
      <trkpt lat="38.2856550" lon="-0.6972060">
        <ele>107.3</ele>
        <time>2018-03-30T06:06:33Z</time>
      </trkpt>
      <trkpt lat="38.2856970" lon="-0.6971780">
        <ele>107.3</ele>
        <time>2018-03-30T06:06:34Z</time>
      </trkpt>
      <trkpt lat="38.2857410" lon="-0.6971480">
        <ele>107.3</ele>
        <time>2018-03-30T06:06:35Z</time>
      </trkpt>
      <trkpt lat="38.2857870" lon="-0.6971180">
        <ele>107.2</ele>
        <time>2018-03-30T06:06:36Z</time>
      </trkpt>
      <trkpt lat="38.2858320" lon="-0.6970900">
        <ele>107.2</ele>
        <time>2018-03-30T06:06:37Z</time>
      </trkpt>
      <trkpt lat="38.2858790" lon="-0.6970610">
        <ele>107.2</ele>
        <time>2018-03-30T06:06:38Z</time>
      </trkpt>
      <trkpt lat="38.2859260" lon="-0.6970330">
        <ele>107.2</ele>
        <time>2018-03-30T06:06:39Z</time>
      </trkpt>
      <trkpt lat="38.2859730" lon="-0.6970040">
        <ele>107.2</ele>
        <time>2018-03-30T06:06:40Z</time>
      </trkpt>
      <trkpt lat="38.2860210" lon="-0.6969760">
        <ele>107.2</ele>
        <time>2018-03-30T06:06:41Z</time>
      </trkpt>
      <trkpt lat="38.2860700" lon="-0.6969500">
        <ele>107.1</ele>
        <time>2018-03-30T06:06:42Z</time>
      </trkpt>
      <trkpt lat="38.2861190" lon="-0.6969230">
        <ele>107.1</ele>
        <time>2018-03-30T06:06:43Z</time>
      </trkpt>
      <trkpt lat="38.2861690" lon="-0.6969000">
        <ele>107.1</ele>
        <time>2018-03-30T06:06:44Z</time>
      </trkpt>
      <trkpt lat="38.2862210" lon="-0.6968790">
        <ele>107.1</ele>
        <time>2018-03-30T06:06:45Z</time>
      </trkpt>
      <trkpt lat="38.2862720" lon="-0.6968600">
        <ele>107.1</ele>
        <time>2018-03-30T06:06:46Z</time>
      </trkpt>
      <trkpt lat="38.2863230" lon="-0.6968450">
        <ele>107.1</ele>
        <time>2018-03-30T06:06:47Z</time>
      </trkpt>
      <trkpt lat="38.2863760" lon="-0.6968330">
        <ele>107.1</ele>
        <time>2018-03-30T06:06:48Z</time>
      </trkpt>
      <trkpt lat="38.2864300" lon="-0.6968240">
        <ele>107.1</ele>
        <time>2018-03-30T06:06:49Z</time>
      </trkpt>
      <trkpt lat="38.2864840" lon="-0.6968170">
        <ele>107.1</ele>
        <time>2018-03-30T06:06:50Z</time>
      </trkpt>
      <trkpt lat="38.2865380" lon="-0.6968120">
        <ele>107.1</ele>
        <time>2018-03-30T06:06:51Z</time>
      </trkpt>
      <trkpt lat="38.2865940" lon="-0.6968080">
        <ele>107.1</ele>
        <time>2018-03-30T06:06:52Z</time>
      </trkpt>
      <trkpt lat="38.2866490" lon="-0.6968020">
        <ele>107.1</ele>
        <time>2018-03-30T06:06:53Z</time>
      </trkpt>
      <trkpt lat="38.2867040" lon="-0.6967960">
        <ele>107.1</ele>
        <time>2018-03-30T06:06:54Z</time>
      </trkpt>
      <trkpt lat="38.2867590" lon="-0.6967890">
        <ele>107.2</ele>
        <time>2018-03-30T06:06:55Z</time>
      </trkpt>
      <trkpt lat="38.2868140" lon="-0.6967810">
        <ele>107.3</ele>
        <time>2018-03-30T06:06:56Z</time>
      </trkpt>
      <trkpt lat="38.2868680" lon="-0.6967700">
        <ele>107.4</ele>
        <time>2018-03-30T06:06:57Z</time>
      </trkpt>
      <trkpt lat="38.2869220" lon="-0.6967560">
        <ele>107.5</ele>
        <time>2018-03-30T06:06:58Z</time>
      </trkpt>
      <trkpt lat="38.2869770" lon="-0.6967390">
        <ele>107.6</ele>
        <time>2018-03-30T06:06:59Z</time>
      </trkpt>
      <trkpt lat="38.2870310" lon="-0.6967200">
        <ele>107.8</ele>
        <time>2018-03-30T06:07:00Z</time>
      </trkpt>
      <trkpt lat="38.2870830" lon="-0.6966990">
        <ele>107.9</ele>
        <time>2018-03-30T06:07:01Z</time>
      </trkpt>
      <trkpt lat="38.2871350" lon="-0.6966750">
        <ele>108.0</ele>
        <time>2018-03-30T06:07:02Z</time>
      </trkpt>
      <trkpt lat="38.2871860" lon="-0.6966500">
        <ele>108.1</ele>
        <time>2018-03-30T06:07:03Z</time>
      </trkpt>
      <trkpt lat="38.2872360" lon="-0.6966220">
        <ele>108.1</ele>
        <time>2018-03-30T06:07:04Z</time>
      </trkpt>
      <trkpt lat="38.2872850" lon="-0.6965920">
        <ele>108.2</ele>
        <time>2018-03-30T06:07:05Z</time>
      </trkpt>
      <trkpt lat="38.2873330" lon="-0.6965610">
        <ele>108.2</ele>
        <time>2018-03-30T06:07:06Z</time>
      </trkpt>
      <trkpt lat="38.2873810" lon="-0.6965300">
        <ele>108.4</ele>
        <time>2018-03-30T06:07:07Z</time>
      </trkpt>
      <trkpt lat="38.2874290" lon="-0.6964990">
        <ele>108.5</ele>
        <time>2018-03-30T06:07:08Z</time>
      </trkpt>
      <trkpt lat="38.2874780" lon="-0.6964720">
        <ele>108.7</ele>
        <time>2018-03-30T06:07:09Z</time>
      </trkpt>
      <trkpt lat="38.2875280" lon="-0.6964480">
        <ele>108.9</ele>
        <time>2018-03-30T06:07:10Z</time>
      </trkpt>
      <trkpt lat="38.2875800" lon="-0.6964280">
        <ele>109.1</ele>
        <time>2018-03-30T06:07:11Z</time>
      </trkpt>
      <trkpt lat="38.2876330" lon="-0.6964170">
        <ele>109.4</ele>
        <time>2018-03-30T06:07:12Z</time>
      </trkpt>
      <trkpt lat="38.2876860" lon="-0.6964170">
        <ele>109.6</ele>
        <time>2018-03-30T06:07:13Z</time>
      </trkpt>
      <trkpt lat="38.2877390" lon="-0.6964290">
        <ele>109.9</ele>
        <time>2018-03-30T06:07:14Z</time>
      </trkpt>
      <trkpt lat="38.2877880" lon="-0.6964530">
        <ele>110.1</ele>
        <time>2018-03-30T06:07:15Z</time>
      </trkpt>
      <trkpt lat="38.2878340" lon="-0.6964820">
        <ele>110.4</ele>
        <time>2018-03-30T06:07:16Z</time>
      </trkpt>
      <trkpt lat="38.2878790" lon="-0.6965130">
        <ele>110.6</ele>
        <time>2018-03-30T06:07:17Z</time>
      </trkpt>
      <trkpt lat="38.2879230" lon="-0.6965440">
        <ele>110.9</ele>
        <time>2018-03-30T06:07:18Z</time>
      </trkpt>
      <trkpt lat="38.2879650" lon="-0.6965710">
        <ele>111.1</ele>
        <time>2018-03-30T06:07:19Z</time>
      </trkpt>
      <trkpt lat="38.2880100" lon="-0.6965890">
        <ele>111.3</ele>
        <time>2018-03-30T06:07:20Z</time>
      </trkpt>
      <trkpt lat="38.2880550" lon="-0.6965980">
        <ele>111.5</ele>
        <time>2018-03-30T06:07:21Z</time>
      </trkpt>
      <trkpt lat="38.2881010" lon="-0.6965960">
        <ele>111.7</ele>
        <time>2018-03-30T06:07:22Z</time>
      </trkpt>
      <trkpt lat="38.2881430" lon="-0.6965850">
        <ele>111.8</ele>
        <time>2018-03-30T06:07:23Z</time>
      </trkpt>
      <trkpt lat="38.2881800" lon="-0.6965630">
        <ele>112.0</ele>
        <time>2018-03-30T06:07:24Z</time>
      </trkpt>
      <trkpt lat="38.2882190" lon="-0.6965380">
        <ele>112.2</ele>
        <time>2018-03-30T06:07:25Z</time>
      </trkpt>
      <trkpt lat="38.2882580" lon="-0.6965090">
        <ele>112.3</ele>
        <time>2018-03-30T06:07:26Z</time>
      </trkpt>
      <trkpt lat="38.2882930" lon="-0.6964760">
        <ele>112.5</ele>
        <time>2018-03-30T06:07:27Z</time>
      </trkpt>
      <trkpt lat="38.2883280" lon="-0.6964380">
        <ele>112.7</ele>
        <time>2018-03-30T06:07:28Z</time>
      </trkpt>
      <trkpt lat="38.2883410" lon="-0.6963900">
        <ele>112.8</ele>
        <time>2018-03-30T06:07:29Z</time>
      </trkpt>
      <trkpt lat="38.2883580" lon="-0.6963410">
        <ele>112.9</ele>
        <time>2018-03-30T06:07:30Z</time>
      </trkpt>
      <trkpt lat="38.2883800" lon="-0.6962920">
        <ele>113.0</ele>
        <time>2018-03-30T06:07:31Z</time>
      </trkpt>
      <trkpt lat="38.2883990" lon="-0.6962490">
        <ele>113.1</ele>
        <time>2018-03-30T06:07:32Z</time>
      </trkpt>
      <trkpt lat="38.2884200" lon="-0.6962040">
        <ele>113.2</ele>
        <time>2018-03-30T06:07:33Z</time>
      </trkpt>
      <trkpt lat="38.2884420" lon="-0.6961600">
        <ele>113.2</ele>
        <time>2018-03-30T06:07:34Z</time>
      </trkpt>
      <trkpt lat="38.2884650" lon="-0.6961150">
        <ele>113.3</ele>
        <time>2018-03-30T06:07:35Z</time>
      </trkpt>
      <trkpt lat="38.2884900" lon="-0.6960690">
        <ele>113.4</ele>
        <time>2018-03-30T06:07:36Z</time>
      </trkpt>
      <trkpt lat="38.2885160" lon="-0.6960240">
        <ele>113.6</ele>
        <time>2018-03-30T06:07:37Z</time>
      </trkpt>
      <trkpt lat="38.2885440" lon="-0.6959790">
        <ele>113.7</ele>
        <time>2018-03-30T06:07:38Z</time>
      </trkpt>
      <trkpt lat="38.2885720" lon="-0.6959340">
        <ele>113.8</ele>
        <time>2018-03-30T06:07:39Z</time>
      </trkpt>
      <trkpt lat="38.2886030" lon="-0.6958890">
        <ele>113.9</ele>
        <time>2018-03-30T06:07:40Z</time>
      </trkpt>
      <trkpt lat="38.2886350" lon="-0.6958490">
        <ele>114.0</ele>
        <time>2018-03-30T06:07:41Z</time>
      </trkpt>
      <trkpt lat="38.2886670" lon="-0.6958110">
        <ele>114.1</ele>
        <time>2018-03-30T06:07:42Z</time>
      </trkpt>
      <trkpt lat="38.2887000" lon="-0.6957760">
        <ele>114.2</ele>
        <time>2018-03-30T06:07:43Z</time>
      </trkpt>
      <trkpt lat="38.2887320" lon="-0.6957410">
        <ele>114.3</ele>
        <time>2018-03-30T06:07:44Z</time>
      </trkpt>
      <trkpt lat="38.2887650" lon="-0.6957060">
        <ele>114.3</ele>
        <time>2018-03-30T06:07:45Z</time>
      </trkpt>
      <trkpt lat="38.2888000" lon="-0.6956770">
        <ele>114.4</ele>
        <time>2018-03-30T06:07:46Z</time>
      </trkpt>
      <trkpt lat="38.2888380" lon="-0.6956560">
        <ele>114.4</ele>
        <time>2018-03-30T06:07:47Z</time>
      </trkpt>
      <trkpt lat="38.2888770" lon="-0.6956330">
        <ele>114.4</ele>
        <time>2018-03-30T06:07:48Z</time>
      </trkpt>
      <trkpt lat="38.2889170" lon="-0.6956100">
        <ele>114.4</ele>
        <time>2018-03-30T06:07:49Z</time>
      </trkpt>
      <trkpt lat="38.2889570" lon="-0.6955860">
        <ele>114.4</ele>
        <time>2018-03-30T06:07:50Z</time>
      </trkpt>
      <trkpt lat="38.2889960" lon="-0.6955610">
        <ele>114.4</ele>
        <time>2018-03-30T06:07:51Z</time>
      </trkpt>
      <trkpt lat="38.2890340" lon="-0.6955340">
        <ele>114.5</ele>
        <time>2018-03-30T06:07:52Z</time>
      </trkpt>
      <trkpt lat="38.2890710" lon="-0.6955040">
        <ele>114.5</ele>
        <time>2018-03-30T06:07:53Z</time>
      </trkpt>
      <trkpt lat="38.2891110" lon="-0.6954760">
        <ele>114.5</ele>
        <time>2018-03-30T06:07:54Z</time>
      </trkpt>
      <trkpt lat="38.2891510" lon="-0.6954520">
        <ele>114.5</ele>
        <time>2018-03-30T06:07:55Z</time>
      </trkpt>
      <trkpt lat="38.2891930" lon="-0.6954290">
        <ele>114.5</ele>
        <time>2018-03-30T06:07:56Z</time>
      </trkpt>
      <trkpt lat="38.2892320" lon="-0.6954070">
        <ele>114.5</ele>
        <time>2018-03-30T06:07:57Z</time>
      </trkpt>
      <trkpt lat="38.2892730" lon="-0.6953850">
        <ele>114.5</ele>
        <time>2018-03-30T06:07:58Z</time>
      </trkpt>
      <trkpt lat="38.2893120" lon="-0.6953640">
        <ele>114.5</ele>
        <time>2018-03-30T06:07:59Z</time>
      </trkpt>
      <trkpt lat="38.2893520" lon="-0.6953400">
        <ele>114.5</ele>
        <time>2018-03-30T06:08:00Z</time>
      </trkpt>
      <trkpt lat="38.2893930" lon="-0.6953170">
        <ele>114.6</ele>
        <time>2018-03-30T06:08:01Z</time>
      </trkpt>
      <trkpt lat="38.2894330" lon="-0.6952950">
        <ele>114.6</ele>
        <time>2018-03-30T06:08:02Z</time>
      </trkpt>
      <trkpt lat="38.2894730" lon="-0.6952710">
        <ele>114.7</ele>
        <time>2018-03-30T06:08:03Z</time>
      </trkpt>
      <trkpt lat="38.2895120" lon="-0.6952440">
        <ele>114.8</ele>
        <time>2018-03-30T06:08:04Z</time>
      </trkpt>
      <trkpt lat="38.2895520" lon="-0.6952180">
        <ele>114.9</ele>
        <time>2018-03-30T06:08:05Z</time>
      </trkpt>
      <trkpt lat="38.2895930" lon="-0.6951930">
        <ele>115.1</ele>
        <time>2018-03-30T06:08:06Z</time>
      </trkpt>
      <trkpt lat="38.2896330" lon="-0.6951670">
        <ele>115.2</ele>
        <time>2018-03-30T06:08:07Z</time>
      </trkpt>
      <trkpt lat="38.2896720" lon="-0.6951390">
        <ele>115.4</ele>
        <time>2018-03-30T06:08:08Z</time>
      </trkpt>
      <trkpt lat="38.2897110" lon="-0.6951140">
        <ele>115.5</ele>
        <time>2018-03-30T06:08:09Z</time>
      </trkpt>
      <trkpt lat="38.2897500" lon="-0.6950880">
        <ele>115.7</ele>
        <time>2018-03-30T06:08:10Z</time>
      </trkpt>
      <trkpt lat="38.2897890" lon="-0.6950620">
        <ele>115.8</ele>
        <time>2018-03-30T06:08:11Z</time>
      </trkpt>
      <trkpt lat="38.2898290" lon="-0.6950470">
        <ele>115.9</ele>
        <time>2018-03-30T06:08:12Z</time>
      </trkpt>
      <trkpt lat="38.2898660" lon="-0.6950260">
        <ele>116.0</ele>
        <time>2018-03-30T06:08:13Z</time>
      </trkpt>
      <trkpt lat="38.2899040" lon="-0.6950030">
        <ele>116.1</ele>
        <time>2018-03-30T06:08:14Z</time>
      </trkpt>
      <trkpt lat="38.2899430" lon="-0.6949810">
        <ele>116.2</ele>
        <time>2018-03-30T06:08:15Z</time>
      </trkpt>
      <trkpt lat="38.2899810" lon="-0.6949570">
        <ele>116.2</ele>
        <time>2018-03-30T06:08:16Z</time>
      </trkpt>
      <trkpt lat="38.2900210" lon="-0.6949340">
        <ele>116.4</ele>
        <time>2018-03-30T06:08:17Z</time>
      </trkpt>
      <trkpt lat="38.2900620" lon="-0.6949110">
        <ele>116.6</ele>
        <time>2018-03-30T06:08:18Z</time>
      </trkpt>
      <trkpt lat="38.2901020" lon="-0.6948860">
        <ele>116.8</ele>
        <time>2018-03-30T06:08:19Z</time>
      </trkpt>
      <trkpt lat="38.2901440" lon="-0.6948620">
        <ele>117.0</ele>
        <time>2018-03-30T06:08:20Z</time>
      </trkpt>
      <trkpt lat="38.2901840" lon="-0.6948360">
        <ele>117.2</ele>
        <time>2018-03-30T06:08:21Z</time>
      </trkpt>
      <trkpt lat="38.2902250" lon="-0.6948080">
        <ele>117.5</ele>
        <time>2018-03-30T06:08:22Z</time>
      </trkpt>
      <trkpt lat="38.2902650" lon="-0.6947800">
        <ele>117.7</ele>
        <time>2018-03-30T06:08:23Z</time>
      </trkpt>
      <trkpt lat="38.2903050" lon="-0.6947510">
        <ele>117.9</ele>
        <time>2018-03-30T06:08:24Z</time>
      </trkpt>
      <trkpt lat="38.2903440" lon="-0.6947200">
        <ele>118.1</ele>
        <time>2018-03-30T06:08:25Z</time>
      </trkpt>
      <trkpt lat="38.2903830" lon="-0.6946880">
        <ele>118.3</ele>
        <time>2018-03-30T06:08:26Z</time>
      </trkpt>
      <trkpt lat="38.2904200" lon="-0.6946560">
        <ele>118.5</ele>
        <time>2018-03-30T06:08:27Z</time>
      </trkpt>
      <trkpt lat="38.2904550" lon="-0.6946240">
        <ele>118.7</ele>
        <time>2018-03-30T06:08:28Z</time>
      </trkpt>
      <trkpt lat="38.2904900" lon="-0.6945930">
        <ele>118.8</ele>
        <time>2018-03-30T06:08:29Z</time>
      </trkpt>
      <trkpt lat="38.2905230" lon="-0.6945640">
        <ele>119.0</ele>
        <time>2018-03-30T06:08:30Z</time>
      </trkpt>
      <trkpt lat="38.2905550" lon="-0.6945360">
        <ele>119.2</ele>
        <time>2018-03-30T06:08:31Z</time>
      </trkpt>
      <trkpt lat="38.2905850" lon="-0.6945050">
        <ele>119.3</ele>
        <time>2018-03-30T06:08:32Z</time>
      </trkpt>
      <trkpt lat="38.2906140" lon="-0.6944760">
        <ele>119.5</ele>
        <time>2018-03-30T06:08:33Z</time>
      </trkpt>
      <trkpt lat="38.2906430" lon="-0.6944480">
        <ele>119.6</ele>
        <time>2018-03-30T06:08:34Z</time>
      </trkpt>
      <trkpt lat="38.2906730" lon="-0.6944190">
        <ele>119.7</ele>
        <time>2018-03-30T06:08:35Z</time>
      </trkpt>
      <trkpt lat="38.2907020" lon="-0.6943890">
        <ele>119.9</ele>
        <time>2018-03-30T06:08:36Z</time>
      </trkpt>
      <trkpt lat="38.2907320" lon="-0.6943590">
        <ele>120.2</ele>
        <time>2018-03-30T06:08:37Z</time>
      </trkpt>
      <trkpt lat="38.2907600" lon="-0.6943290">
        <ele>120.9</ele>
        <time>2018-03-30T06:08:38Z</time>
      </trkpt>
      <trkpt lat="38.2907880" lon="-0.6943030">
        <ele>121.7</ele>
        <time>2018-03-30T06:08:39Z</time>
      </trkpt>
      <trkpt lat="38.2908180" lon="-0.6942750">
        <ele>122.5</ele>
        <time>2018-03-30T06:08:40Z</time>
      </trkpt>
      <trkpt lat="38.2908470" lon="-0.6942470">
        <ele>123.0</ele>
        <time>2018-03-30T06:08:41Z</time>
      </trkpt>
      <trkpt lat="38.2908800" lon="-0.6942180">
        <ele>123.2</ele>
        <time>2018-03-30T06:08:42Z</time>
      </trkpt>
      <trkpt lat="38.2909110" lon="-0.6941900">
        <ele>123.3</ele>
        <time>2018-03-30T06:08:43Z</time>
      </trkpt>
      <trkpt lat="38.2909430" lon="-0.6941630">
        <ele>123.4</ele>
        <time>2018-03-30T06:08:44Z</time>
      </trkpt>
      <trkpt lat="38.2909770" lon="-0.6941380">
        <ele>123.6</ele>
        <time>2018-03-30T06:08:45Z</time>
      </trkpt>
      <trkpt lat="38.2910110" lon="-0.6941140">
        <ele>123.7</ele>
        <time>2018-03-30T06:08:46Z</time>
      </trkpt>
      <trkpt lat="38.2910440" lon="-0.6940880">
        <ele>123.8</ele>
        <time>2018-03-30T06:08:47Z</time>
      </trkpt>
      <trkpt lat="38.2910770" lon="-0.6940610">
        <ele>123.9</ele>
        <time>2018-03-30T06:08:48Z</time>
      </trkpt>
      <trkpt lat="38.2911130" lon="-0.6940360">
        <ele>124.1</ele>
        <time>2018-03-30T06:08:49Z</time>
      </trkpt>
      <trkpt lat="38.2911490" lon="-0.6940110">
        <ele>124.2</ele>
        <time>2018-03-30T06:08:50Z</time>
      </trkpt>
      <trkpt lat="38.2911860" lon="-0.6939870">
        <ele>124.4</ele>
        <time>2018-03-30T06:08:51Z</time>
      </trkpt>
      <trkpt lat="38.2912230" lon="-0.6939610">
        <ele>124.5</ele>
        <time>2018-03-30T06:08:52Z</time>
      </trkpt>
      <trkpt lat="38.2912610" lon="-0.6939360">
        <ele>124.6</ele>
        <time>2018-03-30T06:08:53Z</time>
      </trkpt>
      <trkpt lat="38.2912990" lon="-0.6939090">
        <ele>124.8</ele>
        <time>2018-03-30T06:08:54Z</time>
      </trkpt>
      <trkpt lat="38.2913380" lon="-0.6938820">
        <ele>124.9</ele>
        <time>2018-03-30T06:08:55Z</time>
      </trkpt>
      <trkpt lat="38.2913780" lon="-0.6938550">
        <ele>125.0</ele>
        <time>2018-03-30T06:08:56Z</time>
      </trkpt>
      <trkpt lat="38.2914170" lon="-0.6938280">
        <ele>125.1</ele>
        <time>2018-03-30T06:08:57Z</time>
      </trkpt>
      <trkpt lat="38.2914570" lon="-0.6938000">
        <ele>125.3</ele>
        <time>2018-03-30T06:08:58Z</time>
      </trkpt>
      <trkpt lat="38.2914970" lon="-0.6937750">
        <ele>125.4</ele>
        <time>2018-03-30T06:08:59Z</time>
      </trkpt>
      <trkpt lat="38.2915350" lon="-0.6937500">
        <ele>125.5</ele>
        <time>2018-03-30T06:09:00Z</time>
      </trkpt>
      <trkpt lat="38.2915730" lon="-0.6937240">
        <ele>125.6</ele>
        <time>2018-03-30T06:09:01Z</time>
      </trkpt>
      <trkpt lat="38.2916100" lon="-0.6936970">
        <ele>125.8</ele>
        <time>2018-03-30T06:09:02Z</time>
      </trkpt>
      <trkpt lat="38.2916480" lon="-0.6936720">
        <ele>125.9</ele>
        <time>2018-03-30T06:09:03Z</time>
      </trkpt>
      <trkpt lat="38.2916860" lon="-0.6936470">
        <ele>126.0</ele>
        <time>2018-03-30T06:09:04Z</time>
      </trkpt>
      <trkpt lat="38.2917250" lon="-0.6936220">
        <ele>126.1</ele>
        <time>2018-03-30T06:09:05Z</time>
      </trkpt>
      <trkpt lat="38.2917640" lon="-0.6935960">
        <ele>126.2</ele>
        <time>2018-03-30T06:09:06Z</time>
      </trkpt>
      <trkpt lat="38.2918020" lon="-0.6935710">
        <ele>126.6</ele>
        <time>2018-03-30T06:09:07Z</time>
      </trkpt>
      <trkpt lat="38.2918410" lon="-0.6935460">
        <ele>126.9</ele>
        <time>2018-03-30T06:09:08Z</time>
      </trkpt>
      <trkpt lat="38.2918790" lon="-0.6935210">
        <ele>127.0</ele>
        <time>2018-03-30T06:09:09Z</time>
      </trkpt>
      <trkpt lat="38.2919180" lon="-0.6934950">
        <ele>127.2</ele>
        <time>2018-03-30T06:09:10Z</time>
      </trkpt>
      <trkpt lat="38.2919570" lon="-0.6934700">
        <ele>127.3</ele>
        <time>2018-03-30T06:09:11Z</time>
      </trkpt>
      <trkpt lat="38.2919970" lon="-0.6934440">
        <ele>127.5</ele>
        <time>2018-03-30T06:09:12Z</time>
      </trkpt>
      <trkpt lat="38.2920360" lon="-0.6934180">
        <ele>127.6</ele>
        <time>2018-03-30T06:09:13Z</time>
      </trkpt>
      <trkpt lat="38.2920790" lon="-0.6933950">
        <ele>127.8</ele>
        <time>2018-03-30T06:09:14Z</time>
      </trkpt>
      <trkpt lat="38.2921200" lon="-0.6933720">
        <ele>128.0</ele>
        <time>2018-03-30T06:09:15Z</time>
      </trkpt>
      <trkpt lat="38.2921620" lon="-0.6933490">
        <ele>128.2</ele>
        <time>2018-03-30T06:09:16Z</time>
      </trkpt>
      <trkpt lat="38.2922020" lon="-0.6933260">
        <ele>128.4</ele>
        <time>2018-03-30T06:09:17Z</time>
      </trkpt>
      <trkpt lat="38.2922440" lon="-0.6933050">
        <ele>128.7</ele>
        <time>2018-03-30T06:09:18Z</time>
      </trkpt>
      <trkpt lat="38.2922850" lon="-0.6932850">
        <ele>128.9</ele>
        <time>2018-03-30T06:09:19Z</time>
      </trkpt>
      <trkpt lat="38.2923260" lon="-0.6932640">
        <ele>129.1</ele>
        <time>2018-03-30T06:09:20Z</time>
      </trkpt>
      <trkpt lat="38.2923680" lon="-0.6932440">
        <ele>129.3</ele>
        <time>2018-03-30T06:09:21Z</time>
      </trkpt>
      <trkpt lat="38.2924120" lon="-0.6932260">
        <ele>129.5</ele>
        <time>2018-03-30T06:09:22Z</time>
      </trkpt>
      <trkpt lat="38.2924560" lon="-0.6932070">
        <ele>129.7</ele>
        <time>2018-03-30T06:09:23Z</time>
      </trkpt>
      <trkpt lat="38.2925030" lon="-0.6931880">
        <ele>129.9</ele>
        <time>2018-03-30T06:09:24Z</time>
      </trkpt>
      <trkpt lat="38.2925500" lon="-0.6931680">
        <ele>130.1</ele>
        <time>2018-03-30T06:09:25Z</time>
      </trkpt>
      <trkpt lat="38.2926000" lon="-0.6931500">
        <ele>130.4</ele>
        <time>2018-03-30T06:09:26Z</time>
      </trkpt>
      <trkpt lat="38.2926520" lon="-0.6931300">
        <ele>130.6</ele>
        <time>2018-03-30T06:09:27Z</time>
      </trkpt>
      <trkpt lat="38.2927080" lon="-0.6931110">
        <ele>130.9</ele>
        <time>2018-03-30T06:09:28Z</time>
      </trkpt>
      <trkpt lat="38.2927660" lon="-0.6930910">
        <ele>131.1</ele>
        <time>2018-03-30T06:09:29Z</time>
      </trkpt>
      <trkpt lat="38.2928280" lon="-0.6930730">
        <ele>131.3</ele>
        <time>2018-03-30T06:09:30Z</time>
      </trkpt>
      <trkpt lat="38.2928920" lon="-0.6930550">
        <ele>131.5</ele>
        <time>2018-03-30T06:09:31Z</time>
      </trkpt>
      <trkpt lat="38.2929590" lon="-0.6930380">
        <ele>131.7</ele>
        <time>2018-03-30T06:09:32Z</time>
      </trkpt>
      <trkpt lat="38.2930260" lon="-0.6930180">
        <ele>132.0</ele>
        <time>2018-03-30T06:09:33Z</time>
      </trkpt>
      <trkpt lat="38.2930960" lon="-0.6929980">
        <ele>132.1</ele>
        <time>2018-03-30T06:09:34Z</time>
      </trkpt>
      <trkpt lat="38.2931650" lon="-0.6929790">
        <ele>132.2</ele>
        <time>2018-03-30T06:09:35Z</time>
      </trkpt>
      <trkpt lat="38.2932340" lon="-0.6929590">
        <ele>132.3</ele>
        <time>2018-03-30T06:09:36Z</time>
      </trkpt>
      <trkpt lat="38.2933020" lon="-0.6929380">
        <ele>132.4</ele>
        <time>2018-03-30T06:09:37Z</time>
      </trkpt>
      <trkpt lat="38.2933710" lon="-0.6929180">
        <ele>132.5</ele>
        <time>2018-03-30T06:09:38Z</time>
      </trkpt>
      <trkpt lat="38.2934370" lon="-0.6928970">
        <ele>132.6</ele>
        <time>2018-03-30T06:09:39Z</time>
      </trkpt>
      <trkpt lat="38.2935020" lon="-0.6928770">
        <ele>132.7</ele>
        <time>2018-03-30T06:09:40Z</time>
      </trkpt>
      <trkpt lat="38.2935630" lon="-0.6928730">
        <ele>132.8</ele>
        <time>2018-03-30T06:09:41Z</time>
      </trkpt>
      <trkpt lat="38.2936100" lon="-0.6928530">
        <ele>132.9</ele>
        <time>2018-03-30T06:09:42Z</time>
      </trkpt>
      <trkpt lat="38.2936530" lon="-0.6928330">
        <ele>133.0</ele>
        <time>2018-03-30T06:09:43Z</time>
      </trkpt>
      <trkpt lat="38.2936970" lon="-0.6928110">
        <ele>133.5</ele>
        <time>2018-03-30T06:09:44Z</time>
      </trkpt>
      <trkpt lat="38.2937420" lon="-0.6927850">
        <ele>134.0</ele>
        <time>2018-03-30T06:09:45Z</time>
      </trkpt>
      <trkpt lat="38.2937810" lon="-0.6927610">
        <ele>134.4</ele>
        <time>2018-03-30T06:09:46Z</time>
      </trkpt>
      <trkpt lat="38.2938160" lon="-0.6927350">
        <ele>134.8</ele>
        <time>2018-03-30T06:09:47Z</time>
      </trkpt>
      <trkpt lat="38.2938490" lon="-0.6927090">
        <ele>135.2</ele>
        <time>2018-03-30T06:09:48Z</time>
      </trkpt>
      <trkpt lat="38.2938810" lon="-0.6926840">
        <ele>135.5</ele>
        <time>2018-03-30T06:09:49Z</time>
      </trkpt>
      <trkpt lat="38.2939110" lon="-0.6926600">
        <ele>135.9</ele>
        <time>2018-03-30T06:09:50Z</time>
      </trkpt>
      <trkpt lat="38.2939390" lon="-0.6926410">
        <ele>136.1</ele>
        <time>2018-03-30T06:09:51Z</time>
      </trkpt>
      <trkpt lat="38.2939660" lon="-0.6926180">
        <ele>136.4</ele>
        <time>2018-03-30T06:09:52Z</time>
      </trkpt>
      <trkpt lat="38.2939900" lon="-0.6925970">
        <ele>136.7</ele>
        <time>2018-03-30T06:09:53Z</time>
      </trkpt>
      <trkpt lat="38.2940160" lon="-0.6925760">
        <ele>137.0</ele>
        <time>2018-03-30T06:09:54Z</time>
      </trkpt>
      <trkpt lat="38.2940390" lon="-0.6925510">
        <ele>137.2</ele>
        <time>2018-03-30T06:09:55Z</time>
      </trkpt>
      <trkpt lat="38.2940620" lon="-0.6925250">
        <ele>137.5</ele>
        <time>2018-03-30T06:09:56Z</time>
      </trkpt>
      <trkpt lat="38.2940860" lon="-0.6925010">
        <ele>137.7</ele>
        <time>2018-03-30T06:09:57Z</time>
      </trkpt>
      <trkpt lat="38.2941100" lon="-0.6924750">
        <ele>138.0</ele>
        <time>2018-03-30T06:09:58Z</time>
      </trkpt>
      <trkpt lat="38.2941340" lon="-0.6924490">
        <ele>138.2</ele>
        <time>2018-03-30T06:09:59Z</time>
      </trkpt>
      <trkpt lat="38.2941570" lon="-0.6924240">
        <ele>138.5</ele>
        <time>2018-03-30T06:10:00Z</time>
      </trkpt>
      <trkpt lat="38.2941810" lon="-0.6923990">
        <ele>138.7</ele>
        <time>2018-03-30T06:10:01Z</time>
      </trkpt>
      <trkpt lat="38.2942070" lon="-0.6923760">
        <ele>139.0</ele>
        <time>2018-03-30T06:10:02Z</time>
      </trkpt>
      <trkpt lat="38.2942320" lon="-0.6923540">
        <ele>139.2</ele>
        <time>2018-03-30T06:10:03Z</time>
      </trkpt>
      <trkpt lat="38.2942590" lon="-0.6923360">
        <ele>139.4</ele>
        <time>2018-03-30T06:10:04Z</time>
      </trkpt>
      <trkpt lat="38.2942850" lon="-0.6923170">
        <ele>139.6</ele>
        <time>2018-03-30T06:10:05Z</time>
      </trkpt>
      <trkpt lat="38.2943120" lon="-0.6923010">
        <ele>139.8</ele>
        <time>2018-03-30T06:10:06Z</time>
      </trkpt>
      <trkpt lat="38.2943430" lon="-0.6922880">
        <ele>140.0</ele>
        <time>2018-03-30T06:10:07Z</time>
      </trkpt>
      <trkpt lat="38.2943700" lon="-0.6922730">
        <ele>140.1</ele>
        <time>2018-03-30T06:10:08Z</time>
      </trkpt>
      <trkpt lat="38.2943990" lon="-0.6922570">
        <ele>140.3</ele>
        <time>2018-03-30T06:10:09Z</time>
      </trkpt>
      <trkpt lat="38.2944260" lon="-0.6922410">
        <ele>140.4</ele>
        <time>2018-03-30T06:10:10Z</time>
      </trkpt>
      <trkpt lat="38.2944550" lon="-0.6922270">
        <ele>140.6</ele>
        <time>2018-03-30T06:10:11Z</time>
      </trkpt>
      <trkpt lat="38.2944840" lon="-0.6922110">
        <ele>140.7</ele>
        <time>2018-03-30T06:10:12Z</time>
      </trkpt>
      <trkpt lat="38.2945140" lon="-0.6921950">
        <ele>140.8</ele>
        <time>2018-03-30T06:10:13Z</time>
      </trkpt>
      <trkpt lat="38.2945450" lon="-0.6921810">
        <ele>141.0</ele>
        <time>2018-03-30T06:10:14Z</time>
      </trkpt>
      <trkpt lat="38.2945770" lon="-0.6921670">
        <ele>141.1</ele>
        <time>2018-03-30T06:10:15Z</time>
      </trkpt>
      <trkpt lat="38.2946090" lon="-0.6921520">
        <ele>141.2</ele>
        <time>2018-03-30T06:10:16Z</time>
      </trkpt>
      <trkpt lat="38.2946420" lon="-0.6921370">
        <ele>141.4</ele>
        <time>2018-03-30T06:10:17Z</time>
      </trkpt>
      <trkpt lat="38.2946720" lon="-0.6921230">
        <ele>141.5</ele>
        <time>2018-03-30T06:10:18Z</time>
      </trkpt>
      <trkpt lat="38.2947030" lon="-0.6921080">
        <ele>141.6</ele>
        <time>2018-03-30T06:10:19Z</time>
      </trkpt>
      <trkpt lat="38.2947330" lon="-0.6920930">
        <ele>141.7</ele>
        <time>2018-03-30T06:10:20Z</time>
      </trkpt>
      <trkpt lat="38.2947640" lon="-0.6920790">
        <ele>141.9</ele>
        <time>2018-03-30T06:10:21Z</time>
      </trkpt>
      <trkpt lat="38.2947950" lon="-0.6920670">
        <ele>142.0</ele>
        <time>2018-03-30T06:10:22Z</time>
      </trkpt>
      <trkpt lat="38.2948260" lon="-0.6920540">
        <ele>142.1</ele>
        <time>2018-03-30T06:10:23Z</time>
      </trkpt>
      <trkpt lat="38.2948570" lon="-0.6920400">
        <ele>142.3</ele>
        <time>2018-03-30T06:10:24Z</time>
      </trkpt>
      <trkpt lat="38.2948890" lon="-0.6920240">
        <ele>142.4</ele>
        <time>2018-03-30T06:10:25Z</time>
      </trkpt>
      <trkpt lat="38.2949240" lon="-0.6920080">
        <ele>142.5</ele>
        <time>2018-03-30T06:10:26Z</time>
      </trkpt>
      <trkpt lat="38.2949590" lon="-0.6919930">
        <ele>142.7</ele>
        <time>2018-03-30T06:10:27Z</time>
      </trkpt>
      <trkpt lat="38.2949940" lon="-0.6919780">
        <ele>142.8</ele>
        <time>2018-03-30T06:10:28Z</time>
      </trkpt>
      <trkpt lat="38.2950290" lon="-0.6919610">
        <ele>142.9</ele>
        <time>2018-03-30T06:10:29Z</time>
      </trkpt>
      <trkpt lat="38.2950640" lon="-0.6919450">
        <ele>143.0</ele>
        <time>2018-03-30T06:10:30Z</time>
      </trkpt>
      <trkpt lat="38.2950980" lon="-0.6919290">
        <ele>143.1</ele>
        <time>2018-03-30T06:10:31Z</time>
      </trkpt>
      <trkpt lat="38.2951320" lon="-0.6919110">
        <ele>143.1</ele>
        <time>2018-03-30T06:10:32Z</time>
      </trkpt>
      <trkpt lat="38.2951670" lon="-0.6918930">
        <ele>143.2</ele>
        <time>2018-03-30T06:10:33Z</time>
      </trkpt>
      <trkpt lat="38.2952040" lon="-0.6918750">
        <ele>143.2</ele>
        <time>2018-03-30T06:10:34Z</time>
      </trkpt>
      <trkpt lat="38.2952410" lon="-0.6918570">
        <ele>143.3</ele>
        <time>2018-03-30T06:10:35Z</time>
      </trkpt>
      <trkpt lat="38.2952790" lon="-0.6918370">
        <ele>143.3</ele>
        <time>2018-03-30T06:10:36Z</time>
      </trkpt>
      <trkpt lat="38.2953160" lon="-0.6918150">
        <ele>143.4</ele>
        <time>2018-03-30T06:10:37Z</time>
      </trkpt>
      <trkpt lat="38.2953540" lon="-0.6917930">
        <ele>143.5</ele>
        <time>2018-03-30T06:10:38Z</time>
      </trkpt>
      <trkpt lat="38.2953920" lon="-0.6917720">
        <ele>143.6</ele>
        <time>2018-03-30T06:10:39Z</time>
      </trkpt>
      <trkpt lat="38.2954300" lon="-0.6917510">
        <ele>143.7</ele>
        <time>2018-03-30T06:10:40Z</time>
      </trkpt>
      <trkpt lat="38.2954680" lon="-0.6917290">
        <ele>143.8</ele>
        <time>2018-03-30T06:10:41Z</time>
      </trkpt>
      <trkpt lat="38.2955050" lon="-0.6917060">
        <ele>144.0</ele>
        <time>2018-03-30T06:10:42Z</time>
      </trkpt>
      <trkpt lat="38.2955430" lon="-0.6916840">
        <ele>144.2</ele>
        <time>2018-03-30T06:10:43Z</time>
      </trkpt>
      <trkpt lat="38.2955810" lon="-0.6916630">
        <ele>144.3</ele>
        <time>2018-03-30T06:10:44Z</time>
      </trkpt>
      <trkpt lat="38.2956200" lon="-0.6916420">
        <ele>144.5</ele>
        <time>2018-03-30T06:10:45Z</time>
      </trkpt>
      <trkpt lat="38.2956580" lon="-0.6916220">
        <ele>144.6</ele>
        <time>2018-03-30T06:10:46Z</time>
      </trkpt>
      <trkpt lat="38.2956970" lon="-0.6916030">
        <ele>144.7</ele>
        <time>2018-03-30T06:10:47Z</time>
      </trkpt>
      <trkpt lat="38.2957360" lon="-0.6915850">
        <ele>144.8</ele>
        <time>2018-03-30T06:10:48Z</time>
      </trkpt>
      <trkpt lat="38.2957760" lon="-0.6915660">
        <ele>144.9</ele>
        <time>2018-03-30T06:10:49Z</time>
      </trkpt>
      <trkpt lat="38.2958140" lon="-0.6915490">
        <ele>144.9</ele>
        <time>2018-03-30T06:10:50Z</time>
      </trkpt>
      <trkpt lat="38.2958530" lon="-0.6915320">
        <ele>145.0</ele>
        <time>2018-03-30T06:10:51Z</time>
      </trkpt>
      <trkpt lat="38.2958910" lon="-0.6915170">
        <ele>145.0</ele>
        <time>2018-03-30T06:10:52Z</time>
      </trkpt>
      <trkpt lat="38.2959300" lon="-0.6915010">
        <ele>145.0</ele>
        <time>2018-03-30T06:10:53Z</time>
      </trkpt>
      <trkpt lat="38.2959690" lon="-0.6914850">
        <ele>145.0</ele>
        <time>2018-03-30T06:10:54Z</time>
      </trkpt>
      <trkpt lat="38.2960080" lon="-0.6914680">
        <ele>145.0</ele>
        <time>2018-03-30T06:10:55Z</time>
      </trkpt>
      <trkpt lat="38.2960490" lon="-0.6914520">
        <ele>145.0</ele>
        <time>2018-03-30T06:10:56Z</time>
      </trkpt>
      <trkpt lat="38.2960890" lon="-0.6914360">
        <ele>145.0</ele>
        <time>2018-03-30T06:10:57Z</time>
      </trkpt>
      <trkpt lat="38.2961300" lon="-0.6914180">
        <ele>145.0</ele>
        <time>2018-03-30T06:10:58Z</time>
      </trkpt>
      <trkpt lat="38.2961720" lon="-0.6914020">
        <ele>145.0</ele>
        <time>2018-03-30T06:10:59Z</time>
      </trkpt>
      <trkpt lat="38.2962140" lon="-0.6913870">
        <ele>145.0</ele>
        <time>2018-03-30T06:11:00Z</time>
      </trkpt>
      <trkpt lat="38.2962570" lon="-0.6913710">
        <ele>145.0</ele>
        <time>2018-03-30T06:11:01Z</time>
      </trkpt>
      <trkpt lat="38.2962980" lon="-0.6913570">
        <ele>145.0</ele>
        <time>2018-03-30T06:11:02Z</time>
      </trkpt>
      <trkpt lat="38.2963380" lon="-0.6913430">
        <ele>145.0</ele>
        <time>2018-03-30T06:11:03Z</time>
      </trkpt>
      <trkpt lat="38.2963780" lon="-0.6913280">
        <ele>145.0</ele>
        <time>2018-03-30T06:11:04Z</time>
      </trkpt>
      <trkpt lat="38.2964180" lon="-0.6913140">
        <ele>145.1</ele>
        <time>2018-03-30T06:11:05Z</time>
      </trkpt>
      <trkpt lat="38.2964580" lon="-0.6912980">
        <ele>145.3</ele>
        <time>2018-03-30T06:11:06Z</time>
      </trkpt>
      <trkpt lat="38.2965000" lon="-0.6912820">
        <ele>145.4</ele>
        <time>2018-03-30T06:11:07Z</time>
      </trkpt>
      <trkpt lat="38.2965440" lon="-0.6912650">
        <ele>145.6</ele>
        <time>2018-03-30T06:11:08Z</time>
      </trkpt>
      <trkpt lat="38.2965890" lon="-0.6912480">
        <ele>145.7</ele>
        <time>2018-03-30T06:11:09Z</time>
      </trkpt>
      <trkpt lat="38.2966370" lon="-0.6912320">
        <ele>145.9</ele>
        <time>2018-03-30T06:11:10Z</time>
      </trkpt>
      <trkpt lat="38.2966850" lon="-0.6912160">
        <ele>146.1</ele>
        <time>2018-03-30T06:11:11Z</time>
      </trkpt>
      <trkpt lat="38.2967330" lon="-0.6911980">
        <ele>146.2</ele>
        <time>2018-03-30T06:11:12Z</time>
      </trkpt>
      <trkpt lat="38.2967810" lon="-0.6911800">
        <ele>146.4</ele>
        <time>2018-03-30T06:11:13Z</time>
      </trkpt>
      <trkpt lat="38.2968290" lon="-0.6911620">
        <ele>146.5</ele>
        <time>2018-03-30T06:11:14Z</time>
      </trkpt>
      <trkpt lat="38.2968760" lon="-0.6911430">
        <ele>146.6</ele>
        <time>2018-03-30T06:11:15Z</time>
      </trkpt>
      <trkpt lat="38.2969220" lon="-0.6911250">
        <ele>146.8</ele>
        <time>2018-03-30T06:11:16Z</time>
      </trkpt>
      <trkpt lat="38.2969670" lon="-0.6911100">
        <ele>147.0</ele>
        <time>2018-03-30T06:11:17Z</time>
      </trkpt>
      <trkpt lat="38.2970100" lon="-0.6910950">
        <ele>147.3</ele>
        <time>2018-03-30T06:11:18Z</time>
      </trkpt>
      <trkpt lat="38.2970500" lon="-0.6910800">
        <ele>147.5</ele>
        <time>2018-03-30T06:11:19Z</time>
      </trkpt>
      <trkpt lat="38.2970890" lon="-0.6910650">
        <ele>147.7</ele>
        <time>2018-03-30T06:11:20Z</time>
      </trkpt>
      <trkpt lat="38.2971260" lon="-0.6910510">
        <ele>147.9</ele>
        <time>2018-03-30T06:11:21Z</time>
      </trkpt>
      <trkpt lat="38.2971630" lon="-0.6910380">
        <ele>148.0</ele>
        <time>2018-03-30T06:11:22Z</time>
      </trkpt>
      <trkpt lat="38.2972000" lon="-0.6910250">
        <ele>148.1</ele>
        <time>2018-03-30T06:11:23Z</time>
      </trkpt>
      <trkpt lat="38.2972370" lon="-0.6910130">
        <ele>148.3</ele>
        <time>2018-03-30T06:11:24Z</time>
      </trkpt>
      <trkpt lat="38.2972750" lon="-0.6910010">
        <ele>148.4</ele>
        <time>2018-03-30T06:11:25Z</time>
      </trkpt>
      <trkpt lat="38.2973110" lon="-0.6909880">
        <ele>148.6</ele>
        <time>2018-03-30T06:11:26Z</time>
      </trkpt>
      <trkpt lat="38.2973470" lon="-0.6909740">
        <ele>148.7</ele>
        <time>2018-03-30T06:11:27Z</time>
      </trkpt>
      <trkpt lat="38.2973830" lon="-0.6909600">
        <ele>148.9</ele>
        <time>2018-03-30T06:11:28Z</time>
      </trkpt>
      <trkpt lat="38.2974230" lon="-0.6909450">
        <ele>149.1</ele>
        <time>2018-03-30T06:11:29Z</time>
      </trkpt>
      <trkpt lat="38.2974650" lon="-0.6909290">
        <ele>149.1</ele>
        <time>2018-03-30T06:11:30Z</time>
      </trkpt>
      <trkpt lat="38.2975080" lon="-0.6909120">
        <ele>149.2</ele>
        <time>2018-03-30T06:11:31Z</time>
      </trkpt>
      <trkpt lat="38.2975510" lon="-0.6908940">
        <ele>149.3</ele>
        <time>2018-03-30T06:11:32Z</time>
      </trkpt>
      <trkpt lat="38.2975930" lon="-0.6908760">
        <ele>149.2</ele>
        <time>2018-03-30T06:11:33Z</time>
      </trkpt>
      <trkpt lat="38.2976360" lon="-0.6908610">
        <ele>149.2</ele>
        <time>2018-03-30T06:11:34Z</time>
      </trkpt>
      <trkpt lat="38.2976820" lon="-0.6908530">
        <ele>149.1</ele>
        <time>2018-03-30T06:11:35Z</time>
      </trkpt>
      <trkpt lat="38.2977330" lon="-0.6908500">
        <ele>149.0</ele>
        <time>2018-03-30T06:11:36Z</time>
      </trkpt>
      <trkpt lat="38.2977860" lon="-0.6908580">
        <ele>148.8</ele>
        <time>2018-03-30T06:11:37Z</time>
      </trkpt>
      <trkpt lat="38.2978460" lon="-0.6908730">
        <ele>148.6</ele>
        <time>2018-03-30T06:11:38Z</time>
      </trkpt>
      <trkpt lat="38.2979090" lon="-0.6908910">
        <ele>148.4</ele>
        <time>2018-03-30T06:11:39Z</time>
      </trkpt>
      <trkpt lat="38.2979740" lon="-0.6909100">
        <ele>148.1</ele>
        <time>2018-03-30T06:11:40Z</time>
      </trkpt>
      <trkpt lat="38.2980460" lon="-0.6909250">
        <ele>147.8</ele>
        <time>2018-03-30T06:11:41Z</time>
      </trkpt>
      <trkpt lat="38.2981220" lon="-0.6909300">
        <ele>147.6</ele>
        <time>2018-03-30T06:11:42Z</time>
      </trkpt>
      <trkpt lat="38.2982000" lon="-0.6909230">
        <ele>147.3</ele>
        <time>2018-03-30T06:11:43Z</time>
      </trkpt>
      <trkpt lat="38.2982800" lon="-0.6909080">
        <ele>147.2</ele>
        <time>2018-03-30T06:11:44Z</time>
      </trkpt>
      <trkpt lat="38.2983610" lon="-0.6908880">
        <ele>147.0</ele>
        <time>2018-03-30T06:11:45Z</time>
      </trkpt>
      <trkpt lat="38.2984460" lon="-0.6908610">
        <ele>146.9</ele>
        <time>2018-03-30T06:11:46Z</time>
      </trkpt>
      <trkpt lat="38.2985310" lon="-0.6908380">
        <ele>146.7</ele>
        <time>2018-03-30T06:11:47Z</time>
      </trkpt>
      <trkpt lat="38.2986170" lon="-0.6908170">
        <ele>146.7</ele>
        <time>2018-03-30T06:11:48Z</time>
      </trkpt>
      <trkpt lat="38.2987020" lon="-0.6907950">
        <ele>146.7</ele>
        <time>2018-03-30T06:11:49Z</time>
      </trkpt>
      <trkpt lat="38.2987840" lon="-0.6907740">
        <ele>146.7</ele>
        <time>2018-03-30T06:11:50Z</time>
      </trkpt>
      <trkpt lat="38.2988640" lon="-0.6907540">
        <ele>146.8</ele>
        <time>2018-03-30T06:11:51Z</time>
      </trkpt>
      <trkpt lat="38.2989420" lon="-0.6907330">
        <ele>146.9</ele>
        <time>2018-03-30T06:11:52Z</time>
      </trkpt>
      <trkpt lat="38.2990190" lon="-0.6907120">
        <ele>147.0</ele>
        <time>2018-03-30T06:11:53Z</time>
      </trkpt>
      <trkpt lat="38.2990950" lon="-0.6906880">
        <ele>147.1</ele>
        <time>2018-03-30T06:11:54Z</time>
      </trkpt>
      <trkpt lat="38.2991690" lon="-0.6906630">
        <ele>147.2</ele>
        <time>2018-03-30T06:11:55Z</time>
      </trkpt>
      <trkpt lat="38.2992420" lon="-0.6906400">
        <ele>147.3</ele>
        <time>2018-03-30T06:11:56Z</time>
      </trkpt>
      <trkpt lat="38.2993130" lon="-0.6906150">
        <ele>147.4</ele>
        <time>2018-03-30T06:11:57Z</time>
      </trkpt>
      <trkpt lat="38.2993820" lon="-0.6905920">
        <ele>147.7</ele>
        <time>2018-03-30T06:11:58Z</time>
      </trkpt>
      <trkpt lat="38.2994490" lon="-0.6905690">
        <ele>148.1</ele>
        <time>2018-03-30T06:11:59Z</time>
      </trkpt>
      <trkpt lat="38.2995140" lon="-0.6905470">
        <ele>148.6</ele>
        <time>2018-03-30T06:12:00Z</time>
      </trkpt>
      <trkpt lat="38.2995760" lon="-0.6905300">
        <ele>149.0</ele>
        <time>2018-03-30T06:12:01Z</time>
      </trkpt>
      <trkpt lat="38.2996350" lon="-0.6905190">
        <ele>149.4</ele>
        <time>2018-03-30T06:12:02Z</time>
      </trkpt>
      <trkpt lat="38.2996890" lon="-0.6905160">
        <ele>149.7</ele>
        <time>2018-03-30T06:12:03Z</time>
      </trkpt>
      <trkpt lat="38.2997410" lon="-0.6905140">
        <ele>150.1</ele>
        <time>2018-03-30T06:12:04Z</time>
      </trkpt>
      <trkpt lat="38.2997880" lon="-0.6905170">
        <ele>150.6</ele>
        <time>2018-03-30T06:12:05Z</time>
      </trkpt>
      <trkpt lat="38.2998320" lon="-0.6905210">
        <ele>151.0</ele>
        <time>2018-03-30T06:12:06Z</time>
      </trkpt>
      <trkpt lat="38.2998750" lon="-0.6905220">
        <ele>151.4</ele>
        <time>2018-03-30T06:12:07Z</time>
      </trkpt>
      <trkpt lat="38.2999160" lon="-0.6905210">
        <ele>151.7</ele>
        <time>2018-03-30T06:12:08Z</time>
      </trkpt>
      <trkpt lat="38.2999550" lon="-0.6905190">
        <ele>152.0</ele>
        <time>2018-03-30T06:12:09Z</time>
      </trkpt>
      <trkpt lat="38.2999940" lon="-0.6905100">
        <ele>152.3</ele>
        <time>2018-03-30T06:12:10Z</time>
      </trkpt>
      <trkpt lat="38.3000320" lon="-0.6905010">
        <ele>152.5</ele>
        <time>2018-03-30T06:12:11Z</time>
      </trkpt>
      <trkpt lat="38.3000700" lon="-0.6904910">
        <ele>152.8</ele>
        <time>2018-03-30T06:12:12Z</time>
      </trkpt>
      <trkpt lat="38.3001070" lon="-0.6904800">
        <ele>153.1</ele>
        <time>2018-03-30T06:12:13Z</time>
      </trkpt>
      <trkpt lat="38.3001430" lon="-0.6904680">
        <ele>153.4</ele>
        <time>2018-03-30T06:12:14Z</time>
      </trkpt>
      <trkpt lat="38.3001800" lon="-0.6904540">
        <ele>153.7</ele>
        <time>2018-03-30T06:12:15Z</time>
      </trkpt>
      <trkpt lat="38.3002180" lon="-0.6904400">
        <ele>154.0</ele>
        <time>2018-03-30T06:12:16Z</time>
      </trkpt>
      <trkpt lat="38.3002560" lon="-0.6904270">
        <ele>154.1</ele>
        <time>2018-03-30T06:12:17Z</time>
      </trkpt>
      <trkpt lat="38.3002950" lon="-0.6904130">
        <ele>154.2</ele>
        <time>2018-03-30T06:12:18Z</time>
      </trkpt>
      <trkpt lat="38.3003350" lon="-0.6904020">
        <ele>154.3</ele>
        <time>2018-03-30T06:12:19Z</time>
      </trkpt>
      <trkpt lat="38.3003770" lon="-0.6903900">
        <ele>154.4</ele>
        <time>2018-03-30T06:12:20Z</time>
      </trkpt>
      <trkpt lat="38.3004200" lon="-0.6903810">
        <ele>154.4</ele>
        <time>2018-03-30T06:12:21Z</time>
      </trkpt>
      <trkpt lat="38.3004650" lon="-0.6903740">
        <ele>154.5</ele>
        <time>2018-03-30T06:12:22Z</time>
      </trkpt>
      <trkpt lat="38.3005100" lon="-0.6903690">
        <ele>154.6</ele>
        <time>2018-03-30T06:12:23Z</time>
      </trkpt>
      <trkpt lat="38.3005570" lon="-0.6903660">
        <ele>154.7</ele>
        <time>2018-03-30T06:12:24Z</time>
      </trkpt>
      <trkpt lat="38.3006040" lon="-0.6903650">
        <ele>154.8</ele>
        <time>2018-03-30T06:12:25Z</time>
      </trkpt>
      <trkpt lat="38.3006520" lon="-0.6903640">
        <ele>155.0</ele>
        <time>2018-03-30T06:12:26Z</time>
      </trkpt>
      <trkpt lat="38.3007000" lon="-0.6903620">
        <ele>155.2</ele>
        <time>2018-03-30T06:12:27Z</time>
      </trkpt>
      <trkpt lat="38.3007480" lon="-0.6903600">
        <ele>155.4</ele>
        <time>2018-03-30T06:12:28Z</time>
      </trkpt>
      <trkpt lat="38.3007960" lon="-0.6903620">
        <ele>155.6</ele>
        <time>2018-03-30T06:12:29Z</time>
      </trkpt>
      <trkpt lat="38.3008460" lon="-0.6903630">
        <ele>155.8</ele>
        <time>2018-03-30T06:12:30Z</time>
      </trkpt>
      <trkpt lat="38.3008960" lon="-0.6903660">
        <ele>156.0</ele>
        <time>2018-03-30T06:12:31Z</time>
      </trkpt>
      <trkpt lat="38.3009440" lon="-0.6903710">
        <ele>156.2</ele>
        <time>2018-03-30T06:12:32Z</time>
      </trkpt>
      <trkpt lat="38.3009910" lon="-0.6903800">
        <ele>156.4</ele>
        <time>2018-03-30T06:12:33Z</time>
      </trkpt>
      <trkpt lat="38.3010410" lon="-0.6903900">
        <ele>156.7</ele>
        <time>2018-03-30T06:12:34Z</time>
      </trkpt>
      <trkpt lat="38.3010950" lon="-0.6903980">
        <ele>156.9</ele>
        <time>2018-03-30T06:12:35Z</time>
      </trkpt>
      <trkpt lat="38.3011510" lon="-0.6904000">
        <ele>157.2</ele>
        <time>2018-03-30T06:12:36Z</time>
      </trkpt>
      <trkpt lat="38.3012090" lon="-0.6903990">
        <ele>157.5</ele>
        <time>2018-03-30T06:12:37Z</time>
      </trkpt>
      <trkpt lat="38.3012660" lon="-0.6903950">
        <ele>157.7</ele>
        <time>2018-03-30T06:12:38Z</time>
      </trkpt>
      <trkpt lat="38.3013230" lon="-0.6903860">
        <ele>158.0</ele>
        <time>2018-03-30T06:12:39Z</time>
      </trkpt>
      <trkpt lat="38.3013790" lon="-0.6903780">
        <ele>158.3</ele>
        <time>2018-03-30T06:12:40Z</time>
      </trkpt>
      <trkpt lat="38.3014370" lon="-0.6903700">
        <ele>158.6</ele>
        <time>2018-03-30T06:12:41Z</time>
      </trkpt>
      <trkpt lat="38.3014950" lon="-0.6903650">
        <ele>159.0</ele>
        <time>2018-03-30T06:12:42Z</time>
      </trkpt>
      <trkpt lat="38.3015510" lon="-0.6903610">
        <ele>159.4</ele>
        <time>2018-03-30T06:12:43Z</time>
      </trkpt>
      <trkpt lat="38.3016050" lon="-0.6903590">
        <ele>159.7</ele>
        <time>2018-03-30T06:12:44Z</time>
      </trkpt>
      <trkpt lat="38.3016590" lon="-0.6903620">
        <ele>160.0</ele>
        <time>2018-03-30T06:12:45Z</time>
      </trkpt>
      <trkpt lat="38.3017130" lon="-0.6903650">
        <ele>160.3</ele>
        <time>2018-03-30T06:12:46Z</time>
      </trkpt>
      <trkpt lat="38.3017660" lon="-0.6903700">
        <ele>160.6</ele>
        <time>2018-03-30T06:12:47Z</time>
      </trkpt>
      <trkpt lat="38.3018170" lon="-0.6903760">
        <ele>160.8</ele>
        <time>2018-03-30T06:12:48Z</time>
      </trkpt>
      <trkpt lat="38.3018660" lon="-0.6903830">
        <ele>161.0</ele>
        <time>2018-03-30T06:12:49Z</time>
      </trkpt>
      <trkpt lat="38.3019140" lon="-0.6903890">
        <ele>161.3</ele>
        <time>2018-03-30T06:12:50Z</time>
      </trkpt>
      <trkpt lat="38.3019620" lon="-0.6903950">
        <ele>161.5</ele>
        <time>2018-03-30T06:12:51Z</time>
      </trkpt>
      <trkpt lat="38.3020090" lon="-0.6903990">
        <ele>161.7</ele>
        <time>2018-03-30T06:12:52Z</time>
      </trkpt>
      <trkpt lat="38.3020560" lon="-0.6904010">
        <ele>162.0</ele>
        <time>2018-03-30T06:12:53Z</time>
      </trkpt>
      <trkpt lat="38.3021010" lon="-0.6904030">
        <ele>162.2</ele>
        <time>2018-03-30T06:12:54Z</time>
      </trkpt>
      <trkpt lat="38.3021440" lon="-0.6904030">
        <ele>162.4</ele>
        <time>2018-03-30T06:12:55Z</time>
      </trkpt>
      <trkpt lat="38.3021850" lon="-0.6904010">
        <ele>162.6</ele>
        <time>2018-03-30T06:12:56Z</time>
      </trkpt>
      <trkpt lat="38.3022250" lon="-0.6904000">
        <ele>162.9</ele>
        <time>2018-03-30T06:12:57Z</time>
      </trkpt>
      <trkpt lat="38.3022650" lon="-0.6904010">
        <ele>163.1</ele>
        <time>2018-03-30T06:12:58Z</time>
      </trkpt>
      <trkpt lat="38.3023060" lon="-0.6904010">
        <ele>163.3</ele>
        <time>2018-03-30T06:12:59Z</time>
      </trkpt>
      <trkpt lat="38.3023450" lon="-0.6904010">
        <ele>163.5</ele>
        <time>2018-03-30T06:13:00Z</time>
      </trkpt>
      <trkpt lat="38.3023860" lon="-0.6903980">
        <ele>163.7</ele>
        <time>2018-03-30T06:13:01Z</time>
      </trkpt>
      <trkpt lat="38.3024260" lon="-0.6903960">
        <ele>163.9</ele>
        <time>2018-03-30T06:13:02Z</time>
      </trkpt>
      <trkpt lat="38.3024690" lon="-0.6903910">
        <ele>164.0</ele>
        <time>2018-03-30T06:13:03Z</time>
      </trkpt>
      <trkpt lat="38.3025120" lon="-0.6903840">
        <ele>163.9</ele>
        <time>2018-03-30T06:13:04Z</time>
      </trkpt>
      <trkpt lat="38.3025600" lon="-0.6903780">
        <ele>163.8</ele>
        <time>2018-03-30T06:13:05Z</time>
      </trkpt>
      <trkpt lat="38.3026110" lon="-0.6903720">
        <ele>163.7</ele>
        <time>2018-03-30T06:13:06Z</time>
      </trkpt>
      <trkpt lat="38.3026630" lon="-0.6903670">
        <ele>163.7</ele>
        <time>2018-03-30T06:13:07Z</time>
      </trkpt>
      <trkpt lat="38.3027140" lon="-0.6903640">
        <ele>163.7</ele>
        <time>2018-03-30T06:13:08Z</time>
      </trkpt>
      <trkpt lat="38.3027660" lon="-0.6903620">
        <ele>163.7</ele>
        <time>2018-03-30T06:13:09Z</time>
      </trkpt>
      <trkpt lat="38.3028160" lon="-0.6903620">
        <ele>163.7</ele>
        <time>2018-03-30T06:13:10Z</time>
      </trkpt>
      <trkpt lat="38.3028650" lon="-0.6903620">
        <ele>163.7</ele>
        <time>2018-03-30T06:13:11Z</time>
      </trkpt>
      <trkpt lat="38.3029130" lon="-0.6903630">
        <ele>163.7</ele>
        <time>2018-03-30T06:13:12Z</time>
      </trkpt>
      <trkpt lat="38.3029580" lon="-0.6903650">
        <ele>163.7</ele>
        <time>2018-03-30T06:13:13Z</time>
      </trkpt>
      <trkpt lat="38.3030010" lon="-0.6903680">
        <ele>163.7</ele>
        <time>2018-03-30T06:13:14Z</time>
      </trkpt>
      <trkpt lat="38.3030400" lon="-0.6903740">
        <ele>163.8</ele>
        <time>2018-03-30T06:13:15Z</time>
      </trkpt>
      <trkpt lat="38.3030770" lon="-0.6903780">
        <ele>163.9</ele>
        <time>2018-03-30T06:13:16Z</time>
      </trkpt>
      <trkpt lat="38.3031110" lon="-0.6903790">
        <ele>164.0</ele>
        <time>2018-03-30T06:13:17Z</time>
      </trkpt>
      <trkpt lat="38.3031430" lon="-0.6903810">
        <ele>164.1</ele>
        <time>2018-03-30T06:13:18Z</time>
      </trkpt>
      <trkpt lat="38.3031740" lon="-0.6903820">
        <ele>164.2</ele>
        <time>2018-03-30T06:13:19Z</time>
      </trkpt>
      <trkpt lat="38.3032060" lon="-0.6903820">
        <ele>164.4</ele>
        <time>2018-03-30T06:13:20Z</time>
      </trkpt>
      <trkpt lat="38.3032360" lon="-0.6903820">
        <ele>164.5</ele>
        <time>2018-03-30T06:13:21Z</time>
      </trkpt>
      <trkpt lat="38.3032670" lon="-0.6903850">
        <ele>164.6</ele>
        <time>2018-03-30T06:13:22Z</time>
      </trkpt>
      <trkpt lat="38.3032980" lon="-0.6903820">
        <ele>164.9</ele>
        <time>2018-03-30T06:13:23Z</time>
      </trkpt>
      <trkpt lat="38.3033270" lon="-0.6903810">
        <ele>165.0</ele>
        <time>2018-03-30T06:13:24Z</time>
      </trkpt>
      <trkpt lat="38.3033570" lon="-0.6903770">
        <ele>165.2</ele>
        <time>2018-03-30T06:13:25Z</time>
      </trkpt>
      <trkpt lat="38.3033840" lon="-0.6903740">
        <ele>165.4</ele>
        <time>2018-03-30T06:13:26Z</time>
      </trkpt>
      <trkpt lat="38.3034110" lon="-0.6903730">
        <ele>165.6</ele>
        <time>2018-03-30T06:13:27Z</time>
      </trkpt>
      <trkpt lat="38.3034400" lon="-0.6903700">
        <ele>165.7</ele>
        <time>2018-03-30T06:13:28Z</time>
      </trkpt>
      <trkpt lat="38.3034680" lon="-0.6903650">
        <ele>165.9</ele>
        <time>2018-03-30T06:13:29Z</time>
      </trkpt>
      <trkpt lat="38.3034960" lon="-0.6903620">
        <ele>166.0</ele>
        <time>2018-03-30T06:13:30Z</time>
      </trkpt>
      <trkpt lat="38.3035240" lon="-0.6903580">
        <ele>166.1</ele>
        <time>2018-03-30T06:13:31Z</time>
      </trkpt>
      <trkpt lat="38.3035520" lon="-0.6903570">
        <ele>166.3</ele>
        <time>2018-03-30T06:13:32Z</time>
      </trkpt>
      <trkpt lat="38.3035810" lon="-0.6903560">
        <ele>166.4</ele>
        <time>2018-03-30T06:13:33Z</time>
      </trkpt>
      <trkpt lat="38.3036090" lon="-0.6903520">
        <ele>166.5</ele>
        <time>2018-03-30T06:13:34Z</time>
      </trkpt>
      <trkpt lat="38.3036410" lon="-0.6903460">
        <ele>166.6</ele>
        <time>2018-03-30T06:13:35Z</time>
      </trkpt>
      <trkpt lat="38.3036720" lon="-0.6903410">
        <ele>166.7</ele>
        <time>2018-03-30T06:13:36Z</time>
      </trkpt>
      <trkpt lat="38.3037050" lon="-0.6903370">
        <ele>166.8</ele>
        <time>2018-03-30T06:13:37Z</time>
      </trkpt>
      <trkpt lat="38.3037390" lon="-0.6903330">
        <ele>166.9</ele>
        <time>2018-03-30T06:13:38Z</time>
      </trkpt>
      <trkpt lat="38.3037740" lon="-0.6903290">
        <ele>167.1</ele>
        <time>2018-03-30T06:13:39Z</time>
      </trkpt>
      <trkpt lat="38.3038090" lon="-0.6903280">
        <ele>167.2</ele>
        <time>2018-03-30T06:13:40Z</time>
      </trkpt>
      <trkpt lat="38.3038450" lon="-0.6903280">
        <ele>167.3</ele>
        <time>2018-03-30T06:13:41Z</time>
      </trkpt>
      <trkpt lat="38.3038810" lon="-0.6903280">
        <ele>167.4</ele>
        <time>2018-03-30T06:13:42Z</time>
      </trkpt>
      <trkpt lat="38.3039170" lon="-0.6903290">
        <ele>167.6</ele>
        <time>2018-03-30T06:13:43Z</time>
      </trkpt>
      <trkpt lat="38.3039530" lon="-0.6903290">
        <ele>167.7</ele>
        <time>2018-03-30T06:13:44Z</time>
      </trkpt>
      <trkpt lat="38.3039890" lon="-0.6903300">
        <ele>167.8</ele>
        <time>2018-03-30T06:13:45Z</time>
      </trkpt>
      <trkpt lat="38.3040240" lon="-0.6903340">
        <ele>167.9</ele>
        <time>2018-03-30T06:13:46Z</time>
      </trkpt>
      <trkpt lat="38.3040590" lon="-0.6903360">
        <ele>168.0</ele>
        <time>2018-03-30T06:13:47Z</time>
      </trkpt>
      <trkpt lat="38.3040930" lon="-0.6903400">
        <ele>168.0</ele>
        <time>2018-03-30T06:13:48Z</time>
      </trkpt>
      <trkpt lat="38.3041260" lon="-0.6903440">
        <ele>168.1</ele>
        <time>2018-03-30T06:13:49Z</time>
      </trkpt>
      <trkpt lat="38.3041590" lon="-0.6903490">
        <ele>168.2</ele>
        <time>2018-03-30T06:13:50Z</time>
      </trkpt>
      <trkpt lat="38.3041930" lon="-0.6903540">
        <ele>168.4</ele>
        <time>2018-03-30T06:13:51Z</time>
      </trkpt>
      <trkpt lat="38.3042260" lon="-0.6903600">
        <ele>168.6</ele>
        <time>2018-03-30T06:13:52Z</time>
      </trkpt>
      <trkpt lat="38.3042600" lon="-0.6903650">
        <ele>168.7</ele>
        <time>2018-03-30T06:13:53Z</time>
      </trkpt>
      <trkpt lat="38.3042950" lon="-0.6903720">
        <ele>168.8</ele>
        <time>2018-03-30T06:13:54Z</time>
      </trkpt>
      <trkpt lat="38.3043300" lon="-0.6903780">
        <ele>168.9</ele>
        <time>2018-03-30T06:13:55Z</time>
      </trkpt>
      <trkpt lat="38.3043650" lon="-0.6903840">
        <ele>169.0</ele>
        <time>2018-03-30T06:13:56Z</time>
      </trkpt>
      <trkpt lat="38.3044000" lon="-0.6903880">
        <ele>169.1</ele>
        <time>2018-03-30T06:13:57Z</time>
      </trkpt>
      <trkpt lat="38.3044360" lon="-0.6903930">
        <ele>169.3</ele>
        <time>2018-03-30T06:13:58Z</time>
      </trkpt>
      <trkpt lat="38.3044710" lon="-0.6903990">
        <ele>169.4</ele>
        <time>2018-03-30T06:13:59Z</time>
      </trkpt>
      <trkpt lat="38.3045070" lon="-0.6904050">
        <ele>169.4</ele>
        <time>2018-03-30T06:14:00Z</time>
      </trkpt>
      <trkpt lat="38.3045440" lon="-0.6904090">
        <ele>169.5</ele>
        <time>2018-03-30T06:14:01Z</time>
      </trkpt>
      <trkpt lat="38.3045840" lon="-0.6904130">
        <ele>169.5</ele>
        <time>2018-03-30T06:14:02Z</time>
      </trkpt>
      <trkpt lat="38.3046230" lon="-0.6904150">
        <ele>169.6</ele>
        <time>2018-03-30T06:14:03Z</time>
      </trkpt>
      <trkpt lat="38.3046640" lon="-0.6904160">
        <ele>169.6</ele>
        <time>2018-03-30T06:14:04Z</time>
      </trkpt>
      <trkpt lat="38.3047040" lon="-0.6904170">
        <ele>169.7</ele>
        <time>2018-03-30T06:14:05Z</time>
      </trkpt>
      <trkpt lat="38.3047440" lon="-0.6904200">
        <ele>169.7</ele>
        <time>2018-03-30T06:14:06Z</time>
      </trkpt>
      <trkpt lat="38.3047850" lon="-0.6904230">
        <ele>169.8</ele>
        <time>2018-03-30T06:14:07Z</time>
      </trkpt>
      <trkpt lat="38.3048270" lon="-0.6904270">
        <ele>169.9</ele>
        <time>2018-03-30T06:14:08Z</time>
      </trkpt>
      <trkpt lat="38.3048680" lon="-0.6904280">
        <ele>169.9</ele>
        <time>2018-03-30T06:14:09Z</time>
      </trkpt>
      <trkpt lat="38.3049090" lon="-0.6904300">
        <ele>169.9</ele>
        <time>2018-03-30T06:14:10Z</time>
      </trkpt>
      <trkpt lat="38.3049520" lon="-0.6904310">
        <ele>169.9</ele>
        <time>2018-03-30T06:14:11Z</time>
      </trkpt>
      <trkpt lat="38.3049960" lon="-0.6904320">
        <ele>170.0</ele>
        <time>2018-03-30T06:14:12Z</time>
      </trkpt>
      <trkpt lat="38.3050430" lon="-0.6904320">
        <ele>170.0</ele>
        <time>2018-03-30T06:14:13Z</time>
      </trkpt>
      <trkpt lat="38.3050920" lon="-0.6904320">
        <ele>170.1</ele>
        <time>2018-03-30T06:14:14Z</time>
      </trkpt>
      <trkpt lat="38.3051420" lon="-0.6904300">
        <ele>170.2</ele>
        <time>2018-03-30T06:14:15Z</time>
      </trkpt>
      <trkpt lat="38.3051900" lon="-0.6904210">
        <ele>170.2</ele>
        <time>2018-03-30T06:14:16Z</time>
      </trkpt>
      <trkpt lat="38.3052360" lon="-0.6904090">
        <ele>170.3</ele>
        <time>2018-03-30T06:14:17Z</time>
      </trkpt>
      <trkpt lat="38.3052800" lon="-0.6903950">
        <ele>170.4</ele>
        <time>2018-03-30T06:14:18Z</time>
      </trkpt>
      <trkpt lat="38.3053220" lon="-0.6903810">
        <ele>170.5</ele>
        <time>2018-03-30T06:14:19Z</time>
      </trkpt>
      <trkpt lat="38.3053640" lon="-0.6903690">
        <ele>170.6</ele>
        <time>2018-03-30T06:14:20Z</time>
      </trkpt>
      <trkpt lat="38.3054060" lon="-0.6903580">
        <ele>170.8</ele>
        <time>2018-03-30T06:14:21Z</time>
      </trkpt>
      <trkpt lat="38.3054470" lon="-0.6903480">
        <ele>170.9</ele>
        <time>2018-03-30T06:14:22Z</time>
      </trkpt>
      <trkpt lat="38.3054870" lon="-0.6903390">
        <ele>171.2</ele>
        <time>2018-03-30T06:14:23Z</time>
      </trkpt>
      <trkpt lat="38.3055260" lon="-0.6903280">
        <ele>171.4</ele>
        <time>2018-03-30T06:14:24Z</time>
      </trkpt>
      <trkpt lat="38.3055640" lon="-0.6903170">
        <ele>171.7</ele>
        <time>2018-03-30T06:14:25Z</time>
      </trkpt>
      <trkpt lat="38.3055990" lon="-0.6903000">
        <ele>172.0</ele>
        <time>2018-03-30T06:14:26Z</time>
      </trkpt>
      <trkpt lat="38.3056320" lon="-0.6902820">
        <ele>172.4</ele>
        <time>2018-03-30T06:14:27Z</time>
      </trkpt>
      <trkpt lat="38.3056640" lon="-0.6902620">
        <ele>172.7</ele>
        <time>2018-03-30T06:14:28Z</time>
      </trkpt>
      <trkpt lat="38.3056980" lon="-0.6902450">
        <ele>173.0</ele>
        <time>2018-03-30T06:14:29Z</time>
      </trkpt>
      <trkpt lat="38.3057340" lon="-0.6902310">
        <ele>173.4</ele>
        <time>2018-03-30T06:14:30Z</time>
      </trkpt>
      <trkpt lat="38.3057720" lon="-0.6902240">
        <ele>173.8</ele>
        <time>2018-03-30T06:14:31Z</time>
      </trkpt>
      <trkpt lat="38.3058100" lon="-0.6902280">
        <ele>174.1</ele>
        <time>2018-03-30T06:14:32Z</time>
      </trkpt>
      <trkpt lat="38.3058500" lon="-0.6902340">
        <ele>174.4</ele>
        <time>2018-03-30T06:14:33Z</time>
      </trkpt>
      <trkpt lat="38.3058880" lon="-0.6902440">
        <ele>174.7</ele>
        <time>2018-03-30T06:14:34Z</time>
      </trkpt>
      <trkpt lat="38.3059270" lon="-0.6902540">
        <ele>175.0</ele>
        <time>2018-03-30T06:14:35Z</time>
      </trkpt>
      <trkpt lat="38.3059650" lon="-0.6902610">
        <ele>175.3</ele>
        <time>2018-03-30T06:14:36Z</time>
      </trkpt>
      <trkpt lat="38.3060030" lon="-0.6902680">
        <ele>175.5</ele>
        <time>2018-03-30T06:14:37Z</time>
      </trkpt>
      <trkpt lat="38.3060430" lon="-0.6902730">
        <ele>175.8</ele>
        <time>2018-03-30T06:14:38Z</time>
      </trkpt>
      <trkpt lat="38.3060810" lon="-0.6902770">
        <ele>176.0</ele>
        <time>2018-03-30T06:14:39Z</time>
      </trkpt>
      <trkpt lat="38.3061190" lon="-0.6902800">
        <ele>176.3</ele>
        <time>2018-03-30T06:14:40Z</time>
      </trkpt>
      <trkpt lat="38.3061570" lon="-0.6902860">
        <ele>176.6</ele>
        <time>2018-03-30T06:14:41Z</time>
      </trkpt>
      <trkpt lat="38.3061920" lon="-0.6902990">
        <ele>176.8</ele>
        <time>2018-03-30T06:14:42Z</time>
      </trkpt>
      <trkpt lat="38.3062270" lon="-0.6903150">
        <ele>177.1</ele>
        <time>2018-03-30T06:14:43Z</time>
      </trkpt>
      <trkpt lat="38.3062610" lon="-0.6903360">
        <ele>177.4</ele>
        <time>2018-03-30T06:14:44Z</time>
      </trkpt>
      <trkpt lat="38.3062960" lon="-0.6903590">
        <ele>177.7</ele>
        <time>2018-03-30T06:14:45Z</time>
      </trkpt>
      <trkpt lat="38.3063290" lon="-0.6903850">
        <ele>177.9</ele>
        <time>2018-03-30T06:14:46Z</time>
      </trkpt>
      <trkpt lat="38.3063630" lon="-0.6904120">
        <ele>178.2</ele>
        <time>2018-03-30T06:14:47Z</time>
      </trkpt>
      <trkpt lat="38.3063960" lon="-0.6904410">
        <ele>178.4</ele>
        <time>2018-03-30T06:14:48Z</time>
      </trkpt>
      <trkpt lat="38.3064270" lon="-0.6904740">
        <ele>178.7</ele>
        <time>2018-03-30T06:14:49Z</time>
      </trkpt>
      <trkpt lat="38.3064600" lon="-0.6905090">
        <ele>178.9</ele>
        <time>2018-03-30T06:14:50Z</time>
      </trkpt>
      <trkpt lat="38.3064920" lon="-0.6905450">
        <ele>179.2</ele>
        <time>2018-03-30T06:14:51Z</time>
      </trkpt>
      <trkpt lat="38.3065260" lon="-0.6905800">
        <ele>179.5</ele>
        <time>2018-03-30T06:14:52Z</time>
      </trkpt>
      <trkpt lat="38.3065620" lon="-0.6906110">
        <ele>179.8</ele>
        <time>2018-03-30T06:14:53Z</time>
      </trkpt>
      <trkpt lat="38.3066040" lon="-0.6906340">
        <ele>180.1</ele>
        <time>2018-03-30T06:14:54Z</time>
      </trkpt>
      <trkpt lat="38.3066440" lon="-0.6906400">
        <ele>180.4</ele>
        <time>2018-03-30T06:14:55Z</time>
      </trkpt>
      <trkpt lat="38.3066870" lon="-0.6906300">
        <ele>180.8</ele>
        <time>2018-03-30T06:14:56Z</time>
      </trkpt>
      <trkpt lat="38.3067270" lon="-0.6906150">
        <ele>181.1</ele>
        <time>2018-03-30T06:14:57Z</time>
      </trkpt>
      <trkpt lat="38.3067610" lon="-0.6905960">
        <ele>181.3</ele>
        <time>2018-03-30T06:14:58Z</time>
      </trkpt>
      <trkpt lat="38.3067960" lon="-0.6905840">
        <ele>181.5</ele>
        <time>2018-03-30T06:14:59Z</time>
      </trkpt>
      <trkpt lat="38.3068290" lon="-0.6905820">
        <ele>181.6</ele>
        <time>2018-03-30T06:15:00Z</time>
      </trkpt>
      <trkpt lat="38.3068630" lon="-0.6905890">
        <ele>181.7</ele>
        <time>2018-03-30T06:15:01Z</time>
      </trkpt>
      <trkpt lat="38.3068970" lon="-0.6906060">
        <ele>181.8</ele>
        <time>2018-03-30T06:15:02Z</time>
      </trkpt>
      <trkpt lat="38.3069350" lon="-0.6906270">
        <ele>181.9</ele>
        <time>2018-03-30T06:15:03Z</time>
      </trkpt>
      <trkpt lat="38.3069770" lon="-0.6906460">
        <ele>182.0</ele>
        <time>2018-03-30T06:15:04Z</time>
      </trkpt>
      <trkpt lat="38.3070270" lon="-0.6906590">
        <ele>182.0</ele>
        <time>2018-03-30T06:15:05Z</time>
      </trkpt>
      <trkpt lat="38.3070750" lon="-0.6906470">
        <ele>182.0</ele>
        <time>2018-03-30T06:15:06Z</time>
      </trkpt>
      <trkpt lat="38.3071340" lon="-0.6906310">
        <ele>182.1</ele>
        <time>2018-03-30T06:15:07Z</time>
      </trkpt>
      <trkpt lat="38.3071880" lon="-0.6906370">
        <ele>182.1</ele>
        <time>2018-03-30T06:15:08Z</time>
      </trkpt>
      <trkpt lat="38.3072400" lon="-0.6906570">
        <ele>182.1</ele>
        <time>2018-03-30T06:15:09Z</time>
      </trkpt>
      <trkpt lat="38.3072730" lon="-0.6906920">
        <ele>182.2</ele>
        <time>2018-03-30T06:15:10Z</time>
      </trkpt>
      <trkpt lat="38.3073020" lon="-0.6907350">
        <ele>182.2</ele>
        <time>2018-03-30T06:15:11Z</time>
      </trkpt>
      <trkpt lat="38.3073260" lon="-0.6907840">
        <ele>182.2</ele>
        <time>2018-03-30T06:15:12Z</time>
      </trkpt>
      <trkpt lat="38.3073460" lon="-0.6908260">
        <ele>182.3</ele>
        <time>2018-03-30T06:15:13Z</time>
      </trkpt>
      <trkpt lat="38.3073640" lon="-0.6908670">
        <ele>182.3</ele>
        <time>2018-03-30T06:15:14Z</time>
      </trkpt>
      <trkpt lat="38.3073840" lon="-0.6909040">
        <ele>182.3</ele>
        <time>2018-03-30T06:15:15Z</time>
      </trkpt>
      <trkpt lat="38.3074100" lon="-0.6909420">
        <ele>182.4</ele>
        <time>2018-03-30T06:15:16Z</time>
      </trkpt>
      <trkpt lat="38.3074390" lon="-0.6909740">
        <ele>182.5</ele>
        <time>2018-03-30T06:15:17Z</time>
      </trkpt>
      <trkpt lat="38.3074720" lon="-0.6909990">
        <ele>182.6</ele>
        <time>2018-03-30T06:15:18Z</time>
      </trkpt>
      <trkpt lat="38.3075130" lon="-0.6910100">
        <ele>182.7</ele>
        <time>2018-03-30T06:15:19Z</time>
      </trkpt>
      <trkpt lat="38.3075530" lon="-0.6910200">
        <ele>182.9</ele>
        <time>2018-03-30T06:15:20Z</time>
      </trkpt>
      <trkpt lat="38.3075890" lon="-0.6910390">
        <ele>183.2</ele>
        <time>2018-03-30T06:15:21Z</time>
      </trkpt>
      <trkpt lat="38.3076240" lon="-0.6910630">
        <ele>183.4</ele>
        <time>2018-03-30T06:15:22Z</time>
      </trkpt>
      <trkpt lat="38.3076570" lon="-0.6910910">
        <ele>183.7</ele>
        <time>2018-03-30T06:15:23Z</time>
      </trkpt>
      <trkpt lat="38.3076850" lon="-0.6911210">
        <ele>184.0</ele>
        <time>2018-03-30T06:15:24Z</time>
      </trkpt>
      <trkpt lat="38.3077130" lon="-0.6911540">
        <ele>184.2</ele>
        <time>2018-03-30T06:15:25Z</time>
      </trkpt>
      <trkpt lat="38.3077380" lon="-0.6911860">
        <ele>184.4</ele>
        <time>2018-03-30T06:15:26Z</time>
      </trkpt>
      <trkpt lat="38.3077640" lon="-0.6912200">
        <ele>184.5</ele>
        <time>2018-03-30T06:15:27Z</time>
      </trkpt>
      <trkpt lat="38.3077880" lon="-0.6912570">
        <ele>184.7</ele>
        <time>2018-03-30T06:15:28Z</time>
      </trkpt>
      <trkpt lat="38.3078120" lon="-0.6912930">
        <ele>184.8</ele>
        <time>2018-03-30T06:15:29Z</time>
      </trkpt>
      <trkpt lat="38.3078340" lon="-0.6913310">
        <ele>185.0</ele>
        <time>2018-03-30T06:15:30Z</time>
      </trkpt>
      <trkpt lat="38.3078570" lon="-0.6913670">
        <ele>185.1</ele>
        <time>2018-03-30T06:15:31Z</time>
      </trkpt>
      <trkpt lat="38.3078840" lon="-0.6914000">
        <ele>185.3</ele>
        <time>2018-03-30T06:15:32Z</time>
      </trkpt>
      <trkpt lat="38.3079100" lon="-0.6914320">
        <ele>185.5</ele>
        <time>2018-03-30T06:15:33Z</time>
      </trkpt>
      <trkpt lat="38.3079360" lon="-0.6914620">
        <ele>185.7</ele>
        <time>2018-03-30T06:15:34Z</time>
      </trkpt>
      <trkpt lat="38.3079640" lon="-0.6914910">
        <ele>186.0</ele>
        <time>2018-03-30T06:15:35Z</time>
      </trkpt>
      <trkpt lat="38.3079940" lon="-0.6915180">
        <ele>186.2</ele>
        <time>2018-03-30T06:15:36Z</time>
      </trkpt>
      <trkpt lat="38.3080260" lon="-0.6915450">
        <ele>186.5</ele>
        <time>2018-03-30T06:15:37Z</time>
      </trkpt>
      <trkpt lat="38.3080610" lon="-0.6915670">
        <ele>186.7</ele>
        <time>2018-03-30T06:15:38Z</time>
      </trkpt>
      <trkpt lat="38.3080970" lon="-0.6915880">
        <ele>186.9</ele>
        <time>2018-03-30T06:15:39Z</time>
      </trkpt>
      <trkpt lat="38.3081410" lon="-0.6915930">
        <ele>187.1</ele>
        <time>2018-03-30T06:15:40Z</time>
      </trkpt>
      <trkpt lat="38.3081860" lon="-0.6915960">
        <ele>187.3</ele>
        <time>2018-03-30T06:15:41Z</time>
      </trkpt>
      <trkpt lat="38.3082280" lon="-0.6915870">
        <ele>187.5</ele>
        <time>2018-03-30T06:15:42Z</time>
      </trkpt>
      <trkpt lat="38.3082680" lon="-0.6915720">
        <ele>187.8</ele>
        <time>2018-03-30T06:15:43Z</time>
      </trkpt>
      <trkpt lat="38.3083020" lon="-0.6915590">
        <ele>188.0</ele>
        <time>2018-03-30T06:15:44Z</time>
      </trkpt>
      <trkpt lat="38.3083330" lon="-0.6915500">
        <ele>188.3</ele>
        <time>2018-03-30T06:15:45Z</time>
      </trkpt>
      <trkpt lat="38.3083650" lon="-0.6915520">
        <ele>188.6</ele>
        <time>2018-03-30T06:15:46Z</time>
      </trkpt>
      <trkpt lat="38.3083920" lon="-0.6915590">
        <ele>188.9</ele>
        <time>2018-03-30T06:15:47Z</time>
      </trkpt>
      <trkpt lat="38.3084220" lon="-0.6915680">
        <ele>189.2</ele>
        <time>2018-03-30T06:15:48Z</time>
      </trkpt>
      <trkpt lat="38.3084500" lon="-0.6915820">
        <ele>189.5</ele>
        <time>2018-03-30T06:15:49Z</time>
      </trkpt>
      <trkpt lat="38.3084780" lon="-0.6915970">
        <ele>189.9</ele>
        <time>2018-03-30T06:15:50Z</time>
      </trkpt>
      <trkpt lat="38.3085030" lon="-0.6916110">
        <ele>190.2</ele>
        <time>2018-03-30T06:15:51Z</time>
      </trkpt>
      <trkpt lat="38.3085280" lon="-0.6916240">
        <ele>190.6</ele>
        <time>2018-03-30T06:15:52Z</time>
      </trkpt>
      <trkpt lat="38.3085530" lon="-0.6916370">
        <ele>190.9</ele>
        <time>2018-03-30T06:15:53Z</time>
      </trkpt>
      <trkpt lat="38.3085780" lon="-0.6916490">
        <ele>191.3</ele>
        <time>2018-03-30T06:15:54Z</time>
      </trkpt>
      <trkpt lat="38.3086030" lon="-0.6916580">
        <ele>191.7</ele>
        <time>2018-03-30T06:15:55Z</time>
      </trkpt>
      <trkpt lat="38.3086290" lon="-0.6916680">
        <ele>192.0</ele>
        <time>2018-03-30T06:15:56Z</time>
      </trkpt>
      <trkpt lat="38.3086550" lon="-0.6916770">
        <ele>192.4</ele>
        <time>2018-03-30T06:15:57Z</time>
      </trkpt>
      <trkpt lat="38.3086810" lon="-0.6916830">
        <ele>192.7</ele>
        <time>2018-03-30T06:15:58Z</time>
      </trkpt>
      <trkpt lat="38.3087100" lon="-0.6916870">
        <ele>193.1</ele>
        <time>2018-03-30T06:15:59Z</time>
      </trkpt>
      <trkpt lat="38.3087410" lon="-0.6916920">
        <ele>193.4</ele>
        <time>2018-03-30T06:16:00Z</time>
      </trkpt>
      <trkpt lat="38.3087750" lon="-0.6916960">
        <ele>193.7</ele>
        <time>2018-03-30T06:16:01Z</time>
      </trkpt>
      <trkpt lat="38.3088100" lon="-0.6916970">
        <ele>194.0</ele>
        <time>2018-03-30T06:16:02Z</time>
      </trkpt>
      <trkpt lat="38.3088460" lon="-0.6916850">
        <ele>194.2</ele>
        <time>2018-03-30T06:16:03Z</time>
      </trkpt>
      <trkpt lat="38.3088840" lon="-0.6916730">
        <ele>194.3</ele>
        <time>2018-03-30T06:16:04Z</time>
      </trkpt>
      <trkpt lat="38.3089220" lon="-0.6916640">
        <ele>194.5</ele>
        <time>2018-03-30T06:16:05Z</time>
      </trkpt>
      <trkpt lat="38.3089590" lon="-0.6916530">
        <ele>194.6</ele>
        <time>2018-03-30T06:16:06Z</time>
      </trkpt>
      <trkpt lat="38.3089950" lon="-0.6916410">
        <ele>194.6</ele>
        <time>2018-03-30T06:16:07Z</time>
      </trkpt>
      <trkpt lat="38.3090300" lon="-0.6916300">
        <ele>194.7</ele>
        <time>2018-03-30T06:16:08Z</time>
      </trkpt>
      <trkpt lat="38.3090640" lon="-0.6916210">
        <ele>194.8</ele>
        <time>2018-03-30T06:16:09Z</time>
      </trkpt>
      <trkpt lat="38.3090980" lon="-0.6916140">
        <ele>194.9</ele>
        <time>2018-03-30T06:16:10Z</time>
      </trkpt>
      <trkpt lat="38.3091310" lon="-0.6916050">
        <ele>195.1</ele>
        <time>2018-03-30T06:16:11Z</time>
      </trkpt>
      <trkpt lat="38.3091630" lon="-0.6915960">
        <ele>195.3</ele>
        <time>2018-03-30T06:16:12Z</time>
      </trkpt>
      <trkpt lat="38.3091950" lon="-0.6915850">
        <ele>195.5</ele>
        <time>2018-03-30T06:16:13Z</time>
      </trkpt>
      <trkpt lat="38.3092270" lon="-0.6915730">
        <ele>195.7</ele>
        <time>2018-03-30T06:16:14Z</time>
      </trkpt>
      <trkpt lat="38.3092590" lon="-0.6915620">
        <ele>196.0</ele>
        <time>2018-03-30T06:16:15Z</time>
      </trkpt>
      <trkpt lat="38.3092910" lon="-0.6915540">
        <ele>196.2</ele>
        <time>2018-03-30T06:16:16Z</time>
      </trkpt>
      <trkpt lat="38.3093240" lon="-0.6915500">
        <ele>196.5</ele>
        <time>2018-03-30T06:16:17Z</time>
      </trkpt>
      <trkpt lat="38.3093550" lon="-0.6915490">
        <ele>196.7</ele>
        <time>2018-03-30T06:16:18Z</time>
      </trkpt>
      <trkpt lat="38.3093860" lon="-0.6915520">
        <ele>196.9</ele>
        <time>2018-03-30T06:16:19Z</time>
      </trkpt>
      <trkpt lat="38.3094190" lon="-0.6915610">
        <ele>197.2</ele>
        <time>2018-03-30T06:16:20Z</time>
      </trkpt>
      <trkpt lat="38.3094470" lon="-0.6915700">
        <ele>197.4</ele>
        <time>2018-03-30T06:16:21Z</time>
      </trkpt>
      <trkpt lat="38.3094770" lon="-0.6915800">
        <ele>197.6</ele>
        <time>2018-03-30T06:16:22Z</time>
      </trkpt>
      <trkpt lat="38.3095080" lon="-0.6915910">
        <ele>197.9</ele>
        <time>2018-03-30T06:16:23Z</time>
      </trkpt>
      <trkpt lat="38.3095380" lon="-0.6916030">
        <ele>198.2</ele>
        <time>2018-03-30T06:16:24Z</time>
      </trkpt>
      <trkpt lat="38.3095680" lon="-0.6916160">
        <ele>198.4</ele>
        <time>2018-03-30T06:16:25Z</time>
      </trkpt>
      <trkpt lat="38.3095990" lon="-0.6916280">
        <ele>198.7</ele>
        <time>2018-03-30T06:16:26Z</time>
      </trkpt>
      <trkpt lat="38.3096300" lon="-0.6916490">
        <ele>198.9</ele>
        <time>2018-03-30T06:16:27Z</time>
      </trkpt>
      <trkpt lat="38.3096620" lon="-0.6916700">
        <ele>199.1</ele>
        <time>2018-03-30T06:16:28Z</time>
      </trkpt>
      <trkpt lat="38.3096930" lon="-0.6916960">
        <ele>199.3</ele>
        <time>2018-03-30T06:16:29Z</time>
      </trkpt>
      <trkpt lat="38.3097250" lon="-0.6917240">
        <ele>199.4</ele>
        <time>2018-03-30T06:16:30Z</time>
      </trkpt>
      <trkpt lat="38.3097580" lon="-0.6917590">
        <ele>199.5</ele>
        <time>2018-03-30T06:16:31Z</time>
      </trkpt>
      <trkpt lat="38.3097930" lon="-0.6917960">
        <ele>199.5</ele>
        <time>2018-03-30T06:16:32Z</time>
      </trkpt>
      <trkpt lat="38.3098270" lon="-0.6918340">
        <ele>199.6</ele>
        <time>2018-03-30T06:16:33Z</time>
      </trkpt>
      <trkpt lat="38.3098630" lon="-0.6918740">
        <ele>199.6</ele>
        <time>2018-03-30T06:16:34Z</time>
      </trkpt>
      <trkpt lat="38.3098990" lon="-0.6919150">
        <ele>199.7</ele>
        <time>2018-03-30T06:16:35Z</time>
      </trkpt>
      <trkpt lat="38.3099330" lon="-0.6919530">
        <ele>199.7</ele>
        <time>2018-03-30T06:16:36Z</time>
      </trkpt>
      <trkpt lat="38.3099680" lon="-0.6919880">
        <ele>199.7</ele>
        <time>2018-03-30T06:16:37Z</time>
      </trkpt>
      <trkpt lat="38.3100010" lon="-0.6920240">
        <ele>199.8</ele>
        <time>2018-03-30T06:16:38Z</time>
      </trkpt>
      <trkpt lat="38.3100350" lon="-0.6920560">
        <ele>199.8</ele>
        <time>2018-03-30T06:16:39Z</time>
      </trkpt>
      <trkpt lat="38.3100710" lon="-0.6920840">
        <ele>199.9</ele>
        <time>2018-03-30T06:16:40Z</time>
      </trkpt>
      <trkpt lat="38.3101070" lon="-0.6921090">
        <ele>200.0</ele>
        <time>2018-03-30T06:16:41Z</time>
      </trkpt>
      <trkpt lat="38.3101430" lon="-0.6921320">
        <ele>200.1</ele>
        <time>2018-03-30T06:16:42Z</time>
      </trkpt>
      <trkpt lat="38.3101790" lon="-0.6921550">
        <ele>200.3</ele>
        <time>2018-03-30T06:16:43Z</time>
      </trkpt>
      <trkpt lat="38.3102150" lon="-0.6921760">
        <ele>200.5</ele>
        <time>2018-03-30T06:16:44Z</time>
      </trkpt>
      <trkpt lat="38.3102500" lon="-0.6921960">
        <ele>200.7</ele>
        <time>2018-03-30T06:16:45Z</time>
      </trkpt>
      <trkpt lat="38.3102840" lon="-0.6922150">
        <ele>201.0</ele>
        <time>2018-03-30T06:16:46Z</time>
      </trkpt>
      <trkpt lat="38.3103150" lon="-0.6922390">
        <ele>201.3</ele>
        <time>2018-03-30T06:16:47Z</time>
      </trkpt>
      <trkpt lat="38.3103440" lon="-0.6922660">
        <ele>201.6</ele>
        <time>2018-03-30T06:16:48Z</time>
      </trkpt>
      <trkpt lat="38.3103670" lon="-0.6922980">
        <ele>201.8</ele>
        <time>2018-03-30T06:16:49Z</time>
      </trkpt>
      <trkpt lat="38.3103830" lon="-0.6923360">
        <ele>202.1</ele>
        <time>2018-03-30T06:16:50Z</time>
      </trkpt>
      <trkpt lat="38.3103950" lon="-0.6923750">
        <ele>202.3</ele>
        <time>2018-03-30T06:16:51Z</time>
      </trkpt>
      <trkpt lat="38.3104020" lon="-0.6924170">
        <ele>202.5</ele>
        <time>2018-03-30T06:16:52Z</time>
      </trkpt>
      <trkpt lat="38.3104060" lon="-0.6924590">
        <ele>202.8</ele>
        <time>2018-03-30T06:16:53Z</time>
      </trkpt>
      <trkpt lat="38.3104100" lon="-0.6925030">
        <ele>203.0</ele>
        <time>2018-03-30T06:16:54Z</time>
      </trkpt>
      <trkpt lat="38.3104120" lon="-0.6925450">
        <ele>203.3</ele>
        <time>2018-03-30T06:16:55Z</time>
      </trkpt>
      <trkpt lat="38.3104130" lon="-0.6925850">
        <ele>203.5</ele>
        <time>2018-03-30T06:16:56Z</time>
      </trkpt>
      <trkpt lat="38.3104140" lon="-0.6926260">
        <ele>203.7</ele>
        <time>2018-03-30T06:16:57Z</time>
      </trkpt>
      <trkpt lat="38.3104210" lon="-0.6926640">
        <ele>203.9</ele>
        <time>2018-03-30T06:16:58Z</time>
      </trkpt>
      <trkpt lat="38.3104300" lon="-0.6926990">
        <ele>204.1</ele>
        <time>2018-03-30T06:16:59Z</time>
      </trkpt>
      <trkpt lat="38.3104460" lon="-0.6927290">
        <ele>204.3</ele>
        <time>2018-03-30T06:17:00Z</time>
      </trkpt>
      <trkpt lat="38.3104690" lon="-0.6927570">
        <ele>204.4</ele>
        <time>2018-03-30T06:17:01Z</time>
      </trkpt>
      <trkpt lat="38.3104970" lon="-0.6927820">
        <ele>204.6</ele>
        <time>2018-03-30T06:17:02Z</time>
      </trkpt>
      <trkpt lat="38.3105280" lon="-0.6928040">
        <ele>204.8</ele>
        <time>2018-03-30T06:17:03Z</time>
      </trkpt>
      <trkpt lat="38.3105610" lon="-0.6928190">
        <ele>205.0</ele>
        <time>2018-03-30T06:17:04Z</time>
      </trkpt>
      <trkpt lat="38.3105970" lon="-0.6928270">
        <ele>205.2</ele>
        <time>2018-03-30T06:17:05Z</time>
      </trkpt>
      <trkpt lat="38.3106330" lon="-0.6928230">
        <ele>205.5</ele>
        <time>2018-03-30T06:17:06Z</time>
      </trkpt>
      <trkpt lat="38.3106690" lon="-0.6928160">
        <ele>205.8</ele>
        <time>2018-03-30T06:17:07Z</time>
      </trkpt>
      <trkpt lat="38.3107050" lon="-0.6928120">
        <ele>206.1</ele>
        <time>2018-03-30T06:17:08Z</time>
      </trkpt>
      <trkpt lat="38.3107420" lon="-0.6928070">
        <ele>206.3</ele>
        <time>2018-03-30T06:17:09Z</time>
      </trkpt>
      <trkpt lat="38.3107780" lon="-0.6928080">
        <ele>206.5</ele>
        <time>2018-03-30T06:17:10Z</time>
      </trkpt>
      <trkpt lat="38.3108170" lon="-0.6928130">
        <ele>206.7</ele>
        <time>2018-03-30T06:17:11Z</time>
      </trkpt>
      <trkpt lat="38.3108540" lon="-0.6928180">
        <ele>206.8</ele>
        <time>2018-03-30T06:17:12Z</time>
      </trkpt>
      <trkpt lat="38.3108920" lon="-0.6928250">
        <ele>206.9</ele>
        <time>2018-03-30T06:17:13Z</time>
      </trkpt>
      <trkpt lat="38.3109280" lon="-0.6928380">
        <ele>207.0</ele>
        <time>2018-03-30T06:17:14Z</time>
      </trkpt>
      <trkpt lat="38.3109660" lon="-0.6928520">
        <ele>207.2</ele>
        <time>2018-03-30T06:17:15Z</time>
      </trkpt>
      <trkpt lat="38.3110020" lon="-0.6928660">
        <ele>207.3</ele>
        <time>2018-03-30T06:17:16Z</time>
      </trkpt>
      <trkpt lat="38.3110350" lon="-0.6928770">
        <ele>207.5</ele>
        <time>2018-03-30T06:17:17Z</time>
      </trkpt>
      <trkpt lat="38.3110670" lon="-0.6928920">
        <ele>207.7</ele>
        <time>2018-03-30T06:17:18Z</time>
      </trkpt>
      <trkpt lat="38.3110970" lon="-0.6929080">
        <ele>207.9</ele>
        <time>2018-03-30T06:17:19Z</time>
      </trkpt>
      <trkpt lat="38.3111260" lon="-0.6929260">
        <ele>208.2</ele>
        <time>2018-03-30T06:17:20Z</time>
      </trkpt>
      <trkpt lat="38.3111520" lon="-0.6929440">
        <ele>208.5</ele>
        <time>2018-03-30T06:17:21Z</time>
      </trkpt>
      <trkpt lat="38.3111760" lon="-0.6929620">
        <ele>208.7</ele>
        <time>2018-03-30T06:17:22Z</time>
      </trkpt>
      <trkpt lat="38.3112050" lon="-0.6929840">
        <ele>209.0</ele>
        <time>2018-03-30T06:17:23Z</time>
      </trkpt>
      <trkpt lat="38.3112350" lon="-0.6930100">
        <ele>209.3</ele>
        <time>2018-03-30T06:17:24Z</time>
      </trkpt>
      <trkpt lat="38.3112660" lon="-0.6930340">
        <ele>209.5</ele>
        <time>2018-03-30T06:17:25Z</time>
      </trkpt>
      <trkpt lat="38.3112950" lon="-0.6930590">
        <ele>209.8</ele>
        <time>2018-03-30T06:17:26Z</time>
      </trkpt>
      <trkpt lat="38.3113220" lon="-0.6930850">
        <ele>210.0</ele>
        <time>2018-03-30T06:17:27Z</time>
      </trkpt>
      <trkpt lat="38.3113460" lon="-0.6931110">
        <ele>210.3</ele>
        <time>2018-03-30T06:17:28Z</time>
      </trkpt>
      <trkpt lat="38.3113690" lon="-0.6931400">
        <ele>210.5</ele>
        <time>2018-03-30T06:17:29Z</time>
      </trkpt>
      <trkpt lat="38.3113910" lon="-0.6931690">
        <ele>210.8</ele>
        <time>2018-03-30T06:17:30Z</time>
      </trkpt>
      <trkpt lat="38.3114110" lon="-0.6932000">
        <ele>211.0</ele>
        <time>2018-03-30T06:17:31Z</time>
      </trkpt>
      <trkpt lat="38.3114300" lon="-0.6932320">
        <ele>211.2</ele>
        <time>2018-03-30T06:17:32Z</time>
      </trkpt>
      <trkpt lat="38.3114500" lon="-0.6932650">
        <ele>211.4</ele>
        <time>2018-03-30T06:17:33Z</time>
      </trkpt>
      <trkpt lat="38.3114710" lon="-0.6932990">
        <ele>211.6</ele>
        <time>2018-03-30T06:17:34Z</time>
      </trkpt>
      <trkpt lat="38.3114930" lon="-0.6933320">
        <ele>211.7</ele>
        <time>2018-03-30T06:17:35Z</time>
      </trkpt>
      <trkpt lat="38.3115160" lon="-0.6933650">
        <ele>211.9</ele>
        <time>2018-03-30T06:17:36Z</time>
      </trkpt>
      <trkpt lat="38.3115390" lon="-0.6933960">
        <ele>212.0</ele>
        <time>2018-03-30T06:17:37Z</time>
      </trkpt>
      <trkpt lat="38.3115630" lon="-0.6934250">
        <ele>212.2</ele>
        <time>2018-03-30T06:17:38Z</time>
      </trkpt>
      <trkpt lat="38.3115890" lon="-0.6934510">
        <ele>212.4</ele>
        <time>2018-03-30T06:17:39Z</time>
      </trkpt>
      <trkpt lat="38.3116180" lon="-0.6934750">
        <ele>212.6</ele>
        <time>2018-03-30T06:17:40Z</time>
      </trkpt>
      <trkpt lat="38.3116470" lon="-0.6935020">
        <ele>212.8</ele>
        <time>2018-03-30T06:17:41Z</time>
      </trkpt>
      <trkpt lat="38.3116760" lon="-0.6935250">
        <ele>213.1</ele>
        <time>2018-03-30T06:17:42Z</time>
      </trkpt>
      <trkpt lat="38.3117050" lon="-0.6935510">
        <ele>213.3</ele>
        <time>2018-03-30T06:17:43Z</time>
      </trkpt>
      <trkpt lat="38.3117340" lon="-0.6935760">
        <ele>213.6</ele>
        <time>2018-03-30T06:17:44Z</time>
      </trkpt>
      <trkpt lat="38.3117630" lon="-0.6936020">
        <ele>213.8</ele>
        <time>2018-03-30T06:17:45Z</time>
      </trkpt>
      <trkpt lat="38.3117940" lon="-0.6936290">
        <ele>214.0</ele>
        <time>2018-03-30T06:17:46Z</time>
      </trkpt>
      <trkpt lat="38.3118240" lon="-0.6936570">
        <ele>214.2</ele>
        <time>2018-03-30T06:17:47Z</time>
      </trkpt>
      <trkpt lat="38.3118540" lon="-0.6936830">
        <ele>214.4</ele>
        <time>2018-03-30T06:17:48Z</time>
      </trkpt>
      <trkpt lat="38.3118860" lon="-0.6937110">
        <ele>214.5</ele>
        <time>2018-03-30T06:17:49Z</time>
      </trkpt>
      <trkpt lat="38.3119150" lon="-0.6937390">
        <ele>214.7</ele>
        <time>2018-03-30T06:17:50Z</time>
      </trkpt>
      <trkpt lat="38.3119440" lon="-0.6937670">
        <ele>214.9</ele>
        <time>2018-03-30T06:17:51Z</time>
      </trkpt>
      <trkpt lat="38.3119730" lon="-0.6937940">
        <ele>215.2</ele>
        <time>2018-03-30T06:17:52Z</time>
      </trkpt>
      <trkpt lat="38.3120020" lon="-0.6938210">
        <ele>215.4</ele>
        <time>2018-03-30T06:17:53Z</time>
      </trkpt>
      <trkpt lat="38.3120300" lon="-0.6938460">
        <ele>215.6</ele>
        <time>2018-03-30T06:17:54Z</time>
      </trkpt>
      <trkpt lat="38.3120600" lon="-0.6938690">
        <ele>215.9</ele>
        <time>2018-03-30T06:17:55Z</time>
      </trkpt>
      <trkpt lat="38.3120910" lon="-0.6938870">
        <ele>216.1</ele>
        <time>2018-03-30T06:17:56Z</time>
      </trkpt>
      <trkpt lat="38.3121240" lon="-0.6939020">
        <ele>216.3</ele>
        <time>2018-03-30T06:17:57Z</time>
      </trkpt>
      <trkpt lat="38.3121570" lon="-0.6939070">
        <ele>216.4</ele>
        <time>2018-03-30T06:17:58Z</time>
      </trkpt>
      <trkpt lat="38.3121910" lon="-0.6939010">
        <ele>216.5</ele>
        <time>2018-03-30T06:17:59Z</time>
      </trkpt>
      <trkpt lat="38.3122220" lon="-0.6938900">
        <ele>216.6</ele>
        <time>2018-03-30T06:18:00Z</time>
      </trkpt>
      <trkpt lat="38.3122520" lon="-0.6938770">
        <ele>216.7</ele>
        <time>2018-03-30T06:18:01Z</time>
      </trkpt>
      <trkpt lat="38.3122790" lon="-0.6938560">
        <ele>216.7</ele>
        <time>2018-03-30T06:18:02Z</time>
      </trkpt>
      <trkpt lat="38.3123020" lon="-0.6938320">
        <ele>216.8</ele>
        <time>2018-03-30T06:18:03Z</time>
      </trkpt>
      <trkpt lat="38.3123180" lon="-0.6937970">
        <ele>217.0</ele>
        <time>2018-03-30T06:18:04Z</time>
      </trkpt>
      <trkpt lat="38.3123320" lon="-0.6937630">
        <ele>217.1</ele>
        <time>2018-03-30T06:18:05Z</time>
      </trkpt>
      <trkpt lat="38.3123410" lon="-0.6937290">
        <ele>217.2</ele>
        <time>2018-03-30T06:18:06Z</time>
      </trkpt>
      <trkpt lat="38.3123470" lon="-0.6936950">
        <ele>217.4</ele>
        <time>2018-03-30T06:18:07Z</time>
      </trkpt>
      <trkpt lat="38.3123560" lon="-0.6936590">
        <ele>217.6</ele>
        <time>2018-03-30T06:18:08Z</time>
      </trkpt>
      <trkpt lat="38.3123680" lon="-0.6936220">
        <ele>217.9</ele>
        <time>2018-03-30T06:18:09Z</time>
      </trkpt>
      <trkpt lat="38.3123840" lon="-0.6935880">
        <ele>218.1</ele>
        <time>2018-03-30T06:18:10Z</time>
      </trkpt>
      <trkpt lat="38.3124050" lon="-0.6935620">
        <ele>218.4</ele>
        <time>2018-03-30T06:18:11Z</time>
      </trkpt>
      <trkpt lat="38.3124340" lon="-0.6935460">
        <ele>218.7</ele>
        <time>2018-03-30T06:18:12Z</time>
      </trkpt>
      <trkpt lat="38.3124600" lon="-0.6935310">
        <ele>219.0</ele>
        <time>2018-03-30T06:18:13Z</time>
      </trkpt>
      <trkpt lat="38.3124870" lon="-0.6935230">
        <ele>219.2</ele>
        <time>2018-03-30T06:18:14Z</time>
      </trkpt>
      <trkpt lat="38.3125150" lon="-0.6935220">
        <ele>219.5</ele>
        <time>2018-03-30T06:18:15Z</time>
      </trkpt>
      <trkpt lat="38.3125420" lon="-0.6935250">
        <ele>219.7</ele>
        <time>2018-03-30T06:18:16Z</time>
      </trkpt>
      <trkpt lat="38.3125670" lon="-0.6935280">
        <ele>219.9</ele>
        <time>2018-03-30T06:18:17Z</time>
      </trkpt>
      <trkpt lat="38.3125920" lon="-0.6935370">
        <ele>220.2</ele>
        <time>2018-03-30T06:18:18Z</time>
      </trkpt>
      <trkpt lat="38.3126190" lon="-0.6935470">
        <ele>220.4</ele>
        <time>2018-03-30T06:18:19Z</time>
      </trkpt>
      <trkpt lat="38.3126430" lon="-0.6935580">
        <ele>220.6</ele>
        <time>2018-03-30T06:18:20Z</time>
      </trkpt>
      <trkpt lat="38.3126680" lon="-0.6935720">
        <ele>220.8</ele>
        <time>2018-03-30T06:18:21Z</time>
      </trkpt>
      <trkpt lat="38.3126930" lon="-0.6935870">
        <ele>221.1</ele>
        <time>2018-03-30T06:18:22Z</time>
      </trkpt>
      <trkpt lat="38.3127170" lon="-0.6936020">
        <ele>221.3</ele>
        <time>2018-03-30T06:18:23Z</time>
      </trkpt>
      <trkpt lat="38.3127420" lon="-0.6936150">
        <ele>221.5</ele>
        <time>2018-03-30T06:18:24Z</time>
      </trkpt>
      <trkpt lat="38.3127660" lon="-0.6936290">
        <ele>221.7</ele>
        <time>2018-03-30T06:18:25Z</time>
      </trkpt>
      <trkpt lat="38.3127920" lon="-0.6936420">
        <ele>221.9</ele>
        <time>2018-03-30T06:18:26Z</time>
      </trkpt>
      <trkpt lat="38.3128180" lon="-0.6936560">
        <ele>222.1</ele>
        <time>2018-03-30T06:18:27Z</time>
      </trkpt>
      <trkpt lat="38.3128460" lon="-0.6936700">
        <ele>222.4</ele>
        <time>2018-03-30T06:18:28Z</time>
      </trkpt>
      <trkpt lat="38.3128750" lon="-0.6936840">
        <ele>222.6</ele>
        <time>2018-03-30T06:18:29Z</time>
      </trkpt>
      <trkpt lat="38.3129040" lon="-0.6936950">
        <ele>222.9</ele>
        <time>2018-03-30T06:18:30Z</time>
      </trkpt>
      <trkpt lat="38.3129340" lon="-0.6936980">
        <ele>223.1</ele>
        <time>2018-03-30T06:18:31Z</time>
      </trkpt>
      <trkpt lat="38.3129640" lon="-0.6936920">
        <ele>223.3</ele>
        <time>2018-03-30T06:18:32Z</time>
      </trkpt>
      <trkpt lat="38.3129910" lon="-0.6936780">
        <ele>223.4</ele>
        <time>2018-03-30T06:18:33Z</time>
      </trkpt>
      <trkpt lat="38.3130140" lon="-0.6936550">
        <ele>223.6</ele>
        <time>2018-03-30T06:18:34Z</time>
      </trkpt>
      <trkpt lat="38.3130370" lon="-0.6936270">
        <ele>223.7</ele>
        <time>2018-03-30T06:18:35Z</time>
      </trkpt>
      <trkpt lat="38.3130570" lon="-0.6935950">
        <ele>223.9</ele>
        <time>2018-03-30T06:18:36Z</time>
      </trkpt>
      <trkpt lat="38.3130780" lon="-0.6935610">
        <ele>224.0</ele>
        <time>2018-03-30T06:18:37Z</time>
      </trkpt>
      <trkpt lat="38.3131000" lon="-0.6935260">
        <ele>224.2</ele>
        <time>2018-03-30T06:18:38Z</time>
      </trkpt>
      <trkpt lat="38.3131200" lon="-0.6934880">
        <ele>224.5</ele>
        <time>2018-03-30T06:18:39Z</time>
      </trkpt>
      <trkpt lat="38.3131430" lon="-0.6934560">
        <ele>224.7</ele>
        <time>2018-03-30T06:18:40Z</time>
      </trkpt>
      <trkpt lat="38.3131680" lon="-0.6934250">
        <ele>224.9</ele>
        <time>2018-03-30T06:18:41Z</time>
      </trkpt>
      <trkpt lat="38.3131960" lon="-0.6933980">
        <ele>225.2</ele>
        <time>2018-03-30T06:18:42Z</time>
      </trkpt>
      <trkpt lat="38.3132210" lon="-0.6933770">
        <ele>225.4</ele>
        <time>2018-03-30T06:18:43Z</time>
      </trkpt>
      <trkpt lat="38.3132490" lon="-0.6933610">
        <ele>225.6</ele>
        <time>2018-03-30T06:18:44Z</time>
      </trkpt>
      <trkpt lat="38.3132740" lon="-0.6933500">
        <ele>225.7</ele>
        <time>2018-03-30T06:18:45Z</time>
      </trkpt>
      <trkpt lat="38.3133000" lon="-0.6933400">
        <ele>225.8</ele>
        <time>2018-03-30T06:18:46Z</time>
      </trkpt>
      <trkpt lat="38.3133250" lon="-0.6933300">
        <ele>225.9</ele>
        <time>2018-03-30T06:18:47Z</time>
      </trkpt>
      <trkpt lat="38.3133500" lon="-0.6933230">
        <ele>226.0</ele>
        <time>2018-03-30T06:18:48Z</time>
      </trkpt>
      <trkpt lat="38.3133740" lon="-0.6933180">
        <ele>226.1</ele>
        <time>2018-03-30T06:18:49Z</time>
      </trkpt>
      <trkpt lat="38.3133980" lon="-0.6933130">
        <ele>226.2</ele>
        <time>2018-03-30T06:18:50Z</time>
      </trkpt>
      <trkpt lat="38.3134210" lon="-0.6933100">
        <ele>226.3</ele>
        <time>2018-03-30T06:18:51Z</time>
      </trkpt>
      <trkpt lat="38.3134450" lon="-0.6933100">
        <ele>226.4</ele>
        <time>2018-03-30T06:18:52Z</time>
      </trkpt>
      <trkpt lat="38.3134700" lon="-0.6933090">
        <ele>226.5</ele>
        <time>2018-03-30T06:18:53Z</time>
      </trkpt>
      <trkpt lat="38.3134940" lon="-0.6933100">
        <ele>226.6</ele>
        <time>2018-03-30T06:18:54Z</time>
      </trkpt>
      <trkpt lat="38.3135190" lon="-0.6933110">
        <ele>226.8</ele>
        <time>2018-03-30T06:18:55Z</time>
      </trkpt>
      <trkpt lat="38.3135430" lon="-0.6933150">
        <ele>227.0</ele>
        <time>2018-03-30T06:18:56Z</time>
      </trkpt>
      <trkpt lat="38.3135700" lon="-0.6933190">
        <ele>227.2</ele>
        <time>2018-03-30T06:18:57Z</time>
      </trkpt>
      <trkpt lat="38.3135960" lon="-0.6933290">
        <ele>227.4</ele>
        <time>2018-03-30T06:18:58Z</time>
      </trkpt>
      <trkpt lat="38.3136240" lon="-0.6933390">
        <ele>227.7</ele>
        <time>2018-03-30T06:18:59Z</time>
      </trkpt>
      <trkpt lat="38.3136520" lon="-0.6933490">
        <ele>228.0</ele>
        <time>2018-03-30T06:19:00Z</time>
      </trkpt>
      <trkpt lat="38.3136820" lon="-0.6933610">
        <ele>228.4</ele>
        <time>2018-03-30T06:19:01Z</time>
      </trkpt>
      <trkpt lat="38.3137110" lon="-0.6933740">
        <ele>228.7</ele>
        <time>2018-03-30T06:19:02Z</time>
      </trkpt>
      <trkpt lat="38.3137390" lon="-0.6933870">
        <ele>229.0</ele>
        <time>2018-03-30T06:19:03Z</time>
      </trkpt>
      <trkpt lat="38.3137690" lon="-0.6934010">
        <ele>229.3</ele>
        <time>2018-03-30T06:19:04Z</time>
      </trkpt>
      <trkpt lat="38.3138000" lon="-0.6934150">
        <ele>229.6</ele>
        <time>2018-03-30T06:19:05Z</time>
      </trkpt>
      <trkpt lat="38.3138310" lon="-0.6934280">
        <ele>229.9</ele>
        <time>2018-03-30T06:19:06Z</time>
      </trkpt>
      <trkpt lat="38.3138620" lon="-0.6934420">
        <ele>230.1</ele>
        <time>2018-03-30T06:19:07Z</time>
      </trkpt>
      <trkpt lat="38.3138930" lon="-0.6934570">
        <ele>230.3</ele>
        <time>2018-03-30T06:19:08Z</time>
      </trkpt>
      <trkpt lat="38.3139260" lon="-0.6934710">
        <ele>230.5</ele>
        <time>2018-03-30T06:19:09Z</time>
      </trkpt>
      <trkpt lat="38.3139590" lon="-0.6934830">
        <ele>230.7</ele>
        <time>2018-03-30T06:19:10Z</time>
      </trkpt>
      <trkpt lat="38.3139910" lon="-0.6934950">
        <ele>230.8</ele>
        <time>2018-03-30T06:19:11Z</time>
      </trkpt>
      <trkpt lat="38.3140230" lon="-0.6935070">
        <ele>231.0</ele>
        <time>2018-03-30T06:19:12Z</time>
      </trkpt>
      <trkpt lat="38.3140550" lon="-0.6935160">
        <ele>231.1</ele>
        <time>2018-03-30T06:19:13Z</time>
      </trkpt>
      <trkpt lat="38.3140870" lon="-0.6935240">
        <ele>231.3</ele>
        <time>2018-03-30T06:19:14Z</time>
      </trkpt>
      <trkpt lat="38.3141180" lon="-0.6935310">
        <ele>231.5</ele>
        <time>2018-03-30T06:19:15Z</time>
      </trkpt>
      <trkpt lat="38.3141500" lon="-0.6935390">
        <ele>231.7</ele>
        <time>2018-03-30T06:19:16Z</time>
      </trkpt>
      <trkpt lat="38.3141800" lon="-0.6935450">
        <ele>231.9</ele>
        <time>2018-03-30T06:19:17Z</time>
      </trkpt>
      <trkpt lat="38.3142100" lon="-0.6935490">
        <ele>232.1</ele>
        <time>2018-03-30T06:19:18Z</time>
      </trkpt>
      <trkpt lat="38.3142400" lon="-0.6935530">
        <ele>232.3</ele>
        <time>2018-03-30T06:19:19Z</time>
      </trkpt>
      <trkpt lat="38.3142700" lon="-0.6935570">
        <ele>232.6</ele>
        <time>2018-03-30T06:19:20Z</time>
      </trkpt>
      <trkpt lat="38.3143000" lon="-0.6935600">
        <ele>232.7</ele>
        <time>2018-03-30T06:19:21Z</time>
      </trkpt>
      <trkpt lat="38.3143300" lon="-0.6935630">
        <ele>232.9</ele>
        <time>2018-03-30T06:19:22Z</time>
      </trkpt>
      <trkpt lat="38.3143590" lon="-0.6935660">
        <ele>233.1</ele>
        <time>2018-03-30T06:19:23Z</time>
      </trkpt>
      <trkpt lat="38.3143890" lon="-0.6935650">
        <ele>233.2</ele>
        <time>2018-03-30T06:19:24Z</time>
      </trkpt>
      <trkpt lat="38.3144190" lon="-0.6935610">
        <ele>233.4</ele>
        <time>2018-03-30T06:19:25Z</time>
      </trkpt>
      <trkpt lat="38.3144510" lon="-0.6935580">
        <ele>233.5</ele>
        <time>2018-03-30T06:19:26Z</time>
      </trkpt>
      <trkpt lat="38.3144830" lon="-0.6935550">
        <ele>233.7</ele>
        <time>2018-03-30T06:19:27Z</time>
      </trkpt>
      <trkpt lat="38.3145140" lon="-0.6935520">
        <ele>233.9</ele>
        <time>2018-03-30T06:19:28Z</time>
      </trkpt>
      <trkpt lat="38.3145470" lon="-0.6935500">
        <ele>234.2</ele>
        <time>2018-03-30T06:19:29Z</time>
      </trkpt>
      <trkpt lat="38.3145790" lon="-0.6935480">
        <ele>234.4</ele>
        <time>2018-03-30T06:19:30Z</time>
      </trkpt>
      <trkpt lat="38.3146130" lon="-0.6935460">
        <ele>234.7</ele>
        <time>2018-03-30T06:19:31Z</time>
      </trkpt>
      <trkpt lat="38.3146450" lon="-0.6935460">
        <ele>234.9</ele>
        <time>2018-03-30T06:19:32Z</time>
      </trkpt>
      <trkpt lat="38.3146790" lon="-0.6935430">
        <ele>235.2</ele>
        <time>2018-03-30T06:19:33Z</time>
      </trkpt>
      <trkpt lat="38.3147120" lon="-0.6935410">
        <ele>235.4</ele>
        <time>2018-03-30T06:19:34Z</time>
      </trkpt>
      <trkpt lat="38.3147450" lon="-0.6935380">
        <ele>235.6</ele>
        <time>2018-03-30T06:19:35Z</time>
      </trkpt>
      <trkpt lat="38.3147780" lon="-0.6935360">
        <ele>235.8</ele>
        <time>2018-03-30T06:19:36Z</time>
      </trkpt>
      <trkpt lat="38.3148110" lon="-0.6935350">
        <ele>236.0</ele>
        <time>2018-03-30T06:19:37Z</time>
      </trkpt>
      <trkpt lat="38.3148450" lon="-0.6935330">
        <ele>236.3</ele>
        <time>2018-03-30T06:19:38Z</time>
      </trkpt>
      <trkpt lat="38.3148800" lon="-0.6935300">
        <ele>236.5</ele>
        <time>2018-03-30T06:19:39Z</time>
      </trkpt>
      <trkpt lat="38.3149140" lon="-0.6935270">
        <ele>236.7</ele>
        <time>2018-03-30T06:19:40Z</time>
      </trkpt>
      <trkpt lat="38.3149490" lon="-0.6935240">
        <ele>236.9</ele>
        <time>2018-03-30T06:19:41Z</time>
      </trkpt>
      <trkpt lat="38.3149830" lon="-0.6935210">
        <ele>237.2</ele>
        <time>2018-03-30T06:19:42Z</time>
      </trkpt>
      <trkpt lat="38.3150160" lon="-0.6935210">
        <ele>237.4</ele>
        <time>2018-03-30T06:19:43Z</time>
      </trkpt>
      <trkpt lat="38.3150500" lon="-0.6935180">
        <ele>237.5</ele>
        <time>2018-03-30T06:19:44Z</time>
      </trkpt>
      <trkpt lat="38.3150840" lon="-0.6935120">
        <ele>237.7</ele>
        <time>2018-03-30T06:19:45Z</time>
      </trkpt>
      <trkpt lat="38.3151160" lon="-0.6935080">
        <ele>237.8</ele>
        <time>2018-03-30T06:19:46Z</time>
      </trkpt>
      <trkpt lat="38.3151490" lon="-0.6935030">
        <ele>237.8</ele>
        <time>2018-03-30T06:19:47Z</time>
      </trkpt>
      <trkpt lat="38.3151820" lon="-0.6934930">
        <ele>237.9</ele>
        <time>2018-03-30T06:19:48Z</time>
      </trkpt>
      <trkpt lat="38.3152150" lon="-0.6934850">
        <ele>237.9</ele>
        <time>2018-03-30T06:19:49Z</time>
      </trkpt>
      <trkpt lat="38.3152450" lon="-0.6934750">
        <ele>238.0</ele>
        <time>2018-03-30T06:19:50Z</time>
      </trkpt>
      <trkpt lat="38.3152730" lon="-0.6934660">
        <ele>238.0</ele>
        <time>2018-03-30T06:19:51Z</time>
      </trkpt>
      <trkpt lat="38.3152980" lon="-0.6934570">
        <ele>238.2</ele>
        <time>2018-03-30T06:19:52Z</time>
      </trkpt>
      <trkpt lat="38.3153230" lon="-0.6934490">
        <ele>238.3</ele>
        <time>2018-03-30T06:19:53Z</time>
      </trkpt>
      <trkpt lat="38.3153480" lon="-0.6934410">
        <ele>238.5</ele>
        <time>2018-03-30T06:19:54Z</time>
      </trkpt>
      <trkpt lat="38.3153730" lon="-0.6934330">
        <ele>238.7</ele>
        <time>2018-03-30T06:19:55Z</time>
      </trkpt>
      <trkpt lat="38.3154010" lon="-0.6934280">
        <ele>238.9</ele>
        <time>2018-03-30T06:19:56Z</time>
      </trkpt>
      <trkpt lat="38.3154310" lon="-0.6934250">
        <ele>239.1</ele>
        <time>2018-03-30T06:19:57Z</time>
      </trkpt>
      <trkpt lat="38.3154630" lon="-0.6934230">
        <ele>239.3</ele>
        <time>2018-03-30T06:19:58Z</time>
      </trkpt>
      <trkpt lat="38.3154970" lon="-0.6934270">
        <ele>239.5</ele>
        <time>2018-03-30T06:19:59Z</time>
      </trkpt>
      <trkpt lat="38.3155290" lon="-0.6934310">
        <ele>239.7</ele>
        <time>2018-03-30T06:20:00Z</time>
      </trkpt>
      <trkpt lat="38.3155620" lon="-0.6934360">
        <ele>239.9</ele>
        <time>2018-03-30T06:20:01Z</time>
      </trkpt>
      <trkpt lat="38.3155950" lon="-0.6934440">
        <ele>240.2</ele>
        <time>2018-03-30T06:20:02Z</time>
      </trkpt>
      <trkpt lat="38.3156270" lon="-0.6934530">
        <ele>240.4</ele>
        <time>2018-03-30T06:20:03Z</time>
      </trkpt>
      <trkpt lat="38.3156610" lon="-0.6934590">
        <ele>240.6</ele>
        <time>2018-03-30T06:20:04Z</time>
      </trkpt>
      <trkpt lat="38.3156950" lon="-0.6934680">
        <ele>240.8</ele>
        <time>2018-03-30T06:20:05Z</time>
      </trkpt>
      <trkpt lat="38.3157290" lon="-0.6934790">
        <ele>241.0</ele>
        <time>2018-03-30T06:20:06Z</time>
      </trkpt>
      <trkpt lat="38.3157620" lon="-0.6934900">
        <ele>241.3</ele>
        <time>2018-03-30T06:20:07Z</time>
      </trkpt>
      <trkpt lat="38.3157960" lon="-0.6935050">
        <ele>241.5</ele>
        <time>2018-03-30T06:20:08Z</time>
      </trkpt>
      <trkpt lat="38.3158300" lon="-0.6935190">
        <ele>241.7</ele>
        <time>2018-03-30T06:20:09Z</time>
      </trkpt>
      <trkpt lat="38.3158640" lon="-0.6935330">
        <ele>241.9</ele>
        <time>2018-03-30T06:20:10Z</time>
      </trkpt>
      <trkpt lat="38.3158990" lon="-0.6935490">
        <ele>242.2</ele>
        <time>2018-03-30T06:20:11Z</time>
      </trkpt>
      <trkpt lat="38.3159330" lon="-0.6935660">
        <ele>242.4</ele>
        <time>2018-03-30T06:20:12Z</time>
      </trkpt>
      <trkpt lat="38.3159680" lon="-0.6935840">
        <ele>242.7</ele>
        <time>2018-03-30T06:20:13Z</time>
      </trkpt>
      <trkpt lat="38.3160030" lon="-0.6936010">
        <ele>242.9</ele>
        <time>2018-03-30T06:20:14Z</time>
      </trkpt>
      <trkpt lat="38.3160380" lon="-0.6936170">
        <ele>243.2</ele>
        <time>2018-03-30T06:20:15Z</time>
      </trkpt>
      <trkpt lat="38.3160750" lon="-0.6936340">
        <ele>243.4</ele>
        <time>2018-03-30T06:20:16Z</time>
      </trkpt>
      <trkpt lat="38.3161120" lon="-0.6936510">
        <ele>243.6</ele>
        <time>2018-03-30T06:20:17Z</time>
      </trkpt>
      <trkpt lat="38.3161500" lon="-0.6936700">
        <ele>243.9</ele>
        <time>2018-03-30T06:20:18Z</time>
      </trkpt>
      <trkpt lat="38.3161880" lon="-0.6936910">
        <ele>244.1</ele>
        <time>2018-03-30T06:20:19Z</time>
      </trkpt>
      <trkpt lat="38.3162250" lon="-0.6937100">
        <ele>244.3</ele>
        <time>2018-03-30T06:20:20Z</time>
      </trkpt>
      <trkpt lat="38.3162630" lon="-0.6937270">
        <ele>244.5</ele>
        <time>2018-03-30T06:20:21Z</time>
      </trkpt>
      <trkpt lat="38.3163010" lon="-0.6937440">
        <ele>244.6</ele>
        <time>2018-03-30T06:20:22Z</time>
      </trkpt>
      <trkpt lat="38.3163380" lon="-0.6937580">
        <ele>244.7</ele>
        <time>2018-03-30T06:20:23Z</time>
      </trkpt>
      <trkpt lat="38.3163740" lon="-0.6937710">
        <ele>244.9</ele>
        <time>2018-03-30T06:20:24Z</time>
      </trkpt>
      <trkpt lat="38.3164100" lon="-0.6937830">
        <ele>245.0</ele>
        <time>2018-03-30T06:20:25Z</time>
      </trkpt>
      <trkpt lat="38.3164470" lon="-0.6937950">
        <ele>245.1</ele>
        <time>2018-03-30T06:20:26Z</time>
      </trkpt>
      <trkpt lat="38.3164840" lon="-0.6938080">
        <ele>245.2</ele>
        <time>2018-03-30T06:20:27Z</time>
      </trkpt>
      <trkpt lat="38.3165190" lon="-0.6938240">
        <ele>245.2</ele>
        <time>2018-03-30T06:20:28Z</time>
      </trkpt>
      <trkpt lat="38.3165550" lon="-0.6938410">
        <ele>245.3</ele>
        <time>2018-03-30T06:20:29Z</time>
      </trkpt>
      <trkpt lat="38.3165910" lon="-0.6938580">
        <ele>245.4</ele>
        <time>2018-03-30T06:20:30Z</time>
      </trkpt>
      <trkpt lat="38.3166270" lon="-0.6938750">
        <ele>245.5</ele>
        <time>2018-03-30T06:20:31Z</time>
      </trkpt>
      <trkpt lat="38.3166650" lon="-0.6938930">
        <ele>245.5</ele>
        <time>2018-03-30T06:20:32Z</time>
      </trkpt>
      <trkpt lat="38.3167030" lon="-0.6939130">
        <ele>245.6</ele>
        <time>2018-03-30T06:20:33Z</time>
      </trkpt>
      <trkpt lat="38.3167410" lon="-0.6939350">
        <ele>245.6</ele>
        <time>2018-03-30T06:20:34Z</time>
      </trkpt>
      <trkpt lat="38.3167800" lon="-0.6939560">
        <ele>245.6</ele>
        <time>2018-03-30T06:20:35Z</time>
      </trkpt>
      <trkpt lat="38.3168200" lon="-0.6939740">
        <ele>245.6</ele>
        <time>2018-03-30T06:20:36Z</time>
      </trkpt>
      <trkpt lat="38.3168600" lon="-0.6939920">
        <ele>245.5</ele>
        <time>2018-03-30T06:20:37Z</time>
      </trkpt>
      <trkpt lat="38.3169030" lon="-0.6940070">
        <ele>245.4</ele>
        <time>2018-03-30T06:20:38Z</time>
      </trkpt>
      <trkpt lat="38.3169460" lon="-0.6940210">
        <ele>245.3</ele>
        <time>2018-03-30T06:20:39Z</time>
      </trkpt>
      <trkpt lat="38.3169910" lon="-0.6940310">
        <ele>245.1</ele>
        <time>2018-03-30T06:20:40Z</time>
      </trkpt>
      <trkpt lat="38.3170360" lon="-0.6940320">
        <ele>245.0</ele>
        <time>2018-03-30T06:20:41Z</time>
      </trkpt>
      <trkpt lat="38.3170830" lon="-0.6940250">
        <ele>244.8</ele>
        <time>2018-03-30T06:20:42Z</time>
      </trkpt>
      <trkpt lat="38.3171310" lon="-0.6940140">
        <ele>244.7</ele>
        <time>2018-03-30T06:20:43Z</time>
      </trkpt>
      <trkpt lat="38.3171800" lon="-0.6940030">
        <ele>244.5</ele>
        <time>2018-03-30T06:20:44Z</time>
      </trkpt>
      <trkpt lat="38.3172300" lon="-0.6939890">
        <ele>244.4</ele>
        <time>2018-03-30T06:20:45Z</time>
      </trkpt>
      <trkpt lat="38.3172800" lon="-0.6939720">
        <ele>244.3</ele>
        <time>2018-03-30T06:20:46Z</time>
      </trkpt>
      <trkpt lat="38.3173320" lon="-0.6939510">
        <ele>244.1</ele>
        <time>2018-03-30T06:20:47Z</time>
      </trkpt>
      <trkpt lat="38.3173870" lon="-0.6939220">
        <ele>243.9</ele>
        <time>2018-03-30T06:20:48Z</time>
      </trkpt>
      <trkpt lat="38.3174490" lon="-0.6938890">
        <ele>243.7</ele>
        <time>2018-03-30T06:20:49Z</time>
      </trkpt>
      <trkpt lat="38.3175150" lon="-0.6938510">
        <ele>243.5</ele>
        <time>2018-03-30T06:20:50Z</time>
      </trkpt>
      <trkpt lat="38.3175830" lon="-0.6938080">
        <ele>243.4</ele>
        <time>2018-03-30T06:20:51Z</time>
      </trkpt>
      <trkpt lat="38.3176550" lon="-0.6937640">
        <ele>243.2</ele>
        <time>2018-03-30T06:20:52Z</time>
      </trkpt>
      <trkpt lat="38.3177310" lon="-0.6937210">
        <ele>243.0</ele>
        <time>2018-03-30T06:20:53Z</time>
      </trkpt>
      <trkpt lat="38.3178090" lon="-0.6936760">
        <ele>242.9</ele>
        <time>2018-03-30T06:20:54Z</time>
      </trkpt>
      <trkpt lat="38.3178870" lon="-0.6936330">
        <ele>242.8</ele>
        <time>2018-03-30T06:20:55Z</time>
      </trkpt>
      <trkpt lat="38.3179710" lon="-0.6935980">
        <ele>242.9</ele>
        <time>2018-03-30T06:20:56Z</time>
      </trkpt>
      <trkpt lat="38.3180570" lon="-0.6935870">
        <ele>242.9</ele>
        <time>2018-03-30T06:20:57Z</time>
      </trkpt>
      <trkpt lat="38.3181450" lon="-0.6935820">
        <ele>242.2</ele>
        <time>2018-03-30T06:20:58Z</time>
      </trkpt>
      <trkpt lat="38.3182340" lon="-0.6935770">
        <ele>241.8</ele>
        <time>2018-03-30T06:20:59Z</time>
      </trkpt>
      <trkpt lat="38.3183200" lon="-0.6935710">
        <ele>241.6</ele>
        <time>2018-03-30T06:21:00Z</time>
      </trkpt>
      <trkpt lat="38.3184050" lon="-0.6935630">
        <ele>241.4</ele>
        <time>2018-03-30T06:21:01Z</time>
      </trkpt>
      <trkpt lat="38.3184900" lon="-0.6935540">
        <ele>241.3</ele>
        <time>2018-03-30T06:21:02Z</time>
      </trkpt>
      <trkpt lat="38.3185730" lon="-0.6935470">
        <ele>241.1</ele>
        <time>2018-03-30T06:21:03Z</time>
      </trkpt>
      <trkpt lat="38.3186560" lon="-0.6935460">
        <ele>241.0</ele>
        <time>2018-03-30T06:21:04Z</time>
      </trkpt>
      <trkpt lat="38.3187370" lon="-0.6935460">
        <ele>240.9</ele>
        <time>2018-03-30T06:21:05Z</time>
      </trkpt>
      <trkpt lat="38.3188190" lon="-0.6935500">
        <ele>240.7</ele>
        <time>2018-03-30T06:21:06Z</time>
      </trkpt>
      <trkpt lat="38.3188990" lon="-0.6935520">
        <ele>240.6</ele>
        <time>2018-03-30T06:21:07Z</time>
      </trkpt>
      <trkpt lat="38.3189780" lon="-0.6935520">
        <ele>240.5</ele>
        <time>2018-03-30T06:21:08Z</time>
      </trkpt>
      <trkpt lat="38.3190570" lon="-0.6935500">
        <ele>240.4</ele>
        <time>2018-03-30T06:21:09Z</time>
      </trkpt>
      <trkpt lat="38.3191320" lon="-0.6935410">
        <ele>240.3</ele>
        <time>2018-03-30T06:21:10Z</time>
      </trkpt>
      <trkpt lat="38.3192020" lon="-0.6935170">
        <ele>240.2</ele>
        <time>2018-03-30T06:21:11Z</time>
      </trkpt>
      <trkpt lat="38.3192610" lon="-0.6934510">
        <ele>240.1</ele>
        <time>2018-03-30T06:21:12Z</time>
      </trkpt>
      <trkpt lat="38.3192990" lon="-0.6933660">
        <ele>240.0</ele>
        <time>2018-03-30T06:21:13Z</time>
      </trkpt>
      <trkpt lat="38.3193270" lon="-0.6932790">
        <ele>239.9</ele>
        <time>2018-03-30T06:21:14Z</time>
      </trkpt>
      <trkpt lat="38.3193420" lon="-0.6931710">
        <ele>239.8</ele>
        <time>2018-03-30T06:21:15Z</time>
      </trkpt>
      <trkpt lat="38.3193550" lon="-0.6930530">
        <ele>239.6</ele>
        <time>2018-03-30T06:21:16Z</time>
      </trkpt>
      <trkpt lat="38.3193700" lon="-0.6929330">
        <ele>239.5</ele>
        <time>2018-03-30T06:21:17Z</time>
      </trkpt>
      <trkpt lat="38.3193840" lon="-0.6928100">
        <ele>239.2</ele>
        <time>2018-03-30T06:21:18Z</time>
      </trkpt>
      <trkpt lat="38.3193970" lon="-0.6926850">
        <ele>238.8</ele>
        <time>2018-03-30T06:21:19Z</time>
      </trkpt>
      <trkpt lat="38.3194110" lon="-0.6925590">
        <ele>238.4</ele>
        <time>2018-03-30T06:21:20Z</time>
      </trkpt>
      <trkpt lat="38.3194260" lon="-0.6924330">
        <ele>237.9</ele>
        <time>2018-03-30T06:21:21Z</time>
      </trkpt>
      <trkpt lat="38.3194480" lon="-0.6923100">
        <ele>237.4</ele>
        <time>2018-03-30T06:21:22Z</time>
      </trkpt>
      <trkpt lat="38.3194810" lon="-0.6921920">
        <ele>237.0</ele>
        <time>2018-03-30T06:21:23Z</time>
      </trkpt>
      <trkpt lat="38.3195220" lon="-0.6920770">
        <ele>236.5</ele>
        <time>2018-03-30T06:21:24Z</time>
      </trkpt>
      <trkpt lat="38.3195670" lon="-0.6919640">
        <ele>236.1</ele>
        <time>2018-03-30T06:21:25Z</time>
      </trkpt>
      <trkpt lat="38.3196070" lon="-0.6918490">
        <ele>235.6</ele>
        <time>2018-03-30T06:21:26Z</time>
      </trkpt>
      <trkpt lat="38.3196400" lon="-0.6917310">
        <ele>235.2</ele>
        <time>2018-03-30T06:21:27Z</time>
      </trkpt>
      <trkpt lat="38.3196670" lon="-0.6916080">
        <ele>234.7</ele>
        <time>2018-03-30T06:21:28Z</time>
      </trkpt>
      <trkpt lat="38.3196910" lon="-0.6914820">
        <ele>234.4</ele>
        <time>2018-03-30T06:21:29Z</time>
      </trkpt>
      <trkpt lat="38.3197100" lon="-0.6913510">
        <ele>234.1</ele>
        <time>2018-03-30T06:21:30Z</time>
      </trkpt>
      <trkpt lat="38.3197330" lon="-0.6912220">
        <ele>233.9</ele>
        <time>2018-03-30T06:21:31Z</time>
      </trkpt>
      <trkpt lat="38.3197530" lon="-0.6910940">
        <ele>233.7</ele>
        <time>2018-03-30T06:21:32Z</time>
      </trkpt>
      <trkpt lat="38.3197720" lon="-0.6909650">
        <ele>233.5</ele>
        <time>2018-03-30T06:21:33Z</time>
      </trkpt>
      <trkpt lat="38.3197900" lon="-0.6908380">
        <ele>233.3</ele>
        <time>2018-03-30T06:21:34Z</time>
      </trkpt>
      <trkpt lat="38.3198050" lon="-0.6907140">
        <ele>232.9</ele>
        <time>2018-03-30T06:21:35Z</time>
      </trkpt>
      <trkpt lat="38.3198220" lon="-0.6905920">
        <ele>232.5</ele>
        <time>2018-03-30T06:21:36Z</time>
      </trkpt>
      <trkpt lat="38.3198380" lon="-0.6904700">
        <ele>232.0</ele>
        <time>2018-03-30T06:21:37Z</time>
      </trkpt>
      <trkpt lat="38.3198540" lon="-0.6903510">
        <ele>231.6</ele>
        <time>2018-03-30T06:21:38Z</time>
      </trkpt>
      <trkpt lat="38.3198710" lon="-0.6902300">
        <ele>231.1</ele>
        <time>2018-03-30T06:21:39Z</time>
      </trkpt>
      <trkpt lat="38.3198860" lon="-0.6901080">
        <ele>230.7</ele>
        <time>2018-03-30T06:21:40Z</time>
      </trkpt>
      <trkpt lat="38.3198970" lon="-0.6899860">
        <ele>230.2</ele>
        <time>2018-03-30T06:21:41Z</time>
      </trkpt>
      <trkpt lat="38.3199050" lon="-0.6898610">
        <ele>229.8</ele>
        <time>2018-03-30T06:21:42Z</time>
      </trkpt>
      <trkpt lat="38.3199140" lon="-0.6897370">
        <ele>229.3</ele>
        <time>2018-03-30T06:21:43Z</time>
      </trkpt>
      <trkpt lat="38.3199230" lon="-0.6896150">
        <ele>228.9</ele>
        <time>2018-03-30T06:21:44Z</time>
      </trkpt>
      <trkpt lat="38.3199310" lon="-0.6894920">
        <ele>228.4</ele>
        <time>2018-03-30T06:21:45Z</time>
      </trkpt>
      <trkpt lat="38.3199390" lon="-0.6893710">
        <ele>228.1</ele>
        <time>2018-03-30T06:21:46Z</time>
      </trkpt>
      <trkpt lat="38.3199450" lon="-0.6892500">
        <ele>227.8</ele>
        <time>2018-03-30T06:21:47Z</time>
      </trkpt>
      <trkpt lat="38.3199480" lon="-0.6891320">
        <ele>227.6</ele>
        <time>2018-03-30T06:21:48Z</time>
      </trkpt>
      <trkpt lat="38.3199520" lon="-0.6890170">
        <ele>227.4</ele>
        <time>2018-03-30T06:21:49Z</time>
      </trkpt>
      <trkpt lat="38.3199580" lon="-0.6889040">
        <ele>227.1</ele>
        <time>2018-03-30T06:21:50Z</time>
      </trkpt>
      <trkpt lat="38.3199640" lon="-0.6887910">
        <ele>226.7</ele>
        <time>2018-03-30T06:21:51Z</time>
      </trkpt>
      <trkpt lat="38.3199680" lon="-0.6886770">
        <ele>226.3</ele>
        <time>2018-03-30T06:21:52Z</time>
      </trkpt>
      <trkpt lat="38.3199740" lon="-0.6885630">
        <ele>225.9</ele>
        <time>2018-03-30T06:21:53Z</time>
      </trkpt>
      <trkpt lat="38.3199780" lon="-0.6884460">
        <ele>225.5</ele>
        <time>2018-03-30T06:21:54Z</time>
      </trkpt>
      <trkpt lat="38.3199760" lon="-0.6883300">
        <ele>225.2</ele>
        <time>2018-03-30T06:21:55Z</time>
      </trkpt>
      <trkpt lat="38.3199690" lon="-0.6882150">
        <ele>224.9</ele>
        <time>2018-03-30T06:21:56Z</time>
      </trkpt>
      <trkpt lat="38.3199600" lon="-0.6880990">
        <ele>224.7</ele>
        <time>2018-03-30T06:21:57Z</time>
      </trkpt>
      <trkpt lat="38.3199520" lon="-0.6879840">
        <ele>224.6</ele>
        <time>2018-03-30T06:21:58Z</time>
      </trkpt>
      <trkpt lat="38.3199480" lon="-0.6878690">
        <ele>224.4</ele>
        <time>2018-03-30T06:21:59Z</time>
      </trkpt>
      <trkpt lat="38.3199510" lon="-0.6877530">
        <ele>224.3</ele>
        <time>2018-03-30T06:22:00Z</time>
      </trkpt>
      <trkpt lat="38.3199560" lon="-0.6876380">
        <ele>224.3</ele>
        <time>2018-03-30T06:22:01Z</time>
      </trkpt>
      <trkpt lat="38.3199640" lon="-0.6875230">
        <ele>224.2</ele>
        <time>2018-03-30T06:22:02Z</time>
      </trkpt>
      <trkpt lat="38.3199740" lon="-0.6874080">
        <ele>224.1</ele>
        <time>2018-03-30T06:22:03Z</time>
      </trkpt>
      <trkpt lat="38.3199860" lon="-0.6872940">
        <ele>224.0</ele>
        <time>2018-03-30T06:22:04Z</time>
      </trkpt>
      <trkpt lat="38.3199980" lon="-0.6871780">
        <ele>223.9</ele>
        <time>2018-03-30T06:22:05Z</time>
      </trkpt>
      <trkpt lat="38.3200100" lon="-0.6870610">
        <ele>223.8</ele>
        <time>2018-03-30T06:22:06Z</time>
      </trkpt>
      <trkpt lat="38.3200200" lon="-0.6869440">
        <ele>223.7</ele>
        <time>2018-03-30T06:22:07Z</time>
      </trkpt>
      <trkpt lat="38.3200310" lon="-0.6868240">
        <ele>223.5</ele>
        <time>2018-03-30T06:22:08Z</time>
      </trkpt>
      <trkpt lat="38.3200450" lon="-0.6867040">
        <ele>223.3</ele>
        <time>2018-03-30T06:22:09Z</time>
      </trkpt>
      <trkpt lat="38.3200640" lon="-0.6865850">
        <ele>223.0</ele>
        <time>2018-03-30T06:22:10Z</time>
      </trkpt>
      <trkpt lat="38.3200870" lon="-0.6864640">
        <ele>222.6</ele>
        <time>2018-03-30T06:22:11Z</time>
      </trkpt>
      <trkpt lat="38.3201130" lon="-0.6863470">
        <ele>222.2</ele>
        <time>2018-03-30T06:22:12Z</time>
      </trkpt>
      <trkpt lat="38.3201410" lon="-0.6862270">
        <ele>221.8</ele>
        <time>2018-03-30T06:22:13Z</time>
      </trkpt>
      <trkpt lat="38.3201690" lon="-0.6861060">
        <ele>221.5</ele>
        <time>2018-03-30T06:22:14Z</time>
      </trkpt>
      <trkpt lat="38.3201960" lon="-0.6859810">
        <ele>221.3</ele>
        <time>2018-03-30T06:22:15Z</time>
      </trkpt>
      <trkpt lat="38.3202210" lon="-0.6858530">
        <ele>221.1</ele>
        <time>2018-03-30T06:22:16Z</time>
      </trkpt>
      <trkpt lat="38.3202430" lon="-0.6857220">
        <ele>221.0</ele>
        <time>2018-03-30T06:22:17Z</time>
      </trkpt>
      <trkpt lat="38.3202670" lon="-0.6855880">
        <ele>220.9</ele>
        <time>2018-03-30T06:22:18Z</time>
      </trkpt>
      <trkpt lat="38.3202920" lon="-0.6854520">
        <ele>220.7</ele>
        <time>2018-03-30T06:22:19Z</time>
      </trkpt>
      <trkpt lat="38.3203180" lon="-0.6853160">
        <ele>220.4</ele>
        <time>2018-03-30T06:22:20Z</time>
      </trkpt>
      <trkpt lat="38.3203410" lon="-0.6851760">
        <ele>220.1</ele>
        <time>2018-03-30T06:22:21Z</time>
      </trkpt>
      <trkpt lat="38.3203620" lon="-0.6850340">
        <ele>219.7</ele>
        <time>2018-03-30T06:22:22Z</time>
      </trkpt>
      <trkpt lat="38.3203830" lon="-0.6848910">
        <ele>219.2</ele>
        <time>2018-03-30T06:22:23Z</time>
      </trkpt>
      <trkpt lat="38.3203990" lon="-0.6847430">
        <ele>218.7</ele>
        <time>2018-03-30T06:22:24Z</time>
      </trkpt>
      <trkpt lat="38.3204160" lon="-0.6845980">
        <ele>218.3</ele>
        <time>2018-03-30T06:22:25Z</time>
      </trkpt>
      <trkpt lat="38.3204300" lon="-0.6844540">
        <ele>217.8</ele>
        <time>2018-03-30T06:22:26Z</time>
      </trkpt>
      <trkpt lat="38.3204420" lon="-0.6843130">
        <ele>217.4</ele>
        <time>2018-03-30T06:22:27Z</time>
      </trkpt>
      <trkpt lat="38.3204530" lon="-0.6841750">
        <ele>217.0</ele>
        <time>2018-03-30T06:22:28Z</time>
      </trkpt>
      <trkpt lat="38.3204680" lon="-0.6840400">
        <ele>216.5</ele>
        <time>2018-03-30T06:22:29Z</time>
      </trkpt>
      <trkpt lat="38.3204840" lon="-0.6839050">
        <ele>216.0</ele>
        <time>2018-03-30T06:22:30Z</time>
      </trkpt>
      <trkpt lat="38.3205020" lon="-0.6837760">
        <ele>215.5</ele>
        <time>2018-03-30T06:22:31Z</time>
      </trkpt>
      <trkpt lat="38.3205190" lon="-0.6836470">
        <ele>214.9</ele>
        <time>2018-03-30T06:22:32Z</time>
      </trkpt>
      <trkpt lat="38.3205330" lon="-0.6835210">
        <ele>214.3</ele>
        <time>2018-03-30T06:22:33Z</time>
      </trkpt>
      <trkpt lat="38.3205460" lon="-0.6833960">
        <ele>213.7</ele>
        <time>2018-03-30T06:22:34Z</time>
      </trkpt>
      <trkpt lat="38.3205620" lon="-0.6832750">
        <ele>213.2</ele>
        <time>2018-03-30T06:22:35Z</time>
      </trkpt>
      <trkpt lat="38.3205930" lon="-0.6831580">
        <ele>212.8</ele>
        <time>2018-03-30T06:22:36Z</time>
      </trkpt>
      <trkpt lat="38.3206300" lon="-0.6830390">
        <ele>212.4</ele>
        <time>2018-03-30T06:22:37Z</time>
      </trkpt>
      <trkpt lat="38.3206740" lon="-0.6829190">
        <ele>212.1</ele>
        <time>2018-03-30T06:22:38Z</time>
      </trkpt>
      <trkpt lat="38.3207260" lon="-0.6828050">
        <ele>211.8</ele>
        <time>2018-03-30T06:22:39Z</time>
      </trkpt>
      <trkpt lat="38.3207800" lon="-0.6826910">
        <ele>211.5</ele>
        <time>2018-03-30T06:22:40Z</time>
      </trkpt>
      <trkpt lat="38.3208360" lon="-0.6825840">
        <ele>211.1</ele>
        <time>2018-03-30T06:22:41Z</time>
      </trkpt>
      <trkpt lat="38.3208890" lon="-0.6824770">
        <ele>210.7</ele>
        <time>2018-03-30T06:22:42Z</time>
      </trkpt>
      <trkpt lat="38.3209450" lon="-0.6823790">
        <ele>210.3</ele>
        <time>2018-03-30T06:22:43Z</time>
      </trkpt>
      <trkpt lat="38.3209990" lon="-0.6822820">
        <ele>210.0</ele>
        <time>2018-03-30T06:22:44Z</time>
      </trkpt>
      <trkpt lat="38.3210520" lon="-0.6821880">
        <ele>209.7</ele>
        <time>2018-03-30T06:22:45Z</time>
      </trkpt>
      <trkpt lat="38.3211050" lon="-0.6821010">
        <ele>209.4</ele>
        <time>2018-03-30T06:22:46Z</time>
      </trkpt>
      <trkpt lat="38.3211670" lon="-0.6820310">
        <ele>209.2</ele>
        <time>2018-03-30T06:22:47Z</time>
      </trkpt>
      <trkpt lat="38.3212290" lon="-0.6819710">
        <ele>209.1</ele>
        <time>2018-03-30T06:22:48Z</time>
      </trkpt>
      <trkpt lat="38.3212960" lon="-0.6819300">
        <ele>209.4</ele>
        <time>2018-03-30T06:22:49Z</time>
      </trkpt>
      <trkpt lat="38.3213670" lon="-0.6819180">
        <ele>209.8</ele>
        <time>2018-03-30T06:22:50Z</time>
      </trkpt>
      <trkpt lat="38.3214290" lon="-0.6819460">
        <ele>210.2</ele>
        <time>2018-03-30T06:22:51Z</time>
      </trkpt>
      <trkpt lat="38.3214910" lon="-0.6819700">
        <ele>210.5</ele>
        <time>2018-03-30T06:22:52Z</time>
      </trkpt>
      <trkpt lat="38.3215460" lon="-0.6819960">
        <ele>210.7</ele>
        <time>2018-03-30T06:22:53Z</time>
      </trkpt>
      <trkpt lat="38.3215980" lon="-0.6820190">
        <ele>210.9</ele>
        <time>2018-03-30T06:22:54Z</time>
      </trkpt>
      <trkpt lat="38.3216470" lon="-0.6820380">
        <ele>211.1</ele>
        <time>2018-03-30T06:22:55Z</time>
      </trkpt>
      <trkpt lat="38.3216930" lon="-0.6820560">
        <ele>211.2</ele>
        <time>2018-03-30T06:22:56Z</time>
      </trkpt>
      <trkpt lat="38.3217360" lon="-0.6820740">
        <ele>211.3</ele>
        <time>2018-03-30T06:22:57Z</time>
      </trkpt>
      <trkpt lat="38.3217760" lon="-0.6820910">
        <ele>211.4</ele>
        <time>2018-03-30T06:22:58Z</time>
      </trkpt>
      <trkpt lat="38.3218150" lon="-0.6821100">
        <ele>211.5</ele>
        <time>2018-03-30T06:22:59Z</time>
      </trkpt>
      <trkpt lat="38.3218530" lon="-0.6821280">
        <ele>211.5</ele>
        <time>2018-03-30T06:23:00Z</time>
      </trkpt>
      <trkpt lat="38.3218900" lon="-0.6821450">
        <ele>211.6</ele>
        <time>2018-03-30T06:23:01Z</time>
      </trkpt>
      <trkpt lat="38.3219260" lon="-0.6821620">
        <ele>211.6</ele>
        <time>2018-03-30T06:23:02Z</time>
      </trkpt>
      <trkpt lat="38.3219560" lon="-0.6821750">
        <ele>211.6</ele>
        <time>2018-03-30T06:23:03Z</time>
      </trkpt>
      <trkpt lat="38.3219830" lon="-0.6821880">
        <ele>211.6</ele>
        <time>2018-03-30T06:23:04Z</time>
      </trkpt>
      <trkpt lat="38.3220080" lon="-0.6822000">
        <ele>211.6</ele>
        <time>2018-03-30T06:23:05Z</time>
      </trkpt>
      <trkpt lat="38.3220340" lon="-0.6822110">
        <ele>211.6</ele>
        <time>2018-03-30T06:23:06Z</time>
      </trkpt>
      <trkpt lat="38.3220620" lon="-0.6822230">
        <ele>211.5</ele>
        <time>2018-03-30T06:23:07Z</time>
      </trkpt>
      <trkpt lat="38.3220910" lon="-0.6822370">
        <ele>211.5</ele>
        <time>2018-03-30T06:23:08Z</time>
      </trkpt>
      <trkpt lat="38.3221210" lon="-0.6822490">
        <ele>211.5</ele>
        <time>2018-03-30T06:23:09Z</time>
      </trkpt>
      <trkpt lat="38.3221520" lon="-0.6822620">
        <ele>211.5</ele>
        <time>2018-03-30T06:23:10Z</time>
      </trkpt>
      <trkpt lat="38.3221830" lon="-0.6822790">
        <ele>211.4</ele>
        <time>2018-03-30T06:23:11Z</time>
      </trkpt>
      <trkpt lat="38.3222150" lon="-0.6822970">
        <ele>211.4</ele>
        <time>2018-03-30T06:23:12Z</time>
      </trkpt>
      <trkpt lat="38.3222490" lon="-0.6823160">
        <ele>211.3</ele>
        <time>2018-03-30T06:23:13Z</time>
      </trkpt>
      <trkpt lat="38.3222840" lon="-0.6823340">
        <ele>211.3</ele>
        <time>2018-03-30T06:23:14Z</time>
      </trkpt>
      <trkpt lat="38.3223200" lon="-0.6823540">
        <ele>211.2</ele>
        <time>2018-03-30T06:23:15Z</time>
      </trkpt>
      <trkpt lat="38.3223570" lon="-0.6823760">
        <ele>211.1</ele>
        <time>2018-03-30T06:23:16Z</time>
      </trkpt>
      <trkpt lat="38.3223950" lon="-0.6823990">
        <ele>211.1</ele>
        <time>2018-03-30T06:23:17Z</time>
      </trkpt>
      <trkpt lat="38.3224350" lon="-0.6824230">
        <ele>211.0</ele>
        <time>2018-03-30T06:23:18Z</time>
      </trkpt>
      <trkpt lat="38.3224760" lon="-0.6824490">
        <ele>211.1</ele>
        <time>2018-03-30T06:23:19Z</time>
      </trkpt>
      <trkpt lat="38.3225190" lon="-0.6824770">
        <ele>211.1</ele>
        <time>2018-03-30T06:23:20Z</time>
      </trkpt>
      <trkpt lat="38.3225640" lon="-0.6825060">
        <ele>211.2</ele>
        <time>2018-03-30T06:23:21Z</time>
      </trkpt>
      <trkpt lat="38.3226090" lon="-0.6825390">
        <ele>211.3</ele>
        <time>2018-03-30T06:23:22Z</time>
      </trkpt>
      <trkpt lat="38.3226540" lon="-0.6825750">
        <ele>211.4</ele>
        <time>2018-03-30T06:23:23Z</time>
      </trkpt>
      <trkpt lat="38.3226990" lon="-0.6826140">
        <ele>211.5</ele>
        <time>2018-03-30T06:23:24Z</time>
      </trkpt>
      <trkpt lat="38.3227470" lon="-0.6826530">
        <ele>211.6</ele>
        <time>2018-03-30T06:23:25Z</time>
      </trkpt>
      <trkpt lat="38.3227970" lon="-0.6826890">
        <ele>211.7</ele>
        <time>2018-03-30T06:23:26Z</time>
      </trkpt>
      <trkpt lat="38.3228490" lon="-0.6827240">
        <ele>211.8</ele>
        <time>2018-03-30T06:23:27Z</time>
      </trkpt>
      <trkpt lat="38.3228990" lon="-0.6827580">
        <ele>212.0</ele>
        <time>2018-03-30T06:23:28Z</time>
      </trkpt>
      <trkpt lat="38.3229470" lon="-0.6827940">
        <ele>212.2</ele>
        <time>2018-03-30T06:23:29Z</time>
      </trkpt>
      <trkpt lat="38.3229940" lon="-0.6828300">
        <ele>212.4</ele>
        <time>2018-03-30T06:23:30Z</time>
      </trkpt>
      <trkpt lat="38.3230410" lon="-0.6828640">
        <ele>212.7</ele>
        <time>2018-03-30T06:23:31Z</time>
      </trkpt>
      <trkpt lat="38.3230850" lon="-0.6828990">
        <ele>213.0</ele>
        <time>2018-03-30T06:23:32Z</time>
      </trkpt>
      <trkpt lat="38.3231290" lon="-0.6829320">
        <ele>213.3</ele>
        <time>2018-03-30T06:23:33Z</time>
      </trkpt>
      <trkpt lat="38.3231690" lon="-0.6829640">
        <ele>213.7</ele>
        <time>2018-03-30T06:23:34Z</time>
      </trkpt>
      <trkpt lat="38.3232100" lon="-0.6829950">
        <ele>214.0</ele>
        <time>2018-03-30T06:23:35Z</time>
      </trkpt>
      <trkpt lat="38.3232480" lon="-0.6830250">
        <ele>214.4</ele>
        <time>2018-03-30T06:23:36Z</time>
      </trkpt>
      <trkpt lat="38.3232850" lon="-0.6830530">
        <ele>214.8</ele>
        <time>2018-03-30T06:23:37Z</time>
      </trkpt>
      <trkpt lat="38.3233210" lon="-0.6830800">
        <ele>215.1</ele>
        <time>2018-03-30T06:23:38Z</time>
      </trkpt>
      <trkpt lat="38.3233560" lon="-0.6831070">
        <ele>215.5</ele>
        <time>2018-03-30T06:23:39Z</time>
      </trkpt>
      <trkpt lat="38.3233910" lon="-0.6831330">
        <ele>215.8</ele>
        <time>2018-03-30T06:23:40Z</time>
      </trkpt>
      <trkpt lat="38.3234250" lon="-0.6831590">
        <ele>216.2</ele>
        <time>2018-03-30T06:23:41Z</time>
      </trkpt>
      <trkpt lat="38.3234590" lon="-0.6831850">
        <ele>216.6</ele>
        <time>2018-03-30T06:23:42Z</time>
      </trkpt>
      <trkpt lat="38.3234920" lon="-0.6832100">
        <ele>216.9</ele>
        <time>2018-03-30T06:23:43Z</time>
      </trkpt>
      <trkpt lat="38.3235260" lon="-0.6832350">
        <ele>217.3</ele>
        <time>2018-03-30T06:23:44Z</time>
      </trkpt>
      <trkpt lat="38.3235580" lon="-0.6832610">
        <ele>217.7</ele>
        <time>2018-03-30T06:23:45Z</time>
      </trkpt>
      <trkpt lat="38.3235900" lon="-0.6832850">
        <ele>218.0</ele>
        <time>2018-03-30T06:23:46Z</time>
      </trkpt>
      <trkpt lat="38.3236220" lon="-0.6833090">
        <ele>218.3</ele>
        <time>2018-03-30T06:23:47Z</time>
      </trkpt>
      <trkpt lat="38.3236550" lon="-0.6833330">
        <ele>218.7</ele>
        <time>2018-03-30T06:23:48Z</time>
      </trkpt>
      <trkpt lat="38.3236860" lon="-0.6833570">
        <ele>219.0</ele>
        <time>2018-03-30T06:23:49Z</time>
      </trkpt>
      <trkpt lat="38.3237180" lon="-0.6833830">
        <ele>219.3</ele>
        <time>2018-03-30T06:23:50Z</time>
      </trkpt>
      <trkpt lat="38.3237490" lon="-0.6834080">
        <ele>219.6</ele>
        <time>2018-03-30T06:23:51Z</time>
      </trkpt>
      <trkpt lat="38.3237810" lon="-0.6834320">
        <ele>219.9</ele>
        <time>2018-03-30T06:23:52Z</time>
      </trkpt>
      <trkpt lat="38.3238130" lon="-0.6834550">
        <ele>220.1</ele>
        <time>2018-03-30T06:23:53Z</time>
      </trkpt>
      <trkpt lat="38.3238440" lon="-0.6834770">
        <ele>220.4</ele>
        <time>2018-03-30T06:23:54Z</time>
      </trkpt>
      <trkpt lat="38.3238740" lon="-0.6834990">
        <ele>220.7</ele>
        <time>2018-03-30T06:23:55Z</time>
      </trkpt>
      <trkpt lat="38.3239040" lon="-0.6835210">
        <ele>220.9</ele>
        <time>2018-03-30T06:23:56Z</time>
      </trkpt>
      <trkpt lat="38.3239340" lon="-0.6835450">
        <ele>221.2</ele>
        <time>2018-03-30T06:23:57Z</time>
      </trkpt>
      <trkpt lat="38.3239650" lon="-0.6835680">
        <ele>221.4</ele>
        <time>2018-03-30T06:23:58Z</time>
      </trkpt>
      <trkpt lat="38.3239960" lon="-0.6835920">
        <ele>221.7</ele>
        <time>2018-03-30T06:23:59Z</time>
      </trkpt>
      <trkpt lat="38.3240270" lon="-0.6836160">
        <ele>221.9</ele>
        <time>2018-03-30T06:24:00Z</time>
      </trkpt>
      <trkpt lat="38.3240600" lon="-0.6836400">
        <ele>222.1</ele>
        <time>2018-03-30T06:24:01Z</time>
      </trkpt>
      <trkpt lat="38.3240910" lon="-0.6836650">
        <ele>222.4</ele>
        <time>2018-03-30T06:24:02Z</time>
      </trkpt>
      <trkpt lat="38.3241230" lon="-0.6836890">
        <ele>222.6</ele>
        <time>2018-03-30T06:24:03Z</time>
      </trkpt>
      <trkpt lat="38.3241550" lon="-0.6837150">
        <ele>222.9</ele>
        <time>2018-03-30T06:24:04Z</time>
      </trkpt>
      <trkpt lat="38.3241870" lon="-0.6837390">
        <ele>223.1</ele>
        <time>2018-03-30T06:24:05Z</time>
      </trkpt>
      <trkpt lat="38.3242190" lon="-0.6837650">
        <ele>223.4</ele>
        <time>2018-03-30T06:24:06Z</time>
      </trkpt>
      <trkpt lat="38.3242510" lon="-0.6837900">
        <ele>223.6</ele>
        <time>2018-03-30T06:24:07Z</time>
      </trkpt>
      <trkpt lat="38.3242830" lon="-0.6838160">
        <ele>223.8</ele>
        <time>2018-03-30T06:24:08Z</time>
      </trkpt>
      <trkpt lat="38.3243150" lon="-0.6838420">
        <ele>224.1</ele>
        <time>2018-03-30T06:24:09Z</time>
      </trkpt>
      <trkpt lat="38.3243470" lon="-0.6838690">
        <ele>224.3</ele>
        <time>2018-03-30T06:24:10Z</time>
      </trkpt>
      <trkpt lat="38.3243790" lon="-0.6838950">
        <ele>224.5</ele>
        <time>2018-03-30T06:24:11Z</time>
      </trkpt>
      <trkpt lat="38.3244110" lon="-0.6839220">
        <ele>224.8</ele>
        <time>2018-03-30T06:24:12Z</time>
      </trkpt>
      <trkpt lat="38.3244440" lon="-0.6839480">
        <ele>225.0</ele>
        <time>2018-03-30T06:24:13Z</time>
      </trkpt>
      <trkpt lat="38.3244760" lon="-0.6839740">
        <ele>225.2</ele>
        <time>2018-03-30T06:24:14Z</time>
      </trkpt>
      <trkpt lat="38.3245090" lon="-0.6840020">
        <ele>225.4</ele>
        <time>2018-03-30T06:24:15Z</time>
      </trkpt>
      <trkpt lat="38.3245410" lon="-0.6840290">
        <ele>225.7</ele>
        <time>2018-03-30T06:24:16Z</time>
      </trkpt>
      <trkpt lat="38.3245730" lon="-0.6840560">
        <ele>225.9</ele>
        <time>2018-03-30T06:24:17Z</time>
      </trkpt>
      <trkpt lat="38.3246050" lon="-0.6840820">
        <ele>226.1</ele>
        <time>2018-03-30T06:24:18Z</time>
      </trkpt>
      <trkpt lat="38.3246370" lon="-0.6841080">
        <ele>226.3</ele>
        <time>2018-03-30T06:24:19Z</time>
      </trkpt>
      <trkpt lat="38.3246690" lon="-0.6841320">
        <ele>226.5</ele>
        <time>2018-03-30T06:24:20Z</time>
      </trkpt>
      <trkpt lat="38.3247000" lon="-0.6841570">
        <ele>226.7</ele>
        <time>2018-03-30T06:24:21Z</time>
      </trkpt>
      <trkpt lat="38.3247310" lon="-0.6841800">
        <ele>226.9</ele>
        <time>2018-03-30T06:24:22Z</time>
      </trkpt>
      <trkpt lat="38.3247620" lon="-0.6842040">
        <ele>227.1</ele>
        <time>2018-03-30T06:24:23Z</time>
      </trkpt>
      <trkpt lat="38.3247930" lon="-0.6842270">
        <ele>227.3</ele>
        <time>2018-03-30T06:24:24Z</time>
      </trkpt>
      <trkpt lat="38.3248240" lon="-0.6842510">
        <ele>227.4</ele>
        <time>2018-03-30T06:24:25Z</time>
      </trkpt>
      <trkpt lat="38.3248550" lon="-0.6842760">
        <ele>227.6</ele>
        <time>2018-03-30T06:24:26Z</time>
      </trkpt>
      <trkpt lat="38.3248870" lon="-0.6843010">
        <ele>227.8</ele>
        <time>2018-03-30T06:24:27Z</time>
      </trkpt>
      <trkpt lat="38.3249200" lon="-0.6843260">
        <ele>228.0</ele>
        <time>2018-03-30T06:24:28Z</time>
      </trkpt>
      <trkpt lat="38.3249520" lon="-0.6843490">
        <ele>228.2</ele>
        <time>2018-03-30T06:24:29Z</time>
      </trkpt>
      <trkpt lat="38.3249840" lon="-0.6843740">
        <ele>228.4</ele>
        <time>2018-03-30T06:24:30Z</time>
      </trkpt>
      <trkpt lat="38.3250160" lon="-0.6843990">
        <ele>228.6</ele>
        <time>2018-03-30T06:24:31Z</time>
      </trkpt>
      <trkpt lat="38.3250470" lon="-0.6844240">
        <ele>228.8</ele>
        <time>2018-03-30T06:24:32Z</time>
      </trkpt>
      <trkpt lat="38.3250790" lon="-0.6844480">
        <ele>229.0</ele>
        <time>2018-03-30T06:24:33Z</time>
      </trkpt>
      <trkpt lat="38.3251110" lon="-0.6844720">
        <ele>229.2</ele>
        <time>2018-03-30T06:24:34Z</time>
      </trkpt>
      <trkpt lat="38.3251420" lon="-0.6844980">
        <ele>229.4</ele>
        <time>2018-03-30T06:24:35Z</time>
      </trkpt>
      <trkpt lat="38.3251740" lon="-0.6845230">
        <ele>229.6</ele>
        <time>2018-03-30T06:24:36Z</time>
      </trkpt>
      <trkpt lat="38.3252060" lon="-0.6845480">
        <ele>229.8</ele>
        <time>2018-03-30T06:24:37Z</time>
      </trkpt>
      <trkpt lat="38.3252390" lon="-0.6845730">
        <ele>230.0</ele>
        <time>2018-03-30T06:24:38Z</time>
      </trkpt>
      <trkpt lat="38.3252720" lon="-0.6845980">
        <ele>230.2</ele>
        <time>2018-03-30T06:24:39Z</time>
      </trkpt>
      <trkpt lat="38.3253060" lon="-0.6846230">
        <ele>230.5</ele>
        <time>2018-03-30T06:24:40Z</time>
      </trkpt>
      <trkpt lat="38.3253400" lon="-0.6846490">
        <ele>230.7</ele>
        <time>2018-03-30T06:24:41Z</time>
      </trkpt>
      <trkpt lat="38.3253740" lon="-0.6846750">
        <ele>230.9</ele>
        <time>2018-03-30T06:24:42Z</time>
      </trkpt>
      <trkpt lat="38.3254080" lon="-0.6847020">
        <ele>231.1</ele>
        <time>2018-03-30T06:24:43Z</time>
      </trkpt>
      <trkpt lat="38.3254420" lon="-0.6847290">
        <ele>231.4</ele>
        <time>2018-03-30T06:24:44Z</time>
      </trkpt>
      <trkpt lat="38.3254770" lon="-0.6847560">
        <ele>231.6</ele>
        <time>2018-03-30T06:24:45Z</time>
      </trkpt>
      <trkpt lat="38.3255110" lon="-0.6847820">
        <ele>231.9</ele>
        <time>2018-03-30T06:24:46Z</time>
      </trkpt>
      <trkpt lat="38.3255450" lon="-0.6848080">
        <ele>232.1</ele>
        <time>2018-03-30T06:24:47Z</time>
      </trkpt>
      <trkpt lat="38.3255790" lon="-0.6848340">
        <ele>232.4</ele>
        <time>2018-03-30T06:24:48Z</time>
      </trkpt>
      <trkpt lat="38.3256120" lon="-0.6848600">
        <ele>232.7</ele>
        <time>2018-03-30T06:24:49Z</time>
      </trkpt>
      <trkpt lat="38.3256430" lon="-0.6848870">
        <ele>233.0</ele>
        <time>2018-03-30T06:24:50Z</time>
      </trkpt>
      <trkpt lat="38.3256740" lon="-0.6849140">
        <ele>233.2</ele>
        <time>2018-03-30T06:24:51Z</time>
      </trkpt>
      <trkpt lat="38.3257060" lon="-0.6849410">
        <ele>233.5</ele>
        <time>2018-03-30T06:24:52Z</time>
      </trkpt>
      <trkpt lat="38.3257390" lon="-0.6849670">
        <ele>233.9</ele>
        <time>2018-03-30T06:24:53Z</time>
      </trkpt>
      <trkpt lat="38.3257710" lon="-0.6849910">
        <ele>234.2</ele>
        <time>2018-03-30T06:24:54Z</time>
      </trkpt>
      <trkpt lat="38.3258030" lon="-0.6850140">
        <ele>234.5</ele>
        <time>2018-03-30T06:24:55Z</time>
      </trkpt>
      <trkpt lat="38.3258350" lon="-0.6850340">
        <ele>234.8</ele>
        <time>2018-03-30T06:24:56Z</time>
      </trkpt>
      <trkpt lat="38.3258660" lon="-0.6850590">
        <ele>235.2</ele>
        <time>2018-03-30T06:24:57Z</time>
      </trkpt>
      <trkpt lat="38.3258970" lon="-0.6850840">
        <ele>235.5</ele>
        <time>2018-03-30T06:24:58Z</time>
      </trkpt>
      <trkpt lat="38.3259270" lon="-0.6851060">
        <ele>235.9</ele>
        <time>2018-03-30T06:24:59Z</time>
      </trkpt>
      <trkpt lat="38.3259580" lon="-0.6851280">
        <ele>236.2</ele>
        <time>2018-03-30T06:25:00Z</time>
      </trkpt>
      <trkpt lat="38.3259860" lon="-0.6851470">
        <ele>236.5</ele>
        <time>2018-03-30T06:25:01Z</time>
      </trkpt>
      <trkpt lat="38.3260140" lon="-0.6851670">
        <ele>236.8</ele>
        <time>2018-03-30T06:25:02Z</time>
      </trkpt>
      <trkpt lat="38.3260410" lon="-0.6851870">
        <ele>237.1</ele>
        <time>2018-03-30T06:25:03Z</time>
      </trkpt>
      <trkpt lat="38.3260660" lon="-0.6852080">
        <ele>237.4</ele>
        <time>2018-03-30T06:25:04Z</time>
      </trkpt>
      <trkpt lat="38.3260940" lon="-0.6852290">
        <ele>237.7</ele>
        <time>2018-03-30T06:25:05Z</time>
      </trkpt>
      <trkpt lat="38.3261210" lon="-0.6852500">
        <ele>238.0</ele>
        <time>2018-03-30T06:25:06Z</time>
      </trkpt>
      <trkpt lat="38.3261470" lon="-0.6852700">
        <ele>238.3</ele>
        <time>2018-03-30T06:25:07Z</time>
      </trkpt>
      <trkpt lat="38.3261720" lon="-0.6852900">
        <ele>238.5</ele>
        <time>2018-03-30T06:25:08Z</time>
      </trkpt>
      <trkpt lat="38.3261980" lon="-0.6853100">
        <ele>238.8</ele>
        <time>2018-03-30T06:25:09Z</time>
      </trkpt>
      <trkpt lat="38.3262240" lon="-0.6853310">
        <ele>239.0</ele>
        <time>2018-03-30T06:25:10Z</time>
      </trkpt>
      <trkpt lat="38.3262510" lon="-0.6853510">
        <ele>239.2</ele>
        <time>2018-03-30T06:25:11Z</time>
      </trkpt>
      <trkpt lat="38.3262780" lon="-0.6853710">
        <ele>239.5</ele>
        <time>2018-03-30T06:25:12Z</time>
      </trkpt>
      <trkpt lat="38.3263050" lon="-0.6853900">
        <ele>239.7</ele>
        <time>2018-03-30T06:25:13Z</time>
      </trkpt>
      <trkpt lat="38.3263310" lon="-0.6854110">
        <ele>239.9</ele>
        <time>2018-03-30T06:25:14Z</time>
      </trkpt>
      <trkpt lat="38.3263570" lon="-0.6854320">
        <ele>240.1</ele>
        <time>2018-03-30T06:25:15Z</time>
      </trkpt>
      <trkpt lat="38.3263830" lon="-0.6854510">
        <ele>240.3</ele>
        <time>2018-03-30T06:25:16Z</time>
      </trkpt>
      <trkpt lat="38.3264090" lon="-0.6854710">
        <ele>240.5</ele>
        <time>2018-03-30T06:25:17Z</time>
      </trkpt>
      <trkpt lat="38.3264350" lon="-0.6854900">
        <ele>240.7</ele>
        <time>2018-03-30T06:25:18Z</time>
      </trkpt>
      <trkpt lat="38.3264620" lon="-0.6855110">
        <ele>240.9</ele>
        <time>2018-03-30T06:25:19Z</time>
      </trkpt>
      <trkpt lat="38.3264890" lon="-0.6855310">
        <ele>241.1</ele>
        <time>2018-03-30T06:25:20Z</time>
      </trkpt>
      <trkpt lat="38.3265150" lon="-0.6855520">
        <ele>241.3</ele>
        <time>2018-03-30T06:25:21Z</time>
      </trkpt>
      <trkpt lat="38.3265410" lon="-0.6855730">
        <ele>241.4</ele>
        <time>2018-03-30T06:25:22Z</time>
      </trkpt>
      <trkpt lat="38.3265660" lon="-0.6855930">
        <ele>241.6</ele>
        <time>2018-03-30T06:25:23Z</time>
      </trkpt>
      <trkpt lat="38.3265920" lon="-0.6856150">
        <ele>241.8</ele>
        <time>2018-03-30T06:25:24Z</time>
      </trkpt>
      <trkpt lat="38.3266170" lon="-0.6856370">
        <ele>241.9</ele>
        <time>2018-03-30T06:25:25Z</time>
      </trkpt>
      <trkpt lat="38.3266440" lon="-0.6856580">
        <ele>242.1</ele>
        <time>2018-03-30T06:25:26Z</time>
      </trkpt>
      <trkpt lat="38.3266710" lon="-0.6856780">
        <ele>242.3</ele>
        <time>2018-03-30T06:25:27Z</time>
      </trkpt>
      <trkpt lat="38.3266980" lon="-0.6856990">
        <ele>242.5</ele>
        <time>2018-03-30T06:25:28Z</time>
      </trkpt>
      <trkpt lat="38.3267260" lon="-0.6857190">
        <ele>242.6</ele>
        <time>2018-03-30T06:25:29Z</time>
      </trkpt>
      <trkpt lat="38.3267540" lon="-0.6857400">
        <ele>242.8</ele>
        <time>2018-03-30T06:25:30Z</time>
      </trkpt>
      <trkpt lat="38.3267810" lon="-0.6857610">
        <ele>243.0</ele>
        <time>2018-03-30T06:25:31Z</time>
      </trkpt>
      <trkpt lat="38.3268080" lon="-0.6857820">
        <ele>243.1</ele>
        <time>2018-03-30T06:25:32Z</time>
      </trkpt>
      <trkpt lat="38.3268360" lon="-0.6858020">
        <ele>243.3</ele>
        <time>2018-03-30T06:25:33Z</time>
      </trkpt>
      <trkpt lat="38.3268630" lon="-0.6858220">
        <ele>243.4</ele>
        <time>2018-03-30T06:25:34Z</time>
      </trkpt>
      <trkpt lat="38.3268910" lon="-0.6858440">
        <ele>243.6</ele>
        <time>2018-03-30T06:25:35Z</time>
      </trkpt>
      <trkpt lat="38.3269190" lon="-0.6858650">
        <ele>243.7</ele>
        <time>2018-03-30T06:25:36Z</time>
      </trkpt>
      <trkpt lat="38.3269470" lon="-0.6858840">
        <ele>243.9</ele>
        <time>2018-03-30T06:25:37Z</time>
      </trkpt>
      <trkpt lat="38.3269750" lon="-0.6859030">
        <ele>244.0</ele>
        <time>2018-03-30T06:25:38Z</time>
      </trkpt>
      <trkpt lat="38.3270020" lon="-0.6859230">
        <ele>244.2</ele>
        <time>2018-03-30T06:25:39Z</time>
      </trkpt>
      <trkpt lat="38.3270290" lon="-0.6859420">
        <ele>244.3</ele>
        <time>2018-03-30T06:25:40Z</time>
      </trkpt>
      <trkpt lat="38.3270580" lon="-0.6859620">
        <ele>244.5</ele>
        <time>2018-03-30T06:25:41Z</time>
      </trkpt>
      <trkpt lat="38.3270840" lon="-0.6859830">
        <ele>244.6</ele>
        <time>2018-03-30T06:25:42Z</time>
      </trkpt>
      <trkpt lat="38.3271110" lon="-0.6860010">
        <ele>244.8</ele>
        <time>2018-03-30T06:25:43Z</time>
      </trkpt>
      <trkpt lat="38.3271380" lon="-0.6860200">
        <ele>244.9</ele>
        <time>2018-03-30T06:25:44Z</time>
      </trkpt>
      <trkpt lat="38.3271650" lon="-0.6860390">
        <ele>245.1</ele>
        <time>2018-03-30T06:25:45Z</time>
      </trkpt>
      <trkpt lat="38.3271920" lon="-0.6860580">
        <ele>245.3</ele>
        <time>2018-03-30T06:25:46Z</time>
      </trkpt>
      <trkpt lat="38.3272190" lon="-0.6860780">
        <ele>245.5</ele>
        <time>2018-03-30T06:25:47Z</time>
      </trkpt>
      <trkpt lat="38.3272440" lon="-0.6860990">
        <ele>245.6</ele>
        <time>2018-03-30T06:25:48Z</time>
      </trkpt>
      <trkpt lat="38.3272710" lon="-0.6861190">
        <ele>245.9</ele>
        <time>2018-03-30T06:25:49Z</time>
      </trkpt>
      <trkpt lat="38.3272970" lon="-0.6861380">
        <ele>246.1</ele>
        <time>2018-03-30T06:25:50Z</time>
      </trkpt>
      <trkpt lat="38.3273240" lon="-0.6861580">
        <ele>246.3</ele>
        <time>2018-03-30T06:25:51Z</time>
      </trkpt>
      <trkpt lat="38.3273520" lon="-0.6861780">
        <ele>246.5</ele>
        <time>2018-03-30T06:25:52Z</time>
      </trkpt>
      <trkpt lat="38.3273800" lon="-0.6861990">
        <ele>246.8</ele>
        <time>2018-03-30T06:25:53Z</time>
      </trkpt>
      <trkpt lat="38.3274070" lon="-0.6862200">
        <ele>247.0</ele>
        <time>2018-03-30T06:25:54Z</time>
      </trkpt>
      <trkpt lat="38.3274360" lon="-0.6862410">
        <ele>247.3</ele>
        <time>2018-03-30T06:25:55Z</time>
      </trkpt>
      <trkpt lat="38.3274650" lon="-0.6862630">
        <ele>247.5</ele>
        <time>2018-03-30T06:25:56Z</time>
      </trkpt>
      <trkpt lat="38.3274940" lon="-0.6862860">
        <ele>247.8</ele>
        <time>2018-03-30T06:25:57Z</time>
      </trkpt>
      <trkpt lat="38.3275230" lon="-0.6863100">
        <ele>248.1</ele>
        <time>2018-03-30T06:25:58Z</time>
      </trkpt>
      <trkpt lat="38.3275520" lon="-0.6863320">
        <ele>248.3</ele>
        <time>2018-03-30T06:25:59Z</time>
      </trkpt>
      <trkpt lat="38.3275820" lon="-0.6863540">
        <ele>248.6</ele>
        <time>2018-03-30T06:26:00Z</time>
      </trkpt>
      <trkpt lat="38.3276110" lon="-0.6863760">
        <ele>248.9</ele>
        <time>2018-03-30T06:26:01Z</time>
      </trkpt>
      <trkpt lat="38.3276410" lon="-0.6863990">
        <ele>249.1</ele>
        <time>2018-03-30T06:26:02Z</time>
      </trkpt>
      <trkpt lat="38.3276710" lon="-0.6864230">
        <ele>249.4</ele>
        <time>2018-03-30T06:26:03Z</time>
      </trkpt>
      <trkpt lat="38.3277010" lon="-0.6864470">
        <ele>249.6</ele>
        <time>2018-03-30T06:26:04Z</time>
      </trkpt>
      <trkpt lat="38.3277310" lon="-0.6864710">
        <ele>249.9</ele>
        <time>2018-03-30T06:26:05Z</time>
      </trkpt>
      <trkpt lat="38.3277610" lon="-0.6864920">
        <ele>250.1</ele>
        <time>2018-03-30T06:26:06Z</time>
      </trkpt>
      <trkpt lat="38.3277920" lon="-0.6865140">
        <ele>250.4</ele>
        <time>2018-03-30T06:26:07Z</time>
      </trkpt>
      <trkpt lat="38.3278230" lon="-0.6865370">
        <ele>250.6</ele>
        <time>2018-03-30T06:26:08Z</time>
      </trkpt>
      <trkpt lat="38.3278530" lon="-0.6865590">
        <ele>250.8</ele>
        <time>2018-03-30T06:26:09Z</time>
      </trkpt>
      <trkpt lat="38.3278840" lon="-0.6865820">
        <ele>251.1</ele>
        <time>2018-03-30T06:26:10Z</time>
      </trkpt>
      <trkpt lat="38.3279130" lon="-0.6866040">
        <ele>251.3</ele>
        <time>2018-03-30T06:26:11Z</time>
      </trkpt>
      <trkpt lat="38.3279430" lon="-0.6866270">
        <ele>251.5</ele>
        <time>2018-03-30T06:26:12Z</time>
      </trkpt>
      <trkpt lat="38.3279720" lon="-0.6866500">
        <ele>251.7</ele>
        <time>2018-03-30T06:26:13Z</time>
      </trkpt>
      <trkpt lat="38.3280010" lon="-0.6866720">
        <ele>251.9</ele>
        <time>2018-03-30T06:26:14Z</time>
      </trkpt>
      <trkpt lat="38.3280290" lon="-0.6866930">
        <ele>252.1</ele>
        <time>2018-03-30T06:26:15Z</time>
      </trkpt>
      <trkpt lat="38.3280570" lon="-0.6867140">
        <ele>252.3</ele>
        <time>2018-03-30T06:26:16Z</time>
      </trkpt>
      <trkpt lat="38.3280840" lon="-0.6867330">
        <ele>252.5</ele>
        <time>2018-03-30T06:26:17Z</time>
      </trkpt>
      <trkpt lat="38.3281120" lon="-0.6867530">
        <ele>252.6</ele>
        <time>2018-03-30T06:26:18Z</time>
      </trkpt>
      <trkpt lat="38.3281400" lon="-0.6867740">
        <ele>252.8</ele>
        <time>2018-03-30T06:26:19Z</time>
      </trkpt>
      <trkpt lat="38.3281670" lon="-0.6867950">
        <ele>252.9</ele>
        <time>2018-03-30T06:26:20Z</time>
      </trkpt>
      <trkpt lat="38.3281950" lon="-0.6868160">
        <ele>253.0</ele>
        <time>2018-03-30T06:26:21Z</time>
      </trkpt>
      <trkpt lat="38.3282230" lon="-0.6868370">
        <ele>253.2</ele>
        <time>2018-03-30T06:26:22Z</time>
      </trkpt>
      <trkpt lat="38.3282520" lon="-0.6868580">
        <ele>253.3</ele>
        <time>2018-03-30T06:26:23Z</time>
      </trkpt>
      <trkpt lat="38.3282800" lon="-0.6868810">
        <ele>253.4</ele>
        <time>2018-03-30T06:26:24Z</time>
      </trkpt>
      <trkpt lat="38.3283090" lon="-0.6869050">
        <ele>253.6</ele>
        <time>2018-03-30T06:26:25Z</time>
      </trkpt>
      <trkpt lat="38.3283380" lon="-0.6869280">
        <ele>253.7</ele>
        <time>2018-03-30T06:26:26Z</time>
      </trkpt>
      <trkpt lat="38.3283680" lon="-0.6869530">
        <ele>253.8</ele>
        <time>2018-03-30T06:26:27Z</time>
      </trkpt>
      <trkpt lat="38.3284000" lon="-0.6869770">
        <ele>254.0</ele>
        <time>2018-03-30T06:26:28Z</time>
      </trkpt>
      <trkpt lat="38.3284310" lon="-0.6870020">
        <ele>254.1</ele>
        <time>2018-03-30T06:26:29Z</time>
      </trkpt>
      <trkpt lat="38.3284620" lon="-0.6870280">
        <ele>254.3</ele>
        <time>2018-03-30T06:26:30Z</time>
      </trkpt>
      <trkpt lat="38.3284940" lon="-0.6870550">
        <ele>254.5</ele>
        <time>2018-03-30T06:26:31Z</time>
      </trkpt>
      <trkpt lat="38.3285270" lon="-0.6870810">
        <ele>254.7</ele>
        <time>2018-03-30T06:26:32Z</time>
      </trkpt>
      <trkpt lat="38.3285640" lon="-0.6871080">
        <ele>254.9</ele>
        <time>2018-03-30T06:26:33Z</time>
      </trkpt>
      <trkpt lat="38.3286000" lon="-0.6871360">
        <ele>255.1</ele>
        <time>2018-03-30T06:26:34Z</time>
      </trkpt>
      <trkpt lat="38.3286360" lon="-0.6871640">
        <ele>255.3</ele>
        <time>2018-03-30T06:26:35Z</time>
      </trkpt>
      <trkpt lat="38.3286740" lon="-0.6871930">
        <ele>255.6</ele>
        <time>2018-03-30T06:26:36Z</time>
      </trkpt>
      <trkpt lat="38.3287110" lon="-0.6872210">
        <ele>255.9</ele>
        <time>2018-03-30T06:26:37Z</time>
      </trkpt>
      <trkpt lat="38.3287490" lon="-0.6872510">
        <ele>256.1</ele>
        <time>2018-03-30T06:26:38Z</time>
      </trkpt>
      <trkpt lat="38.3287870" lon="-0.6872790">
        <ele>256.4</ele>
        <time>2018-03-30T06:26:39Z</time>
      </trkpt>
      <trkpt lat="38.3288250" lon="-0.6873080">
        <ele>256.7</ele>
        <time>2018-03-30T06:26:40Z</time>
      </trkpt>
      <trkpt lat="38.3288620" lon="-0.6873370">
        <ele>256.9</ele>
        <time>2018-03-30T06:26:41Z</time>
      </trkpt>
      <trkpt lat="38.3288990" lon="-0.6873640">
        <ele>257.2</ele>
        <time>2018-03-30T06:26:42Z</time>
      </trkpt>
      <trkpt lat="38.3289350" lon="-0.6873900">
        <ele>257.5</ele>
        <time>2018-03-30T06:26:43Z</time>
      </trkpt>
      <trkpt lat="38.3289710" lon="-0.6874160">
        <ele>257.7</ele>
        <time>2018-03-30T06:26:44Z</time>
      </trkpt>
      <trkpt lat="38.3290060" lon="-0.6874410">
        <ele>258.0</ele>
        <time>2018-03-30T06:26:45Z</time>
      </trkpt>
      <trkpt lat="38.3290400" lon="-0.6874650">
        <ele>258.2</ele>
        <time>2018-03-30T06:26:46Z</time>
      </trkpt>
      <trkpt lat="38.3290730" lon="-0.6874880">
        <ele>258.5</ele>
        <time>2018-03-30T06:26:47Z</time>
      </trkpt>
      <trkpt lat="38.3291040" lon="-0.6875100">
        <ele>258.7</ele>
        <time>2018-03-30T06:26:48Z</time>
      </trkpt>
      <trkpt lat="38.3291350" lon="-0.6875320">
        <ele>258.9</ele>
        <time>2018-03-30T06:26:49Z</time>
      </trkpt>
      <trkpt lat="38.3291640" lon="-0.6875550">
        <ele>259.1</ele>
        <time>2018-03-30T06:26:50Z</time>
      </trkpt>
      <trkpt lat="38.3291930" lon="-0.6875790">
        <ele>259.3</ele>
        <time>2018-03-30T06:26:51Z</time>
      </trkpt>
      <trkpt lat="38.3292230" lon="-0.6876010">
        <ele>259.5</ele>
        <time>2018-03-30T06:26:52Z</time>
      </trkpt>
      <trkpt lat="38.3292510" lon="-0.6876230">
        <ele>259.6</ele>
        <time>2018-03-30T06:26:53Z</time>
      </trkpt>
      <trkpt lat="38.3292790" lon="-0.6876430">
        <ele>259.8</ele>
        <time>2018-03-30T06:26:54Z</time>
      </trkpt>
      <trkpt lat="38.3293070" lon="-0.6876640">
        <ele>259.9</ele>
        <time>2018-03-30T06:26:55Z</time>
      </trkpt>
      <trkpt lat="38.3293340" lon="-0.6876860">
        <ele>260.1</ele>
        <time>2018-03-30T06:26:56Z</time>
      </trkpt>
      <trkpt lat="38.3293620" lon="-0.6877080">
        <ele>260.3</ele>
        <time>2018-03-30T06:26:57Z</time>
      </trkpt>
      <trkpt lat="38.3293900" lon="-0.6877290">
        <ele>260.4</ele>
        <time>2018-03-30T06:26:58Z</time>
      </trkpt>
      <trkpt lat="38.3294180" lon="-0.6877530">
        <ele>260.6</ele>
        <time>2018-03-30T06:26:59Z</time>
      </trkpt>
      <trkpt lat="38.3294460" lon="-0.6877760">
        <ele>260.8</ele>
        <time>2018-03-30T06:27:00Z</time>
      </trkpt>
      <trkpt lat="38.3294740" lon="-0.6877990">
        <ele>261.0</ele>
        <time>2018-03-30T06:27:01Z</time>
      </trkpt>
      <trkpt lat="38.3295030" lon="-0.6878200">
        <ele>261.2</ele>
        <time>2018-03-30T06:27:02Z</time>
      </trkpt>
      <trkpt lat="38.3295320" lon="-0.6878430">
        <ele>261.4</ele>
        <time>2018-03-30T06:27:03Z</time>
      </trkpt>
      <trkpt lat="38.3295600" lon="-0.6878660">
        <ele>261.6</ele>
        <time>2018-03-30T06:27:04Z</time>
      </trkpt>
      <trkpt lat="38.3295900" lon="-0.6878890">
        <ele>261.8</ele>
        <time>2018-03-30T06:27:05Z</time>
      </trkpt>
      <trkpt lat="38.3296210" lon="-0.6879130">
        <ele>262.0</ele>
        <time>2018-03-30T06:27:06Z</time>
      </trkpt>
      <trkpt lat="38.3296540" lon="-0.6879380">
        <ele>262.2</ele>
        <time>2018-03-30T06:27:07Z</time>
      </trkpt>
      <trkpt lat="38.3296860" lon="-0.6879640">
        <ele>262.4</ele>
        <time>2018-03-30T06:27:08Z</time>
      </trkpt>
      <trkpt lat="38.3297170" lon="-0.6879910">
        <ele>262.6</ele>
        <time>2018-03-30T06:27:09Z</time>
      </trkpt>
      <trkpt lat="38.3297480" lon="-0.6880190">
        <ele>262.8</ele>
        <time>2018-03-30T06:27:10Z</time>
      </trkpt>
      <trkpt lat="38.3297790" lon="-0.6880490">
        <ele>262.9</ele>
        <time>2018-03-30T06:27:11Z</time>
      </trkpt>
      <trkpt lat="38.3298120" lon="-0.6880810">
        <ele>263.1</ele>
        <time>2018-03-30T06:27:12Z</time>
      </trkpt>
      <trkpt lat="38.3298450" lon="-0.6881140">
        <ele>263.2</ele>
        <time>2018-03-30T06:27:13Z</time>
      </trkpt>
      <trkpt lat="38.3298780" lon="-0.6881500">
        <ele>263.4</ele>
        <time>2018-03-30T06:27:14Z</time>
      </trkpt>
      <trkpt lat="38.3299100" lon="-0.6881870">
        <ele>263.5</ele>
        <time>2018-03-30T06:27:15Z</time>
      </trkpt>
      <trkpt lat="38.3299420" lon="-0.6882260">
        <ele>263.7</ele>
        <time>2018-03-30T06:27:16Z</time>
      </trkpt>
      <trkpt lat="38.3299750" lon="-0.6882660">
        <ele>263.9</ele>
        <time>2018-03-30T06:27:17Z</time>
      </trkpt>
      <trkpt lat="38.3300060" lon="-0.6883040">
        <ele>264.0</ele>
        <time>2018-03-30T06:27:18Z</time>
      </trkpt>
      <trkpt lat="38.3300370" lon="-0.6883420">
        <ele>264.2</ele>
        <time>2018-03-30T06:27:19Z</time>
      </trkpt>
      <trkpt lat="38.3300670" lon="-0.6883810">
        <ele>264.5</ele>
        <time>2018-03-30T06:27:20Z</time>
      </trkpt>
      <trkpt lat="38.3300940" lon="-0.6884210">
        <ele>264.7</ele>
        <time>2018-03-30T06:27:21Z</time>
      </trkpt>
      <trkpt lat="38.3301210" lon="-0.6884610">
        <ele>264.9</ele>
        <time>2018-03-30T06:27:22Z</time>
      </trkpt>
      <trkpt lat="38.3301480" lon="-0.6884990">
        <ele>265.1</ele>
        <time>2018-03-30T06:27:23Z</time>
      </trkpt>
      <trkpt lat="38.3301750" lon="-0.6885370">
        <ele>265.3</ele>
        <time>2018-03-30T06:27:24Z</time>
      </trkpt>
      <trkpt lat="38.3302010" lon="-0.6885740">
        <ele>265.5</ele>
        <time>2018-03-30T06:27:25Z</time>
      </trkpt>
      <trkpt lat="38.3302280" lon="-0.6886120">
        <ele>265.7</ele>
        <time>2018-03-30T06:27:26Z</time>
      </trkpt>
      <trkpt lat="38.3302540" lon="-0.6886500">
        <ele>265.9</ele>
        <time>2018-03-30T06:27:27Z</time>
      </trkpt>
      <trkpt lat="38.3302780" lon="-0.6886880">
        <ele>266.0</ele>
        <time>2018-03-30T06:27:28Z</time>
      </trkpt>
      <trkpt lat="38.3303050" lon="-0.6887280">
        <ele>266.2</ele>
        <time>2018-03-30T06:27:29Z</time>
      </trkpt>
      <trkpt lat="38.3303300" lon="-0.6887670">
        <ele>266.3</ele>
        <time>2018-03-30T06:27:30Z</time>
      </trkpt>
      <trkpt lat="38.3303540" lon="-0.6888050">
        <ele>266.4</ele>
        <time>2018-03-30T06:27:31Z</time>
      </trkpt>
      <trkpt lat="38.3303800" lon="-0.6888460">
        <ele>266.6</ele>
        <time>2018-03-30T06:27:32Z</time>
      </trkpt>
      <trkpt lat="38.3304020" lon="-0.6888870">
        <ele>266.7</ele>
        <time>2018-03-30T06:27:33Z</time>
      </trkpt>
      <trkpt lat="38.3304250" lon="-0.6889310">
        <ele>266.8</ele>
        <time>2018-03-30T06:27:34Z</time>
      </trkpt>
      <trkpt lat="38.3304490" lon="-0.6889760">
        <ele>266.9</ele>
        <time>2018-03-30T06:27:35Z</time>
      </trkpt>
      <trkpt lat="38.3304730" lon="-0.6890220">
        <ele>267.0</ele>
        <time>2018-03-30T06:27:36Z</time>
      </trkpt>
      <trkpt lat="38.3304970" lon="-0.6890710">
        <ele>267.0</ele>
        <time>2018-03-30T06:27:37Z</time>
      </trkpt>
      <trkpt lat="38.3305170" lon="-0.6891190">
        <ele>266.9</ele>
        <time>2018-03-30T06:27:38Z</time>
      </trkpt>
      <trkpt lat="38.3305350" lon="-0.6891680">
        <ele>266.7</ele>
        <time>2018-03-30T06:27:39Z</time>
      </trkpt>
      <trkpt lat="38.3305550" lon="-0.6892170">
        <ele>266.5</ele>
        <time>2018-03-30T06:27:40Z</time>
      </trkpt>
      <trkpt lat="38.3305700" lon="-0.6892650">
        <ele>266.3</ele>
        <time>2018-03-30T06:27:41Z</time>
      </trkpt>
      <trkpt lat="38.3305880" lon="-0.6893150">
        <ele>266.1</ele>
        <time>2018-03-30T06:27:42Z</time>
      </trkpt>
      <trkpt lat="38.3306030" lon="-0.6893650">
        <ele>265.9</ele>
        <time>2018-03-30T06:27:43Z</time>
      </trkpt>
      <trkpt lat="38.3306190" lon="-0.6894140">
        <ele>265.6</ele>
        <time>2018-03-30T06:27:44Z</time>
      </trkpt>
      <trkpt lat="38.3306350" lon="-0.6894640">
        <ele>265.4</ele>
        <time>2018-03-30T06:27:45Z</time>
      </trkpt>
      <trkpt lat="38.3306510" lon="-0.6895130">
        <ele>265.1</ele>
        <time>2018-03-30T06:27:46Z</time>
      </trkpt>
      <trkpt lat="38.3306680" lon="-0.6895610">
        <ele>264.9</ele>
        <time>2018-03-30T06:27:47Z</time>
      </trkpt>
      <trkpt lat="38.3306850" lon="-0.6896090">
        <ele>264.6</ele>
        <time>2018-03-30T06:27:48Z</time>
      </trkpt>
      <trkpt lat="38.3307030" lon="-0.6896540">
        <ele>264.3</ele>
        <time>2018-03-30T06:27:49Z</time>
      </trkpt>
      <trkpt lat="38.3307210" lon="-0.6896980">
        <ele>264.1</ele>
        <time>2018-03-30T06:27:50Z</time>
      </trkpt>
      <trkpt lat="38.3307420" lon="-0.6897410">
        <ele>263.8</ele>
        <time>2018-03-30T06:27:51Z</time>
      </trkpt>
      <trkpt lat="38.3307640" lon="-0.6897810">
        <ele>263.5</ele>
        <time>2018-03-30T06:27:52Z</time>
      </trkpt>
      <trkpt lat="38.3307880" lon="-0.6898170">
        <ele>263.2</ele>
        <time>2018-03-30T06:27:53Z</time>
      </trkpt>
      <trkpt lat="38.3308140" lon="-0.6898470">
        <ele>262.9</ele>
        <time>2018-03-30T06:27:54Z</time>
      </trkpt>
      <trkpt lat="38.3308390" lon="-0.6898710">
        <ele>262.6</ele>
        <time>2018-03-30T06:27:55Z</time>
      </trkpt>
      <trkpt lat="38.3308670" lon="-0.6898860">
        <ele>262.2</ele>
        <time>2018-03-30T06:27:56Z</time>
      </trkpt>
      <trkpt lat="38.3309010" lon="-0.6898840">
        <ele>262.3</ele>
        <time>2018-03-30T06:27:57Z</time>
      </trkpt>
      <trkpt lat="38.3309310" lon="-0.6898640">
        <ele>262.3</ele>
        <time>2018-03-30T06:27:58Z</time>
      </trkpt>
      <trkpt lat="38.3309640" lon="-0.6898430">
        <ele>262.5</ele>
        <time>2018-03-30T06:27:59Z</time>
      </trkpt>
      <trkpt lat="38.3310010" lon="-0.6898250">
        <ele>262.6</ele>
        <time>2018-03-30T06:28:00Z</time>
      </trkpt>
      <trkpt lat="38.3310410" lon="-0.6898130">
        <ele>262.8</ele>
        <time>2018-03-30T06:28:01Z</time>
      </trkpt>
      <trkpt lat="38.3310820" lon="-0.6898080">
        <ele>263.0</ele>
        <time>2018-03-30T06:28:02Z</time>
      </trkpt>
      <trkpt lat="38.3311220" lon="-0.6898090">
        <ele>263.2</ele>
        <time>2018-03-30T06:28:03Z</time>
      </trkpt>
      <trkpt lat="38.3311620" lon="-0.6898150">
        <ele>263.4</ele>
        <time>2018-03-30T06:28:04Z</time>
      </trkpt>
      <trkpt lat="38.3312000" lon="-0.6898220">
        <ele>263.7</ele>
        <time>2018-03-30T06:28:05Z</time>
      </trkpt>
      <trkpt lat="38.3312390" lon="-0.6898310">
        <ele>263.9</ele>
        <time>2018-03-30T06:28:06Z</time>
      </trkpt>
      <trkpt lat="38.3312750" lon="-0.6898410">
        <ele>264.2</ele>
        <time>2018-03-30T06:28:07Z</time>
      </trkpt>
      <trkpt lat="38.3313100" lon="-0.6898550">
        <ele>264.4</ele>
        <time>2018-03-30T06:28:08Z</time>
      </trkpt>
      <trkpt lat="38.3313430" lon="-0.6898720">
        <ele>264.6</ele>
        <time>2018-03-30T06:28:09Z</time>
      </trkpt>
      <trkpt lat="38.3313720" lon="-0.6898880">
        <ele>264.8</ele>
        <time>2018-03-30T06:28:10Z</time>
      </trkpt>
      <trkpt lat="38.3314000" lon="-0.6899070">
        <ele>265.0</ele>
        <time>2018-03-30T06:28:11Z</time>
      </trkpt>
      <trkpt lat="38.3314250" lon="-0.6899290">
        <ele>265.2</ele>
        <time>2018-03-30T06:28:12Z</time>
      </trkpt>
      <trkpt lat="38.3314480" lon="-0.6899500">
        <ele>265.3</ele>
        <time>2018-03-30T06:28:13Z</time>
      </trkpt>
      <trkpt lat="38.3314680" lon="-0.6899690">
        <ele>265.5</ele>
        <time>2018-03-30T06:28:14Z</time>
      </trkpt>
      <trkpt lat="38.3314840" lon="-0.6899840">
        <ele>265.6</ele>
        <time>2018-03-30T06:28:15Z</time>
      </trkpt>
      <trkpt lat="38.3314990" lon="-0.6899980">
        <ele>265.7</ele>
        <time>2018-03-30T06:28:16Z</time>
      </trkpt>
      <trkpt lat="38.3315170" lon="-0.6900120">
        <ele>265.9</ele>
        <time>2018-03-30T06:28:17Z</time>
      </trkpt>
      <trkpt lat="38.3315370" lon="-0.6900260">
        <ele>266.3</ele>
        <time>2018-03-30T06:28:18Z</time>
      </trkpt>
      <trkpt lat="38.3315570" lon="-0.6900420">
        <ele>266.6</ele>
        <time>2018-03-30T06:28:19Z</time>
      </trkpt>
      <trkpt lat="38.3315740" lon="-0.6900600">
        <ele>266.8</ele>
        <time>2018-03-30T06:28:20Z</time>
      </trkpt>
      <trkpt lat="38.3315920" lon="-0.6900830">
        <ele>267.1</ele>
        <time>2018-03-30T06:28:21Z</time>
      </trkpt>
      <trkpt lat="38.3316080" lon="-0.6901060">
        <ele>267.3</ele>
        <time>2018-03-30T06:28:22Z</time>
      </trkpt>
      <trkpt lat="38.3316240" lon="-0.6901300">
        <ele>267.6</ele>
        <time>2018-03-30T06:28:23Z</time>
      </trkpt>
      <trkpt lat="38.3316390" lon="-0.6901560">
        <ele>267.8</ele>
        <time>2018-03-30T06:28:24Z</time>
      </trkpt>
      <trkpt lat="38.3316520" lon="-0.6901830">
        <ele>268.1</ele>
        <time>2018-03-30T06:28:25Z</time>
      </trkpt>
      <trkpt lat="38.3316640" lon="-0.6902110">
        <ele>268.5</ele>
        <time>2018-03-30T06:28:26Z</time>
      </trkpt>
      <trkpt lat="38.3316760" lon="-0.6902380">
        <ele>268.9</ele>
        <time>2018-03-30T06:28:27Z</time>
      </trkpt>
      <trkpt lat="38.3316880" lon="-0.6902660">
        <ele>269.1</ele>
        <time>2018-03-30T06:28:28Z</time>
      </trkpt>
      <trkpt lat="38.3316990" lon="-0.6902950">
        <ele>269.2</ele>
        <time>2018-03-30T06:28:29Z</time>
      </trkpt>
      <trkpt lat="38.3317070" lon="-0.6903250">
        <ele>269.4</ele>
        <time>2018-03-30T06:28:30Z</time>
      </trkpt>
      <trkpt lat="38.3317120" lon="-0.6903540">
        <ele>269.6</ele>
        <time>2018-03-30T06:28:31Z</time>
      </trkpt>
      <trkpt lat="38.3317210" lon="-0.6903850">
        <ele>269.8</ele>
        <time>2018-03-30T06:28:32Z</time>
      </trkpt>
      <trkpt lat="38.3317290" lon="-0.6904170">
        <ele>270.0</ele>
        <time>2018-03-30T06:28:33Z</time>
      </trkpt>
      <trkpt lat="38.3317360" lon="-0.6904510">
        <ele>270.2</ele>
        <time>2018-03-30T06:28:34Z</time>
      </trkpt>
      <trkpt lat="38.3317410" lon="-0.6904880">
        <ele>270.4</ele>
        <time>2018-03-30T06:28:35Z</time>
      </trkpt>
      <trkpt lat="38.3317430" lon="-0.6905240">
        <ele>270.6</ele>
        <time>2018-03-30T06:28:36Z</time>
      </trkpt>
      <trkpt lat="38.3317470" lon="-0.6905630">
        <ele>270.7</ele>
        <time>2018-03-30T06:28:37Z</time>
      </trkpt>
      <trkpt lat="38.3317520" lon="-0.6906030">
        <ele>270.8</ele>
        <time>2018-03-30T06:28:38Z</time>
      </trkpt>
      <trkpt lat="38.3317550" lon="-0.6906430">
        <ele>271.0</ele>
        <time>2018-03-30T06:28:39Z</time>
      </trkpt>
      <trkpt lat="38.3317570" lon="-0.6906820">
        <ele>271.1</ele>
        <time>2018-03-30T06:28:40Z</time>
      </trkpt>
      <trkpt lat="38.3317610" lon="-0.6907220">
        <ele>271.2</ele>
        <time>2018-03-30T06:28:41Z</time>
      </trkpt>
      <trkpt lat="38.3317630" lon="-0.6907640">
        <ele>271.4</ele>
        <time>2018-03-30T06:28:42Z</time>
      </trkpt>
      <trkpt lat="38.3317670" lon="-0.6908070">
        <ele>271.5</ele>
        <time>2018-03-30T06:28:43Z</time>
      </trkpt>
      <trkpt lat="38.3317680" lon="-0.6908500">
        <ele>271.6</ele>
        <time>2018-03-30T06:28:44Z</time>
      </trkpt>
      <trkpt lat="38.3317710" lon="-0.6908950">
        <ele>271.7</ele>
        <time>2018-03-30T06:28:45Z</time>
      </trkpt>
      <trkpt lat="38.3317720" lon="-0.6909420">
        <ele>271.8</ele>
        <time>2018-03-30T06:28:46Z</time>
      </trkpt>
      <trkpt lat="38.3317740" lon="-0.6909910">
        <ele>271.8</ele>
        <time>2018-03-30T06:28:47Z</time>
      </trkpt>
      <trkpt lat="38.3317760" lon="-0.6910410">
        <ele>271.9</ele>
        <time>2018-03-30T06:28:48Z</time>
      </trkpt>
      <trkpt lat="38.3317780" lon="-0.6910920">
        <ele>272.0</ele>
        <time>2018-03-30T06:28:49Z</time>
      </trkpt>
      <trkpt lat="38.3317790" lon="-0.6911430">
        <ele>272.0</ele>
        <time>2018-03-30T06:28:50Z</time>
      </trkpt>
      <trkpt lat="38.3317780" lon="-0.6911950">
        <ele>272.1</ele>
        <time>2018-03-30T06:28:51Z</time>
      </trkpt>
      <trkpt lat="38.3317790" lon="-0.6912480">
        <ele>272.2</ele>
        <time>2018-03-30T06:28:52Z</time>
      </trkpt>
      <trkpt lat="38.3317800" lon="-0.6913010">
        <ele>272.3</ele>
        <time>2018-03-30T06:28:53Z</time>
      </trkpt>
      <trkpt lat="38.3317800" lon="-0.6913550">
        <ele>272.4</ele>
        <time>2018-03-30T06:28:54Z</time>
      </trkpt>
      <trkpt lat="38.3317800" lon="-0.6914090">
        <ele>272.5</ele>
        <time>2018-03-30T06:28:55Z</time>
      </trkpt>
      <trkpt lat="38.3317810" lon="-0.6914630">
        <ele>272.6</ele>
        <time>2018-03-30T06:28:56Z</time>
      </trkpt>
      <trkpt lat="38.3317830" lon="-0.6915180">
        <ele>272.6</ele>
        <time>2018-03-30T06:28:57Z</time>
      </trkpt>
      <trkpt lat="38.3317840" lon="-0.6915740">
        <ele>272.7</ele>
        <time>2018-03-30T06:28:58Z</time>
      </trkpt>
      <trkpt lat="38.3317860" lon="-0.6916300">
        <ele>272.7</ele>
        <time>2018-03-30T06:28:59Z</time>
      </trkpt>
      <trkpt lat="38.3317870" lon="-0.6916870">
        <ele>272.8</ele>
        <time>2018-03-30T06:29:00Z</time>
      </trkpt>
      <trkpt lat="38.3317890" lon="-0.6917440">
        <ele>272.9</ele>
        <time>2018-03-30T06:29:01Z</time>
      </trkpt>
      <trkpt lat="38.3317910" lon="-0.6918010">
        <ele>273.0</ele>
        <time>2018-03-30T06:29:02Z</time>
      </trkpt>
      <trkpt lat="38.3317920" lon="-0.6918590">
        <ele>273.1</ele>
        <time>2018-03-30T06:29:03Z</time>
      </trkpt>
      <trkpt lat="38.3317930" lon="-0.6919160">
        <ele>273.2</ele>
        <time>2018-03-30T06:29:04Z</time>
      </trkpt>
      <trkpt lat="38.3317940" lon="-0.6919730">
        <ele>273.3</ele>
        <time>2018-03-30T06:29:05Z</time>
      </trkpt>
      <trkpt lat="38.3317960" lon="-0.6920310">
        <ele>273.4</ele>
        <time>2018-03-30T06:29:06Z</time>
      </trkpt>
      <trkpt lat="38.3317990" lon="-0.6920890">
        <ele>273.5</ele>
        <time>2018-03-30T06:29:07Z</time>
      </trkpt>
      <trkpt lat="38.3318010" lon="-0.6921480">
        <ele>273.6</ele>
        <time>2018-03-30T06:29:08Z</time>
      </trkpt>
      <trkpt lat="38.3318010" lon="-0.6922070">
        <ele>273.7</ele>
        <time>2018-03-30T06:29:09Z</time>
      </trkpt>
      <trkpt lat="38.3318020" lon="-0.6922660">
        <ele>273.7</ele>
        <time>2018-03-30T06:29:10Z</time>
      </trkpt>
      <trkpt lat="38.3318020" lon="-0.6923250">
        <ele>273.8</ele>
        <time>2018-03-30T06:29:11Z</time>
      </trkpt>
      <trkpt lat="38.3318020" lon="-0.6923840">
        <ele>273.8</ele>
        <time>2018-03-30T06:29:12Z</time>
      </trkpt>
      <trkpt lat="38.3318030" lon="-0.6924430">
        <ele>273.9</ele>
        <time>2018-03-30T06:29:13Z</time>
      </trkpt>
      <trkpt lat="38.3318050" lon="-0.6925030">
        <ele>274.0</ele>
        <time>2018-03-30T06:29:14Z</time>
      </trkpt>
      <trkpt lat="38.3318060" lon="-0.6925620">
        <ele>274.0</ele>
        <time>2018-03-30T06:29:15Z</time>
      </trkpt>
      <trkpt lat="38.3318070" lon="-0.6926220">
        <ele>274.1</ele>
        <time>2018-03-30T06:29:16Z</time>
      </trkpt>
      <trkpt lat="38.3318080" lon="-0.6926820">
        <ele>274.2</ele>
        <time>2018-03-30T06:29:17Z</time>
      </trkpt>
      <trkpt lat="38.3318090" lon="-0.6927430">
        <ele>274.3</ele>
        <time>2018-03-30T06:29:18Z</time>
      </trkpt>
      <trkpt lat="38.3318090" lon="-0.6928020">
        <ele>274.4</ele>
        <time>2018-03-30T06:29:19Z</time>
      </trkpt>
      <trkpt lat="38.3318110" lon="-0.6928620">
        <ele>274.5</ele>
        <time>2018-03-30T06:29:20Z</time>
      </trkpt>
      <trkpt lat="38.3318130" lon="-0.6929220">
        <ele>274.5</ele>
        <time>2018-03-30T06:29:21Z</time>
      </trkpt>
      <trkpt lat="38.3318120" lon="-0.6929820">
        <ele>274.6</ele>
        <time>2018-03-30T06:29:22Z</time>
      </trkpt>
      <trkpt lat="38.3318110" lon="-0.6930420">
        <ele>274.7</ele>
        <time>2018-03-30T06:29:23Z</time>
      </trkpt>
      <trkpt lat="38.3318090" lon="-0.6931010">
        <ele>274.7</ele>
        <time>2018-03-30T06:29:24Z</time>
      </trkpt>
      <trkpt lat="38.3318070" lon="-0.6931590">
        <ele>274.8</ele>
        <time>2018-03-30T06:29:25Z</time>
      </trkpt>
      <trkpt lat="38.3318080" lon="-0.6932180">
        <ele>274.9</ele>
        <time>2018-03-30T06:29:26Z</time>
      </trkpt>
      <trkpt lat="38.3318130" lon="-0.6932770">
        <ele>274.9</ele>
        <time>2018-03-30T06:29:27Z</time>
      </trkpt>
      <trkpt lat="38.3318310" lon="-0.6933340">
        <ele>275.2</ele>
        <time>2018-03-30T06:29:28Z</time>
      </trkpt>
      <trkpt lat="38.3318570" lon="-0.6933760">
        <ele>275.5</ele>
        <time>2018-03-30T06:29:29Z</time>
      </trkpt>
      <trkpt lat="38.3318880" lon="-0.6934090">
        <ele>275.9</ele>
        <time>2018-03-30T06:29:30Z</time>
      </trkpt>
      <trkpt lat="38.3319260" lon="-0.6934290">
        <ele>276.2</ele>
        <time>2018-03-30T06:29:31Z</time>
      </trkpt>
      <trkpt lat="38.3319630" lon="-0.6934410">
        <ele>276.6</ele>
        <time>2018-03-30T06:29:32Z</time>
      </trkpt>
      <trkpt lat="38.3319900" lon="-0.6934520">
        <ele>276.9</ele>
        <time>2018-03-30T06:29:33Z</time>
      </trkpt>
      <trkpt lat="38.3320130" lon="-0.6934580">
        <ele>277.2</ele>
        <time>2018-03-30T06:29:34Z</time>
      </trkpt>
      <trkpt lat="38.3320390" lon="-0.6934650">
        <ele>277.4</ele>
        <time>2018-03-30T06:29:35Z</time>
      </trkpt>
      <trkpt lat="38.3320610" lon="-0.6934670">
        <ele>277.6</ele>
        <time>2018-03-30T06:29:36Z</time>
      </trkpt>
      <trkpt lat="38.3320870" lon="-0.6934710">
        <ele>277.9</ele>
        <time>2018-03-30T06:29:37Z</time>
      </trkpt>
      <trkpt lat="38.3321120" lon="-0.6934700">
        <ele>278.1</ele>
        <time>2018-03-30T06:29:38Z</time>
      </trkpt>
      <trkpt lat="38.3321380" lon="-0.6934730">
        <ele>278.5</ele>
        <time>2018-03-30T06:29:39Z</time>
      </trkpt>
      <trkpt lat="38.3321660" lon="-0.6934780">
        <ele>278.7</ele>
        <time>2018-03-30T06:29:40Z</time>
      </trkpt>
      <trkpt lat="38.3321950" lon="-0.6934830">
        <ele>279.0</ele>
        <time>2018-03-30T06:29:41Z</time>
      </trkpt>
      <trkpt lat="38.3322240" lon="-0.6934890">
        <ele>279.3</ele>
        <time>2018-03-30T06:29:42Z</time>
      </trkpt>
      <trkpt lat="38.3322530" lon="-0.6934950">
        <ele>279.6</ele>
        <time>2018-03-30T06:29:43Z</time>
      </trkpt>
      <trkpt lat="38.3322820" lon="-0.6935040">
        <ele>280.0</ele>
        <time>2018-03-30T06:29:44Z</time>
      </trkpt>
      <trkpt lat="38.3323120" lon="-0.6935110">
        <ele>280.4</ele>
        <time>2018-03-30T06:29:45Z</time>
      </trkpt>
      <trkpt lat="38.3323410" lon="-0.6935190">
        <ele>280.7</ele>
        <time>2018-03-30T06:29:46Z</time>
      </trkpt>
      <trkpt lat="38.3323700" lon="-0.6935270">
        <ele>281.0</ele>
        <time>2018-03-30T06:29:47Z</time>
      </trkpt>
      <trkpt lat="38.3323980" lon="-0.6935350">
        <ele>281.3</ele>
        <time>2018-03-30T06:29:48Z</time>
      </trkpt>
      <trkpt lat="38.3324250" lon="-0.6935430">
        <ele>281.6</ele>
        <time>2018-03-30T06:29:49Z</time>
      </trkpt>
      <trkpt lat="38.3324500" lon="-0.6935510">
        <ele>281.8</ele>
        <time>2018-03-30T06:29:50Z</time>
      </trkpt>
      <trkpt lat="38.3324750" lon="-0.6935580">
        <ele>282.1</ele>
        <time>2018-03-30T06:29:51Z</time>
      </trkpt>
      <trkpt lat="38.3325020" lon="-0.6935640">
        <ele>282.3</ele>
        <time>2018-03-30T06:29:52Z</time>
      </trkpt>
      <trkpt lat="38.3325270" lon="-0.6935700">
        <ele>282.6</ele>
        <time>2018-03-30T06:29:53Z</time>
      </trkpt>
      <trkpt lat="38.3325510" lon="-0.6935760">
        <ele>282.8</ele>
        <time>2018-03-30T06:29:54Z</time>
      </trkpt>
      <trkpt lat="38.3325770" lon="-0.6935820">
        <ele>283.2</ele>
        <time>2018-03-30T06:29:55Z</time>
      </trkpt>
      <trkpt lat="38.3326060" lon="-0.6935880">
        <ele>283.6</ele>
        <time>2018-03-30T06:29:56Z</time>
      </trkpt>
      <trkpt lat="38.3326300" lon="-0.6935940">
        <ele>283.8</ele>
        <time>2018-03-30T06:29:57Z</time>
      </trkpt>
      <trkpt lat="38.3326540" lon="-0.6935990">
        <ele>284.0</ele>
        <time>2018-03-30T06:29:58Z</time>
      </trkpt>
      <trkpt lat="38.3326780" lon="-0.6935980">
        <ele>284.2</ele>
        <time>2018-03-30T06:29:59Z</time>
      </trkpt>
      <trkpt lat="38.3327030" lon="-0.6936000">
        <ele>284.4</ele>
        <time>2018-03-30T06:30:00Z</time>
      </trkpt>
      <trkpt lat="38.3327280" lon="-0.6936020">
        <ele>284.7</ele>
        <time>2018-03-30T06:30:01Z</time>
      </trkpt>
      <trkpt lat="38.3327540" lon="-0.6936050">
        <ele>284.9</ele>
        <time>2018-03-30T06:30:02Z</time>
      </trkpt>
      <trkpt lat="38.3327780" lon="-0.6936070">
        <ele>285.1</ele>
        <time>2018-03-30T06:30:03Z</time>
      </trkpt>
      <trkpt lat="38.3328040" lon="-0.6936100">
        <ele>285.3</ele>
        <time>2018-03-30T06:30:04Z</time>
      </trkpt>
      <trkpt lat="38.3328280" lon="-0.6936100">
        <ele>285.5</ele>
        <time>2018-03-30T06:30:05Z</time>
      </trkpt>
      <trkpt lat="38.3328550" lon="-0.6936050">
        <ele>285.6</ele>
        <time>2018-03-30T06:30:06Z</time>
      </trkpt>
      <trkpt lat="38.3328820" lon="-0.6936020">
        <ele>285.8</ele>
        <time>2018-03-30T06:30:07Z</time>
      </trkpt>
      <trkpt lat="38.3329100" lon="-0.6936000">
        <ele>286.0</ele>
        <time>2018-03-30T06:30:08Z</time>
      </trkpt>
      <trkpt lat="38.3329370" lon="-0.6935990">
        <ele>286.2</ele>
        <time>2018-03-30T06:30:09Z</time>
      </trkpt>
      <trkpt lat="38.3329650" lon="-0.6936020">
        <ele>286.3</ele>
        <time>2018-03-30T06:30:10Z</time>
      </trkpt>
      <trkpt lat="38.3329930" lon="-0.6936010">
        <ele>286.5</ele>
        <time>2018-03-30T06:30:11Z</time>
      </trkpt>
      <trkpt lat="38.3330220" lon="-0.6935980">
        <ele>286.6</ele>
        <time>2018-03-30T06:30:12Z</time>
      </trkpt>
      <trkpt lat="38.3330510" lon="-0.6935950">
        <ele>286.8</ele>
        <time>2018-03-30T06:30:13Z</time>
      </trkpt>
      <trkpt lat="38.3330780" lon="-0.6935930">
        <ele>286.9</ele>
        <time>2018-03-30T06:30:14Z</time>
      </trkpt>
      <trkpt lat="38.3331060" lon="-0.6935890">
        <ele>287.1</ele>
        <time>2018-03-30T06:30:15Z</time>
      </trkpt>
      <trkpt lat="38.3331340" lon="-0.6935840">
        <ele>287.2</ele>
        <time>2018-03-30T06:30:16Z</time>
      </trkpt>
      <trkpt lat="38.3331630" lon="-0.6935800">
        <ele>287.4</ele>
        <time>2018-03-30T06:30:17Z</time>
      </trkpt>
      <trkpt lat="38.3331920" lon="-0.6935830">
        <ele>287.7</ele>
        <time>2018-03-30T06:30:18Z</time>
      </trkpt>
      <trkpt lat="38.3332210" lon="-0.6935840">
        <ele>287.9</ele>
        <time>2018-03-30T06:30:19Z</time>
      </trkpt>
      <trkpt lat="38.3332500" lon="-0.6935850">
        <ele>288.2</ele>
        <time>2018-03-30T06:30:20Z</time>
      </trkpt>
      <trkpt lat="38.3332790" lon="-0.6935840">
        <ele>288.4</ele>
        <time>2018-03-30T06:30:21Z</time>
      </trkpt>
      <trkpt lat="38.3333100" lon="-0.6935810">
        <ele>288.6</ele>
        <time>2018-03-30T06:30:22Z</time>
      </trkpt>
      <trkpt lat="38.3333390" lon="-0.6935810">
        <ele>289.0</ele>
        <time>2018-03-30T06:30:23Z</time>
      </trkpt>
      <trkpt lat="38.3333670" lon="-0.6935960">
        <ele>289.2</ele>
        <time>2018-03-30T06:30:24Z</time>
      </trkpt>
      <trkpt lat="38.3333940" lon="-0.6936070">
        <ele>289.4</ele>
        <time>2018-03-30T06:30:25Z</time>
      </trkpt>
      <trkpt lat="38.3334220" lon="-0.6936160">
        <ele>289.5</ele>
        <time>2018-03-30T06:30:26Z</time>
      </trkpt>
      <trkpt lat="38.3334460" lon="-0.6936190">
        <ele>289.6</ele>
        <time>2018-03-30T06:30:27Z</time>
      </trkpt>
      <trkpt lat="38.3334710" lon="-0.6936220">
        <ele>289.7</ele>
        <time>2018-03-30T06:30:28Z</time>
      </trkpt>
      <trkpt lat="38.3334950" lon="-0.6936270">
        <ele>289.9</ele>
        <time>2018-03-30T06:30:29Z</time>
      </trkpt>
      <trkpt lat="38.3335180" lon="-0.6936300">
        <ele>290.0</ele>
        <time>2018-03-30T06:30:30Z</time>
      </trkpt>
      <trkpt lat="38.3335410" lon="-0.6936340">
        <ele>290.1</ele>
        <time>2018-03-30T06:30:31Z</time>
      </trkpt>
      <trkpt lat="38.3335630" lon="-0.6936380">
        <ele>290.2</ele>
        <time>2018-03-30T06:30:32Z</time>
      </trkpt>
      <trkpt lat="38.3335850" lon="-0.6936430">
        <ele>290.3</ele>
        <time>2018-03-30T06:30:33Z</time>
      </trkpt>
      <trkpt lat="38.3336070" lon="-0.6936540">
        <ele>290.5</ele>
        <time>2018-03-30T06:30:34Z</time>
      </trkpt>
      <trkpt lat="38.3336270" lon="-0.6936600">
        <ele>290.6</ele>
        <time>2018-03-30T06:30:35Z</time>
      </trkpt>
      <trkpt lat="38.3336490" lon="-0.6936670">
        <ele>290.8</ele>
        <time>2018-03-30T06:30:36Z</time>
      </trkpt>
      <trkpt lat="38.3336710" lon="-0.6936730">
        <ele>291.0</ele>
        <time>2018-03-30T06:30:37Z</time>
      </trkpt>
      <trkpt lat="38.3336940" lon="-0.6936790">
        <ele>291.1</ele>
        <time>2018-03-30T06:30:38Z</time>
      </trkpt>
      <trkpt lat="38.3337170" lon="-0.6936830">
        <ele>291.3</ele>
        <time>2018-03-30T06:30:39Z</time>
      </trkpt>
      <trkpt lat="38.3337390" lon="-0.6936880">
        <ele>291.7</ele>
        <time>2018-03-30T06:30:40Z</time>
      </trkpt>
      <trkpt lat="38.3337610" lon="-0.6936950">
        <ele>291.9</ele>
        <time>2018-03-30T06:30:41Z</time>
      </trkpt>
      <trkpt lat="38.3337830" lon="-0.6936980">
        <ele>292.1</ele>
        <time>2018-03-30T06:30:42Z</time>
      </trkpt>
      <trkpt lat="38.3338060" lon="-0.6937000">
        <ele>292.4</ele>
        <time>2018-03-30T06:30:43Z</time>
      </trkpt>
      <trkpt lat="38.3338290" lon="-0.6937050">
        <ele>292.5</ele>
        <time>2018-03-30T06:30:44Z</time>
      </trkpt>
      <trkpt lat="38.3338520" lon="-0.6937070">
        <ele>292.7</ele>
        <time>2018-03-30T06:30:45Z</time>
      </trkpt>
      <trkpt lat="38.3338750" lon="-0.6937110">
        <ele>292.8</ele>
        <time>2018-03-30T06:30:46Z</time>
      </trkpt>
      <trkpt lat="38.3338980" lon="-0.6937110">
        <ele>293.0</ele>
        <time>2018-03-30T06:30:47Z</time>
      </trkpt>
      <trkpt lat="38.3339200" lon="-0.6937110">
        <ele>293.1</ele>
        <time>2018-03-30T06:30:48Z</time>
      </trkpt>
      <trkpt lat="38.3339440" lon="-0.6937120">
        <ele>293.2</ele>
        <time>2018-03-30T06:30:49Z</time>
      </trkpt>
      <trkpt lat="38.3339670" lon="-0.6937150">
        <ele>293.5</ele>
        <time>2018-03-30T06:30:50Z</time>
      </trkpt>
      <trkpt lat="38.3339900" lon="-0.6937160">
        <ele>293.8</ele>
        <time>2018-03-30T06:30:51Z</time>
      </trkpt>
      <trkpt lat="38.3340150" lon="-0.6937150">
        <ele>294.1</ele>
        <time>2018-03-30T06:30:52Z</time>
      </trkpt>
      <trkpt lat="38.3340400" lon="-0.6937150">
        <ele>294.2</ele>
        <time>2018-03-30T06:30:53Z</time>
      </trkpt>
      <trkpt lat="38.3340670" lon="-0.6937160">
        <ele>294.3</ele>
        <time>2018-03-30T06:30:54Z</time>
      </trkpt>
      <trkpt lat="38.3340940" lon="-0.6937160">
        <ele>294.4</ele>
        <time>2018-03-30T06:30:55Z</time>
      </trkpt>
      <trkpt lat="38.3341220" lon="-0.6937140">
        <ele>294.6</ele>
        <time>2018-03-30T06:30:56Z</time>
      </trkpt>
      <trkpt lat="38.3341510" lon="-0.6937120">
        <ele>294.7</ele>
        <time>2018-03-30T06:30:57Z</time>
      </trkpt>
      <trkpt lat="38.3341810" lon="-0.6937120">
        <ele>294.9</ele>
        <time>2018-03-30T06:30:58Z</time>
      </trkpt>
      <trkpt lat="38.3342120" lon="-0.6937090">
        <ele>295.1</ele>
        <time>2018-03-30T06:30:59Z</time>
      </trkpt>
      <trkpt lat="38.3342430" lon="-0.6937070">
        <ele>295.2</ele>
        <time>2018-03-30T06:31:00Z</time>
      </trkpt>
      <trkpt lat="38.3342740" lon="-0.6937050">
        <ele>295.4</ele>
        <time>2018-03-30T06:31:01Z</time>
      </trkpt>
      <trkpt lat="38.3343040" lon="-0.6937050">
        <ele>295.5</ele>
        <time>2018-03-30T06:31:02Z</time>
      </trkpt>
      <trkpt lat="38.3343340" lon="-0.6937060">
        <ele>295.6</ele>
        <time>2018-03-30T06:31:03Z</time>
      </trkpt>
      <trkpt lat="38.3343650" lon="-0.6937050">
        <ele>295.7</ele>
        <time>2018-03-30T06:31:04Z</time>
      </trkpt>
      <trkpt lat="38.3343970" lon="-0.6937010">
        <ele>295.9</ele>
        <time>2018-03-30T06:31:05Z</time>
      </trkpt>
      <trkpt lat="38.3344300" lon="-0.6936970">
        <ele>296.0</ele>
        <time>2018-03-30T06:31:06Z</time>
      </trkpt>
      <trkpt lat="38.3344660" lon="-0.6936940">
        <ele>296.1</ele>
        <time>2018-03-30T06:31:07Z</time>
      </trkpt>
      <trkpt lat="38.3345020" lon="-0.6936930">
        <ele>296.2</ele>
        <time>2018-03-30T06:31:08Z</time>
      </trkpt>
      <trkpt lat="38.3345390" lon="-0.6936860">
        <ele>296.3</ele>
        <time>2018-03-30T06:31:09Z</time>
      </trkpt>
      <trkpt lat="38.3345770" lon="-0.6936820">
        <ele>296.4</ele>
        <time>2018-03-30T06:31:10Z</time>
      </trkpt>
      <trkpt lat="38.3346160" lon="-0.6936780">
        <ele>296.5</ele>
        <time>2018-03-30T06:31:11Z</time>
      </trkpt>
      <trkpt lat="38.3346540" lon="-0.6936750">
        <ele>296.6</ele>
        <time>2018-03-30T06:31:12Z</time>
      </trkpt>
      <trkpt lat="38.3346910" lon="-0.6936720">
        <ele>296.7</ele>
        <time>2018-03-30T06:31:13Z</time>
      </trkpt>
      <trkpt lat="38.3347280" lon="-0.6936750">
        <ele>296.8</ele>
        <time>2018-03-30T06:31:14Z</time>
      </trkpt>
      <trkpt lat="38.3347640" lon="-0.6936780">
        <ele>296.9</ele>
        <time>2018-03-30T06:31:15Z</time>
      </trkpt>
      <trkpt lat="38.3348000" lon="-0.6936830">
        <ele>297.1</ele>
        <time>2018-03-30T06:31:16Z</time>
      </trkpt>
      <trkpt lat="38.3348370" lon="-0.6936830">
        <ele>297.2</ele>
        <time>2018-03-30T06:31:17Z</time>
      </trkpt>
      <trkpt lat="38.3348740" lon="-0.6936860">
        <ele>297.4</ele>
        <time>2018-03-30T06:31:18Z</time>
      </trkpt>
      <trkpt lat="38.3349130" lon="-0.6936850">
        <ele>297.5</ele>
        <time>2018-03-30T06:31:19Z</time>
      </trkpt>
      <trkpt lat="38.3349510" lon="-0.6936870">
        <ele>297.6</ele>
        <time>2018-03-30T06:31:20Z</time>
      </trkpt>
      <trkpt lat="38.3349870" lon="-0.6936900">
        <ele>297.8</ele>
        <time>2018-03-30T06:31:21Z</time>
      </trkpt>
      <trkpt lat="38.3350230" lon="-0.6936950">
        <ele>297.8</ele>
        <time>2018-03-30T06:31:22Z</time>
      </trkpt>
      <trkpt lat="38.3350590" lon="-0.6937010">
        <ele>297.9</ele>
        <time>2018-03-30T06:31:23Z</time>
      </trkpt>
      <trkpt lat="38.3350950" lon="-0.6937090">
        <ele>298.0</ele>
        <time>2018-03-30T06:31:24Z</time>
      </trkpt>
      <trkpt lat="38.3351320" lon="-0.6937110">
        <ele>298.1</ele>
        <time>2018-03-30T06:31:25Z</time>
      </trkpt>
      <trkpt lat="38.3351720" lon="-0.6937070">
        <ele>298.2</ele>
        <time>2018-03-30T06:31:26Z</time>
      </trkpt>
      <trkpt lat="38.3352120" lon="-0.6937040">
        <ele>298.3</ele>
        <time>2018-03-30T06:31:27Z</time>
      </trkpt>
      <trkpt lat="38.3352540" lon="-0.6936920">
        <ele>298.3</ele>
        <time>2018-03-30T06:31:28Z</time>
      </trkpt>
      <trkpt lat="38.3352960" lon="-0.6936850">
        <ele>298.4</ele>
        <time>2018-03-30T06:31:29Z</time>
      </trkpt>
      <trkpt lat="38.3353380" lon="-0.6936710">
        <ele>298.4</ele>
        <time>2018-03-30T06:31:30Z</time>
      </trkpt>
      <trkpt lat="38.3353790" lon="-0.6936590">
        <ele>298.4</ele>
        <time>2018-03-30T06:31:31Z</time>
      </trkpt>
      <trkpt lat="38.3354190" lon="-0.6936530">
        <ele>298.5</ele>
        <time>2018-03-30T06:31:32Z</time>
      </trkpt>
      <trkpt lat="38.3354610" lon="-0.6936460">
        <ele>298.5</ele>
        <time>2018-03-30T06:31:33Z</time>
      </trkpt>
      <trkpt lat="38.3355150" lon="-0.6936480">
        <ele>298.5</ele>
        <time>2018-03-30T06:31:34Z</time>
      </trkpt>
      <trkpt lat="38.3355710" lon="-0.6936590">
        <ele>298.6</ele>
        <time>2018-03-30T06:31:35Z</time>
      </trkpt>
      <trkpt lat="38.3356210" lon="-0.6936640">
        <ele>298.6</ele>
        <time>2018-03-30T06:31:36Z</time>
      </trkpt>
      <trkpt lat="38.3356710" lon="-0.6936710">
        <ele>298.7</ele>
        <time>2018-03-30T06:31:37Z</time>
      </trkpt>
      <trkpt lat="38.3357210" lon="-0.6936780">
        <ele>298.7</ele>
        <time>2018-03-30T06:31:38Z</time>
      </trkpt>
      <trkpt lat="38.3357700" lon="-0.6936950">
        <ele>298.7</ele>
        <time>2018-03-30T06:31:39Z</time>
      </trkpt>
      <trkpt lat="38.3358200" lon="-0.6937140">
        <ele>298.8</ele>
        <time>2018-03-30T06:31:40Z</time>
      </trkpt>
      <trkpt lat="38.3358700" lon="-0.6937340">
        <ele>298.9</ele>
        <time>2018-03-30T06:31:41Z</time>
      </trkpt>
      <trkpt lat="38.3359190" lon="-0.6937520">
        <ele>298.9</ele>
        <time>2018-03-30T06:31:42Z</time>
      </trkpt>
      <trkpt lat="38.3359670" lon="-0.6937760">
        <ele>299.0</ele>
        <time>2018-03-30T06:31:43Z</time>
      </trkpt>
      <trkpt lat="38.3360150" lon="-0.6937990">
        <ele>299.0</ele>
        <time>2018-03-30T06:31:44Z</time>
      </trkpt>
      <trkpt lat="38.3360630" lon="-0.6938220">
        <ele>299.1</ele>
        <time>2018-03-30T06:31:45Z</time>
      </trkpt>
      <trkpt lat="38.3361110" lon="-0.6938440">
        <ele>299.1</ele>
        <time>2018-03-30T06:31:46Z</time>
      </trkpt>
      <trkpt lat="38.3361600" lon="-0.6938670">
        <ele>299.2</ele>
        <time>2018-03-30T06:31:47Z</time>
      </trkpt>
      <trkpt lat="38.3362070" lon="-0.6938930">
        <ele>299.2</ele>
        <time>2018-03-30T06:31:48Z</time>
      </trkpt>
      <trkpt lat="38.3362550" lon="-0.6939210">
        <ele>299.2</ele>
        <time>2018-03-30T06:31:49Z</time>
      </trkpt>
      <trkpt lat="38.3363000" lon="-0.6939520">
        <ele>299.2</ele>
        <time>2018-03-30T06:31:50Z</time>
      </trkpt>
      <trkpt lat="38.3363420" lon="-0.6939880">
        <ele>299.2</ele>
        <time>2018-03-30T06:31:51Z</time>
      </trkpt>
      <trkpt lat="38.3363830" lon="-0.6940270">
        <ele>299.2</ele>
        <time>2018-03-30T06:31:52Z</time>
      </trkpt>
      <trkpt lat="38.3364270" lon="-0.6940620">
        <ele>299.2</ele>
        <time>2018-03-30T06:31:53Z</time>
      </trkpt>
      <trkpt lat="38.3364720" lon="-0.6940930">
        <ele>299.1</ele>
        <time>2018-03-30T06:31:54Z</time>
      </trkpt>
      <trkpt lat="38.3365190" lon="-0.6941270">
        <ele>299.0</ele>
        <time>2018-03-30T06:31:55Z</time>
      </trkpt>
      <trkpt lat="38.3365720" lon="-0.6941650">
        <ele>298.9</ele>
        <time>2018-03-30T06:31:56Z</time>
      </trkpt>
      <trkpt lat="38.3366280" lon="-0.6942070">
        <ele>298.6</ele>
        <time>2018-03-30T06:31:57Z</time>
      </trkpt>
      <trkpt lat="38.3366910" lon="-0.6942550">
        <ele>298.3</ele>
        <time>2018-03-30T06:31:58Z</time>
      </trkpt>
      <trkpt lat="38.3367500" lon="-0.6943050">
        <ele>297.9</ele>
        <time>2018-03-30T06:31:59Z</time>
      </trkpt>
      <trkpt lat="38.3368070" lon="-0.6943700">
        <ele>297.4</ele>
        <time>2018-03-30T06:32:00Z</time>
      </trkpt>
      <trkpt lat="38.3368570" lon="-0.6944470">
        <ele>296.9</ele>
        <time>2018-03-30T06:32:01Z</time>
      </trkpt>
      <trkpt lat="38.3369010" lon="-0.6945330">
        <ele>296.5</ele>
        <time>2018-03-30T06:32:02Z</time>
      </trkpt>
      <trkpt lat="38.3369410" lon="-0.6946250">
        <ele>295.6</ele>
        <time>2018-03-30T06:32:03Z</time>
      </trkpt>
      <trkpt lat="38.3369790" lon="-0.6947220">
        <ele>294.8</ele>
        <time>2018-03-30T06:32:04Z</time>
      </trkpt>
      <trkpt lat="38.3370180" lon="-0.6948200">
        <ele>294.3</ele>
        <time>2018-03-30T06:32:05Z</time>
      </trkpt>
      <trkpt lat="38.3370520" lon="-0.6949190">
        <ele>293.8</ele>
        <time>2018-03-30T06:32:06Z</time>
      </trkpt>
      <trkpt lat="38.3370860" lon="-0.6950140">
        <ele>293.4</ele>
        <time>2018-03-30T06:32:07Z</time>
      </trkpt>
      <trkpt lat="38.3371160" lon="-0.6950930">
        <ele>293.0</ele>
        <time>2018-03-30T06:32:08Z</time>
      </trkpt>
      <trkpt lat="38.3371480" lon="-0.6951540">
        <ele>292.3</ele>
        <time>2018-03-30T06:32:09Z</time>
      </trkpt>
      <trkpt lat="38.3371790" lon="-0.6951930">
        <ele>291.9</ele>
        <time>2018-03-30T06:32:10Z</time>
      </trkpt>
      <trkpt lat="38.3372080" lon="-0.6952170">
        <ele>291.6</ele>
        <time>2018-03-30T06:32:11Z</time>
      </trkpt>
      <trkpt lat="38.3372370" lon="-0.6952290">
        <ele>291.3</ele>
        <time>2018-03-30T06:32:12Z</time>
      </trkpt>
      <trkpt lat="38.3372670" lon="-0.6952230">
        <ele>290.0</ele>
        <time>2018-03-30T06:32:13Z</time>
      </trkpt>
      <trkpt lat="38.3372980" lon="-0.6952000">
        <ele>289.7</ele>
        <time>2018-03-30T06:32:14Z</time>
      </trkpt>
      <trkpt lat="38.3373300" lon="-0.6951700">
        <ele>289.6</ele>
        <time>2018-03-30T06:32:15Z</time>
      </trkpt>
      <trkpt lat="38.3373550" lon="-0.6951250">
        <ele>289.4</ele>
        <time>2018-03-30T06:32:16Z</time>
      </trkpt>
      <trkpt lat="38.3373570" lon="-0.6950600">
        <ele>289.2</ele>
        <time>2018-03-30T06:32:17Z</time>
      </trkpt>
      <trkpt lat="38.3373600" lon="-0.6949930">
        <ele>289.1</ele>
        <time>2018-03-30T06:32:18Z</time>
      </trkpt>
      <trkpt lat="38.3373630" lon="-0.6949240">
        <ele>288.9</ele>
        <time>2018-03-30T06:32:19Z</time>
      </trkpt>
      <trkpt lat="38.3373670" lon="-0.6948530">
        <ele>288.7</ele>
        <time>2018-03-30T06:32:20Z</time>
      </trkpt>
      <trkpt lat="38.3373720" lon="-0.6947810">
        <ele>288.5</ele>
        <time>2018-03-30T06:32:21Z</time>
      </trkpt>
      <trkpt lat="38.3373790" lon="-0.6947060">
        <ele>288.2</ele>
        <time>2018-03-30T06:32:22Z</time>
      </trkpt>
      <trkpt lat="38.3373900" lon="-0.6946320">
        <ele>288.0</ele>
        <time>2018-03-30T06:32:23Z</time>
      </trkpt>
      <trkpt lat="38.3374150" lon="-0.6945650">
        <ele>287.8</ele>
        <time>2018-03-30T06:32:24Z</time>
      </trkpt>
      <trkpt lat="38.3374550" lon="-0.6945090">
        <ele>287.6</ele>
        <time>2018-03-30T06:32:25Z</time>
      </trkpt>
      <trkpt lat="38.3375040" lon="-0.6944630">
        <ele>287.4</ele>
        <time>2018-03-30T06:32:26Z</time>
      </trkpt>
      <trkpt lat="38.3375660" lon="-0.6944410">
        <ele>287.2</ele>
        <time>2018-03-30T06:32:27Z</time>
      </trkpt>
      <trkpt lat="38.3376340" lon="-0.6944210">
        <ele>287.0</ele>
        <time>2018-03-30T06:32:28Z</time>
      </trkpt>
      <trkpt lat="38.3377020" lon="-0.6944040">
        <ele>286.8</ele>
        <time>2018-03-30T06:32:29Z</time>
      </trkpt>
      <trkpt lat="38.3377700" lon="-0.6943850">
        <ele>286.6</ele>
        <time>2018-03-30T06:32:30Z</time>
      </trkpt>
      <trkpt lat="38.3378390" lon="-0.6943630">
        <ele>286.4</ele>
        <time>2018-03-30T06:32:31Z</time>
      </trkpt>
      <trkpt lat="38.3379070" lon="-0.6943350">
        <ele>286.2</ele>
        <time>2018-03-30T06:32:32Z</time>
      </trkpt>
      <trkpt lat="38.3379740" lon="-0.6942990">
        <ele>286.0</ele>
        <time>2018-03-30T06:32:33Z</time>
      </trkpt>
      <trkpt lat="38.3380420" lon="-0.6942580">
        <ele>285.8</ele>
        <time>2018-03-30T06:32:34Z</time>
      </trkpt>
      <trkpt lat="38.3381090" lon="-0.6942180">
        <ele>285.7</ele>
        <time>2018-03-30T06:32:35Z</time>
      </trkpt>
      <trkpt lat="38.3381750" lon="-0.6941780">
        <ele>285.5</ele>
        <time>2018-03-30T06:32:36Z</time>
      </trkpt>
      <trkpt lat="38.3382400" lon="-0.6941390">
        <ele>285.4</ele>
        <time>2018-03-30T06:32:37Z</time>
      </trkpt>
      <trkpt lat="38.3383040" lon="-0.6941000">
        <ele>285.3</ele>
        <time>2018-03-30T06:32:38Z</time>
      </trkpt>
      <trkpt lat="38.3383670" lon="-0.6940600">
        <ele>285.2</ele>
        <time>2018-03-30T06:32:39Z</time>
      </trkpt>
      <trkpt lat="38.3384320" lon="-0.6940230">
        <ele>285.0</ele>
        <time>2018-03-30T06:32:40Z</time>
      </trkpt>
      <trkpt lat="38.3385000" lon="-0.6939880">
        <ele>284.9</ele>
        <time>2018-03-30T06:32:41Z</time>
      </trkpt>
      <trkpt lat="38.3385730" lon="-0.6939570">
        <ele>284.8</ele>
        <time>2018-03-30T06:32:42Z</time>
      </trkpt>
      <trkpt lat="38.3386480" lon="-0.6939290">
        <ele>284.6</ele>
        <time>2018-03-30T06:32:43Z</time>
      </trkpt>
      <trkpt lat="38.3387220" lon="-0.6939070">
        <ele>284.5</ele>
        <time>2018-03-30T06:32:44Z</time>
      </trkpt>
      <trkpt lat="38.3387960" lon="-0.6938870">
        <ele>284.3</ele>
        <time>2018-03-30T06:32:45Z</time>
      </trkpt>
      <trkpt lat="38.3388730" lon="-0.6938670">
        <ele>284.1</ele>
        <time>2018-03-30T06:32:46Z</time>
      </trkpt>
      <trkpt lat="38.3389490" lon="-0.6938480">
        <ele>283.9</ele>
        <time>2018-03-30T06:32:47Z</time>
      </trkpt>
      <trkpt lat="38.3390300" lon="-0.6938260">
        <ele>283.7</ele>
        <time>2018-03-30T06:32:48Z</time>
      </trkpt>
      <trkpt lat="38.3391140" lon="-0.6938090">
        <ele>283.5</ele>
        <time>2018-03-30T06:32:49Z</time>
      </trkpt>
      <trkpt lat="38.3392010" lon="-0.6937960">
        <ele>283.0</ele>
        <time>2018-03-30T06:32:50Z</time>
      </trkpt>
      <trkpt lat="38.3392840" lon="-0.6937850">
        <ele>282.7</ele>
        <time>2018-03-30T06:32:51Z</time>
      </trkpt>
      <trkpt lat="38.3393710" lon="-0.6937800">
        <ele>282.3</ele>
        <time>2018-03-30T06:32:52Z</time>
      </trkpt>
      <trkpt lat="38.3394600" lon="-0.6938070">
        <ele>282.0</ele>
        <time>2018-03-30T06:32:53Z</time>
      </trkpt>
      <trkpt lat="38.3395480" lon="-0.6938180">
        <ele>281.4</ele>
        <time>2018-03-30T06:32:54Z</time>
      </trkpt>
      <trkpt lat="38.3396380" lon="-0.6938300">
        <ele>280.6</ele>
        <time>2018-03-30T06:32:55Z</time>
      </trkpt>
      <trkpt lat="38.3397280" lon="-0.6938410">
        <ele>280.0</ele>
        <time>2018-03-30T06:32:56Z</time>
      </trkpt>
      <trkpt lat="38.3398220" lon="-0.6938470">
        <ele>279.3</ele>
        <time>2018-03-30T06:32:57Z</time>
      </trkpt>
      <trkpt lat="38.3399170" lon="-0.6938570">
        <ele>278.6</ele>
        <time>2018-03-30T06:32:58Z</time>
      </trkpt>
      <trkpt lat="38.3400150" lon="-0.6938640">
        <ele>277.8</ele>
        <time>2018-03-30T06:32:59Z</time>
      </trkpt>
      <trkpt lat="38.3401150" lon="-0.6938780">
        <ele>277.0</ele>
        <time>2018-03-30T06:33:00Z</time>
      </trkpt>
      <trkpt lat="38.3402160" lon="-0.6938970">
        <ele>276.2</ele>
        <time>2018-03-30T06:33:01Z</time>
      </trkpt>
      <trkpt lat="38.3403200" lon="-0.6939240">
        <ele>275.3</ele>
        <time>2018-03-30T06:33:02Z</time>
      </trkpt>
      <trkpt lat="38.3404230" lon="-0.6939570">
        <ele>274.5</ele>
        <time>2018-03-30T06:33:03Z</time>
      </trkpt>
      <trkpt lat="38.3405250" lon="-0.6939960">
        <ele>273.8</ele>
        <time>2018-03-30T06:33:04Z</time>
      </trkpt>
      <trkpt lat="38.3406250" lon="-0.6940380">
        <ele>273.0</ele>
        <time>2018-03-30T06:33:05Z</time>
      </trkpt>
      <trkpt lat="38.3407260" lon="-0.6940820">
        <ele>272.2</ele>
        <time>2018-03-30T06:33:06Z</time>
      </trkpt>
      <trkpt lat="38.3408290" lon="-0.6941220">
        <ele>271.3</ele>
        <time>2018-03-30T06:33:07Z</time>
      </trkpt>
      <trkpt lat="38.3409310" lon="-0.6941520">
        <ele>270.7</ele>
        <time>2018-03-30T06:33:08Z</time>
      </trkpt>
      <trkpt lat="38.3410340" lon="-0.6941670">
        <ele>270.2</ele>
        <time>2018-03-30T06:33:09Z</time>
      </trkpt>
      <trkpt lat="38.3411370" lon="-0.6941710">
        <ele>269.6</ele>
        <time>2018-03-30T06:33:10Z</time>
      </trkpt>
      <trkpt lat="38.3412380" lon="-0.6941760">
        <ele>269.1</ele>
        <time>2018-03-30T06:33:11Z</time>
      </trkpt>
      <trkpt lat="38.3413370" lon="-0.6941970">
        <ele>268.5</ele>
        <time>2018-03-30T06:33:12Z</time>
      </trkpt>
      <trkpt lat="38.3414330" lon="-0.6942290">
        <ele>268.0</ele>
        <time>2018-03-30T06:33:13Z</time>
      </trkpt>
      <trkpt lat="38.3415310" lon="-0.6942630">
        <ele>267.4</ele>
        <time>2018-03-30T06:33:14Z</time>
      </trkpt>
      <trkpt lat="38.3416280" lon="-0.6942950">
        <ele>267.0</ele>
        <time>2018-03-30T06:33:15Z</time>
      </trkpt>
      <trkpt lat="38.3417250" lon="-0.6943130">
        <ele>266.6</ele>
        <time>2018-03-30T06:33:16Z</time>
      </trkpt>
      <trkpt lat="38.3418220" lon="-0.6943110">
        <ele>266.1</ele>
        <time>2018-03-30T06:33:17Z</time>
      </trkpt>
      <trkpt lat="38.3419160" lon="-0.6942980">
        <ele>265.6</ele>
        <time>2018-03-30T06:33:18Z</time>
      </trkpt>
      <trkpt lat="38.3420080" lon="-0.6942850">
        <ele>265.2</ele>
        <time>2018-03-30T06:33:19Z</time>
      </trkpt>
      <trkpt lat="38.3420980" lon="-0.6942630">
        <ele>265.0</ele>
        <time>2018-03-30T06:33:20Z</time>
      </trkpt>
      <trkpt lat="38.3421860" lon="-0.6942290">
        <ele>264.8</ele>
        <time>2018-03-30T06:33:21Z</time>
      </trkpt>
      <trkpt lat="38.3422700" lon="-0.6941950">
        <ele>264.7</ele>
        <time>2018-03-30T06:33:22Z</time>
      </trkpt>
      <trkpt lat="38.3423540" lon="-0.6941600">
        <ele>264.6</ele>
        <time>2018-03-30T06:33:23Z</time>
      </trkpt>
      <trkpt lat="38.3424370" lon="-0.6941320">
        <ele>264.5</ele>
        <time>2018-03-30T06:33:24Z</time>
      </trkpt>
      <trkpt lat="38.3425220" lon="-0.6941110">
        <ele>264.4</ele>
        <time>2018-03-30T06:33:25Z</time>
      </trkpt>
      <trkpt lat="38.3426040" lon="-0.6940930">
        <ele>264.3</ele>
        <time>2018-03-30T06:33:26Z</time>
      </trkpt>
      <trkpt lat="38.3426860" lon="-0.6940780">
        <ele>264.2</ele>
        <time>2018-03-30T06:33:27Z</time>
      </trkpt>
      <trkpt lat="38.3427670" lon="-0.6940660">
        <ele>264.2</ele>
        <time>2018-03-30T06:33:28Z</time>
      </trkpt>
      <trkpt lat="38.3428480" lon="-0.6940570">
        <ele>264.1</ele>
        <time>2018-03-30T06:33:29Z</time>
      </trkpt>
      <trkpt lat="38.3429280" lon="-0.6940510">
        <ele>264.0</ele>
        <time>2018-03-30T06:33:30Z</time>
      </trkpt>
      <trkpt lat="38.3430070" lon="-0.6940460">
        <ele>264.0</ele>
        <time>2018-03-30T06:33:31Z</time>
      </trkpt>
      <trkpt lat="38.3430870" lon="-0.6940410">
        <ele>263.9</ele>
        <time>2018-03-30T06:33:32Z</time>
      </trkpt>
      <trkpt lat="38.3431670" lon="-0.6940320">
        <ele>263.9</ele>
        <time>2018-03-30T06:33:33Z</time>
      </trkpt>
      <trkpt lat="38.3432470" lon="-0.6940170">
        <ele>263.8</ele>
        <time>2018-03-30T06:33:34Z</time>
      </trkpt>
      <trkpt lat="38.3433260" lon="-0.6939980">
        <ele>263.6</ele>
        <time>2018-03-30T06:33:35Z</time>
      </trkpt>
      <trkpt lat="38.3434040" lon="-0.6939770">
        <ele>263.5</ele>
        <time>2018-03-30T06:33:36Z</time>
      </trkpt>
      <trkpt lat="38.3434830" lon="-0.6939630">
        <ele>263.3</ele>
        <time>2018-03-30T06:33:37Z</time>
      </trkpt>
      <trkpt lat="38.3435610" lon="-0.6939710">
        <ele>263.1</ele>
        <time>2018-03-30T06:33:38Z</time>
      </trkpt>
      <trkpt lat="38.3436400" lon="-0.6939830">
        <ele>262.6</ele>
        <time>2018-03-30T06:33:39Z</time>
      </trkpt>
      <trkpt lat="38.3437190" lon="-0.6939990">
        <ele>262.3</ele>
        <time>2018-03-30T06:33:40Z</time>
      </trkpt>
      <trkpt lat="38.3437980" lon="-0.6940170">
        <ele>262.0</ele>
        <time>2018-03-30T06:33:41Z</time>
      </trkpt>
      <trkpt lat="38.3438800" lon="-0.6940380">
        <ele>261.7</ele>
        <time>2018-03-30T06:33:42Z</time>
      </trkpt>
      <trkpt lat="38.3439620" lon="-0.6940560">
        <ele>261.4</ele>
        <time>2018-03-30T06:33:43Z</time>
      </trkpt>
      <trkpt lat="38.3440480" lon="-0.6940720">
        <ele>261.0</ele>
        <time>2018-03-30T06:33:44Z</time>
      </trkpt>
      <trkpt lat="38.3441350" lon="-0.6940900">
        <ele>260.6</ele>
        <time>2018-03-30T06:33:45Z</time>
      </trkpt>
      <trkpt lat="38.3442230" lon="-0.6941090">
        <ele>260.2</ele>
        <time>2018-03-30T06:33:46Z</time>
      </trkpt>
      <trkpt lat="38.3443110" lon="-0.6941240">
        <ele>259.8</ele>
        <time>2018-03-30T06:33:47Z</time>
      </trkpt>
      <trkpt lat="38.3443980" lon="-0.6941280">
        <ele>259.3</ele>
        <time>2018-03-30T06:33:48Z</time>
      </trkpt>
      <trkpt lat="38.3444830" lon="-0.6941220">
        <ele>259.1</ele>
        <time>2018-03-30T06:33:49Z</time>
      </trkpt>
      <trkpt lat="38.3445660" lon="-0.6941060">
        <ele>258.9</ele>
        <time>2018-03-30T06:33:50Z</time>
      </trkpt>
      <trkpt lat="38.3446470" lon="-0.6940830">
        <ele>258.6</ele>
        <time>2018-03-30T06:33:51Z</time>
      </trkpt>
      <trkpt lat="38.3447280" lon="-0.6940570">
        <ele>258.3</ele>
        <time>2018-03-30T06:33:52Z</time>
      </trkpt>
      <trkpt lat="38.3448090" lon="-0.6940370">
        <ele>258.1</ele>
        <time>2018-03-30T06:33:53Z</time>
      </trkpt>
      <trkpt lat="38.3448890" lon="-0.6940230">
        <ele>257.9</ele>
        <time>2018-03-30T06:33:54Z</time>
      </trkpt>
      <trkpt lat="38.3449680" lon="-0.6940130">
        <ele>257.8</ele>
        <time>2018-03-30T06:33:55Z</time>
      </trkpt>
      <trkpt lat="38.3450470" lon="-0.6940040">
        <ele>257.6</ele>
        <time>2018-03-30T06:33:56Z</time>
      </trkpt>
      <trkpt lat="38.3451270" lon="-0.6939950">
        <ele>257.5</ele>
        <time>2018-03-30T06:33:57Z</time>
      </trkpt>
      <trkpt lat="38.3452060" lon="-0.6939860">
        <ele>257.3</ele>
        <time>2018-03-30T06:33:58Z</time>
      </trkpt>
      <trkpt lat="38.3452860" lon="-0.6939740">
        <ele>257.2</ele>
        <time>2018-03-30T06:33:59Z</time>
      </trkpt>
      <trkpt lat="38.3453660" lon="-0.6939590">
        <ele>257.0</ele>
        <time>2018-03-30T06:34:00Z</time>
      </trkpt>
      <trkpt lat="38.3454460" lon="-0.6939400">
        <ele>256.8</ele>
        <time>2018-03-30T06:34:01Z</time>
      </trkpt>
      <trkpt lat="38.3455260" lon="-0.6939180">
        <ele>256.7</ele>
        <time>2018-03-30T06:34:02Z</time>
      </trkpt>
      <trkpt lat="38.3456060" lon="-0.6938940">
        <ele>256.5</ele>
        <time>2018-03-30T06:34:03Z</time>
      </trkpt>
      <trkpt lat="38.3456860" lon="-0.6938680">
        <ele>256.2</ele>
        <time>2018-03-30T06:34:04Z</time>
      </trkpt>
      <trkpt lat="38.3457650" lon="-0.6938410">
        <ele>255.9</ele>
        <time>2018-03-30T06:34:05Z</time>
      </trkpt>
      <trkpt lat="38.3458440" lon="-0.6938120">
        <ele>255.7</ele>
        <time>2018-03-30T06:34:06Z</time>
      </trkpt>
      <trkpt lat="38.3459240" lon="-0.6937840">
        <ele>255.6</ele>
        <time>2018-03-30T06:34:07Z</time>
      </trkpt>
      <trkpt lat="38.3460020" lon="-0.6937550">
        <ele>255.5</ele>
        <time>2018-03-30T06:34:08Z</time>
      </trkpt>
      <trkpt lat="38.3460790" lon="-0.6937300">
        <ele>255.4</ele>
        <time>2018-03-30T06:34:09Z</time>
      </trkpt>
      <trkpt lat="38.3461570" lon="-0.6937080">
        <ele>255.3</ele>
        <time>2018-03-30T06:34:10Z</time>
      </trkpt>
      <trkpt lat="38.3462350" lon="-0.6936910">
        <ele>255.2</ele>
        <time>2018-03-30T06:34:11Z</time>
      </trkpt>
      <trkpt lat="38.3463110" lon="-0.6936740">
        <ele>255.1</ele>
        <time>2018-03-30T06:34:12Z</time>
      </trkpt>
      <trkpt lat="38.3463870" lon="-0.6936590">
        <ele>255.1</ele>
        <time>2018-03-30T06:34:13Z</time>
      </trkpt>
      <trkpt lat="38.3464620" lon="-0.6936480">
        <ele>255.0</ele>
        <time>2018-03-30T06:34:14Z</time>
      </trkpt>
      <trkpt lat="38.3465350" lon="-0.6936420">
        <ele>255.0</ele>
        <time>2018-03-30T06:34:15Z</time>
      </trkpt>
      <trkpt lat="38.3466070" lon="-0.6936350">
        <ele>255.0</ele>
        <time>2018-03-30T06:34:16Z</time>
      </trkpt>
      <trkpt lat="38.3466780" lon="-0.6936280">
        <ele>255.0</ele>
        <time>2018-03-30T06:34:17Z</time>
      </trkpt>
      <trkpt lat="38.3467470" lon="-0.6936250">
        <ele>255.0</ele>
        <time>2018-03-30T06:34:18Z</time>
      </trkpt>
      <trkpt lat="38.3468150" lon="-0.6936190">
        <ele>254.9</ele>
        <time>2018-03-30T06:34:19Z</time>
      </trkpt>
      <trkpt lat="38.3468830" lon="-0.6936070">
        <ele>254.9</ele>
        <time>2018-03-30T06:34:20Z</time>
      </trkpt>
      <trkpt lat="38.3469520" lon="-0.6935870">
        <ele>254.8</ele>
        <time>2018-03-30T06:34:21Z</time>
      </trkpt>
      <trkpt lat="38.3470180" lon="-0.6935620">
        <ele>254.8</ele>
        <time>2018-03-30T06:34:22Z</time>
      </trkpt>
      <trkpt lat="38.3470840" lon="-0.6935360">
        <ele>254.7</ele>
        <time>2018-03-30T06:34:23Z</time>
      </trkpt>
      <trkpt lat="38.3471510" lon="-0.6935080">
        <ele>254.7</ele>
        <time>2018-03-30T06:34:24Z</time>
      </trkpt>
      <trkpt lat="38.3472170" lon="-0.6934790">
        <ele>254.6</ele>
        <time>2018-03-30T06:34:25Z</time>
      </trkpt>
      <trkpt lat="38.3472840" lon="-0.6934480">
        <ele>254.5</ele>
        <time>2018-03-30T06:34:26Z</time>
      </trkpt>
      <trkpt lat="38.3473510" lon="-0.6934180">
        <ele>254.4</ele>
        <time>2018-03-30T06:34:27Z</time>
      </trkpt>
      <trkpt lat="38.3474200" lon="-0.6933870">
        <ele>254.3</ele>
        <time>2018-03-30T06:34:28Z</time>
      </trkpt>
      <trkpt lat="38.3474900" lon="-0.6933600">
        <ele>254.2</ele>
        <time>2018-03-30T06:34:29Z</time>
      </trkpt>
      <trkpt lat="38.3475600" lon="-0.6933350">
        <ele>254.1</ele>
        <time>2018-03-30T06:34:30Z</time>
      </trkpt>
      <trkpt lat="38.3476300" lon="-0.6933100">
        <ele>254.1</ele>
        <time>2018-03-30T06:34:31Z</time>
      </trkpt>
      <trkpt lat="38.3477000" lon="-0.6932860">
        <ele>254.0</ele>
        <time>2018-03-30T06:34:32Z</time>
      </trkpt>
      <trkpt lat="38.3477710" lon="-0.6932640">
        <ele>254.0</ele>
        <time>2018-03-30T06:34:33Z</time>
      </trkpt>
      <trkpt lat="38.3478420" lon="-0.6932420">
        <ele>254.0</ele>
        <time>2018-03-30T06:34:34Z</time>
      </trkpt>
      <trkpt lat="38.3479130" lon="-0.6932180">
        <ele>253.9</ele>
        <time>2018-03-30T06:34:35Z</time>
      </trkpt>
      <trkpt lat="38.3479830" lon="-0.6931930">
        <ele>253.9</ele>
        <time>2018-03-30T06:34:36Z</time>
      </trkpt>
      <trkpt lat="38.3480520" lon="-0.6931630">
        <ele>253.8</ele>
        <time>2018-03-30T06:34:37Z</time>
      </trkpt>
      <trkpt lat="38.3481190" lon="-0.6931240">
        <ele>253.8</ele>
        <time>2018-03-30T06:34:38Z</time>
      </trkpt>
      <trkpt lat="38.3481810" lon="-0.6930790">
        <ele>253.7</ele>
        <time>2018-03-30T06:34:39Z</time>
      </trkpt>
      <trkpt lat="38.3482400" lon="-0.6930270">
        <ele>253.7</ele>
        <time>2018-03-30T06:34:40Z</time>
      </trkpt>
      <trkpt lat="38.3483000" lon="-0.6929740">
        <ele>253.7</ele>
        <time>2018-03-30T06:34:41Z</time>
      </trkpt>
      <trkpt lat="38.3483620" lon="-0.6929260">
        <ele>253.7</ele>
        <time>2018-03-30T06:34:42Z</time>
      </trkpt>
      <trkpt lat="38.3484260" lon="-0.6928850">
        <ele>253.7</ele>
        <time>2018-03-30T06:34:43Z</time>
      </trkpt>
      <trkpt lat="38.3484930" lon="-0.6928500">
        <ele>253.7</ele>
        <time>2018-03-30T06:34:44Z</time>
      </trkpt>
      <trkpt lat="38.3485610" lon="-0.6928200">
        <ele>253.7</ele>
        <time>2018-03-30T06:34:45Z</time>
      </trkpt>
      <trkpt lat="38.3486290" lon="-0.6927910">
        <ele>253.7</ele>
        <time>2018-03-30T06:34:46Z</time>
      </trkpt>
      <trkpt lat="38.3486980" lon="-0.6927640">
        <ele>253.7</ele>
        <time>2018-03-30T06:34:47Z</time>
      </trkpt>
      <trkpt lat="38.3487640" lon="-0.6927370">
        <ele>253.7</ele>
        <time>2018-03-30T06:34:48Z</time>
      </trkpt>
      <trkpt lat="38.3488300" lon="-0.6927110">
        <ele>253.7</ele>
        <time>2018-03-30T06:34:49Z</time>
      </trkpt>
      <trkpt lat="38.3488950" lon="-0.6926860">
        <ele>253.7</ele>
        <time>2018-03-30T06:34:50Z</time>
      </trkpt>
      <trkpt lat="38.3489590" lon="-0.6926620">
        <ele>253.7</ele>
        <time>2018-03-30T06:34:51Z</time>
      </trkpt>
      <trkpt lat="38.3490220" lon="-0.6926400">
        <ele>253.8</ele>
        <time>2018-03-30T06:34:52Z</time>
      </trkpt>
      <trkpt lat="38.3490830" lon="-0.6926200">
        <ele>253.8</ele>
        <time>2018-03-30T06:34:53Z</time>
      </trkpt>
      <trkpt lat="38.3491410" lon="-0.6925980">
        <ele>253.8</ele>
        <time>2018-03-30T06:34:54Z</time>
      </trkpt>
      <trkpt lat="38.3491990" lon="-0.6925780">
        <ele>253.8</ele>
        <time>2018-03-30T06:34:55Z</time>
      </trkpt>
      <trkpt lat="38.3492550" lon="-0.6925580">
        <ele>253.9</ele>
        <time>2018-03-30T06:34:56Z</time>
      </trkpt>
      <trkpt lat="38.3493110" lon="-0.6925370">
        <ele>253.9</ele>
        <time>2018-03-30T06:34:57Z</time>
      </trkpt>
      <trkpt lat="38.3493640" lon="-0.6925140">
        <ele>253.9</ele>
        <time>2018-03-30T06:34:58Z</time>
      </trkpt>
      <trkpt lat="38.3494150" lon="-0.6924840">
        <ele>253.9</ele>
        <time>2018-03-30T06:34:59Z</time>
      </trkpt>
      <trkpt lat="38.3494570" lon="-0.6924540">
        <ele>253.9</ele>
        <time>2018-03-30T06:35:00Z</time>
      </trkpt>
      <trkpt lat="38.3494830" lon="-0.6924350">
        <ele>253.9</ele>
        <time>2018-03-30T06:35:01Z</time>
      </trkpt>
      <trkpt lat="38.3494990" lon="-0.6924270">
        <ele>253.9</ele>
        <time>2018-03-30T06:35:02Z</time>
      </trkpt>
      <trkpt lat="38.3495090" lon="-0.6924130">
        <ele>254.0</ele>
        <time>2018-03-30T06:35:03Z</time>
      </trkpt>
      <trkpt lat="38.3495120" lon="-0.6924070">
        <ele>254.0</ele>
        <time>2018-03-30T06:35:04Z</time>
      </trkpt>
      <trkpt lat="38.3495120" lon="-0.6924100">
        <ele>254.0</ele>
        <time>2018-03-30T06:35:05Z</time>
      </trkpt>
      <trkpt lat="38.3495100" lon="-0.6924110">
        <ele>254.0</ele>
        <time>2018-03-30T06:35:06Z</time>
      </trkpt>
      <trkpt lat="38.3495100" lon="-0.6924040">
        <ele>254.0</ele>
        <time>2018-03-30T06:35:07Z</time>
      </trkpt>
      <trkpt lat="38.3495200" lon="-0.6923890">
        <ele>254.0</ele>
        <time>2018-03-30T06:35:08Z</time>
      </trkpt>
      <trkpt lat="38.3495350" lon="-0.6923820">
        <ele>254.0</ele>
        <time>2018-03-30T06:35:09Z</time>
      </trkpt>
      <trkpt lat="38.3495550" lon="-0.6923760">
        <ele>254.0</ele>
        <time>2018-03-30T06:35:10Z</time>
      </trkpt>
      <trkpt lat="38.3495760" lon="-0.6923610">
        <ele>254.0</ele>
        <time>2018-03-30T06:35:11Z</time>
      </trkpt>
      <trkpt lat="38.3495960" lon="-0.6923430">
        <ele>254.0</ele>
        <time>2018-03-30T06:35:12Z</time>
      </trkpt>
      <trkpt lat="38.3496220" lon="-0.6923180">
        <ele>254.0</ele>
        <time>2018-03-30T06:35:13Z</time>
      </trkpt>
      <trkpt lat="38.3496520" lon="-0.6922960">
        <ele>254.1</ele>
        <time>2018-03-30T06:35:14Z</time>
      </trkpt>
      <trkpt lat="38.3496860" lon="-0.6922720">
        <ele>254.1</ele>
        <time>2018-03-30T06:35:15Z</time>
      </trkpt>
      <trkpt lat="38.3497220" lon="-0.6922450">
        <ele>254.1</ele>
        <time>2018-03-30T06:35:16Z</time>
      </trkpt>
      <trkpt lat="38.3497590" lon="-0.6922160">
        <ele>254.1</ele>
        <time>2018-03-30T06:35:17Z</time>
      </trkpt>
      <trkpt lat="38.3497960" lon="-0.6921890">
        <ele>254.1</ele>
        <time>2018-03-30T06:35:18Z</time>
      </trkpt>
      <trkpt lat="38.3498340" lon="-0.6921600">
        <ele>254.2</ele>
        <time>2018-03-30T06:35:19Z</time>
      </trkpt>
      <trkpt lat="38.3498730" lon="-0.6921330">
        <ele>254.2</ele>
        <time>2018-03-30T06:35:20Z</time>
      </trkpt>
      <trkpt lat="38.3499130" lon="-0.6921060">
        <ele>254.2</ele>
        <time>2018-03-30T06:35:21Z</time>
      </trkpt>
      <trkpt lat="38.3499550" lon="-0.6920820">
        <ele>254.2</ele>
        <time>2018-03-30T06:35:22Z</time>
      </trkpt>
      <trkpt lat="38.3500010" lon="-0.6920640">
        <ele>254.2</ele>
        <time>2018-03-30T06:35:23Z</time>
      </trkpt>
      <trkpt lat="38.3500470" lon="-0.6920460">
        <ele>254.2</ele>
        <time>2018-03-30T06:35:24Z</time>
      </trkpt>
      <trkpt lat="38.3500940" lon="-0.6920280">
        <ele>254.2</ele>
        <time>2018-03-30T06:35:25Z</time>
      </trkpt>
      <trkpt lat="38.3501420" lon="-0.6920130">
        <ele>254.3</ele>
        <time>2018-03-30T06:35:26Z</time>
      </trkpt>
      <trkpt lat="38.3501920" lon="-0.6919980">
        <ele>254.3</ele>
        <time>2018-03-30T06:35:27Z</time>
      </trkpt>
      <trkpt lat="38.3502420" lon="-0.6919850">
        <ele>254.3</ele>
        <time>2018-03-30T06:35:28Z</time>
      </trkpt>
      <trkpt lat="38.3502950" lon="-0.6919700">
        <ele>254.3</ele>
        <time>2018-03-30T06:35:29Z</time>
      </trkpt>
      <trkpt lat="38.3503480" lon="-0.6919550">
        <ele>254.2</ele>
        <time>2018-03-30T06:35:30Z</time>
      </trkpt>
      <trkpt lat="38.3504010" lon="-0.6919390">
        <ele>254.2</ele>
        <time>2018-03-30T06:35:31Z</time>
      </trkpt>
      <trkpt lat="38.3504570" lon="-0.6919250">
        <ele>254.2</ele>
        <time>2018-03-30T06:35:32Z</time>
      </trkpt>
      <trkpt lat="38.3505120" lon="-0.6919090">
        <ele>254.2</ele>
        <time>2018-03-30T06:35:33Z</time>
      </trkpt>
      <trkpt lat="38.3505680" lon="-0.6918900">
        <ele>254.2</ele>
        <time>2018-03-30T06:35:34Z</time>
      </trkpt>
      <trkpt lat="38.3506240" lon="-0.6918720">
        <ele>254.1</ele>
        <time>2018-03-30T06:35:35Z</time>
      </trkpt>
      <trkpt lat="38.3506820" lon="-0.6918570">
        <ele>254.1</ele>
        <time>2018-03-30T06:35:36Z</time>
      </trkpt>
      <trkpt lat="38.3507410" lon="-0.6918430">
        <ele>254.0</ele>
        <time>2018-03-30T06:35:37Z</time>
      </trkpt>
      <trkpt lat="38.3507990" lon="-0.6918270">
        <ele>254.0</ele>
        <time>2018-03-30T06:35:38Z</time>
      </trkpt>
      <trkpt lat="38.3508590" lon="-0.6918130">
        <ele>254.0</ele>
        <time>2018-03-30T06:35:39Z</time>
      </trkpt>
      <trkpt lat="38.3509230" lon="-0.6918020">
        <ele>253.8</ele>
        <time>2018-03-30T06:35:40Z</time>
      </trkpt>
      <trkpt lat="38.3509850" lon="-0.6917980">
        <ele>253.6</ele>
        <time>2018-03-30T06:35:41Z</time>
      </trkpt>
      <trkpt lat="38.3510480" lon="-0.6918090">
        <ele>253.5</ele>
        <time>2018-03-30T06:35:42Z</time>
      </trkpt>
      <trkpt lat="38.3511080" lon="-0.6918180">
        <ele>253.4</ele>
        <time>2018-03-30T06:35:43Z</time>
      </trkpt>
      <trkpt lat="38.3511680" lon="-0.6918310">
        <ele>253.3</ele>
        <time>2018-03-30T06:35:44Z</time>
      </trkpt>
      <trkpt lat="38.3512290" lon="-0.6918480">
        <ele>253.2</ele>
        <time>2018-03-30T06:35:45Z</time>
      </trkpt>
      <trkpt lat="38.3512890" lon="-0.6918670">
        <ele>253.1</ele>
        <time>2018-03-30T06:35:46Z</time>
      </trkpt>
      <trkpt lat="38.3513520" lon="-0.6918880">
        <ele>253.0</ele>
        <time>2018-03-30T06:35:47Z</time>
      </trkpt>
      <trkpt lat="38.3514150" lon="-0.6919090">
        <ele>252.9</ele>
        <time>2018-03-30T06:35:48Z</time>
      </trkpt>
      <trkpt lat="38.3514780" lon="-0.6919270">
        <ele>252.7</ele>
        <time>2018-03-30T06:35:49Z</time>
      </trkpt>
      <trkpt lat="38.3515410" lon="-0.6919510">
        <ele>252.5</ele>
        <time>2018-03-30T06:35:50Z</time>
      </trkpt>
      <trkpt lat="38.3516050" lon="-0.6919760">
        <ele>252.4</ele>
        <time>2018-03-30T06:35:51Z</time>
      </trkpt>
      <trkpt lat="38.3516690" lon="-0.6920020">
        <ele>252.0</ele>
        <time>2018-03-30T06:35:52Z</time>
      </trkpt>
      <trkpt lat="38.3517330" lon="-0.6920310">
        <ele>251.9</ele>
        <time>2018-03-30T06:35:53Z</time>
      </trkpt>
      <trkpt lat="38.3517960" lon="-0.6920640">
        <ele>251.7</ele>
        <time>2018-03-30T06:35:54Z</time>
      </trkpt>
      <trkpt lat="38.3518600" lon="-0.6920990">
        <ele>251.6</ele>
        <time>2018-03-30T06:35:55Z</time>
      </trkpt>
      <trkpt lat="38.3519220" lon="-0.6921370">
        <ele>251.4</ele>
        <time>2018-03-30T06:35:56Z</time>
      </trkpt>
      <trkpt lat="38.3519840" lon="-0.6921790">
        <ele>251.3</ele>
        <time>2018-03-30T06:35:57Z</time>
      </trkpt>
      <trkpt lat="38.3520460" lon="-0.6922190">
        <ele>251.0</ele>
        <time>2018-03-30T06:35:58Z</time>
      </trkpt>
      <trkpt lat="38.3521110" lon="-0.6922550">
        <ele>250.7</ele>
        <time>2018-03-30T06:35:59Z</time>
      </trkpt>
      <trkpt lat="38.3521800" lon="-0.6922840">
        <ele>250.5</ele>
        <time>2018-03-30T06:36:00Z</time>
      </trkpt>
      <trkpt lat="38.3522520" lon="-0.6923070">
        <ele>250.3</ele>
        <time>2018-03-30T06:36:01Z</time>
      </trkpt>
      <trkpt lat="38.3523270" lon="-0.6923110">
        <ele>250.1</ele>
        <time>2018-03-30T06:36:02Z</time>
      </trkpt>
      <trkpt lat="38.3524050" lon="-0.6923100">
        <ele>249.9</ele>
        <time>2018-03-30T06:36:03Z</time>
      </trkpt>
      <trkpt lat="38.3524840" lon="-0.6923040">
        <ele>249.6</ele>
        <time>2018-03-30T06:36:04Z</time>
      </trkpt>
      <trkpt lat="38.3525630" lon="-0.6923010">
        <ele>249.3</ele>
        <time>2018-03-30T06:36:05Z</time>
      </trkpt>
      <trkpt lat="38.3526420" lon="-0.6922980">
        <ele>249.1</ele>
        <time>2018-03-30T06:36:06Z</time>
      </trkpt>
      <trkpt lat="38.3527200" lon="-0.6922920">
        <ele>248.9</ele>
        <time>2018-03-30T06:36:07Z</time>
      </trkpt>
      <trkpt lat="38.3527970" lon="-0.6922880">
        <ele>248.6</ele>
        <time>2018-03-30T06:36:08Z</time>
      </trkpt>
      <trkpt lat="38.3528750" lon="-0.6922820">
        <ele>248.3</ele>
        <time>2018-03-30T06:36:09Z</time>
      </trkpt>
      <trkpt lat="38.3529520" lon="-0.6922770">
        <ele>248.1</ele>
        <time>2018-03-30T06:36:10Z</time>
      </trkpt>
      <trkpt lat="38.3530290" lon="-0.6922730">
        <ele>248.0</ele>
        <time>2018-03-30T06:36:11Z</time>
      </trkpt>
      <trkpt lat="38.3531070" lon="-0.6922680">
        <ele>247.9</ele>
        <time>2018-03-30T06:36:12Z</time>
      </trkpt>
      <trkpt lat="38.3531840" lon="-0.6922630">
        <ele>247.8</ele>
        <time>2018-03-30T06:36:13Z</time>
      </trkpt>
      <trkpt lat="38.3532600" lon="-0.6922580">
        <ele>247.7</ele>
        <time>2018-03-30T06:36:14Z</time>
      </trkpt>
      <trkpt lat="38.3533370" lon="-0.6922550">
        <ele>247.6</ele>
        <time>2018-03-30T06:36:15Z</time>
      </trkpt>
      <trkpt lat="38.3534120" lon="-0.6922550">
        <ele>247.5</ele>
        <time>2018-03-30T06:36:16Z</time>
      </trkpt>
      <trkpt lat="38.3534870" lon="-0.6922570">
        <ele>247.3</ele>
        <time>2018-03-30T06:36:17Z</time>
      </trkpt>
      <trkpt lat="38.3535610" lon="-0.6922590">
        <ele>247.2</ele>
        <time>2018-03-30T06:36:18Z</time>
      </trkpt>
      <trkpt lat="38.3536360" lon="-0.6922630">
        <ele>247.2</ele>
        <time>2018-03-30T06:36:19Z</time>
      </trkpt>
      <trkpt lat="38.3537110" lon="-0.6922700">
        <ele>247.1</ele>
        <time>2018-03-30T06:36:20Z</time>
      </trkpt>
      <trkpt lat="38.3537860" lon="-0.6922820">
        <ele>247.0</ele>
        <time>2018-03-30T06:36:21Z</time>
      </trkpt>
      <trkpt lat="38.3538590" lon="-0.6922990">
        <ele>247.0</ele>
        <time>2018-03-30T06:36:22Z</time>
      </trkpt>
      <trkpt lat="38.3539320" lon="-0.6923150">
        <ele>247.0</ele>
        <time>2018-03-30T06:36:23Z</time>
      </trkpt>
      <trkpt lat="38.3540040" lon="-0.6923290">
        <ele>246.9</ele>
        <time>2018-03-30T06:36:24Z</time>
      </trkpt>
      <trkpt lat="38.3540740" lon="-0.6923420">
        <ele>246.9</ele>
        <time>2018-03-30T06:36:25Z</time>
      </trkpt>
      <trkpt lat="38.3541440" lon="-0.6923530">
        <ele>246.9</ele>
        <time>2018-03-30T06:36:26Z</time>
      </trkpt>
      <trkpt lat="38.3542140" lon="-0.6923610">
        <ele>246.8</ele>
        <time>2018-03-30T06:36:27Z</time>
      </trkpt>
      <trkpt lat="38.3542840" lon="-0.6923640">
        <ele>246.8</ele>
        <time>2018-03-30T06:36:28Z</time>
      </trkpt>
      <trkpt lat="38.3543540" lon="-0.6923650">
        <ele>246.8</ele>
        <time>2018-03-30T06:36:29Z</time>
      </trkpt>
      <trkpt lat="38.3544220" lon="-0.6923620">
        <ele>246.8</ele>
        <time>2018-03-30T06:36:30Z</time>
      </trkpt>
      <trkpt lat="38.3544900" lon="-0.6923540">
        <ele>246.8</ele>
        <time>2018-03-30T06:36:31Z</time>
      </trkpt>
      <trkpt lat="38.3545560" lon="-0.6923400">
        <ele>246.8</ele>
        <time>2018-03-30T06:36:32Z</time>
      </trkpt>
      <trkpt lat="38.3546220" lon="-0.6923230">
        <ele>246.9</ele>
        <time>2018-03-30T06:36:33Z</time>
      </trkpt>
      <trkpt lat="38.3546860" lon="-0.6923020">
        <ele>247.0</ele>
        <time>2018-03-30T06:36:34Z</time>
      </trkpt>
      <trkpt lat="38.3547490" lon="-0.6922780">
        <ele>247.0</ele>
        <time>2018-03-30T06:36:35Z</time>
      </trkpt>
      <trkpt lat="38.3548120" lon="-0.6922520">
        <ele>247.1</ele>
        <time>2018-03-30T06:36:36Z</time>
      </trkpt>
      <trkpt lat="38.3548750" lon="-0.6922240">
        <ele>247.2</ele>
        <time>2018-03-30T06:36:37Z</time>
      </trkpt>
      <trkpt lat="38.3549370" lon="-0.6922000">
        <ele>247.3</ele>
        <time>2018-03-30T06:36:38Z</time>
      </trkpt>
      <trkpt lat="38.3549990" lon="-0.6921790">
        <ele>247.3</ele>
        <time>2018-03-30T06:36:39Z</time>
      </trkpt>
      <trkpt lat="38.3550610" lon="-0.6921580">
        <ele>247.4</ele>
        <time>2018-03-30T06:36:40Z</time>
      </trkpt>
      <trkpt lat="38.3551230" lon="-0.6921370">
        <ele>247.5</ele>
        <time>2018-03-30T06:36:41Z</time>
      </trkpt>
      <trkpt lat="38.3551850" lon="-0.6921160">
        <ele>247.5</ele>
        <time>2018-03-30T06:36:42Z</time>
      </trkpt>
      <trkpt lat="38.3552470" lon="-0.6920950">
        <ele>247.6</ele>
        <time>2018-03-30T06:36:43Z</time>
      </trkpt>
      <trkpt lat="38.3553090" lon="-0.6920730">
        <ele>247.7</ele>
        <time>2018-03-30T06:36:44Z</time>
      </trkpt>
      <trkpt lat="38.3553710" lon="-0.6920480">
        <ele>247.8</ele>
        <time>2018-03-30T06:36:45Z</time>
      </trkpt>
      <trkpt lat="38.3554320" lon="-0.6920230">
        <ele>247.9</ele>
        <time>2018-03-30T06:36:46Z</time>
      </trkpt>
      <trkpt lat="38.3554950" lon="-0.6919970">
        <ele>248.0</ele>
        <time>2018-03-30T06:36:47Z</time>
      </trkpt>
      <trkpt lat="38.3555560" lon="-0.6919690">
        <ele>248.1</ele>
        <time>2018-03-30T06:36:48Z</time>
      </trkpt>
      <trkpt lat="38.3556180" lon="-0.6919400">
        <ele>248.2</ele>
        <time>2018-03-30T06:36:49Z</time>
      </trkpt>
      <trkpt lat="38.3556790" lon="-0.6919080">
        <ele>248.3</ele>
        <time>2018-03-30T06:36:50Z</time>
      </trkpt>
      <trkpt lat="38.3557400" lon="-0.6918780">
        <ele>248.5</ele>
        <time>2018-03-30T06:36:51Z</time>
      </trkpt>
      <trkpt lat="38.3558010" lon="-0.6918460">
        <ele>248.6</ele>
        <time>2018-03-30T06:36:52Z</time>
      </trkpt>
      <trkpt lat="38.3558620" lon="-0.6918110">
        <ele>248.8</ele>
        <time>2018-03-30T06:36:53Z</time>
      </trkpt>
      <trkpt lat="38.3559220" lon="-0.6917770">
        <ele>249.0</ele>
        <time>2018-03-30T06:36:54Z</time>
      </trkpt>
      <trkpt lat="38.3559820" lon="-0.6917410">
        <ele>249.1</ele>
        <time>2018-03-30T06:36:55Z</time>
      </trkpt>
      <trkpt lat="38.3560440" lon="-0.6917070">
        <ele>249.3</ele>
        <time>2018-03-30T06:36:56Z</time>
      </trkpt>
      <trkpt lat="38.3561050" lon="-0.6916760">
        <ele>249.5</ele>
        <time>2018-03-30T06:36:57Z</time>
      </trkpt>
      <trkpt lat="38.3561670" lon="-0.6916510">
        <ele>249.6</ele>
        <time>2018-03-30T06:36:58Z</time>
      </trkpt>
      <trkpt lat="38.3562300" lon="-0.6916370">
        <ele>249.6</ele>
        <time>2018-03-30T06:36:59Z</time>
      </trkpt>
      <trkpt lat="38.3562920" lon="-0.6916200">
        <ele>249.7</ele>
        <time>2018-03-30T06:37:00Z</time>
      </trkpt>
      <trkpt lat="38.3563540" lon="-0.6916020">
        <ele>249.8</ele>
        <time>2018-03-30T06:37:01Z</time>
      </trkpt>
      <trkpt lat="38.3564140" lon="-0.6915860">
        <ele>249.9</ele>
        <time>2018-03-30T06:37:02Z</time>
      </trkpt>
      <trkpt lat="38.3564760" lon="-0.6915710">
        <ele>250.0</ele>
        <time>2018-03-30T06:37:03Z</time>
      </trkpt>
      <trkpt lat="38.3565380" lon="-0.6915560">
        <ele>250.1</ele>
        <time>2018-03-30T06:37:04Z</time>
      </trkpt>
      <trkpt lat="38.3566000" lon="-0.6915390">
        <ele>250.1</ele>
        <time>2018-03-30T06:37:05Z</time>
      </trkpt>
      <trkpt lat="38.3566640" lon="-0.6915230">
        <ele>250.2</ele>
        <time>2018-03-30T06:37:06Z</time>
      </trkpt>
      <trkpt lat="38.3567290" lon="-0.6915050">
        <ele>250.2</ele>
        <time>2018-03-30T06:37:07Z</time>
      </trkpt>
      <trkpt lat="38.3567940" lon="-0.6914850">
        <ele>250.2</ele>
        <time>2018-03-30T06:37:08Z</time>
      </trkpt>
      <trkpt lat="38.3568600" lon="-0.6914650">
        <ele>250.1</ele>
        <time>2018-03-30T06:37:09Z</time>
      </trkpt>
      <trkpt lat="38.3569260" lon="-0.6914450">
        <ele>250.1</ele>
        <time>2018-03-30T06:37:10Z</time>
      </trkpt>
      <trkpt lat="38.3569920" lon="-0.6914240">
        <ele>250.1</ele>
        <time>2018-03-30T06:37:11Z</time>
      </trkpt>
      <trkpt lat="38.3570580" lon="-0.6914050">
        <ele>250.2</ele>
        <time>2018-03-30T06:37:12Z</time>
      </trkpt>
      <trkpt lat="38.3571230" lon="-0.6913850">
        <ele>250.2</ele>
        <time>2018-03-30T06:37:13Z</time>
      </trkpt>
      <trkpt lat="38.3571870" lon="-0.6913650">
        <ele>250.2</ele>
        <time>2018-03-30T06:37:14Z</time>
      </trkpt>
      <trkpt lat="38.3572500" lon="-0.6913430">
        <ele>250.2</ele>
        <time>2018-03-30T06:37:15Z</time>
      </trkpt>
      <trkpt lat="38.3573120" lon="-0.6913200">
        <ele>250.3</ele>
        <time>2018-03-30T06:37:16Z</time>
      </trkpt>
      <trkpt lat="38.3573750" lon="-0.6912980">
        <ele>250.4</ele>
        <time>2018-03-30T06:37:17Z</time>
      </trkpt>
      <trkpt lat="38.3574370" lon="-0.6912770">
        <ele>250.6</ele>
        <time>2018-03-30T06:37:18Z</time>
      </trkpt>
      <trkpt lat="38.3574980" lon="-0.6912580">
        <ele>250.7</ele>
        <time>2018-03-30T06:37:19Z</time>
      </trkpt>
      <trkpt lat="38.3575580" lon="-0.6912390">
        <ele>250.9</ele>
        <time>2018-03-30T06:37:20Z</time>
      </trkpt>
      <trkpt lat="38.3576170" lon="-0.6912210">
        <ele>251.1</ele>
        <time>2018-03-30T06:37:21Z</time>
      </trkpt>
      <trkpt lat="38.3576760" lon="-0.6912030">
        <ele>251.2</ele>
        <time>2018-03-30T06:37:22Z</time>
      </trkpt>
      <trkpt lat="38.3577350" lon="-0.6911880">
        <ele>251.3</ele>
        <time>2018-03-30T06:37:23Z</time>
      </trkpt>
      <trkpt lat="38.3577930" lon="-0.6911740">
        <ele>251.4</ele>
        <time>2018-03-30T06:37:24Z</time>
      </trkpt>
      <trkpt lat="38.3578520" lon="-0.6911620">
        <ele>251.5</ele>
        <time>2018-03-30T06:37:25Z</time>
      </trkpt>
      <trkpt lat="38.3579110" lon="-0.6911520">
        <ele>251.6</ele>
        <time>2018-03-30T06:37:26Z</time>
      </trkpt>
      <trkpt lat="38.3579720" lon="-0.6911440">
        <ele>251.7</ele>
        <time>2018-03-30T06:37:27Z</time>
      </trkpt>
      <trkpt lat="38.3580340" lon="-0.6911370">
        <ele>251.8</ele>
        <time>2018-03-30T06:37:28Z</time>
      </trkpt>
      <trkpt lat="38.3580960" lon="-0.6911290">
        <ele>251.8</ele>
        <time>2018-03-30T06:37:29Z</time>
      </trkpt>
      <trkpt lat="38.3581590" lon="-0.6911190">
        <ele>251.8</ele>
        <time>2018-03-30T06:37:30Z</time>
      </trkpt>
      <trkpt lat="38.3582230" lon="-0.6911100">
        <ele>251.8</ele>
        <time>2018-03-30T06:37:31Z</time>
      </trkpt>
      <trkpt lat="38.3582870" lon="-0.6911040">
        <ele>251.8</ele>
        <time>2018-03-30T06:37:32Z</time>
      </trkpt>
      <trkpt lat="38.3583500" lon="-0.6910960">
        <ele>251.8</ele>
        <time>2018-03-30T06:37:33Z</time>
      </trkpt>
      <trkpt lat="38.3584140" lon="-0.6910880">
        <ele>251.8</ele>
        <time>2018-03-30T06:37:34Z</time>
      </trkpt>
      <trkpt lat="38.3584770" lon="-0.6910810">
        <ele>251.8</ele>
        <time>2018-03-30T06:37:35Z</time>
      </trkpt>
      <trkpt lat="38.3585400" lon="-0.6910760">
        <ele>251.9</ele>
        <time>2018-03-30T06:37:36Z</time>
      </trkpt>
      <trkpt lat="38.3586050" lon="-0.6910710">
        <ele>251.9</ele>
        <time>2018-03-30T06:37:37Z</time>
      </trkpt>
      <trkpt lat="38.3586690" lon="-0.6910660">
        <ele>251.9</ele>
        <time>2018-03-30T06:37:38Z</time>
      </trkpt>
      <trkpt lat="38.3587320" lon="-0.6910680">
        <ele>252.0</ele>
        <time>2018-03-30T06:37:39Z</time>
      </trkpt>
      <trkpt lat="38.3587960" lon="-0.6910690">
        <ele>252.0</ele>
        <time>2018-03-30T06:37:40Z</time>
      </trkpt>
      <trkpt lat="38.3588610" lon="-0.6910710">
        <ele>252.0</ele>
        <time>2018-03-30T06:37:41Z</time>
      </trkpt>
      <trkpt lat="38.3589250" lon="-0.6910730">
        <ele>252.1</ele>
        <time>2018-03-30T06:37:42Z</time>
      </trkpt>
      <trkpt lat="38.3589880" lon="-0.6910750">
        <ele>252.1</ele>
        <time>2018-03-30T06:37:43Z</time>
      </trkpt>
      <trkpt lat="38.3590520" lon="-0.6910780">
        <ele>252.2</ele>
        <time>2018-03-30T06:37:44Z</time>
      </trkpt>
      <trkpt lat="38.3591160" lon="-0.6910750">
        <ele>252.3</ele>
        <time>2018-03-30T06:37:45Z</time>
      </trkpt>
      <trkpt lat="38.3591790" lon="-0.6910720">
        <ele>252.4</ele>
        <time>2018-03-30T06:37:46Z</time>
      </trkpt>
      <trkpt lat="38.3592420" lon="-0.6910670">
        <ele>252.4</ele>
        <time>2018-03-30T06:37:47Z</time>
      </trkpt>
      <trkpt lat="38.3593050" lon="-0.6910600">
        <ele>252.5</ele>
        <time>2018-03-30T06:37:48Z</time>
      </trkpt>
      <trkpt lat="38.3593670" lon="-0.6910510">
        <ele>252.6</ele>
        <time>2018-03-30T06:37:49Z</time>
      </trkpt>
      <trkpt lat="38.3594280" lon="-0.6910400">
        <ele>252.6</ele>
        <time>2018-03-30T06:37:50Z</time>
      </trkpt>
      <trkpt lat="38.3594880" lon="-0.6910240">
        <ele>252.7</ele>
        <time>2018-03-30T06:37:51Z</time>
      </trkpt>
      <trkpt lat="38.3595480" lon="-0.6910060">
        <ele>252.7</ele>
        <time>2018-03-30T06:37:52Z</time>
      </trkpt>
      <trkpt lat="38.3596070" lon="-0.6909860">
        <ele>252.8</ele>
        <time>2018-03-30T06:37:53Z</time>
      </trkpt>
      <trkpt lat="38.3596660" lon="-0.6909660">
        <ele>252.8</ele>
        <time>2018-03-30T06:37:54Z</time>
      </trkpt>
      <trkpt lat="38.3597240" lon="-0.6909470">
        <ele>252.9</ele>
        <time>2018-03-30T06:37:55Z</time>
      </trkpt>
      <trkpt lat="38.3597800" lon="-0.6909210">
        <ele>252.9</ele>
        <time>2018-03-30T06:37:56Z</time>
      </trkpt>
      <trkpt lat="38.3598380" lon="-0.6908970">
        <ele>253.0</ele>
        <time>2018-03-30T06:37:57Z</time>
      </trkpt>
      <trkpt lat="38.3598950" lon="-0.6908740">
        <ele>253.0</ele>
        <time>2018-03-30T06:37:58Z</time>
      </trkpt>
      <trkpt lat="38.3599540" lon="-0.6908550">
        <ele>253.0</ele>
        <time>2018-03-30T06:37:59Z</time>
      </trkpt>
      <trkpt lat="38.3600140" lon="-0.6908380">
        <ele>253.0</ele>
        <time>2018-03-30T06:38:00Z</time>
      </trkpt>
      <trkpt lat="38.3600740" lon="-0.6908190">
        <ele>253.1</ele>
        <time>2018-03-30T06:38:01Z</time>
      </trkpt>
      <trkpt lat="38.3601350" lon="-0.6907990">
        <ele>253.1</ele>
        <time>2018-03-30T06:38:02Z</time>
      </trkpt>
      <trkpt lat="38.3601950" lon="-0.6907810">
        <ele>253.1</ele>
        <time>2018-03-30T06:38:03Z</time>
      </trkpt>
      <trkpt lat="38.3602570" lon="-0.6907650">
        <ele>253.2</ele>
        <time>2018-03-30T06:38:04Z</time>
      </trkpt>
      <trkpt lat="38.3603180" lon="-0.6907480">
        <ele>253.2</ele>
        <time>2018-03-30T06:38:05Z</time>
      </trkpt>
      <trkpt lat="38.3603800" lon="-0.6907340">
        <ele>253.2</ele>
        <time>2018-03-30T06:38:06Z</time>
      </trkpt>
      <trkpt lat="38.3604420" lon="-0.6907180">
        <ele>253.3</ele>
        <time>2018-03-30T06:38:07Z</time>
      </trkpt>
      <trkpt lat="38.3605030" lon="-0.6906980">
        <ele>253.3</ele>
        <time>2018-03-30T06:38:08Z</time>
      </trkpt>
      <trkpt lat="38.3605600" lon="-0.6906680">
        <ele>253.3</ele>
        <time>2018-03-30T06:38:09Z</time>
      </trkpt>
      <trkpt lat="38.3606170" lon="-0.6906300">
        <ele>253.4</ele>
        <time>2018-03-30T06:38:10Z</time>
      </trkpt>
      <trkpt lat="38.3606740" lon="-0.6905960">
        <ele>253.4</ele>
        <time>2018-03-30T06:38:11Z</time>
      </trkpt>
      <trkpt lat="38.3607320" lon="-0.6905580">
        <ele>253.4</ele>
        <time>2018-03-30T06:38:12Z</time>
      </trkpt>
      <trkpt lat="38.3607900" lon="-0.6905160">
        <ele>253.4</ele>
        <time>2018-03-30T06:38:13Z</time>
      </trkpt>
      <trkpt lat="38.3608480" lon="-0.6904740">
        <ele>253.3</ele>
        <time>2018-03-30T06:38:14Z</time>
      </trkpt>
      <trkpt lat="38.3609060" lon="-0.6904300">
        <ele>253.3</ele>
        <time>2018-03-30T06:38:15Z</time>
      </trkpt>
      <trkpt lat="38.3609640" lon="-0.6903860">
        <ele>253.3</ele>
        <time>2018-03-30T06:38:16Z</time>
      </trkpt>
      <trkpt lat="38.3610230" lon="-0.6903420">
        <ele>253.3</ele>
        <time>2018-03-30T06:38:17Z</time>
      </trkpt>
      <trkpt lat="38.3610830" lon="-0.6903010">
        <ele>253.2</ele>
        <time>2018-03-30T06:38:18Z</time>
      </trkpt>
      <trkpt lat="38.3611450" lon="-0.6902640">
        <ele>253.2</ele>
        <time>2018-03-30T06:38:19Z</time>
      </trkpt>
      <trkpt lat="38.3612070" lon="-0.6902290">
        <ele>253.2</ele>
        <time>2018-03-30T06:38:20Z</time>
      </trkpt>
      <trkpt lat="38.3612710" lon="-0.6901990">
        <ele>253.2</ele>
        <time>2018-03-30T06:38:21Z</time>
      </trkpt>
      <trkpt lat="38.3613350" lon="-0.6901770">
        <ele>253.2</ele>
        <time>2018-03-30T06:38:22Z</time>
      </trkpt>
      <trkpt lat="38.3614010" lon="-0.6901610">
        <ele>253.3</ele>
        <time>2018-03-30T06:38:23Z</time>
      </trkpt>
      <trkpt lat="38.3614660" lon="-0.6901520">
        <ele>253.3</ele>
        <time>2018-03-30T06:38:24Z</time>
      </trkpt>
      <trkpt lat="38.3615320" lon="-0.6901440">
        <ele>253.3</ele>
        <time>2018-03-30T06:38:25Z</time>
      </trkpt>
      <trkpt lat="38.3615970" lon="-0.6901340">
        <ele>253.4</ele>
        <time>2018-03-30T06:38:26Z</time>
      </trkpt>
      <trkpt lat="38.3616620" lon="-0.6901260">
        <ele>253.4</ele>
        <time>2018-03-30T06:38:27Z</time>
      </trkpt>
      <trkpt lat="38.3617250" lon="-0.6901160">
        <ele>253.4</ele>
        <time>2018-03-30T06:38:28Z</time>
      </trkpt>
      <trkpt lat="38.3617900" lon="-0.6901080">
        <ele>253.5</ele>
        <time>2018-03-30T06:38:29Z</time>
      </trkpt>
      <trkpt lat="38.3618540" lon="-0.6900990">
        <ele>253.5</ele>
        <time>2018-03-30T06:38:30Z</time>
      </trkpt>
      <trkpt lat="38.3619180" lon="-0.6900900">
        <ele>253.5</ele>
        <time>2018-03-30T06:38:31Z</time>
      </trkpt>
      <trkpt lat="38.3619840" lon="-0.6900790">
        <ele>253.5</ele>
        <time>2018-03-30T06:38:32Z</time>
      </trkpt>
      <trkpt lat="38.3620500" lon="-0.6900690">
        <ele>253.6</ele>
        <time>2018-03-30T06:38:33Z</time>
      </trkpt>
      <trkpt lat="38.3621170" lon="-0.6900580">
        <ele>253.5</ele>
        <time>2018-03-30T06:38:34Z</time>
      </trkpt>
      <trkpt lat="38.3621840" lon="-0.6900440">
        <ele>253.5</ele>
        <time>2018-03-30T06:38:35Z</time>
      </trkpt>
      <trkpt lat="38.3622520" lon="-0.6900300">
        <ele>253.5</ele>
        <time>2018-03-30T06:38:36Z</time>
      </trkpt>
      <trkpt lat="38.3623210" lon="-0.6900130">
        <ele>253.5</ele>
        <time>2018-03-30T06:38:37Z</time>
      </trkpt>
      <trkpt lat="38.3623900" lon="-0.6899940">
        <ele>253.5</ele>
        <time>2018-03-30T06:38:38Z</time>
      </trkpt>
      <trkpt lat="38.3624590" lon="-0.6899700">
        <ele>253.4</ele>
        <time>2018-03-30T06:38:39Z</time>
      </trkpt>
      <trkpt lat="38.3625280" lon="-0.6899430">
        <ele>253.4</ele>
        <time>2018-03-30T06:38:40Z</time>
      </trkpt>
      <trkpt lat="38.3625960" lon="-0.6899150">
        <ele>253.4</ele>
        <time>2018-03-30T06:38:41Z</time>
      </trkpt>
      <trkpt lat="38.3626630" lon="-0.6898870">
        <ele>253.3</ele>
        <time>2018-03-30T06:38:42Z</time>
      </trkpt>
      <trkpt lat="38.3627290" lon="-0.6898550">
        <ele>253.3</ele>
        <time>2018-03-30T06:38:43Z</time>
      </trkpt>
      <trkpt lat="38.3627960" lon="-0.6898260">
        <ele>253.2</ele>
        <time>2018-03-30T06:38:44Z</time>
      </trkpt>
      <trkpt lat="38.3628620" lon="-0.6897960">
        <ele>253.2</ele>
        <time>2018-03-30T06:38:45Z</time>
      </trkpt>
      <trkpt lat="38.3629270" lon="-0.6897630">
        <ele>253.2</ele>
        <time>2018-03-30T06:38:46Z</time>
      </trkpt>
      <trkpt lat="38.3629900" lon="-0.6897310">
        <ele>253.1</ele>
        <time>2018-03-30T06:38:47Z</time>
      </trkpt>
      <trkpt lat="38.3630540" lon="-0.6896980">
        <ele>253.1</ele>
        <time>2018-03-30T06:38:48Z</time>
      </trkpt>
      <trkpt lat="38.3631180" lon="-0.6896670">
        <ele>253.1</ele>
        <time>2018-03-30T06:38:49Z</time>
      </trkpt>
      <trkpt lat="38.3631810" lon="-0.6896370">
        <ele>253.1</ele>
        <time>2018-03-30T06:38:50Z</time>
      </trkpt>
      <trkpt lat="38.3632440" lon="-0.6896040">
        <ele>253.0</ele>
        <time>2018-03-30T06:38:51Z</time>
      </trkpt>
      <trkpt lat="38.3633040" lon="-0.6895710">
        <ele>253.0</ele>
        <time>2018-03-30T06:38:52Z</time>
      </trkpt>
      <trkpt lat="38.3633650" lon="-0.6895370">
        <ele>253.0</ele>
        <time>2018-03-30T06:38:53Z</time>
      </trkpt>
      <trkpt lat="38.3634250" lon="-0.6895020">
        <ele>253.0</ele>
        <time>2018-03-30T06:38:54Z</time>
      </trkpt>
      <trkpt lat="38.3634850" lon="-0.6894680">
        <ele>253.0</ele>
        <time>2018-03-30T06:38:55Z</time>
      </trkpt>
      <trkpt lat="38.3635440" lon="-0.6894350">
        <ele>253.0</ele>
        <time>2018-03-30T06:38:56Z</time>
      </trkpt>
      <trkpt lat="38.3636020" lon="-0.6894040">
        <ele>253.0</ele>
        <time>2018-03-30T06:38:57Z</time>
      </trkpt>
      <trkpt lat="38.3636590" lon="-0.6893740">
        <ele>253.0</ele>
        <time>2018-03-30T06:38:58Z</time>
      </trkpt>
      <trkpt lat="38.3637150" lon="-0.6893490">
        <ele>253.0</ele>
        <time>2018-03-30T06:38:59Z</time>
      </trkpt>
      <trkpt lat="38.3637710" lon="-0.6893250">
        <ele>253.0</ele>
        <time>2018-03-30T06:39:00Z</time>
      </trkpt>
      <trkpt lat="38.3638250" lon="-0.6893010">
        <ele>253.0</ele>
        <time>2018-03-30T06:39:01Z</time>
      </trkpt>
      <trkpt lat="38.3638790" lon="-0.6892970">
        <ele>252.8</ele>
        <time>2018-03-30T06:39:02Z</time>
      </trkpt>
      <trkpt lat="38.3639140" lon="-0.6893390">
        <ele>252.7</ele>
        <time>2018-03-30T06:39:03Z</time>
      </trkpt>
      <trkpt lat="38.3639500" lon="-0.6893920">
        <ele>252.5</ele>
        <time>2018-03-30T06:39:04Z</time>
      </trkpt>
      <trkpt lat="38.3639750" lon="-0.6894640">
        <ele>252.3</ele>
        <time>2018-03-30T06:39:05Z</time>
      </trkpt>
      <trkpt lat="38.3640030" lon="-0.6895350">
        <ele>252.1</ele>
        <time>2018-03-30T06:39:06Z</time>
      </trkpt>
      <trkpt lat="38.3640360" lon="-0.6896110">
        <ele>251.7</ele>
        <time>2018-03-30T06:39:07Z</time>
      </trkpt>
      <trkpt lat="38.3640690" lon="-0.6896900">
        <ele>251.5</ele>
        <time>2018-03-30T06:39:08Z</time>
      </trkpt>
      <trkpt lat="38.3641020" lon="-0.6897710">
        <ele>251.3</ele>
        <time>2018-03-30T06:39:09Z</time>
      </trkpt>
      <trkpt lat="38.3641350" lon="-0.6898520">
        <ele>251.2</ele>
        <time>2018-03-30T06:39:10Z</time>
      </trkpt>
      <trkpt lat="38.3641680" lon="-0.6899350">
        <ele>251.0</ele>
        <time>2018-03-30T06:39:11Z</time>
      </trkpt>
      <trkpt lat="38.3642000" lon="-0.6900190">
        <ele>250.8</ele>
        <time>2018-03-30T06:39:12Z</time>
      </trkpt>
      <trkpt lat="38.3642310" lon="-0.6901040">
        <ele>250.5</ele>
        <time>2018-03-30T06:39:13Z</time>
      </trkpt>
      <trkpt lat="38.3642630" lon="-0.6901880">
        <ele>250.1</ele>
        <time>2018-03-30T06:39:14Z</time>
      </trkpt>
      <trkpt lat="38.3642940" lon="-0.6902700">
        <ele>249.8</ele>
        <time>2018-03-30T06:39:15Z</time>
      </trkpt>
      <trkpt lat="38.3643280" lon="-0.6903530">
        <ele>249.4</ele>
        <time>2018-03-30T06:39:16Z</time>
      </trkpt>
      <trkpt lat="38.3643640" lon="-0.6904410">
        <ele>249.0</ele>
        <time>2018-03-30T06:39:17Z</time>
      </trkpt>
      <trkpt lat="38.3644020" lon="-0.6905340">
        <ele>248.7</ele>
        <time>2018-03-30T06:39:18Z</time>
      </trkpt>
      <trkpt lat="38.3644440" lon="-0.6906320">
        <ele>248.4</ele>
        <time>2018-03-30T06:39:19Z</time>
      </trkpt>
      <trkpt lat="38.3644830" lon="-0.6907290">
        <ele>248.1</ele>
        <time>2018-03-30T06:39:20Z</time>
      </trkpt>
      <trkpt lat="38.3645230" lon="-0.6908240">
        <ele>247.7</ele>
        <time>2018-03-30T06:39:21Z</time>
      </trkpt>
      <trkpt lat="38.3645610" lon="-0.6909180">
        <ele>247.3</ele>
        <time>2018-03-30T06:39:22Z</time>
      </trkpt>
      <trkpt lat="38.3645990" lon="-0.6910130">
        <ele>247.1</ele>
        <time>2018-03-30T06:39:23Z</time>
      </trkpt>
      <trkpt lat="38.3646370" lon="-0.6911110">
        <ele>246.8</ele>
        <time>2018-03-30T06:39:24Z</time>
      </trkpt>
      <trkpt lat="38.3646740" lon="-0.6912110">
        <ele>246.5</ele>
        <time>2018-03-30T06:39:25Z</time>
      </trkpt>
      <trkpt lat="38.3647110" lon="-0.6913110">
        <ele>246.1</ele>
        <time>2018-03-30T06:39:26Z</time>
      </trkpt>
      <trkpt lat="38.3647490" lon="-0.6914090">
        <ele>245.8</ele>
        <time>2018-03-30T06:39:27Z</time>
      </trkpt>
      <trkpt lat="38.3647880" lon="-0.6915070">
        <ele>245.6</ele>
        <time>2018-03-30T06:39:28Z</time>
      </trkpt>
      <trkpt lat="38.3648270" lon="-0.6916050">
        <ele>245.3</ele>
        <time>2018-03-30T06:39:29Z</time>
      </trkpt>
      <trkpt lat="38.3648640" lon="-0.6917060">
        <ele>245.2</ele>
        <time>2018-03-30T06:39:30Z</time>
      </trkpt>
      <trkpt lat="38.3648980" lon="-0.6918080">
        <ele>245.0</ele>
        <time>2018-03-30T06:39:31Z</time>
      </trkpt>
      <trkpt lat="38.3649300" lon="-0.6919120">
        <ele>244.8</ele>
        <time>2018-03-30T06:39:32Z</time>
      </trkpt>
      <trkpt lat="38.3649610" lon="-0.6920180">
        <ele>244.6</ele>
        <time>2018-03-30T06:39:33Z</time>
      </trkpt>
      <trkpt lat="38.3649920" lon="-0.6921230">
        <ele>244.5</ele>
        <time>2018-03-30T06:39:34Z</time>
      </trkpt>
      <trkpt lat="38.3650240" lon="-0.6922270">
        <ele>244.3</ele>
        <time>2018-03-30T06:39:35Z</time>
      </trkpt>
      <trkpt lat="38.3650530" lon="-0.6923280">
        <ele>244.1</ele>
        <time>2018-03-30T06:39:36Z</time>
      </trkpt>
      <trkpt lat="38.3650810" lon="-0.6924280">
        <ele>243.8</ele>
        <time>2018-03-30T06:39:37Z</time>
      </trkpt>
      <trkpt lat="38.3651060" lon="-0.6925250">
        <ele>243.7</ele>
        <time>2018-03-30T06:39:38Z</time>
      </trkpt>
      <trkpt lat="38.3651330" lon="-0.6926250">
        <ele>243.6</ele>
        <time>2018-03-30T06:39:39Z</time>
      </trkpt>
      <trkpt lat="38.3651580" lon="-0.6927290">
        <ele>243.5</ele>
        <time>2018-03-30T06:39:40Z</time>
      </trkpt>
      <trkpt lat="38.3651840" lon="-0.6928330">
        <ele>243.4</ele>
        <time>2018-03-30T06:39:41Z</time>
      </trkpt>
      <trkpt lat="38.3652090" lon="-0.6929330">
        <ele>243.3</ele>
        <time>2018-03-30T06:39:42Z</time>
      </trkpt>
      <trkpt lat="38.3652330" lon="-0.6930310">
        <ele>243.2</ele>
        <time>2018-03-30T06:39:43Z</time>
      </trkpt>
      <trkpt lat="38.3652570" lon="-0.6931270">
        <ele>243.1</ele>
        <time>2018-03-30T06:39:44Z</time>
      </trkpt>
      <trkpt lat="38.3652810" lon="-0.6932200">
        <ele>243.0</ele>
        <time>2018-03-30T06:39:45Z</time>
      </trkpt>
      <trkpt lat="38.3653030" lon="-0.6933120">
        <ele>242.9</ele>
        <time>2018-03-30T06:39:46Z</time>
      </trkpt>
      <trkpt lat="38.3653250" lon="-0.6934030">
        <ele>242.7</ele>
        <time>2018-03-30T06:39:47Z</time>
      </trkpt>
      <trkpt lat="38.3653470" lon="-0.6934920">
        <ele>242.6</ele>
        <time>2018-03-30T06:39:48Z</time>
      </trkpt>
      <trkpt lat="38.3653690" lon="-0.6935800">
        <ele>242.5</ele>
        <time>2018-03-30T06:39:49Z</time>
      </trkpt>
      <trkpt lat="38.3653910" lon="-0.6936700">
        <ele>242.5</ele>
        <time>2018-03-30T06:39:50Z</time>
      </trkpt>
      <trkpt lat="38.3654130" lon="-0.6937600">
        <ele>242.4</ele>
        <time>2018-03-30T06:39:51Z</time>
      </trkpt>
      <trkpt lat="38.3654340" lon="-0.6938500">
        <ele>242.3</ele>
        <time>2018-03-30T06:39:52Z</time>
      </trkpt>
      <trkpt lat="38.3654560" lon="-0.6939380">
        <ele>242.3</ele>
        <time>2018-03-30T06:39:53Z</time>
      </trkpt>
      <trkpt lat="38.3654760" lon="-0.6940260">
        <ele>242.3</ele>
        <time>2018-03-30T06:39:54Z</time>
      </trkpt>
      <trkpt lat="38.3654970" lon="-0.6941110">
        <ele>242.3</ele>
        <time>2018-03-30T06:39:55Z</time>
      </trkpt>
      <trkpt lat="38.3655170" lon="-0.6941960">
        <ele>242.3</ele>
        <time>2018-03-30T06:39:56Z</time>
      </trkpt>
      <trkpt lat="38.3655360" lon="-0.6942800">
        <ele>242.3</ele>
        <time>2018-03-30T06:39:57Z</time>
      </trkpt>
      <trkpt lat="38.3655540" lon="-0.6943630">
        <ele>242.3</ele>
        <time>2018-03-30T06:39:58Z</time>
      </trkpt>
      <trkpt lat="38.3655750" lon="-0.6944440">
        <ele>242.3</ele>
        <time>2018-03-30T06:39:59Z</time>
      </trkpt>
      <trkpt lat="38.3655980" lon="-0.6945230">
        <ele>242.2</ele>
        <time>2018-03-30T06:40:00Z</time>
      </trkpt>
      <trkpt lat="38.3656190" lon="-0.6946020">
        <ele>242.2</ele>
        <time>2018-03-30T06:40:01Z</time>
      </trkpt>
      <trkpt lat="38.3656380" lon="-0.6946810">
        <ele>242.2</ele>
        <time>2018-03-30T06:40:02Z</time>
      </trkpt>
      <trkpt lat="38.3656580" lon="-0.6947600">
        <ele>242.2</ele>
        <time>2018-03-30T06:40:03Z</time>
      </trkpt>
      <trkpt lat="38.3656780" lon="-0.6948390">
        <ele>242.1</ele>
        <time>2018-03-30T06:40:04Z</time>
      </trkpt>
      <trkpt lat="38.3656960" lon="-0.6949180">
        <ele>242.1</ele>
        <time>2018-03-30T06:40:05Z</time>
      </trkpt>
      <trkpt lat="38.3657150" lon="-0.6949960">
        <ele>242.1</ele>
        <time>2018-03-30T06:40:06Z</time>
      </trkpt>
      <trkpt lat="38.3657330" lon="-0.6950740">
        <ele>242.1</ele>
        <time>2018-03-30T06:40:07Z</time>
      </trkpt>
      <trkpt lat="38.3657510" lon="-0.6951520">
        <ele>242.0</ele>
        <time>2018-03-30T06:40:08Z</time>
      </trkpt>
      <trkpt lat="38.3657710" lon="-0.6952300">
        <ele>242.0</ele>
        <time>2018-03-30T06:40:09Z</time>
      </trkpt>
      <trkpt lat="38.3657900" lon="-0.6953060">
        <ele>242.0</ele>
        <time>2018-03-30T06:40:10Z</time>
      </trkpt>
      <trkpt lat="38.3658090" lon="-0.6953850">
        <ele>241.9</ele>
        <time>2018-03-30T06:40:11Z</time>
      </trkpt>
      <trkpt lat="38.3658280" lon="-0.6954690">
        <ele>241.7</ele>
        <time>2018-03-30T06:40:12Z</time>
      </trkpt>
      <trkpt lat="38.3658490" lon="-0.6955530">
        <ele>241.6</ele>
        <time>2018-03-30T06:40:13Z</time>
      </trkpt>
      <trkpt lat="38.3658700" lon="-0.6956380">
        <ele>241.5</ele>
        <time>2018-03-30T06:40:14Z</time>
      </trkpt>
      <trkpt lat="38.3658910" lon="-0.6957220">
        <ele>241.4</ele>
        <time>2018-03-30T06:40:15Z</time>
      </trkpt>
      <trkpt lat="38.3659110" lon="-0.6958070">
        <ele>241.2</ele>
        <time>2018-03-30T06:40:16Z</time>
      </trkpt>
      <trkpt lat="38.3659310" lon="-0.6958900">
        <ele>241.1</ele>
        <time>2018-03-30T06:40:17Z</time>
      </trkpt>
      <trkpt lat="38.3659510" lon="-0.6959730">
        <ele>240.9</ele>
        <time>2018-03-30T06:40:18Z</time>
      </trkpt>
      <trkpt lat="38.3659710" lon="-0.6960550">
        <ele>240.8</ele>
        <time>2018-03-30T06:40:19Z</time>
      </trkpt>
      <trkpt lat="38.3659910" lon="-0.6961370">
        <ele>240.7</ele>
        <time>2018-03-30T06:40:20Z</time>
      </trkpt>
      <trkpt lat="38.3660110" lon="-0.6962170">
        <ele>240.5</ele>
        <time>2018-03-30T06:40:21Z</time>
      </trkpt>
      <trkpt lat="38.3660310" lon="-0.6962980">
        <ele>240.4</ele>
        <time>2018-03-30T06:40:22Z</time>
      </trkpt>
      <trkpt lat="38.3660520" lon="-0.6963820">
        <ele>240.2</ele>
        <time>2018-03-30T06:40:23Z</time>
      </trkpt>
      <trkpt lat="38.3660750" lon="-0.6964720">
        <ele>240.1</ele>
        <time>2018-03-30T06:40:24Z</time>
      </trkpt>
      <trkpt lat="38.3660990" lon="-0.6965660">
        <ele>239.9</ele>
        <time>2018-03-30T06:40:25Z</time>
      </trkpt>
      <trkpt lat="38.3661230" lon="-0.6966580">
        <ele>239.6</ele>
        <time>2018-03-30T06:40:26Z</time>
      </trkpt>
      <trkpt lat="38.3661490" lon="-0.6967500">
        <ele>239.3</ele>
        <time>2018-03-30T06:40:27Z</time>
      </trkpt>
      <trkpt lat="38.3661720" lon="-0.6968420">
        <ele>239.1</ele>
        <time>2018-03-30T06:40:28Z</time>
      </trkpt>
      <trkpt lat="38.3661940" lon="-0.6969330">
        <ele>239.0</ele>
        <time>2018-03-30T06:40:29Z</time>
      </trkpt>
      <trkpt lat="38.3662160" lon="-0.6970210">
        <ele>238.9</ele>
        <time>2018-03-30T06:40:30Z</time>
      </trkpt>
      <trkpt lat="38.3662360" lon="-0.6971050">
        <ele>238.8</ele>
        <time>2018-03-30T06:40:31Z</time>
      </trkpt>
      <trkpt lat="38.3662560" lon="-0.6971870">
        <ele>238.7</ele>
        <time>2018-03-30T06:40:32Z</time>
      </trkpt>
      <trkpt lat="38.3662740" lon="-0.6972690">
        <ele>238.6</ele>
        <time>2018-03-30T06:40:33Z</time>
      </trkpt>
      <trkpt lat="38.3662960" lon="-0.6973490">
        <ele>238.5</ele>
        <time>2018-03-30T06:40:34Z</time>
      </trkpt>
      <trkpt lat="38.3663200" lon="-0.6974300">
        <ele>238.3</ele>
        <time>2018-03-30T06:40:35Z</time>
      </trkpt>
      <trkpt lat="38.3663450" lon="-0.6975140">
        <ele>238.1</ele>
        <time>2018-03-30T06:40:36Z</time>
      </trkpt>
      <trkpt lat="38.3663660" lon="-0.6976000">
        <ele>237.9</ele>
        <time>2018-03-30T06:40:37Z</time>
      </trkpt>
      <trkpt lat="38.3663680" lon="-0.6976900">
        <ele>237.7</ele>
        <time>2018-03-30T06:40:38Z</time>
      </trkpt>
      <trkpt lat="38.3663460" lon="-0.6977700">
        <ele>237.5</ele>
        <time>2018-03-30T06:40:39Z</time>
      </trkpt>
      <trkpt lat="38.3663180" lon="-0.6978550">
        <ele>237.3</ele>
        <time>2018-03-30T06:40:40Z</time>
      </trkpt>
      <trkpt lat="38.3662820" lon="-0.6979330">
        <ele>237.2</ele>
        <time>2018-03-30T06:40:41Z</time>
      </trkpt>
      <trkpt lat="38.3662450" lon="-0.6980120">
        <ele>237.0</ele>
        <time>2018-03-30T06:40:42Z</time>
      </trkpt>
      <trkpt lat="38.3662150" lon="-0.6980980">
        <ele>236.7</ele>
        <time>2018-03-30T06:40:43Z</time>
      </trkpt>
      <trkpt lat="38.3661900" lon="-0.6981870">
        <ele>236.3</ele>
        <time>2018-03-30T06:40:44Z</time>
      </trkpt>
      <trkpt lat="38.3661650" lon="-0.6982780">
        <ele>236.1</ele>
        <time>2018-03-30T06:40:45Z</time>
      </trkpt>
      <trkpt lat="38.3661430" lon="-0.6983700">
        <ele>235.9</ele>
        <time>2018-03-30T06:40:46Z</time>
      </trkpt>
      <trkpt lat="38.3661230" lon="-0.6984610">
        <ele>235.7</ele>
        <time>2018-03-30T06:40:47Z</time>
      </trkpt>
      <trkpt lat="38.3661060" lon="-0.6985540">
        <ele>235.5</ele>
        <time>2018-03-30T06:40:48Z</time>
      </trkpt>
      <trkpt lat="38.3660940" lon="-0.6986480">
        <ele>235.1</ele>
        <time>2018-03-30T06:40:49Z</time>
      </trkpt>
      <trkpt lat="38.3660840" lon="-0.6987440">
        <ele>234.9</ele>
        <time>2018-03-30T06:40:50Z</time>
      </trkpt>
      <trkpt lat="38.3660790" lon="-0.6988400">
        <ele>234.6</ele>
        <time>2018-03-30T06:40:51Z</time>
      </trkpt>
      <trkpt lat="38.3660760" lon="-0.6989410">
        <ele>234.3</ele>
        <time>2018-03-30T06:40:52Z</time>
      </trkpt>
      <trkpt lat="38.3660780" lon="-0.6990450">
        <ele>234.0</ele>
        <time>2018-03-30T06:40:53Z</time>
      </trkpt>
      <trkpt lat="38.3660880" lon="-0.6991440">
        <ele>233.8</ele>
        <time>2018-03-30T06:40:54Z</time>
      </trkpt>
      <trkpt lat="38.3661040" lon="-0.6992390">
        <ele>233.6</ele>
        <time>2018-03-30T06:40:55Z</time>
      </trkpt>
      <trkpt lat="38.3661240" lon="-0.6993310">
        <ele>233.4</ele>
        <time>2018-03-30T06:40:56Z</time>
      </trkpt>
      <trkpt lat="38.3661460" lon="-0.6994200">
        <ele>233.3</ele>
        <time>2018-03-30T06:40:57Z</time>
      </trkpt>
      <trkpt lat="38.3661750" lon="-0.6995030">
        <ele>233.2</ele>
        <time>2018-03-30T06:40:58Z</time>
      </trkpt>
      <trkpt lat="38.3662070" lon="-0.6995810">
        <ele>233.1</ele>
        <time>2018-03-30T06:40:59Z</time>
      </trkpt>
      <trkpt lat="38.3662460" lon="-0.6996540">
        <ele>233.0</ele>
        <time>2018-03-30T06:41:00Z</time>
      </trkpt>
      <trkpt lat="38.3662880" lon="-0.6997180">
        <ele>233.1</ele>
        <time>2018-03-30T06:41:01Z</time>
      </trkpt>
      <trkpt lat="38.3663360" lon="-0.6997690">
        <ele>233.2</ele>
        <time>2018-03-30T06:41:02Z</time>
      </trkpt>
      <trkpt lat="38.3663950" lon="-0.6998080">
        <ele>233.3</ele>
        <time>2018-03-30T06:41:03Z</time>
      </trkpt>
      <trkpt lat="38.3664560" lon="-0.6998370">
        <ele>233.3</ele>
        <time>2018-03-30T06:41:04Z</time>
      </trkpt>
      <trkpt lat="38.3665230" lon="-0.6998590">
        <ele>233.4</ele>
        <time>2018-03-30T06:41:05Z</time>
      </trkpt>
      <trkpt lat="38.3665950" lon="-0.6998780">
        <ele>233.4</ele>
        <time>2018-03-30T06:41:06Z</time>
      </trkpt>
      <trkpt lat="38.3666700" lon="-0.6998910">
        <ele>233.4</ele>
        <time>2018-03-30T06:41:07Z</time>
      </trkpt>
      <trkpt lat="38.3667480" lon="-0.6998890">
        <ele>233.4</ele>
        <time>2018-03-30T06:41:08Z</time>
      </trkpt>
      <trkpt lat="38.3668240" lon="-0.6998920">
        <ele>233.4</ele>
        <time>2018-03-30T06:41:09Z</time>
      </trkpt>
      <trkpt lat="38.3668990" lon="-0.6998930">
        <ele>233.4</ele>
        <time>2018-03-30T06:41:10Z</time>
      </trkpt>
      <trkpt lat="38.3669710" lon="-0.6999030">
        <ele>233.4</ele>
        <time>2018-03-30T06:41:11Z</time>
      </trkpt>
      <trkpt lat="38.3670420" lon="-0.6999200">
        <ele>233.4</ele>
        <time>2018-03-30T06:41:12Z</time>
      </trkpt>
      <trkpt lat="38.3671070" lon="-0.6999510">
        <ele>233.4</ele>
        <time>2018-03-30T06:41:13Z</time>
      </trkpt>
      <trkpt lat="38.3671660" lon="-0.6999960">
        <ele>233.5</ele>
        <time>2018-03-30T06:41:14Z</time>
      </trkpt>
      <trkpt lat="38.3672130" lon="-0.7000600">
        <ele>233.6</ele>
        <time>2018-03-30T06:41:15Z</time>
      </trkpt>
      <trkpt lat="38.3672490" lon="-0.7001260">
        <ele>233.7</ele>
        <time>2018-03-30T06:41:16Z</time>
      </trkpt>
      <trkpt lat="38.3672740" lon="-0.7001820">
        <ele>233.8</ele>
        <time>2018-03-30T06:41:17Z</time>
      </trkpt>
      <trkpt lat="38.3672980" lon="-0.7002140">
        <ele>233.8</ele>
        <time>2018-03-30T06:41:18Z</time>
      </trkpt>
      <trkpt lat="38.3673220" lon="-0.7002220">
        <ele>233.9</ele>
        <time>2018-03-30T06:41:19Z</time>
      </trkpt>
      <trkpt lat="38.3673440" lon="-0.7002180">
        <ele>234.0</ele>
        <time>2018-03-30T06:41:20Z</time>
      </trkpt>
      <trkpt lat="38.3673720" lon="-0.7002070">
        <ele>234.0</ele>
        <time>2018-03-30T06:41:21Z</time>
      </trkpt>
      <trkpt lat="38.3673940" lon="-0.7001950">
        <ele>234.0</ele>
        <time>2018-03-30T06:41:22Z</time>
      </trkpt>
      <trkpt lat="38.3673910" lon="-0.7001640">
        <ele>234.0</ele>
        <time>2018-03-30T06:41:23Z</time>
      </trkpt>
      <trkpt lat="38.3673560" lon="-0.7001090">
        <ele>234.0</ele>
        <time>2018-03-30T06:41:24Z</time>
      </trkpt>
      <trkpt lat="38.3673250" lon="-0.7000670">
        <ele>234.0</ele>
        <time>2018-03-30T06:41:25Z</time>
      </trkpt>
      <trkpt lat="38.3672900" lon="-0.7000150">
        <ele>233.9</ele>
        <time>2018-03-30T06:41:26Z</time>
      </trkpt>
      <trkpt lat="38.3672550" lon="-0.6999660">
        <ele>233.9</ele>
        <time>2018-03-30T06:41:27Z</time>
      </trkpt>
      <trkpt lat="38.3672170" lon="-0.6999220">
        <ele>233.9</ele>
        <time>2018-03-30T06:41:28Z</time>
      </trkpt>
      <trkpt lat="38.3671730" lon="-0.6998800">
        <ele>233.9</ele>
        <time>2018-03-30T06:41:29Z</time>
      </trkpt>
      <trkpt lat="38.3671270" lon="-0.6998440">
        <ele>233.9</ele>
        <time>2018-03-30T06:41:30Z</time>
      </trkpt>
      <trkpt lat="38.3670770" lon="-0.6998170">
        <ele>233.9</ele>
        <time>2018-03-30T06:41:31Z</time>
      </trkpt>
      <trkpt lat="38.3670240" lon="-0.6998040">
        <ele>233.9</ele>
        <time>2018-03-30T06:41:32Z</time>
      </trkpt>
      <trkpt lat="38.3669700" lon="-0.6997980">
        <ele>233.9</ele>
        <time>2018-03-30T06:41:33Z</time>
      </trkpt>
      <trkpt lat="38.3669150" lon="-0.6997960">
        <ele>234.0</ele>
        <time>2018-03-30T06:41:34Z</time>
      </trkpt>
      <trkpt lat="38.3668600" lon="-0.6997940">
        <ele>234.0</ele>
        <time>2018-03-30T06:41:35Z</time>
      </trkpt>
      <trkpt lat="38.3668050" lon="-0.6997920">
        <ele>233.9</ele>
        <time>2018-03-30T06:41:36Z</time>
      </trkpt>
      <trkpt lat="38.3667500" lon="-0.6997880">
        <ele>233.9</ele>
        <time>2018-03-30T06:41:37Z</time>
      </trkpt>
      <trkpt lat="38.3666940" lon="-0.6997820">
        <ele>233.9</ele>
        <time>2018-03-30T06:41:38Z</time>
      </trkpt>
      <trkpt lat="38.3666380" lon="-0.6997730">
        <ele>233.8</ele>
        <time>2018-03-30T06:41:39Z</time>
      </trkpt>
      <trkpt lat="38.3665820" lon="-0.6997590">
        <ele>233.7</ele>
        <time>2018-03-30T06:41:40Z</time>
      </trkpt>
      <trkpt lat="38.3665280" lon="-0.6997370">
        <ele>233.6</ele>
        <time>2018-03-30T06:41:41Z</time>
      </trkpt>
      <trkpt lat="38.3664770" lon="-0.6997070">
        <ele>233.5</ele>
        <time>2018-03-30T06:41:42Z</time>
      </trkpt>
      <trkpt lat="38.3664290" lon="-0.6996660">
        <ele>233.5</ele>
        <time>2018-03-30T06:41:43Z</time>
      </trkpt>
      <trkpt lat="38.3663850" lon="-0.6996190">
        <ele>233.4</ele>
        <time>2018-03-30T06:41:44Z</time>
      </trkpt>
      <trkpt lat="38.3663450" lon="-0.6995650">
        <ele>233.3</ele>
        <time>2018-03-30T06:41:45Z</time>
      </trkpt>
      <trkpt lat="38.3663090" lon="-0.6995020">
        <ele>233.2</ele>
        <time>2018-03-30T06:41:46Z</time>
      </trkpt>
      <trkpt lat="38.3662800" lon="-0.6994360">
        <ele>233.1</ele>
        <time>2018-03-30T06:41:47Z</time>
      </trkpt>
      <trkpt lat="38.3662560" lon="-0.6993640">
        <ele>233.1</ele>
        <time>2018-03-30T06:41:48Z</time>
      </trkpt>
      <trkpt lat="38.3662370" lon="-0.6992910">
        <ele>233.0</ele>
        <time>2018-03-30T06:41:49Z</time>
      </trkpt>
      <trkpt lat="38.3662220" lon="-0.6992160">
        <ele>233.0</ele>
        <time>2018-03-30T06:41:50Z</time>
      </trkpt>
      <trkpt lat="38.3662110" lon="-0.6991400">
        <ele>233.1</ele>
        <time>2018-03-30T06:41:51Z</time>
      </trkpt>
      <trkpt lat="38.3662080" lon="-0.6990630">
        <ele>233.2</ele>
        <time>2018-03-30T06:41:52Z</time>
      </trkpt>
      <trkpt lat="38.3662080" lon="-0.6989870">
        <ele>233.3</ele>
        <time>2018-03-30T06:41:53Z</time>
      </trkpt>
      <trkpt lat="38.3662090" lon="-0.6989090">
        <ele>233.4</ele>
        <time>2018-03-30T06:41:54Z</time>
      </trkpt>
      <trkpt lat="38.3662130" lon="-0.6988310">
        <ele>233.4</ele>
        <time>2018-03-30T06:41:55Z</time>
      </trkpt>
      <trkpt lat="38.3662190" lon="-0.6987530">
        <ele>233.5</ele>
        <time>2018-03-30T06:41:56Z</time>
      </trkpt>
      <trkpt lat="38.3662280" lon="-0.6986750">
        <ele>233.5</ele>
        <time>2018-03-30T06:41:57Z</time>
      </trkpt>
      <trkpt lat="38.3662390" lon="-0.6985980">
        <ele>233.5</ele>
        <time>2018-03-30T06:41:58Z</time>
      </trkpt>
      <trkpt lat="38.3662510" lon="-0.6985210">
        <ele>233.6</ele>
        <time>2018-03-30T06:41:59Z</time>
      </trkpt>
      <trkpt lat="38.3662670" lon="-0.6984460">
        <ele>233.7</ele>
        <time>2018-03-30T06:42:00Z</time>
      </trkpt>
      <trkpt lat="38.3662870" lon="-0.6983710">
        <ele>233.8</ele>
        <time>2018-03-30T06:42:01Z</time>
      </trkpt>
      <trkpt lat="38.3663110" lon="-0.6982990">
        <ele>233.8</ele>
        <time>2018-03-30T06:42:02Z</time>
      </trkpt>
      <trkpt lat="38.3663380" lon="-0.6982290">
        <ele>234.0</ele>
        <time>2018-03-30T06:42:03Z</time>
      </trkpt>
      <trkpt lat="38.3663680" lon="-0.6981600">
        <ele>234.2</ele>
        <time>2018-03-30T06:42:04Z</time>
      </trkpt>
      <trkpt lat="38.3664010" lon="-0.6980930">
        <ele>234.5</ele>
        <time>2018-03-30T06:42:05Z</time>
      </trkpt>
      <trkpt lat="38.3664350" lon="-0.6980280">
        <ele>234.7</ele>
        <time>2018-03-30T06:42:06Z</time>
      </trkpt>
      <trkpt lat="38.3664720" lon="-0.6979660">
        <ele>235.0</ele>
        <time>2018-03-30T06:42:07Z</time>
      </trkpt>
      <trkpt lat="38.3665090" lon="-0.6979040">
        <ele>235.2</ele>
        <time>2018-03-30T06:42:08Z</time>
      </trkpt>
      <trkpt lat="38.3665460" lon="-0.6978420">
        <ele>235.5</ele>
        <time>2018-03-30T06:42:09Z</time>
      </trkpt>
      <trkpt lat="38.3665820" lon="-0.6977800">
        <ele>235.7</ele>
        <time>2018-03-30T06:42:10Z</time>
      </trkpt>
      <trkpt lat="38.3666190" lon="-0.6977180">
        <ele>236.0</ele>
        <time>2018-03-30T06:42:11Z</time>
      </trkpt>
      <trkpt lat="38.3666540" lon="-0.6976580">
        <ele>236.2</ele>
        <time>2018-03-30T06:42:12Z</time>
      </trkpt>
      <trkpt lat="38.3666890" lon="-0.6976020">
        <ele>236.5</ele>
        <time>2018-03-30T06:42:13Z</time>
      </trkpt>
      <trkpt lat="38.3667280" lon="-0.6975500">
        <ele>236.7</ele>
        <time>2018-03-30T06:42:14Z</time>
      </trkpt>
      <trkpt lat="38.3667750" lon="-0.6975000">
        <ele>236.9</ele>
        <time>2018-03-30T06:42:15Z</time>
      </trkpt>
      <trkpt lat="38.3668110" lon="-0.6974470">
        <ele>237.1</ele>
        <time>2018-03-30T06:42:16Z</time>
      </trkpt>
      <trkpt lat="38.3668510" lon="-0.6973930">
        <ele>237.3</ele>
        <time>2018-03-30T06:42:17Z</time>
      </trkpt>
      <trkpt lat="38.3668840" lon="-0.6973430">
        <ele>237.4</ele>
        <time>2018-03-30T06:42:18Z</time>
      </trkpt>
      <trkpt lat="38.3669290" lon="-0.6972900">
        <ele>237.6</ele>
        <time>2018-03-30T06:42:19Z</time>
      </trkpt>
      <trkpt lat="38.3669680" lon="-0.6972470">
        <ele>237.7</ele>
        <time>2018-03-30T06:42:20Z</time>
      </trkpt>
      <trkpt lat="38.3670020" lon="-0.6972020">
        <ele>237.8</ele>
        <time>2018-03-30T06:42:21Z</time>
      </trkpt>
      <trkpt lat="38.3670370" lon="-0.6971560">
        <ele>237.9</ele>
        <time>2018-03-30T06:42:22Z</time>
      </trkpt>
      <trkpt lat="38.3670700" lon="-0.6971140">
        <ele>238.1</ele>
        <time>2018-03-30T06:42:23Z</time>
      </trkpt>
      <trkpt lat="38.3671000" lon="-0.6970760">
        <ele>238.3</ele>
        <time>2018-03-30T06:42:24Z</time>
      </trkpt>
      <trkpt lat="38.3671290" lon="-0.6970390">
        <ele>238.5</ele>
        <time>2018-03-30T06:42:25Z</time>
      </trkpt>
      <trkpt lat="38.3671560" lon="-0.6970020">
        <ele>238.7</ele>
        <time>2018-03-30T06:42:26Z</time>
      </trkpt>
      <trkpt lat="38.3671840" lon="-0.6969630">
        <ele>238.8</ele>
        <time>2018-03-30T06:42:27Z</time>
      </trkpt>
      <trkpt lat="38.3672130" lon="-0.6969240">
        <ele>239.0</ele>
        <time>2018-03-30T06:42:28Z</time>
      </trkpt>
      <trkpt lat="38.3672410" lon="-0.6968860">
        <ele>239.2</ele>
        <time>2018-03-30T06:42:29Z</time>
      </trkpt>
      <trkpt lat="38.3672710" lon="-0.6968490">
        <ele>239.3</ele>
        <time>2018-03-30T06:42:30Z</time>
      </trkpt>
      <trkpt lat="38.3673000" lon="-0.6968110">
        <ele>239.4</ele>
        <time>2018-03-30T06:42:31Z</time>
      </trkpt>
      <trkpt lat="38.3673290" lon="-0.6967750">
        <ele>239.4</ele>
        <time>2018-03-30T06:42:32Z</time>
      </trkpt>
      <trkpt lat="38.3673570" lon="-0.6967370">
        <ele>239.5</ele>
        <time>2018-03-30T06:42:33Z</time>
      </trkpt>
      <trkpt lat="38.3673840" lon="-0.6967010">
        <ele>239.5</ele>
        <time>2018-03-30T06:42:34Z</time>
      </trkpt>
      <trkpt lat="38.3674100" lon="-0.6966640">
        <ele>239.6</ele>
        <time>2018-03-30T06:42:35Z</time>
      </trkpt>
      <trkpt lat="38.3674370" lon="-0.6966270">
        <ele>239.6</ele>
        <time>2018-03-30T06:42:36Z</time>
      </trkpt>
      <trkpt lat="38.3674640" lon="-0.6965920">
        <ele>239.7</ele>
        <time>2018-03-30T06:42:37Z</time>
      </trkpt>
      <trkpt lat="38.3674920" lon="-0.6965550">
        <ele>239.7</ele>
        <time>2018-03-30T06:42:38Z</time>
      </trkpt>
      <trkpt lat="38.3675200" lon="-0.6965180">
        <ele>239.8</ele>
        <time>2018-03-30T06:42:39Z</time>
      </trkpt>
      <trkpt lat="38.3675480" lon="-0.6964800">
        <ele>239.8</ele>
        <time>2018-03-30T06:42:40Z</time>
      </trkpt>
      <trkpt lat="38.3675770" lon="-0.6964400">
        <ele>239.9</ele>
        <time>2018-03-30T06:42:41Z</time>
      </trkpt>
      <trkpt lat="38.3676070" lon="-0.6963990">
        <ele>239.9</ele>
        <time>2018-03-30T06:42:42Z</time>
      </trkpt>
      <trkpt lat="38.3676360" lon="-0.6963580">
        <ele>240.0</ele>
        <time>2018-03-30T06:42:43Z</time>
      </trkpt>
      <trkpt lat="38.3676650" lon="-0.6963150">
        <ele>240.0</ele>
        <time>2018-03-30T06:42:44Z</time>
      </trkpt>
      <trkpt lat="38.3676960" lon="-0.6962720">
        <ele>240.0</ele>
        <time>2018-03-30T06:42:45Z</time>
      </trkpt>
      <trkpt lat="38.3677270" lon="-0.6962320">
        <ele>240.0</ele>
        <time>2018-03-30T06:42:46Z</time>
      </trkpt>
      <trkpt lat="38.3677570" lon="-0.6961900">
        <ele>240.0</ele>
        <time>2018-03-30T06:42:47Z</time>
      </trkpt>
      <trkpt lat="38.3677880" lon="-0.6961470">
        <ele>240.0</ele>
        <time>2018-03-30T06:42:48Z</time>
      </trkpt>
      <trkpt lat="38.3678210" lon="-0.6961020">
        <ele>240.0</ele>
        <time>2018-03-30T06:42:49Z</time>
      </trkpt>
      <trkpt lat="38.3678530" lon="-0.6960540">
        <ele>240.0</ele>
        <time>2018-03-30T06:42:50Z</time>
      </trkpt>
      <trkpt lat="38.3678840" lon="-0.6960050">
        <ele>240.0</ele>
        <time>2018-03-30T06:42:51Z</time>
      </trkpt>
      <trkpt lat="38.3679160" lon="-0.6959560">
        <ele>240.0</ele>
        <time>2018-03-30T06:42:52Z</time>
      </trkpt>
      <trkpt lat="38.3679480" lon="-0.6959080">
        <ele>240.0</ele>
        <time>2018-03-30T06:42:53Z</time>
      </trkpt>
      <trkpt lat="38.3679790" lon="-0.6958580">
        <ele>240.0</ele>
        <time>2018-03-30T06:42:54Z</time>
      </trkpt>
      <trkpt lat="38.3680100" lon="-0.6958070">
        <ele>240.0</ele>
        <time>2018-03-30T06:42:55Z</time>
      </trkpt>
      <trkpt lat="38.3680450" lon="-0.6957570">
        <ele>240.0</ele>
        <time>2018-03-30T06:42:56Z</time>
      </trkpt>
      <trkpt lat="38.3680800" lon="-0.6957110">
        <ele>240.0</ele>
        <time>2018-03-30T06:42:57Z</time>
      </trkpt>
      <trkpt lat="38.3681150" lon="-0.6956610">
        <ele>240.0</ele>
        <time>2018-03-30T06:42:58Z</time>
      </trkpt>
      <trkpt lat="38.3681490" lon="-0.6956140">
        <ele>240.0</ele>
        <time>2018-03-30T06:42:59Z</time>
      </trkpt>
      <trkpt lat="38.3681840" lon="-0.6955690">
        <ele>240.0</ele>
        <time>2018-03-30T06:43:00Z</time>
      </trkpt>
      <trkpt lat="38.3682210" lon="-0.6955190">
        <ele>240.0</ele>
        <time>2018-03-30T06:43:01Z</time>
      </trkpt>
      <trkpt lat="38.3682570" lon="-0.6954710">
        <ele>240.0</ele>
        <time>2018-03-30T06:43:02Z</time>
      </trkpt>
      <trkpt lat="38.3682950" lon="-0.6954230">
        <ele>240.1</ele>
        <time>2018-03-30T06:43:03Z</time>
      </trkpt>
      <trkpt lat="38.3683310" lon="-0.6953730">
        <ele>240.1</ele>
        <time>2018-03-30T06:43:04Z</time>
      </trkpt>
      <trkpt lat="38.3683670" lon="-0.6953240">
        <ele>240.2</ele>
        <time>2018-03-30T06:43:05Z</time>
      </trkpt>
      <trkpt lat="38.3684040" lon="-0.6952760">
        <ele>240.3</ele>
        <time>2018-03-30T06:43:06Z</time>
      </trkpt>
      <trkpt lat="38.3684420" lon="-0.6952300">
        <ele>240.3</ele>
        <time>2018-03-30T06:43:07Z</time>
      </trkpt>
      <trkpt lat="38.3684810" lon="-0.6951800">
        <ele>240.4</ele>
        <time>2018-03-30T06:43:08Z</time>
      </trkpt>
      <trkpt lat="38.3685180" lon="-0.6951340">
        <ele>240.4</ele>
        <time>2018-03-30T06:43:09Z</time>
      </trkpt>
      <trkpt lat="38.3685560" lon="-0.6950880">
        <ele>240.5</ele>
        <time>2018-03-30T06:43:10Z</time>
      </trkpt>
      <trkpt lat="38.3685940" lon="-0.6950410">
        <ele>240.6</ele>
        <time>2018-03-30T06:43:11Z</time>
      </trkpt>
      <trkpt lat="38.3686310" lon="-0.6949940">
        <ele>240.7</ele>
        <time>2018-03-30T06:43:12Z</time>
      </trkpt>
      <trkpt lat="38.3686690" lon="-0.6949480">
        <ele>240.9</ele>
        <time>2018-03-30T06:43:13Z</time>
      </trkpt>
      <trkpt lat="38.3687080" lon="-0.6949020">
        <ele>241.0</ele>
        <time>2018-03-30T06:43:14Z</time>
      </trkpt>
      <trkpt lat="38.3687470" lon="-0.6948560">
        <ele>241.2</ele>
        <time>2018-03-30T06:43:15Z</time>
      </trkpt>
      <trkpt lat="38.3687840" lon="-0.6948110">
        <ele>241.4</ele>
        <time>2018-03-30T06:43:16Z</time>
      </trkpt>
      <trkpt lat="38.3688230" lon="-0.6947660">
        <ele>241.6</ele>
        <time>2018-03-30T06:43:17Z</time>
      </trkpt>
      <trkpt lat="38.3688600" lon="-0.6947210">
        <ele>241.8</ele>
        <time>2018-03-30T06:43:18Z</time>
      </trkpt>
      <trkpt lat="38.3688980" lon="-0.6946770">
        <ele>241.9</ele>
        <time>2018-03-30T06:43:19Z</time>
      </trkpt>
      <trkpt lat="38.3689360" lon="-0.6946340">
        <ele>242.0</ele>
        <time>2018-03-30T06:43:20Z</time>
      </trkpt>
      <trkpt lat="38.3689740" lon="-0.6945910">
        <ele>242.1</ele>
        <time>2018-03-30T06:43:21Z</time>
      </trkpt>
      <trkpt lat="38.3690120" lon="-0.6945490">
        <ele>242.3</ele>
        <time>2018-03-30T06:43:22Z</time>
      </trkpt>
      <trkpt lat="38.3690500" lon="-0.6945060">
        <ele>242.4</ele>
        <time>2018-03-30T06:43:23Z</time>
      </trkpt>
      <trkpt lat="38.3690880" lon="-0.6944640">
        <ele>242.6</ele>
        <time>2018-03-30T06:43:24Z</time>
      </trkpt>
      <trkpt lat="38.3691260" lon="-0.6944210">
        <ele>242.8</ele>
        <time>2018-03-30T06:43:25Z</time>
      </trkpt>
      <trkpt lat="38.3691620" lon="-0.6943800">
        <ele>242.9</ele>
        <time>2018-03-30T06:43:26Z</time>
      </trkpt>
      <trkpt lat="38.3691990" lon="-0.6943390">
        <ele>243.1</ele>
        <time>2018-03-30T06:43:27Z</time>
      </trkpt>
      <trkpt lat="38.3692350" lon="-0.6942950">
        <ele>243.3</ele>
        <time>2018-03-30T06:43:28Z</time>
      </trkpt>
      <trkpt lat="38.3692710" lon="-0.6942530">
        <ele>243.4</ele>
        <time>2018-03-30T06:43:29Z</time>
      </trkpt>
      <trkpt lat="38.3693070" lon="-0.6942100">
        <ele>243.6</ele>
        <time>2018-03-30T06:43:30Z</time>
      </trkpt>
      <trkpt lat="38.3693420" lon="-0.6941670">
        <ele>243.7</ele>
        <time>2018-03-30T06:43:31Z</time>
      </trkpt>
      <trkpt lat="38.3693780" lon="-0.6941240">
        <ele>243.9</ele>
        <time>2018-03-30T06:43:32Z</time>
      </trkpt>
      <trkpt lat="38.3694140" lon="-0.6940800">
        <ele>244.1</ele>
        <time>2018-03-30T06:43:33Z</time>
      </trkpt>
      <trkpt lat="38.3694490" lon="-0.6940370">
        <ele>244.2</ele>
        <time>2018-03-30T06:43:34Z</time>
      </trkpt>
      <trkpt lat="38.3694820" lon="-0.6939920">
        <ele>244.3</ele>
        <time>2018-03-30T06:43:35Z</time>
      </trkpt>
      <trkpt lat="38.3695160" lon="-0.6939480">
        <ele>244.5</ele>
        <time>2018-03-30T06:43:36Z</time>
      </trkpt>
      <trkpt lat="38.3695500" lon="-0.6939040">
        <ele>244.6</ele>
        <time>2018-03-30T06:43:37Z</time>
      </trkpt>
      <trkpt lat="38.3695840" lon="-0.6938600">
        <ele>244.7</ele>
        <time>2018-03-30T06:43:38Z</time>
      </trkpt>
      <trkpt lat="38.3696190" lon="-0.6938180">
        <ele>244.8</ele>
        <time>2018-03-30T06:43:39Z</time>
      </trkpt>
      <trkpt lat="38.3696550" lon="-0.6937750">
        <ele>244.9</ele>
        <time>2018-03-30T06:43:40Z</time>
      </trkpt>
      <trkpt lat="38.3696890" lon="-0.6937320">
        <ele>244.9</ele>
        <time>2018-03-30T06:43:41Z</time>
      </trkpt>
      <trkpt lat="38.3697210" lon="-0.6936870">
        <ele>245.0</ele>
        <time>2018-03-30T06:43:42Z</time>
      </trkpt>
      <trkpt lat="38.3697520" lon="-0.6936420">
        <ele>245.0</ele>
        <time>2018-03-30T06:43:43Z</time>
      </trkpt>
      <trkpt lat="38.3697820" lon="-0.6935990">
        <ele>245.0</ele>
        <time>2018-03-30T06:43:44Z</time>
      </trkpt>
      <trkpt lat="38.3698130" lon="-0.6935560">
        <ele>245.1</ele>
        <time>2018-03-30T06:43:45Z</time>
      </trkpt>
      <trkpt lat="38.3698430" lon="-0.6935120">
        <ele>245.4</ele>
        <time>2018-03-30T06:43:46Z</time>
      </trkpt>
      <trkpt lat="38.3698720" lon="-0.6934700">
        <ele>245.7</ele>
        <time>2018-03-30T06:43:47Z</time>
      </trkpt>
      <trkpt lat="38.3699010" lon="-0.6934280">
        <ele>246.1</ele>
        <time>2018-03-30T06:43:48Z</time>
      </trkpt>
      <trkpt lat="38.3699310" lon="-0.6933870">
        <ele>246.4</ele>
        <time>2018-03-30T06:43:49Z</time>
      </trkpt>
      <trkpt lat="38.3699600" lon="-0.6933460">
        <ele>246.7</ele>
        <time>2018-03-30T06:43:50Z</time>
      </trkpt>
      <trkpt lat="38.3699880" lon="-0.6933050">
        <ele>247.0</ele>
        <time>2018-03-30T06:43:51Z</time>
      </trkpt>
      <trkpt lat="38.3700160" lon="-0.6932650">
        <ele>247.3</ele>
        <time>2018-03-30T06:43:52Z</time>
      </trkpt>
      <trkpt lat="38.3700420" lon="-0.6932250">
        <ele>247.6</ele>
        <time>2018-03-30T06:43:53Z</time>
      </trkpt>
      <trkpt lat="38.3700690" lon="-0.6931830">
        <ele>247.8</ele>
        <time>2018-03-30T06:43:54Z</time>
      </trkpt>
      <trkpt lat="38.3700960" lon="-0.6931430">
        <ele>248.0</ele>
        <time>2018-03-30T06:43:55Z</time>
      </trkpt>
      <trkpt lat="38.3701240" lon="-0.6931040">
        <ele>248.1</ele>
        <time>2018-03-30T06:43:56Z</time>
      </trkpt>
      <trkpt lat="38.3701520" lon="-0.6930630">
        <ele>248.2</ele>
        <time>2018-03-30T06:43:57Z</time>
      </trkpt>
      <trkpt lat="38.3701800" lon="-0.6930220">
        <ele>248.4</ele>
        <time>2018-03-30T06:43:58Z</time>
      </trkpt>
      <trkpt lat="38.3702090" lon="-0.6929810">
        <ele>248.5</ele>
        <time>2018-03-30T06:43:59Z</time>
      </trkpt>
      <trkpt lat="38.3702380" lon="-0.6929380">
        <ele>248.7</ele>
        <time>2018-03-30T06:44:00Z</time>
      </trkpt>
      <trkpt lat="38.3702660" lon="-0.6928960">
        <ele>248.8</ele>
        <time>2018-03-30T06:44:01Z</time>
      </trkpt>
      <trkpt lat="38.3702950" lon="-0.6928530">
        <ele>249.1</ele>
        <time>2018-03-30T06:44:02Z</time>
      </trkpt>
      <trkpt lat="38.3703250" lon="-0.6928110">
        <ele>249.4</ele>
        <time>2018-03-30T06:44:03Z</time>
      </trkpt>
      <trkpt lat="38.3703560" lon="-0.6927680">
        <ele>249.7</ele>
        <time>2018-03-30T06:44:04Z</time>
      </trkpt>
      <trkpt lat="38.3703860" lon="-0.6927260">
        <ele>250.1</ele>
        <time>2018-03-30T06:44:05Z</time>
      </trkpt>
      <trkpt lat="38.3704150" lon="-0.6926840">
        <ele>250.4</ele>
        <time>2018-03-30T06:44:06Z</time>
      </trkpt>
      <trkpt lat="38.3704440" lon="-0.6926430">
        <ele>250.7</ele>
        <time>2018-03-30T06:44:07Z</time>
      </trkpt>
      <trkpt lat="38.3704730" lon="-0.6926000">
        <ele>251.0</ele>
        <time>2018-03-30T06:44:08Z</time>
      </trkpt>
      <trkpt lat="38.3705030" lon="-0.6925570">
        <ele>251.1</ele>
        <time>2018-03-30T06:44:09Z</time>
      </trkpt>
      <trkpt lat="38.3705330" lon="-0.6925130">
        <ele>251.3</ele>
        <time>2018-03-30T06:44:10Z</time>
      </trkpt>
      <trkpt lat="38.3705620" lon="-0.6924710">
        <ele>251.4</ele>
        <time>2018-03-30T06:44:11Z</time>
      </trkpt>
      <trkpt lat="38.3705910" lon="-0.6924250">
        <ele>251.6</ele>
        <time>2018-03-30T06:44:12Z</time>
      </trkpt>
      <trkpt lat="38.3706190" lon="-0.6923810">
        <ele>251.7</ele>
        <time>2018-03-30T06:44:13Z</time>
      </trkpt>
      <trkpt lat="38.3706470" lon="-0.6923390">
        <ele>251.8</ele>
        <time>2018-03-30T06:44:14Z</time>
      </trkpt>
      <trkpt lat="38.3706760" lon="-0.6922980">
        <ele>251.9</ele>
        <time>2018-03-30T06:44:15Z</time>
      </trkpt>
      <trkpt lat="38.3707050" lon="-0.6922540">
        <ele>252.1</ele>
        <time>2018-03-30T06:44:16Z</time>
      </trkpt>
      <trkpt lat="38.3707340" lon="-0.6922120">
        <ele>252.2</ele>
        <time>2018-03-30T06:44:17Z</time>
      </trkpt>
      <trkpt lat="38.3707640" lon="-0.6921710">
        <ele>252.4</ele>
        <time>2018-03-30T06:44:18Z</time>
      </trkpt>
      <trkpt lat="38.3707950" lon="-0.6921280">
        <ele>252.7</ele>
        <time>2018-03-30T06:44:19Z</time>
      </trkpt>
      <trkpt lat="38.3708260" lon="-0.6920850">
        <ele>253.0</ele>
        <time>2018-03-30T06:44:20Z</time>
      </trkpt>
      <trkpt lat="38.3708570" lon="-0.6920410">
        <ele>253.3</ele>
        <time>2018-03-30T06:44:21Z</time>
      </trkpt>
      <trkpt lat="38.3708870" lon="-0.6919970">
        <ele>253.7</ele>
        <time>2018-03-30T06:44:22Z</time>
      </trkpt>
      <trkpt lat="38.3709170" lon="-0.6919530">
        <ele>254.0</ele>
        <time>2018-03-30T06:44:23Z</time>
      </trkpt>
      <trkpt lat="38.3709460" lon="-0.6919090">
        <ele>254.3</ele>
        <time>2018-03-30T06:44:24Z</time>
      </trkpt>
      <trkpt lat="38.3709750" lon="-0.6918660">
        <ele>254.6</ele>
        <time>2018-03-30T06:44:25Z</time>
      </trkpt>
      <trkpt lat="38.3710040" lon="-0.6918250">
        <ele>254.9</ele>
        <time>2018-03-30T06:44:26Z</time>
      </trkpt>
      <trkpt lat="38.3710330" lon="-0.6917830">
        <ele>255.1</ele>
        <time>2018-03-30T06:44:27Z</time>
      </trkpt>
      <trkpt lat="38.3710630" lon="-0.6917430">
        <ele>255.3</ele>
        <time>2018-03-30T06:44:28Z</time>
      </trkpt>
      <trkpt lat="38.3710920" lon="-0.6917020">
        <ele>255.5</ele>
        <time>2018-03-30T06:44:29Z</time>
      </trkpt>
      <trkpt lat="38.3711220" lon="-0.6916600">
        <ele>255.7</ele>
        <time>2018-03-30T06:44:30Z</time>
      </trkpt>
      <trkpt lat="38.3711510" lon="-0.6916170">
        <ele>255.9</ele>
        <time>2018-03-30T06:44:31Z</time>
      </trkpt>
      <trkpt lat="38.3711800" lon="-0.6915760">
        <ele>256.1</ele>
        <time>2018-03-30T06:44:32Z</time>
      </trkpt>
      <trkpt lat="38.3712090" lon="-0.6915350">
        <ele>256.5</ele>
        <time>2018-03-30T06:44:33Z</time>
      </trkpt>
      <trkpt lat="38.3712380" lon="-0.6914930">
        <ele>256.8</ele>
        <time>2018-03-30T06:44:34Z</time>
      </trkpt>
      <trkpt lat="38.3712670" lon="-0.6914530">
        <ele>257.1</ele>
        <time>2018-03-30T06:44:35Z</time>
      </trkpt>
      <trkpt lat="38.3712960" lon="-0.6914110">
        <ele>257.4</ele>
        <time>2018-03-30T06:44:36Z</time>
      </trkpt>
      <trkpt lat="38.3713240" lon="-0.6913690">
        <ele>257.8</ele>
        <time>2018-03-30T06:44:37Z</time>
      </trkpt>
      <trkpt lat="38.3713520" lon="-0.6913270">
        <ele>258.0</ele>
        <time>2018-03-30T06:44:38Z</time>
      </trkpt>
      <trkpt lat="38.3713820" lon="-0.6912850">
        <ele>258.3</ele>
        <time>2018-03-30T06:44:39Z</time>
      </trkpt>
      <trkpt lat="38.3714100" lon="-0.6912430">
        <ele>258.4</ele>
        <time>2018-03-30T06:44:40Z</time>
      </trkpt>
      <trkpt lat="38.3714380" lon="-0.6911990">
        <ele>258.5</ele>
        <time>2018-03-30T06:44:41Z</time>
      </trkpt>
      <trkpt lat="38.3714670" lon="-0.6911560">
        <ele>258.6</ele>
        <time>2018-03-30T06:44:42Z</time>
      </trkpt>
      <trkpt lat="38.3714950" lon="-0.6911140">
        <ele>258.7</ele>
        <time>2018-03-30T06:44:43Z</time>
      </trkpt>
      <trkpt lat="38.3715230" lon="-0.6910710">
        <ele>258.7</ele>
        <time>2018-03-30T06:44:44Z</time>
      </trkpt>
      <trkpt lat="38.3715510" lon="-0.6910280">
        <ele>258.8</ele>
        <time>2018-03-30T06:44:45Z</time>
      </trkpt>
      <trkpt lat="38.3715800" lon="-0.6909860">
        <ele>258.9</ele>
        <time>2018-03-30T06:44:46Z</time>
      </trkpt>
      <trkpt lat="38.3716090" lon="-0.6909440">
        <ele>259.0</ele>
        <time>2018-03-30T06:44:47Z</time>
      </trkpt>
      <trkpt lat="38.3716390" lon="-0.6909010">
        <ele>259.1</ele>
        <time>2018-03-30T06:44:48Z</time>
      </trkpt>
      <trkpt lat="38.3716690" lon="-0.6908580">
        <ele>259.2</ele>
        <time>2018-03-30T06:44:49Z</time>
      </trkpt>
      <trkpt lat="38.3716990" lon="-0.6908150">
        <ele>259.2</ele>
        <time>2018-03-30T06:44:50Z</time>
      </trkpt>
      <trkpt lat="38.3717290" lon="-0.6907690">
        <ele>259.3</ele>
        <time>2018-03-30T06:44:51Z</time>
      </trkpt>
      <trkpt lat="38.3717580" lon="-0.6907220">
        <ele>259.3</ele>
        <time>2018-03-30T06:44:52Z</time>
      </trkpt>
      <trkpt lat="38.3717860" lon="-0.6906730">
        <ele>259.4</ele>
        <time>2018-03-30T06:44:53Z</time>
      </trkpt>
      <trkpt lat="38.3718140" lon="-0.6906220">
        <ele>259.4</ele>
        <time>2018-03-30T06:44:54Z</time>
      </trkpt>
      <trkpt lat="38.3718400" lon="-0.6905700">
        <ele>259.5</ele>
        <time>2018-03-30T06:44:55Z</time>
      </trkpt>
      <trkpt lat="38.3718650" lon="-0.6905200">
        <ele>259.6</ele>
        <time>2018-03-30T06:44:56Z</time>
      </trkpt>
      <trkpt lat="38.3718910" lon="-0.6904710">
        <ele>259.6</ele>
        <time>2018-03-30T06:44:57Z</time>
      </trkpt>
      <trkpt lat="38.3719170" lon="-0.6904200">
        <ele>259.7</ele>
        <time>2018-03-30T06:44:58Z</time>
      </trkpt>
      <trkpt lat="38.3719420" lon="-0.6903700">
        <ele>259.7</ele>
        <time>2018-03-30T06:44:59Z</time>
      </trkpt>
      <trkpt lat="38.3719680" lon="-0.6903140">
        <ele>259.8</ele>
        <time>2018-03-30T06:45:00Z</time>
      </trkpt>
      <trkpt lat="38.3719940" lon="-0.6902570">
        <ele>259.8</ele>
        <time>2018-03-30T06:45:01Z</time>
      </trkpt>
      <trkpt lat="38.3720200" lon="-0.6902020">
        <ele>259.9</ele>
        <time>2018-03-30T06:45:02Z</time>
      </trkpt>
      <trkpt lat="38.3720450" lon="-0.6901470">
        <ele>260.0</ele>
        <time>2018-03-30T06:45:03Z</time>
      </trkpt>
      <trkpt lat="38.3720710" lon="-0.6900890">
        <ele>260.1</ele>
        <time>2018-03-30T06:45:04Z</time>
      </trkpt>
      <trkpt lat="38.3720980" lon="-0.6900330">
        <ele>260.1</ele>
        <time>2018-03-30T06:45:05Z</time>
      </trkpt>
      <trkpt lat="38.3721250" lon="-0.6899770">
        <ele>260.2</ele>
        <time>2018-03-30T06:45:06Z</time>
      </trkpt>
      <trkpt lat="38.3721540" lon="-0.6899170">
        <ele>260.3</ele>
        <time>2018-03-30T06:45:07Z</time>
      </trkpt>
      <trkpt lat="38.3721820" lon="-0.6898600">
        <ele>260.4</ele>
        <time>2018-03-30T06:45:08Z</time>
      </trkpt>
      <trkpt lat="38.3722110" lon="-0.6898020">
        <ele>260.5</ele>
        <time>2018-03-30T06:45:09Z</time>
      </trkpt>
      <trkpt lat="38.3722430" lon="-0.6897470">
        <ele>260.5</ele>
        <time>2018-03-30T06:45:10Z</time>
      </trkpt>
      <trkpt lat="38.3722770" lon="-0.6896940">
        <ele>260.7</ele>
        <time>2018-03-30T06:45:11Z</time>
      </trkpt>
      <trkpt lat="38.3723120" lon="-0.6896430">
        <ele>260.9</ele>
        <time>2018-03-30T06:45:12Z</time>
      </trkpt>
      <trkpt lat="38.3723500" lon="-0.6895940">
        <ele>261.3</ele>
        <time>2018-03-30T06:45:13Z</time>
      </trkpt>
      <trkpt lat="38.3723920" lon="-0.6895500">
        <ele>261.8</ele>
        <time>2018-03-30T06:45:14Z</time>
      </trkpt>
      <trkpt lat="38.3724370" lon="-0.6895110">
        <ele>262.4</ele>
        <time>2018-03-30T06:45:15Z</time>
      </trkpt>
      <trkpt lat="38.3724850" lon="-0.6894760">
        <ele>262.8</ele>
        <time>2018-03-30T06:45:16Z</time>
      </trkpt>
      <trkpt lat="38.3725390" lon="-0.6894480">
        <ele>261.5</ele>
        <time>2018-03-30T06:45:17Z</time>
      </trkpt>
      <trkpt lat="38.3725970" lon="-0.6894300">
        <ele>260.1</ele>
        <time>2018-03-30T06:45:18Z</time>
      </trkpt>
      <trkpt lat="38.3726550" lon="-0.6894170">
        <ele>258.8</ele>
        <time>2018-03-30T06:45:19Z</time>
      </trkpt>
      <trkpt lat="38.3727140" lon="-0.6894140">
        <ele>257.5</ele>
        <time>2018-03-30T06:45:20Z</time>
      </trkpt>
      <trkpt lat="38.3727730" lon="-0.6894180">
        <ele>256.2</ele>
        <time>2018-03-30T06:45:21Z</time>
      </trkpt>
      <trkpt lat="38.3728320" lon="-0.6894250">
        <ele>256.0</ele>
        <time>2018-03-30T06:45:22Z</time>
      </trkpt>
      <trkpt lat="38.3728890" lon="-0.6894340">
        <ele>256.0</ele>
        <time>2018-03-30T06:45:23Z</time>
      </trkpt>
      <trkpt lat="38.3729470" lon="-0.6894430">
        <ele>255.9</ele>
        <time>2018-03-30T06:45:24Z</time>
      </trkpt>
      <trkpt lat="38.3730040" lon="-0.6894560">
        <ele>255.8</ele>
        <time>2018-03-30T06:45:25Z</time>
      </trkpt>
      <trkpt lat="38.3730610" lon="-0.6894670">
        <ele>255.8</ele>
        <time>2018-03-30T06:45:26Z</time>
      </trkpt>
      <trkpt lat="38.3731190" lon="-0.6894780">
        <ele>255.9</ele>
        <time>2018-03-30T06:45:27Z</time>
      </trkpt>
      <trkpt lat="38.3731770" lon="-0.6894900">
        <ele>256.0</ele>
        <time>2018-03-30T06:45:28Z</time>
      </trkpt>
      <trkpt lat="38.3732340" lon="-0.6894990">
        <ele>256.0</ele>
        <time>2018-03-30T06:45:29Z</time>
      </trkpt>
      <trkpt lat="38.3732920" lon="-0.6895060">
        <ele>256.1</ele>
        <time>2018-03-30T06:45:30Z</time>
      </trkpt>
      <trkpt lat="38.3733490" lon="-0.6895110">
        <ele>256.7</ele>
        <time>2018-03-30T06:45:31Z</time>
      </trkpt>
      <trkpt lat="38.3734070" lon="-0.6895150">
        <ele>257.3</ele>
        <time>2018-03-30T06:45:32Z</time>
      </trkpt>
      <trkpt lat="38.3734650" lon="-0.6895180">
        <ele>257.8</ele>
        <time>2018-03-30T06:45:33Z</time>
      </trkpt>
      <trkpt lat="38.3735230" lon="-0.6895210">
        <ele>258.0</ele>
        <time>2018-03-30T06:45:34Z</time>
      </trkpt>
      <trkpt lat="38.3735800" lon="-0.6895200">
        <ele>258.1</ele>
        <time>2018-03-30T06:45:35Z</time>
      </trkpt>
      <trkpt lat="38.3736390" lon="-0.6895190">
        <ele>258.2</ele>
        <time>2018-03-30T06:45:36Z</time>
      </trkpt>
      <trkpt lat="38.3736960" lon="-0.6895180">
        <ele>258.2</ele>
        <time>2018-03-30T06:45:37Z</time>
      </trkpt>
      <trkpt lat="38.3737530" lon="-0.6895160">
        <ele>258.3</ele>
        <time>2018-03-30T06:45:38Z</time>
      </trkpt>
      <trkpt lat="38.3738100" lon="-0.6895130">
        <ele>258.4</ele>
        <time>2018-03-30T06:45:39Z</time>
      </trkpt>
      <trkpt lat="38.3738670" lon="-0.6895100">
        <ele>258.4</ele>
        <time>2018-03-30T06:45:40Z</time>
      </trkpt>
      <trkpt lat="38.3739240" lon="-0.6895070">
        <ele>258.5</ele>
        <time>2018-03-30T06:45:41Z</time>
      </trkpt>
      <trkpt lat="38.3739830" lon="-0.6895020">
        <ele>258.6</ele>
        <time>2018-03-30T06:45:42Z</time>
      </trkpt>
      <trkpt lat="38.3740400" lon="-0.6894980">
        <ele>258.7</ele>
        <time>2018-03-30T06:45:43Z</time>
      </trkpt>
      <trkpt lat="38.3740950" lon="-0.6894950">
        <ele>258.7</ele>
        <time>2018-03-30T06:45:44Z</time>
      </trkpt>
      <trkpt lat="38.3741510" lon="-0.6894920">
        <ele>258.8</ele>
        <time>2018-03-30T06:45:45Z</time>
      </trkpt>
      <trkpt lat="38.3742050" lon="-0.6894890">
        <ele>258.9</ele>
        <time>2018-03-30T06:45:46Z</time>
      </trkpt>
      <trkpt lat="38.3742600" lon="-0.6894870">
        <ele>259.0</ele>
        <time>2018-03-30T06:45:47Z</time>
      </trkpt>
      <trkpt lat="38.3743130" lon="-0.6894860">
        <ele>259.0</ele>
        <time>2018-03-30T06:45:48Z</time>
      </trkpt>
      <trkpt lat="38.3743660" lon="-0.6894830">
        <ele>258.9</ele>
        <time>2018-03-30T06:45:49Z</time>
      </trkpt>
      <trkpt lat="38.3744180" lon="-0.6894790">
        <ele>258.9</ele>
        <time>2018-03-30T06:45:50Z</time>
      </trkpt>
      <trkpt lat="38.3744700" lon="-0.6894750">
        <ele>258.9</ele>
        <time>2018-03-30T06:45:51Z</time>
      </trkpt>
      <trkpt lat="38.3745220" lon="-0.6894710">
        <ele>258.9</ele>
        <time>2018-03-30T06:45:52Z</time>
      </trkpt>
      <trkpt lat="38.3745740" lon="-0.6894680">
        <ele>258.8</ele>
        <time>2018-03-30T06:45:53Z</time>
      </trkpt>
      <trkpt lat="38.3746270" lon="-0.6894640">
        <ele>258.8</ele>
        <time>2018-03-30T06:45:54Z</time>
      </trkpt>
      <trkpt lat="38.3746800" lon="-0.6894590">
        <ele>258.8</ele>
        <time>2018-03-30T06:45:55Z</time>
      </trkpt>
      <trkpt lat="38.3747330" lon="-0.6894560">
        <ele>258.7</ele>
        <time>2018-03-30T06:45:56Z</time>
      </trkpt>
      <trkpt lat="38.3747860" lon="-0.6894520">
        <ele>258.7</ele>
        <time>2018-03-30T06:45:57Z</time>
      </trkpt>
      <trkpt lat="38.3748400" lon="-0.6894470">
        <ele>258.6</ele>
        <time>2018-03-30T06:45:58Z</time>
      </trkpt>
      <trkpt lat="38.3748930" lon="-0.6894430">
        <ele>258.6</ele>
        <time>2018-03-30T06:45:59Z</time>
      </trkpt>
      <trkpt lat="38.3749460" lon="-0.6894360">
        <ele>258.6</ele>
        <time>2018-03-30T06:46:00Z</time>
      </trkpt>
      <trkpt lat="38.3749990" lon="-0.6894210">
        <ele>258.6</ele>
        <time>2018-03-30T06:46:01Z</time>
      </trkpt>
      <trkpt lat="38.3750530" lon="-0.6894080">
        <ele>258.6</ele>
        <time>2018-03-30T06:46:02Z</time>
      </trkpt>
      <trkpt lat="38.3751070" lon="-0.6893960">
        <ele>258.5</ele>
        <time>2018-03-30T06:46:03Z</time>
      </trkpt>
      <trkpt lat="38.3751610" lon="-0.6893830">
        <ele>258.5</ele>
        <time>2018-03-30T06:46:04Z</time>
      </trkpt>
      <trkpt lat="38.3752150" lon="-0.6893680">
        <ele>258.5</ele>
        <time>2018-03-30T06:46:05Z</time>
      </trkpt>
      <trkpt lat="38.3752710" lon="-0.6893530">
        <ele>258.5</ele>
        <time>2018-03-30T06:46:06Z</time>
      </trkpt>
      <trkpt lat="38.3753250" lon="-0.6893360">
        <ele>258.4</ele>
        <time>2018-03-30T06:46:07Z</time>
      </trkpt>
      <trkpt lat="38.3753800" lon="-0.6893180">
        <ele>258.3</ele>
        <time>2018-03-30T06:46:08Z</time>
      </trkpt>
      <trkpt lat="38.3754350" lon="-0.6893010">
        <ele>258.3</ele>
        <time>2018-03-30T06:46:09Z</time>
      </trkpt>
      <trkpt lat="38.3754910" lon="-0.6892850">
        <ele>258.2</ele>
        <time>2018-03-30T06:46:10Z</time>
      </trkpt>
      <trkpt lat="38.3755470" lon="-0.6892660">
        <ele>258.2</ele>
        <time>2018-03-30T06:46:11Z</time>
      </trkpt>
      <trkpt lat="38.3756020" lon="-0.6892480">
        <ele>258.0</ele>
        <time>2018-03-30T06:46:12Z</time>
      </trkpt>
      <trkpt lat="38.3756560" lon="-0.6892290">
        <ele>258.7</ele>
        <time>2018-03-30T06:46:13Z</time>
      </trkpt>
      <trkpt lat="38.3757100" lon="-0.6892090">
        <ele>259.8</ele>
        <time>2018-03-30T06:46:14Z</time>
      </trkpt>
      <trkpt lat="38.3757640" lon="-0.6891850">
        <ele>260.8</ele>
        <time>2018-03-30T06:46:15Z</time>
      </trkpt>
      <trkpt lat="38.3758170" lon="-0.6891590">
        <ele>261.9</ele>
        <time>2018-03-30T06:46:16Z</time>
      </trkpt>
      <trkpt lat="38.3758670" lon="-0.6891240">
        <ele>263.0</ele>
        <time>2018-03-30T06:46:17Z</time>
      </trkpt>
      <trkpt lat="38.3759150" lon="-0.6890850">
        <ele>264.1</ele>
        <time>2018-03-30T06:46:18Z</time>
      </trkpt>
      <trkpt lat="38.3759580" lon="-0.6890420">
        <ele>265.0</ele>
        <time>2018-03-30T06:46:19Z</time>
      </trkpt>
      <trkpt lat="38.3760020" lon="-0.6890010">
        <ele>265.1</ele>
        <time>2018-03-30T06:46:20Z</time>
      </trkpt>
      <trkpt lat="38.3760380" lon="-0.6889570">
        <ele>265.2</ele>
        <time>2018-03-30T06:46:21Z</time>
      </trkpt>
      <trkpt lat="38.3760750" lon="-0.6889140">
        <ele>265.3</ele>
        <time>2018-03-30T06:46:22Z</time>
      </trkpt>
      <trkpt lat="38.3761060" lon="-0.6888730">
        <ele>265.4</ele>
        <time>2018-03-30T06:46:23Z</time>
      </trkpt>
      <trkpt lat="38.3761390" lon="-0.6888360">
        <ele>265.5</ele>
        <time>2018-03-30T06:46:24Z</time>
      </trkpt>
      <trkpt lat="38.3761660" lon="-0.6887980">
        <ele>265.6</ele>
        <time>2018-03-30T06:46:25Z</time>
      </trkpt>
      <trkpt lat="38.3761910" lon="-0.6887610">
        <ele>265.7</ele>
        <time>2018-03-30T06:46:26Z</time>
      </trkpt>
      <trkpt lat="38.3762160" lon="-0.6887320">
        <ele>265.8</ele>
        <time>2018-03-30T06:46:27Z</time>
      </trkpt>
      <trkpt lat="38.3762390" lon="-0.6886970">
        <ele>265.9</ele>
        <time>2018-03-30T06:46:28Z</time>
      </trkpt>
      <trkpt lat="38.3762630" lon="-0.6886640">
        <ele>266.0</ele>
        <time>2018-03-30T06:46:29Z</time>
      </trkpt>
      <trkpt lat="38.3762850" lon="-0.6886280">
        <ele>266.1</ele>
        <time>2018-03-30T06:46:30Z</time>
      </trkpt>
      <trkpt lat="38.3763050" lon="-0.6885910">
        <ele>266.2</ele>
        <time>2018-03-30T06:46:31Z</time>
      </trkpt>
      <trkpt lat="38.3763270" lon="-0.6885550">
        <ele>266.4</ele>
        <time>2018-03-30T06:46:32Z</time>
      </trkpt>
      <trkpt lat="38.3763480" lon="-0.6885260">
        <ele>266.4</ele>
        <time>2018-03-30T06:46:33Z</time>
      </trkpt>
      <trkpt lat="38.3763670" lon="-0.6884920">
        <ele>266.5</ele>
        <time>2018-03-30T06:46:34Z</time>
      </trkpt>
      <trkpt lat="38.3763870" lon="-0.6884530">
        <ele>266.6</ele>
        <time>2018-03-30T06:46:35Z</time>
      </trkpt>
      <trkpt lat="38.3764080" lon="-0.6884160">
        <ele>266.7</ele>
        <time>2018-03-30T06:46:36Z</time>
      </trkpt>
      <trkpt lat="38.3764270" lon="-0.6883790">
        <ele>266.9</ele>
        <time>2018-03-30T06:46:37Z</time>
      </trkpt>
      <trkpt lat="38.3764470" lon="-0.6883410">
        <ele>267.0</ele>
        <time>2018-03-30T06:46:38Z</time>
      </trkpt>
      <trkpt lat="38.3764680" lon="-0.6883050">
        <ele>267.1</ele>
        <time>2018-03-30T06:46:39Z</time>
      </trkpt>
      <trkpt lat="38.3764890" lon="-0.6882710">
        <ele>267.2</ele>
        <time>2018-03-30T06:46:40Z</time>
      </trkpt>
      <trkpt lat="38.3765080" lon="-0.6882360">
        <ele>267.3</ele>
        <time>2018-03-30T06:46:41Z</time>
      </trkpt>
      <trkpt lat="38.3765290" lon="-0.6881990">
        <ele>267.4</ele>
        <time>2018-03-30T06:46:42Z</time>
      </trkpt>
      <trkpt lat="38.3765500" lon="-0.6881640">
        <ele>267.5</ele>
        <time>2018-03-30T06:46:43Z</time>
      </trkpt>
      <trkpt lat="38.3765710" lon="-0.6881300">
        <ele>267.6</ele>
        <time>2018-03-30T06:46:44Z</time>
      </trkpt>
      <trkpt lat="38.3765900" lon="-0.6880940">
        <ele>267.7</ele>
        <time>2018-03-30T06:46:45Z</time>
      </trkpt>
      <trkpt lat="38.3766100" lon="-0.6880570">
        <ele>267.8</ele>
        <time>2018-03-30T06:46:46Z</time>
      </trkpt>
      <trkpt lat="38.3766300" lon="-0.6880220">
        <ele>267.8</ele>
        <time>2018-03-30T06:46:47Z</time>
      </trkpt>
      <trkpt lat="38.3766500" lon="-0.6879870">
        <ele>267.8</ele>
        <time>2018-03-30T06:46:48Z</time>
      </trkpt>
      <trkpt lat="38.3766680" lon="-0.6879530">
        <ele>267.9</ele>
        <time>2018-03-30T06:46:49Z</time>
      </trkpt>
      <trkpt lat="38.3766890" lon="-0.6879160">
        <ele>267.9</ele>
        <time>2018-03-30T06:46:50Z</time>
      </trkpt>
      <trkpt lat="38.3767110" lon="-0.6878790">
        <ele>267.9</ele>
        <time>2018-03-30T06:46:51Z</time>
      </trkpt>
      <trkpt lat="38.3767330" lon="-0.6878440">
        <ele>268.0</ele>
        <time>2018-03-30T06:46:52Z</time>
      </trkpt>
      <trkpt lat="38.3767530" lon="-0.6878090">
        <ele>268.0</ele>
        <time>2018-03-30T06:46:53Z</time>
      </trkpt>
      <trkpt lat="38.3767740" lon="-0.6877740">
        <ele>268.0</ele>
        <time>2018-03-30T06:46:54Z</time>
      </trkpt>
      <trkpt lat="38.3767930" lon="-0.6877390">
        <ele>268.0</ele>
        <time>2018-03-30T06:46:55Z</time>
      </trkpt>
      <trkpt lat="38.3768130" lon="-0.6877010">
        <ele>268.0</ele>
        <time>2018-03-30T06:46:56Z</time>
      </trkpt>
      <trkpt lat="38.3768370" lon="-0.6876630">
        <ele>268.0</ele>
        <time>2018-03-30T06:46:57Z</time>
      </trkpt>
      <trkpt lat="38.3768630" lon="-0.6876220">
        <ele>268.1</ele>
        <time>2018-03-30T06:46:58Z</time>
      </trkpt>
      <trkpt lat="38.3768890" lon="-0.6875810">
        <ele>268.2</ele>
        <time>2018-03-30T06:46:59Z</time>
      </trkpt>
      <trkpt lat="38.3769160" lon="-0.6875370">
        <ele>268.3</ele>
        <time>2018-03-30T06:47:00Z</time>
      </trkpt>
      <trkpt lat="38.3769420" lon="-0.6874940">
        <ele>268.3</ele>
        <time>2018-03-30T06:47:01Z</time>
      </trkpt>
      <trkpt lat="38.3769670" lon="-0.6874520">
        <ele>268.4</ele>
        <time>2018-03-30T06:47:02Z</time>
      </trkpt>
      <trkpt lat="38.3769930" lon="-0.6874090">
        <ele>268.5</ele>
        <time>2018-03-30T06:47:03Z</time>
      </trkpt>
      <trkpt lat="38.3770200" lon="-0.6873570">
        <ele>268.6</ele>
        <time>2018-03-30T06:47:04Z</time>
      </trkpt>
      <trkpt lat="38.3770470" lon="-0.6873090">
        <ele>268.7</ele>
        <time>2018-03-30T06:47:05Z</time>
      </trkpt>
      <trkpt lat="38.3770740" lon="-0.6872610">
        <ele>268.8</ele>
        <time>2018-03-30T06:47:06Z</time>
      </trkpt>
      <trkpt lat="38.3771040" lon="-0.6872150">
        <ele>268.9</ele>
        <time>2018-03-30T06:47:07Z</time>
      </trkpt>
      <trkpt lat="38.3771340" lon="-0.6871660">
        <ele>269.0</ele>
        <time>2018-03-30T06:47:08Z</time>
      </trkpt>
      <trkpt lat="38.3771670" lon="-0.6871180">
        <ele>269.1</ele>
        <time>2018-03-30T06:47:09Z</time>
      </trkpt>
      <trkpt lat="38.3772040" lon="-0.6870640">
        <ele>269.3</ele>
        <time>2018-03-30T06:47:10Z</time>
      </trkpt>
      <trkpt lat="38.3772430" lon="-0.6870090">
        <ele>269.4</ele>
        <time>2018-03-30T06:47:11Z</time>
      </trkpt>
      <trkpt lat="38.3772890" lon="-0.6869540">
        <ele>269.7</ele>
        <time>2018-03-30T06:47:12Z</time>
      </trkpt>
      <trkpt lat="38.3773390" lon="-0.6868990">
        <ele>269.8</ele>
        <time>2018-03-30T06:47:13Z</time>
      </trkpt>
      <trkpt lat="38.3773910" lon="-0.6868480">
        <ele>270.0</ele>
        <time>2018-03-30T06:47:14Z</time>
      </trkpt>
      <trkpt lat="38.3774470" lon="-0.6867980">
        <ele>270.1</ele>
        <time>2018-03-30T06:47:15Z</time>
      </trkpt>
      <trkpt lat="38.3775070" lon="-0.6867450">
        <ele>270.2</ele>
        <time>2018-03-30T06:47:16Z</time>
      </trkpt>
      <trkpt lat="38.3775690" lon="-0.6866910">
        <ele>270.4</ele>
        <time>2018-03-30T06:47:17Z</time>
      </trkpt>
      <trkpt lat="38.3776380" lon="-0.6866410">
        <ele>270.5</ele>
        <time>2018-03-30T06:47:18Z</time>
      </trkpt>
      <trkpt lat="38.3777130" lon="-0.6866090">
        <ele>270.6</ele>
        <time>2018-03-30T06:47:19Z</time>
      </trkpt>
      <trkpt lat="38.3777890" lon="-0.6865790">
        <ele>270.7</ele>
        <time>2018-03-30T06:47:20Z</time>
      </trkpt>
      <trkpt lat="38.3778640" lon="-0.6865600">
        <ele>270.9</ele>
        <time>2018-03-30T06:47:21Z</time>
      </trkpt>
      <trkpt lat="38.3779370" lon="-0.6865540">
        <ele>271.0</ele>
        <time>2018-03-30T06:47:22Z</time>
      </trkpt>
      <trkpt lat="38.3780120" lon="-0.6865610">
        <ele>271.1</ele>
        <time>2018-03-30T06:47:23Z</time>
      </trkpt>
      <trkpt lat="38.3780820" lon="-0.6865870">
        <ele>271.3</ele>
        <time>2018-03-30T06:47:24Z</time>
      </trkpt>
      <trkpt lat="38.3781500" lon="-0.6866080">
        <ele>271.5</ele>
        <time>2018-03-30T06:47:25Z</time>
      </trkpt>
      <trkpt lat="38.3782140" lon="-0.6866340">
        <ele>271.8</ele>
        <time>2018-03-30T06:47:26Z</time>
      </trkpt>
      <trkpt lat="38.3782760" lon="-0.6866580">
        <ele>271.5</ele>
        <time>2018-03-30T06:47:27Z</time>
      </trkpt>
      <trkpt lat="38.3783360" lon="-0.6866810">
        <ele>268.9</ele>
        <time>2018-03-30T06:47:28Z</time>
      </trkpt>
      <trkpt lat="38.3783960" lon="-0.6867040">
        <ele>266.3</ele>
        <time>2018-03-30T06:47:29Z</time>
      </trkpt>
      <trkpt lat="38.3784580" lon="-0.6867210">
        <ele>264.0</ele>
        <time>2018-03-30T06:47:30Z</time>
      </trkpt>
      <trkpt lat="38.3785180" lon="-0.6867390">
        <ele>264.1</ele>
        <time>2018-03-30T06:47:31Z</time>
      </trkpt>
      <trkpt lat="38.3785800" lon="-0.6867510">
        <ele>264.2</ele>
        <time>2018-03-30T06:47:32Z</time>
      </trkpt>
      <trkpt lat="38.3786430" lon="-0.6867580">
        <ele>264.3</ele>
        <time>2018-03-30T06:47:33Z</time>
      </trkpt>
      <trkpt lat="38.3787050" lon="-0.6867610">
        <ele>264.4</ele>
        <time>2018-03-30T06:47:34Z</time>
      </trkpt>
      <trkpt lat="38.3787670" lon="-0.6867560">
        <ele>264.7</ele>
        <time>2018-03-30T06:47:35Z</time>
      </trkpt>
      <trkpt lat="38.3788270" lon="-0.6867480">
        <ele>264.8</ele>
        <time>2018-03-30T06:47:36Z</time>
      </trkpt>
      <trkpt lat="38.3788860" lon="-0.6867350">
        <ele>264.9</ele>
        <time>2018-03-30T06:47:37Z</time>
      </trkpt>
      <trkpt lat="38.3789460" lon="-0.6867160">
        <ele>265.1</ele>
        <time>2018-03-30T06:47:38Z</time>
      </trkpt>
      <trkpt lat="38.3790040" lon="-0.6866930">
        <ele>265.3</ele>
        <time>2018-03-30T06:47:39Z</time>
      </trkpt>
      <trkpt lat="38.3790590" lon="-0.6866710">
        <ele>265.4</ele>
        <time>2018-03-30T06:47:40Z</time>
      </trkpt>
      <trkpt lat="38.3791130" lon="-0.6866470">
        <ele>265.5</ele>
        <time>2018-03-30T06:47:41Z</time>
      </trkpt>
      <trkpt lat="38.3791660" lon="-0.6866230">
        <ele>265.6</ele>
        <time>2018-03-30T06:47:42Z</time>
      </trkpt>
      <trkpt lat="38.3792190" lon="-0.6865990">
        <ele>265.7</ele>
        <time>2018-03-30T06:47:43Z</time>
      </trkpt>
      <trkpt lat="38.3792710" lon="-0.6865710">
        <ele>265.7</ele>
        <time>2018-03-30T06:47:44Z</time>
      </trkpt>
      <trkpt lat="38.3793200" lon="-0.6865370">
        <ele>265.8</ele>
        <time>2018-03-30T06:47:45Z</time>
      </trkpt>
      <trkpt lat="38.3793670" lon="-0.6865040">
        <ele>265.9</ele>
        <time>2018-03-30T06:47:46Z</time>
      </trkpt>
      <trkpt lat="38.3794130" lon="-0.6864690">
        <ele>268.5</ele>
        <time>2018-03-30T06:47:47Z</time>
      </trkpt>
      <trkpt lat="38.3794580" lon="-0.6864360">
        <ele>271.0</ele>
        <time>2018-03-30T06:47:48Z</time>
      </trkpt>
      <trkpt lat="38.3795060" lon="-0.6863970">
        <ele>271.0</ele>
        <time>2018-03-30T06:47:49Z</time>
      </trkpt>
      <trkpt lat="38.3795520" lon="-0.6863660">
        <ele>271.1</ele>
        <time>2018-03-30T06:47:50Z</time>
      </trkpt>
      <trkpt lat="38.3796000" lon="-0.6863360">
        <ele>271.1</ele>
        <time>2018-03-30T06:47:51Z</time>
      </trkpt>
      <trkpt lat="38.3796490" lon="-0.6863080">
        <ele>271.2</ele>
        <time>2018-03-30T06:47:52Z</time>
      </trkpt>
      <trkpt lat="38.3796990" lon="-0.6862820">
        <ele>271.2</ele>
        <time>2018-03-30T06:47:53Z</time>
      </trkpt>
      <trkpt lat="38.3797490" lon="-0.6862560">
        <ele>271.2</ele>
        <time>2018-03-30T06:47:54Z</time>
      </trkpt>
      <trkpt lat="38.3797980" lon="-0.6862340">
        <ele>271.3</ele>
        <time>2018-03-30T06:47:55Z</time>
      </trkpt>
      <trkpt lat="38.3798460" lon="-0.6862050">
        <ele>271.3</ele>
        <time>2018-03-30T06:47:56Z</time>
      </trkpt>
      <trkpt lat="38.3798940" lon="-0.6861780">
        <ele>271.3</ele>
        <time>2018-03-30T06:47:57Z</time>
      </trkpt>
      <trkpt lat="38.3799430" lon="-0.6861510">
        <ele>271.4</ele>
        <time>2018-03-30T06:47:58Z</time>
      </trkpt>
      <trkpt lat="38.3799940" lon="-0.6861240">
        <ele>271.4</ele>
        <time>2018-03-30T06:47:59Z</time>
      </trkpt>
      <trkpt lat="38.3800460" lon="-0.6860970">
        <ele>271.4</ele>
        <time>2018-03-30T06:48:00Z</time>
      </trkpt>
      <trkpt lat="38.3800970" lon="-0.6860670">
        <ele>271.5</ele>
        <time>2018-03-30T06:48:01Z</time>
      </trkpt>
      <trkpt lat="38.3801470" lon="-0.6860370">
        <ele>271.5</ele>
        <time>2018-03-30T06:48:02Z</time>
      </trkpt>
      <trkpt lat="38.3801960" lon="-0.6860060">
        <ele>271.5</ele>
        <time>2018-03-30T06:48:03Z</time>
      </trkpt>
      <trkpt lat="38.3802460" lon="-0.6859740">
        <ele>271.6</ele>
        <time>2018-03-30T06:48:04Z</time>
      </trkpt>
      <trkpt lat="38.3802940" lon="-0.6859430">
        <ele>271.6</ele>
        <time>2018-03-30T06:48:05Z</time>
      </trkpt>
      <trkpt lat="38.3803440" lon="-0.6859100">
        <ele>271.7</ele>
        <time>2018-03-30T06:48:06Z</time>
      </trkpt>
      <trkpt lat="38.3803930" lon="-0.6858750">
        <ele>271.7</ele>
        <time>2018-03-30T06:48:07Z</time>
      </trkpt>
      <trkpt lat="38.3804430" lon="-0.6858420">
        <ele>271.7</ele>
        <time>2018-03-30T06:48:08Z</time>
      </trkpt>
      <trkpt lat="38.3804910" lon="-0.6858070">
        <ele>271.7</ele>
        <time>2018-03-30T06:48:09Z</time>
      </trkpt>
      <trkpt lat="38.3805410" lon="-0.6857710">
        <ele>271.7</ele>
        <time>2018-03-30T06:48:10Z</time>
      </trkpt>
      <trkpt lat="38.3805900" lon="-0.6857350">
        <ele>271.7</ele>
        <time>2018-03-30T06:48:11Z</time>
      </trkpt>
      <trkpt lat="38.3806390" lon="-0.6856970">
        <ele>271.8</ele>
        <time>2018-03-30T06:48:12Z</time>
      </trkpt>
      <trkpt lat="38.3806880" lon="-0.6856590">
        <ele>271.8</ele>
        <time>2018-03-30T06:48:13Z</time>
      </trkpt>
      <trkpt lat="38.3807380" lon="-0.6856210">
        <ele>271.8</ele>
        <time>2018-03-30T06:48:14Z</time>
      </trkpt>
      <trkpt lat="38.3807870" lon="-0.6855850">
        <ele>271.8</ele>
        <time>2018-03-30T06:48:15Z</time>
      </trkpt>
      <trkpt lat="38.3808370" lon="-0.6855490">
        <ele>271.9</ele>
        <time>2018-03-30T06:48:16Z</time>
      </trkpt>
      <trkpt lat="38.3808860" lon="-0.6855130">
        <ele>271.9</ele>
        <time>2018-03-30T06:48:17Z</time>
      </trkpt>
      <trkpt lat="38.3809340" lon="-0.6854770">
        <ele>271.9</ele>
        <time>2018-03-30T06:48:18Z</time>
      </trkpt>
      <trkpt lat="38.3809830" lon="-0.6854420">
        <ele>272.0</ele>
        <time>2018-03-30T06:48:19Z</time>
      </trkpt>
      <trkpt lat="38.3810310" lon="-0.6854070">
        <ele>272.0</ele>
        <time>2018-03-30T06:48:20Z</time>
      </trkpt>
      <trkpt lat="38.3810790" lon="-0.6853730">
        <ele>272.0</ele>
        <time>2018-03-30T06:48:21Z</time>
      </trkpt>
      <trkpt lat="38.3811260" lon="-0.6853390">
        <ele>272.0</ele>
        <time>2018-03-30T06:48:22Z</time>
      </trkpt>
      <trkpt lat="38.3811750" lon="-0.6853060">
        <ele>272.1</ele>
        <time>2018-03-30T06:48:23Z</time>
      </trkpt>
      <trkpt lat="38.3812230" lon="-0.6852720">
        <ele>272.1</ele>
        <time>2018-03-30T06:48:24Z</time>
      </trkpt>
      <trkpt lat="38.3812720" lon="-0.6852400">
        <ele>272.1</ele>
        <time>2018-03-30T06:48:25Z</time>
      </trkpt>
      <trkpt lat="38.3813230" lon="-0.6852100">
        <ele>272.1</ele>
        <time>2018-03-30T06:48:26Z</time>
      </trkpt>
      <trkpt lat="38.3813750" lon="-0.6851800">
        <ele>272.1</ele>
        <time>2018-03-30T06:48:27Z</time>
      </trkpt>
      <trkpt lat="38.3814280" lon="-0.6851530">
        <ele>272.2</ele>
        <time>2018-03-30T06:48:28Z</time>
      </trkpt>
      <trkpt lat="38.3814850" lon="-0.6851290">
        <ele>272.2</ele>
        <time>2018-03-30T06:48:29Z</time>
      </trkpt>
      <trkpt lat="38.3815410" lon="-0.6851060">
        <ele>272.2</ele>
        <time>2018-03-30T06:48:30Z</time>
      </trkpt>
      <trkpt lat="38.3815970" lon="-0.6850830">
        <ele>272.3</ele>
        <time>2018-03-30T06:48:31Z</time>
      </trkpt>
      <trkpt lat="38.3816530" lon="-0.6850610">
        <ele>272.3</ele>
        <time>2018-03-30T06:48:32Z</time>
      </trkpt>
      <trkpt lat="38.3817110" lon="-0.6850390">
        <ele>272.3</ele>
        <time>2018-03-30T06:48:33Z</time>
      </trkpt>
      <trkpt lat="38.3817660" lon="-0.6850200">
        <ele>272.4</ele>
        <time>2018-03-30T06:48:34Z</time>
      </trkpt>
      <trkpt lat="38.3818210" lon="-0.6850000">
        <ele>272.4</ele>
        <time>2018-03-30T06:48:35Z</time>
      </trkpt>
      <trkpt lat="38.3818760" lon="-0.6849790">
        <ele>272.5</ele>
        <time>2018-03-30T06:48:36Z</time>
      </trkpt>
      <trkpt lat="38.3819310" lon="-0.6849610">
        <ele>272.5</ele>
        <time>2018-03-30T06:48:37Z</time>
      </trkpt>
      <trkpt lat="38.3819860" lon="-0.6849420">
        <ele>272.6</ele>
        <time>2018-03-30T06:48:38Z</time>
      </trkpt>
      <trkpt lat="38.3820410" lon="-0.6849210">
        <ele>272.6</ele>
        <time>2018-03-30T06:48:39Z</time>
      </trkpt>
      <trkpt lat="38.3820910" lon="-0.6848970">
        <ele>272.7</ele>
        <time>2018-03-30T06:48:40Z</time>
      </trkpt>
      <trkpt lat="38.3821420" lon="-0.6848730">
        <ele>272.7</ele>
        <time>2018-03-30T06:48:41Z</time>
      </trkpt>
      <trkpt lat="38.3821930" lon="-0.6848500">
        <ele>272.8</ele>
        <time>2018-03-30T06:48:42Z</time>
      </trkpt>
      <trkpt lat="38.3822430" lon="-0.6848290">
        <ele>272.9</ele>
        <time>2018-03-30T06:48:43Z</time>
      </trkpt>
      <trkpt lat="38.3822920" lon="-0.6848090">
        <ele>273.0</ele>
        <time>2018-03-30T06:48:44Z</time>
      </trkpt>
      <trkpt lat="38.3823390" lon="-0.6847890">
        <ele>273.2</ele>
        <time>2018-03-30T06:48:45Z</time>
      </trkpt>
      <trkpt lat="38.3823850" lon="-0.6847700">
        <ele>273.3</ele>
        <time>2018-03-30T06:48:46Z</time>
      </trkpt>
      <trkpt lat="38.3824300" lon="-0.6847510">
        <ele>273.4</ele>
        <time>2018-03-30T06:48:47Z</time>
      </trkpt>
      <trkpt lat="38.3824750" lon="-0.6847300">
        <ele>273.6</ele>
        <time>2018-03-30T06:48:48Z</time>
      </trkpt>
      <trkpt lat="38.3825180" lon="-0.6847110">
        <ele>273.7</ele>
        <time>2018-03-30T06:48:49Z</time>
      </trkpt>
      <trkpt lat="38.3825590" lon="-0.6846940">
        <ele>273.8</ele>
        <time>2018-03-30T06:48:50Z</time>
      </trkpt>
      <trkpt lat="38.3825990" lon="-0.6846780">
        <ele>273.9</ele>
        <time>2018-03-30T06:48:51Z</time>
      </trkpt>
      <trkpt lat="38.3826370" lon="-0.6846600">
        <ele>274.1</ele>
        <time>2018-03-30T06:48:52Z</time>
      </trkpt>
      <trkpt lat="38.3826730" lon="-0.6846430">
        <ele>274.2</ele>
        <time>2018-03-30T06:48:53Z</time>
      </trkpt>
      <trkpt lat="38.3827080" lon="-0.6846260">
        <ele>274.4</ele>
        <time>2018-03-30T06:48:54Z</time>
      </trkpt>
      <trkpt lat="38.3827430" lon="-0.6846080">
        <ele>274.5</ele>
        <time>2018-03-30T06:48:55Z</time>
      </trkpt>
      <trkpt lat="38.3827760" lon="-0.6845900">
        <ele>274.8</ele>
        <time>2018-03-30T06:48:56Z</time>
      </trkpt>
      <trkpt lat="38.3828080" lon="-0.6845710">
        <ele>275.0</ele>
        <time>2018-03-30T06:48:57Z</time>
      </trkpt>
      <trkpt lat="38.3828400" lon="-0.6845530">
        <ele>275.2</ele>
        <time>2018-03-30T06:48:58Z</time>
      </trkpt>
      <trkpt lat="38.3828700" lon="-0.6845370">
        <ele>275.4</ele>
        <time>2018-03-30T06:48:59Z</time>
      </trkpt>
      <trkpt lat="38.3829030" lon="-0.6845270">
        <ele>275.6</ele>
        <time>2018-03-30T06:49:00Z</time>
      </trkpt>
      <trkpt lat="38.3829350" lon="-0.6845150">
        <ele>275.8</ele>
        <time>2018-03-30T06:49:01Z</time>
      </trkpt>
      <trkpt lat="38.3829660" lon="-0.6844960">
        <ele>276.0</ele>
        <time>2018-03-30T06:49:02Z</time>
      </trkpt>
      <trkpt lat="38.3829970" lon="-0.6844750">
        <ele>276.1</ele>
        <time>2018-03-30T06:49:03Z</time>
      </trkpt>
      <trkpt lat="38.3830270" lon="-0.6844550">
        <ele>276.3</ele>
        <time>2018-03-30T06:49:04Z</time>
      </trkpt>
      <trkpt lat="38.3830570" lon="-0.6844360">
        <ele>276.5</ele>
        <time>2018-03-30T06:49:05Z</time>
      </trkpt>
      <trkpt lat="38.3830880" lon="-0.6844210">
        <ele>276.7</ele>
        <time>2018-03-30T06:49:06Z</time>
      </trkpt>
      <trkpt lat="38.3831170" lon="-0.6844030">
        <ele>276.9</ele>
        <time>2018-03-30T06:49:07Z</time>
      </trkpt>
      <trkpt lat="38.3831460" lon="-0.6843840">
        <ele>277.1</ele>
        <time>2018-03-30T06:49:08Z</time>
      </trkpt>
      <trkpt lat="38.3831760" lon="-0.6843650">
        <ele>277.3</ele>
        <time>2018-03-30T06:49:09Z</time>
      </trkpt>
      <trkpt lat="38.3832060" lon="-0.6843460">
        <ele>277.5</ele>
        <time>2018-03-30T06:49:10Z</time>
      </trkpt>
      <trkpt lat="38.3832360" lon="-0.6843290">
        <ele>277.7</ele>
        <time>2018-03-30T06:49:11Z</time>
      </trkpt>
      <trkpt lat="38.3832670" lon="-0.6843100">
        <ele>277.8</ele>
        <time>2018-03-30T06:49:12Z</time>
      </trkpt>
      <trkpt lat="38.3832970" lon="-0.6842930">
        <ele>278.1</ele>
        <time>2018-03-30T06:49:13Z</time>
      </trkpt>
      <trkpt lat="38.3833290" lon="-0.6842760">
        <ele>278.4</ele>
        <time>2018-03-30T06:49:14Z</time>
      </trkpt>
      <trkpt lat="38.3833600" lon="-0.6842590">
        <ele>278.5</ele>
        <time>2018-03-30T06:49:15Z</time>
      </trkpt>
      <trkpt lat="38.3833910" lon="-0.6842430">
        <ele>278.7</ele>
        <time>2018-03-30T06:49:16Z</time>
      </trkpt>
      <trkpt lat="38.3834210" lon="-0.6842250">
        <ele>278.9</ele>
        <time>2018-03-30T06:49:17Z</time>
      </trkpt>
      <trkpt lat="38.3834500" lon="-0.6842080">
        <ele>279.1</ele>
        <time>2018-03-30T06:49:18Z</time>
      </trkpt>
      <trkpt lat="38.3834790" lon="-0.6841930">
        <ele>279.3</ele>
        <time>2018-03-30T06:49:19Z</time>
      </trkpt>
      <trkpt lat="38.3835080" lon="-0.6841790">
        <ele>279.5</ele>
        <time>2018-03-30T06:49:20Z</time>
      </trkpt>
      <trkpt lat="38.3835360" lon="-0.6841640">
        <ele>279.6</ele>
        <time>2018-03-30T06:49:21Z</time>
      </trkpt>
      <trkpt lat="38.3835620" lon="-0.6841500">
        <ele>279.8</ele>
        <time>2018-03-30T06:49:22Z</time>
      </trkpt>
      <trkpt lat="38.3835890" lon="-0.6841330">
        <ele>279.9</ele>
        <time>2018-03-30T06:49:23Z</time>
      </trkpt>
      <trkpt lat="38.3836160" lon="-0.6841180">
        <ele>280.1</ele>
        <time>2018-03-30T06:49:24Z</time>
      </trkpt>
      <trkpt lat="38.3836450" lon="-0.6841020">
        <ele>280.2</ele>
        <time>2018-03-30T06:49:25Z</time>
      </trkpt>
      <trkpt lat="38.3836740" lon="-0.6840880">
        <ele>280.3</ele>
        <time>2018-03-30T06:49:26Z</time>
      </trkpt>
      <trkpt lat="38.3837040" lon="-0.6840670">
        <ele>280.5</ele>
        <time>2018-03-30T06:49:27Z</time>
      </trkpt>
      <trkpt lat="38.3837330" lon="-0.6840480">
        <ele>280.6</ele>
        <time>2018-03-30T06:49:28Z</time>
      </trkpt>
      <trkpt lat="38.3837660" lon="-0.6840230">
        <ele>280.7</ele>
        <time>2018-03-30T06:49:29Z</time>
      </trkpt>
      <trkpt lat="38.3837930" lon="-0.6840030">
        <ele>280.9</ele>
        <time>2018-03-30T06:49:30Z</time>
      </trkpt>
      <trkpt lat="38.3838240" lon="-0.6839830">
        <ele>281.0</ele>
        <time>2018-03-30T06:49:31Z</time>
      </trkpt>
      <trkpt lat="38.3838550" lon="-0.6839640">
        <ele>281.1</ele>
        <time>2018-03-30T06:49:32Z</time>
      </trkpt>
      <trkpt lat="38.3838890" lon="-0.6839440">
        <ele>281.3</ele>
        <time>2018-03-30T06:49:33Z</time>
      </trkpt>
      <trkpt lat="38.3839250" lon="-0.6839240">
        <ele>281.4</ele>
        <time>2018-03-30T06:49:34Z</time>
      </trkpt>
      <trkpt lat="38.3839610" lon="-0.6839040">
        <ele>281.5</ele>
        <time>2018-03-30T06:49:35Z</time>
      </trkpt>
      <trkpt lat="38.3839980" lon="-0.6838800">
        <ele>281.6</ele>
        <time>2018-03-30T06:49:36Z</time>
      </trkpt>
      <trkpt lat="38.3840360" lon="-0.6838560">
        <ele>281.7</ele>
        <time>2018-03-30T06:49:37Z</time>
      </trkpt>
      <trkpt lat="38.3840730" lon="-0.6838310">
        <ele>281.7</ele>
        <time>2018-03-30T06:49:38Z</time>
      </trkpt>
      <trkpt lat="38.3841110" lon="-0.6838020">
        <ele>281.8</ele>
        <time>2018-03-30T06:49:39Z</time>
      </trkpt>
      <trkpt lat="38.3841470" lon="-0.6837710">
        <ele>281.8</ele>
        <time>2018-03-30T06:49:40Z</time>
      </trkpt>
      <trkpt lat="38.3841830" lon="-0.6837390">
        <ele>281.9</ele>
        <time>2018-03-30T06:49:41Z</time>
      </trkpt>
      <trkpt lat="38.3842180" lon="-0.6837030">
        <ele>281.9</ele>
        <time>2018-03-30T06:49:42Z</time>
      </trkpt>
      <trkpt lat="38.3842520" lon="-0.6836670">
        <ele>282.0</ele>
        <time>2018-03-30T06:49:43Z</time>
      </trkpt>
      <trkpt lat="38.3842850" lon="-0.6836290">
        <ele>282.0</ele>
        <time>2018-03-30T06:49:44Z</time>
      </trkpt>
      <trkpt lat="38.3843170" lon="-0.6835920">
        <ele>282.1</ele>
        <time>2018-03-30T06:49:45Z</time>
      </trkpt>
      <trkpt lat="38.3843490" lon="-0.6835550">
        <ele>282.1</ele>
        <time>2018-03-30T06:49:46Z</time>
      </trkpt>
      <trkpt lat="38.3843810" lon="-0.6835170">
        <ele>282.2</ele>
        <time>2018-03-30T06:49:47Z</time>
      </trkpt>
      <trkpt lat="38.3844140" lon="-0.6834800">
        <ele>282.2</ele>
        <time>2018-03-30T06:49:48Z</time>
      </trkpt>
      <trkpt lat="38.3844450" lon="-0.6834440">
        <ele>282.3</ele>
        <time>2018-03-30T06:49:49Z</time>
      </trkpt>
      <trkpt lat="38.3844770" lon="-0.6834060">
        <ele>282.4</ele>
        <time>2018-03-30T06:49:50Z</time>
      </trkpt>
      <trkpt lat="38.3845100" lon="-0.6833700">
        <ele>282.5</ele>
        <time>2018-03-30T06:49:51Z</time>
      </trkpt>
      <trkpt lat="38.3845430" lon="-0.6833360">
        <ele>282.6</ele>
        <time>2018-03-30T06:49:52Z</time>
      </trkpt>
      <trkpt lat="38.3845730" lon="-0.6833010">
        <ele>282.7</ele>
        <time>2018-03-30T06:49:53Z</time>
      </trkpt>
      <trkpt lat="38.3846040" lon="-0.6832660">
        <ele>282.8</ele>
        <time>2018-03-30T06:49:54Z</time>
      </trkpt>
      <trkpt lat="38.3846340" lon="-0.6832320">
        <ele>282.9</ele>
        <time>2018-03-30T06:49:55Z</time>
      </trkpt>
      <trkpt lat="38.3846620" lon="-0.6831990">
        <ele>283.0</ele>
        <time>2018-03-30T06:49:56Z</time>
      </trkpt>
      <trkpt lat="38.3846910" lon="-0.6831660">
        <ele>283.1</ele>
        <time>2018-03-30T06:49:57Z</time>
      </trkpt>
      <trkpt lat="38.3847200" lon="-0.6831330">
        <ele>283.1</ele>
        <time>2018-03-30T06:49:58Z</time>
      </trkpt>
      <trkpt lat="38.3847510" lon="-0.6831000">
        <ele>283.3</ele>
        <time>2018-03-30T06:49:59Z</time>
      </trkpt>
      <trkpt lat="38.3847800" lon="-0.6830680">
        <ele>283.4</ele>
        <time>2018-03-30T06:50:00Z</time>
      </trkpt>
      <trkpt lat="38.3848090" lon="-0.6830340">
        <ele>283.5</ele>
        <time>2018-03-30T06:50:01Z</time>
      </trkpt>
      <trkpt lat="38.3848390" lon="-0.6830010">
        <ele>283.6</ele>
        <time>2018-03-30T06:50:02Z</time>
      </trkpt>
      <trkpt lat="38.3848670" lon="-0.6829680">
        <ele>283.7</ele>
        <time>2018-03-30T06:50:03Z</time>
      </trkpt>
      <trkpt lat="38.3848950" lon="-0.6829360">
        <ele>283.8</ele>
        <time>2018-03-30T06:50:04Z</time>
      </trkpt>
      <trkpt lat="38.3849210" lon="-0.6829030">
        <ele>284.0</ele>
        <time>2018-03-30T06:50:05Z</time>
      </trkpt>
      <trkpt lat="38.3849470" lon="-0.6828720">
        <ele>284.1</ele>
        <time>2018-03-30T06:50:06Z</time>
      </trkpt>
      <trkpt lat="38.3849720" lon="-0.6828410">
        <ele>284.2</ele>
        <time>2018-03-30T06:50:07Z</time>
      </trkpt>
      <trkpt lat="38.3849940" lon="-0.6828110">
        <ele>284.3</ele>
        <time>2018-03-30T06:50:08Z</time>
      </trkpt>
      <trkpt lat="38.3850160" lon="-0.6827820">
        <ele>284.4</ele>
        <time>2018-03-30T06:50:09Z</time>
      </trkpt>
      <trkpt lat="38.3850370" lon="-0.6827520">
        <ele>284.5</ele>
        <time>2018-03-30T06:50:10Z</time>
      </trkpt>
      <trkpt lat="38.3850560" lon="-0.6827220">
        <ele>284.6</ele>
        <time>2018-03-30T06:50:11Z</time>
      </trkpt>
      <trkpt lat="38.3850760" lon="-0.6826920">
        <ele>284.7</ele>
        <time>2018-03-30T06:50:12Z</time>
      </trkpt>
      <trkpt lat="38.3850940" lon="-0.6826590">
        <ele>284.8</ele>
        <time>2018-03-30T06:50:13Z</time>
      </trkpt>
      <trkpt lat="38.3851130" lon="-0.6826260">
        <ele>284.9</ele>
        <time>2018-03-30T06:50:14Z</time>
      </trkpt>
      <trkpt lat="38.3851330" lon="-0.6825920">
        <ele>285.2</ele>
        <time>2018-03-30T06:50:15Z</time>
      </trkpt>
      <trkpt lat="38.3851510" lon="-0.6825580">
        <ele>285.3</ele>
        <time>2018-03-30T06:50:16Z</time>
      </trkpt>
      <trkpt lat="38.3851710" lon="-0.6825220">
        <ele>285.5</ele>
        <time>2018-03-30T06:50:17Z</time>
      </trkpt>
      <trkpt lat="38.3851880" lon="-0.6824840">
        <ele>285.6</ele>
        <time>2018-03-30T06:50:18Z</time>
      </trkpt>
      <trkpt lat="38.3852040" lon="-0.6824440">
        <ele>285.8</ele>
        <time>2018-03-30T06:50:19Z</time>
      </trkpt>
      <trkpt lat="38.3852210" lon="-0.6824040">
        <ele>285.9</ele>
        <time>2018-03-30T06:50:20Z</time>
      </trkpt>
      <trkpt lat="38.3852360" lon="-0.6823640">
        <ele>286.0</ele>
        <time>2018-03-30T06:50:21Z</time>
      </trkpt>
      <trkpt lat="38.3852510" lon="-0.6823210">
        <ele>286.1</ele>
        <time>2018-03-30T06:50:22Z</time>
      </trkpt>
      <trkpt lat="38.3852660" lon="-0.6822790">
        <ele>286.2</ele>
        <time>2018-03-30T06:50:23Z</time>
      </trkpt>
      <trkpt lat="38.3852810" lon="-0.6822370">
        <ele>286.3</ele>
        <time>2018-03-30T06:50:24Z</time>
      </trkpt>
      <trkpt lat="38.3852960" lon="-0.6821960">
        <ele>286.5</ele>
        <time>2018-03-30T06:50:25Z</time>
      </trkpt>
      <trkpt lat="38.3853120" lon="-0.6821550">
        <ele>286.6</ele>
        <time>2018-03-30T06:50:26Z</time>
      </trkpt>
      <trkpt lat="38.3853270" lon="-0.6821140">
        <ele>286.8</ele>
        <time>2018-03-30T06:50:27Z</time>
      </trkpt>
      <trkpt lat="38.3853430" lon="-0.6820730">
        <ele>286.9</ele>
        <time>2018-03-30T06:50:28Z</time>
      </trkpt>
      <trkpt lat="38.3853590" lon="-0.6820330">
        <ele>286.9</ele>
        <time>2018-03-30T06:50:29Z</time>
      </trkpt>
      <trkpt lat="38.3853740" lon="-0.6819930">
        <ele>287.0</ele>
        <time>2018-03-30T06:50:30Z</time>
      </trkpt>
      <trkpt lat="38.3853890" lon="-0.6819510">
        <ele>287.1</ele>
        <time>2018-03-30T06:50:31Z</time>
      </trkpt>
      <trkpt lat="38.3854020" lon="-0.6819110">
        <ele>287.2</ele>
        <time>2018-03-30T06:50:32Z</time>
      </trkpt>
      <trkpt lat="38.3854160" lon="-0.6818720">
        <ele>287.2</ele>
        <time>2018-03-30T06:50:33Z</time>
      </trkpt>
      <trkpt lat="38.3854300" lon="-0.6818320">
        <ele>287.3</ele>
        <time>2018-03-30T06:50:34Z</time>
      </trkpt>
      <trkpt lat="38.3854440" lon="-0.6817940">
        <ele>287.4</ele>
        <time>2018-03-30T06:50:35Z</time>
      </trkpt>
      <trkpt lat="38.3854580" lon="-0.6817560">
        <ele>287.5</ele>
        <time>2018-03-30T06:50:36Z</time>
      </trkpt>
      <trkpt lat="38.3854720" lon="-0.6817180">
        <ele>287.6</ele>
        <time>2018-03-30T06:50:37Z</time>
      </trkpt>
      <trkpt lat="38.3854860" lon="-0.6816790">
        <ele>287.8</ele>
        <time>2018-03-30T06:50:38Z</time>
      </trkpt>
      <trkpt lat="38.3855000" lon="-0.6816400">
        <ele>288.0</ele>
        <time>2018-03-30T06:50:39Z</time>
      </trkpt>
      <trkpt lat="38.3855140" lon="-0.6816010">
        <ele>288.1</ele>
        <time>2018-03-30T06:50:40Z</time>
      </trkpt>
      <trkpt lat="38.3855290" lon="-0.6815630">
        <ele>288.2</ele>
        <time>2018-03-30T06:50:41Z</time>
      </trkpt>
      <trkpt lat="38.3855450" lon="-0.6815250">
        <ele>288.3</ele>
        <time>2018-03-30T06:50:42Z</time>
      </trkpt>
      <trkpt lat="38.3855610" lon="-0.6814860">
        <ele>288.5</ele>
        <time>2018-03-30T06:50:43Z</time>
      </trkpt>
      <trkpt lat="38.3855790" lon="-0.6814460">
        <ele>288.6</ele>
        <time>2018-03-30T06:50:44Z</time>
      </trkpt>
      <trkpt lat="38.3855960" lon="-0.6814060">
        <ele>288.7</ele>
        <time>2018-03-30T06:50:45Z</time>
      </trkpt>
      <trkpt lat="38.3856130" lon="-0.6813640">
        <ele>288.8</ele>
        <time>2018-03-30T06:50:46Z</time>
      </trkpt>
      <trkpt lat="38.3856320" lon="-0.6813230">
        <ele>288.9</ele>
        <time>2018-03-30T06:50:47Z</time>
      </trkpt>
      <trkpt lat="38.3856500" lon="-0.6812830">
        <ele>289.1</ele>
        <time>2018-03-30T06:50:48Z</time>
      </trkpt>
      <trkpt lat="38.3856680" lon="-0.6812420">
        <ele>289.2</ele>
        <time>2018-03-30T06:50:49Z</time>
      </trkpt>
      <trkpt lat="38.3856880" lon="-0.6812020">
        <ele>289.3</ele>
        <time>2018-03-30T06:50:50Z</time>
      </trkpt>
      <trkpt lat="38.3857100" lon="-0.6811620">
        <ele>289.4</ele>
        <time>2018-03-30T06:50:51Z</time>
      </trkpt>
      <trkpt lat="38.3857320" lon="-0.6811190">
        <ele>289.4</ele>
        <time>2018-03-30T06:50:52Z</time>
      </trkpt>
      <trkpt lat="38.3857540" lon="-0.6810760">
        <ele>289.5</ele>
        <time>2018-03-30T06:50:53Z</time>
      </trkpt>
      <trkpt lat="38.3857780" lon="-0.6810320">
        <ele>289.6</ele>
        <time>2018-03-30T06:50:54Z</time>
      </trkpt>
      <trkpt lat="38.3858030" lon="-0.6809870">
        <ele>289.6</ele>
        <time>2018-03-30T06:50:55Z</time>
      </trkpt>
      <trkpt lat="38.3858250" lon="-0.6809430">
        <ele>289.7</ele>
        <time>2018-03-30T06:50:56Z</time>
      </trkpt>
      <trkpt lat="38.3858490" lon="-0.6808990">
        <ele>289.8</ele>
        <time>2018-03-30T06:50:57Z</time>
      </trkpt>
      <trkpt lat="38.3858730" lon="-0.6808560">
        <ele>289.8</ele>
        <time>2018-03-30T06:50:58Z</time>
      </trkpt>
      <trkpt lat="38.3858990" lon="-0.6808140">
        <ele>289.9</ele>
        <time>2018-03-30T06:50:59Z</time>
      </trkpt>
      <trkpt lat="38.3859260" lon="-0.6807730">
        <ele>290.0</ele>
        <time>2018-03-30T06:51:00Z</time>
      </trkpt>
      <trkpt lat="38.3859530" lon="-0.6807310">
        <ele>290.2</ele>
        <time>2018-03-30T06:51:01Z</time>
      </trkpt>
      <trkpt lat="38.3859820" lon="-0.6806910">
        <ele>290.2</ele>
        <time>2018-03-30T06:51:02Z</time>
      </trkpt>
      <trkpt lat="38.3860110" lon="-0.6806520">
        <ele>290.2</ele>
        <time>2018-03-30T06:51:03Z</time>
      </trkpt>
      <trkpt lat="38.3860410" lon="-0.6806150">
        <ele>290.3</ele>
        <time>2018-03-30T06:51:04Z</time>
      </trkpt>
      <trkpt lat="38.3860710" lon="-0.6805770">
        <ele>290.3</ele>
        <time>2018-03-30T06:51:05Z</time>
      </trkpt>
      <trkpt lat="38.3861020" lon="-0.6805410">
        <ele>290.4</ele>
        <time>2018-03-30T06:51:06Z</time>
      </trkpt>
      <trkpt lat="38.3861340" lon="-0.6805050">
        <ele>290.4</ele>
        <time>2018-03-30T06:51:07Z</time>
      </trkpt>
      <trkpt lat="38.3861660" lon="-0.6804690">
        <ele>290.5</ele>
        <time>2018-03-30T06:51:08Z</time>
      </trkpt>
      <trkpt lat="38.3862000" lon="-0.6804310">
        <ele>290.5</ele>
        <time>2018-03-30T06:51:09Z</time>
      </trkpt>
      <trkpt lat="38.3862340" lon="-0.6803960">
        <ele>290.6</ele>
        <time>2018-03-30T06:51:10Z</time>
      </trkpt>
      <trkpt lat="38.3862690" lon="-0.6803610">
        <ele>290.7</ele>
        <time>2018-03-30T06:51:11Z</time>
      </trkpt>
      <trkpt lat="38.3863020" lon="-0.6803260">
        <ele>290.7</ele>
        <time>2018-03-30T06:51:12Z</time>
      </trkpt>
      <trkpt lat="38.3863360" lon="-0.6802910">
        <ele>290.8</ele>
        <time>2018-03-30T06:51:13Z</time>
      </trkpt>
      <trkpt lat="38.3863700" lon="-0.6802540">
        <ele>290.8</ele>
        <time>2018-03-30T06:51:14Z</time>
      </trkpt>
      <trkpt lat="38.3864040" lon="-0.6802160">
        <ele>290.8</ele>
        <time>2018-03-30T06:51:15Z</time>
      </trkpt>
      <trkpt lat="38.3864360" lon="-0.6801760">
        <ele>290.9</ele>
        <time>2018-03-30T06:51:16Z</time>
      </trkpt>
      <trkpt lat="38.3864670" lon="-0.6801360">
        <ele>290.9</ele>
        <time>2018-03-30T06:51:17Z</time>
      </trkpt>
      <trkpt lat="38.3864980" lon="-0.6800940">
        <ele>290.9</ele>
        <time>2018-03-30T06:51:18Z</time>
      </trkpt>
      <trkpt lat="38.3865270" lon="-0.6800500">
        <ele>291.0</ele>
        <time>2018-03-30T06:51:19Z</time>
      </trkpt>
      <trkpt lat="38.3865550" lon="-0.6800030">
        <ele>291.0</ele>
        <time>2018-03-30T06:51:20Z</time>
      </trkpt>
      <trkpt lat="38.3865780" lon="-0.6799540">
        <ele>291.0</ele>
        <time>2018-03-30T06:51:21Z</time>
      </trkpt>
      <trkpt lat="38.3866040" lon="-0.6799030">
        <ele>291.1</ele>
        <time>2018-03-30T06:51:22Z</time>
      </trkpt>
      <trkpt lat="38.3866280" lon="-0.6798520">
        <ele>291.1</ele>
        <time>2018-03-30T06:51:23Z</time>
      </trkpt>
      <trkpt lat="38.3866500" lon="-0.6797990">
        <ele>291.2</ele>
        <time>2018-03-30T06:51:24Z</time>
      </trkpt>
      <trkpt lat="38.3866710" lon="-0.6797440">
        <ele>291.2</ele>
        <time>2018-03-30T06:51:25Z</time>
      </trkpt>
      <trkpt lat="38.3866910" lon="-0.6796880">
        <ele>291.3</ele>
        <time>2018-03-30T06:51:26Z</time>
      </trkpt>
      <trkpt lat="38.3867090" lon="-0.6796310">
        <ele>291.3</ele>
        <time>2018-03-30T06:51:27Z</time>
      </trkpt>
      <trkpt lat="38.3867260" lon="-0.6795730">
        <ele>291.4</ele>
        <time>2018-03-30T06:51:28Z</time>
      </trkpt>
      <trkpt lat="38.3867420" lon="-0.6795140">
        <ele>291.5</ele>
        <time>2018-03-30T06:51:29Z</time>
      </trkpt>
      <trkpt lat="38.3867530" lon="-0.6794540">
        <ele>291.6</ele>
        <time>2018-03-30T06:51:30Z</time>
      </trkpt>
      <trkpt lat="38.3867570" lon="-0.6793920">
        <ele>291.7</ele>
        <time>2018-03-30T06:51:31Z</time>
      </trkpt>
      <trkpt lat="38.3867600" lon="-0.6793290">
        <ele>291.7</ele>
        <time>2018-03-30T06:51:32Z</time>
      </trkpt>
      <trkpt lat="38.3867600" lon="-0.6792660">
        <ele>291.8</ele>
        <time>2018-03-30T06:51:33Z</time>
      </trkpt>
      <trkpt lat="38.3867600" lon="-0.6792020">
        <ele>291.9</ele>
        <time>2018-03-30T06:51:34Z</time>
      </trkpt>
      <trkpt lat="38.3867560" lon="-0.6791360">
        <ele>292.0</ele>
        <time>2018-03-30T06:51:35Z</time>
      </trkpt>
      <trkpt lat="38.3867520" lon="-0.6790710">
        <ele>292.1</ele>
        <time>2018-03-30T06:51:36Z</time>
      </trkpt>
      <trkpt lat="38.3867460" lon="-0.6790050">
        <ele>292.1</ele>
        <time>2018-03-30T06:51:37Z</time>
      </trkpt>
      <trkpt lat="38.3867410" lon="-0.6789380">
        <ele>292.1</ele>
        <time>2018-03-30T06:51:38Z</time>
      </trkpt>
      <trkpt lat="38.3867350" lon="-0.6788720">
        <ele>292.1</ele>
        <time>2018-03-30T06:51:39Z</time>
      </trkpt>
      <trkpt lat="38.3867290" lon="-0.6788060">
        <ele>292.2</ele>
        <time>2018-03-30T06:51:40Z</time>
      </trkpt>
      <trkpt lat="38.3867230" lon="-0.6787410">
        <ele>292.2</ele>
        <time>2018-03-30T06:51:41Z</time>
      </trkpt>
      <trkpt lat="38.3867170" lon="-0.6786750">
        <ele>292.2</ele>
        <time>2018-03-30T06:51:42Z</time>
      </trkpt>
      <trkpt lat="38.3867100" lon="-0.6786090">
        <ele>292.2</ele>
        <time>2018-03-30T06:51:43Z</time>
      </trkpt>
      <trkpt lat="38.3867030" lon="-0.6785430">
        <ele>292.2</ele>
        <time>2018-03-30T06:51:44Z</time>
      </trkpt>
      <trkpt lat="38.3866960" lon="-0.6784760">
        <ele>292.2</ele>
        <time>2018-03-30T06:51:45Z</time>
      </trkpt>
      <trkpt lat="38.3866900" lon="-0.6784100">
        <ele>292.2</ele>
        <time>2018-03-30T06:51:46Z</time>
      </trkpt>
      <trkpt lat="38.3866830" lon="-0.6783430">
        <ele>292.1</ele>
        <time>2018-03-30T06:51:47Z</time>
      </trkpt>
      <trkpt lat="38.3866760" lon="-0.6782760">
        <ele>292.1</ele>
        <time>2018-03-30T06:51:48Z</time>
      </trkpt>
      <trkpt lat="38.3866700" lon="-0.6782090">
        <ele>292.1</ele>
        <time>2018-03-30T06:51:49Z</time>
      </trkpt>
      <trkpt lat="38.3866650" lon="-0.6781420">
        <ele>292.1</ele>
        <time>2018-03-30T06:51:50Z</time>
      </trkpt>
      <trkpt lat="38.3866660" lon="-0.6780750">
        <ele>292.1</ele>
        <time>2018-03-30T06:51:51Z</time>
      </trkpt>
      <trkpt lat="38.3866630" lon="-0.6780080">
        <ele>292.0</ele>
        <time>2018-03-30T06:51:52Z</time>
      </trkpt>
      <trkpt lat="38.3866620" lon="-0.6779410">
        <ele>292.0</ele>
        <time>2018-03-30T06:51:53Z</time>
      </trkpt>
      <trkpt lat="38.3866600" lon="-0.6778740">
        <ele>291.9</ele>
        <time>2018-03-30T06:51:54Z</time>
      </trkpt>
      <trkpt lat="38.3866590" lon="-0.6778060">
        <ele>291.9</ele>
        <time>2018-03-30T06:51:55Z</time>
      </trkpt>
      <trkpt lat="38.3866620" lon="-0.6777370">
        <ele>291.9</ele>
        <time>2018-03-30T06:51:56Z</time>
      </trkpt>
      <trkpt lat="38.3866690" lon="-0.6776680">
        <ele>291.8</ele>
        <time>2018-03-30T06:51:57Z</time>
      </trkpt>
      <trkpt lat="38.3866810" lon="-0.6775990">
        <ele>291.8</ele>
        <time>2018-03-30T06:51:58Z</time>
      </trkpt>
      <trkpt lat="38.3867010" lon="-0.6775310">
        <ele>291.7</ele>
        <time>2018-03-30T06:51:59Z</time>
      </trkpt>
      <trkpt lat="38.3867230" lon="-0.6774620">
        <ele>291.7</ele>
        <time>2018-03-30T06:52:00Z</time>
      </trkpt>
      <trkpt lat="38.3867440" lon="-0.6773900">
        <ele>291.7</ele>
        <time>2018-03-30T06:52:01Z</time>
      </trkpt>
      <trkpt lat="38.3867680" lon="-0.6773150">
        <ele>291.6</ele>
        <time>2018-03-30T06:52:02Z</time>
      </trkpt>
      <trkpt lat="38.3867920" lon="-0.6772380">
        <ele>291.6</ele>
        <time>2018-03-30T06:52:03Z</time>
      </trkpt>
      <trkpt lat="38.3868150" lon="-0.6771560">
        <ele>291.5</ele>
        <time>2018-03-30T06:52:04Z</time>
      </trkpt>
      <trkpt lat="38.3868400" lon="-0.6770720">
        <ele>291.5</ele>
        <time>2018-03-30T06:52:05Z</time>
      </trkpt>
      <trkpt lat="38.3868670" lon="-0.6769900">
        <ele>291.4</ele>
        <time>2018-03-30T06:52:06Z</time>
      </trkpt>
      <trkpt lat="38.3868970" lon="-0.6769100">
        <ele>291.4</ele>
        <time>2018-03-30T06:52:07Z</time>
      </trkpt>
      <trkpt lat="38.3869290" lon="-0.6768280">
        <ele>291.3</ele>
        <time>2018-03-30T06:52:08Z</time>
      </trkpt>
      <trkpt lat="38.3869600" lon="-0.6767460">
        <ele>291.3</ele>
        <time>2018-03-30T06:52:09Z</time>
      </trkpt>
      <trkpt lat="38.3869890" lon="-0.6766620">
        <ele>291.3</ele>
        <time>2018-03-30T06:52:10Z</time>
      </trkpt>
      <trkpt lat="38.3870180" lon="-0.6765760">
        <ele>291.2</ele>
        <time>2018-03-30T06:52:11Z</time>
      </trkpt>
      <trkpt lat="38.3870450" lon="-0.6764910">
        <ele>291.2</ele>
        <time>2018-03-30T06:52:12Z</time>
      </trkpt>
      <trkpt lat="38.3870730" lon="-0.6764060">
        <ele>291.2</ele>
        <time>2018-03-30T06:52:13Z</time>
      </trkpt>
      <trkpt lat="38.3871010" lon="-0.6763210">
        <ele>291.2</ele>
        <time>2018-03-30T06:52:14Z</time>
      </trkpt>
      <trkpt lat="38.3871270" lon="-0.6762350">
        <ele>291.2</ele>
        <time>2018-03-30T06:52:15Z</time>
      </trkpt>
      <trkpt lat="38.3871530" lon="-0.6761480">
        <ele>291.2</ele>
        <time>2018-03-30T06:52:16Z</time>
      </trkpt>
      <trkpt lat="38.3871790" lon="-0.6760610">
        <ele>291.2</ele>
        <time>2018-03-30T06:52:17Z</time>
      </trkpt>
      <trkpt lat="38.3872030" lon="-0.6759750">
        <ele>291.2</ele>
        <time>2018-03-30T06:52:18Z</time>
      </trkpt>
      <trkpt lat="38.3872270" lon="-0.6758880">
        <ele>291.2</ele>
        <time>2018-03-30T06:52:19Z</time>
      </trkpt>
      <trkpt lat="38.3872510" lon="-0.6758010">
        <ele>291.2</ele>
        <time>2018-03-30T06:52:20Z</time>
      </trkpt>
      <trkpt lat="38.3872720" lon="-0.6757140">
        <ele>291.2</ele>
        <time>2018-03-30T06:52:21Z</time>
      </trkpt>
      <trkpt lat="38.3872910" lon="-0.6756260">
        <ele>291.3</ele>
        <time>2018-03-30T06:52:22Z</time>
      </trkpt>
      <trkpt lat="38.3873070" lon="-0.6755390">
        <ele>291.3</ele>
        <time>2018-03-30T06:52:23Z</time>
      </trkpt>
      <trkpt lat="38.3873190" lon="-0.6754520">
        <ele>291.3</ele>
        <time>2018-03-30T06:52:24Z</time>
      </trkpt>
      <trkpt lat="38.3873280" lon="-0.6753650">
        <ele>291.4</ele>
        <time>2018-03-30T06:52:25Z</time>
      </trkpt>
      <trkpt lat="38.3873320" lon="-0.6752790">
        <ele>291.4</ele>
        <time>2018-03-30T06:52:26Z</time>
      </trkpt>
      <trkpt lat="38.3873410" lon="-0.6751950">
        <ele>291.5</ele>
        <time>2018-03-30T06:52:27Z</time>
      </trkpt>
      <trkpt lat="38.3873570" lon="-0.6751140">
        <ele>291.6</ele>
        <time>2018-03-30T06:52:28Z</time>
      </trkpt>
      <trkpt lat="38.3873740" lon="-0.6750330">
        <ele>291.7</ele>
        <time>2018-03-30T06:52:29Z</time>
      </trkpt>
      <trkpt lat="38.3873970" lon="-0.6749530">
        <ele>291.8</ele>
        <time>2018-03-30T06:52:30Z</time>
      </trkpt>
      <trkpt lat="38.3874220" lon="-0.6748750">
        <ele>291.8</ele>
        <time>2018-03-30T06:52:31Z</time>
      </trkpt>
      <trkpt lat="38.3874500" lon="-0.6748010">
        <ele>291.9</ele>
        <time>2018-03-30T06:52:32Z</time>
      </trkpt>
      <trkpt lat="38.3874810" lon="-0.6747290">
        <ele>292.0</ele>
        <time>2018-03-30T06:52:33Z</time>
      </trkpt>
      <trkpt lat="38.3875140" lon="-0.6746560">
        <ele>292.1</ele>
        <time>2018-03-30T06:52:34Z</time>
      </trkpt>
      <trkpt lat="38.3875430" lon="-0.6745840">
        <ele>292.2</ele>
        <time>2018-03-30T06:52:35Z</time>
      </trkpt>
      <trkpt lat="38.3875750" lon="-0.6745140">
        <ele>292.2</ele>
        <time>2018-03-30T06:52:36Z</time>
      </trkpt>
      <trkpt lat="38.3876100" lon="-0.6744480">
        <ele>292.3</ele>
        <time>2018-03-30T06:52:37Z</time>
      </trkpt>
      <trkpt lat="38.3876430" lon="-0.6743810">
        <ele>292.3</ele>
        <time>2018-03-30T06:52:38Z</time>
      </trkpt>
      <trkpt lat="38.3876780" lon="-0.6743140">
        <ele>292.4</ele>
        <time>2018-03-30T06:52:39Z</time>
      </trkpt>
      <trkpt lat="38.3877140" lon="-0.6742490">
        <ele>292.4</ele>
        <time>2018-03-30T06:52:40Z</time>
      </trkpt>
      <trkpt lat="38.3877500" lon="-0.6741830">
        <ele>292.4</ele>
        <time>2018-03-30T06:52:41Z</time>
      </trkpt>
      <trkpt lat="38.3877860" lon="-0.6741170">
        <ele>292.4</ele>
        <time>2018-03-30T06:52:42Z</time>
      </trkpt>
      <trkpt lat="38.3878230" lon="-0.6740510">
        <ele>292.5</ele>
        <time>2018-03-30T06:52:43Z</time>
      </trkpt>
      <trkpt lat="38.3878580" lon="-0.6739820">
        <ele>292.5</ele>
        <time>2018-03-30T06:52:44Z</time>
      </trkpt>
      <trkpt lat="38.3878960" lon="-0.6739140">
        <ele>292.5</ele>
        <time>2018-03-30T06:52:45Z</time>
      </trkpt>
      <trkpt lat="38.3879350" lon="-0.6738460">
        <ele>292.5</ele>
        <time>2018-03-30T06:52:46Z</time>
      </trkpt>
      <trkpt lat="38.3879730" lon="-0.6737800">
        <ele>292.5</ele>
        <time>2018-03-30T06:52:47Z</time>
      </trkpt>
      <trkpt lat="38.3880120" lon="-0.6737140">
        <ele>292.5</ele>
        <time>2018-03-30T06:52:48Z</time>
      </trkpt>
      <trkpt lat="38.3880480" lon="-0.6736450">
        <ele>292.5</ele>
        <time>2018-03-30T06:52:49Z</time>
      </trkpt>
      <trkpt lat="38.3880850" lon="-0.6735760">
        <ele>292.5</ele>
        <time>2018-03-30T06:52:50Z</time>
      </trkpt>
      <trkpt lat="38.3881220" lon="-0.6735070">
        <ele>292.4</ele>
        <time>2018-03-30T06:52:51Z</time>
      </trkpt>
      <trkpt lat="38.3881580" lon="-0.6734380">
        <ele>292.4</ele>
        <time>2018-03-30T06:52:52Z</time>
      </trkpt>
      <trkpt lat="38.3881980" lon="-0.6733700">
        <ele>292.3</ele>
        <time>2018-03-30T06:52:53Z</time>
      </trkpt>
      <trkpt lat="38.3882380" lon="-0.6732990">
        <ele>292.3</ele>
        <time>2018-03-30T06:52:54Z</time>
      </trkpt>
      <trkpt lat="38.3882770" lon="-0.6732280">
        <ele>292.2</ele>
        <time>2018-03-30T06:52:55Z</time>
      </trkpt>
      <trkpt lat="38.3883170" lon="-0.6731570">
        <ele>292.2</ele>
        <time>2018-03-30T06:52:56Z</time>
      </trkpt>
      <trkpt lat="38.3883590" lon="-0.6730850">
        <ele>292.1</ele>
        <time>2018-03-30T06:52:57Z</time>
      </trkpt>
      <trkpt lat="38.3883990" lon="-0.6730100">
        <ele>292.0</ele>
        <time>2018-03-30T06:52:58Z</time>
      </trkpt>
      <trkpt lat="38.3884410" lon="-0.6729360">
        <ele>292.0</ele>
        <time>2018-03-30T06:52:59Z</time>
      </trkpt>
      <trkpt lat="38.3884810" lon="-0.6728610">
        <ele>291.9</ele>
        <time>2018-03-30T06:53:00Z</time>
      </trkpt>
      <trkpt lat="38.3885240" lon="-0.6727870">
        <ele>291.8</ele>
        <time>2018-03-30T06:53:01Z</time>
      </trkpt>
      <trkpt lat="38.3885700" lon="-0.6727140">
        <ele>291.8</ele>
        <time>2018-03-30T06:53:02Z</time>
      </trkpt>
      <trkpt lat="38.3886180" lon="-0.6726430">
        <ele>291.7</ele>
        <time>2018-03-30T06:53:03Z</time>
      </trkpt>
      <trkpt lat="38.3886680" lon="-0.6725740">
        <ele>291.7</ele>
        <time>2018-03-30T06:53:04Z</time>
      </trkpt>
      <trkpt lat="38.3887200" lon="-0.6725070">
        <ele>291.7</ele>
        <time>2018-03-30T06:53:05Z</time>
      </trkpt>
      <trkpt lat="38.3887730" lon="-0.6724420">
        <ele>291.7</ele>
        <time>2018-03-30T06:53:06Z</time>
      </trkpt>
      <trkpt lat="38.3888270" lon="-0.6723800">
        <ele>291.7</ele>
        <time>2018-03-30T06:53:07Z</time>
      </trkpt>
      <trkpt lat="38.3888820" lon="-0.6723200">
        <ele>291.7</ele>
        <time>2018-03-30T06:53:08Z</time>
      </trkpt>
      <trkpt lat="38.3889390" lon="-0.6722580">
        <ele>291.7</ele>
        <time>2018-03-30T06:53:09Z</time>
      </trkpt>
      <trkpt lat="38.3889950" lon="-0.6721980">
        <ele>291.7</ele>
        <time>2018-03-30T06:53:10Z</time>
      </trkpt>
      <trkpt lat="38.3890490" lon="-0.6721360">
        <ele>291.7</ele>
        <time>2018-03-30T06:53:11Z</time>
      </trkpt>
      <trkpt lat="38.3891060" lon="-0.6720720">
        <ele>291.7</ele>
        <time>2018-03-30T06:53:12Z</time>
      </trkpt>
      <trkpt lat="38.3891640" lon="-0.6720120">
        <ele>291.7</ele>
        <time>2018-03-30T06:53:13Z</time>
      </trkpt>
      <trkpt lat="38.3892200" lon="-0.6719510">
        <ele>291.7</ele>
        <time>2018-03-30T06:53:14Z</time>
      </trkpt>
      <trkpt lat="38.3892760" lon="-0.6718900">
        <ele>291.6</ele>
        <time>2018-03-30T06:53:15Z</time>
      </trkpt>
      <trkpt lat="38.3893330" lon="-0.6718320">
        <ele>291.6</ele>
        <time>2018-03-30T06:53:16Z</time>
      </trkpt>
      <trkpt lat="38.3893880" lon="-0.6717700">
        <ele>291.6</ele>
        <time>2018-03-30T06:53:17Z</time>
      </trkpt>
      <trkpt lat="38.3894400" lon="-0.6717070">
        <ele>291.6</ele>
        <time>2018-03-30T06:53:18Z</time>
      </trkpt>
      <trkpt lat="38.3894930" lon="-0.6716430">
        <ele>291.6</ele>
        <time>2018-03-30T06:53:19Z</time>
      </trkpt>
      <trkpt lat="38.3895460" lon="-0.6715780">
        <ele>291.6</ele>
        <time>2018-03-30T06:53:20Z</time>
      </trkpt>
      <trkpt lat="38.3896000" lon="-0.6715150">
        <ele>291.6</ele>
        <time>2018-03-30T06:53:21Z</time>
      </trkpt>
      <trkpt lat="38.3896530" lon="-0.6714520">
        <ele>291.6</ele>
        <time>2018-03-30T06:53:22Z</time>
      </trkpt>
      <trkpt lat="38.3897050" lon="-0.6713880">
        <ele>291.6</ele>
        <time>2018-03-30T06:53:23Z</time>
      </trkpt>
      <trkpt lat="38.3897590" lon="-0.6713260">
        <ele>291.6</ele>
        <time>2018-03-30T06:53:24Z</time>
      </trkpt>
      <trkpt lat="38.3898150" lon="-0.6712650">
        <ele>291.6</ele>
        <time>2018-03-30T06:53:25Z</time>
      </trkpt>
      <trkpt lat="38.3898710" lon="-0.6712070">
        <ele>291.6</ele>
        <time>2018-03-30T06:53:26Z</time>
      </trkpt>
      <trkpt lat="38.3899270" lon="-0.6711490">
        <ele>291.6</ele>
        <time>2018-03-30T06:53:27Z</time>
      </trkpt>
      <trkpt lat="38.3899840" lon="-0.6710930">
        <ele>291.6</ele>
        <time>2018-03-30T06:53:28Z</time>
      </trkpt>
      <trkpt lat="38.3900420" lon="-0.6710380">
        <ele>291.6</ele>
        <time>2018-03-30T06:53:29Z</time>
      </trkpt>
      <trkpt lat="38.3900990" lon="-0.6709840">
        <ele>291.6</ele>
        <time>2018-03-30T06:53:30Z</time>
      </trkpt>
      <trkpt lat="38.3901550" lon="-0.6709290">
        <ele>291.6</ele>
        <time>2018-03-30T06:53:31Z</time>
      </trkpt>
      <trkpt lat="38.3902120" lon="-0.6708760">
        <ele>291.6</ele>
        <time>2018-03-30T06:53:32Z</time>
      </trkpt>
      <trkpt lat="38.3902670" lon="-0.6708260">
        <ele>291.6</ele>
        <time>2018-03-30T06:53:33Z</time>
      </trkpt>
      <trkpt lat="38.3903240" lon="-0.6707840">
        <ele>291.6</ele>
        <time>2018-03-30T06:53:34Z</time>
      </trkpt>
      <trkpt lat="38.3903830" lon="-0.6707520">
        <ele>291.6</ele>
        <time>2018-03-30T06:53:35Z</time>
      </trkpt>
      <trkpt lat="38.3904410" lon="-0.6707260">
        <ele>291.6</ele>
        <time>2018-03-30T06:53:36Z</time>
      </trkpt>
      <trkpt lat="38.3905010" lon="-0.6707090">
        <ele>291.6</ele>
        <time>2018-03-30T06:53:37Z</time>
      </trkpt>
      <trkpt lat="38.3905710" lon="-0.6707070">
        <ele>291.6</ele>
        <time>2018-03-30T06:53:38Z</time>
      </trkpt>
      <trkpt lat="38.3906390" lon="-0.6707180">
        <ele>291.6</ele>
        <time>2018-03-30T06:53:39Z</time>
      </trkpt>
      <trkpt lat="38.3907110" lon="-0.6707410">
        <ele>291.5</ele>
        <time>2018-03-30T06:53:40Z</time>
      </trkpt>
      <trkpt lat="38.3907840" lon="-0.6707690">
        <ele>291.4</ele>
        <time>2018-03-30T06:53:41Z</time>
      </trkpt>
      <trkpt lat="38.3908540" lon="-0.6708050">
        <ele>291.1</ele>
        <time>2018-03-30T06:53:42Z</time>
      </trkpt>
      <trkpt lat="38.3909240" lon="-0.6708370">
        <ele>290.8</ele>
        <time>2018-03-30T06:53:43Z</time>
      </trkpt>
      <trkpt lat="38.3910000" lon="-0.6708610">
        <ele>290.6</ele>
        <time>2018-03-30T06:53:44Z</time>
      </trkpt>
      <trkpt lat="38.3910780" lon="-0.6708720">
        <ele>290.4</ele>
        <time>2018-03-30T06:53:45Z</time>
      </trkpt>
      <trkpt lat="38.3911560" lon="-0.6708760">
        <ele>290.1</ele>
        <time>2018-03-30T06:53:46Z</time>
      </trkpt>
      <trkpt lat="38.3912340" lon="-0.6708690">
        <ele>289.9</ele>
        <time>2018-03-30T06:53:47Z</time>
      </trkpt>
      <trkpt lat="38.3913130" lon="-0.6708650">
        <ele>289.8</ele>
        <time>2018-03-30T06:53:48Z</time>
      </trkpt>
      <trkpt lat="38.3913910" lon="-0.6708610">
        <ele>289.6</ele>
        <time>2018-03-30T06:53:49Z</time>
      </trkpt>
      <trkpt lat="38.3914690" lon="-0.6708550">
        <ele>289.5</ele>
        <time>2018-03-30T06:53:50Z</time>
      </trkpt>
      <trkpt lat="38.3915460" lon="-0.6708480">
        <ele>289.4</ele>
        <time>2018-03-30T06:53:51Z</time>
      </trkpt>
      <trkpt lat="38.3916210" lon="-0.6708440">
        <ele>289.4</ele>
        <time>2018-03-30T06:53:52Z</time>
      </trkpt>
      <trkpt lat="38.3916970" lon="-0.6708490">
        <ele>289.3</ele>
        <time>2018-03-30T06:53:53Z</time>
      </trkpt>
      <trkpt lat="38.3917750" lon="-0.6708590">
        <ele>289.2</ele>
        <time>2018-03-30T06:53:54Z</time>
      </trkpt>
      <trkpt lat="38.3918550" lon="-0.6708710">
        <ele>289.2</ele>
        <time>2018-03-30T06:53:55Z</time>
      </trkpt>
      <trkpt lat="38.3919360" lon="-0.6708850">
        <ele>289.1</ele>
        <time>2018-03-30T06:53:56Z</time>
      </trkpt>
      <trkpt lat="38.3920170" lon="-0.6708960">
        <ele>288.9</ele>
        <time>2018-03-30T06:53:57Z</time>
      </trkpt>
      <trkpt lat="38.3920970" lon="-0.6708970">
        <ele>288.7</ele>
        <time>2018-03-30T06:53:58Z</time>
      </trkpt>
      <trkpt lat="38.3921790" lon="-0.6708920">
        <ele>288.5</ele>
        <time>2018-03-30T06:53:59Z</time>
      </trkpt>
      <trkpt lat="38.3922680" lon="-0.6708760">
        <ele>288.2</ele>
        <time>2018-03-30T06:54:00Z</time>
      </trkpt>
      <trkpt lat="38.3923530" lon="-0.6708580">
        <ele>287.7</ele>
        <time>2018-03-30T06:54:01Z</time>
      </trkpt>
      <trkpt lat="38.3924370" lon="-0.6708350">
        <ele>287.4</ele>
        <time>2018-03-30T06:54:02Z</time>
      </trkpt>
      <trkpt lat="38.3925190" lon="-0.6708050">
        <ele>287.1</ele>
        <time>2018-03-30T06:54:03Z</time>
      </trkpt>
      <trkpt lat="38.3926040" lon="-0.6707640">
        <ele>286.8</ele>
        <time>2018-03-30T06:54:04Z</time>
      </trkpt>
      <trkpt lat="38.3926850" lon="-0.6707200">
        <ele>286.4</ele>
        <time>2018-03-30T06:54:05Z</time>
      </trkpt>
      <trkpt lat="38.3927630" lon="-0.6706710">
        <ele>286.1</ele>
        <time>2018-03-30T06:54:06Z</time>
      </trkpt>
      <trkpt lat="38.3928410" lon="-0.6706210">
        <ele>285.6</ele>
        <time>2018-03-30T06:54:07Z</time>
      </trkpt>
      <trkpt lat="38.3929210" lon="-0.6705680">
        <ele>285.5</ele>
        <time>2018-03-30T06:54:08Z</time>
      </trkpt>
      <trkpt lat="38.3929960" lon="-0.6705130">
        <ele>285.4</ele>
        <time>2018-03-30T06:54:09Z</time>
      </trkpt>
      <trkpt lat="38.3930710" lon="-0.6704620">
        <ele>285.2</ele>
        <time>2018-03-30T06:54:10Z</time>
      </trkpt>
      <trkpt lat="38.3931450" lon="-0.6704140">
        <ele>285.1</ele>
        <time>2018-03-30T06:54:11Z</time>
      </trkpt>
      <trkpt lat="38.3932180" lon="-0.6703640">
        <ele>285.0</ele>
        <time>2018-03-30T06:54:12Z</time>
      </trkpt>
      <trkpt lat="38.3932890" lon="-0.6703130">
        <ele>284.9</ele>
        <time>2018-03-30T06:54:13Z</time>
      </trkpt>
      <trkpt lat="38.3933580" lon="-0.6702610">
        <ele>284.9</ele>
        <time>2018-03-30T06:54:14Z</time>
      </trkpt>
      <trkpt lat="38.3934270" lon="-0.6702100">
        <ele>284.9</ele>
        <time>2018-03-30T06:54:15Z</time>
      </trkpt>
      <trkpt lat="38.3934950" lon="-0.6701610">
        <ele>284.9</ele>
        <time>2018-03-30T06:54:16Z</time>
      </trkpt>
      <trkpt lat="38.3935630" lon="-0.6701120">
        <ele>284.9</ele>
        <time>2018-03-30T06:54:17Z</time>
      </trkpt>
      <trkpt lat="38.3936330" lon="-0.6700690">
        <ele>284.9</ele>
        <time>2018-03-30T06:54:18Z</time>
      </trkpt>
      <trkpt lat="38.3937000" lon="-0.6700260">
        <ele>285.0</ele>
        <time>2018-03-30T06:54:19Z</time>
      </trkpt>
      <trkpt lat="38.3937670" lon="-0.6699810">
        <ele>285.0</ele>
        <time>2018-03-30T06:54:20Z</time>
      </trkpt>
      <trkpt lat="38.3938320" lon="-0.6699350">
        <ele>285.1</ele>
        <time>2018-03-30T06:54:21Z</time>
      </trkpt>
      <trkpt lat="38.3938980" lon="-0.6698880">
        <ele>285.3</ele>
        <time>2018-03-30T06:54:22Z</time>
      </trkpt>
      <trkpt lat="38.3939630" lon="-0.6698410">
        <ele>285.3</ele>
        <time>2018-03-30T06:54:23Z</time>
      </trkpt>
      <trkpt lat="38.3940290" lon="-0.6697960">
        <ele>285.4</ele>
        <time>2018-03-30T06:54:24Z</time>
      </trkpt>
      <trkpt lat="38.3940940" lon="-0.6697510">
        <ele>285.4</ele>
        <time>2018-03-30T06:54:25Z</time>
      </trkpt>
      <trkpt lat="38.3941590" lon="-0.6697070">
        <ele>285.5</ele>
        <time>2018-03-30T06:54:26Z</time>
      </trkpt>
      <trkpt lat="38.3942230" lon="-0.6696630">
        <ele>285.5</ele>
        <time>2018-03-30T06:54:27Z</time>
      </trkpt>
      <trkpt lat="38.3942860" lon="-0.6696200">
        <ele>285.6</ele>
        <time>2018-03-30T06:54:28Z</time>
      </trkpt>
      <trkpt lat="38.3943500" lon="-0.6695800">
        <ele>285.6</ele>
        <time>2018-03-30T06:54:29Z</time>
      </trkpt>
      <trkpt lat="38.3944130" lon="-0.6695370">
        <ele>285.7</ele>
        <time>2018-03-30T06:54:30Z</time>
      </trkpt>
      <trkpt lat="38.3944760" lon="-0.6694950">
        <ele>285.8</ele>
        <time>2018-03-30T06:54:31Z</time>
      </trkpt>
      <trkpt lat="38.3945380" lon="-0.6694560">
        <ele>285.8</ele>
        <time>2018-03-30T06:54:32Z</time>
      </trkpt>
      <trkpt lat="38.3946000" lon="-0.6694160">
        <ele>285.9</ele>
        <time>2018-03-30T06:54:33Z</time>
      </trkpt>
      <trkpt lat="38.3946620" lon="-0.6693740">
        <ele>285.9</ele>
        <time>2018-03-30T06:54:34Z</time>
      </trkpt>
      <trkpt lat="38.3947240" lon="-0.6693340">
        <ele>286.0</ele>
        <time>2018-03-30T06:54:35Z</time>
      </trkpt>
      <trkpt lat="38.3947870" lon="-0.6692970">
        <ele>286.0</ele>
        <time>2018-03-30T06:54:36Z</time>
      </trkpt>
      <trkpt lat="38.3948490" lon="-0.6692570">
        <ele>286.1</ele>
        <time>2018-03-30T06:54:37Z</time>
      </trkpt>
      <trkpt lat="38.3949120" lon="-0.6692200">
        <ele>286.1</ele>
        <time>2018-03-30T06:54:38Z</time>
      </trkpt>
      <trkpt lat="38.3949760" lon="-0.6691860">
        <ele>286.2</ele>
        <time>2018-03-30T06:54:39Z</time>
      </trkpt>
      <trkpt lat="38.3950400" lon="-0.6691510">
        <ele>286.2</ele>
        <time>2018-03-30T06:54:40Z</time>
      </trkpt>
      <trkpt lat="38.3951030" lon="-0.6691150">
        <ele>286.3</ele>
        <time>2018-03-30T06:54:41Z</time>
      </trkpt>
      <trkpt lat="38.3951660" lon="-0.6690780">
        <ele>286.4</ele>
        <time>2018-03-30T06:54:42Z</time>
      </trkpt>
      <trkpt lat="38.3952280" lon="-0.6690420">
        <ele>286.4</ele>
        <time>2018-03-30T06:54:43Z</time>
      </trkpt>
      <trkpt lat="38.3952930" lon="-0.6690110">
        <ele>286.5</ele>
        <time>2018-03-30T06:54:44Z</time>
      </trkpt>
      <trkpt lat="38.3953550" lon="-0.6689790">
        <ele>286.6</ele>
        <time>2018-03-30T06:54:45Z</time>
      </trkpt>
      <trkpt lat="38.3954180" lon="-0.6689450">
        <ele>286.7</ele>
        <time>2018-03-30T06:54:46Z</time>
      </trkpt>
      <trkpt lat="38.3954770" lon="-0.6689100">
        <ele>286.8</ele>
        <time>2018-03-30T06:54:47Z</time>
      </trkpt>
      <trkpt lat="38.3955370" lon="-0.6688750">
        <ele>286.8</ele>
        <time>2018-03-30T06:54:48Z</time>
      </trkpt>
      <trkpt lat="38.3955960" lon="-0.6688360">
        <ele>286.9</ele>
        <time>2018-03-30T06:54:49Z</time>
      </trkpt>
      <trkpt lat="38.3956520" lon="-0.6687950">
        <ele>287.0</ele>
        <time>2018-03-30T06:54:50Z</time>
      </trkpt>
      <trkpt lat="38.3957090" lon="-0.6687510">
        <ele>287.1</ele>
        <time>2018-03-30T06:54:51Z</time>
      </trkpt>
      <trkpt lat="38.3957650" lon="-0.6687050">
        <ele>287.2</ele>
        <time>2018-03-30T06:54:52Z</time>
      </trkpt>
      <trkpt lat="38.3958250" lon="-0.6686610">
        <ele>287.3</ele>
        <time>2018-03-30T06:54:53Z</time>
      </trkpt>
      <trkpt lat="38.3958800" lon="-0.6686160">
        <ele>287.3</ele>
        <time>2018-03-30T06:54:54Z</time>
      </trkpt>
      <trkpt lat="38.3959370" lon="-0.6685700">
        <ele>287.5</ele>
        <time>2018-03-30T06:54:55Z</time>
      </trkpt>
      <trkpt lat="38.3959930" lon="-0.6685250">
        <ele>287.6</ele>
        <time>2018-03-30T06:54:56Z</time>
      </trkpt>
      <trkpt lat="38.3960500" lon="-0.6684850">
        <ele>287.7</ele>
        <time>2018-03-30T06:54:57Z</time>
      </trkpt>
      <trkpt lat="38.3961090" lon="-0.6684470">
        <ele>287.8</ele>
        <time>2018-03-30T06:54:58Z</time>
      </trkpt>
      <trkpt lat="38.3961690" lon="-0.6684160">
        <ele>287.9</ele>
        <time>2018-03-30T06:54:59Z</time>
      </trkpt>
      <trkpt lat="38.3962290" lon="-0.6683900">
        <ele>288.0</ele>
        <time>2018-03-30T06:55:00Z</time>
      </trkpt>
      <trkpt lat="38.3962910" lon="-0.6683660">
        <ele>288.0</ele>
        <time>2018-03-30T06:55:01Z</time>
      </trkpt>
      <trkpt lat="38.3963510" lon="-0.6683440">
        <ele>288.1</ele>
        <time>2018-03-30T06:55:02Z</time>
      </trkpt>
      <trkpt lat="38.3964100" lon="-0.6683200">
        <ele>288.1</ele>
        <time>2018-03-30T06:55:03Z</time>
      </trkpt>
      <trkpt lat="38.3964710" lon="-0.6683030">
        <ele>288.2</ele>
        <time>2018-03-30T06:55:04Z</time>
      </trkpt>
      <trkpt lat="38.3965290" lon="-0.6682880">
        <ele>288.2</ele>
        <time>2018-03-30T06:55:05Z</time>
      </trkpt>
      <trkpt lat="38.3965880" lon="-0.6682710">
        <ele>288.3</ele>
        <time>2018-03-30T06:55:06Z</time>
      </trkpt>
      <trkpt lat="38.3966480" lon="-0.6682580">
        <ele>288.3</ele>
        <time>2018-03-30T06:55:07Z</time>
      </trkpt>
      <trkpt lat="38.3967050" lon="-0.6682420">
        <ele>288.3</ele>
        <time>2018-03-30T06:55:08Z</time>
      </trkpt>
      <trkpt lat="38.3967640" lon="-0.6682280">
        <ele>288.3</ele>
        <time>2018-03-30T06:55:09Z</time>
      </trkpt>
      <trkpt lat="38.3968210" lon="-0.6682130">
        <ele>288.4</ele>
        <time>2018-03-30T06:55:10Z</time>
      </trkpt>
      <trkpt lat="38.3968800" lon="-0.6681980">
        <ele>288.4</ele>
        <time>2018-03-30T06:55:11Z</time>
      </trkpt>
      <trkpt lat="38.3969390" lon="-0.6681840">
        <ele>288.4</ele>
        <time>2018-03-30T06:55:12Z</time>
      </trkpt>
      <trkpt lat="38.3969990" lon="-0.6681720">
        <ele>288.4</ele>
        <time>2018-03-30T06:55:13Z</time>
      </trkpt>
      <trkpt lat="38.3970570" lon="-0.6681580">
        <ele>288.4</ele>
        <time>2018-03-30T06:55:14Z</time>
      </trkpt>
      <trkpt lat="38.3971170" lon="-0.6681420">
        <ele>288.4</ele>
        <time>2018-03-30T06:55:15Z</time>
      </trkpt>
      <trkpt lat="38.3971770" lon="-0.6681250">
        <ele>288.4</ele>
        <time>2018-03-30T06:55:16Z</time>
      </trkpt>
      <trkpt lat="38.3972360" lon="-0.6680990">
        <ele>288.3</ele>
        <time>2018-03-30T06:55:17Z</time>
      </trkpt>
      <trkpt lat="38.3972970" lon="-0.6680640">
        <ele>288.1</ele>
        <time>2018-03-30T06:55:18Z</time>
      </trkpt>
      <trkpt lat="38.3973540" lon="-0.6680210">
        <ele>288.0</ele>
        <time>2018-03-30T06:55:19Z</time>
      </trkpt>
      <trkpt lat="38.3974080" lon="-0.6679750">
        <ele>287.8</ele>
        <time>2018-03-30T06:55:20Z</time>
      </trkpt>
      <trkpt lat="38.3974620" lon="-0.6679230">
        <ele>287.6</ele>
        <time>2018-03-30T06:55:21Z</time>
      </trkpt>
      <trkpt lat="38.3975120" lon="-0.6678680">
        <ele>287.5</ele>
        <time>2018-03-30T06:55:22Z</time>
      </trkpt>
      <trkpt lat="38.3975640" lon="-0.6678100">
        <ele>287.3</ele>
        <time>2018-03-30T06:55:23Z</time>
      </trkpt>
      <trkpt lat="38.3976140" lon="-0.6677490">
        <ele>287.1</ele>
        <time>2018-03-30T06:55:24Z</time>
      </trkpt>
      <trkpt lat="38.3976660" lon="-0.6676880">
        <ele>286.9</ele>
        <time>2018-03-30T06:55:25Z</time>
      </trkpt>
      <trkpt lat="38.3977190" lon="-0.6676270">
        <ele>286.7</ele>
        <time>2018-03-30T06:55:26Z</time>
      </trkpt>
      <trkpt lat="38.3977720" lon="-0.6675670">
        <ele>286.4</ele>
        <time>2018-03-30T06:55:27Z</time>
      </trkpt>
      <trkpt lat="38.3978270" lon="-0.6675050">
        <ele>286.1</ele>
        <time>2018-03-30T06:55:28Z</time>
      </trkpt>
      <trkpt lat="38.3978810" lon="-0.6674420">
        <ele>285.8</ele>
        <time>2018-03-30T06:55:29Z</time>
      </trkpt>
      <trkpt lat="38.3979340" lon="-0.6673790">
        <ele>285.5</ele>
        <time>2018-03-30T06:55:30Z</time>
      </trkpt>
      <trkpt lat="38.3979900" lon="-0.6673160">
        <ele>285.2</ele>
        <time>2018-03-30T06:55:31Z</time>
      </trkpt>
      <trkpt lat="38.3980440" lon="-0.6672490">
        <ele>285.1</ele>
        <time>2018-03-30T06:55:32Z</time>
      </trkpt>
      <trkpt lat="38.3981010" lon="-0.6671810">
        <ele>284.9</ele>
        <time>2018-03-30T06:55:33Z</time>
      </trkpt>
      <trkpt lat="38.3981580" lon="-0.6671130">
        <ele>284.6</ele>
        <time>2018-03-30T06:55:34Z</time>
      </trkpt>
      <trkpt lat="38.3982160" lon="-0.6670460">
        <ele>284.2</ele>
        <time>2018-03-30T06:55:35Z</time>
      </trkpt>
      <trkpt lat="38.3982750" lon="-0.6669760">
        <ele>283.9</ele>
        <time>2018-03-30T06:55:36Z</time>
      </trkpt>
      <trkpt lat="38.3983370" lon="-0.6669030">
        <ele>283.7</ele>
        <time>2018-03-30T06:55:37Z</time>
      </trkpt>
      <trkpt lat="38.3984000" lon="-0.6668300">
        <ele>283.1</ele>
        <time>2018-03-30T06:55:38Z</time>
      </trkpt>
      <trkpt lat="38.3984640" lon="-0.6667540">
        <ele>282.6</ele>
        <time>2018-03-30T06:55:39Z</time>
      </trkpt>
      <trkpt lat="38.3985300" lon="-0.6666770">
        <ele>282.1</ele>
        <time>2018-03-30T06:55:40Z</time>
      </trkpt>
      <trkpt lat="38.3985990" lon="-0.6665990">
        <ele>281.6</ele>
        <time>2018-03-30T06:55:41Z</time>
      </trkpt>
      <trkpt lat="38.3986710" lon="-0.6665210">
        <ele>281.0</ele>
        <time>2018-03-30T06:55:42Z</time>
      </trkpt>
      <trkpt lat="38.3987430" lon="-0.6664410">
        <ele>280.5</ele>
        <time>2018-03-30T06:55:43Z</time>
      </trkpt>
      <trkpt lat="38.3988160" lon="-0.6663590">
        <ele>280.0</ele>
        <time>2018-03-30T06:55:44Z</time>
      </trkpt>
      <trkpt lat="38.3988920" lon="-0.6662790">
        <ele>279.4</ele>
        <time>2018-03-30T06:55:45Z</time>
      </trkpt>
      <trkpt lat="38.3989720" lon="-0.6662130">
        <ele>279.0</ele>
        <time>2018-03-30T06:55:46Z</time>
      </trkpt>
      <trkpt lat="38.3990540" lon="-0.6661550">
        <ele>278.7</ele>
        <time>2018-03-30T06:55:47Z</time>
      </trkpt>
      <trkpt lat="38.3991340" lon="-0.6661010">
        <ele>278.4</ele>
        <time>2018-03-30T06:55:48Z</time>
      </trkpt>
      <trkpt lat="38.3992190" lon="-0.6660510">
        <ele>278.3</ele>
        <time>2018-03-30T06:55:49Z</time>
      </trkpt>
      <trkpt lat="38.3993060" lon="-0.6660060">
        <ele>278.1</ele>
        <time>2018-03-30T06:55:50Z</time>
      </trkpt>
      <trkpt lat="38.3993960" lon="-0.6659730">
        <ele>277.9</ele>
        <time>2018-03-30T06:55:51Z</time>
      </trkpt>
      <trkpt lat="38.3994830" lon="-0.6659470">
        <ele>277.8</ele>
        <time>2018-03-30T06:55:52Z</time>
      </trkpt>
      <trkpt lat="38.3995700" lon="-0.6659270">
        <ele>277.7</ele>
        <time>2018-03-30T06:55:53Z</time>
      </trkpt>
      <trkpt lat="38.3996540" lon="-0.6659220">
        <ele>277.6</ele>
        <time>2018-03-30T06:55:54Z</time>
      </trkpt>
      <trkpt lat="38.3997370" lon="-0.6659220">
        <ele>277.5</ele>
        <time>2018-03-30T06:55:55Z</time>
      </trkpt>
      <trkpt lat="38.3998240" lon="-0.6659160">
        <ele>277.5</ele>
        <time>2018-03-30T06:55:56Z</time>
      </trkpt>
      <trkpt lat="38.3999070" lon="-0.6659180">
        <ele>277.4</ele>
        <time>2018-03-30T06:55:57Z</time>
      </trkpt>
      <trkpt lat="38.3999900" lon="-0.6659200">
        <ele>277.4</ele>
        <time>2018-03-30T06:55:58Z</time>
      </trkpt>
      <trkpt lat="38.4000710" lon="-0.6659210">
        <ele>277.3</ele>
        <time>2018-03-30T06:55:59Z</time>
      </trkpt>
      <trkpt lat="38.4001510" lon="-0.6659210">
        <ele>277.2</ele>
        <time>2018-03-30T06:56:00Z</time>
      </trkpt>
      <trkpt lat="38.4002290" lon="-0.6659220">
        <ele>277.2</ele>
        <time>2018-03-30T06:56:01Z</time>
      </trkpt>
      <trkpt lat="38.4003070" lon="-0.6659240">
        <ele>277.1</ele>
        <time>2018-03-30T06:56:02Z</time>
      </trkpt>
      <trkpt lat="38.4003830" lon="-0.6659230">
        <ele>277.1</ele>
        <time>2018-03-30T06:56:03Z</time>
      </trkpt>
      <trkpt lat="38.4004580" lon="-0.6659200">
        <ele>277.0</ele>
        <time>2018-03-30T06:56:04Z</time>
      </trkpt>
      <trkpt lat="38.4005330" lon="-0.6659170">
        <ele>277.0</ele>
        <time>2018-03-30T06:56:05Z</time>
      </trkpt>
      <trkpt lat="38.4006050" lon="-0.6659190">
        <ele>276.9</ele>
        <time>2018-03-30T06:56:06Z</time>
      </trkpt>
      <trkpt lat="38.4006770" lon="-0.6659190">
        <ele>276.9</ele>
        <time>2018-03-30T06:56:07Z</time>
      </trkpt>
      <trkpt lat="38.4007490" lon="-0.6659160">
        <ele>276.9</ele>
        <time>2018-03-30T06:56:08Z</time>
      </trkpt>
      <trkpt lat="38.4008190" lon="-0.6659130">
        <ele>276.9</ele>
        <time>2018-03-30T06:56:09Z</time>
      </trkpt>
      <trkpt lat="38.4008900" lon="-0.6659080">
        <ele>276.9</ele>
        <time>2018-03-30T06:56:10Z</time>
      </trkpt>
      <trkpt lat="38.4009600" lon="-0.6658990">
        <ele>276.9</ele>
        <time>2018-03-30T06:56:11Z</time>
      </trkpt>
      <trkpt lat="38.4010290" lon="-0.6658840">
        <ele>276.9</ele>
        <time>2018-03-30T06:56:12Z</time>
      </trkpt>
      <trkpt lat="38.4010970" lon="-0.6658660">
        <ele>277.0</ele>
        <time>2018-03-30T06:56:13Z</time>
      </trkpt>
      <trkpt lat="38.4011610" lon="-0.6658400">
        <ele>276.9</ele>
        <time>2018-03-30T06:56:14Z</time>
      </trkpt>
      <trkpt lat="38.4012260" lon="-0.6658080">
        <ele>276.9</ele>
        <time>2018-03-30T06:56:15Z</time>
      </trkpt>
      <trkpt lat="38.4012860" lon="-0.6657690">
        <ele>276.8</ele>
        <time>2018-03-30T06:56:16Z</time>
      </trkpt>
      <trkpt lat="38.4013450" lon="-0.6657260">
        <ele>276.6</ele>
        <time>2018-03-30T06:56:17Z</time>
      </trkpt>
      <trkpt lat="38.4014070" lon="-0.6656840">
        <ele>276.5</ele>
        <time>2018-03-30T06:56:18Z</time>
      </trkpt>
      <trkpt lat="38.4014720" lon="-0.6656410">
        <ele>276.3</ele>
        <time>2018-03-30T06:56:19Z</time>
      </trkpt>
      <trkpt lat="38.4015390" lon="-0.6655990">
        <ele>276.0</ele>
        <time>2018-03-30T06:56:20Z</time>
      </trkpt>
      <trkpt lat="38.4016090" lon="-0.6655540">
        <ele>275.6</ele>
        <time>2018-03-30T06:56:21Z</time>
      </trkpt>
      <trkpt lat="38.4016830" lon="-0.6655080">
        <ele>275.2</ele>
        <time>2018-03-30T06:56:22Z</time>
      </trkpt>
      <trkpt lat="38.4017590" lon="-0.6654630">
        <ele>274.8</ele>
        <time>2018-03-30T06:56:23Z</time>
      </trkpt>
      <trkpt lat="38.4018340" lon="-0.6654150">
        <ele>274.3</ele>
        <time>2018-03-30T06:56:24Z</time>
      </trkpt>
      <trkpt lat="38.4019120" lon="-0.6653630">
        <ele>273.9</ele>
        <time>2018-03-30T06:56:25Z</time>
      </trkpt>
      <trkpt lat="38.4019900" lon="-0.6653110">
        <ele>273.4</ele>
        <time>2018-03-30T06:56:26Z</time>
      </trkpt>
      <trkpt lat="38.4020690" lon="-0.6652580">
        <ele>273.0</ele>
        <time>2018-03-30T06:56:27Z</time>
      </trkpt>
      <trkpt lat="38.4021490" lon="-0.6652040">
        <ele>272.5</ele>
        <time>2018-03-30T06:56:28Z</time>
      </trkpt>
      <trkpt lat="38.4022300" lon="-0.6651480">
        <ele>272.1</ele>
        <time>2018-03-30T06:56:29Z</time>
      </trkpt>
      <trkpt lat="38.4023100" lon="-0.6650920">
        <ele>271.8</ele>
        <time>2018-03-30T06:56:30Z</time>
      </trkpt>
      <trkpt lat="38.4023900" lon="-0.6650330">
        <ele>271.4</ele>
        <time>2018-03-30T06:56:31Z</time>
      </trkpt>
      <trkpt lat="38.4024720" lon="-0.6649790">
        <ele>271.0</ele>
        <time>2018-03-30T06:56:32Z</time>
      </trkpt>
      <trkpt lat="38.4025600" lon="-0.6649380">
        <ele>270.5</ele>
        <time>2018-03-30T06:56:33Z</time>
      </trkpt>
      <trkpt lat="38.4026520" lon="-0.6649130">
        <ele>270.1</ele>
        <time>2018-03-30T06:56:34Z</time>
      </trkpt>
      <trkpt lat="38.4027410" lon="-0.6648930">
        <ele>269.8</ele>
        <time>2018-03-30T06:56:35Z</time>
      </trkpt>
      <trkpt lat="38.4028340" lon="-0.6648740">
        <ele>269.5</ele>
        <time>2018-03-30T06:56:36Z</time>
      </trkpt>
      <trkpt lat="38.4029290" lon="-0.6648540">
        <ele>269.1</ele>
        <time>2018-03-30T06:56:37Z</time>
      </trkpt>
      <trkpt lat="38.4030240" lon="-0.6648310">
        <ele>268.8</ele>
        <time>2018-03-30T06:56:38Z</time>
      </trkpt>
      <trkpt lat="38.4031180" lon="-0.6648040">
        <ele>268.4</ele>
        <time>2018-03-30T06:56:39Z</time>
      </trkpt>
      <trkpt lat="38.4032130" lon="-0.6647740">
        <ele>268.0</ele>
        <time>2018-03-30T06:56:40Z</time>
      </trkpt>
      <trkpt lat="38.4033080" lon="-0.6647470">
        <ele>267.6</ele>
        <time>2018-03-30T06:56:41Z</time>
      </trkpt>
      <trkpt lat="38.4034040" lon="-0.6647210">
        <ele>267.2</ele>
        <time>2018-03-30T06:56:42Z</time>
      </trkpt>
      <trkpt lat="38.4034990" lon="-0.6646980">
        <ele>266.8</ele>
        <time>2018-03-30T06:56:43Z</time>
      </trkpt>
      <trkpt lat="38.4035920" lon="-0.6646830">
        <ele>266.5</ele>
        <time>2018-03-30T06:56:44Z</time>
      </trkpt>
      <trkpt lat="38.4036840" lon="-0.6646700">
        <ele>266.2</ele>
        <time>2018-03-30T06:56:45Z</time>
      </trkpt>
      <trkpt lat="38.4037750" lon="-0.6646620">
        <ele>265.9</ele>
        <time>2018-03-30T06:56:46Z</time>
      </trkpt>
      <trkpt lat="38.4038650" lon="-0.6646630">
        <ele>265.5</ele>
        <time>2018-03-30T06:56:47Z</time>
      </trkpt>
      <trkpt lat="38.4039560" lon="-0.6646670">
        <ele>265.2</ele>
        <time>2018-03-30T06:56:48Z</time>
      </trkpt>
      <trkpt lat="38.4040480" lon="-0.6646650">
        <ele>264.9</ele>
        <time>2018-03-30T06:56:49Z</time>
      </trkpt>
      <trkpt lat="38.4041400" lon="-0.6646620">
        <ele>264.6</ele>
        <time>2018-03-30T06:56:50Z</time>
      </trkpt>
      <trkpt lat="38.4042310" lon="-0.6646630">
        <ele>264.4</ele>
        <time>2018-03-30T06:56:51Z</time>
      </trkpt>
      <trkpt lat="38.4043210" lon="-0.6646660">
        <ele>264.1</ele>
        <time>2018-03-30T06:56:52Z</time>
      </trkpt>
      <trkpt lat="38.4044100" lon="-0.6646710">
        <ele>263.8</ele>
        <time>2018-03-30T06:56:53Z</time>
      </trkpt>
      <trkpt lat="38.4044980" lon="-0.6646760">
        <ele>263.5</ele>
        <time>2018-03-30T06:56:54Z</time>
      </trkpt>
      <trkpt lat="38.4045850" lon="-0.6646800">
        <ele>263.2</ele>
        <time>2018-03-30T06:56:55Z</time>
      </trkpt>
      <trkpt lat="38.4046700" lon="-0.6646880">
        <ele>262.9</ele>
        <time>2018-03-30T06:56:56Z</time>
      </trkpt>
      <trkpt lat="38.4047530" lon="-0.6646960">
        <ele>262.6</ele>
        <time>2018-03-30T06:56:57Z</time>
      </trkpt>
      <trkpt lat="38.4048350" lon="-0.6647020">
        <ele>262.4</ele>
        <time>2018-03-30T06:56:58Z</time>
      </trkpt>
      <trkpt lat="38.4049160" lon="-0.6647070">
        <ele>262.1</ele>
        <time>2018-03-30T06:56:59Z</time>
      </trkpt>
      <trkpt lat="38.4049960" lon="-0.6647130">
        <ele>261.9</ele>
        <time>2018-03-30T06:57:00Z</time>
      </trkpt>
      <trkpt lat="38.4050740" lon="-0.6647190">
        <ele>261.6</ele>
        <time>2018-03-30T06:57:01Z</time>
      </trkpt>
      <trkpt lat="38.4051500" lon="-0.6647250">
        <ele>261.3</ele>
        <time>2018-03-30T06:57:02Z</time>
      </trkpt>
      <trkpt lat="38.4052260" lon="-0.6647320">
        <ele>261.1</ele>
        <time>2018-03-30T06:57:03Z</time>
      </trkpt>
      <trkpt lat="38.4053000" lon="-0.6647380">
        <ele>260.9</ele>
        <time>2018-03-30T06:57:04Z</time>
      </trkpt>
      <trkpt lat="38.4053730" lon="-0.6647410">
        <ele>260.8</ele>
        <time>2018-03-30T06:57:05Z</time>
      </trkpt>
      <trkpt lat="38.4054460" lon="-0.6647460">
        <ele>260.6</ele>
        <time>2018-03-30T06:57:06Z</time>
      </trkpt>
      <trkpt lat="38.4055170" lon="-0.6647490">
        <ele>260.6</ele>
        <time>2018-03-30T06:57:07Z</time>
      </trkpt>
      <trkpt lat="38.4055870" lon="-0.6647500">
        <ele>260.5</ele>
        <time>2018-03-30T06:57:08Z</time>
      </trkpt>
      <trkpt lat="38.4056570" lon="-0.6647480">
        <ele>260.4</ele>
        <time>2018-03-30T06:57:09Z</time>
      </trkpt>
      <trkpt lat="38.4057270" lon="-0.6647370">
        <ele>260.3</ele>
        <time>2018-03-30T06:57:10Z</time>
      </trkpt>
      <trkpt lat="38.4057930" lon="-0.6647130">
        <ele>260.2</ele>
        <time>2018-03-30T06:57:11Z</time>
      </trkpt>
      <trkpt lat="38.4058570" lon="-0.6646780">
        <ele>260.1</ele>
        <time>2018-03-30T06:57:12Z</time>
      </trkpt>
      <trkpt lat="38.4059200" lon="-0.6646380">
        <ele>260.0</ele>
        <time>2018-03-30T06:57:13Z</time>
      </trkpt>
      <trkpt lat="38.4059820" lon="-0.6645970">
        <ele>259.9</ele>
        <time>2018-03-30T06:57:14Z</time>
      </trkpt>
      <trkpt lat="38.4060440" lon="-0.6645500">
        <ele>259.8</ele>
        <time>2018-03-30T06:57:15Z</time>
      </trkpt>
      <trkpt lat="38.4061060" lon="-0.6645030">
        <ele>259.8</ele>
        <time>2018-03-30T06:57:16Z</time>
      </trkpt>
      <trkpt lat="38.4061690" lon="-0.6644570">
        <ele>259.8</ele>
        <time>2018-03-30T06:57:17Z</time>
      </trkpt>
      <trkpt lat="38.4062330" lon="-0.6644130">
        <ele>259.8</ele>
        <time>2018-03-30T06:57:18Z</time>
      </trkpt>
      <trkpt lat="38.4062950" lon="-0.6643690">
        <ele>259.9</ele>
        <time>2018-03-30T06:57:19Z</time>
      </trkpt>
      <trkpt lat="38.4063530" lon="-0.6643250">
        <ele>259.9</ele>
        <time>2018-03-30T06:57:20Z</time>
      </trkpt>
      <trkpt lat="38.4064020" lon="-0.6642800">
        <ele>259.9</ele>
        <time>2018-03-30T06:57:21Z</time>
      </trkpt>
      <trkpt lat="38.4064460" lon="-0.6642380">
        <ele>259.9</ele>
        <time>2018-03-30T06:57:22Z</time>
      </trkpt>
      <trkpt lat="38.4064860" lon="-0.6641960">
        <ele>259.9</ele>
        <time>2018-03-30T06:57:23Z</time>
      </trkpt>
      <trkpt lat="38.4065250" lon="-0.6641560">
        <ele>260.0</ele>
        <time>2018-03-30T06:57:24Z</time>
      </trkpt>
      <trkpt lat="38.4065600" lon="-0.6641170">
        <ele>260.0</ele>
        <time>2018-03-30T06:57:25Z</time>
      </trkpt>
      <trkpt lat="38.4065950" lon="-0.6640790">
        <ele>260.0</ele>
        <time>2018-03-30T06:57:26Z</time>
      </trkpt>
      <trkpt lat="38.4066290" lon="-0.6640460">
        <ele>260.1</ele>
        <time>2018-03-30T06:57:27Z</time>
      </trkpt>
      <trkpt lat="38.4066580" lon="-0.6640110">
        <ele>260.1</ele>
        <time>2018-03-30T06:57:28Z</time>
      </trkpt>
      <trkpt lat="38.4066870" lon="-0.6639760">
        <ele>260.2</ele>
        <time>2018-03-30T06:57:29Z</time>
      </trkpt>
      <trkpt lat="38.4067160" lon="-0.6639400">
        <ele>260.3</ele>
        <time>2018-03-30T06:57:30Z</time>
      </trkpt>
      <trkpt lat="38.4067450" lon="-0.6639050">
        <ele>260.4</ele>
        <time>2018-03-30T06:57:31Z</time>
      </trkpt>
      <trkpt lat="38.4067730" lon="-0.6638710">
        <ele>260.5</ele>
        <time>2018-03-30T06:57:32Z</time>
      </trkpt>
      <trkpt lat="38.4068040" lon="-0.6638380">
        <ele>260.5</ele>
        <time>2018-03-30T06:57:33Z</time>
      </trkpt>
      <trkpt lat="38.4068350" lon="-0.6638050">
        <ele>260.6</ele>
        <time>2018-03-30T06:57:34Z</time>
      </trkpt>
      <trkpt lat="38.4068630" lon="-0.6637730">
        <ele>260.7</ele>
        <time>2018-03-30T06:57:35Z</time>
      </trkpt>
      <trkpt lat="38.4068910" lon="-0.6637400">
        <ele>260.7</ele>
        <time>2018-03-30T06:57:36Z</time>
      </trkpt>
      <trkpt lat="38.4069210" lon="-0.6637090">
        <ele>260.8</ele>
        <time>2018-03-30T06:57:37Z</time>
      </trkpt>
      <trkpt lat="38.4069500" lon="-0.6636760">
        <ele>260.9</ele>
        <time>2018-03-30T06:57:38Z</time>
      </trkpt>
      <trkpt lat="38.4069760" lon="-0.6636430">
        <ele>260.9</ele>
        <time>2018-03-30T06:57:39Z</time>
      </trkpt>
      <trkpt lat="38.4070020" lon="-0.6636070">
        <ele>261.0</ele>
        <time>2018-03-30T06:57:40Z</time>
      </trkpt>
      <trkpt lat="38.4070280" lon="-0.6635720">
        <ele>261.1</ele>
        <time>2018-03-30T06:57:41Z</time>
      </trkpt>
      <trkpt lat="38.4070540" lon="-0.6635370">
        <ele>261.3</ele>
        <time>2018-03-30T06:57:42Z</time>
      </trkpt>
      <trkpt lat="38.4070800" lon="-0.6635000">
        <ele>261.5</ele>
        <time>2018-03-30T06:57:43Z</time>
      </trkpt>
      <trkpt lat="38.4071060" lon="-0.6634660">
        <ele>261.7</ele>
        <time>2018-03-30T06:57:44Z</time>
      </trkpt>
      <trkpt lat="38.4071330" lon="-0.6634320">
        <ele>262.0</ele>
        <time>2018-03-30T06:57:45Z</time>
      </trkpt>
      <trkpt lat="38.4071590" lon="-0.6634000">
        <ele>262.3</ele>
        <time>2018-03-30T06:57:46Z</time>
      </trkpt>
      <trkpt lat="38.4071870" lon="-0.6633690">
        <ele>262.5</ele>
        <time>2018-03-30T06:57:47Z</time>
      </trkpt>
      <trkpt lat="38.4072140" lon="-0.6633370">
        <ele>262.7</ele>
        <time>2018-03-30T06:57:48Z</time>
      </trkpt>
      <trkpt lat="38.4072410" lon="-0.6633060">
        <ele>262.9</ele>
        <time>2018-03-30T06:57:49Z</time>
      </trkpt>
      <trkpt lat="38.4072670" lon="-0.6632740">
        <ele>263.1</ele>
        <time>2018-03-30T06:57:50Z</time>
      </trkpt>
      <trkpt lat="38.4072920" lon="-0.6632410">
        <ele>263.4</ele>
        <time>2018-03-30T06:57:51Z</time>
      </trkpt>
      <trkpt lat="38.4073180" lon="-0.6632100">
        <ele>263.6</ele>
        <time>2018-03-30T06:57:52Z</time>
      </trkpt>
      <trkpt lat="38.4073440" lon="-0.6631780">
        <ele>263.8</ele>
        <time>2018-03-30T06:57:53Z</time>
      </trkpt>
      <trkpt lat="38.4073680" lon="-0.6631440">
        <ele>264.0</ele>
        <time>2018-03-30T06:57:54Z</time>
      </trkpt>
      <trkpt lat="38.4073940" lon="-0.6631120">
        <ele>264.2</ele>
        <time>2018-03-30T06:57:55Z</time>
      </trkpt>
      <trkpt lat="38.4074190" lon="-0.6630820">
        <ele>264.5</ele>
        <time>2018-03-30T06:57:56Z</time>
      </trkpt>
      <trkpt lat="38.4074450" lon="-0.6630530">
        <ele>264.6</ele>
        <time>2018-03-30T06:57:57Z</time>
      </trkpt>
      <trkpt lat="38.4074710" lon="-0.6630240">
        <ele>264.8</ele>
        <time>2018-03-30T06:57:58Z</time>
      </trkpt>
      <trkpt lat="38.4074930" lon="-0.6629910">
        <ele>264.9</ele>
        <time>2018-03-30T06:57:59Z</time>
      </trkpt>
      <trkpt lat="38.4075160" lon="-0.6629610">
        <ele>265.0</ele>
        <time>2018-03-30T06:58:00Z</time>
      </trkpt>
      <trkpt lat="38.4075390" lon="-0.6629340">
        <ele>265.1</ele>
        <time>2018-03-30T06:58:01Z</time>
      </trkpt>
      <trkpt lat="38.4075620" lon="-0.6629070">
        <ele>265.2</ele>
        <time>2018-03-30T06:58:02Z</time>
      </trkpt>
      <trkpt lat="38.4075860" lon="-0.6628800">
        <ele>265.3</ele>
        <time>2018-03-30T06:58:03Z</time>
      </trkpt>
      <trkpt lat="38.4076110" lon="-0.6628490">
        <ele>265.3</ele>
        <time>2018-03-30T06:58:04Z</time>
      </trkpt>
      <trkpt lat="38.4076360" lon="-0.6628160">
        <ele>265.2</ele>
        <time>2018-03-30T06:58:05Z</time>
      </trkpt>
      <trkpt lat="38.4076640" lon="-0.6627850">
        <ele>265.2</ele>
        <time>2018-03-30T06:58:06Z</time>
      </trkpt>
      <trkpt lat="38.4076950" lon="-0.6627530">
        <ele>265.2</ele>
        <time>2018-03-30T06:58:07Z</time>
      </trkpt>
      <trkpt lat="38.4077260" lon="-0.6627180">
        <ele>265.1</ele>
        <time>2018-03-30T06:58:08Z</time>
      </trkpt>
      <trkpt lat="38.4077600" lon="-0.6626790">
        <ele>265.0</ele>
        <time>2018-03-30T06:58:09Z</time>
      </trkpt>
      <trkpt lat="38.4077970" lon="-0.6626350">
        <ele>264.9</ele>
        <time>2018-03-30T06:58:10Z</time>
      </trkpt>
      <trkpt lat="38.4078380" lon="-0.6625910">
        <ele>264.7</ele>
        <time>2018-03-30T06:58:11Z</time>
      </trkpt>
      <trkpt lat="38.4078840" lon="-0.6625420">
        <ele>264.5</ele>
        <time>2018-03-30T06:58:12Z</time>
      </trkpt>
      <trkpt lat="38.4079330" lon="-0.6624860">
        <ele>264.2</ele>
        <time>2018-03-30T06:58:13Z</time>
      </trkpt>
      <trkpt lat="38.4079820" lon="-0.6624310">
        <ele>264.0</ele>
        <time>2018-03-30T06:58:14Z</time>
      </trkpt>
      <trkpt lat="38.4080330" lon="-0.6623680">
        <ele>263.7</ele>
        <time>2018-03-30T06:58:15Z</time>
      </trkpt>
      <trkpt lat="38.4080880" lon="-0.6623030">
        <ele>263.2</ele>
        <time>2018-03-30T06:58:16Z</time>
      </trkpt>
      <trkpt lat="38.4081460" lon="-0.6622370">
        <ele>262.8</ele>
        <time>2018-03-30T06:58:17Z</time>
      </trkpt>
      <trkpt lat="38.4082040" lon="-0.6621670">
        <ele>262.3</ele>
        <time>2018-03-30T06:58:18Z</time>
      </trkpt>
      <trkpt lat="38.4082680" lon="-0.6620900">
        <ele>261.8</ele>
        <time>2018-03-30T06:58:19Z</time>
      </trkpt>
      <trkpt lat="38.4083330" lon="-0.6620110">
        <ele>261.3</ele>
        <time>2018-03-30T06:58:20Z</time>
      </trkpt>
      <trkpt lat="38.4084010" lon="-0.6619280">
        <ele>260.9</ele>
        <time>2018-03-30T06:58:21Z</time>
      </trkpt>
      <trkpt lat="38.4084690" lon="-0.6618460">
        <ele>260.4</ele>
        <time>2018-03-30T06:58:22Z</time>
      </trkpt>
      <trkpt lat="38.4085390" lon="-0.6617610">
        <ele>260.0</ele>
        <time>2018-03-30T06:58:23Z</time>
      </trkpt>
      <trkpt lat="38.4086170" lon="-0.6616740">
        <ele>259.5</ele>
        <time>2018-03-30T06:58:24Z</time>
      </trkpt>
      <trkpt lat="38.4086940" lon="-0.6615850">
        <ele>259.0</ele>
        <time>2018-03-30T06:58:25Z</time>
      </trkpt>
      <trkpt lat="38.4087770" lon="-0.6614920">
        <ele>258.4</ele>
        <time>2018-03-30T06:58:26Z</time>
      </trkpt>
      <trkpt lat="38.4088560" lon="-0.6614000">
        <ele>257.8</ele>
        <time>2018-03-30T06:58:27Z</time>
      </trkpt>
      <trkpt lat="38.4089380" lon="-0.6613070">
        <ele>257.1</ele>
        <time>2018-03-30T06:58:28Z</time>
      </trkpt>
      <trkpt lat="38.4090210" lon="-0.6612120">
        <ele>256.5</ele>
        <time>2018-03-30T06:58:29Z</time>
      </trkpt>
      <trkpt lat="38.4091050" lon="-0.6611170">
        <ele>256.0</ele>
        <time>2018-03-30T06:58:30Z</time>
      </trkpt>
      <trkpt lat="38.4091930" lon="-0.6610250">
        <ele>255.6</ele>
        <time>2018-03-30T06:58:31Z</time>
      </trkpt>
      <trkpt lat="38.4092830" lon="-0.6609390">
        <ele>255.2</ele>
        <time>2018-03-30T06:58:32Z</time>
      </trkpt>
      <trkpt lat="38.4093710" lon="-0.6608570">
        <ele>255.1</ele>
        <time>2018-03-30T06:58:33Z</time>
      </trkpt>
      <trkpt lat="38.4094590" lon="-0.6607810">
        <ele>255.2</ele>
        <time>2018-03-30T06:58:34Z</time>
      </trkpt>
      <trkpt lat="38.4095440" lon="-0.6607100">
        <ele>255.3</ele>
        <time>2018-03-30T06:58:35Z</time>
      </trkpt>
      <trkpt lat="38.4096230" lon="-0.6606410">
        <ele>255.5</ele>
        <time>2018-03-30T06:58:36Z</time>
      </trkpt>
      <trkpt lat="38.4097030" lon="-0.6605740">
        <ele>255.6</ele>
        <time>2018-03-30T06:58:37Z</time>
      </trkpt>
      <trkpt lat="38.4097780" lon="-0.6605100">
        <ele>255.8</ele>
        <time>2018-03-30T06:58:38Z</time>
      </trkpt>
      <trkpt lat="38.4098520" lon="-0.6604500">
        <ele>256.1</ele>
        <time>2018-03-30T06:58:39Z</time>
      </trkpt>
      <trkpt lat="38.4099220" lon="-0.6603930">
        <ele>256.3</ele>
        <time>2018-03-30T06:58:40Z</time>
      </trkpt>
      <trkpt lat="38.4099920" lon="-0.6603370">
        <ele>256.5</ele>
        <time>2018-03-30T06:58:41Z</time>
      </trkpt>
      <trkpt lat="38.4100600" lon="-0.6602840">
        <ele>256.7</ele>
        <time>2018-03-30T06:58:42Z</time>
      </trkpt>
      <trkpt lat="38.4101280" lon="-0.6602330">
        <ele>256.9</ele>
        <time>2018-03-30T06:58:43Z</time>
      </trkpt>
      <trkpt lat="38.4101950" lon="-0.6601820">
        <ele>257.1</ele>
        <time>2018-03-30T06:58:44Z</time>
      </trkpt>
      <trkpt lat="38.4102600" lon="-0.6601320">
        <ele>257.3</ele>
        <time>2018-03-30T06:58:45Z</time>
      </trkpt>
      <trkpt lat="38.4103250" lon="-0.6600830">
        <ele>257.4</ele>
        <time>2018-03-30T06:58:46Z</time>
      </trkpt>
      <trkpt lat="38.4103870" lon="-0.6600340">
        <ele>257.5</ele>
        <time>2018-03-30T06:58:47Z</time>
      </trkpt>
      <trkpt lat="38.4104470" lon="-0.6599860">
        <ele>257.6</ele>
        <time>2018-03-30T06:58:48Z</time>
      </trkpt>
      <trkpt lat="38.4105050" lon="-0.6599370">
        <ele>257.9</ele>
        <time>2018-03-30T06:58:49Z</time>
      </trkpt>
      <trkpt lat="38.4105630" lon="-0.6598900">
        <ele>258.1</ele>
        <time>2018-03-30T06:58:50Z</time>
      </trkpt>
      <trkpt lat="38.4106190" lon="-0.6598460">
        <ele>258.2</ele>
        <time>2018-03-30T06:58:51Z</time>
      </trkpt>
      <trkpt lat="38.4106770" lon="-0.6598030">
        <ele>258.3</ele>
        <time>2018-03-30T06:58:52Z</time>
      </trkpt>
      <trkpt lat="38.4107320" lon="-0.6597590">
        <ele>258.4</ele>
        <time>2018-03-30T06:58:53Z</time>
      </trkpt>
      <trkpt lat="38.4107880" lon="-0.6597140">
        <ele>258.5</ele>
        <time>2018-03-30T06:58:54Z</time>
      </trkpt>
      <trkpt lat="38.4108420" lon="-0.6596690">
        <ele>258.6</ele>
        <time>2018-03-30T06:58:55Z</time>
      </trkpt>
      <trkpt lat="38.4108940" lon="-0.6596230">
        <ele>258.7</ele>
        <time>2018-03-30T06:58:56Z</time>
      </trkpt>
      <trkpt lat="38.4109470" lon="-0.6595760">
        <ele>258.8</ele>
        <time>2018-03-30T06:58:57Z</time>
      </trkpt>
      <trkpt lat="38.4109980" lon="-0.6595270">
        <ele>258.9</ele>
        <time>2018-03-30T06:58:58Z</time>
      </trkpt>
      <trkpt lat="38.4110460" lon="-0.6594770">
        <ele>259.1</ele>
        <time>2018-03-30T06:58:59Z</time>
      </trkpt>
      <trkpt lat="38.4110930" lon="-0.6594240">
        <ele>259.2</ele>
        <time>2018-03-30T06:59:00Z</time>
      </trkpt>
      <trkpt lat="38.4111380" lon="-0.6593690">
        <ele>259.3</ele>
        <time>2018-03-30T06:59:01Z</time>
      </trkpt>
      <trkpt lat="38.4111820" lon="-0.6593140">
        <ele>259.4</ele>
        <time>2018-03-30T06:59:02Z</time>
      </trkpt>
      <trkpt lat="38.4112280" lon="-0.6592570">
        <ele>259.4</ele>
        <time>2018-03-30T06:59:03Z</time>
      </trkpt>
      <trkpt lat="38.4112720" lon="-0.6591990">
        <ele>259.4</ele>
        <time>2018-03-30T06:59:04Z</time>
      </trkpt>
      <trkpt lat="38.4113170" lon="-0.6591420">
        <ele>259.5</ele>
        <time>2018-03-30T06:59:05Z</time>
      </trkpt>
      <trkpt lat="38.4113640" lon="-0.6590870">
        <ele>259.5</ele>
        <time>2018-03-30T06:59:06Z</time>
      </trkpt>
      <trkpt lat="38.4114060" lon="-0.6590310">
        <ele>259.6</ele>
        <time>2018-03-30T06:59:07Z</time>
      </trkpt>
      <trkpt lat="38.4114520" lon="-0.6589760">
        <ele>259.6</ele>
        <time>2018-03-30T06:59:08Z</time>
      </trkpt>
      <trkpt lat="38.4114960" lon="-0.6589220">
        <ele>259.7</ele>
        <time>2018-03-30T06:59:09Z</time>
      </trkpt>
      <trkpt lat="38.4115460" lon="-0.6588690">
        <ele>259.7</ele>
        <time>2018-03-30T06:59:10Z</time>
      </trkpt>
      <trkpt lat="38.4115960" lon="-0.6588160">
        <ele>259.8</ele>
        <time>2018-03-30T06:59:11Z</time>
      </trkpt>
      <trkpt lat="38.4116470" lon="-0.6587620">
        <ele>259.9</ele>
        <time>2018-03-30T06:59:12Z</time>
      </trkpt>
      <trkpt lat="38.4116960" lon="-0.6587090">
        <ele>259.9</ele>
        <time>2018-03-30T06:59:13Z</time>
      </trkpt>
      <trkpt lat="38.4117470" lon="-0.6586550">
        <ele>260.0</ele>
        <time>2018-03-30T06:59:14Z</time>
      </trkpt>
      <trkpt lat="38.4117980" lon="-0.6586010">
        <ele>260.0</ele>
        <time>2018-03-30T06:59:15Z</time>
      </trkpt>
      <trkpt lat="38.4118500" lon="-0.6585500">
        <ele>260.1</ele>
        <time>2018-03-30T06:59:16Z</time>
      </trkpt>
      <trkpt lat="38.4119050" lon="-0.6585010">
        <ele>260.1</ele>
        <time>2018-03-30T06:59:17Z</time>
      </trkpt>
      <trkpt lat="38.4119600" lon="-0.6584530">
        <ele>260.2</ele>
        <time>2018-03-30T06:59:18Z</time>
      </trkpt>
      <trkpt lat="38.4120130" lon="-0.6584070">
        <ele>260.3</ele>
        <time>2018-03-30T06:59:19Z</time>
      </trkpt>
      <trkpt lat="38.4120680" lon="-0.6583660">
        <ele>260.5</ele>
        <time>2018-03-30T06:59:20Z</time>
      </trkpt>
      <trkpt lat="38.4121250" lon="-0.6583320">
        <ele>260.6</ele>
        <time>2018-03-30T06:59:21Z</time>
      </trkpt>
      <trkpt lat="38.4121820" lon="-0.6583020">
        <ele>260.8</ele>
        <time>2018-03-30T06:59:22Z</time>
      </trkpt>
      <trkpt lat="38.4122390" lon="-0.6582790">
        <ele>260.9</ele>
        <time>2018-03-30T06:59:23Z</time>
      </trkpt>
      <trkpt lat="38.4122970" lon="-0.6582660">
        <ele>261.0</ele>
        <time>2018-03-30T06:59:24Z</time>
      </trkpt>
      <trkpt lat="38.4123530" lon="-0.6582520">
        <ele>261.2</ele>
        <time>2018-03-30T06:59:25Z</time>
      </trkpt>
      <trkpt lat="38.4124090" lon="-0.6582380">
        <ele>261.3</ele>
        <time>2018-03-30T06:59:26Z</time>
      </trkpt>
      <trkpt lat="38.4124660" lon="-0.6582270">
        <ele>261.4</ele>
        <time>2018-03-30T06:59:27Z</time>
      </trkpt>
      <trkpt lat="38.4125230" lon="-0.6582080">
        <ele>261.6</ele>
        <time>2018-03-30T06:59:28Z</time>
      </trkpt>
      <trkpt lat="38.4125800" lon="-0.6581950">
        <ele>261.7</ele>
        <time>2018-03-30T06:59:29Z</time>
      </trkpt>
      <trkpt lat="38.4126380" lon="-0.6581820">
        <ele>261.9</ele>
        <time>2018-03-30T06:59:30Z</time>
      </trkpt>
      <trkpt lat="38.4126900" lon="-0.6581650">
        <ele>262.1</ele>
        <time>2018-03-30T06:59:31Z</time>
      </trkpt>
      <trkpt lat="38.4127440" lon="-0.6581490">
        <ele>262.3</ele>
        <time>2018-03-30T06:59:32Z</time>
      </trkpt>
      <trkpt lat="38.4127960" lon="-0.6581340">
        <ele>262.4</ele>
        <time>2018-03-30T06:59:33Z</time>
      </trkpt>
      <trkpt lat="38.4128480" lon="-0.6581140">
        <ele>262.5</ele>
        <time>2018-03-30T06:59:34Z</time>
      </trkpt>
      <trkpt lat="38.4129000" lon="-0.6580920">
        <ele>262.6</ele>
        <time>2018-03-30T06:59:35Z</time>
      </trkpt>
      <trkpt lat="38.4129510" lon="-0.6580590">
        <ele>262.7</ele>
        <time>2018-03-30T06:59:36Z</time>
      </trkpt>
      <trkpt lat="38.4129970" lon="-0.6580170">
        <ele>262.8</ele>
        <time>2018-03-30T06:59:37Z</time>
      </trkpt>
      <trkpt lat="38.4130420" lon="-0.6579680">
        <ele>262.9</ele>
        <time>2018-03-30T06:59:38Z</time>
      </trkpt>
      <trkpt lat="38.4130790" lon="-0.6579140">
        <ele>262.9</ele>
        <time>2018-03-30T06:59:39Z</time>
      </trkpt>
      <trkpt lat="38.4131160" lon="-0.6578560">
        <ele>263.0</ele>
        <time>2018-03-30T06:59:40Z</time>
      </trkpt>
      <trkpt lat="38.4131520" lon="-0.6577970">
        <ele>263.1</ele>
        <time>2018-03-30T06:59:41Z</time>
      </trkpt>
      <trkpt lat="38.4131850" lon="-0.6577370">
        <ele>263.2</ele>
        <time>2018-03-30T06:59:42Z</time>
      </trkpt>
      <trkpt lat="38.4132150" lon="-0.6576730">
        <ele>263.2</ele>
        <time>2018-03-30T06:59:43Z</time>
      </trkpt>
      <trkpt lat="38.4132440" lon="-0.6576080">
        <ele>263.3</ele>
        <time>2018-03-30T06:59:44Z</time>
      </trkpt>
      <trkpt lat="38.4132730" lon="-0.6575420">
        <ele>263.3</ele>
        <time>2018-03-30T06:59:45Z</time>
      </trkpt>
      <trkpt lat="38.4133020" lon="-0.6574750">
        <ele>263.4</ele>
        <time>2018-03-30T06:59:46Z</time>
      </trkpt>
      <trkpt lat="38.4133320" lon="-0.6574080">
        <ele>263.4</ele>
        <time>2018-03-30T06:59:47Z</time>
      </trkpt>
      <trkpt lat="38.4133610" lon="-0.6573400">
        <ele>263.5</ele>
        <time>2018-03-30T06:59:48Z</time>
      </trkpt>
      <trkpt lat="38.4133910" lon="-0.6572730">
        <ele>263.5</ele>
        <time>2018-03-30T06:59:49Z</time>
      </trkpt>
      <trkpt lat="38.4134230" lon="-0.6572050">
        <ele>263.5</ele>
        <time>2018-03-30T06:59:50Z</time>
      </trkpt>
      <trkpt lat="38.4134570" lon="-0.6571380">
        <ele>263.6</ele>
        <time>2018-03-30T06:59:51Z</time>
      </trkpt>
      <trkpt lat="38.4134900" lon="-0.6570710">
        <ele>263.6</ele>
        <time>2018-03-30T06:59:52Z</time>
      </trkpt>
      <trkpt lat="38.4135260" lon="-0.6570050">
        <ele>263.6</ele>
        <time>2018-03-30T06:59:53Z</time>
      </trkpt>
      <trkpt lat="38.4135640" lon="-0.6569400">
        <ele>263.7</ele>
        <time>2018-03-30T06:59:54Z</time>
      </trkpt>
      <trkpt lat="38.4136030" lon="-0.6568760">
        <ele>263.7</ele>
        <time>2018-03-30T06:59:55Z</time>
      </trkpt>
      <trkpt lat="38.4136420" lon="-0.6568150">
        <ele>263.7</ele>
        <time>2018-03-30T06:59:56Z</time>
      </trkpt>
      <trkpt lat="38.4136850" lon="-0.6567550">
        <ele>263.7</ele>
        <time>2018-03-30T06:59:57Z</time>
      </trkpt>
      <trkpt lat="38.4137290" lon="-0.6566950">
        <ele>263.8</ele>
        <time>2018-03-30T06:59:58Z</time>
      </trkpt>
      <trkpt lat="38.4137730" lon="-0.6566370">
        <ele>263.8</ele>
        <time>2018-03-30T06:59:59Z</time>
      </trkpt>
      <trkpt lat="38.4138170" lon="-0.6565790">
        <ele>263.9</ele>
        <time>2018-03-30T07:00:00Z</time>
      </trkpt>
      <trkpt lat="38.4138600" lon="-0.6565210">
        <ele>263.9</ele>
        <time>2018-03-30T07:00:01Z</time>
      </trkpt>
      <trkpt lat="38.4139010" lon="-0.6564620">
        <ele>264.0</ele>
        <time>2018-03-30T07:00:02Z</time>
      </trkpt>
      <trkpt lat="38.4139410" lon="-0.6563990">
        <ele>264.1</ele>
        <time>2018-03-30T07:00:03Z</time>
      </trkpt>
      <trkpt lat="38.4139790" lon="-0.6563350">
        <ele>264.2</ele>
        <time>2018-03-30T07:00:04Z</time>
      </trkpt>
      <trkpt lat="38.4140190" lon="-0.6562700">
        <ele>264.2</ele>
        <time>2018-03-30T07:00:05Z</time>
      </trkpt>
      <trkpt lat="38.4140560" lon="-0.6562020">
        <ele>264.3</ele>
        <time>2018-03-30T07:00:06Z</time>
      </trkpt>
      <trkpt lat="38.4140930" lon="-0.6561340">
        <ele>264.4</ele>
        <time>2018-03-30T07:00:07Z</time>
      </trkpt>
      <trkpt lat="38.4141300" lon="-0.6560660">
        <ele>264.4</ele>
        <time>2018-03-30T07:00:08Z</time>
      </trkpt>
      <trkpt lat="38.4141670" lon="-0.6559970">
        <ele>264.5</ele>
        <time>2018-03-30T07:00:09Z</time>
      </trkpt>
      <trkpt lat="38.4142040" lon="-0.6559290">
        <ele>264.6</ele>
        <time>2018-03-30T07:00:10Z</time>
      </trkpt>
      <trkpt lat="38.4142430" lon="-0.6558600">
        <ele>264.6</ele>
        <time>2018-03-30T07:00:11Z</time>
      </trkpt>
      <trkpt lat="38.4142830" lon="-0.6557940">
        <ele>264.7</ele>
        <time>2018-03-30T07:00:12Z</time>
      </trkpt>
      <trkpt lat="38.4143240" lon="-0.6557280">
        <ele>264.8</ele>
        <time>2018-03-30T07:00:13Z</time>
      </trkpt>
      <trkpt lat="38.4143660" lon="-0.6556640">
        <ele>264.9</ele>
        <time>2018-03-30T07:00:14Z</time>
      </trkpt>
      <trkpt lat="38.4144080" lon="-0.6556000">
        <ele>265.0</ele>
        <time>2018-03-30T07:00:15Z</time>
      </trkpt>
      <trkpt lat="38.4144510" lon="-0.6555370">
        <ele>265.0</ele>
        <time>2018-03-30T07:00:16Z</time>
      </trkpt>
      <trkpt lat="38.4144970" lon="-0.6554780">
        <ele>265.2</ele>
        <time>2018-03-30T07:00:17Z</time>
      </trkpt>
      <trkpt lat="38.4145460" lon="-0.6554230">
        <ele>265.3</ele>
        <time>2018-03-30T07:00:18Z</time>
      </trkpt>
      <trkpt lat="38.4145970" lon="-0.6553720">
        <ele>265.4</ele>
        <time>2018-03-30T07:00:19Z</time>
      </trkpt>
      <trkpt lat="38.4146490" lon="-0.6553250">
        <ele>265.5</ele>
        <time>2018-03-30T07:00:20Z</time>
      </trkpt>
      <trkpt lat="38.4146990" lon="-0.6552800">
        <ele>265.6</ele>
        <time>2018-03-30T07:00:21Z</time>
      </trkpt>
      <trkpt lat="38.4147530" lon="-0.6552400">
        <ele>265.7</ele>
        <time>2018-03-30T07:00:22Z</time>
      </trkpt>
      <trkpt lat="38.4148070" lon="-0.6552010">
        <ele>265.8</ele>
        <time>2018-03-30T07:00:23Z</time>
      </trkpt>
      <trkpt lat="38.4148600" lon="-0.6551630">
        <ele>265.9</ele>
        <time>2018-03-30T07:00:24Z</time>
      </trkpt>
      <trkpt lat="38.4149120" lon="-0.6551250">
        <ele>266.0</ele>
        <time>2018-03-30T07:00:25Z</time>
      </trkpt>
      <trkpt lat="38.4149660" lon="-0.6550870">
        <ele>266.1</ele>
        <time>2018-03-30T07:00:26Z</time>
      </trkpt>
      <trkpt lat="38.4150200" lon="-0.6550500">
        <ele>266.1</ele>
        <time>2018-03-30T07:00:27Z</time>
      </trkpt>
      <trkpt lat="38.4150740" lon="-0.6550130">
        <ele>266.2</ele>
        <time>2018-03-30T07:00:28Z</time>
      </trkpt>
      <trkpt lat="38.4151290" lon="-0.6549760">
        <ele>266.3</ele>
        <time>2018-03-30T07:00:29Z</time>
      </trkpt>
      <trkpt lat="38.4151840" lon="-0.6549410">
        <ele>266.3</ele>
        <time>2018-03-30T07:00:30Z</time>
      </trkpt>
      <trkpt lat="38.4152390" lon="-0.6549050">
        <ele>266.4</ele>
        <time>2018-03-30T07:00:31Z</time>
      </trkpt>
      <trkpt lat="38.4152930" lon="-0.6548690">
        <ele>266.5</ele>
        <time>2018-03-30T07:00:32Z</time>
      </trkpt>
      <trkpt lat="38.4153490" lon="-0.6548320">
        <ele>266.6</ele>
        <time>2018-03-30T07:00:33Z</time>
      </trkpt>
      <trkpt lat="38.4154040" lon="-0.6547930">
        <ele>266.7</ele>
        <time>2018-03-30T07:00:34Z</time>
      </trkpt>
      <trkpt lat="38.4154590" lon="-0.6547540">
        <ele>266.8</ele>
        <time>2018-03-30T07:00:35Z</time>
      </trkpt>
      <trkpt lat="38.4155120" lon="-0.6547150">
        <ele>266.9</ele>
        <time>2018-03-30T07:00:36Z</time>
      </trkpt>
      <trkpt lat="38.4155680" lon="-0.6546750">
        <ele>267.0</ele>
        <time>2018-03-30T07:00:37Z</time>
      </trkpt>
      <trkpt lat="38.4156250" lon="-0.6546350">
        <ele>267.1</ele>
        <time>2018-03-30T07:00:38Z</time>
      </trkpt>
      <trkpt lat="38.4156810" lon="-0.6545950">
        <ele>267.2</ele>
        <time>2018-03-30T07:00:39Z</time>
      </trkpt>
      <trkpt lat="38.4157380" lon="-0.6545540">
        <ele>267.3</ele>
        <time>2018-03-30T07:00:40Z</time>
      </trkpt>
      <trkpt lat="38.4157920" lon="-0.6545110">
        <ele>267.4</ele>
        <time>2018-03-30T07:00:41Z</time>
      </trkpt>
      <trkpt lat="38.4158470" lon="-0.6544680">
        <ele>267.6</ele>
        <time>2018-03-30T07:00:42Z</time>
      </trkpt>
      <trkpt lat="38.4158980" lon="-0.6544200">
        <ele>267.7</ele>
        <time>2018-03-30T07:00:43Z</time>
      </trkpt>
      <trkpt lat="38.4159490" lon="-0.6543690">
        <ele>267.9</ele>
        <time>2018-03-30T07:00:44Z</time>
      </trkpt>
      <trkpt lat="38.4159970" lon="-0.6543150">
        <ele>268.0</ele>
        <time>2018-03-30T07:00:45Z</time>
      </trkpt>
      <trkpt lat="38.4160470" lon="-0.6542640">
        <ele>268.1</ele>
        <time>2018-03-30T07:00:46Z</time>
      </trkpt>
      <trkpt lat="38.4160980" lon="-0.6542150">
        <ele>268.2</ele>
        <time>2018-03-30T07:00:47Z</time>
      </trkpt>
      <trkpt lat="38.4161510" lon="-0.6541710">
        <ele>268.3</ele>
        <time>2018-03-30T07:00:48Z</time>
      </trkpt>
      <trkpt lat="38.4162070" lon="-0.6541330">
        <ele>268.4</ele>
        <time>2018-03-30T07:00:49Z</time>
      </trkpt>
      <trkpt lat="38.4162650" lon="-0.6541000">
        <ele>268.6</ele>
        <time>2018-03-30T07:00:50Z</time>
      </trkpt>
      <trkpt lat="38.4163250" lon="-0.6540750">
        <ele>268.8</ele>
        <time>2018-03-30T07:00:51Z</time>
      </trkpt>
      <trkpt lat="38.4163860" lon="-0.6540480">
        <ele>269.1</ele>
        <time>2018-03-30T07:00:52Z</time>
      </trkpt>
      <trkpt lat="38.4164480" lon="-0.6540220">
        <ele>269.4</ele>
        <time>2018-03-30T07:00:53Z</time>
      </trkpt>
      <trkpt lat="38.4165100" lon="-0.6539880">
        <ele>269.6</ele>
        <time>2018-03-30T07:00:54Z</time>
      </trkpt>
      <trkpt lat="38.4165650" lon="-0.6539420">
        <ele>269.8</ele>
        <time>2018-03-30T07:00:55Z</time>
      </trkpt>
      <trkpt lat="38.4166030" lon="-0.6538750">
        <ele>270.0</ele>
        <time>2018-03-30T07:00:56Z</time>
      </trkpt>
      <trkpt lat="38.4166370" lon="-0.6538070">
        <ele>270.2</ele>
        <time>2018-03-30T07:00:57Z</time>
      </trkpt>
      <trkpt lat="38.4166760" lon="-0.6537370">
        <ele>270.5</ele>
        <time>2018-03-30T07:00:58Z</time>
      </trkpt>
      <trkpt lat="38.4167140" lon="-0.6536680">
        <ele>270.6</ele>
        <time>2018-03-30T07:00:59Z</time>
      </trkpt>
      <trkpt lat="38.4167550" lon="-0.6536040">
        <ele>270.7</ele>
        <time>2018-03-30T07:01:00Z</time>
      </trkpt>
      <trkpt lat="38.4167980" lon="-0.6535370">
        <ele>270.8</ele>
        <time>2018-03-30T07:01:01Z</time>
      </trkpt>
      <trkpt lat="38.4168430" lon="-0.6534690">
        <ele>271.0</ele>
        <time>2018-03-30T07:01:02Z</time>
      </trkpt>
      <trkpt lat="38.4168870" lon="-0.6534000">
        <ele>271.1</ele>
        <time>2018-03-30T07:01:03Z</time>
      </trkpt>
      <trkpt lat="38.4169350" lon="-0.6533280">
        <ele>271.2</ele>
        <time>2018-03-30T07:01:04Z</time>
      </trkpt>
      <trkpt lat="38.4169810" lon="-0.6532540">
        <ele>271.3</ele>
        <time>2018-03-30T07:01:05Z</time>
      </trkpt>
      <trkpt lat="38.4170260" lon="-0.6531810">
        <ele>271.4</ele>
        <time>2018-03-30T07:01:06Z</time>
      </trkpt>
      <trkpt lat="38.4170710" lon="-0.6531100">
        <ele>271.5</ele>
        <time>2018-03-30T07:01:07Z</time>
      </trkpt>
      <trkpt lat="38.4171160" lon="-0.6530390">
        <ele>271.6</ele>
        <time>2018-03-30T07:01:08Z</time>
      </trkpt>
      <trkpt lat="38.4171620" lon="-0.6529700">
        <ele>271.7</ele>
        <time>2018-03-30T07:01:09Z</time>
      </trkpt>
      <trkpt lat="38.4172090" lon="-0.6529010">
        <ele>271.9</ele>
        <time>2018-03-30T07:01:10Z</time>
      </trkpt>
      <trkpt lat="38.4172550" lon="-0.6528320">
        <ele>272.0</ele>
        <time>2018-03-30T07:01:11Z</time>
      </trkpt>
      <trkpt lat="38.4173020" lon="-0.6527640">
        <ele>272.2</ele>
        <time>2018-03-30T07:01:12Z</time>
      </trkpt>
      <trkpt lat="38.4173470" lon="-0.6526980">
        <ele>272.3</ele>
        <time>2018-03-30T07:01:13Z</time>
      </trkpt>
      <trkpt lat="38.4173900" lon="-0.6526280">
        <ele>272.3</ele>
        <time>2018-03-30T07:01:14Z</time>
      </trkpt>
      <trkpt lat="38.4174300" lon="-0.6525530">
        <ele>272.4</ele>
        <time>2018-03-30T07:01:15Z</time>
      </trkpt>
      <trkpt lat="38.4174700" lon="-0.6524780">
        <ele>272.4</ele>
        <time>2018-03-30T07:01:16Z</time>
      </trkpt>
      <trkpt lat="38.4175120" lon="-0.6524040">
        <ele>272.5</ele>
        <time>2018-03-30T07:01:17Z</time>
      </trkpt>
      <trkpt lat="38.4175570" lon="-0.6523310">
        <ele>272.6</ele>
        <time>2018-03-30T07:01:18Z</time>
      </trkpt>
      <trkpt lat="38.4176050" lon="-0.6522620">
        <ele>272.6</ele>
        <time>2018-03-30T07:01:19Z</time>
      </trkpt>
      <trkpt lat="38.4176590" lon="-0.6522010">
        <ele>272.7</ele>
        <time>2018-03-30T07:01:20Z</time>
      </trkpt>
      <trkpt lat="38.4177180" lon="-0.6521460">
        <ele>272.8</ele>
        <time>2018-03-30T07:01:21Z</time>
      </trkpt>
      <trkpt lat="38.4177790" lon="-0.6520960">
        <ele>273.0</ele>
        <time>2018-03-30T07:01:22Z</time>
      </trkpt>
      <trkpt lat="38.4178420" lon="-0.6520510">
        <ele>273.1</ele>
        <time>2018-03-30T07:01:23Z</time>
      </trkpt>
      <trkpt lat="38.4179060" lon="-0.6520080">
        <ele>273.2</ele>
        <time>2018-03-30T07:01:24Z</time>
      </trkpt>
      <trkpt lat="38.4179730" lon="-0.6519700">
        <ele>273.3</ele>
        <time>2018-03-30T07:01:25Z</time>
      </trkpt>
      <trkpt lat="38.4180360" lon="-0.6519280">
        <ele>273.4</ele>
        <time>2018-03-30T07:01:26Z</time>
      </trkpt>
      <trkpt lat="38.4181000" lon="-0.6518840">
        <ele>273.5</ele>
        <time>2018-03-30T07:01:27Z</time>
      </trkpt>
      <trkpt lat="38.4181660" lon="-0.6518410">
        <ele>273.6</ele>
        <time>2018-03-30T07:01:28Z</time>
      </trkpt>
      <trkpt lat="38.4182310" lon="-0.6518000">
        <ele>273.8</ele>
        <time>2018-03-30T07:01:29Z</time>
      </trkpt>
      <trkpt lat="38.4182980" lon="-0.6517610">
        <ele>273.9</ele>
        <time>2018-03-30T07:01:30Z</time>
      </trkpt>
      <trkpt lat="38.4183630" lon="-0.6517210">
        <ele>274.1</ele>
        <time>2018-03-30T07:01:31Z</time>
      </trkpt>
      <trkpt lat="38.4184280" lon="-0.6516820">
        <ele>274.3</ele>
        <time>2018-03-30T07:01:32Z</time>
      </trkpt>
      <trkpt lat="38.4184910" lon="-0.6516430">
        <ele>274.4</ele>
        <time>2018-03-30T07:01:33Z</time>
      </trkpt>
      <trkpt lat="38.4185530" lon="-0.6516030">
        <ele>274.6</ele>
        <time>2018-03-30T07:01:34Z</time>
      </trkpt>
      <trkpt lat="38.4186160" lon="-0.6515650">
        <ele>274.7</ele>
        <time>2018-03-30T07:01:35Z</time>
      </trkpt>
      <trkpt lat="38.4186780" lon="-0.6515290">
        <ele>274.9</ele>
        <time>2018-03-30T07:01:36Z</time>
      </trkpt>
      <trkpt lat="38.4187390" lon="-0.6514950">
        <ele>275.1</ele>
        <time>2018-03-30T07:01:37Z</time>
      </trkpt>
      <trkpt lat="38.4187970" lon="-0.6514570">
        <ele>275.2</ele>
        <time>2018-03-30T07:01:38Z</time>
      </trkpt>
      <trkpt lat="38.4188540" lon="-0.6514170">
        <ele>275.4</ele>
        <time>2018-03-30T07:01:39Z</time>
      </trkpt>
      <trkpt lat="38.4189100" lon="-0.6513740">
        <ele>275.6</ele>
        <time>2018-03-30T07:01:40Z</time>
      </trkpt>
      <trkpt lat="38.4189660" lon="-0.6513310">
        <ele>275.8</ele>
        <time>2018-03-30T07:01:41Z</time>
      </trkpt>
      <trkpt lat="38.4190220" lon="-0.6512860">
        <ele>276.0</ele>
        <time>2018-03-30T07:01:42Z</time>
      </trkpt>
      <trkpt lat="38.4190770" lon="-0.6512380">
        <ele>276.2</ele>
        <time>2018-03-30T07:01:43Z</time>
      </trkpt>
      <trkpt lat="38.4191310" lon="-0.6511900">
        <ele>276.3</ele>
        <time>2018-03-30T07:01:44Z</time>
      </trkpt>
      <trkpt lat="38.4191830" lon="-0.6511400">
        <ele>276.5</ele>
        <time>2018-03-30T07:01:45Z</time>
      </trkpt>
      <trkpt lat="38.4192360" lon="-0.6510910">
        <ele>276.7</ele>
        <time>2018-03-30T07:01:46Z</time>
      </trkpt>
      <trkpt lat="38.4192890" lon="-0.6510410">
        <ele>276.8</ele>
        <time>2018-03-30T07:01:47Z</time>
      </trkpt>
      <trkpt lat="38.4193420" lon="-0.6509920">
        <ele>277.0</ele>
        <time>2018-03-30T07:01:48Z</time>
      </trkpt>
      <trkpt lat="38.4193940" lon="-0.6509420">
        <ele>277.2</ele>
        <time>2018-03-30T07:01:49Z</time>
      </trkpt>
      <trkpt lat="38.4194460" lon="-0.6508920">
        <ele>277.3</ele>
        <time>2018-03-30T07:01:50Z</time>
      </trkpt>
      <trkpt lat="38.4194960" lon="-0.6508410">
        <ele>277.5</ele>
        <time>2018-03-30T07:01:51Z</time>
      </trkpt>
      <trkpt lat="38.4195480" lon="-0.6507920">
        <ele>277.6</ele>
        <time>2018-03-30T07:01:52Z</time>
      </trkpt>
      <trkpt lat="38.4196000" lon="-0.6507440">
        <ele>277.8</ele>
        <time>2018-03-30T07:01:53Z</time>
      </trkpt>
      <trkpt lat="38.4196510" lon="-0.6506960">
        <ele>278.0</ele>
        <time>2018-03-30T07:01:54Z</time>
      </trkpt>
      <trkpt lat="38.4197050" lon="-0.6506520">
        <ele>278.1</ele>
        <time>2018-03-30T07:01:55Z</time>
      </trkpt>
      <trkpt lat="38.4197580" lon="-0.6506080">
        <ele>278.3</ele>
        <time>2018-03-30T07:01:56Z</time>
      </trkpt>
      <trkpt lat="38.4198110" lon="-0.6505650">
        <ele>278.4</ele>
        <time>2018-03-30T07:01:57Z</time>
      </trkpt>
      <trkpt lat="38.4198620" lon="-0.6505240">
        <ele>278.6</ele>
        <time>2018-03-30T07:01:58Z</time>
      </trkpt>
      <trkpt lat="38.4199160" lon="-0.6504840">
        <ele>278.7</ele>
        <time>2018-03-30T07:01:59Z</time>
      </trkpt>
      <trkpt lat="38.4199700" lon="-0.6504450">
        <ele>279.0</ele>
        <time>2018-03-30T07:02:00Z</time>
      </trkpt>
      <trkpt lat="38.4200240" lon="-0.6504080">
        <ele>279.1</ele>
        <time>2018-03-30T07:02:01Z</time>
      </trkpt>
      <trkpt lat="38.4200790" lon="-0.6503750">
        <ele>279.2</ele>
        <time>2018-03-30T07:02:02Z</time>
      </trkpt>
      <trkpt lat="38.4201350" lon="-0.6503440">
        <ele>279.3</ele>
        <time>2018-03-30T07:02:03Z</time>
      </trkpt>
      <trkpt lat="38.4201920" lon="-0.6503150">
        <ele>279.4</ele>
        <time>2018-03-30T07:02:04Z</time>
      </trkpt>
      <trkpt lat="38.4202480" lon="-0.6502880">
        <ele>279.5</ele>
        <time>2018-03-30T07:02:05Z</time>
      </trkpt>
      <trkpt lat="38.4203050" lon="-0.6502640">
        <ele>279.6</ele>
        <time>2018-03-30T07:02:06Z</time>
      </trkpt>
      <trkpt lat="38.4203620" lon="-0.6502400">
        <ele>279.6</ele>
        <time>2018-03-30T07:02:07Z</time>
      </trkpt>
      <trkpt lat="38.4204190" lon="-0.6502180">
        <ele>279.7</ele>
        <time>2018-03-30T07:02:08Z</time>
      </trkpt>
      <trkpt lat="38.4204750" lon="-0.6501960">
        <ele>279.8</ele>
        <time>2018-03-30T07:02:09Z</time>
      </trkpt>
      <trkpt lat="38.4205300" lon="-0.6501760">
        <ele>279.9</ele>
        <time>2018-03-30T07:02:10Z</time>
      </trkpt>
      <trkpt lat="38.4205840" lon="-0.6501570">
        <ele>280.0</ele>
        <time>2018-03-30T07:02:11Z</time>
      </trkpt>
      <trkpt lat="38.4206360" lon="-0.6501370">
        <ele>280.0</ele>
        <time>2018-03-30T07:02:12Z</time>
      </trkpt>
      <trkpt lat="38.4206890" lon="-0.6501170">
        <ele>280.1</ele>
        <time>2018-03-30T07:02:13Z</time>
      </trkpt>
      <trkpt lat="38.4207440" lon="-0.6500980">
        <ele>280.2</ele>
        <time>2018-03-30T07:02:14Z</time>
      </trkpt>
      <trkpt lat="38.4207980" lon="-0.6500800">
        <ele>280.3</ele>
        <time>2018-03-30T07:02:15Z</time>
      </trkpt>
      <trkpt lat="38.4208520" lon="-0.6500610">
        <ele>280.3</ele>
        <time>2018-03-30T07:02:16Z</time>
      </trkpt>
      <trkpt lat="38.4209050" lon="-0.6500390">
        <ele>280.4</ele>
        <time>2018-03-30T07:02:17Z</time>
      </trkpt>
      <trkpt lat="38.4209590" lon="-0.6500120">
        <ele>280.5</ele>
        <time>2018-03-30T07:02:18Z</time>
      </trkpt>
      <trkpt lat="38.4210090" lon="-0.6499760">
        <ele>280.7</ele>
        <time>2018-03-30T07:02:19Z</time>
      </trkpt>
      <trkpt lat="38.4210580" lon="-0.6499340">
        <ele>280.8</ele>
        <time>2018-03-30T07:02:20Z</time>
      </trkpt>
      <trkpt lat="38.4211010" lon="-0.6498880">
        <ele>280.9</ele>
        <time>2018-03-30T07:02:21Z</time>
      </trkpt>
      <trkpt lat="38.4211460" lon="-0.6498390">
        <ele>281.0</ele>
        <time>2018-03-30T07:02:22Z</time>
      </trkpt>
      <trkpt lat="38.4211900" lon="-0.6497880">
        <ele>281.1</ele>
        <time>2018-03-30T07:02:23Z</time>
      </trkpt>
      <trkpt lat="38.4212340" lon="-0.6497380">
        <ele>281.2</ele>
        <time>2018-03-30T07:02:24Z</time>
      </trkpt>
      <trkpt lat="38.4212770" lon="-0.6496890">
        <ele>281.3</ele>
        <time>2018-03-30T07:02:25Z</time>
      </trkpt>
      <trkpt lat="38.4213210" lon="-0.6496400">
        <ele>281.4</ele>
        <time>2018-03-30T07:02:26Z</time>
      </trkpt>
      <trkpt lat="38.4213660" lon="-0.6495920">
        <ele>281.5</ele>
        <time>2018-03-30T07:02:27Z</time>
      </trkpt>
      <trkpt lat="38.4214130" lon="-0.6495440">
        <ele>281.6</ele>
        <time>2018-03-30T07:02:28Z</time>
      </trkpt>
      <trkpt lat="38.4214590" lon="-0.6494970">
        <ele>281.7</ele>
        <time>2018-03-30T07:02:29Z</time>
      </trkpt>
      <trkpt lat="38.4215110" lon="-0.6494500">
        <ele>281.8</ele>
        <time>2018-03-30T07:02:30Z</time>
      </trkpt>
      <trkpt lat="38.4215610" lon="-0.6494060">
        <ele>281.9</ele>
        <time>2018-03-30T07:02:31Z</time>
      </trkpt>
      <trkpt lat="38.4216140" lon="-0.6493660">
        <ele>282.0</ele>
        <time>2018-03-30T07:02:32Z</time>
      </trkpt>
      <trkpt lat="38.4216650" lon="-0.6493230">
        <ele>282.1</ele>
        <time>2018-03-30T07:02:33Z</time>
      </trkpt>
      <trkpt lat="38.4217180" lon="-0.6492820">
        <ele>282.2</ele>
        <time>2018-03-30T07:02:34Z</time>
      </trkpt>
      <trkpt lat="38.4217690" lon="-0.6492430">
        <ele>282.3</ele>
        <time>2018-03-30T07:02:35Z</time>
      </trkpt>
      <trkpt lat="38.4218190" lon="-0.6492030">
        <ele>282.3</ele>
        <time>2018-03-30T07:02:36Z</time>
      </trkpt>
      <trkpt lat="38.4218710" lon="-0.6491650">
        <ele>282.4</ele>
        <time>2018-03-30T07:02:37Z</time>
      </trkpt>
      <trkpt lat="38.4219200" lon="-0.6491240">
        <ele>282.5</ele>
        <time>2018-03-30T07:02:38Z</time>
      </trkpt>
      <trkpt lat="38.4219710" lon="-0.6490840">
        <ele>282.6</ele>
        <time>2018-03-30T07:02:39Z</time>
      </trkpt>
      <trkpt lat="38.4220210" lon="-0.6490470">
        <ele>282.7</ele>
        <time>2018-03-30T07:02:40Z</time>
      </trkpt>
      <trkpt lat="38.4220720" lon="-0.6490090">
        <ele>282.8</ele>
        <time>2018-03-30T07:02:41Z</time>
      </trkpt>
      <trkpt lat="38.4221210" lon="-0.6489700">
        <ele>283.0</ele>
        <time>2018-03-30T07:02:42Z</time>
      </trkpt>
      <trkpt lat="38.4221690" lon="-0.6489300">
        <ele>283.1</ele>
        <time>2018-03-30T07:02:43Z</time>
      </trkpt>
      <trkpt lat="38.4222190" lon="-0.6488910">
        <ele>283.3</ele>
        <time>2018-03-30T07:02:44Z</time>
      </trkpt>
      <trkpt lat="38.4222670" lon="-0.6488530">
        <ele>283.4</ele>
        <time>2018-03-30T07:02:45Z</time>
      </trkpt>
      <trkpt lat="38.4223160" lon="-0.6488150">
        <ele>283.5</ele>
        <time>2018-03-30T07:02:46Z</time>
      </trkpt>
      <trkpt lat="38.4223650" lon="-0.6487770">
        <ele>283.6</ele>
        <time>2018-03-30T07:02:47Z</time>
      </trkpt>
      <trkpt lat="38.4224140" lon="-0.6487400">
        <ele>283.7</ele>
        <time>2018-03-30T07:02:48Z</time>
      </trkpt>
      <trkpt lat="38.4224640" lon="-0.6487030">
        <ele>283.9</ele>
        <time>2018-03-30T07:02:49Z</time>
      </trkpt>
      <trkpt lat="38.4225150" lon="-0.6486660">
        <ele>284.0</ele>
        <time>2018-03-30T07:02:50Z</time>
      </trkpt>
      <trkpt lat="38.4225650" lon="-0.6486300">
        <ele>284.1</ele>
        <time>2018-03-30T07:02:51Z</time>
      </trkpt>
      <trkpt lat="38.4226150" lon="-0.6485920">
        <ele>284.2</ele>
        <time>2018-03-30T07:02:52Z</time>
      </trkpt>
      <trkpt lat="38.4226660" lon="-0.6485570">
        <ele>284.3</ele>
        <time>2018-03-30T07:02:53Z</time>
      </trkpt>
      <trkpt lat="38.4227190" lon="-0.6485220">
        <ele>284.5</ele>
        <time>2018-03-30T07:02:54Z</time>
      </trkpt>
      <trkpt lat="38.4227720" lon="-0.6484890">
        <ele>284.6</ele>
        <time>2018-03-30T07:02:55Z</time>
      </trkpt>
      <trkpt lat="38.4228270" lon="-0.6484550">
        <ele>284.7</ele>
        <time>2018-03-30T07:02:56Z</time>
      </trkpt>
      <trkpt lat="38.4228830" lon="-0.6484210">
        <ele>284.8</ele>
        <time>2018-03-30T07:02:57Z</time>
      </trkpt>
      <trkpt lat="38.4229390" lon="-0.6483860">
        <ele>284.9</ele>
        <time>2018-03-30T07:02:58Z</time>
      </trkpt>
      <trkpt lat="38.4229940" lon="-0.6483510">
        <ele>285.0</ele>
        <time>2018-03-30T07:02:59Z</time>
      </trkpt>
      <trkpt lat="38.4230500" lon="-0.6483170">
        <ele>285.0</ele>
        <time>2018-03-30T07:03:00Z</time>
      </trkpt>
      <trkpt lat="38.4231050" lon="-0.6482810">
        <ele>285.1</ele>
        <time>2018-03-30T07:03:01Z</time>
      </trkpt>
      <trkpt lat="38.4231590" lon="-0.6482450">
        <ele>285.2</ele>
        <time>2018-03-30T07:03:02Z</time>
      </trkpt>
      <trkpt lat="38.4232110" lon="-0.6482070">
        <ele>285.2</ele>
        <time>2018-03-30T07:03:03Z</time>
      </trkpt>
      <trkpt lat="38.4232630" lon="-0.6481680">
        <ele>285.3</ele>
        <time>2018-03-30T07:03:04Z</time>
      </trkpt>
      <trkpt lat="38.4233150" lon="-0.6481270">
        <ele>285.4</ele>
        <time>2018-03-30T07:03:05Z</time>
      </trkpt>
      <trkpt lat="38.4233670" lon="-0.6480870">
        <ele>285.4</ele>
        <time>2018-03-30T07:03:06Z</time>
      </trkpt>
      <trkpt lat="38.4234180" lon="-0.6480470">
        <ele>285.5</ele>
        <time>2018-03-30T07:03:07Z</time>
      </trkpt>
      <trkpt lat="38.4234690" lon="-0.6480070">
        <ele>285.6</ele>
        <time>2018-03-30T07:03:08Z</time>
      </trkpt>
      <trkpt lat="38.4235200" lon="-0.6479660">
        <ele>285.7</ele>
        <time>2018-03-30T07:03:09Z</time>
      </trkpt>
      <trkpt lat="38.4235710" lon="-0.6479260">
        <ele>285.7</ele>
        <time>2018-03-30T07:03:10Z</time>
      </trkpt>
      <trkpt lat="38.4236220" lon="-0.6478850">
        <ele>285.9</ele>
        <time>2018-03-30T07:03:11Z</time>
      </trkpt>
      <trkpt lat="38.4236730" lon="-0.6478460">
        <ele>286.0</ele>
        <time>2018-03-30T07:03:12Z</time>
      </trkpt>
      <trkpt lat="38.4237240" lon="-0.6478070">
        <ele>286.1</ele>
        <time>2018-03-30T07:03:13Z</time>
      </trkpt>
      <trkpt lat="38.4237760" lon="-0.6477700">
        <ele>286.2</ele>
        <time>2018-03-30T07:03:14Z</time>
      </trkpt>
      <trkpt lat="38.4238270" lon="-0.6477310">
        <ele>286.3</ele>
        <time>2018-03-30T07:03:15Z</time>
      </trkpt>
      <trkpt lat="38.4238790" lon="-0.6476940">
        <ele>286.4</ele>
        <time>2018-03-30T07:03:16Z</time>
      </trkpt>
      <trkpt lat="38.4239310" lon="-0.6476580">
        <ele>286.6</ele>
        <time>2018-03-30T07:03:17Z</time>
      </trkpt>
      <trkpt lat="38.4239840" lon="-0.6476230">
        <ele>286.7</ele>
        <time>2018-03-30T07:03:18Z</time>
      </trkpt>
      <trkpt lat="38.4240370" lon="-0.6475880">
        <ele>286.8</ele>
        <time>2018-03-30T07:03:19Z</time>
      </trkpt>
      <trkpt lat="38.4240910" lon="-0.6475540">
        <ele>287.0</ele>
        <time>2018-03-30T07:03:20Z</time>
      </trkpt>
      <trkpt lat="38.4241450" lon="-0.6475190">
        <ele>287.2</ele>
        <time>2018-03-30T07:03:21Z</time>
      </trkpt>
      <trkpt lat="38.4241970" lon="-0.6474850">
        <ele>287.3</ele>
        <time>2018-03-30T07:03:22Z</time>
      </trkpt>
      <trkpt lat="38.4242480" lon="-0.6474500">
        <ele>287.4</ele>
        <time>2018-03-30T07:03:23Z</time>
      </trkpt>
      <trkpt lat="38.4242980" lon="-0.6474180">
        <ele>287.5</ele>
        <time>2018-03-30T07:03:24Z</time>
      </trkpt>
      <trkpt lat="38.4243510" lon="-0.6473850">
        <ele>287.6</ele>
        <time>2018-03-30T07:03:25Z</time>
      </trkpt>
      <trkpt lat="38.4244020" lon="-0.6473490">
        <ele>287.7</ele>
        <time>2018-03-30T07:03:26Z</time>
      </trkpt>
      <trkpt lat="38.4244540" lon="-0.6473150">
        <ele>287.8</ele>
        <time>2018-03-30T07:03:27Z</time>
      </trkpt>
      <trkpt lat="38.4245030" lon="-0.6472820">
        <ele>287.9</ele>
        <time>2018-03-30T07:03:28Z</time>
      </trkpt>
      <trkpt lat="38.4245530" lon="-0.6472480">
        <ele>288.0</ele>
        <time>2018-03-30T07:03:29Z</time>
      </trkpt>
      <trkpt lat="38.4246040" lon="-0.6472150">
        <ele>288.2</ele>
        <time>2018-03-30T07:03:30Z</time>
      </trkpt>
      <trkpt lat="38.4246590" lon="-0.6471850">
        <ele>288.3</ele>
        <time>2018-03-30T07:03:31Z</time>
      </trkpt>
      <trkpt lat="38.4247100" lon="-0.6471510">
        <ele>288.4</ele>
        <time>2018-03-30T07:03:32Z</time>
      </trkpt>
      <trkpt lat="38.4247610" lon="-0.6471150">
        <ele>288.5</ele>
        <time>2018-03-30T07:03:33Z</time>
      </trkpt>
      <trkpt lat="38.4248130" lon="-0.6470790">
        <ele>288.6</ele>
        <time>2018-03-30T07:03:34Z</time>
      </trkpt>
      <trkpt lat="38.4248640" lon="-0.6470430">
        <ele>288.7</ele>
        <time>2018-03-30T07:03:35Z</time>
      </trkpt>
      <trkpt lat="38.4249170" lon="-0.6470080">
        <ele>288.9</ele>
        <time>2018-03-30T07:03:36Z</time>
      </trkpt>
      <trkpt lat="38.4249690" lon="-0.6469720">
        <ele>289.0</ele>
        <time>2018-03-30T07:03:37Z</time>
      </trkpt>
      <trkpt lat="38.4250220" lon="-0.6469360">
        <ele>289.1</ele>
        <time>2018-03-30T07:03:38Z</time>
      </trkpt>
      <trkpt lat="38.4250740" lon="-0.6469010">
        <ele>289.2</ele>
        <time>2018-03-30T07:03:39Z</time>
      </trkpt>
      <trkpt lat="38.4251260" lon="-0.6468630">
        <ele>289.3</ele>
        <time>2018-03-30T07:03:40Z</time>
      </trkpt>
      <trkpt lat="38.4251770" lon="-0.6468260">
        <ele>289.4</ele>
        <time>2018-03-30T07:03:41Z</time>
      </trkpt>
      <trkpt lat="38.4252300" lon="-0.6467870">
        <ele>289.5</ele>
        <time>2018-03-30T07:03:42Z</time>
      </trkpt>
      <trkpt lat="38.4252820" lon="-0.6467500">
        <ele>289.6</ele>
        <time>2018-03-30T07:03:43Z</time>
      </trkpt>
      <trkpt lat="38.4253350" lon="-0.6467120">
        <ele>289.7</ele>
        <time>2018-03-30T07:03:44Z</time>
      </trkpt>
      <trkpt lat="38.4253870" lon="-0.6466720">
        <ele>289.8</ele>
        <time>2018-03-30T07:03:45Z</time>
      </trkpt>
      <trkpt lat="38.4254360" lon="-0.6466290">
        <ele>289.9</ele>
        <time>2018-03-30T07:03:46Z</time>
      </trkpt>
      <trkpt lat="38.4254840" lon="-0.6465850">
        <ele>290.0</ele>
        <time>2018-03-30T07:03:47Z</time>
      </trkpt>
      <trkpt lat="38.4255310" lon="-0.6465410">
        <ele>290.2</ele>
        <time>2018-03-30T07:03:48Z</time>
      </trkpt>
      <trkpt lat="38.4255790" lon="-0.6464970">
        <ele>290.3</ele>
        <time>2018-03-30T07:03:49Z</time>
      </trkpt>
      <trkpt lat="38.4256270" lon="-0.6464530">
        <ele>290.4</ele>
        <time>2018-03-30T07:03:50Z</time>
      </trkpt>
      <trkpt lat="38.4256760" lon="-0.6464090">
        <ele>290.5</ele>
        <time>2018-03-30T07:03:51Z</time>
      </trkpt>
      <trkpt lat="38.4257260" lon="-0.6463660">
        <ele>290.6</ele>
        <time>2018-03-30T07:03:52Z</time>
      </trkpt>
      <trkpt lat="38.4257750" lon="-0.6463240">
        <ele>290.7</ele>
        <time>2018-03-30T07:03:53Z</time>
      </trkpt>
      <trkpt lat="38.4258250" lon="-0.6462840">
        <ele>290.8</ele>
        <time>2018-03-30T07:03:54Z</time>
      </trkpt>
      <trkpt lat="38.4258740" lon="-0.6462430">
        <ele>291.0</ele>
        <time>2018-03-30T07:03:55Z</time>
      </trkpt>
      <trkpt lat="38.4259250" lon="-0.6462020">
        <ele>291.0</ele>
        <time>2018-03-30T07:03:56Z</time>
      </trkpt>
      <trkpt lat="38.4259750" lon="-0.6461630">
        <ele>291.1</ele>
        <time>2018-03-30T07:03:57Z</time>
      </trkpt>
      <trkpt lat="38.4260260" lon="-0.6461250">
        <ele>291.2</ele>
        <time>2018-03-30T07:03:58Z</time>
      </trkpt>
      <trkpt lat="38.4260780" lon="-0.6460880">
        <ele>291.3</ele>
        <time>2018-03-30T07:03:59Z</time>
      </trkpt>
      <trkpt lat="38.4261300" lon="-0.6460510">
        <ele>291.3</ele>
        <time>2018-03-30T07:04:00Z</time>
      </trkpt>
      <trkpt lat="38.4261820" lon="-0.6460160">
        <ele>291.4</ele>
        <time>2018-03-30T07:04:01Z</time>
      </trkpt>
      <trkpt lat="38.4262340" lon="-0.6459830">
        <ele>291.5</ele>
        <time>2018-03-30T07:04:02Z</time>
      </trkpt>
      <trkpt lat="38.4262860" lon="-0.6459540">
        <ele>291.6</ele>
        <time>2018-03-30T07:04:03Z</time>
      </trkpt>
      <trkpt lat="38.4263360" lon="-0.6459250">
        <ele>291.7</ele>
        <time>2018-03-30T07:04:04Z</time>
      </trkpt>
      <trkpt lat="38.4263860" lon="-0.6458960">
        <ele>291.8</ele>
        <time>2018-03-30T07:04:05Z</time>
      </trkpt>
      <trkpt lat="38.4264370" lon="-0.6458710">
        <ele>291.9</ele>
        <time>2018-03-30T07:04:06Z</time>
      </trkpt>
      <trkpt lat="38.4264870" lon="-0.6458460">
        <ele>292.0</ele>
        <time>2018-03-30T07:04:07Z</time>
      </trkpt>
      <trkpt lat="38.4265380" lon="-0.6458230">
        <ele>292.1</ele>
        <time>2018-03-30T07:04:08Z</time>
      </trkpt>
      <trkpt lat="38.4265920" lon="-0.6458010">
        <ele>292.2</ele>
        <time>2018-03-30T07:04:09Z</time>
      </trkpt>
      <trkpt lat="38.4266450" lon="-0.6457820">
        <ele>292.4</ele>
        <time>2018-03-30T07:04:10Z</time>
      </trkpt>
      <trkpt lat="38.4267010" lon="-0.6457640">
        <ele>292.6</ele>
        <time>2018-03-30T07:04:11Z</time>
      </trkpt>
      <trkpt lat="38.4267550" lon="-0.6457460">
        <ele>292.7</ele>
        <time>2018-03-30T07:04:12Z</time>
      </trkpt>
      <trkpt lat="38.4268110" lon="-0.6457290">
        <ele>292.8</ele>
        <time>2018-03-30T07:04:13Z</time>
      </trkpt>
      <trkpt lat="38.4268670" lon="-0.6457150">
        <ele>292.9</ele>
        <time>2018-03-30T07:04:14Z</time>
      </trkpt>
      <trkpt lat="38.4269250" lon="-0.6457020">
        <ele>293.0</ele>
        <time>2018-03-30T07:04:15Z</time>
      </trkpt>
      <trkpt lat="38.4269810" lon="-0.6456880">
        <ele>293.0</ele>
        <time>2018-03-30T07:04:16Z</time>
      </trkpt>
      <trkpt lat="38.4270370" lon="-0.6456740">
        <ele>293.1</ele>
        <time>2018-03-30T07:04:17Z</time>
      </trkpt>
      <trkpt lat="38.4270920" lon="-0.6456600">
        <ele>293.2</ele>
        <time>2018-03-30T07:04:18Z</time>
      </trkpt>
      <trkpt lat="38.4271470" lon="-0.6456480">
        <ele>293.5</ele>
        <time>2018-03-30T07:04:19Z</time>
      </trkpt>
      <trkpt lat="38.4272030" lon="-0.6456350">
        <ele>293.6</ele>
        <time>2018-03-30T07:04:20Z</time>
      </trkpt>
      <trkpt lat="38.4272580" lon="-0.6456180">
        <ele>293.7</ele>
        <time>2018-03-30T07:04:21Z</time>
      </trkpt>
      <trkpt lat="38.4273110" lon="-0.6455990">
        <ele>293.8</ele>
        <time>2018-03-30T07:04:22Z</time>
      </trkpt>
      <trkpt lat="38.4273650" lon="-0.6455810">
        <ele>293.9</ele>
        <time>2018-03-30T07:04:23Z</time>
      </trkpt>
      <trkpt lat="38.4274160" lon="-0.6455590">
        <ele>294.0</ele>
        <time>2018-03-30T07:04:24Z</time>
      </trkpt>
      <trkpt lat="38.4274680" lon="-0.6455350">
        <ele>294.1</ele>
        <time>2018-03-30T07:04:25Z</time>
      </trkpt>
      <trkpt lat="38.4275200" lon="-0.6455100">
        <ele>294.3</ele>
        <time>2018-03-30T07:04:26Z</time>
      </trkpt>
      <trkpt lat="38.4275730" lon="-0.6454830">
        <ele>294.5</ele>
        <time>2018-03-30T07:04:27Z</time>
      </trkpt>
      <trkpt lat="38.4276250" lon="-0.6454570">
        <ele>294.6</ele>
        <time>2018-03-30T07:04:28Z</time>
      </trkpt>
      <trkpt lat="38.4276760" lon="-0.6454310">
        <ele>294.8</ele>
        <time>2018-03-30T07:04:29Z</time>
      </trkpt>
      <trkpt lat="38.4277290" lon="-0.6454060">
        <ele>294.9</ele>
        <time>2018-03-30T07:04:30Z</time>
      </trkpt>
      <trkpt lat="38.4277790" lon="-0.6453820">
        <ele>295.0</ele>
        <time>2018-03-30T07:04:31Z</time>
      </trkpt>
      <trkpt lat="38.4278300" lon="-0.6453540">
        <ele>295.1</ele>
        <time>2018-03-30T07:04:32Z</time>
      </trkpt>
      <trkpt lat="38.4278800" lon="-0.6453270">
        <ele>295.2</ele>
        <time>2018-03-30T07:04:33Z</time>
      </trkpt>
      <trkpt lat="38.4279300" lon="-0.6452990">
        <ele>295.4</ele>
        <time>2018-03-30T07:04:34Z</time>
      </trkpt>
      <trkpt lat="38.4279810" lon="-0.6452710">
        <ele>295.5</ele>
        <time>2018-03-30T07:04:35Z</time>
      </trkpt>
      <trkpt lat="38.4280280" lon="-0.6452420">
        <ele>295.6</ele>
        <time>2018-03-30T07:04:36Z</time>
      </trkpt>
      <trkpt lat="38.4280790" lon="-0.6452170">
        <ele>295.8</ele>
        <time>2018-03-30T07:04:37Z</time>
      </trkpt>
      <trkpt lat="38.4281280" lon="-0.6451920">
        <ele>295.9</ele>
        <time>2018-03-30T07:04:38Z</time>
      </trkpt>
      <trkpt lat="38.4281780" lon="-0.6451680">
        <ele>296.1</ele>
        <time>2018-03-30T07:04:39Z</time>
      </trkpt>
      <trkpt lat="38.4282300" lon="-0.6451490">
        <ele>296.2</ele>
        <time>2018-03-30T07:04:40Z</time>
      </trkpt>
      <trkpt lat="38.4282810" lon="-0.6451280">
        <ele>296.3</ele>
        <time>2018-03-30T07:04:41Z</time>
      </trkpt>
      <trkpt lat="38.4283330" lon="-0.6451140">
        <ele>296.4</ele>
        <time>2018-03-30T07:04:42Z</time>
      </trkpt>
      <trkpt lat="38.4283850" lon="-0.6451030">
        <ele>296.5</ele>
        <time>2018-03-30T07:04:43Z</time>
      </trkpt>
      <trkpt lat="38.4284360" lon="-0.6450940">
        <ele>296.6</ele>
        <time>2018-03-30T07:04:44Z</time>
      </trkpt>
      <trkpt lat="38.4284910" lon="-0.6450890">
        <ele>296.7</ele>
        <time>2018-03-30T07:04:45Z</time>
      </trkpt>
      <trkpt lat="38.4285410" lon="-0.6450850">
        <ele>296.8</ele>
        <time>2018-03-30T07:04:46Z</time>
      </trkpt>
      <trkpt lat="38.4285910" lon="-0.6450870">
        <ele>297.0</ele>
        <time>2018-03-30T07:04:47Z</time>
      </trkpt>
      <trkpt lat="38.4286420" lon="-0.6450880">
        <ele>297.2</ele>
        <time>2018-03-30T07:04:48Z</time>
      </trkpt>
      <trkpt lat="38.4286970" lon="-0.6450890">
        <ele>297.4</ele>
        <time>2018-03-30T07:04:49Z</time>
      </trkpt>
      <trkpt lat="38.4287460" lon="-0.6450830">
        <ele>297.6</ele>
        <time>2018-03-30T07:04:50Z</time>
      </trkpt>
      <trkpt lat="38.4288000" lon="-0.6450740">
        <ele>297.8</ele>
        <time>2018-03-30T07:04:51Z</time>
      </trkpt>
      <trkpt lat="38.4288580" lon="-0.6450660">
        <ele>298.1</ele>
        <time>2018-03-30T07:04:52Z</time>
      </trkpt>
      <trkpt lat="38.4289130" lon="-0.6450510">
        <ele>298.3</ele>
        <time>2018-03-30T07:04:53Z</time>
      </trkpt>
      <trkpt lat="38.4289670" lon="-0.6450340">
        <ele>298.6</ele>
        <time>2018-03-30T07:04:54Z</time>
      </trkpt>
      <trkpt lat="38.4290200" lon="-0.6450100">
        <ele>298.8</ele>
        <time>2018-03-30T07:04:55Z</time>
      </trkpt>
      <trkpt lat="38.4290720" lon="-0.6449810">
        <ele>299.0</ele>
        <time>2018-03-30T07:04:56Z</time>
      </trkpt>
      <trkpt lat="38.4291220" lon="-0.6449500">
        <ele>299.2</ele>
        <time>2018-03-30T07:04:57Z</time>
      </trkpt>
      <trkpt lat="38.4291690" lon="-0.6449180">
        <ele>299.5</ele>
        <time>2018-03-30T07:04:58Z</time>
      </trkpt>
      <trkpt lat="38.4292170" lon="-0.6448820">
        <ele>299.7</ele>
        <time>2018-03-30T07:04:59Z</time>
      </trkpt>
      <trkpt lat="38.4292640" lon="-0.6448460">
        <ele>299.8</ele>
        <time>2018-03-30T07:05:00Z</time>
      </trkpt>
      <trkpt lat="38.4293090" lon="-0.6448070">
        <ele>299.9</ele>
        <time>2018-03-30T07:05:01Z</time>
      </trkpt>
      <trkpt lat="38.4293540" lon="-0.6447690">
        <ele>300.0</ele>
        <time>2018-03-30T07:05:02Z</time>
      </trkpt>
      <trkpt lat="38.4293990" lon="-0.6447310">
        <ele>300.2</ele>
        <time>2018-03-30T07:05:03Z</time>
      </trkpt>
      <trkpt lat="38.4294450" lon="-0.6446950">
        <ele>300.3</ele>
        <time>2018-03-30T07:05:04Z</time>
      </trkpt>
      <trkpt lat="38.4294880" lon="-0.6446580">
        <ele>300.4</ele>
        <time>2018-03-30T07:05:05Z</time>
      </trkpt>
      <trkpt lat="38.4295320" lon="-0.6446210">
        <ele>300.5</ele>
        <time>2018-03-30T07:05:06Z</time>
      </trkpt>
      <trkpt lat="38.4295760" lon="-0.6445830">
        <ele>300.6</ele>
        <time>2018-03-30T07:05:07Z</time>
      </trkpt>
      <trkpt lat="38.4296200" lon="-0.6445450">
        <ele>300.7</ele>
        <time>2018-03-30T07:05:08Z</time>
      </trkpt>
      <trkpt lat="38.4296640" lon="-0.6445070">
        <ele>300.7</ele>
        <time>2018-03-30T07:05:09Z</time>
      </trkpt>
      <trkpt lat="38.4297080" lon="-0.6444690">
        <ele>300.8</ele>
        <time>2018-03-30T07:05:10Z</time>
      </trkpt>
      <trkpt lat="38.4297520" lon="-0.6444310">
        <ele>300.9</ele>
        <time>2018-03-30T07:05:11Z</time>
      </trkpt>
      <trkpt lat="38.4297980" lon="-0.6443940">
        <ele>301.0</ele>
        <time>2018-03-30T07:05:12Z</time>
      </trkpt>
      <trkpt lat="38.4298450" lon="-0.6443570">
        <ele>301.0</ele>
        <time>2018-03-30T07:05:13Z</time>
      </trkpt>
      <trkpt lat="38.4298930" lon="-0.6443200">
        <ele>301.1</ele>
        <time>2018-03-30T07:05:14Z</time>
      </trkpt>
      <trkpt lat="38.4299420" lon="-0.6442830">
        <ele>301.2</ele>
        <time>2018-03-30T07:05:15Z</time>
      </trkpt>
      <trkpt lat="38.4299910" lon="-0.6442460">
        <ele>301.3</ele>
        <time>2018-03-30T07:05:16Z</time>
      </trkpt>
      <trkpt lat="38.4300410" lon="-0.6442090">
        <ele>301.4</ele>
        <time>2018-03-30T07:05:17Z</time>
      </trkpt>
      <trkpt lat="38.4300910" lon="-0.6441710">
        <ele>301.4</ele>
        <time>2018-03-30T07:05:18Z</time>
      </trkpt>
      <trkpt lat="38.4301420" lon="-0.6441320">
        <ele>301.5</ele>
        <time>2018-03-30T07:05:19Z</time>
      </trkpt>
      <trkpt lat="38.4301910" lon="-0.6440900">
        <ele>301.5</ele>
        <time>2018-03-30T07:05:20Z</time>
      </trkpt>
      <trkpt lat="38.4302400" lon="-0.6440450">
        <ele>301.5</ele>
        <time>2018-03-30T07:05:21Z</time>
      </trkpt>
      <trkpt lat="38.4302890" lon="-0.6439980">
        <ele>301.6</ele>
        <time>2018-03-30T07:05:22Z</time>
      </trkpt>
      <trkpt lat="38.4303370" lon="-0.6439520">
        <ele>301.6</ele>
        <time>2018-03-30T07:05:23Z</time>
      </trkpt>
      <trkpt lat="38.4303870" lon="-0.6439080">
        <ele>301.6</ele>
        <time>2018-03-30T07:05:24Z</time>
      </trkpt>
      <trkpt lat="38.4304370" lon="-0.6438620">
        <ele>301.6</ele>
        <time>2018-03-30T07:05:25Z</time>
      </trkpt>
      <trkpt lat="38.4304860" lon="-0.6438150">
        <ele>301.6</ele>
        <time>2018-03-30T07:05:26Z</time>
      </trkpt>
      <trkpt lat="38.4305360" lon="-0.6437650">
        <ele>301.6</ele>
        <time>2018-03-30T07:05:27Z</time>
      </trkpt>
      <trkpt lat="38.4305870" lon="-0.6437160">
        <ele>301.6</ele>
        <time>2018-03-30T07:05:28Z</time>
      </trkpt>
      <trkpt lat="38.4306400" lon="-0.6436690">
        <ele>301.7</ele>
        <time>2018-03-30T07:05:29Z</time>
      </trkpt>
      <trkpt lat="38.4306930" lon="-0.6436210">
        <ele>301.7</ele>
        <time>2018-03-30T07:05:30Z</time>
      </trkpt>
      <trkpt lat="38.4307450" lon="-0.6435720">
        <ele>301.7</ele>
        <time>2018-03-30T07:05:31Z</time>
      </trkpt>
      <trkpt lat="38.4307980" lon="-0.6435250">
        <ele>301.7</ele>
        <time>2018-03-30T07:05:32Z</time>
      </trkpt>
      <trkpt lat="38.4308520" lon="-0.6434790">
        <ele>301.8</ele>
        <time>2018-03-30T07:05:33Z</time>
      </trkpt>
      <trkpt lat="38.4309060" lon="-0.6434360">
        <ele>301.8</ele>
        <time>2018-03-30T07:05:34Z</time>
      </trkpt>
      <trkpt lat="38.4309610" lon="-0.6433980">
        <ele>301.8</ele>
        <time>2018-03-30T07:05:35Z</time>
      </trkpt>
      <trkpt lat="38.4310190" lon="-0.6433630">
        <ele>301.9</ele>
        <time>2018-03-30T07:05:36Z</time>
      </trkpt>
      <trkpt lat="38.4310790" lon="-0.6433350">
        <ele>301.9</ele>
        <time>2018-03-30T07:05:37Z</time>
      </trkpt>
      <trkpt lat="38.4311420" lon="-0.6433100">
        <ele>302.0</ele>
        <time>2018-03-30T07:05:38Z</time>
      </trkpt>
      <trkpt lat="38.4312080" lon="-0.6432870">
        <ele>302.0</ele>
        <time>2018-03-30T07:05:39Z</time>
      </trkpt>
      <trkpt lat="38.4312720" lon="-0.6432670">
        <ele>302.1</ele>
        <time>2018-03-30T07:05:40Z</time>
      </trkpt>
      <trkpt lat="38.4313340" lon="-0.6432450">
        <ele>302.1</ele>
        <time>2018-03-30T07:05:41Z</time>
      </trkpt>
      <trkpt lat="38.4313940" lon="-0.6432250">
        <ele>302.1</ele>
        <time>2018-03-30T07:05:42Z</time>
      </trkpt>
      <trkpt lat="38.4314550" lon="-0.6432050">
        <ele>302.2</ele>
        <time>2018-03-30T07:05:43Z</time>
      </trkpt>
      <trkpt lat="38.4315160" lon="-0.6431850">
        <ele>302.2</ele>
        <time>2018-03-30T07:05:44Z</time>
      </trkpt>
      <trkpt lat="38.4315770" lon="-0.6431660">
        <ele>302.3</ele>
        <time>2018-03-30T07:05:45Z</time>
      </trkpt>
      <trkpt lat="38.4316380" lon="-0.6431460">
        <ele>302.3</ele>
        <time>2018-03-30T07:05:46Z</time>
      </trkpt>
      <trkpt lat="38.4316990" lon="-0.6431240">
        <ele>302.4</ele>
        <time>2018-03-30T07:05:47Z</time>
      </trkpt>
      <trkpt lat="38.4317600" lon="-0.6431010">
        <ele>302.4</ele>
        <time>2018-03-30T07:05:48Z</time>
      </trkpt>
      <trkpt lat="38.4318200" lon="-0.6430770">
        <ele>302.4</ele>
        <time>2018-03-30T07:05:49Z</time>
      </trkpt>
      <trkpt lat="38.4318800" lon="-0.6430530">
        <ele>302.5</ele>
        <time>2018-03-30T07:05:50Z</time>
      </trkpt>
      <trkpt lat="38.4319400" lon="-0.6430250">
        <ele>302.5</ele>
        <time>2018-03-30T07:05:51Z</time>
      </trkpt>
      <trkpt lat="38.4320000" lon="-0.6429990">
        <ele>302.5</ele>
        <time>2018-03-30T07:05:52Z</time>
      </trkpt>
      <trkpt lat="38.4320620" lon="-0.6429710">
        <ele>302.5</ele>
        <time>2018-03-30T07:05:53Z</time>
      </trkpt>
      <trkpt lat="38.4321210" lon="-0.6429430">
        <ele>302.5</ele>
        <time>2018-03-30T07:05:54Z</time>
      </trkpt>
      <trkpt lat="38.4321800" lon="-0.6429140">
        <ele>302.5</ele>
        <time>2018-03-30T07:05:55Z</time>
      </trkpt>
      <trkpt lat="38.4322400" lon="-0.6428860">
        <ele>302.5</ele>
        <time>2018-03-30T07:05:56Z</time>
      </trkpt>
      <trkpt lat="38.4323000" lon="-0.6428590">
        <ele>302.5</ele>
        <time>2018-03-30T07:05:57Z</time>
      </trkpt>
      <trkpt lat="38.4323610" lon="-0.6428290">
        <ele>302.5</ele>
        <time>2018-03-30T07:05:58Z</time>
      </trkpt>
      <trkpt lat="38.4324200" lon="-0.6427990">
        <ele>302.4</ele>
        <time>2018-03-30T07:05:59Z</time>
      </trkpt>
      <trkpt lat="38.4324810" lon="-0.6427660">
        <ele>302.4</ele>
        <time>2018-03-30T07:06:00Z</time>
      </trkpt>
      <trkpt lat="38.4325420" lon="-0.6427290">
        <ele>302.4</ele>
        <time>2018-03-30T07:06:01Z</time>
      </trkpt>
      <trkpt lat="38.4326000" lon="-0.6426860">
        <ele>302.4</ele>
        <time>2018-03-30T07:06:02Z</time>
      </trkpt>
      <trkpt lat="38.4326570" lon="-0.6426390">
        <ele>302.4</ele>
        <time>2018-03-30T07:06:03Z</time>
      </trkpt>
      <trkpt lat="38.4327130" lon="-0.6425860">
        <ele>302.4</ele>
        <time>2018-03-30T07:06:04Z</time>
      </trkpt>
      <trkpt lat="38.4327670" lon="-0.6425330">
        <ele>302.3</ele>
        <time>2018-03-30T07:06:05Z</time>
      </trkpt>
      <trkpt lat="38.4328230" lon="-0.6424780">
        <ele>302.2</ele>
        <time>2018-03-30T07:06:06Z</time>
      </trkpt>
      <trkpt lat="38.4328830" lon="-0.6424250">
        <ele>302.2</ele>
        <time>2018-03-30T07:06:07Z</time>
      </trkpt>
      <trkpt lat="38.4329420" lon="-0.6423750">
        <ele>302.1</ele>
        <time>2018-03-30T07:06:08Z</time>
      </trkpt>
      <trkpt lat="38.4330020" lon="-0.6423270">
        <ele>302.1</ele>
        <time>2018-03-30T07:06:09Z</time>
      </trkpt>
      <trkpt lat="38.4330620" lon="-0.6422820">
        <ele>302.1</ele>
        <time>2018-03-30T07:06:10Z</time>
      </trkpt>
      <trkpt lat="38.4331240" lon="-0.6422410">
        <ele>302.0</ele>
        <time>2018-03-30T07:06:11Z</time>
      </trkpt>
      <trkpt lat="38.4331860" lon="-0.6422030">
        <ele>302.0</ele>
        <time>2018-03-30T07:06:12Z</time>
      </trkpt>
      <trkpt lat="38.4332500" lon="-0.6421640">
        <ele>302.0</ele>
        <time>2018-03-30T07:06:13Z</time>
      </trkpt>
      <trkpt lat="38.4333160" lon="-0.6421250">
        <ele>301.9</ele>
        <time>2018-03-30T07:06:14Z</time>
      </trkpt>
      <trkpt lat="38.4333860" lon="-0.6420920">
        <ele>301.9</ele>
        <time>2018-03-30T07:06:15Z</time>
      </trkpt>
      <trkpt lat="38.4334550" lon="-0.6420650">
        <ele>301.9</ele>
        <time>2018-03-30T07:06:16Z</time>
      </trkpt>
      <trkpt lat="38.4335260" lon="-0.6420400">
        <ele>301.9</ele>
        <time>2018-03-30T07:06:17Z</time>
      </trkpt>
      <trkpt lat="38.4335960" lon="-0.6420140">
        <ele>301.9</ele>
        <time>2018-03-30T07:06:18Z</time>
      </trkpt>
      <trkpt lat="38.4336660" lon="-0.6419860">
        <ele>301.9</ele>
        <time>2018-03-30T07:06:19Z</time>
      </trkpt>
      <trkpt lat="38.4337370" lon="-0.6419590">
        <ele>301.9</ele>
        <time>2018-03-30T07:06:20Z</time>
      </trkpt>
      <trkpt lat="38.4338100" lon="-0.6419280">
        <ele>302.0</ele>
        <time>2018-03-30T07:06:21Z</time>
      </trkpt>
      <trkpt lat="38.4338820" lon="-0.6418990">
        <ele>302.1</ele>
        <time>2018-03-30T07:06:22Z</time>
      </trkpt>
      <trkpt lat="38.4339550" lon="-0.6418760">
        <ele>302.2</ele>
        <time>2018-03-30T07:06:23Z</time>
      </trkpt>
      <trkpt lat="38.4340270" lon="-0.6418470">
        <ele>302.3</ele>
        <time>2018-03-30T07:06:24Z</time>
      </trkpt>
      <trkpt lat="38.4340950" lon="-0.6418200">
        <ele>302.4</ele>
        <time>2018-03-30T07:06:25Z</time>
      </trkpt>
      <trkpt lat="38.4341550" lon="-0.6417920">
        <ele>302.5</ele>
        <time>2018-03-30T07:06:26Z</time>
      </trkpt>
      <trkpt lat="38.4342120" lon="-0.6417710">
        <ele>302.6</ele>
        <time>2018-03-30T07:06:27Z</time>
      </trkpt>
      <trkpt lat="38.4342680" lon="-0.6417540">
        <ele>302.8</ele>
        <time>2018-03-30T07:06:28Z</time>
      </trkpt>
      <trkpt lat="38.4343320" lon="-0.6417450">
        <ele>302.9</ele>
        <time>2018-03-30T07:06:29Z</time>
      </trkpt>
      <trkpt lat="38.4343970" lon="-0.6417420">
        <ele>303.0</ele>
        <time>2018-03-30T07:06:30Z</time>
      </trkpt>
      <trkpt lat="38.4344600" lon="-0.6417440">
        <ele>302.9</ele>
        <time>2018-03-30T07:06:31Z</time>
      </trkpt>
      <trkpt lat="38.4345210" lon="-0.6417450">
        <ele>302.8</ele>
        <time>2018-03-30T07:06:32Z</time>
      </trkpt>
      <trkpt lat="38.4345800" lon="-0.6417460">
        <ele>302.7</ele>
        <time>2018-03-30T07:06:33Z</time>
      </trkpt>
      <trkpt lat="38.4346400" lon="-0.6417450">
        <ele>302.5</ele>
        <time>2018-03-30T07:06:34Z</time>
      </trkpt>
      <trkpt lat="38.4346980" lon="-0.6417420">
        <ele>302.4</ele>
        <time>2018-03-30T07:06:35Z</time>
      </trkpt>
      <trkpt lat="38.4347560" lon="-0.6417380">
        <ele>302.4</ele>
        <time>2018-03-30T07:06:36Z</time>
      </trkpt>
      <trkpt lat="38.4348160" lon="-0.6417330">
        <ele>302.4</ele>
        <time>2018-03-30T07:06:37Z</time>
      </trkpt>
      <trkpt lat="38.4348750" lon="-0.6417290">
        <ele>302.3</ele>
        <time>2018-03-30T07:06:38Z</time>
      </trkpt>
      <trkpt lat="38.4349350" lon="-0.6417240">
        <ele>302.3</ele>
        <time>2018-03-30T07:06:39Z</time>
      </trkpt>
      <trkpt lat="38.4349920" lon="-0.6417140">
        <ele>302.2</ele>
        <time>2018-03-30T07:06:40Z</time>
      </trkpt>
      <trkpt lat="38.4350500" lon="-0.6416960">
        <ele>302.2</ele>
        <time>2018-03-30T07:06:41Z</time>
      </trkpt>
      <trkpt lat="38.4351080" lon="-0.6416710">
        <ele>302.1</ele>
        <time>2018-03-30T07:06:42Z</time>
      </trkpt>
      <trkpt lat="38.4351650" lon="-0.6416430">
        <ele>302.0</ele>
        <time>2018-03-30T07:06:43Z</time>
      </trkpt>
      <trkpt lat="38.4352220" lon="-0.6416140">
        <ele>301.9</ele>
        <time>2018-03-30T07:06:44Z</time>
      </trkpt>
      <trkpt lat="38.4352790" lon="-0.6415850">
        <ele>301.9</ele>
        <time>2018-03-30T07:06:45Z</time>
      </trkpt>
      <trkpt lat="38.4353360" lon="-0.6415530">
        <ele>301.8</ele>
        <time>2018-03-30T07:06:46Z</time>
      </trkpt>
      <trkpt lat="38.4353930" lon="-0.6415170">
        <ele>301.7</ele>
        <time>2018-03-30T07:06:47Z</time>
      </trkpt>
      <trkpt lat="38.4354510" lon="-0.6414820">
        <ele>301.6</ele>
        <time>2018-03-30T07:06:48Z</time>
      </trkpt>
      <trkpt lat="38.4355090" lon="-0.6414460">
        <ele>301.6</ele>
        <time>2018-03-30T07:06:49Z</time>
      </trkpt>
      <trkpt lat="38.4355680" lon="-0.6414120">
        <ele>301.5</ele>
        <time>2018-03-30T07:06:50Z</time>
      </trkpt>
      <trkpt lat="38.4356250" lon="-0.6413770">
        <ele>301.4</ele>
        <time>2018-03-30T07:06:51Z</time>
      </trkpt>
      <trkpt lat="38.4356820" lon="-0.6413430">
        <ele>301.3</ele>
        <time>2018-03-30T07:06:52Z</time>
      </trkpt>
      <trkpt lat="38.4357380" lon="-0.6413090">
        <ele>301.2</ele>
        <time>2018-03-30T07:06:53Z</time>
      </trkpt>
      <trkpt lat="38.4357940" lon="-0.6412760">
        <ele>301.1</ele>
        <time>2018-03-30T07:06:54Z</time>
      </trkpt>
      <trkpt lat="38.4358500" lon="-0.6412450">
        <ele>301.0</ele>
        <time>2018-03-30T07:06:55Z</time>
      </trkpt>
      <trkpt lat="38.4359050" lon="-0.6412150">
        <ele>301.0</ele>
        <time>2018-03-30T07:06:56Z</time>
      </trkpt>
      <trkpt lat="38.4359590" lon="-0.6411860">
        <ele>301.0</ele>
        <time>2018-03-30T07:06:57Z</time>
      </trkpt>
      <trkpt lat="38.4360140" lon="-0.6411570">
        <ele>301.0</ele>
        <time>2018-03-30T07:06:58Z</time>
      </trkpt>
      <trkpt lat="38.4360660" lon="-0.6411310">
        <ele>301.0</ele>
        <time>2018-03-30T07:06:59Z</time>
      </trkpt>
      <trkpt lat="38.4361160" lon="-0.6411030">
        <ele>301.0</ele>
        <time>2018-03-30T07:07:00Z</time>
      </trkpt>
      <trkpt lat="38.4361530" lon="-0.6410660">
        <ele>301.0</ele>
        <time>2018-03-30T07:07:01Z</time>
      </trkpt>
      <trkpt lat="38.4361860" lon="-0.6410230">
        <ele>300.7</ele>
        <time>2018-03-30T07:07:02Z</time>
      </trkpt>
      <trkpt lat="38.4362040" lon="-0.6409730">
        <ele>300.4</ele>
        <time>2018-03-30T07:07:03Z</time>
      </trkpt>
      <trkpt lat="38.4362180" lon="-0.6409200">
        <ele>300.0</ele>
        <time>2018-03-30T07:07:04Z</time>
      </trkpt>
      <trkpt lat="38.4362290" lon="-0.6408660">
        <ele>299.6</ele>
        <time>2018-03-30T07:07:05Z</time>
      </trkpt>
      <trkpt lat="38.4362410" lon="-0.6408080">
        <ele>299.3</ele>
        <time>2018-03-30T07:07:06Z</time>
      </trkpt>
      <trkpt lat="38.4362510" lon="-0.6407520">
        <ele>299.0</ele>
        <time>2018-03-30T07:07:07Z</time>
      </trkpt>
      <trkpt lat="38.4362550" lon="-0.6406930">
        <ele>299.0</ele>
        <time>2018-03-30T07:07:08Z</time>
      </trkpt>
      <trkpt lat="38.4362470" lon="-0.6406280">
        <ele>298.9</ele>
        <time>2018-03-30T07:07:09Z</time>
      </trkpt>
      <trkpt lat="38.4362460" lon="-0.6405620">
        <ele>298.9</ele>
        <time>2018-03-30T07:07:10Z</time>
      </trkpt>
      <trkpt lat="38.4362450" lon="-0.6404990">
        <ele>298.9</ele>
        <time>2018-03-30T07:07:11Z</time>
      </trkpt>
      <trkpt lat="38.4362430" lon="-0.6404380">
        <ele>298.9</ele>
        <time>2018-03-30T07:07:12Z</time>
      </trkpt>
      <trkpt lat="38.4362390" lon="-0.6403780">
        <ele>298.9</ele>
        <time>2018-03-30T07:07:13Z</time>
      </trkpt>
      <trkpt lat="38.4362360" lon="-0.6403180">
        <ele>298.9</ele>
        <time>2018-03-30T07:07:14Z</time>
      </trkpt>
      <trkpt lat="38.4362340" lon="-0.6402590">
        <ele>298.9</ele>
        <time>2018-03-30T07:07:15Z</time>
      </trkpt>
      <trkpt lat="38.4362360" lon="-0.6402000">
        <ele>299.0</ele>
        <time>2018-03-30T07:07:16Z</time>
      </trkpt>
      <trkpt lat="38.4362380" lon="-0.6401390">
        <ele>299.0</ele>
        <time>2018-03-30T07:07:17Z</time>
      </trkpt>
      <trkpt lat="38.4362400" lon="-0.6400790">
        <ele>299.2</ele>
        <time>2018-03-30T07:07:18Z</time>
      </trkpt>
      <trkpt lat="38.4362400" lon="-0.6400190">
        <ele>299.6</ele>
        <time>2018-03-30T07:07:19Z</time>
      </trkpt>
      <trkpt lat="38.4362400" lon="-0.6399600">
        <ele>299.9</ele>
        <time>2018-03-30T07:07:20Z</time>
      </trkpt>
      <trkpt lat="38.4362420" lon="-0.6399010">
        <ele>300.2</ele>
        <time>2018-03-30T07:07:21Z</time>
      </trkpt>
      <trkpt lat="38.4362440" lon="-0.6398400">
        <ele>300.5</ele>
        <time>2018-03-30T07:07:22Z</time>
      </trkpt>
      <trkpt lat="38.4362460" lon="-0.6397780">
        <ele>300.9</ele>
        <time>2018-03-30T07:07:23Z</time>
      </trkpt>
      <trkpt lat="38.4362460" lon="-0.6397180">
        <ele>301.1</ele>
        <time>2018-03-30T07:07:24Z</time>
      </trkpt>
      <trkpt lat="38.4362460" lon="-0.6396580">
        <ele>301.4</ele>
        <time>2018-03-30T07:07:25Z</time>
      </trkpt>
      <trkpt lat="38.4362480" lon="-0.6396000">
        <ele>301.6</ele>
        <time>2018-03-30T07:07:26Z</time>
      </trkpt>
      <trkpt lat="38.4362490" lon="-0.6395420">
        <ele>301.9</ele>
        <time>2018-03-30T07:07:27Z</time>
      </trkpt>
      <trkpt lat="38.4362500" lon="-0.6394830">
        <ele>302.1</ele>
        <time>2018-03-30T07:07:28Z</time>
      </trkpt>
      <trkpt lat="38.4362510" lon="-0.6394270">
        <ele>302.3</ele>
        <time>2018-03-30T07:07:29Z</time>
      </trkpt>
      <trkpt lat="38.4362520" lon="-0.6393720">
        <ele>302.4</ele>
        <time>2018-03-30T07:07:30Z</time>
      </trkpt>
      <trkpt lat="38.4362520" lon="-0.6393180">
        <ele>302.6</ele>
        <time>2018-03-30T07:07:31Z</time>
      </trkpt>
      <trkpt lat="38.4362540" lon="-0.6392650">
        <ele>302.7</ele>
        <time>2018-03-30T07:07:32Z</time>
      </trkpt>
      <trkpt lat="38.4362560" lon="-0.6392110">
        <ele>302.8</ele>
        <time>2018-03-30T07:07:33Z</time>
      </trkpt>
      <trkpt lat="38.4362550" lon="-0.6391570">
        <ele>303.0</ele>
        <time>2018-03-30T07:07:34Z</time>
      </trkpt>
      <trkpt lat="38.4362550" lon="-0.6391010">
        <ele>303.2</ele>
        <time>2018-03-30T07:07:35Z</time>
      </trkpt>
      <trkpt lat="38.4362540" lon="-0.6390450">
        <ele>303.4</ele>
        <time>2018-03-30T07:07:36Z</time>
      </trkpt>
      <trkpt lat="38.4362520" lon="-0.6389910">
        <ele>303.5</ele>
        <time>2018-03-30T07:07:37Z</time>
      </trkpt>
      <trkpt lat="38.4362500" lon="-0.6389370">
        <ele>303.8</ele>
        <time>2018-03-30T07:07:38Z</time>
      </trkpt>
      <trkpt lat="38.4362500" lon="-0.6388810">
        <ele>304.0</ele>
        <time>2018-03-30T07:07:39Z</time>
      </trkpt>
      <trkpt lat="38.4362480" lon="-0.6388260">
        <ele>304.3</ele>
        <time>2018-03-30T07:07:40Z</time>
      </trkpt>
      <trkpt lat="38.4362470" lon="-0.6387720">
        <ele>304.6</ele>
        <time>2018-03-30T07:07:41Z</time>
      </trkpt>
      <trkpt lat="38.4362450" lon="-0.6387170">
        <ele>304.9</ele>
        <time>2018-03-30T07:07:42Z</time>
      </trkpt>
      <trkpt lat="38.4362430" lon="-0.6386620">
        <ele>305.3</ele>
        <time>2018-03-30T07:07:43Z</time>
      </trkpt>
      <trkpt lat="38.4362420" lon="-0.6386070">
        <ele>305.6</ele>
        <time>2018-03-30T07:07:44Z</time>
      </trkpt>
      <trkpt lat="38.4362400" lon="-0.6385510">
        <ele>306.0</ele>
        <time>2018-03-30T07:07:45Z</time>
      </trkpt>
      <trkpt lat="38.4362320" lon="-0.6384940">
        <ele>306.0</ele>
        <time>2018-03-30T07:07:46Z</time>
      </trkpt>
      <trkpt lat="38.4362240" lon="-0.6384370">
        <ele>306.0</ele>
        <time>2018-03-30T07:07:47Z</time>
      </trkpt>
      <trkpt lat="38.4362170" lon="-0.6383790">
        <ele>306.0</ele>
        <time>2018-03-30T07:07:48Z</time>
      </trkpt>
      <trkpt lat="38.4362230" lon="-0.6383170">
        <ele>307.6</ele>
        <time>2018-03-30T07:07:49Z</time>
      </trkpt>
      <trkpt lat="38.4362340" lon="-0.6382690">
        <ele>309.0</ele>
        <time>2018-03-30T07:07:50Z</time>
      </trkpt>
      <trkpt lat="38.4362500" lon="-0.6382410">
        <ele>309.0</ele>
        <time>2018-03-30T07:07:51Z</time>
      </trkpt>
      <trkpt lat="38.4362860" lon="-0.6382630">
        <ele>309.0</ele>
        <time>2018-03-30T07:07:52Z</time>
      </trkpt>
      <trkpt lat="38.4363150" lon="-0.6382970">
        <ele>309.0</ele>
        <time>2018-03-30T07:07:53Z</time>
      </trkpt>
      <trkpt lat="38.4363400" lon="-0.6383410">
        <ele>309.1</ele>
        <time>2018-03-30T07:07:54Z</time>
      </trkpt>
      <trkpt lat="38.4363680" lon="-0.6383850">
        <ele>309.5</ele>
        <time>2018-03-30T07:07:55Z</time>
      </trkpt>
      <trkpt lat="38.4363950" lon="-0.6384330">
        <ele>309.9</ele>
        <time>2018-03-30T07:07:56Z</time>
      </trkpt>
      <trkpt lat="38.4364200" lon="-0.6384750">
        <ele>310.3</ele>
        <time>2018-03-30T07:07:57Z</time>
      </trkpt>
      <trkpt lat="38.4364560" lon="-0.6385100">
        <ele>310.8</ele>
        <time>2018-03-30T07:07:58Z</time>
      </trkpt>
      <trkpt lat="38.4364900" lon="-0.6385430">
        <ele>311.2</ele>
        <time>2018-03-30T07:07:59Z</time>
      </trkpt>
      <trkpt lat="38.4365210" lon="-0.6385760">
        <ele>311.5</ele>
        <time>2018-03-30T07:08:00Z</time>
      </trkpt>
      <trkpt lat="38.4365550" lon="-0.6385990">
        <ele>311.9</ele>
        <time>2018-03-30T07:08:01Z</time>
      </trkpt>
      <trkpt lat="38.4365930" lon="-0.6386220">
        <ele>312.3</ele>
        <time>2018-03-30T07:08:02Z</time>
      </trkpt>
      <trkpt lat="38.4366330" lon="-0.6386510">
        <ele>312.7</ele>
        <time>2018-03-30T07:08:03Z</time>
      </trkpt>
      <trkpt lat="38.4366730" lon="-0.6386760">
        <ele>313.0</ele>
        <time>2018-03-30T07:08:04Z</time>
      </trkpt>
      <trkpt lat="38.4367060" lon="-0.6387050">
        <ele>313.0</ele>
        <time>2018-03-30T07:08:05Z</time>
      </trkpt>
      <trkpt lat="38.4367520" lon="-0.6387240">
        <ele>313.0</ele>
        <time>2018-03-30T07:08:06Z</time>
      </trkpt>
      <trkpt lat="38.4368020" lon="-0.6387410">
        <ele>313.0</ele>
        <time>2018-03-30T07:08:07Z</time>
      </trkpt>
      <trkpt lat="38.4368570" lon="-0.6387600">
        <ele>313.0</ele>
        <time>2018-03-30T07:08:08Z</time>
      </trkpt>
      <trkpt lat="38.4369140" lon="-0.6387850">
        <ele>313.0</ele>
        <time>2018-03-30T07:08:09Z</time>
      </trkpt>
      <trkpt lat="38.4369580" lon="-0.6388110">
        <ele>312.6</ele>
        <time>2018-03-30T07:08:10Z</time>
      </trkpt>
      <trkpt lat="38.4370020" lon="-0.6388400">
        <ele>311.6</ele>
        <time>2018-03-30T07:08:11Z</time>
      </trkpt>
      <trkpt lat="38.4370420" lon="-0.6388710">
        <ele>310.7</ele>
        <time>2018-03-30T07:08:12Z</time>
      </trkpt>
      <trkpt lat="38.4370780" lon="-0.6389080">
        <ele>310.0</ele>
        <time>2018-03-30T07:08:13Z</time>
      </trkpt>
      <trkpt lat="38.4371170" lon="-0.6389440">
        <ele>309.4</ele>
        <time>2018-03-30T07:08:14Z</time>
      </trkpt>
      <trkpt lat="38.4371550" lon="-0.6389800">
        <ele>308.8</ele>
        <time>2018-03-30T07:08:15Z</time>
      </trkpt>
      <trkpt lat="38.4371930" lon="-0.6390160">
        <ele>308.2</ele>
        <time>2018-03-30T07:08:16Z</time>
      </trkpt>
      <trkpt lat="38.4372270" lon="-0.6390550">
        <ele>307.5</ele>
        <time>2018-03-30T07:08:17Z</time>
      </trkpt>
      <trkpt lat="38.4372640" lon="-0.6390870">
        <ele>306.5</ele>
        <time>2018-03-30T07:08:18Z</time>
      </trkpt>
      <trkpt lat="38.4372990" lon="-0.6391200">
        <ele>306.0</ele>
        <time>2018-03-30T07:08:19Z</time>
      </trkpt>
      <trkpt lat="38.4373290" lon="-0.6391540">
        <ele>306.0</ele>
        <time>2018-03-30T07:08:20Z</time>
      </trkpt>
      <trkpt lat="38.4373680" lon="-0.6391890">
        <ele>306.4</ele>
        <time>2018-03-30T07:08:21Z</time>
      </trkpt>
      <trkpt lat="38.4374130" lon="-0.6392190">
        <ele>307.2</ele>
        <time>2018-03-30T07:08:22Z</time>
      </trkpt>
      <trkpt lat="38.4374500" lon="-0.6392530">
        <ele>307.7</ele>
        <time>2018-03-30T07:08:23Z</time>
      </trkpt>
      <trkpt lat="38.4374880" lon="-0.6392900">
        <ele>308.3</ele>
        <time>2018-03-30T07:08:24Z</time>
      </trkpt>
      <trkpt lat="38.4375280" lon="-0.6393240">
        <ele>308.8</ele>
        <time>2018-03-30T07:08:25Z</time>
      </trkpt>
      <trkpt lat="38.4375650" lon="-0.6393580">
        <ele>309.2</ele>
        <time>2018-03-30T07:08:26Z</time>
      </trkpt>
      <trkpt lat="38.4376010" lon="-0.6393950">
        <ele>309.6</ele>
        <time>2018-03-30T07:08:27Z</time>
      </trkpt>
      <trkpt lat="38.4376340" lon="-0.6394360">
        <ele>309.9</ele>
        <time>2018-03-30T07:08:28Z</time>
      </trkpt>
      <trkpt lat="38.4376690" lon="-0.6394730">
        <ele>310.2</ele>
        <time>2018-03-30T07:08:29Z</time>
      </trkpt>
      <trkpt lat="38.4377040" lon="-0.6395030">
        <ele>310.5</ele>
        <time>2018-03-30T07:08:30Z</time>
      </trkpt>
      <trkpt lat="38.4377320" lon="-0.6395340">
        <ele>310.7</ele>
        <time>2018-03-30T07:08:31Z</time>
      </trkpt>
      <trkpt lat="38.4377660" lon="-0.6395630">
        <ele>311.0</ele>
        <time>2018-03-30T07:08:32Z</time>
      </trkpt>
      <trkpt lat="38.4377970" lon="-0.6395940">
        <ele>311.3</ele>
        <time>2018-03-30T07:08:33Z</time>
      </trkpt>
      <trkpt lat="38.4378350" lon="-0.6396230">
        <ele>311.6</ele>
        <time>2018-03-30T07:08:34Z</time>
      </trkpt>
      <trkpt lat="38.4378430" lon="-0.6396410">
        <ele>311.7</ele>
        <time>2018-03-30T07:08:35Z</time>
      </trkpt>
      <trkpt lat="38.4378660" lon="-0.6396720">
        <ele>311.9</ele>
        <time>2018-03-30T07:08:36Z</time>
      </trkpt>
      <trkpt lat="38.4378970" lon="-0.6396960">
        <ele>312.0</ele>
        <time>2018-03-30T07:08:37Z</time>
      </trkpt>
      <trkpt lat="38.4379310" lon="-0.6397140">
        <ele>312.0</ele>
        <time>2018-03-30T07:08:38Z</time>
      </trkpt>
      <trkpt lat="38.4379590" lon="-0.6397260">
        <ele>312.0</ele>
        <time>2018-03-30T07:08:39Z</time>
      </trkpt>
      <trkpt lat="38.4380110" lon="-0.6397370">
        <ele>312.0</ele>
        <time>2018-03-30T07:08:40Z</time>
      </trkpt>
      <trkpt lat="38.4380760" lon="-0.6397410">
        <ele>312.0</ele>
        <time>2018-03-30T07:08:41Z</time>
      </trkpt>
      <trkpt lat="38.4381230" lon="-0.6397510">
        <ele>312.0</ele>
        <time>2018-03-30T07:08:42Z</time>
      </trkpt>
      <trkpt lat="38.4381630" lon="-0.6397640">
        <ele>312.0</ele>
        <time>2018-03-30T07:08:43Z</time>
      </trkpt>
      <trkpt lat="38.4382040" lon="-0.6397740">
        <ele>312.1</ele>
        <time>2018-03-30T07:08:44Z</time>
      </trkpt>
      <trkpt lat="38.4382410" lon="-0.6397840">
        <ele>312.2</ele>
        <time>2018-03-30T07:08:45Z</time>
      </trkpt>
      <trkpt lat="38.4382820" lon="-0.6397920">
        <ele>312.2</ele>
        <time>2018-03-30T07:08:46Z</time>
      </trkpt>
      <trkpt lat="38.4383280" lon="-0.6398000">
        <ele>312.3</ele>
        <time>2018-03-30T07:08:47Z</time>
      </trkpt>
      <trkpt lat="38.4383780" lon="-0.6398110">
        <ele>312.4</ele>
        <time>2018-03-30T07:08:48Z</time>
      </trkpt>
      <trkpt lat="38.4384200" lon="-0.6398190">
        <ele>312.5</ele>
        <time>2018-03-30T07:08:49Z</time>
      </trkpt>
      <trkpt lat="38.4384610" lon="-0.6398280">
        <ele>312.7</ele>
        <time>2018-03-30T07:08:50Z</time>
      </trkpt>
      <trkpt lat="38.4385060" lon="-0.6398340">
        <ele>312.8</ele>
        <time>2018-03-30T07:08:51Z</time>
      </trkpt>
      <trkpt lat="38.4385660" lon="-0.6398380">
        <ele>312.9</ele>
        <time>2018-03-30T07:08:52Z</time>
      </trkpt>
      <trkpt lat="38.4386530" lon="-0.6398210">
        <ele>313.1</ele>
        <time>2018-03-30T07:08:53Z</time>
      </trkpt>
      <trkpt lat="38.4387030" lon="-0.6398260">
        <ele>313.2</ele>
        <time>2018-03-30T07:08:54Z</time>
      </trkpt>
      <trkpt lat="38.4387510" lon="-0.6398330">
        <ele>313.4</ele>
        <time>2018-03-30T07:08:55Z</time>
      </trkpt>
      <trkpt lat="38.4388000" lon="-0.6398380">
        <ele>313.6</ele>
        <time>2018-03-30T07:08:56Z</time>
      </trkpt>
      <trkpt lat="38.4388480" lon="-0.6398450">
        <ele>313.7</ele>
        <time>2018-03-30T07:08:57Z</time>
      </trkpt>
      <trkpt lat="38.4388940" lon="-0.6398510">
        <ele>313.9</ele>
        <time>2018-03-30T07:08:58Z</time>
      </trkpt>
      <trkpt lat="38.4389720" lon="-0.6398370">
        <ele>314.2</ele>
        <time>2018-03-30T07:08:59Z</time>
      </trkpt>
      <trkpt lat="38.4390500" lon="-0.6398280">
        <ele>314.5</ele>
        <time>2018-03-30T07:09:00Z</time>
      </trkpt>
      <trkpt lat="38.4391050" lon="-0.6398320">
        <ele>314.6</ele>
        <time>2018-03-30T07:09:01Z</time>
      </trkpt>
      <trkpt lat="38.4391630" lon="-0.6398330">
        <ele>314.8</ele>
        <time>2018-03-30T07:09:02Z</time>
      </trkpt>
      <trkpt lat="38.4392190" lon="-0.6398350">
        <ele>315.0</ele>
        <time>2018-03-30T07:09:03Z</time>
      </trkpt>
      <trkpt lat="38.4392620" lon="-0.6398570">
        <ele>315.3</ele>
        <time>2018-03-30T07:09:04Z</time>
      </trkpt>
      <trkpt lat="38.4393140" lon="-0.6398640">
        <ele>315.7</ele>
        <time>2018-03-30T07:09:05Z</time>
      </trkpt>
      <trkpt lat="38.4393610" lon="-0.6398760">
        <ele>316.1</ele>
        <time>2018-03-30T07:09:06Z</time>
      </trkpt>
      <trkpt lat="38.4394110" lon="-0.6398830">
        <ele>316.6</ele>
        <time>2018-03-30T07:09:07Z</time>
      </trkpt>
      <trkpt lat="38.4394590" lon="-0.6398910">
        <ele>317.0</ele>
        <time>2018-03-30T07:09:08Z</time>
      </trkpt>
      <trkpt lat="38.4395040" lon="-0.6398930">
        <ele>317.5</ele>
        <time>2018-03-30T07:09:09Z</time>
      </trkpt>
      <trkpt lat="38.4395540" lon="-0.6398970">
        <ele>317.9</ele>
        <time>2018-03-30T07:09:10Z</time>
      </trkpt>
      <trkpt lat="38.4396070" lon="-0.6398930">
        <ele>318.3</ele>
        <time>2018-03-30T07:09:11Z</time>
      </trkpt>
      <trkpt lat="38.4396580" lon="-0.6398930">
        <ele>318.7</ele>
        <time>2018-03-30T07:09:12Z</time>
      </trkpt>
      <trkpt lat="38.4396880" lon="-0.6399120">
        <ele>318.9</ele>
        <time>2018-03-30T07:09:13Z</time>
      </trkpt>
      <trkpt lat="38.4397280" lon="-0.6399270">
        <ele>319.0</ele>
        <time>2018-03-30T07:09:14Z</time>
      </trkpt>
      <trkpt lat="38.4397800" lon="-0.6399300">
        <ele>319.0</ele>
        <time>2018-03-30T07:09:15Z</time>
      </trkpt>
      <trkpt lat="38.4398340" lon="-0.6399290">
        <ele>319.0</ele>
        <time>2018-03-30T07:09:16Z</time>
      </trkpt>
      <trkpt lat="38.4398800" lon="-0.6399290">
        <ele>320.5</ele>
        <time>2018-03-30T07:09:17Z</time>
      </trkpt>
      <trkpt lat="38.4399280" lon="-0.6399270">
        <ele>322.1</ele>
        <time>2018-03-30T07:09:18Z</time>
      </trkpt>
      <trkpt lat="38.4399690" lon="-0.6399250">
        <ele>323.5</ele>
        <time>2018-03-30T07:09:19Z</time>
      </trkpt>
      <trkpt lat="38.4400120" lon="-0.6399250">
        <ele>324.9</ele>
        <time>2018-03-30T07:09:20Z</time>
      </trkpt>
      <trkpt lat="38.4400510" lon="-0.6399230">
        <ele>325.0</ele>
        <time>2018-03-30T07:09:21Z</time>
      </trkpt>
      <trkpt lat="38.4400920" lon="-0.6399180">
        <ele>325.0</ele>
        <time>2018-03-30T07:09:22Z</time>
      </trkpt>
      <trkpt lat="38.4401240" lon="-0.6399150">
        <ele>325.0</ele>
        <time>2018-03-30T07:09:23Z</time>
      </trkpt>
      <trkpt lat="38.4401700" lon="-0.6399040">
        <ele>325.1</ele>
        <time>2018-03-30T07:09:24Z</time>
      </trkpt>
      <trkpt lat="38.4402100" lon="-0.6398950">
        <ele>325.1</ele>
        <time>2018-03-30T07:09:25Z</time>
      </trkpt>
      <trkpt lat="38.4402510" lon="-0.6398850">
        <ele>325.1</ele>
        <time>2018-03-30T07:09:26Z</time>
      </trkpt>
      <trkpt lat="38.4402850" lon="-0.6398790">
        <ele>325.1</ele>
        <time>2018-03-30T07:09:27Z</time>
      </trkpt>
      <trkpt lat="38.4403180" lon="-0.6398710">
        <ele>325.1</ele>
        <time>2018-03-30T07:09:28Z</time>
      </trkpt>
      <trkpt lat="38.4403500" lon="-0.6398600">
        <ele>325.1</ele>
        <time>2018-03-30T07:09:29Z</time>
      </trkpt>
      <trkpt lat="38.4403870" lon="-0.6398480">
        <ele>325.1</ele>
        <time>2018-03-30T07:09:30Z</time>
      </trkpt>
      <trkpt lat="38.4404240" lon="-0.6398340">
        <ele>325.1</ele>
        <time>2018-03-30T07:09:31Z</time>
      </trkpt>
      <trkpt lat="38.4404550" lon="-0.6398210">
        <ele>325.1</ele>
        <time>2018-03-30T07:09:32Z</time>
      </trkpt>
      <trkpt lat="38.4404830" lon="-0.6398120">
        <ele>325.1</ele>
        <time>2018-03-30T07:09:33Z</time>
      </trkpt>
      <trkpt lat="38.4405120" lon="-0.6398010">
        <ele>325.0</ele>
        <time>2018-03-30T07:09:34Z</time>
      </trkpt>
      <trkpt lat="38.4405460" lon="-0.6397910">
        <ele>325.0</ele>
        <time>2018-03-30T07:09:35Z</time>
      </trkpt>
      <trkpt lat="38.4405830" lon="-0.6397760">
        <ele>325.0</ele>
        <time>2018-03-30T07:09:36Z</time>
      </trkpt>
      <trkpt lat="38.4406190" lon="-0.6397610">
        <ele>325.0</ele>
        <time>2018-03-30T07:09:37Z</time>
      </trkpt>
      <trkpt lat="38.4406530" lon="-0.6397450">
        <ele>325.0</ele>
        <time>2018-03-30T07:09:38Z</time>
      </trkpt>
      <trkpt lat="38.4406880" lon="-0.6397310">
        <ele>325.0</ele>
        <time>2018-03-30T07:09:39Z</time>
      </trkpt>
      <trkpt lat="38.4407200" lon="-0.6397210">
        <ele>325.0</ele>
        <time>2018-03-30T07:09:40Z</time>
      </trkpt>
      <trkpt lat="38.4407590" lon="-0.6397080">
        <ele>325.1</ele>
        <time>2018-03-30T07:09:41Z</time>
      </trkpt>
      <trkpt lat="38.4407980" lon="-0.6396920">
        <ele>325.2</ele>
        <time>2018-03-30T07:09:42Z</time>
      </trkpt>
      <trkpt lat="38.4408330" lon="-0.6396780">
        <ele>325.3</ele>
        <time>2018-03-30T07:09:43Z</time>
      </trkpt>
      <trkpt lat="38.4408700" lon="-0.6396640">
        <ele>325.3</ele>
        <time>2018-03-30T07:09:44Z</time>
      </trkpt>
      <trkpt lat="38.4409030" lon="-0.6396520">
        <ele>325.4</ele>
        <time>2018-03-30T07:09:45Z</time>
      </trkpt>
      <trkpt lat="38.4409370" lon="-0.6396400">
        <ele>325.5</ele>
        <time>2018-03-30T07:09:46Z</time>
      </trkpt>
      <trkpt lat="38.4409730" lon="-0.6396260">
        <ele>325.6</ele>
        <time>2018-03-30T07:09:47Z</time>
      </trkpt>
      <trkpt lat="38.4410090" lon="-0.6396110">
        <ele>325.6</ele>
        <time>2018-03-30T07:09:48Z</time>
      </trkpt>
      <trkpt lat="38.4410400" lon="-0.6396000">
        <ele>325.7</ele>
        <time>2018-03-30T07:09:49Z</time>
      </trkpt>
      <trkpt lat="38.4410700" lon="-0.6395900">
        <ele>325.7</ele>
        <time>2018-03-30T07:09:50Z</time>
      </trkpt>
      <trkpt lat="38.4411000" lon="-0.6395870">
        <ele>325.8</ele>
        <time>2018-03-30T07:09:51Z</time>
      </trkpt>
      <trkpt lat="38.4411200" lon="-0.6395910">
        <ele>325.8</ele>
        <time>2018-03-30T07:09:52Z</time>
      </trkpt>
      <trkpt lat="38.4411490" lon="-0.6395900">
        <ele>325.9</ele>
        <time>2018-03-30T07:09:53Z</time>
      </trkpt>
      <trkpt lat="38.4411900" lon="-0.6395730">
        <ele>325.9</ele>
        <time>2018-03-30T07:09:54Z</time>
      </trkpt>
      <trkpt lat="38.4412300" lon="-0.6395550">
        <ele>326.0</ele>
        <time>2018-03-30T07:09:55Z</time>
      </trkpt>
      <trkpt lat="38.4412660" lon="-0.6395390">
        <ele>326.0</ele>
        <time>2018-03-30T07:09:56Z</time>
      </trkpt>
      <trkpt lat="38.4413070" lon="-0.6395170">
        <ele>326.0</ele>
        <time>2018-03-30T07:09:57Z</time>
      </trkpt>
      <trkpt lat="38.4413520" lon="-0.6394880">
        <ele>326.0</ele>
        <time>2018-03-30T07:09:58Z</time>
      </trkpt>
      <trkpt lat="38.4413920" lon="-0.6394550">
        <ele>326.0</ele>
        <time>2018-03-30T07:09:59Z</time>
      </trkpt>
      <trkpt lat="38.4414290" lon="-0.6394280">
        <ele>326.0</ele>
        <time>2018-03-30T07:10:00Z</time>
      </trkpt>
      <trkpt lat="38.4414590" lon="-0.6394020">
        <ele>326.0</ele>
        <time>2018-03-30T07:10:01Z</time>
      </trkpt>
      <trkpt lat="38.4414940" lon="-0.6393750">
        <ele>326.0</ele>
        <time>2018-03-30T07:10:02Z</time>
      </trkpt>
      <trkpt lat="38.4415310" lon="-0.6393470">
        <ele>326.2</ele>
        <time>2018-03-30T07:10:03Z</time>
      </trkpt>
      <trkpt lat="38.4415650" lon="-0.6393210">
        <ele>326.4</ele>
        <time>2018-03-30T07:10:04Z</time>
      </trkpt>
      <trkpt lat="38.4416010" lon="-0.6392930">
        <ele>326.5</ele>
        <time>2018-03-30T07:10:05Z</time>
      </trkpt>
      <trkpt lat="38.4416300" lon="-0.6392680">
        <ele>326.6</ele>
        <time>2018-03-30T07:10:06Z</time>
      </trkpt>
      <trkpt lat="38.4416610" lon="-0.6392430">
        <ele>326.6</ele>
        <time>2018-03-30T07:10:07Z</time>
      </trkpt>
      <trkpt lat="38.4416890" lon="-0.6392210">
        <ele>326.7</ele>
        <time>2018-03-30T07:10:08Z</time>
      </trkpt>
      <trkpt lat="38.4417160" lon="-0.6391960">
        <ele>326.8</ele>
        <time>2018-03-30T07:10:09Z</time>
      </trkpt>
      <trkpt lat="38.4417470" lon="-0.6391740">
        <ele>326.9</ele>
        <time>2018-03-30T07:10:10Z</time>
      </trkpt>
      <trkpt lat="38.4417750" lon="-0.6391490">
        <ele>327.0</ele>
        <time>2018-03-30T07:10:11Z</time>
      </trkpt>
      <trkpt lat="38.4418080" lon="-0.6391250">
        <ele>327.1</ele>
        <time>2018-03-30T07:10:12Z</time>
      </trkpt>
      <trkpt lat="38.4418460" lon="-0.6390920">
        <ele>327.3</ele>
        <time>2018-03-30T07:10:13Z</time>
      </trkpt>
      <trkpt lat="38.4418730" lon="-0.6390690">
        <ele>327.5</ele>
        <time>2018-03-30T07:10:14Z</time>
      </trkpt>
      <trkpt lat="38.4419010" lon="-0.6390450">
        <ele>327.8</ele>
        <time>2018-03-30T07:10:15Z</time>
      </trkpt>
      <trkpt lat="38.4419290" lon="-0.6390190">
        <ele>328.1</ele>
        <time>2018-03-30T07:10:16Z</time>
      </trkpt>
      <trkpt lat="38.4419570" lon="-0.6389950">
        <ele>328.4</ele>
        <time>2018-03-30T07:10:17Z</time>
      </trkpt>
      <trkpt lat="38.4419910" lon="-0.6389690">
        <ele>328.6</ele>
        <time>2018-03-30T07:10:18Z</time>
      </trkpt>
      <trkpt lat="38.4420410" lon="-0.6389350">
        <ele>328.9</ele>
        <time>2018-03-30T07:10:19Z</time>
      </trkpt>
      <trkpt lat="38.4420790" lon="-0.6389060">
        <ele>329.0</ele>
        <time>2018-03-30T07:10:20Z</time>
      </trkpt>
      <trkpt lat="38.4421140" lon="-0.6388760">
        <ele>329.2</ele>
        <time>2018-03-30T07:10:21Z</time>
      </trkpt>
      <trkpt lat="38.4421450" lon="-0.6388520">
        <ele>329.3</ele>
        <time>2018-03-30T07:10:22Z</time>
      </trkpt>
      <trkpt lat="38.4421760" lon="-0.6388240">
        <ele>329.5</ele>
        <time>2018-03-30T07:10:23Z</time>
      </trkpt>
      <trkpt lat="38.4422110" lon="-0.6387940">
        <ele>329.6</ele>
        <time>2018-03-30T07:10:24Z</time>
      </trkpt>
      <trkpt lat="38.4422530" lon="-0.6387640">
        <ele>329.8</ele>
        <time>2018-03-30T07:10:25Z</time>
      </trkpt>
      <trkpt lat="38.4422870" lon="-0.6387350">
        <ele>329.9</ele>
        <time>2018-03-30T07:10:26Z</time>
      </trkpt>
      <trkpt lat="38.4423210" lon="-0.6387030">
        <ele>330.2</ele>
        <time>2018-03-30T07:10:27Z</time>
      </trkpt>
      <trkpt lat="38.4423560" lon="-0.6386780">
        <ele>330.5</ele>
        <time>2018-03-30T07:10:28Z</time>
      </trkpt>
      <trkpt lat="38.4423940" lon="-0.6386540">
        <ele>330.9</ele>
        <time>2018-03-30T07:10:29Z</time>
      </trkpt>
      <trkpt lat="38.4424310" lon="-0.6386300">
        <ele>331.2</ele>
        <time>2018-03-30T07:10:30Z</time>
      </trkpt>
      <trkpt lat="38.4424710" lon="-0.6386040">
        <ele>331.6</ele>
        <time>2018-03-30T07:10:31Z</time>
      </trkpt>
      <trkpt lat="38.4425090" lon="-0.6385760">
        <ele>331.8</ele>
        <time>2018-03-30T07:10:32Z</time>
      </trkpt>
      <trkpt lat="38.4425450" lon="-0.6385490">
        <ele>332.0</ele>
        <time>2018-03-30T07:10:33Z</time>
      </trkpt>
      <trkpt lat="38.4425780" lon="-0.6385240">
        <ele>332.1</ele>
        <time>2018-03-30T07:10:34Z</time>
      </trkpt>
      <trkpt lat="38.4426160" lon="-0.6384980">
        <ele>332.3</ele>
        <time>2018-03-30T07:10:35Z</time>
      </trkpt>
      <trkpt lat="38.4426570" lon="-0.6384700">
        <ele>332.4</ele>
        <time>2018-03-30T07:10:36Z</time>
      </trkpt>
      <trkpt lat="38.4426970" lon="-0.6384480">
        <ele>332.7</ele>
        <time>2018-03-30T07:10:37Z</time>
      </trkpt>
      <trkpt lat="38.4427390" lon="-0.6384230">
        <ele>333.1</ele>
        <time>2018-03-30T07:10:38Z</time>
      </trkpt>
      <trkpt lat="38.4427780" lon="-0.6384000">
        <ele>333.4</ele>
        <time>2018-03-30T07:10:39Z</time>
      </trkpt>
      <trkpt lat="38.4428220" lon="-0.6383790">
        <ele>333.7</ele>
        <time>2018-03-30T07:10:40Z</time>
      </trkpt>
      <trkpt lat="38.4428590" lon="-0.6383580">
        <ele>333.9</ele>
        <time>2018-03-30T07:10:41Z</time>
      </trkpt>
      <trkpt lat="38.4428980" lon="-0.6383340">
        <ele>334.0</ele>
        <time>2018-03-30T07:10:42Z</time>
      </trkpt>
      <trkpt lat="38.4429360" lon="-0.6383090">
        <ele>334.1</ele>
        <time>2018-03-30T07:10:43Z</time>
      </trkpt>
      <trkpt lat="38.4429730" lon="-0.6382840">
        <ele>334.2</ele>
        <time>2018-03-30T07:10:44Z</time>
      </trkpt>
      <trkpt lat="38.4430100" lon="-0.6382600">
        <ele>334.3</ele>
        <time>2018-03-30T07:10:45Z</time>
      </trkpt>
      <trkpt lat="38.4430500" lon="-0.6382370">
        <ele>334.4</ele>
        <time>2018-03-30T07:10:46Z</time>
      </trkpt>
      <trkpt lat="38.4430870" lon="-0.6382120">
        <ele>334.5</ele>
        <time>2018-03-30T07:10:47Z</time>
      </trkpt>
      <trkpt lat="38.4431280" lon="-0.6381870">
        <ele>334.5</ele>
        <time>2018-03-30T07:10:48Z</time>
      </trkpt>
      <trkpt lat="38.4431670" lon="-0.6381650">
        <ele>334.6</ele>
        <time>2018-03-30T07:10:49Z</time>
      </trkpt>
      <trkpt lat="38.4432060" lon="-0.6381420">
        <ele>334.8</ele>
        <time>2018-03-30T07:10:50Z</time>
      </trkpt>
      <trkpt lat="38.4432460" lon="-0.6381190">
        <ele>334.9</ele>
        <time>2018-03-30T07:10:51Z</time>
      </trkpt>
      <trkpt lat="38.4432840" lon="-0.6380970">
        <ele>335.0</ele>
        <time>2018-03-30T07:10:52Z</time>
      </trkpt>
      <trkpt lat="38.4433220" lon="-0.6380750">
        <ele>338.0</ele>
        <time>2018-03-30T07:10:53Z</time>
      </trkpt>
      <trkpt lat="38.4433630" lon="-0.6380530">
        <ele>340.1</ele>
        <time>2018-03-30T07:10:54Z</time>
      </trkpt>
      <trkpt lat="38.4434020" lon="-0.6380330">
        <ele>340.3</ele>
        <time>2018-03-30T07:10:55Z</time>
      </trkpt>
      <trkpt lat="38.4434420" lon="-0.6380110">
        <ele>340.5</ele>
        <time>2018-03-30T07:10:56Z</time>
      </trkpt>
      <trkpt lat="38.4434820" lon="-0.6379910">
        <ele>340.7</ele>
        <time>2018-03-30T07:10:57Z</time>
      </trkpt>
      <trkpt lat="38.4435210" lon="-0.6379680">
        <ele>340.9</ele>
        <time>2018-03-30T07:10:58Z</time>
      </trkpt>
      <trkpt lat="38.4435580" lon="-0.6379460">
        <ele>341.1</ele>
        <time>2018-03-30T07:10:59Z</time>
      </trkpt>
      <trkpt lat="38.4435940" lon="-0.6379250">
        <ele>341.2</ele>
        <time>2018-03-30T07:11:00Z</time>
      </trkpt>
      <trkpt lat="38.4436320" lon="-0.6379040">
        <ele>341.4</ele>
        <time>2018-03-30T07:11:01Z</time>
      </trkpt>
      <trkpt lat="38.4436710" lon="-0.6378810">
        <ele>341.6</ele>
        <time>2018-03-30T07:11:02Z</time>
      </trkpt>
      <trkpt lat="38.4437130" lon="-0.6378570">
        <ele>341.8</ele>
        <time>2018-03-30T07:11:03Z</time>
      </trkpt>
      <trkpt lat="38.4437540" lon="-0.6378340">
        <ele>341.9</ele>
        <time>2018-03-30T07:11:04Z</time>
      </trkpt>
      <trkpt lat="38.4437940" lon="-0.6378110">
        <ele>342.0</ele>
        <time>2018-03-30T07:11:05Z</time>
      </trkpt>
      <trkpt lat="38.4438350" lon="-0.6377900">
        <ele>342.2</ele>
        <time>2018-03-30T07:11:06Z</time>
      </trkpt>
      <trkpt lat="38.4438740" lon="-0.6377680">
        <ele>342.3</ele>
        <time>2018-03-30T07:11:07Z</time>
      </trkpt>
      <trkpt lat="38.4439130" lon="-0.6377470">
        <ele>342.4</ele>
        <time>2018-03-30T07:11:08Z</time>
      </trkpt>
      <trkpt lat="38.4439530" lon="-0.6377240">
        <ele>342.6</ele>
        <time>2018-03-30T07:11:09Z</time>
      </trkpt>
      <trkpt lat="38.4439920" lon="-0.6377020">
        <ele>342.8</ele>
        <time>2018-03-30T07:11:10Z</time>
      </trkpt>
      <trkpt lat="38.4440320" lon="-0.6376780">
        <ele>342.9</ele>
        <time>2018-03-30T07:11:11Z</time>
      </trkpt>
      <trkpt lat="38.4440710" lon="-0.6376560">
        <ele>343.1</ele>
        <time>2018-03-30T07:11:12Z</time>
      </trkpt>
      <trkpt lat="38.4441090" lon="-0.6376340">
        <ele>343.3</ele>
        <time>2018-03-30T07:11:13Z</time>
      </trkpt>
      <trkpt lat="38.4441480" lon="-0.6376100">
        <ele>343.4</ele>
        <time>2018-03-30T07:11:14Z</time>
      </trkpt>
      <trkpt lat="38.4441850" lon="-0.6375890">
        <ele>343.6</ele>
        <time>2018-03-30T07:11:15Z</time>
      </trkpt>
      <trkpt lat="38.4442220" lon="-0.6375670">
        <ele>343.7</ele>
        <time>2018-03-30T07:11:16Z</time>
      </trkpt>
      <trkpt lat="38.4442600" lon="-0.6375440">
        <ele>343.9</ele>
        <time>2018-03-30T07:11:17Z</time>
      </trkpt>
      <trkpt lat="38.4442980" lon="-0.6375230">
        <ele>344.0</ele>
        <time>2018-03-30T07:11:18Z</time>
      </trkpt>
      <trkpt lat="38.4443360" lon="-0.6375010">
        <ele>344.1</ele>
        <time>2018-03-30T07:11:19Z</time>
      </trkpt>
      <trkpt lat="38.4443720" lon="-0.6374790">
        <ele>344.1</ele>
        <time>2018-03-30T07:11:20Z</time>
      </trkpt>
      <trkpt lat="38.4444110" lon="-0.6374540">
        <ele>344.2</ele>
        <time>2018-03-30T07:11:21Z</time>
      </trkpt>
      <trkpt lat="38.4444530" lon="-0.6374280">
        <ele>344.3</ele>
        <time>2018-03-30T07:11:22Z</time>
      </trkpt>
      <trkpt lat="38.4444920" lon="-0.6374040">
        <ele>344.4</ele>
        <time>2018-03-30T07:11:23Z</time>
      </trkpt>
      <trkpt lat="38.4445320" lon="-0.6373760">
        <ele>344.5</ele>
        <time>2018-03-30T07:11:24Z</time>
      </trkpt>
      <trkpt lat="38.4445720" lon="-0.6373540">
        <ele>344.5</ele>
        <time>2018-03-30T07:11:25Z</time>
      </trkpt>
      <trkpt lat="38.4446120" lon="-0.6373310">
        <ele>344.6</ele>
        <time>2018-03-30T07:11:26Z</time>
      </trkpt>
      <trkpt lat="38.4446540" lon="-0.6373070">
        <ele>344.7</ele>
        <time>2018-03-30T07:11:27Z</time>
      </trkpt>
      <trkpt lat="38.4446930" lon="-0.6372830">
        <ele>344.9</ele>
        <time>2018-03-30T07:11:28Z</time>
      </trkpt>
      <trkpt lat="38.4447330" lon="-0.6372570">
        <ele>345.0</ele>
        <time>2018-03-30T07:11:29Z</time>
      </trkpt>
      <trkpt lat="38.4447760" lon="-0.6372290">
        <ele>345.2</ele>
        <time>2018-03-30T07:11:30Z</time>
      </trkpt>
      <trkpt lat="38.4448170" lon="-0.6372040">
        <ele>345.4</ele>
        <time>2018-03-30T07:11:31Z</time>
      </trkpt>
      <trkpt lat="38.4448560" lon="-0.6371820">
        <ele>345.6</ele>
        <time>2018-03-30T07:11:32Z</time>
      </trkpt>
      <trkpt lat="38.4448970" lon="-0.6371570">
        <ele>345.8</ele>
        <time>2018-03-30T07:11:33Z</time>
      </trkpt>
      <trkpt lat="38.4449390" lon="-0.6371340">
        <ele>346.0</ele>
        <time>2018-03-30T07:11:34Z</time>
      </trkpt>
      <trkpt lat="38.4449820" lon="-0.6371100">
        <ele>346.2</ele>
        <time>2018-03-30T07:11:35Z</time>
      </trkpt>
      <trkpt lat="38.4450240" lon="-0.6370850">
        <ele>346.4</ele>
        <time>2018-03-30T07:11:36Z</time>
      </trkpt>
      <trkpt lat="38.4450660" lon="-0.6370610">
        <ele>346.5</ele>
        <time>2018-03-30T07:11:37Z</time>
      </trkpt>
      <trkpt lat="38.4451050" lon="-0.6370380">
        <ele>346.7</ele>
        <time>2018-03-30T07:11:38Z</time>
      </trkpt>
      <trkpt lat="38.4451450" lon="-0.6370140">
        <ele>346.8</ele>
        <time>2018-03-30T07:11:39Z</time>
      </trkpt>
      <trkpt lat="38.4451860" lon="-0.6369890">
        <ele>347.0</ele>
        <time>2018-03-30T07:11:40Z</time>
      </trkpt>
      <trkpt lat="38.4452270" lon="-0.6369650">
        <ele>347.1</ele>
        <time>2018-03-30T07:11:41Z</time>
      </trkpt>
      <trkpt lat="38.4452680" lon="-0.6369430">
        <ele>347.3</ele>
        <time>2018-03-30T07:11:42Z</time>
      </trkpt>
      <trkpt lat="38.4453100" lon="-0.6369210">
        <ele>347.5</ele>
        <time>2018-03-30T07:11:43Z</time>
      </trkpt>
      <trkpt lat="38.4453510" lon="-0.6368980">
        <ele>347.7</ele>
        <time>2018-03-30T07:11:44Z</time>
      </trkpt>
      <trkpt lat="38.4453920" lon="-0.6368760">
        <ele>347.9</ele>
        <time>2018-03-30T07:11:45Z</time>
      </trkpt>
      <trkpt lat="38.4454310" lon="-0.6368520">
        <ele>348.1</ele>
        <time>2018-03-30T07:11:46Z</time>
      </trkpt>
      <trkpt lat="38.4454730" lon="-0.6368280">
        <ele>348.3</ele>
        <time>2018-03-30T07:11:47Z</time>
      </trkpt>
      <trkpt lat="38.4455120" lon="-0.6368050">
        <ele>348.5</ele>
        <time>2018-03-30T07:11:48Z</time>
      </trkpt>
      <trkpt lat="38.4455520" lon="-0.6367840">
        <ele>348.7</ele>
        <time>2018-03-30T07:11:49Z</time>
      </trkpt>
      <trkpt lat="38.4455930" lon="-0.6367630">
        <ele>348.8</ele>
        <time>2018-03-30T07:11:50Z</time>
      </trkpt>
      <trkpt lat="38.4456330" lon="-0.6367410">
        <ele>349.0</ele>
        <time>2018-03-30T07:11:51Z</time>
      </trkpt>
      <trkpt lat="38.4456720" lon="-0.6367180">
        <ele>349.1</ele>
        <time>2018-03-30T07:11:52Z</time>
      </trkpt>
      <trkpt lat="38.4457120" lon="-0.6366940">
        <ele>349.2</ele>
        <time>2018-03-30T07:11:53Z</time>
      </trkpt>
      <trkpt lat="38.4457520" lon="-0.6366720">
        <ele>349.4</ele>
        <time>2018-03-30T07:11:54Z</time>
      </trkpt>
      <trkpt lat="38.4457910" lon="-0.6366500">
        <ele>349.5</ele>
        <time>2018-03-30T07:11:55Z</time>
      </trkpt>
      <trkpt lat="38.4458310" lon="-0.6366300">
        <ele>349.7</ele>
        <time>2018-03-30T07:11:56Z</time>
      </trkpt>
      <trkpt lat="38.4458700" lon="-0.6366070">
        <ele>349.9</ele>
        <time>2018-03-30T07:11:57Z</time>
      </trkpt>
      <trkpt lat="38.4459090" lon="-0.6365810">
        <ele>350.2</ele>
        <time>2018-03-30T07:11:58Z</time>
      </trkpt>
      <trkpt lat="38.4459480" lon="-0.6365570">
        <ele>350.4</ele>
        <time>2018-03-30T07:11:59Z</time>
      </trkpt>
      <trkpt lat="38.4459890" lon="-0.6365370">
        <ele>350.6</ele>
        <time>2018-03-30T07:12:00Z</time>
      </trkpt>
      <trkpt lat="38.4460290" lon="-0.6365160">
        <ele>350.8</ele>
        <time>2018-03-30T07:12:01Z</time>
      </trkpt>
      <trkpt lat="38.4460670" lon="-0.6364930">
        <ele>351.1</ele>
        <time>2018-03-30T07:12:02Z</time>
      </trkpt>
      <trkpt lat="38.4461060" lon="-0.6364680">
        <ele>351.3</ele>
        <time>2018-03-30T07:12:03Z</time>
      </trkpt>
      <trkpt lat="38.4461430" lon="-0.6364440">
        <ele>351.6</ele>
        <time>2018-03-30T07:12:04Z</time>
      </trkpt>
      <trkpt lat="38.4461820" lon="-0.6364210">
        <ele>351.8</ele>
        <time>2018-03-30T07:12:05Z</time>
      </trkpt>
      <trkpt lat="38.4462210" lon="-0.6363970">
        <ele>352.0</ele>
        <time>2018-03-30T07:12:06Z</time>
      </trkpt>
      <trkpt lat="38.4462610" lon="-0.6363740">
        <ele>352.3</ele>
        <time>2018-03-30T07:12:07Z</time>
      </trkpt>
      <trkpt lat="38.4463010" lon="-0.6363500">
        <ele>352.5</ele>
        <time>2018-03-30T07:12:08Z</time>
      </trkpt>
      <trkpt lat="38.4463420" lon="-0.6363270">
        <ele>352.8</ele>
        <time>2018-03-30T07:12:09Z</time>
      </trkpt>
      <trkpt lat="38.4463820" lon="-0.6363040">
        <ele>353.0</ele>
        <time>2018-03-30T07:12:10Z</time>
      </trkpt>
      <trkpt lat="38.4464220" lon="-0.6362810">
        <ele>353.3</ele>
        <time>2018-03-30T07:12:11Z</time>
      </trkpt>
      <trkpt lat="38.4464610" lon="-0.6362550">
        <ele>353.5</ele>
        <time>2018-03-30T07:12:12Z</time>
      </trkpt>
      <trkpt lat="38.4464990" lon="-0.6362300">
        <ele>353.7</ele>
        <time>2018-03-30T07:12:13Z</time>
      </trkpt>
      <trkpt lat="38.4465390" lon="-0.6362090">
        <ele>354.0</ele>
        <time>2018-03-30T07:12:14Z</time>
      </trkpt>
      <trkpt lat="38.4465780" lon="-0.6361870">
        <ele>354.2</ele>
        <time>2018-03-30T07:12:15Z</time>
      </trkpt>
      <trkpt lat="38.4466160" lon="-0.6361640">
        <ele>354.4</ele>
        <time>2018-03-30T07:12:16Z</time>
      </trkpt>
      <trkpt lat="38.4466550" lon="-0.6361430">
        <ele>354.6</ele>
        <time>2018-03-30T07:12:17Z</time>
      </trkpt>
      <trkpt lat="38.4466930" lon="-0.6361240">
        <ele>354.9</ele>
        <time>2018-03-30T07:12:18Z</time>
      </trkpt>
      <trkpt lat="38.4467330" lon="-0.6361070">
        <ele>355.1</ele>
        <time>2018-03-30T07:12:19Z</time>
      </trkpt>
      <trkpt lat="38.4467740" lon="-0.6360920">
        <ele>355.3</ele>
        <time>2018-03-30T07:12:20Z</time>
      </trkpt>
      <trkpt lat="38.4468150" lon="-0.6360780">
        <ele>355.5</ele>
        <time>2018-03-30T07:12:21Z</time>
      </trkpt>
      <trkpt lat="38.4468560" lon="-0.6360680">
        <ele>355.7</ele>
        <time>2018-03-30T07:12:22Z</time>
      </trkpt>
      <trkpt lat="38.4468940" lon="-0.6360620">
        <ele>355.9</ele>
        <time>2018-03-30T07:12:23Z</time>
      </trkpt>
      <trkpt lat="38.4469360" lon="-0.6360540">
        <ele>356.1</ele>
        <time>2018-03-30T07:12:24Z</time>
      </trkpt>
      <trkpt lat="38.4469780" lon="-0.6360470">
        <ele>356.3</ele>
        <time>2018-03-30T07:12:25Z</time>
      </trkpt>
      <trkpt lat="38.4470180" lon="-0.6360440">
        <ele>356.4</ele>
        <time>2018-03-30T07:12:26Z</time>
      </trkpt>
      <trkpt lat="38.4470600" lon="-0.6360440">
        <ele>356.6</ele>
        <time>2018-03-30T07:12:27Z</time>
      </trkpt>
      <trkpt lat="38.4470980" lon="-0.6360470">
        <ele>356.8</ele>
        <time>2018-03-30T07:12:28Z</time>
      </trkpt>
      <trkpt lat="38.4471390" lon="-0.6360520">
        <ele>357.0</ele>
        <time>2018-03-30T07:12:29Z</time>
      </trkpt>
      <trkpt lat="38.4471800" lon="-0.6360580">
        <ele>357.2</ele>
        <time>2018-03-30T07:12:30Z</time>
      </trkpt>
      <trkpt lat="38.4472200" lon="-0.6360670">
        <ele>357.4</ele>
        <time>2018-03-30T07:12:31Z</time>
      </trkpt>
      <trkpt lat="38.4472600" lon="-0.6360780">
        <ele>357.6</ele>
        <time>2018-03-30T07:12:32Z</time>
      </trkpt>
      <trkpt lat="38.4473000" lon="-0.6360850">
        <ele>357.7</ele>
        <time>2018-03-30T07:12:33Z</time>
      </trkpt>
      <trkpt lat="38.4473390" lon="-0.6360930">
        <ele>357.9</ele>
        <time>2018-03-30T07:12:34Z</time>
      </trkpt>
      <trkpt lat="38.4473790" lon="-0.6361030">
        <ele>358.1</ele>
        <time>2018-03-30T07:12:35Z</time>
      </trkpt>
      <trkpt lat="38.4474190" lon="-0.6361130">
        <ele>358.3</ele>
        <time>2018-03-30T07:12:36Z</time>
      </trkpt>
      <trkpt lat="38.4474600" lon="-0.6361260">
        <ele>358.5</ele>
        <time>2018-03-30T07:12:37Z</time>
      </trkpt>
      <trkpt lat="38.4475010" lon="-0.6361380">
        <ele>358.7</ele>
        <time>2018-03-30T07:12:38Z</time>
      </trkpt>
      <trkpt lat="38.4475410" lon="-0.6361510">
        <ele>358.9</ele>
        <time>2018-03-30T07:12:39Z</time>
      </trkpt>
      <trkpt lat="38.4475820" lon="-0.6361620">
        <ele>359.1</ele>
        <time>2018-03-30T07:12:40Z</time>
      </trkpt>
      <trkpt lat="38.4476240" lon="-0.6361710">
        <ele>359.3</ele>
        <time>2018-03-30T07:12:41Z</time>
      </trkpt>
      <trkpt lat="38.4476650" lon="-0.6361770">
        <ele>359.5</ele>
        <time>2018-03-30T07:12:42Z</time>
      </trkpt>
      <trkpt lat="38.4477080" lon="-0.6361820">
        <ele>359.7</ele>
        <time>2018-03-30T07:12:43Z</time>
      </trkpt>
      <trkpt lat="38.4477500" lon="-0.6361820">
        <ele>359.9</ele>
        <time>2018-03-30T07:12:44Z</time>
      </trkpt>
      <trkpt lat="38.4477930" lon="-0.6361770">
        <ele>360.1</ele>
        <time>2018-03-30T07:12:45Z</time>
      </trkpt>
      <trkpt lat="38.4478350" lon="-0.6361700">
        <ele>360.3</ele>
        <time>2018-03-30T07:12:46Z</time>
      </trkpt>
      <trkpt lat="38.4478740" lon="-0.6361600">
        <ele>360.5</ele>
        <time>2018-03-30T07:12:47Z</time>
      </trkpt>
      <trkpt lat="38.4479110" lon="-0.6361460">
        <ele>360.8</ele>
        <time>2018-03-30T07:12:48Z</time>
      </trkpt>
      <trkpt lat="38.4479510" lon="-0.6361280">
        <ele>361.0</ele>
        <time>2018-03-30T07:12:49Z</time>
      </trkpt>
      <trkpt lat="38.4479900" lon="-0.6361110">
        <ele>361.3</ele>
        <time>2018-03-30T07:12:50Z</time>
      </trkpt>
      <trkpt lat="38.4480280" lon="-0.6360930">
        <ele>361.6</ele>
        <time>2018-03-30T07:12:51Z</time>
      </trkpt>
      <trkpt lat="38.4480660" lon="-0.6360750">
        <ele>361.9</ele>
        <time>2018-03-30T07:12:52Z</time>
      </trkpt>
      <trkpt lat="38.4481010" lon="-0.6360590">
        <ele>362.1</ele>
        <time>2018-03-30T07:12:53Z</time>
      </trkpt>
      <trkpt lat="38.4481380" lon="-0.6360430">
        <ele>362.4</ele>
        <time>2018-03-30T07:12:54Z</time>
      </trkpt>
      <trkpt lat="38.4481730" lon="-0.6360270">
        <ele>362.7</ele>
        <time>2018-03-30T07:12:55Z</time>
      </trkpt>
      <trkpt lat="38.4482080" lon="-0.6360130">
        <ele>363.0</ele>
        <time>2018-03-30T07:12:56Z</time>
      </trkpt>
      <trkpt lat="38.4482430" lon="-0.6360010">
        <ele>363.3</ele>
        <time>2018-03-30T07:12:57Z</time>
      </trkpt>
      <trkpt lat="38.4482790" lon="-0.6359870">
        <ele>363.6</ele>
        <time>2018-03-30T07:12:58Z</time>
      </trkpt>
      <trkpt lat="38.4483160" lon="-0.6359760">
        <ele>363.9</ele>
        <time>2018-03-30T07:12:59Z</time>
      </trkpt>
      <trkpt lat="38.4483530" lon="-0.6359650">
        <ele>364.2</ele>
        <time>2018-03-30T07:13:00Z</time>
      </trkpt>
      <trkpt lat="38.4483920" lon="-0.6359540">
        <ele>364.5</ele>
        <time>2018-03-30T07:13:01Z</time>
      </trkpt>
      <trkpt lat="38.4484320" lon="-0.6359450">
        <ele>364.8</ele>
        <time>2018-03-30T07:13:02Z</time>
      </trkpt>
      <trkpt lat="38.4484720" lon="-0.6359370">
        <ele>365.1</ele>
        <time>2018-03-30T07:13:03Z</time>
      </trkpt>
      <trkpt lat="38.4485130" lon="-0.6359280">
        <ele>365.4</ele>
        <time>2018-03-30T07:13:04Z</time>
      </trkpt>
      <trkpt lat="38.4485550" lon="-0.6359200">
        <ele>365.7</ele>
        <time>2018-03-30T07:13:05Z</time>
      </trkpt>
      <trkpt lat="38.4485960" lon="-0.6359110">
        <ele>366.0</ele>
        <time>2018-03-30T07:13:06Z</time>
      </trkpt>
      <trkpt lat="38.4486370" lon="-0.6359030">
        <ele>366.3</ele>
        <time>2018-03-30T07:13:07Z</time>
      </trkpt>
      <trkpt lat="38.4486780" lon="-0.6358960">
        <ele>366.6</ele>
        <time>2018-03-30T07:13:08Z</time>
      </trkpt>
      <trkpt lat="38.4487190" lon="-0.6358890">
        <ele>366.9</ele>
        <time>2018-03-30T07:13:09Z</time>
      </trkpt>
      <trkpt lat="38.4487600" lon="-0.6358810">
        <ele>367.1</ele>
        <time>2018-03-30T07:13:10Z</time>
      </trkpt>
      <trkpt lat="38.4487990" lon="-0.6358730">
        <ele>367.4</ele>
        <time>2018-03-30T07:13:11Z</time>
      </trkpt>
      <trkpt lat="38.4488390" lon="-0.6358650">
        <ele>367.7</ele>
        <time>2018-03-30T07:13:12Z</time>
      </trkpt>
      <trkpt lat="38.4488780" lon="-0.6358580">
        <ele>367.9</ele>
        <time>2018-03-30T07:13:13Z</time>
      </trkpt>
      <trkpt lat="38.4489170" lon="-0.6358510">
        <ele>368.2</ele>
        <time>2018-03-30T07:13:14Z</time>
      </trkpt>
      <trkpt lat="38.4489540" lon="-0.6358450">
        <ele>368.4</ele>
        <time>2018-03-30T07:13:15Z</time>
      </trkpt>
      <trkpt lat="38.4489920" lon="-0.6358380">
        <ele>368.7</ele>
        <time>2018-03-30T07:13:16Z</time>
      </trkpt>
      <trkpt lat="38.4490310" lon="-0.6358300">
        <ele>368.9</ele>
        <time>2018-03-30T07:13:17Z</time>
      </trkpt>
      <trkpt lat="38.4490680" lon="-0.6358240">
        <ele>369.1</ele>
        <time>2018-03-30T07:13:18Z</time>
      </trkpt>
      <trkpt lat="38.4491050" lon="-0.6358160">
        <ele>369.3</ele>
        <time>2018-03-30T07:13:19Z</time>
      </trkpt>
      <trkpt lat="38.4491460" lon="-0.6358080">
        <ele>369.6</ele>
        <time>2018-03-30T07:13:20Z</time>
      </trkpt>
      <trkpt lat="38.4491850" lon="-0.6358010">
        <ele>369.8</ele>
        <time>2018-03-30T07:13:21Z</time>
      </trkpt>
      <trkpt lat="38.4492230" lon="-0.6357950">
        <ele>370.0</ele>
        <time>2018-03-30T07:13:22Z</time>
      </trkpt>
      <trkpt lat="38.4492600" lon="-0.6357890">
        <ele>370.2</ele>
        <time>2018-03-30T07:13:23Z</time>
      </trkpt>
      <trkpt lat="38.4492990" lon="-0.6357810">
        <ele>370.5</ele>
        <time>2018-03-30T07:13:24Z</time>
      </trkpt>
      <trkpt lat="38.4493380" lon="-0.6357740">
        <ele>370.7</ele>
        <time>2018-03-30T07:13:25Z</time>
      </trkpt>
      <trkpt lat="38.4493750" lon="-0.6357660">
        <ele>370.9</ele>
        <time>2018-03-30T07:13:26Z</time>
      </trkpt>
      <trkpt lat="38.4494130" lon="-0.6357590">
        <ele>371.0</ele>
        <time>2018-03-30T07:13:27Z</time>
      </trkpt>
      <trkpt lat="38.4494520" lon="-0.6357530">
        <ele>371.2</ele>
        <time>2018-03-30T07:13:28Z</time>
      </trkpt>
      <trkpt lat="38.4494910" lon="-0.6357470">
        <ele>371.4</ele>
        <time>2018-03-30T07:13:29Z</time>
      </trkpt>
      <trkpt lat="38.4495300" lon="-0.6357400">
        <ele>371.6</ele>
        <time>2018-03-30T07:13:30Z</time>
      </trkpt>
      <trkpt lat="38.4495680" lon="-0.6357350">
        <ele>371.8</ele>
        <time>2018-03-30T07:13:31Z</time>
      </trkpt>
      <trkpt lat="38.4496050" lon="-0.6357280">
        <ele>371.9</ele>
        <time>2018-03-30T07:13:32Z</time>
      </trkpt>
      <trkpt lat="38.4496430" lon="-0.6357220">
        <ele>372.1</ele>
        <time>2018-03-30T07:13:33Z</time>
      </trkpt>
      <trkpt lat="38.4496800" lon="-0.6357150">
        <ele>372.3</ele>
        <time>2018-03-30T07:13:34Z</time>
      </trkpt>
      <trkpt lat="38.4497170" lon="-0.6357090">
        <ele>372.4</ele>
        <time>2018-03-30T07:13:35Z</time>
      </trkpt>
      <trkpt lat="38.4497560" lon="-0.6357040">
        <ele>372.6</ele>
        <time>2018-03-30T07:13:36Z</time>
      </trkpt>
      <trkpt lat="38.4497940" lon="-0.6357000">
        <ele>372.8</ele>
        <time>2018-03-30T07:13:37Z</time>
      </trkpt>
      <trkpt lat="38.4498300" lon="-0.6357010">
        <ele>372.9</ele>
        <time>2018-03-30T07:13:38Z</time>
      </trkpt>
      <trkpt lat="38.4498710" lon="-0.6356940">
        <ele>373.1</ele>
        <time>2018-03-30T07:13:39Z</time>
      </trkpt>
      <trkpt lat="38.4499110" lon="-0.6356880">
        <ele>373.3</ele>
        <time>2018-03-30T07:13:40Z</time>
      </trkpt>
      <trkpt lat="38.4499510" lon="-0.6356830">
        <ele>373.4</ele>
        <time>2018-03-30T07:13:41Z</time>
      </trkpt>
      <trkpt lat="38.4499900" lon="-0.6356760">
        <ele>373.6</ele>
        <time>2018-03-30T07:13:42Z</time>
      </trkpt>
      <trkpt lat="38.4500270" lon="-0.6356650">
        <ele>373.8</ele>
        <time>2018-03-30T07:13:43Z</time>
      </trkpt>
      <trkpt lat="38.4500660" lon="-0.6356550">
        <ele>374.0</ele>
        <time>2018-03-30T07:13:44Z</time>
      </trkpt>
      <trkpt lat="38.4501040" lon="-0.6356520">
        <ele>374.2</ele>
        <time>2018-03-30T07:13:45Z</time>
      </trkpt>
      <trkpt lat="38.4501410" lon="-0.6356520">
        <ele>374.4</ele>
        <time>2018-03-30T07:13:46Z</time>
      </trkpt>
      <trkpt lat="38.4501800" lon="-0.6356540">
        <ele>374.6</ele>
        <time>2018-03-30T07:13:47Z</time>
      </trkpt>
      <trkpt lat="38.4502180" lon="-0.6356560">
        <ele>374.8</ele>
        <time>2018-03-30T07:13:48Z</time>
      </trkpt>
      <trkpt lat="38.4502580" lon="-0.6356590">
        <ele>375.0</ele>
        <time>2018-03-30T07:13:49Z</time>
      </trkpt>
      <trkpt lat="38.4502990" lon="-0.6356630">
        <ele>375.2</ele>
        <time>2018-03-30T07:13:50Z</time>
      </trkpt>
      <trkpt lat="38.4503400" lon="-0.6356670">
        <ele>375.4</ele>
        <time>2018-03-30T07:13:51Z</time>
      </trkpt>
      <trkpt lat="38.4503820" lon="-0.6356730">
        <ele>375.6</ele>
        <time>2018-03-30T07:13:52Z</time>
      </trkpt>
      <trkpt lat="38.4504230" lon="-0.6356790">
        <ele>375.8</ele>
        <time>2018-03-30T07:13:53Z</time>
      </trkpt>
      <trkpt lat="38.4504630" lon="-0.6356860">
        <ele>376.1</ele>
        <time>2018-03-30T07:13:54Z</time>
      </trkpt>
      <trkpt lat="38.4505030" lon="-0.6356950">
        <ele>376.3</ele>
        <time>2018-03-30T07:13:55Z</time>
      </trkpt>
      <trkpt lat="38.4505420" lon="-0.6357010">
        <ele>376.5</ele>
        <time>2018-03-30T07:13:56Z</time>
      </trkpt>
      <trkpt lat="38.4505820" lon="-0.6357040">
        <ele>376.7</ele>
        <time>2018-03-30T07:13:57Z</time>
      </trkpt>
      <trkpt lat="38.4506220" lon="-0.6357090">
        <ele>376.9</ele>
        <time>2018-03-30T07:13:58Z</time>
      </trkpt>
      <trkpt lat="38.4506620" lon="-0.6357140">
        <ele>377.1</ele>
        <time>2018-03-30T07:13:59Z</time>
      </trkpt>
      <trkpt lat="38.4507010" lon="-0.6357190">
        <ele>377.4</ele>
        <time>2018-03-30T07:14:00Z</time>
      </trkpt>
      <trkpt lat="38.4507410" lon="-0.6357260">
        <ele>377.6</ele>
        <time>2018-03-30T07:14:01Z</time>
      </trkpt>
      <trkpt lat="38.4507810" lon="-0.6357340">
        <ele>377.8</ele>
        <time>2018-03-30T07:14:02Z</time>
      </trkpt>
      <trkpt lat="38.4508220" lon="-0.6357400">
        <ele>378.0</ele>
        <time>2018-03-30T07:14:03Z</time>
      </trkpt>
      <trkpt lat="38.4508620" lon="-0.6357440">
        <ele>378.2</ele>
        <time>2018-03-30T07:14:04Z</time>
      </trkpt>
      <trkpt lat="38.4509020" lon="-0.6357490">
        <ele>378.5</ele>
        <time>2018-03-30T07:14:05Z</time>
      </trkpt>
      <trkpt lat="38.4509420" lon="-0.6357540">
        <ele>378.7</ele>
        <time>2018-03-30T07:14:06Z</time>
      </trkpt>
      <trkpt lat="38.4509810" lon="-0.6357620">
        <ele>378.9</ele>
        <time>2018-03-30T07:14:07Z</time>
      </trkpt>
      <trkpt lat="38.4510190" lon="-0.6357670">
        <ele>379.1</ele>
        <time>2018-03-30T07:14:08Z</time>
      </trkpt>
      <trkpt lat="38.4510590" lon="-0.6357720">
        <ele>379.3</ele>
        <time>2018-03-30T07:14:09Z</time>
      </trkpt>
      <trkpt lat="38.4510980" lon="-0.6357780">
        <ele>379.4</ele>
        <time>2018-03-30T07:14:10Z</time>
      </trkpt>
      <trkpt lat="38.4511370" lon="-0.6357850">
        <ele>379.6</ele>
        <time>2018-03-30T07:14:11Z</time>
      </trkpt>
      <trkpt lat="38.4511750" lon="-0.6357940">
        <ele>379.7</ele>
        <time>2018-03-30T07:14:12Z</time>
      </trkpt>
      <trkpt lat="38.4512110" lon="-0.6358110">
        <ele>379.8</ele>
        <time>2018-03-30T07:14:13Z</time>
      </trkpt>
      <trkpt lat="38.4512470" lon="-0.6358290">
        <ele>379.9</ele>
        <time>2018-03-30T07:14:14Z</time>
      </trkpt>
      <trkpt lat="38.4512820" lon="-0.6358510">
        <ele>380.0</ele>
        <time>2018-03-30T07:14:15Z</time>
      </trkpt>
      <trkpt lat="38.4513150" lon="-0.6358760">
        <ele>380.1</ele>
        <time>2018-03-30T07:14:16Z</time>
      </trkpt>
      <trkpt lat="38.4513430" lon="-0.6359070">
        <ele>380.1</ele>
        <time>2018-03-30T07:14:17Z</time>
      </trkpt>
      <trkpt lat="38.4513740" lon="-0.6359440">
        <ele>380.1</ele>
        <time>2018-03-30T07:14:18Z</time>
      </trkpt>
      <trkpt lat="38.4513980" lon="-0.6359790">
        <ele>380.2</ele>
        <time>2018-03-30T07:14:19Z</time>
      </trkpt>
      <trkpt lat="38.4514220" lon="-0.6360160">
        <ele>380.2</ele>
        <time>2018-03-30T07:14:20Z</time>
      </trkpt>
      <trkpt lat="38.4514450" lon="-0.6360540">
        <ele>380.2</ele>
        <time>2018-03-30T07:14:21Z</time>
      </trkpt>
      <trkpt lat="38.4514670" lon="-0.6360940">
        <ele>380.3</ele>
        <time>2018-03-30T07:14:22Z</time>
      </trkpt>
      <trkpt lat="38.4514870" lon="-0.6361350">
        <ele>380.3</ele>
        <time>2018-03-30T07:14:23Z</time>
      </trkpt>
      <trkpt lat="38.4515080" lon="-0.6361760">
        <ele>380.3</ele>
        <time>2018-03-30T07:14:24Z</time>
      </trkpt>
      <trkpt lat="38.4515260" lon="-0.6362160">
        <ele>380.3</ele>
        <time>2018-03-30T07:14:25Z</time>
      </trkpt>
      <trkpt lat="38.4515460" lon="-0.6362580">
        <ele>380.3</ele>
        <time>2018-03-30T07:14:26Z</time>
      </trkpt>
      <trkpt lat="38.4515660" lon="-0.6363010">
        <ele>380.4</ele>
        <time>2018-03-30T07:14:27Z</time>
      </trkpt>
      <trkpt lat="38.4515870" lon="-0.6363400">
        <ele>380.4</ele>
        <time>2018-03-30T07:14:28Z</time>
      </trkpt>
      <trkpt lat="38.4516140" lon="-0.6363780">
        <ele>380.4</ele>
        <time>2018-03-30T07:14:29Z</time>
      </trkpt>
      <trkpt lat="38.4516400" lon="-0.6364120">
        <ele>380.4</ele>
        <time>2018-03-30T07:14:30Z</time>
      </trkpt>
      <trkpt lat="38.4516690" lon="-0.6364450">
        <ele>380.4</ele>
        <time>2018-03-30T07:14:31Z</time>
      </trkpt>
      <trkpt lat="38.4516960" lon="-0.6364740">
        <ele>380.4</ele>
        <time>2018-03-30T07:14:32Z</time>
      </trkpt>
      <trkpt lat="38.4517240" lon="-0.6365010">
        <ele>380.5</ele>
        <time>2018-03-30T07:14:33Z</time>
      </trkpt>
      <trkpt lat="38.4517560" lon="-0.6365270">
        <ele>380.5</ele>
        <time>2018-03-30T07:14:34Z</time>
      </trkpt>
      <trkpt lat="38.4517880" lon="-0.6365520">
        <ele>380.5</ele>
        <time>2018-03-30T07:14:35Z</time>
      </trkpt>
      <trkpt lat="38.4518210" lon="-0.6365750">
        <ele>380.5</ele>
        <time>2018-03-30T07:14:36Z</time>
      </trkpt>
      <trkpt lat="38.4518580" lon="-0.6365950">
        <ele>380.5</ele>
        <time>2018-03-30T07:14:37Z</time>
      </trkpt>
      <trkpt lat="38.4518970" lon="-0.6366120">
        <ele>380.5</ele>
        <time>2018-03-30T07:14:38Z</time>
      </trkpt>
      <trkpt lat="38.4519330" lon="-0.6366290">
        <ele>380.5</ele>
        <time>2018-03-30T07:14:39Z</time>
      </trkpt>
      <trkpt lat="38.4519710" lon="-0.6366450">
        <ele>380.5</ele>
        <time>2018-03-30T07:14:40Z</time>
      </trkpt>
      <trkpt lat="38.4520130" lon="-0.6366560">
        <ele>380.5</ele>
        <time>2018-03-30T07:14:41Z</time>
      </trkpt>
      <trkpt lat="38.4520570" lon="-0.6366610">
        <ele>380.5</ele>
        <time>2018-03-30T07:14:42Z</time>
      </trkpt>
      <trkpt lat="38.4520990" lon="-0.6366620">
        <ele>380.5</ele>
        <time>2018-03-30T07:14:43Z</time>
      </trkpt>
      <trkpt lat="38.4521460" lon="-0.6366570">
        <ele>380.5</ele>
        <time>2018-03-30T07:14:44Z</time>
      </trkpt>
      <trkpt lat="38.4521910" lon="-0.6366430">
        <ele>380.5</ele>
        <time>2018-03-30T07:14:45Z</time>
      </trkpt>
      <trkpt lat="38.4522440" lon="-0.6366120">
        <ele>380.5</ele>
        <time>2018-03-30T07:14:46Z</time>
      </trkpt>
      <trkpt lat="38.4522950" lon="-0.6365790">
        <ele>380.6</ele>
        <time>2018-03-30T07:14:47Z</time>
      </trkpt>
      <trkpt lat="38.4523440" lon="-0.6365450">
        <ele>380.6</ele>
        <time>2018-03-30T07:14:48Z</time>
      </trkpt>
      <trkpt lat="38.4523940" lon="-0.6365130">
        <ele>380.6</ele>
        <time>2018-03-30T07:14:49Z</time>
      </trkpt>
      <trkpt lat="38.4524460" lon="-0.6364820">
        <ele>380.6</ele>
        <time>2018-03-30T07:14:50Z</time>
      </trkpt>
      <trkpt lat="38.4525050" lon="-0.6364560">
        <ele>380.6</ele>
        <time>2018-03-30T07:14:51Z</time>
      </trkpt>
      <trkpt lat="38.4525650" lon="-0.6364370">
        <ele>380.6</ele>
        <time>2018-03-30T07:14:52Z</time>
      </trkpt>
      <trkpt lat="38.4526240" lon="-0.6364230">
        <ele>380.6</ele>
        <time>2018-03-30T07:14:53Z</time>
      </trkpt>
      <trkpt lat="38.4526870" lon="-0.6364140">
        <ele>380.6</ele>
        <time>2018-03-30T07:14:54Z</time>
      </trkpt>
      <trkpt lat="38.4527470" lon="-0.6364080">
        <ele>380.6</ele>
        <time>2018-03-30T07:14:55Z</time>
      </trkpt>
      <trkpt lat="38.4528090" lon="-0.6364060">
        <ele>380.6</ele>
        <time>2018-03-30T07:14:56Z</time>
      </trkpt>
      <trkpt lat="38.4528730" lon="-0.6364080">
        <ele>380.6</ele>
        <time>2018-03-30T07:14:57Z</time>
      </trkpt>
      <trkpt lat="38.4529370" lon="-0.6364120">
        <ele>380.6</ele>
        <time>2018-03-30T07:14:58Z</time>
      </trkpt>
      <trkpt lat="38.4529990" lon="-0.6364150">
        <ele>380.6</ele>
        <time>2018-03-30T07:14:59Z</time>
      </trkpt>
      <trkpt lat="38.4530620" lon="-0.6364190">
        <ele>380.6</ele>
        <time>2018-03-30T07:15:00Z</time>
      </trkpt>
      <trkpt lat="38.4531230" lon="-0.6364260">
        <ele>380.7</ele>
        <time>2018-03-30T07:15:01Z</time>
      </trkpt>
      <trkpt lat="38.4531830" lon="-0.6364300">
        <ele>380.7</ele>
        <time>2018-03-30T07:15:02Z</time>
      </trkpt>
      <trkpt lat="38.4532430" lon="-0.6364320">
        <ele>380.7</ele>
        <time>2018-03-30T07:15:03Z</time>
      </trkpt>
      <trkpt lat="38.4533030" lon="-0.6364310">
        <ele>380.7</ele>
        <time>2018-03-30T07:15:04Z</time>
      </trkpt>
      <trkpt lat="38.4533610" lon="-0.6364260">
        <ele>380.7</ele>
        <time>2018-03-30T07:15:05Z</time>
      </trkpt>
      <trkpt lat="38.4534180" lon="-0.6364180">
        <ele>380.8</ele>
        <time>2018-03-30T07:15:06Z</time>
      </trkpt>
      <trkpt lat="38.4534750" lon="-0.6364050">
        <ele>380.8</ele>
        <time>2018-03-30T07:15:07Z</time>
      </trkpt>
      <trkpt lat="38.4535310" lon="-0.6363890">
        <ele>380.8</ele>
        <time>2018-03-30T07:15:08Z</time>
      </trkpt>
      <trkpt lat="38.4535860" lon="-0.6363730">
        <ele>380.8</ele>
        <time>2018-03-30T07:15:09Z</time>
      </trkpt>
      <trkpt lat="38.4536410" lon="-0.6363560">
        <ele>380.9</ele>
        <time>2018-03-30T07:15:10Z</time>
      </trkpt>
      <trkpt lat="38.4536960" lon="-0.6363400">
        <ele>381.0</ele>
        <time>2018-03-30T07:15:11Z</time>
      </trkpt>
      <trkpt lat="38.4537510" lon="-0.6363230">
        <ele>381.1</ele>
        <time>2018-03-30T07:15:12Z</time>
      </trkpt>
      <trkpt lat="38.4538070" lon="-0.6363060">
        <ele>381.2</ele>
        <time>2018-03-30T07:15:13Z</time>
      </trkpt>
      <trkpt lat="38.4538630" lon="-0.6362890">
        <ele>381.4</ele>
        <time>2018-03-30T07:15:14Z</time>
      </trkpt>
      <trkpt lat="38.4539210" lon="-0.6362710">
        <ele>381.7</ele>
        <time>2018-03-30T07:15:15Z</time>
      </trkpt>
      <trkpt lat="38.4539770" lon="-0.6362520">
        <ele>381.9</ele>
        <time>2018-03-30T07:15:16Z</time>
      </trkpt>
      <trkpt lat="38.4540330" lon="-0.6362310">
        <ele>382.2</ele>
        <time>2018-03-30T07:15:17Z</time>
      </trkpt>
      <trkpt lat="38.4540910" lon="-0.6362090">
        <ele>382.4</ele>
        <time>2018-03-30T07:15:18Z</time>
      </trkpt>
      <trkpt lat="38.4541510" lon="-0.6361870">
        <ele>382.7</ele>
        <time>2018-03-30T07:15:19Z</time>
      </trkpt>
      <trkpt lat="38.4542060" lon="-0.6361670">
        <ele>382.9</ele>
        <time>2018-03-30T07:15:20Z</time>
      </trkpt>
      <trkpt lat="38.4542610" lon="-0.6361470">
        <ele>383.2</ele>
        <time>2018-03-30T07:15:21Z</time>
      </trkpt>
      <trkpt lat="38.4543170" lon="-0.6361270">
        <ele>383.4</ele>
        <time>2018-03-30T07:15:22Z</time>
      </trkpt>
      <trkpt lat="38.4543730" lon="-0.6361090">
        <ele>383.6</ele>
        <time>2018-03-30T07:15:23Z</time>
      </trkpt>
      <trkpt lat="38.4544260" lon="-0.6360910">
        <ele>383.9</ele>
        <time>2018-03-30T07:15:24Z</time>
      </trkpt>
      <trkpt lat="38.4544800" lon="-0.6360720">
        <ele>384.1</ele>
        <time>2018-03-30T07:15:25Z</time>
      </trkpt>
      <trkpt lat="38.4545320" lon="-0.6360550">
        <ele>384.3</ele>
        <time>2018-03-30T07:15:26Z</time>
      </trkpt>
      <trkpt lat="38.4545840" lon="-0.6360360">
        <ele>384.5</ele>
        <time>2018-03-30T07:15:27Z</time>
      </trkpt>
      <trkpt lat="38.4546370" lon="-0.6360150">
        <ele>384.7</ele>
        <time>2018-03-30T07:15:28Z</time>
      </trkpt>
      <trkpt lat="38.4546890" lon="-0.6359960">
        <ele>384.9</ele>
        <time>2018-03-30T07:15:29Z</time>
      </trkpt>
      <trkpt lat="38.4547410" lon="-0.6359790">
        <ele>385.1</ele>
        <time>2018-03-30T07:15:30Z</time>
      </trkpt>
      <trkpt lat="38.4547920" lon="-0.6359600">
        <ele>385.3</ele>
        <time>2018-03-30T07:15:31Z</time>
      </trkpt>
      <trkpt lat="38.4548430" lon="-0.6359420">
        <ele>385.5</ele>
        <time>2018-03-30T07:15:32Z</time>
      </trkpt>
      <trkpt lat="38.4548950" lon="-0.6359260">
        <ele>385.7</ele>
        <time>2018-03-30T07:15:33Z</time>
      </trkpt>
      <trkpt lat="38.4549470" lon="-0.6359110">
        <ele>386.0</ele>
        <time>2018-03-30T07:15:34Z</time>
      </trkpt>
      <trkpt lat="38.4549980" lon="-0.6358950">
        <ele>386.3</ele>
        <time>2018-03-30T07:15:35Z</time>
      </trkpt>
      <trkpt lat="38.4550470" lon="-0.6358810">
        <ele>386.5</ele>
        <time>2018-03-30T07:15:36Z</time>
      </trkpt>
      <trkpt lat="38.4550980" lon="-0.6358700">
        <ele>386.8</ele>
        <time>2018-03-30T07:15:37Z</time>
      </trkpt>
      <trkpt lat="38.4551490" lon="-0.6358610">
        <ele>387.0</ele>
        <time>2018-03-30T07:15:38Z</time>
      </trkpt>
      <trkpt lat="38.4551980" lon="-0.6358520">
        <ele>387.2</ele>
        <time>2018-03-30T07:15:39Z</time>
      </trkpt>
      <trkpt lat="38.4552500" lon="-0.6358500">
        <ele>387.4</ele>
        <time>2018-03-30T07:15:40Z</time>
      </trkpt>
      <trkpt lat="38.4553030" lon="-0.6358530">
        <ele>387.6</ele>
        <time>2018-03-30T07:15:41Z</time>
      </trkpt>
      <trkpt lat="38.4553550" lon="-0.6358590">
        <ele>387.8</ele>
        <time>2018-03-30T07:15:42Z</time>
      </trkpt>
      <trkpt lat="38.4554080" lon="-0.6358720">
        <ele>388.0</ele>
        <time>2018-03-30T07:15:43Z</time>
      </trkpt>
      <trkpt lat="38.4554590" lon="-0.6358900">
        <ele>388.3</ele>
        <time>2018-03-30T07:15:44Z</time>
      </trkpt>
      <trkpt lat="38.4555090" lon="-0.6359130">
        <ele>388.5</ele>
        <time>2018-03-30T07:15:45Z</time>
      </trkpt>
      <trkpt lat="38.4555570" lon="-0.6359400">
        <ele>388.8</ele>
        <time>2018-03-30T07:15:46Z</time>
      </trkpt>
      <trkpt lat="38.4556050" lon="-0.6359690">
        <ele>389.1</ele>
        <time>2018-03-30T07:15:47Z</time>
      </trkpt>
      <trkpt lat="38.4556500" lon="-0.6360050">
        <ele>389.4</ele>
        <time>2018-03-30T07:15:48Z</time>
      </trkpt>
      <trkpt lat="38.4556850" lon="-0.6360400">
        <ele>389.6</ele>
        <time>2018-03-30T07:15:49Z</time>
      </trkpt>
      <trkpt lat="38.4557230" lon="-0.6360770">
        <ele>389.8</ele>
        <time>2018-03-30T07:15:50Z</time>
      </trkpt>
      <trkpt lat="38.4557630" lon="-0.6361130">
        <ele>390.1</ele>
        <time>2018-03-30T07:15:51Z</time>
      </trkpt>
      <trkpt lat="38.4558030" lon="-0.6361490">
        <ele>390.3</ele>
        <time>2018-03-30T07:15:52Z</time>
      </trkpt>
      <trkpt lat="38.4558420" lon="-0.6361860">
        <ele>390.6</ele>
        <time>2018-03-30T07:15:53Z</time>
      </trkpt>
      <trkpt lat="38.4558780" lon="-0.6362240">
        <ele>390.8</ele>
        <time>2018-03-30T07:15:54Z</time>
      </trkpt>
      <trkpt lat="38.4559180" lon="-0.6362640">
        <ele>391.0</ele>
        <time>2018-03-30T07:15:55Z</time>
      </trkpt>
      <trkpt lat="38.4559580" lon="-0.6363040">
        <ele>391.3</ele>
        <time>2018-03-30T07:15:56Z</time>
      </trkpt>
      <trkpt lat="38.4559960" lon="-0.6363460">
        <ele>391.5</ele>
        <time>2018-03-30T07:15:57Z</time>
      </trkpt>
      <trkpt lat="38.4560320" lon="-0.6363870">
        <ele>391.7</ele>
        <time>2018-03-30T07:15:58Z</time>
      </trkpt>
      <trkpt lat="38.4560700" lon="-0.6364300">
        <ele>391.8</ele>
        <time>2018-03-30T07:15:59Z</time>
      </trkpt>
      <trkpt lat="38.4561090" lon="-0.6364730">
        <ele>391.9</ele>
        <time>2018-03-30T07:16:00Z</time>
      </trkpt>
      <trkpt lat="38.4561470" lon="-0.6365180">
        <ele>392.0</ele>
        <time>2018-03-30T07:16:01Z</time>
      </trkpt>
      <trkpt lat="38.4561840" lon="-0.6365620">
        <ele>392.1</ele>
        <time>2018-03-30T07:16:02Z</time>
      </trkpt>
      <trkpt lat="38.4562230" lon="-0.6366070">
        <ele>392.2</ele>
        <time>2018-03-30T07:16:03Z</time>
      </trkpt>
      <trkpt lat="38.4562560" lon="-0.6366510">
        <ele>392.3</ele>
        <time>2018-03-30T07:16:04Z</time>
      </trkpt>
      <trkpt lat="38.4562960" lon="-0.6366960">
        <ele>392.4</ele>
        <time>2018-03-30T07:16:05Z</time>
      </trkpt>
      <trkpt lat="38.4563330" lon="-0.6367430">
        <ele>392.5</ele>
        <time>2018-03-30T07:16:06Z</time>
      </trkpt>
      <trkpt lat="38.4563720" lon="-0.6367880">
        <ele>392.6</ele>
        <time>2018-03-30T07:16:07Z</time>
      </trkpt>
      <trkpt lat="38.4564100" lon="-0.6368360">
        <ele>392.8</ele>
        <time>2018-03-30T07:16:08Z</time>
      </trkpt>
      <trkpt lat="38.4564490" lon="-0.6368840">
        <ele>393.0</ele>
        <time>2018-03-30T07:16:09Z</time>
      </trkpt>
      <trkpt lat="38.4564860" lon="-0.6369300">
        <ele>393.2</ele>
        <time>2018-03-30T07:16:10Z</time>
      </trkpt>
      <trkpt lat="38.4565240" lon="-0.6369770">
        <ele>393.5</ele>
        <time>2018-03-30T07:16:11Z</time>
      </trkpt>
      <trkpt lat="38.4565600" lon="-0.6370230">
        <ele>393.7</ele>
        <time>2018-03-30T07:16:12Z</time>
      </trkpt>
      <trkpt lat="38.4566010" lon="-0.6370700">
        <ele>393.9</ele>
        <time>2018-03-30T07:16:13Z</time>
      </trkpt>
      <trkpt lat="38.4566360" lon="-0.6371170">
        <ele>394.1</ele>
        <time>2018-03-30T07:16:14Z</time>
      </trkpt>
      <trkpt lat="38.4566730" lon="-0.6371620">
        <ele>394.2</ele>
        <time>2018-03-30T07:16:15Z</time>
      </trkpt>
      <trkpt lat="38.4567100" lon="-0.6372060">
        <ele>394.3</ele>
        <time>2018-03-30T07:16:16Z</time>
      </trkpt>
      <trkpt lat="38.4567450" lon="-0.6372510">
        <ele>394.4</ele>
        <time>2018-03-30T07:16:17Z</time>
      </trkpt>
      <trkpt lat="38.4567820" lon="-0.6372940">
        <ele>394.5</ele>
        <time>2018-03-30T07:16:18Z</time>
      </trkpt>
      <trkpt lat="38.4568190" lon="-0.6373400">
        <ele>394.7</ele>
        <time>2018-03-30T07:16:19Z</time>
      </trkpt>
      <trkpt lat="38.4568560" lon="-0.6373870">
        <ele>394.8</ele>
        <time>2018-03-30T07:16:20Z</time>
      </trkpt>
      <trkpt lat="38.4568920" lon="-0.6374340">
        <ele>394.9</ele>
        <time>2018-03-30T07:16:21Z</time>
      </trkpt>
      <trkpt lat="38.4569290" lon="-0.6374800">
        <ele>395.1</ele>
        <time>2018-03-30T07:16:22Z</time>
      </trkpt>
      <trkpt lat="38.4569660" lon="-0.6375250">
        <ele>395.3</ele>
        <time>2018-03-30T07:16:23Z</time>
      </trkpt>
      <trkpt lat="38.4570030" lon="-0.6375710">
        <ele>395.6</ele>
        <time>2018-03-30T07:16:24Z</time>
      </trkpt>
      <trkpt lat="38.4570390" lon="-0.6376160">
        <ele>395.8</ele>
        <time>2018-03-30T07:16:25Z</time>
      </trkpt>
      <trkpt lat="38.4570750" lon="-0.6376610">
        <ele>396.0</ele>
        <time>2018-03-30T07:16:26Z</time>
      </trkpt>
      <trkpt lat="38.4571110" lon="-0.6377060">
        <ele>396.1</ele>
        <time>2018-03-30T07:16:27Z</time>
      </trkpt>
      <trkpt lat="38.4571480" lon="-0.6377490">
        <ele>396.3</ele>
        <time>2018-03-30T07:16:28Z</time>
      </trkpt>
      <trkpt lat="38.4571860" lon="-0.6377940">
        <ele>396.4</ele>
        <time>2018-03-30T07:16:29Z</time>
      </trkpt>
      <trkpt lat="38.4572230" lon="-0.6378390">
        <ele>396.6</ele>
        <time>2018-03-30T07:16:30Z</time>
      </trkpt>
      <trkpt lat="38.4572600" lon="-0.6378830">
        <ele>396.7</ele>
        <time>2018-03-30T07:16:31Z</time>
      </trkpt>
      <trkpt lat="38.4572970" lon="-0.6379260">
        <ele>396.8</ele>
        <time>2018-03-30T07:16:32Z</time>
      </trkpt>
      <trkpt lat="38.4573330" lon="-0.6379700">
        <ele>396.9</ele>
        <time>2018-03-30T07:16:33Z</time>
      </trkpt>
      <trkpt lat="38.4573720" lon="-0.6380100">
        <ele>397.0</ele>
        <time>2018-03-30T07:16:34Z</time>
      </trkpt>
      <trkpt lat="38.4574120" lon="-0.6380480">
        <ele>397.1</ele>
        <time>2018-03-30T07:16:35Z</time>
      </trkpt>
      <trkpt lat="38.4574550" lon="-0.6380830">
        <ele>397.3</ele>
        <time>2018-03-30T07:16:36Z</time>
      </trkpt>
      <trkpt lat="38.4575020" lon="-0.6381130">
        <ele>397.4</ele>
        <time>2018-03-30T07:16:37Z</time>
      </trkpt>
      <trkpt lat="38.4575560" lon="-0.6381380">
        <ele>397.7</ele>
        <time>2018-03-30T07:16:38Z</time>
      </trkpt>
      <trkpt lat="38.4576130" lon="-0.6381550">
        <ele>398.0</ele>
        <time>2018-03-30T07:16:39Z</time>
      </trkpt>
      <trkpt lat="38.4576740" lon="-0.6381660">
        <ele>398.4</ele>
        <time>2018-03-30T07:16:40Z</time>
      </trkpt>
      <trkpt lat="38.4577320" lon="-0.6381730">
        <ele>398.7</ele>
        <time>2018-03-30T07:16:41Z</time>
      </trkpt>
      <trkpt lat="38.4577900" lon="-0.6381780">
        <ele>399.1</ele>
        <time>2018-03-30T07:16:42Z</time>
      </trkpt>
      <trkpt lat="38.4578470" lon="-0.6381810">
        <ele>399.4</ele>
        <time>2018-03-30T07:16:43Z</time>
      </trkpt>
      <trkpt lat="38.4579030" lon="-0.6381830">
        <ele>399.7</ele>
        <time>2018-03-30T07:16:44Z</time>
      </trkpt>
      <trkpt lat="38.4579620" lon="-0.6381860">
        <ele>400.1</ele>
        <time>2018-03-30T07:16:45Z</time>
      </trkpt>
      <trkpt lat="38.4580220" lon="-0.6381880">
        <ele>400.4</ele>
        <time>2018-03-30T07:16:46Z</time>
      </trkpt>
      <trkpt lat="38.4580790" lon="-0.6381910">
        <ele>400.8</ele>
        <time>2018-03-30T07:16:47Z</time>
      </trkpt>
      <trkpt lat="38.4581360" lon="-0.6381950">
        <ele>401.1</ele>
        <time>2018-03-30T07:16:48Z</time>
      </trkpt>
      <trkpt lat="38.4581940" lon="-0.6382000">
        <ele>401.4</ele>
        <time>2018-03-30T07:16:49Z</time>
      </trkpt>
      <trkpt lat="38.4582490" lon="-0.6382130">
        <ele>401.8</ele>
        <time>2018-03-30T07:16:50Z</time>
      </trkpt>
      <trkpt lat="38.4583050" lon="-0.6382270">
        <ele>402.1</ele>
        <time>2018-03-30T07:16:51Z</time>
      </trkpt>
      <trkpt lat="38.4583610" lon="-0.6382430">
        <ele>402.5</ele>
        <time>2018-03-30T07:16:52Z</time>
      </trkpt>
      <trkpt lat="38.4584160" lon="-0.6382590">
        <ele>402.8</ele>
        <time>2018-03-30T07:16:53Z</time>
      </trkpt>
      <trkpt lat="38.4584710" lon="-0.6382780">
        <ele>403.1</ele>
        <time>2018-03-30T07:16:54Z</time>
      </trkpt>
      <trkpt lat="38.4585230" lon="-0.6382960">
        <ele>403.4</ele>
        <time>2018-03-30T07:16:55Z</time>
      </trkpt>
      <trkpt lat="38.4585700" lon="-0.6383180">
        <ele>403.7</ele>
        <time>2018-03-30T07:16:56Z</time>
      </trkpt>
      <trkpt lat="38.4586150" lon="-0.6383410">
        <ele>404.0</ele>
        <time>2018-03-30T07:16:57Z</time>
      </trkpt>
      <trkpt lat="38.4586580" lon="-0.6383610">
        <ele>404.3</ele>
        <time>2018-03-30T07:16:58Z</time>
      </trkpt>
      <trkpt lat="38.4586980" lon="-0.6383830">
        <ele>404.5</ele>
        <time>2018-03-30T07:16:59Z</time>
      </trkpt>
      <trkpt lat="38.4587410" lon="-0.6384030">
        <ele>404.7</ele>
        <time>2018-03-30T07:17:00Z</time>
      </trkpt>
      <trkpt lat="38.4587880" lon="-0.6384220">
        <ele>405.0</ele>
        <time>2018-03-30T07:17:01Z</time>
      </trkpt>
      <trkpt lat="38.4588350" lon="-0.6384390">
        <ele>405.2</ele>
        <time>2018-03-30T07:17:02Z</time>
      </trkpt>
      <trkpt lat="38.4588800" lon="-0.6384490">
        <ele>405.5</ele>
        <time>2018-03-30T07:17:03Z</time>
      </trkpt>
      <trkpt lat="38.4589260" lon="-0.6384550">
        <ele>405.7</ele>
        <time>2018-03-30T07:17:04Z</time>
      </trkpt>
      <trkpt lat="38.4589730" lon="-0.6384490">
        <ele>405.9</ele>
        <time>2018-03-30T07:17:05Z</time>
      </trkpt>
      <trkpt lat="38.4590190" lon="-0.6384380">
        <ele>406.1</ele>
        <time>2018-03-30T07:17:06Z</time>
      </trkpt>
      <trkpt lat="38.4590620" lon="-0.6384270">
        <ele>406.3</ele>
        <time>2018-03-30T07:17:07Z</time>
      </trkpt>
      <trkpt lat="38.4591080" lon="-0.6384050">
        <ele>406.5</ele>
        <time>2018-03-30T07:17:08Z</time>
      </trkpt>
      <trkpt lat="38.4591500" lon="-0.6383810">
        <ele>406.6</ele>
        <time>2018-03-30T07:17:09Z</time>
      </trkpt>
      <trkpt lat="38.4591940" lon="-0.6383580">
        <ele>406.8</ele>
        <time>2018-03-30T07:17:10Z</time>
      </trkpt>
      <trkpt lat="38.4592380" lon="-0.6383370">
        <ele>406.9</ele>
        <time>2018-03-30T07:17:11Z</time>
      </trkpt>
      <trkpt lat="38.4592810" lon="-0.6383120">
        <ele>407.0</ele>
        <time>2018-03-30T07:17:12Z</time>
      </trkpt>
      <trkpt lat="38.4593210" lon="-0.6382890">
        <ele>407.1</ele>
        <time>2018-03-30T07:17:13Z</time>
      </trkpt>
      <trkpt lat="38.4593640" lon="-0.6382700">
        <ele>407.3</ele>
        <time>2018-03-30T07:17:14Z</time>
      </trkpt>
      <trkpt lat="38.4594060" lon="-0.6382490">
        <ele>407.5</ele>
        <time>2018-03-30T07:17:15Z</time>
      </trkpt>
      <trkpt lat="38.4594470" lon="-0.6382250">
        <ele>407.6</ele>
        <time>2018-03-30T07:17:16Z</time>
      </trkpt>
      <trkpt lat="38.4594880" lon="-0.6382030">
        <ele>407.8</ele>
        <time>2018-03-30T07:17:17Z</time>
      </trkpt>
      <trkpt lat="38.4595280" lon="-0.6381830">
        <ele>408.0</ele>
        <time>2018-03-30T07:17:18Z</time>
      </trkpt>
      <trkpt lat="38.4595670" lon="-0.6381600">
        <ele>408.2</ele>
        <time>2018-03-30T07:17:19Z</time>
      </trkpt>
      <trkpt lat="38.4596050" lon="-0.6381380">
        <ele>408.4</ele>
        <time>2018-03-30T07:17:20Z</time>
      </trkpt>
      <trkpt lat="38.4596450" lon="-0.6381110">
        <ele>408.6</ele>
        <time>2018-03-30T07:17:21Z</time>
      </trkpt>
      <trkpt lat="38.4596830" lon="-0.6380780">
        <ele>408.9</ele>
        <time>2018-03-30T07:17:22Z</time>
      </trkpt>
      <trkpt lat="38.4597210" lon="-0.6380390">
        <ele>409.1</ele>
        <time>2018-03-30T07:17:23Z</time>
      </trkpt>
      <trkpt lat="38.4597610" lon="-0.6379920">
        <ele>409.4</ele>
        <time>2018-03-30T07:17:24Z</time>
      </trkpt>
      <trkpt lat="38.4597960" lon="-0.6379410">
        <ele>409.6</ele>
        <time>2018-03-30T07:17:25Z</time>
      </trkpt>
      <trkpt lat="38.4598250" lon="-0.6378880">
        <ele>409.9</ele>
        <time>2018-03-30T07:17:26Z</time>
      </trkpt>
      <trkpt lat="38.4598490" lon="-0.6378310">
        <ele>410.1</ele>
        <time>2018-03-30T07:17:27Z</time>
      </trkpt>
      <trkpt lat="38.4598680" lon="-0.6377730">
        <ele>410.4</ele>
        <time>2018-03-30T07:17:28Z</time>
      </trkpt>
      <trkpt lat="38.4598820" lon="-0.6377140">
        <ele>410.6</ele>
        <time>2018-03-30T07:17:29Z</time>
      </trkpt>
      <trkpt lat="38.4598940" lon="-0.6376520">
        <ele>410.8</ele>
        <time>2018-03-30T07:17:30Z</time>
      </trkpt>
      <trkpt lat="38.4599050" lon="-0.6375880">
        <ele>411.1</ele>
        <time>2018-03-30T07:17:31Z</time>
      </trkpt>
      <trkpt lat="38.4599160" lon="-0.6375220">
        <ele>411.3</ele>
        <time>2018-03-30T07:17:32Z</time>
      </trkpt>
      <trkpt lat="38.4599270" lon="-0.6374560">
        <ele>411.6</ele>
        <time>2018-03-30T07:17:33Z</time>
      </trkpt>
      <trkpt lat="38.4599360" lon="-0.6373890">
        <ele>411.8</ele>
        <time>2018-03-30T07:17:34Z</time>
      </trkpt>
      <trkpt lat="38.4599470" lon="-0.6373250">
        <ele>412.1</ele>
        <time>2018-03-30T07:17:35Z</time>
      </trkpt>
      <trkpt lat="38.4599560" lon="-0.6372630">
        <ele>412.3</ele>
        <time>2018-03-30T07:17:36Z</time>
      </trkpt>
      <trkpt lat="38.4599660" lon="-0.6372020">
        <ele>412.5</ele>
        <time>2018-03-30T07:17:37Z</time>
      </trkpt>
      <trkpt lat="38.4599740" lon="-0.6371410">
        <ele>412.8</ele>
        <time>2018-03-30T07:17:38Z</time>
      </trkpt>
      <trkpt lat="38.4599830" lon="-0.6370810">
        <ele>413.0</ele>
        <time>2018-03-30T07:17:39Z</time>
      </trkpt>
      <trkpt lat="38.4599930" lon="-0.6370230">
        <ele>413.2</ele>
        <time>2018-03-30T07:17:40Z</time>
      </trkpt>
      <trkpt lat="38.4600020" lon="-0.6369670">
        <ele>413.4</ele>
        <time>2018-03-30T07:17:41Z</time>
      </trkpt>
      <trkpt lat="38.4600140" lon="-0.6369100">
        <ele>413.7</ele>
        <time>2018-03-30T07:17:42Z</time>
      </trkpt>
      <trkpt lat="38.4600240" lon="-0.6368510">
        <ele>413.9</ele>
        <time>2018-03-30T07:17:43Z</time>
      </trkpt>
      <trkpt lat="38.4600350" lon="-0.6367910">
        <ele>414.1</ele>
        <time>2018-03-30T07:17:44Z</time>
      </trkpt>
      <trkpt lat="38.4600450" lon="-0.6367310">
        <ele>414.4</ele>
        <time>2018-03-30T07:17:45Z</time>
      </trkpt>
      <trkpt lat="38.4600550" lon="-0.6366700">
        <ele>414.6</ele>
        <time>2018-03-30T07:17:46Z</time>
      </trkpt>
      <trkpt lat="38.4600640" lon="-0.6366120">
        <ele>414.9</ele>
        <time>2018-03-30T07:17:47Z</time>
      </trkpt>
      <trkpt lat="38.4600750" lon="-0.6365540">
        <ele>415.1</ele>
        <time>2018-03-30T07:17:48Z</time>
      </trkpt>
      <trkpt lat="38.4600870" lon="-0.6364970">
        <ele>415.4</ele>
        <time>2018-03-30T07:17:49Z</time>
      </trkpt>
      <trkpt lat="38.4601010" lon="-0.6364410">
        <ele>415.7</ele>
        <time>2018-03-30T07:17:50Z</time>
      </trkpt>
      <trkpt lat="38.4601170" lon="-0.6363850">
        <ele>415.9</ele>
        <time>2018-03-30T07:17:51Z</time>
      </trkpt>
      <trkpt lat="38.4601370" lon="-0.6363320">
        <ele>416.2</ele>
        <time>2018-03-30T07:17:52Z</time>
      </trkpt>
      <trkpt lat="38.4601610" lon="-0.6362780">
        <ele>416.5</ele>
        <time>2018-03-30T07:17:53Z</time>
      </trkpt>
      <trkpt lat="38.4601880" lon="-0.6362260">
        <ele>416.8</ele>
        <time>2018-03-30T07:17:54Z</time>
      </trkpt>
      <trkpt lat="38.4602180" lon="-0.6361760">
        <ele>417.1</ele>
        <time>2018-03-30T07:17:55Z</time>
      </trkpt>
      <trkpt lat="38.4602530" lon="-0.6361280">
        <ele>417.4</ele>
        <time>2018-03-30T07:17:56Z</time>
      </trkpt>
      <trkpt lat="38.4602910" lon="-0.6360810">
        <ele>417.7</ele>
        <time>2018-03-30T07:17:57Z</time>
      </trkpt>
      <trkpt lat="38.4603350" lon="-0.6360360">
        <ele>418.0</ele>
        <time>2018-03-30T07:17:58Z</time>
      </trkpt>
      <trkpt lat="38.4603790" lon="-0.6359940">
        <ele>418.3</ele>
        <time>2018-03-30T07:17:59Z</time>
      </trkpt>
      <trkpt lat="38.4604230" lon="-0.6359560">
        <ele>418.6</ele>
        <time>2018-03-30T07:18:00Z</time>
      </trkpt>
      <trkpt lat="38.4604690" lon="-0.6359210">
        <ele>418.9</ele>
        <time>2018-03-30T07:18:01Z</time>
      </trkpt>
      <trkpt lat="38.4605160" lon="-0.6358880">
        <ele>419.2</ele>
        <time>2018-03-30T07:18:02Z</time>
      </trkpt>
      <trkpt lat="38.4605650" lon="-0.6358560">
        <ele>419.5</ele>
        <time>2018-03-30T07:18:03Z</time>
      </trkpt>
      <trkpt lat="38.4606150" lon="-0.6358260">
        <ele>419.9</ele>
        <time>2018-03-30T07:18:04Z</time>
      </trkpt>
      <trkpt lat="38.4606650" lon="-0.6357990">
        <ele>420.2</ele>
        <time>2018-03-30T07:18:05Z</time>
      </trkpt>
      <trkpt lat="38.4607160" lon="-0.6357760">
        <ele>420.5</ele>
        <time>2018-03-30T07:18:06Z</time>
      </trkpt>
      <trkpt lat="38.4607690" lon="-0.6357590">
        <ele>420.8</ele>
        <time>2018-03-30T07:18:07Z</time>
      </trkpt>
      <trkpt lat="38.4608220" lon="-0.6357510">
        <ele>421.1</ele>
        <time>2018-03-30T07:18:08Z</time>
      </trkpt>
      <trkpt lat="38.4608760" lon="-0.6357500">
        <ele>421.4</ele>
        <time>2018-03-30T07:18:09Z</time>
      </trkpt>
      <trkpt lat="38.4609280" lon="-0.6357570">
        <ele>421.7</ele>
        <time>2018-03-30T07:18:10Z</time>
      </trkpt>
      <trkpt lat="38.4609780" lon="-0.6357680">
        <ele>422.0</ele>
        <time>2018-03-30T07:18:11Z</time>
      </trkpt>
      <trkpt lat="38.4610240" lon="-0.6357830">
        <ele>422.3</ele>
        <time>2018-03-30T07:18:12Z</time>
      </trkpt>
      <trkpt lat="38.4610710" lon="-0.6358010">
        <ele>422.6</ele>
        <time>2018-03-30T07:18:13Z</time>
      </trkpt>
      <trkpt lat="38.4611180" lon="-0.6358200">
        <ele>422.9</ele>
        <time>2018-03-30T07:18:14Z</time>
      </trkpt>
      <trkpt lat="38.4611650" lon="-0.6358440">
        <ele>423.2</ele>
        <time>2018-03-30T07:18:15Z</time>
      </trkpt>
      <trkpt lat="38.4612100" lon="-0.6358690">
        <ele>423.6</ele>
        <time>2018-03-30T07:18:16Z</time>
      </trkpt>
      <trkpt lat="38.4612560" lon="-0.6358940">
        <ele>423.9</ele>
        <time>2018-03-30T07:18:17Z</time>
      </trkpt>
      <trkpt lat="38.4613040" lon="-0.6359200">
        <ele>424.3</ele>
        <time>2018-03-30T07:18:18Z</time>
      </trkpt>
      <trkpt lat="38.4613510" lon="-0.6359460">
        <ele>424.6</ele>
        <time>2018-03-30T07:18:19Z</time>
      </trkpt>
      <trkpt lat="38.4613980" lon="-0.6359730">
        <ele>425.0</ele>
        <time>2018-03-30T07:18:20Z</time>
      </trkpt>
      <trkpt lat="38.4614460" lon="-0.6360000">
        <ele>425.4</ele>
        <time>2018-03-30T07:18:21Z</time>
      </trkpt>
      <trkpt lat="38.4614940" lon="-0.6360260">
        <ele>425.7</ele>
        <time>2018-03-30T07:18:22Z</time>
      </trkpt>
      <trkpt lat="38.4615410" lon="-0.6360530">
        <ele>426.1</ele>
        <time>2018-03-30T07:18:23Z</time>
      </trkpt>
      <trkpt lat="38.4615880" lon="-0.6360800">
        <ele>426.4</ele>
        <time>2018-03-30T07:18:24Z</time>
      </trkpt>
      <trkpt lat="38.4616350" lon="-0.6361070">
        <ele>426.7</ele>
        <time>2018-03-30T07:18:25Z</time>
      </trkpt>
      <trkpt lat="38.4616800" lon="-0.6361350">
        <ele>427.0</ele>
        <time>2018-03-30T07:18:26Z</time>
      </trkpt>
      <trkpt lat="38.4617250" lon="-0.6361610">
        <ele>427.3</ele>
        <time>2018-03-30T07:18:27Z</time>
      </trkpt>
      <trkpt lat="38.4617700" lon="-0.6361870">
        <ele>427.5</ele>
        <time>2018-03-30T07:18:28Z</time>
      </trkpt>
      <trkpt lat="38.4618140" lon="-0.6362120">
        <ele>427.8</ele>
        <time>2018-03-30T07:18:29Z</time>
      </trkpt>
      <trkpt lat="38.4618570" lon="-0.6362360">
        <ele>428.0</ele>
        <time>2018-03-30T07:18:30Z</time>
      </trkpt>
      <trkpt lat="38.4618990" lon="-0.6362590">
        <ele>428.3</ele>
        <time>2018-03-30T07:18:31Z</time>
      </trkpt>
      <trkpt lat="38.4619380" lon="-0.6362810">
        <ele>428.5</ele>
        <time>2018-03-30T07:18:32Z</time>
      </trkpt>
      <trkpt lat="38.4619780" lon="-0.6363040">
        <ele>428.7</ele>
        <time>2018-03-30T07:18:33Z</time>
      </trkpt>
      <trkpt lat="38.4620180" lon="-0.6363280">
        <ele>428.9</ele>
        <time>2018-03-30T07:18:34Z</time>
      </trkpt>
      <trkpt lat="38.4620580" lon="-0.6363540">
        <ele>429.1</ele>
        <time>2018-03-30T07:18:35Z</time>
      </trkpt>
      <trkpt lat="38.4620980" lon="-0.6363820">
        <ele>429.4</ele>
        <time>2018-03-30T07:18:36Z</time>
      </trkpt>
      <trkpt lat="38.4621360" lon="-0.6364090">
        <ele>429.6</ele>
        <time>2018-03-30T07:18:37Z</time>
      </trkpt>
      <trkpt lat="38.4621740" lon="-0.6364400">
        <ele>429.8</ele>
        <time>2018-03-30T07:18:38Z</time>
      </trkpt>
      <trkpt lat="38.4622110" lon="-0.6364760">
        <ele>430.0</ele>
        <time>2018-03-30T07:18:39Z</time>
      </trkpt>
      <trkpt lat="38.4622470" lon="-0.6365090">
        <ele>430.2</ele>
        <time>2018-03-30T07:18:40Z</time>
      </trkpt>
      <trkpt lat="38.4622830" lon="-0.6365440">
        <ele>430.5</ele>
        <time>2018-03-30T07:18:41Z</time>
      </trkpt>
      <trkpt lat="38.4623200" lon="-0.6365800">
        <ele>430.7</ele>
        <time>2018-03-30T07:18:42Z</time>
      </trkpt>
      <trkpt lat="38.4623550" lon="-0.6366150">
        <ele>430.9</ele>
        <time>2018-03-30T07:18:43Z</time>
      </trkpt>
      <trkpt lat="38.4623900" lon="-0.6366510">
        <ele>431.1</ele>
        <time>2018-03-30T07:18:44Z</time>
      </trkpt>
      <trkpt lat="38.4624240" lon="-0.6366850">
        <ele>431.4</ele>
        <time>2018-03-30T07:18:45Z</time>
      </trkpt>
      <trkpt lat="38.4624580" lon="-0.6367210">
        <ele>431.6</ele>
        <time>2018-03-30T07:18:46Z</time>
      </trkpt>
      <trkpt lat="38.4624920" lon="-0.6367550">
        <ele>431.8</ele>
        <time>2018-03-30T07:18:47Z</time>
      </trkpt>
      <trkpt lat="38.4625250" lon="-0.6367900">
        <ele>432.1</ele>
        <time>2018-03-30T07:18:48Z</time>
      </trkpt>
      <trkpt lat="38.4625600" lon="-0.6368250">
        <ele>432.3</ele>
        <time>2018-03-30T07:18:49Z</time>
      </trkpt>
      <trkpt lat="38.4625930" lon="-0.6368610">
        <ele>432.5</ele>
        <time>2018-03-30T07:18:50Z</time>
      </trkpt>
      <trkpt lat="38.4626260" lon="-0.6368960">
        <ele>432.8</ele>
        <time>2018-03-30T07:18:51Z</time>
      </trkpt>
      <trkpt lat="38.4626600" lon="-0.6369310">
        <ele>433.0</ele>
        <time>2018-03-30T07:18:52Z</time>
      </trkpt>
      <trkpt lat="38.4626940" lon="-0.6369650">
        <ele>433.2</ele>
        <time>2018-03-30T07:18:53Z</time>
      </trkpt>
      <trkpt lat="38.4627260" lon="-0.6369990">
        <ele>433.4</ele>
        <time>2018-03-30T07:18:54Z</time>
      </trkpt>
      <trkpt lat="38.4627570" lon="-0.6370320">
        <ele>433.6</ele>
        <time>2018-03-30T07:18:55Z</time>
      </trkpt>
      <trkpt lat="38.4627880" lon="-0.6370640">
        <ele>433.9</ele>
        <time>2018-03-30T07:18:56Z</time>
      </trkpt>
      <trkpt lat="38.4628180" lon="-0.6370970">
        <ele>434.0</ele>
        <time>2018-03-30T07:18:57Z</time>
      </trkpt>
      <trkpt lat="38.4628490" lon="-0.6371280">
        <ele>434.2</ele>
        <time>2018-03-30T07:18:58Z</time>
      </trkpt>
      <trkpt lat="38.4628800" lon="-0.6371590">
        <ele>434.4</ele>
        <time>2018-03-30T07:18:59Z</time>
      </trkpt>
      <trkpt lat="38.4629110" lon="-0.6371910">
        <ele>434.6</ele>
        <time>2018-03-30T07:19:00Z</time>
      </trkpt>
      <trkpt lat="38.4629420" lon="-0.6372250">
        <ele>434.8</ele>
        <time>2018-03-30T07:19:01Z</time>
      </trkpt>
      <trkpt lat="38.4629730" lon="-0.6372590">
        <ele>435.0</ele>
        <time>2018-03-30T07:19:02Z</time>
      </trkpt>
      <trkpt lat="38.4630050" lon="-0.6372920">
        <ele>435.2</ele>
        <time>2018-03-30T07:19:03Z</time>
      </trkpt>
      <trkpt lat="38.4630370" lon="-0.6373250">
        <ele>435.4</ele>
        <time>2018-03-30T07:19:04Z</time>
      </trkpt>
      <trkpt lat="38.4630680" lon="-0.6373560">
        <ele>435.6</ele>
        <time>2018-03-30T07:19:05Z</time>
      </trkpt>
      <trkpt lat="38.4630990" lon="-0.6373880">
        <ele>435.8</ele>
        <time>2018-03-30T07:19:06Z</time>
      </trkpt>
      <trkpt lat="38.4631300" lon="-0.6374210">
        <ele>436.0</ele>
        <time>2018-03-30T07:19:07Z</time>
      </trkpt>
      <trkpt lat="38.4631610" lon="-0.6374530">
        <ele>436.2</ele>
        <time>2018-03-30T07:19:08Z</time>
      </trkpt>
      <trkpt lat="38.4631920" lon="-0.6374860">
        <ele>436.4</ele>
        <time>2018-03-30T07:19:09Z</time>
      </trkpt>
      <trkpt lat="38.4632240" lon="-0.6375190">
        <ele>436.6</ele>
        <time>2018-03-30T07:19:10Z</time>
      </trkpt>
      <trkpt lat="38.4632560" lon="-0.6375520">
        <ele>436.8</ele>
        <time>2018-03-30T07:19:11Z</time>
      </trkpt>
      <trkpt lat="38.4632890" lon="-0.6375870">
        <ele>437.0</ele>
        <time>2018-03-30T07:19:12Z</time>
      </trkpt>
      <trkpt lat="38.4633230" lon="-0.6376220">
        <ele>437.2</ele>
        <time>2018-03-30T07:19:13Z</time>
      </trkpt>
      <trkpt lat="38.4633560" lon="-0.6376580">
        <ele>437.4</ele>
        <time>2018-03-30T07:19:14Z</time>
      </trkpt>
      <trkpt lat="38.4633890" lon="-0.6376930">
        <ele>437.5</ele>
        <time>2018-03-30T07:19:15Z</time>
      </trkpt>
      <trkpt lat="38.4634220" lon="-0.6377280">
        <ele>437.7</ele>
        <time>2018-03-30T07:19:16Z</time>
      </trkpt>
      <trkpt lat="38.4634560" lon="-0.6377630">
        <ele>437.9</ele>
        <time>2018-03-30T07:19:17Z</time>
      </trkpt>
      <trkpt lat="38.4634910" lon="-0.6377980">
        <ele>438.1</ele>
        <time>2018-03-30T07:19:18Z</time>
      </trkpt>
      <trkpt lat="38.4635240" lon="-0.6378310">
        <ele>438.3</ele>
        <time>2018-03-30T07:19:19Z</time>
      </trkpt>
      <trkpt lat="38.4635580" lon="-0.6378640">
        <ele>438.5</ele>
        <time>2018-03-30T07:19:20Z</time>
      </trkpt>
      <trkpt lat="38.4635920" lon="-0.6378980">
        <ele>438.7</ele>
        <time>2018-03-30T07:19:21Z</time>
      </trkpt>
      <trkpt lat="38.4636250" lon="-0.6379320">
        <ele>438.9</ele>
        <time>2018-03-30T07:19:22Z</time>
      </trkpt>
      <trkpt lat="38.4636570" lon="-0.6379670">
        <ele>439.1</ele>
        <time>2018-03-30T07:19:23Z</time>
      </trkpt>
      <trkpt lat="38.4636890" lon="-0.6380020">
        <ele>439.3</ele>
        <time>2018-03-30T07:19:24Z</time>
      </trkpt>
      <trkpt lat="38.4637220" lon="-0.6380360">
        <ele>439.5</ele>
        <time>2018-03-30T07:19:25Z</time>
      </trkpt>
      <trkpt lat="38.4637570" lon="-0.6380680">
        <ele>439.7</ele>
        <time>2018-03-30T07:19:26Z</time>
      </trkpt>
      <trkpt lat="38.4637910" lon="-0.6381000">
        <ele>439.9</ele>
        <time>2018-03-30T07:19:27Z</time>
      </trkpt>
      <trkpt lat="38.4638260" lon="-0.6381300">
        <ele>440.1</ele>
        <time>2018-03-30T07:19:28Z</time>
      </trkpt>
      <trkpt lat="38.4638610" lon="-0.6381580">
        <ele>440.3</ele>
        <time>2018-03-30T07:19:29Z</time>
      </trkpt>
      <trkpt lat="38.4638970" lon="-0.6381890">
        <ele>440.5</ele>
        <time>2018-03-30T07:19:30Z</time>
      </trkpt>
      <trkpt lat="38.4639320" lon="-0.6382180">
        <ele>440.7</ele>
        <time>2018-03-30T07:19:31Z</time>
      </trkpt>
      <trkpt lat="38.4639680" lon="-0.6382470">
        <ele>440.9</ele>
        <time>2018-03-30T07:19:32Z</time>
      </trkpt>
      <trkpt lat="38.4640050" lon="-0.6382750">
        <ele>441.1</ele>
        <time>2018-03-30T07:19:33Z</time>
      </trkpt>
      <trkpt lat="38.4640440" lon="-0.6383060">
        <ele>441.3</ele>
        <time>2018-03-30T07:19:34Z</time>
      </trkpt>
      <trkpt lat="38.4640830" lon="-0.6383360">
        <ele>441.5</ele>
        <time>2018-03-30T07:19:35Z</time>
      </trkpt>
      <trkpt lat="38.4641220" lon="-0.6383650">
        <ele>441.7</ele>
        <time>2018-03-30T07:19:36Z</time>
      </trkpt>
      <trkpt lat="38.4641590" lon="-0.6383940">
        <ele>441.8</ele>
        <time>2018-03-30T07:19:37Z</time>
      </trkpt>
      <trkpt lat="38.4641950" lon="-0.6384230">
        <ele>441.9</ele>
        <time>2018-03-30T07:19:38Z</time>
      </trkpt>
      <trkpt lat="38.4642290" lon="-0.6384550">
        <ele>442.0</ele>
        <time>2018-03-30T07:19:39Z</time>
      </trkpt>
      <trkpt lat="38.4642610" lon="-0.6384860">
        <ele>442.1</ele>
        <time>2018-03-30T07:19:40Z</time>
      </trkpt>
      <trkpt lat="38.4642940" lon="-0.6385190">
        <ele>442.2</ele>
        <time>2018-03-30T07:19:41Z</time>
      </trkpt>
      <trkpt lat="38.4643260" lon="-0.6385540">
        <ele>442.2</ele>
        <time>2018-03-30T07:19:42Z</time>
      </trkpt>
      <trkpt lat="38.4643560" lon="-0.6385920">
        <ele>442.4</ele>
        <time>2018-03-30T07:19:43Z</time>
      </trkpt>
      <trkpt lat="38.4643820" lon="-0.6386320">
        <ele>442.5</ele>
        <time>2018-03-30T07:19:44Z</time>
      </trkpt>
      <trkpt lat="38.4644070" lon="-0.6386760">
        <ele>442.6</ele>
        <time>2018-03-30T07:19:45Z</time>
      </trkpt>
      <trkpt lat="38.4644280" lon="-0.6387230">
        <ele>442.7</ele>
        <time>2018-03-30T07:19:46Z</time>
      </trkpt>
      <trkpt lat="38.4644470" lon="-0.6387680">
        <ele>442.8</ele>
        <time>2018-03-30T07:19:47Z</time>
      </trkpt>
      <trkpt lat="38.4644620" lon="-0.6388140">
        <ele>443.0</ele>
        <time>2018-03-30T07:19:48Z</time>
      </trkpt>
      <trkpt lat="38.4644790" lon="-0.6388570">
        <ele>443.1</ele>
        <time>2018-03-30T07:19:49Z</time>
      </trkpt>
      <trkpt lat="38.4644950" lon="-0.6389020">
        <ele>443.2</ele>
        <time>2018-03-30T07:19:50Z</time>
      </trkpt>
      <trkpt lat="38.4645140" lon="-0.6389470">
        <ele>443.4</ele>
        <time>2018-03-30T07:19:51Z</time>
      </trkpt>
      <trkpt lat="38.4645350" lon="-0.6389940">
        <ele>443.6</ele>
        <time>2018-03-30T07:19:52Z</time>
      </trkpt>
      <trkpt lat="38.4645560" lon="-0.6390420">
        <ele>443.8</ele>
        <time>2018-03-30T07:19:53Z</time>
      </trkpt>
      <trkpt lat="38.4645810" lon="-0.6390920">
        <ele>444.0</ele>
        <time>2018-03-30T07:19:54Z</time>
      </trkpt>
      <trkpt lat="38.4646130" lon="-0.6391360">
        <ele>444.2</ele>
        <time>2018-03-30T07:19:55Z</time>
      </trkpt>
      <trkpt lat="38.4646450" lon="-0.6391780">
        <ele>444.4</ele>
        <time>2018-03-30T07:19:56Z</time>
      </trkpt>
      <trkpt lat="38.4646760" lon="-0.6392200">
        <ele>444.6</ele>
        <time>2018-03-30T07:19:57Z</time>
      </trkpt>
      <trkpt lat="38.4647100" lon="-0.6392620">
        <ele>444.9</ele>
        <time>2018-03-30T07:19:58Z</time>
      </trkpt>
      <trkpt lat="38.4647420" lon="-0.6393050">
        <ele>445.1</ele>
        <time>2018-03-30T07:19:59Z</time>
      </trkpt>
      <trkpt lat="38.4647740" lon="-0.6393480">
        <ele>445.3</ele>
        <time>2018-03-30T07:20:00Z</time>
      </trkpt>
      <trkpt lat="38.4648060" lon="-0.6393900">
        <ele>445.5</ele>
        <time>2018-03-30T07:20:01Z</time>
      </trkpt>
      <trkpt lat="38.4648390" lon="-0.6394320">
        <ele>445.7</ele>
        <time>2018-03-30T07:20:02Z</time>
      </trkpt>
      <trkpt lat="38.4648710" lon="-0.6394740">
        <ele>446.0</ele>
        <time>2018-03-30T07:20:03Z</time>
      </trkpt>
      <trkpt lat="38.4649040" lon="-0.6395150">
        <ele>446.2</ele>
        <time>2018-03-30T07:20:04Z</time>
      </trkpt>
      <trkpt lat="38.4649400" lon="-0.6395560">
        <ele>446.4</ele>
        <time>2018-03-30T07:20:05Z</time>
      </trkpt>
      <trkpt lat="38.4649760" lon="-0.6395950">
        <ele>446.7</ele>
        <time>2018-03-30T07:20:06Z</time>
      </trkpt>
      <trkpt lat="38.4650130" lon="-0.6396320">
        <ele>446.9</ele>
        <time>2018-03-30T07:20:07Z</time>
      </trkpt>
      <trkpt lat="38.4650500" lon="-0.6396670">
        <ele>447.1</ele>
        <time>2018-03-30T07:20:08Z</time>
      </trkpt>
      <trkpt lat="38.4650920" lon="-0.6396980">
        <ele>447.3</ele>
        <time>2018-03-30T07:20:09Z</time>
      </trkpt>
      <trkpt lat="38.4651350" lon="-0.6397240">
        <ele>447.5</ele>
        <time>2018-03-30T07:20:10Z</time>
      </trkpt>
      <trkpt lat="38.4651800" lon="-0.6397450">
        <ele>447.8</ele>
        <time>2018-03-30T07:20:11Z</time>
      </trkpt>
      <trkpt lat="38.4652250" lon="-0.6397610">
        <ele>448.0</ele>
        <time>2018-03-30T07:20:12Z</time>
      </trkpt>
      <trkpt lat="38.4652720" lon="-0.6397760">
        <ele>448.2</ele>
        <time>2018-03-30T07:20:13Z</time>
      </trkpt>
      <trkpt lat="38.4653190" lon="-0.6397890">
        <ele>448.4</ele>
        <time>2018-03-30T07:20:14Z</time>
      </trkpt>
      <trkpt lat="38.4653630" lon="-0.6398000">
        <ele>448.6</ele>
        <time>2018-03-30T07:20:15Z</time>
      </trkpt>
      <trkpt lat="38.4654080" lon="-0.6398110">
        <ele>448.8</ele>
        <time>2018-03-30T07:20:16Z</time>
      </trkpt>
      <trkpt lat="38.4654510" lon="-0.6398230">
        <ele>449.0</ele>
        <time>2018-03-30T07:20:17Z</time>
      </trkpt>
      <trkpt lat="38.4654960" lon="-0.6398360">
        <ele>449.2</ele>
        <time>2018-03-30T07:20:18Z</time>
      </trkpt>
      <trkpt lat="38.4655390" lon="-0.6398510">
        <ele>449.4</ele>
        <time>2018-03-30T07:20:19Z</time>
      </trkpt>
      <trkpt lat="38.4655800" lon="-0.6398700">
        <ele>449.6</ele>
        <time>2018-03-30T07:20:20Z</time>
      </trkpt>
      <trkpt lat="38.4656220" lon="-0.6398920">
        <ele>449.8</ele>
        <time>2018-03-30T07:20:21Z</time>
      </trkpt>
      <trkpt lat="38.4656610" lon="-0.6399190">
        <ele>450.0</ele>
        <time>2018-03-30T07:20:22Z</time>
      </trkpt>
      <trkpt lat="38.4657010" lon="-0.6399480">
        <ele>450.2</ele>
        <time>2018-03-30T07:20:23Z</time>
      </trkpt>
      <trkpt lat="38.4657400" lon="-0.6399790">
        <ele>450.3</ele>
        <time>2018-03-30T07:20:24Z</time>
      </trkpt>
      <trkpt lat="38.4657750" lon="-0.6400130">
        <ele>450.5</ele>
        <time>2018-03-30T07:20:25Z</time>
      </trkpt>
      <trkpt lat="38.4658080" lon="-0.6400510">
        <ele>450.7</ele>
        <time>2018-03-30T07:20:26Z</time>
      </trkpt>
      <trkpt lat="38.4658410" lon="-0.6400940">
        <ele>450.9</ele>
        <time>2018-03-30T07:20:27Z</time>
      </trkpt>
      <trkpt lat="38.4658690" lon="-0.6401390">
        <ele>451.1</ele>
        <time>2018-03-30T07:20:28Z</time>
      </trkpt>
      <trkpt lat="38.4658960" lon="-0.6401850">
        <ele>451.3</ele>
        <time>2018-03-30T07:20:29Z</time>
      </trkpt>
      <trkpt lat="38.4659190" lon="-0.6402320">
        <ele>451.5</ele>
        <time>2018-03-30T07:20:30Z</time>
      </trkpt>
      <trkpt lat="38.4659420" lon="-0.6402800">
        <ele>451.7</ele>
        <time>2018-03-30T07:20:31Z</time>
      </trkpt>
      <trkpt lat="38.4659660" lon="-0.6403290">
        <ele>451.9</ele>
        <time>2018-03-30T07:20:32Z</time>
      </trkpt>
      <trkpt lat="38.4659880" lon="-0.6403770">
        <ele>452.1</ele>
        <time>2018-03-30T07:20:33Z</time>
      </trkpt>
      <trkpt lat="38.4660080" lon="-0.6404270">
        <ele>452.3</ele>
        <time>2018-03-30T07:20:34Z</time>
      </trkpt>
      <trkpt lat="38.4660290" lon="-0.6404770">
        <ele>452.5</ele>
        <time>2018-03-30T07:20:35Z</time>
      </trkpt>
      <trkpt lat="38.4660510" lon="-0.6405270">
        <ele>452.7</ele>
        <time>2018-03-30T07:20:36Z</time>
      </trkpt>
      <trkpt lat="38.4660710" lon="-0.6405780">
        <ele>452.9</ele>
        <time>2018-03-30T07:20:37Z</time>
      </trkpt>
      <trkpt lat="38.4660930" lon="-0.6406290">
        <ele>453.1</ele>
        <time>2018-03-30T07:20:38Z</time>
      </trkpt>
      <trkpt lat="38.4661130" lon="-0.6406800">
        <ele>453.3</ele>
        <time>2018-03-30T07:20:39Z</time>
      </trkpt>
      <trkpt lat="38.4661340" lon="-0.6407310">
        <ele>453.5</ele>
        <time>2018-03-30T07:20:40Z</time>
      </trkpt>
      <trkpt lat="38.4661540" lon="-0.6407810">
        <ele>453.6</ele>
        <time>2018-03-30T07:20:41Z</time>
      </trkpt>
      <trkpt lat="38.4661760" lon="-0.6408320">
        <ele>453.8</ele>
        <time>2018-03-30T07:20:42Z</time>
      </trkpt>
      <trkpt lat="38.4661970" lon="-0.6408830">
        <ele>453.9</ele>
        <time>2018-03-30T07:20:43Z</time>
      </trkpt>
      <trkpt lat="38.4662200" lon="-0.6409320">
        <ele>454.1</ele>
        <time>2018-03-30T07:20:44Z</time>
      </trkpt>
      <trkpt lat="38.4662400" lon="-0.6409790">
        <ele>454.2</ele>
        <time>2018-03-30T07:20:45Z</time>
      </trkpt>
      <trkpt lat="38.4662610" lon="-0.6410290">
        <ele>454.3</ele>
        <time>2018-03-30T07:20:46Z</time>
      </trkpt>
      <trkpt lat="38.4662830" lon="-0.6410800">
        <ele>454.4</ele>
        <time>2018-03-30T07:20:47Z</time>
      </trkpt>
      <trkpt lat="38.4663030" lon="-0.6411300">
        <ele>454.5</ele>
        <time>2018-03-30T07:20:48Z</time>
      </trkpt>
      <trkpt lat="38.4663250" lon="-0.6411810">
        <ele>454.6</ele>
        <time>2018-03-30T07:20:49Z</time>
      </trkpt>
      <trkpt lat="38.4663460" lon="-0.6412320">
        <ele>454.7</ele>
        <time>2018-03-30T07:20:50Z</time>
      </trkpt>
      <trkpt lat="38.4663660" lon="-0.6412820">
        <ele>454.9</ele>
        <time>2018-03-30T07:20:51Z</time>
      </trkpt>
      <trkpt lat="38.4663870" lon="-0.6413330">
        <ele>455.1</ele>
        <time>2018-03-30T07:20:52Z</time>
      </trkpt>
      <trkpt lat="38.4664100" lon="-0.6413840">
        <ele>455.3</ele>
        <time>2018-03-30T07:20:53Z</time>
      </trkpt>
      <trkpt lat="38.4664320" lon="-0.6414340">
        <ele>455.4</ele>
        <time>2018-03-30T07:20:54Z</time>
      </trkpt>
      <trkpt lat="38.4664560" lon="-0.6414810">
        <ele>455.6</ele>
        <time>2018-03-30T07:20:55Z</time>
      </trkpt>
      <trkpt lat="38.4664830" lon="-0.6415280">
        <ele>455.8</ele>
        <time>2018-03-30T07:20:56Z</time>
      </trkpt>
      <trkpt lat="38.4665100" lon="-0.6415730">
        <ele>456.0</ele>
        <time>2018-03-30T07:20:57Z</time>
      </trkpt>
      <trkpt lat="38.4665410" lon="-0.6416160">
        <ele>456.2</ele>
        <time>2018-03-30T07:20:58Z</time>
      </trkpt>
      <trkpt lat="38.4665720" lon="-0.6416550">
        <ele>456.5</ele>
        <time>2018-03-30T07:20:59Z</time>
      </trkpt>
      <trkpt lat="38.4666070" lon="-0.6416910">
        <ele>456.7</ele>
        <time>2018-03-30T07:21:00Z</time>
      </trkpt>
      <trkpt lat="38.4666470" lon="-0.6417220">
        <ele>456.9</ele>
        <time>2018-03-30T07:21:01Z</time>
      </trkpt>
      <trkpt lat="38.4666870" lon="-0.6417520">
        <ele>457.1</ele>
        <time>2018-03-30T07:21:02Z</time>
      </trkpt>
      <trkpt lat="38.4667280" lon="-0.6417770">
        <ele>457.4</ele>
        <time>2018-03-30T07:21:03Z</time>
      </trkpt>
      <trkpt lat="38.4667750" lon="-0.6418000">
        <ele>457.6</ele>
        <time>2018-03-30T07:21:04Z</time>
      </trkpt>
      <trkpt lat="38.4668180" lon="-0.6418200">
        <ele>457.9</ele>
        <time>2018-03-30T07:21:05Z</time>
      </trkpt>
      <trkpt lat="38.4668630" lon="-0.6418390">
        <ele>458.1</ele>
        <time>2018-03-30T07:21:06Z</time>
      </trkpt>
      <trkpt lat="38.4669080" lon="-0.6418570">
        <ele>458.3</ele>
        <time>2018-03-30T07:21:07Z</time>
      </trkpt>
      <trkpt lat="38.4669520" lon="-0.6418740">
        <ele>458.6</ele>
        <time>2018-03-30T07:21:08Z</time>
      </trkpt>
      <trkpt lat="38.4669980" lon="-0.6418900">
        <ele>458.8</ele>
        <time>2018-03-30T07:21:09Z</time>
      </trkpt>
      <trkpt lat="38.4670430" lon="-0.6419070">
        <ele>459.1</ele>
        <time>2018-03-30T07:21:10Z</time>
      </trkpt>
      <trkpt lat="38.4670880" lon="-0.6419250">
        <ele>459.3</ele>
        <time>2018-03-30T07:21:11Z</time>
      </trkpt>
      <trkpt lat="38.4671340" lon="-0.6419420">
        <ele>459.6</ele>
        <time>2018-03-30T07:21:12Z</time>
      </trkpt>
      <trkpt lat="38.4671790" lon="-0.6419590">
        <ele>459.8</ele>
        <time>2018-03-30T07:21:13Z</time>
      </trkpt>
      <trkpt lat="38.4672240" lon="-0.6419750">
        <ele>460.1</ele>
        <time>2018-03-30T07:21:14Z</time>
      </trkpt>
      <trkpt lat="38.4672690" lon="-0.6419910">
        <ele>460.4</ele>
        <time>2018-03-30T07:21:15Z</time>
      </trkpt>
      <trkpt lat="38.4673130" lon="-0.6420070">
        <ele>460.6</ele>
        <time>2018-03-30T07:21:16Z</time>
      </trkpt>
      <trkpt lat="38.4673580" lon="-0.6420240">
        <ele>460.8</ele>
        <time>2018-03-30T07:21:17Z</time>
      </trkpt>
      <trkpt lat="38.4674020" lon="-0.6420410">
        <ele>461.1</ele>
        <time>2018-03-30T07:21:18Z</time>
      </trkpt>
      <trkpt lat="38.4674480" lon="-0.6420570">
        <ele>461.3</ele>
        <time>2018-03-30T07:21:19Z</time>
      </trkpt>
      <trkpt lat="38.4674920" lon="-0.6420740">
        <ele>461.6</ele>
        <time>2018-03-30T07:21:20Z</time>
      </trkpt>
      <trkpt lat="38.4675360" lon="-0.6420910">
        <ele>461.8</ele>
        <time>2018-03-30T07:21:21Z</time>
      </trkpt>
      <trkpt lat="38.4675780" lon="-0.6421090">
        <ele>462.0</ele>
        <time>2018-03-30T07:21:22Z</time>
      </trkpt>
      <trkpt lat="38.4676210" lon="-0.6421270">
        <ele>462.2</ele>
        <time>2018-03-30T07:21:23Z</time>
      </trkpt>
      <trkpt lat="38.4676630" lon="-0.6421440">
        <ele>462.4</ele>
        <time>2018-03-30T07:21:24Z</time>
      </trkpt>
      <trkpt lat="38.4677040" lon="-0.6421590">
        <ele>462.7</ele>
        <time>2018-03-30T07:21:25Z</time>
      </trkpt>
      <trkpt lat="38.4677460" lon="-0.6421740">
        <ele>462.9</ele>
        <time>2018-03-30T07:21:26Z</time>
      </trkpt>
      <trkpt lat="38.4677840" lon="-0.6421870">
        <ele>463.1</ele>
        <time>2018-03-30T07:21:27Z</time>
      </trkpt>
      <trkpt lat="38.4678220" lon="-0.6422020">
        <ele>463.3</ele>
        <time>2018-03-30T07:21:28Z</time>
      </trkpt>
      <trkpt lat="38.4678600" lon="-0.6422160">
        <ele>463.4</ele>
        <time>2018-03-30T07:21:29Z</time>
      </trkpt>
      <trkpt lat="38.4678980" lon="-0.6422300">
        <ele>463.6</ele>
        <time>2018-03-30T07:21:30Z</time>
      </trkpt>
      <trkpt lat="38.4679350" lon="-0.6422450">
        <ele>463.8</ele>
        <time>2018-03-30T07:21:31Z</time>
      </trkpt>
      <trkpt lat="38.4679720" lon="-0.6422580">
        <ele>464.1</ele>
        <time>2018-03-30T07:21:32Z</time>
      </trkpt>
      <trkpt lat="38.4680100" lon="-0.6422710">
        <ele>464.3</ele>
        <time>2018-03-30T07:21:33Z</time>
      </trkpt>
      <trkpt lat="38.4680450" lon="-0.6422810">
        <ele>464.5</ele>
        <time>2018-03-30T07:21:34Z</time>
      </trkpt>
      <trkpt lat="38.4680810" lon="-0.6422950">
        <ele>464.7</ele>
        <time>2018-03-30T07:21:35Z</time>
      </trkpt>
      <trkpt lat="38.4681180" lon="-0.6423110">
        <ele>464.9</ele>
        <time>2018-03-30T07:21:36Z</time>
      </trkpt>
      <trkpt lat="38.4681540" lon="-0.6423250">
        <ele>465.1</ele>
        <time>2018-03-30T07:21:37Z</time>
      </trkpt>
      <trkpt lat="38.4681900" lon="-0.6423380">
        <ele>465.3</ele>
        <time>2018-03-30T07:21:38Z</time>
      </trkpt>
      <trkpt lat="38.4682250" lon="-0.6423520">
        <ele>465.5</ele>
        <time>2018-03-30T07:21:39Z</time>
      </trkpt>
      <trkpt lat="38.4682630" lon="-0.6423660">
        <ele>465.8</ele>
        <time>2018-03-30T07:21:40Z</time>
      </trkpt>
      <trkpt lat="38.4682980" lon="-0.6423800">
        <ele>466.0</ele>
        <time>2018-03-30T07:21:41Z</time>
      </trkpt>
      <trkpt lat="38.4683360" lon="-0.6423920">
        <ele>466.2</ele>
        <time>2018-03-30T07:21:42Z</time>
      </trkpt>
      <trkpt lat="38.4683730" lon="-0.6424040">
        <ele>466.4</ele>
        <time>2018-03-30T07:21:43Z</time>
      </trkpt>
      <trkpt lat="38.4684100" lon="-0.6424150">
        <ele>466.7</ele>
        <time>2018-03-30T07:21:44Z</time>
      </trkpt>
      <trkpt lat="38.4684480" lon="-0.6424260">
        <ele>466.9</ele>
        <time>2018-03-30T07:21:45Z</time>
      </trkpt>
      <trkpt lat="38.4684870" lon="-0.6424360">
        <ele>467.1</ele>
        <time>2018-03-30T07:21:46Z</time>
      </trkpt>
      <trkpt lat="38.4685240" lon="-0.6424420">
        <ele>467.3</ele>
        <time>2018-03-30T07:21:47Z</time>
      </trkpt>
      <trkpt lat="38.4685610" lon="-0.6424470">
        <ele>467.6</ele>
        <time>2018-03-30T07:21:48Z</time>
      </trkpt>
      <trkpt lat="38.4685990" lon="-0.6424470">
        <ele>467.8</ele>
        <time>2018-03-30T07:21:49Z</time>
      </trkpt>
      <trkpt lat="38.4686380" lon="-0.6424460">
        <ele>468.0</ele>
        <time>2018-03-30T07:21:50Z</time>
      </trkpt>
      <trkpt lat="38.4686730" lon="-0.6424410">
        <ele>468.2</ele>
        <time>2018-03-30T07:21:51Z</time>
      </trkpt>
      <trkpt lat="38.4687050" lon="-0.6424330">
        <ele>468.4</ele>
        <time>2018-03-30T07:21:52Z</time>
      </trkpt>
      <trkpt lat="38.4687380" lon="-0.6424220">
        <ele>468.6</ele>
        <time>2018-03-30T07:21:53Z</time>
      </trkpt>
      <trkpt lat="38.4687740" lon="-0.6424090">
        <ele>468.8</ele>
        <time>2018-03-30T07:21:54Z</time>
      </trkpt>
      <trkpt lat="38.4688070" lon="-0.6423970">
        <ele>469.0</ele>
        <time>2018-03-30T07:21:55Z</time>
      </trkpt>
      <trkpt lat="38.4688420" lon="-0.6423820">
        <ele>469.2</ele>
        <time>2018-03-30T07:21:56Z</time>
      </trkpt>
      <trkpt lat="38.4688750" lon="-0.6423690">
        <ele>469.3</ele>
        <time>2018-03-30T07:21:57Z</time>
      </trkpt>
      <trkpt lat="38.4689090" lon="-0.6423560">
        <ele>469.5</ele>
        <time>2018-03-30T07:21:58Z</time>
      </trkpt>
      <trkpt lat="38.4689450" lon="-0.6423410">
        <ele>469.7</ele>
        <time>2018-03-30T07:21:59Z</time>
      </trkpt>
      <trkpt lat="38.4689790" lon="-0.6423230">
        <ele>469.9</ele>
        <time>2018-03-30T07:22:00Z</time>
      </trkpt>
      <trkpt lat="38.4690130" lon="-0.6423080">
        <ele>470.1</ele>
        <time>2018-03-30T07:22:01Z</time>
      </trkpt>
      <trkpt lat="38.4690460" lon="-0.6422940">
        <ele>470.3</ele>
        <time>2018-03-30T07:22:02Z</time>
      </trkpt>
      <trkpt lat="38.4690800" lon="-0.6422770">
        <ele>470.5</ele>
        <time>2018-03-30T07:22:03Z</time>
      </trkpt>
      <trkpt lat="38.4691130" lon="-0.6422600">
        <ele>470.7</ele>
        <time>2018-03-30T07:22:04Z</time>
      </trkpt>
      <trkpt lat="38.4691450" lon="-0.6422430">
        <ele>470.9</ele>
        <time>2018-03-30T07:22:05Z</time>
      </trkpt>
      <trkpt lat="38.4691780" lon="-0.6422260">
        <ele>471.1</ele>
        <time>2018-03-30T07:22:06Z</time>
      </trkpt>
      <trkpt lat="38.4692120" lon="-0.6422090">
        <ele>471.3</ele>
        <time>2018-03-30T07:22:07Z</time>
      </trkpt>
      <trkpt lat="38.4692450" lon="-0.6421940">
        <ele>471.5</ele>
        <time>2018-03-30T07:22:08Z</time>
      </trkpt>
      <trkpt lat="38.4692800" lon="-0.6421780">
        <ele>471.7</ele>
        <time>2018-03-30T07:22:09Z</time>
      </trkpt>
      <trkpt lat="38.4693140" lon="-0.6421630">
        <ele>471.9</ele>
        <time>2018-03-30T07:22:10Z</time>
      </trkpt>
      <trkpt lat="38.4693490" lon="-0.6421450">
        <ele>472.0</ele>
        <time>2018-03-30T07:22:11Z</time>
      </trkpt>
      <trkpt lat="38.4693830" lon="-0.6421260">
        <ele>472.2</ele>
        <time>2018-03-30T07:22:12Z</time>
      </trkpt>
      <trkpt lat="38.4694160" lon="-0.6421120">
        <ele>472.4</ele>
        <time>2018-03-30T07:22:13Z</time>
      </trkpt>
      <trkpt lat="38.4694500" lon="-0.6420980">
        <ele>472.6</ele>
        <time>2018-03-30T07:22:14Z</time>
      </trkpt>
      <trkpt lat="38.4694840" lon="-0.6420840">
        <ele>472.8</ele>
        <time>2018-03-30T07:22:15Z</time>
      </trkpt>
      <trkpt lat="38.4695210" lon="-0.6420700">
        <ele>473.0</ele>
        <time>2018-03-30T07:22:16Z</time>
      </trkpt>
      <trkpt lat="38.4695550" lon="-0.6420600">
        <ele>473.1</ele>
        <time>2018-03-30T07:22:17Z</time>
      </trkpt>
      <trkpt lat="38.4695900" lon="-0.6420520">
        <ele>473.3</ele>
        <time>2018-03-30T07:22:18Z</time>
      </trkpt>
      <trkpt lat="38.4696250" lon="-0.6420450">
        <ele>473.5</ele>
        <time>2018-03-30T07:22:19Z</time>
      </trkpt>
      <trkpt lat="38.4696600" lon="-0.6420410">
        <ele>473.6</ele>
        <time>2018-03-30T07:22:20Z</time>
      </trkpt>
      <trkpt lat="38.4696970" lon="-0.6420380">
        <ele>473.8</ele>
        <time>2018-03-30T07:22:21Z</time>
      </trkpt>
      <trkpt lat="38.4697330" lon="-0.6420370">
        <ele>473.9</ele>
        <time>2018-03-30T07:22:22Z</time>
      </trkpt>
      <trkpt lat="38.4697670" lon="-0.6420390">
        <ele>474.1</ele>
        <time>2018-03-30T07:22:23Z</time>
      </trkpt>
      <trkpt lat="38.4698040" lon="-0.6420430">
        <ele>474.2</ele>
        <time>2018-03-30T07:22:24Z</time>
      </trkpt>
      <trkpt lat="38.4698390" lon="-0.6420510">
        <ele>474.4</ele>
        <time>2018-03-30T07:22:25Z</time>
      </trkpt>
      <trkpt lat="38.4698740" lon="-0.6420600">
        <ele>474.5</ele>
        <time>2018-03-30T07:22:26Z</time>
      </trkpt>
      <trkpt lat="38.4699090" lon="-0.6420680">
        <ele>474.6</ele>
        <time>2018-03-30T07:22:27Z</time>
      </trkpt>
      <trkpt lat="38.4699450" lon="-0.6420750">
        <ele>474.7</ele>
        <time>2018-03-30T07:22:28Z</time>
      </trkpt>
      <trkpt lat="38.4699800" lon="-0.6420820">
        <ele>474.8</ele>
        <time>2018-03-30T07:22:29Z</time>
      </trkpt>
      <trkpt lat="38.4700150" lon="-0.6420920">
        <ele>474.9</ele>
        <time>2018-03-30T07:22:30Z</time>
      </trkpt>
      <trkpt lat="38.4700480" lon="-0.6421020">
        <ele>474.9</ele>
        <time>2018-03-30T07:22:31Z</time>
      </trkpt>
      <trkpt lat="38.4700820" lon="-0.6421120">
        <ele>475.0</ele>
        <time>2018-03-30T07:22:32Z</time>
      </trkpt>
      <trkpt lat="38.4701150" lon="-0.6421220">
        <ele>475.0</ele>
        <time>2018-03-30T07:22:33Z</time>
      </trkpt>
      <trkpt lat="38.4701470" lon="-0.6421310">
        <ele>475.1</ele>
        <time>2018-03-30T07:22:34Z</time>
      </trkpt>
      <trkpt lat="38.4701810" lon="-0.6421420">
        <ele>475.1</ele>
        <time>2018-03-30T07:22:35Z</time>
      </trkpt>
      <trkpt lat="38.4702140" lon="-0.6421520">
        <ele>475.2</ele>
        <time>2018-03-30T07:22:36Z</time>
      </trkpt>
      <trkpt lat="38.4702470" lon="-0.6421640">
        <ele>475.2</ele>
        <time>2018-03-30T07:22:37Z</time>
      </trkpt>
      <trkpt lat="38.4702810" lon="-0.6421750">
        <ele>475.3</ele>
        <time>2018-03-30T07:22:38Z</time>
      </trkpt>
      <trkpt lat="38.4703160" lon="-0.6421880">
        <ele>475.4</ele>
        <time>2018-03-30T07:22:39Z</time>
      </trkpt>
      <trkpt lat="38.4703510" lon="-0.6422000">
        <ele>475.4</ele>
        <time>2018-03-30T07:22:40Z</time>
      </trkpt>
      <trkpt lat="38.4703850" lon="-0.6422150">
        <ele>475.5</ele>
        <time>2018-03-30T07:22:41Z</time>
      </trkpt>
      <trkpt lat="38.4704190" lon="-0.6422340">
        <ele>475.6</ele>
        <time>2018-03-30T07:22:42Z</time>
      </trkpt>
      <trkpt lat="38.4704500" lon="-0.6422510">
        <ele>475.6</ele>
        <time>2018-03-30T07:22:43Z</time>
      </trkpt>
      <trkpt lat="38.4704800" lon="-0.6422700">
        <ele>475.7</ele>
        <time>2018-03-30T07:22:44Z</time>
      </trkpt>
      <trkpt lat="38.4705090" lon="-0.6422950">
        <ele>475.8</ele>
        <time>2018-03-30T07:22:45Z</time>
      </trkpt>
      <trkpt lat="38.4705380" lon="-0.6423180">
        <ele>475.8</ele>
        <time>2018-03-30T07:22:46Z</time>
      </trkpt>
      <trkpt lat="38.4705700" lon="-0.6423400">
        <ele>475.9</ele>
        <time>2018-03-30T07:22:47Z</time>
      </trkpt>
      <trkpt lat="38.4705980" lon="-0.6423630">
        <ele>476.0</ele>
        <time>2018-03-30T07:22:48Z</time>
      </trkpt>
      <trkpt lat="38.4706310" lon="-0.6423830">
        <ele>476.2</ele>
        <time>2018-03-30T07:22:49Z</time>
      </trkpt>
      <trkpt lat="38.4706610" lon="-0.6423990">
        <ele>476.3</ele>
        <time>2018-03-30T07:22:50Z</time>
      </trkpt>
      <trkpt lat="38.4707130" lon="-0.6424090">
        <ele>476.6</ele>
        <time>2018-03-30T07:22:51Z</time>
      </trkpt>
      <trkpt lat="38.4707540" lon="-0.6424100">
        <ele>476.8</ele>
        <time>2018-03-30T07:22:52Z</time>
      </trkpt>
      <trkpt lat="38.4707820" lon="-0.6423840">
        <ele>477.0</ele>
        <time>2018-03-30T07:22:53Z</time>
      </trkpt>
      <trkpt lat="38.4708220" lon="-0.6423500">
        <ele>477.3</ele>
        <time>2018-03-30T07:22:54Z</time>
      </trkpt>
      <trkpt lat="38.4708490" lon="-0.6422970">
        <ele>477.6</ele>
        <time>2018-03-30T07:22:55Z</time>
      </trkpt>
      <trkpt lat="38.4708710" lon="-0.6422410">
        <ele>478.0</ele>
        <time>2018-03-30T07:22:56Z</time>
      </trkpt>
      <trkpt lat="38.4708910" lon="-0.6421870">
        <ele>478.2</ele>
        <time>2018-03-30T07:22:57Z</time>
      </trkpt>
      <trkpt lat="38.4709040" lon="-0.6421330">
        <ele>478.5</ele>
        <time>2018-03-30T07:22:58Z</time>
      </trkpt>
      <trkpt lat="38.4709180" lon="-0.6420770">
        <ele>478.7</ele>
        <time>2018-03-30T07:22:59Z</time>
      </trkpt>
      <trkpt lat="38.4709370" lon="-0.6420210">
        <ele>479.0</ele>
        <time>2018-03-30T07:23:00Z</time>
      </trkpt>
      <trkpt lat="38.4709540" lon="-0.6419650">
        <ele>479.2</ele>
        <time>2018-03-30T07:23:01Z</time>
      </trkpt>
      <trkpt lat="38.4709750" lon="-0.6419080">
        <ele>479.5</ele>
        <time>2018-03-30T07:23:02Z</time>
      </trkpt>
      <trkpt lat="38.4709900" lon="-0.6418530">
        <ele>479.6</ele>
        <time>2018-03-30T07:23:03Z</time>
      </trkpt>
      <trkpt lat="38.4710050" lon="-0.6418000">
        <ele>479.8</ele>
        <time>2018-03-30T07:23:04Z</time>
      </trkpt>
      <trkpt lat="38.4710200" lon="-0.6417470">
        <ele>479.9</ele>
        <time>2018-03-30T07:23:05Z</time>
      </trkpt>
      <trkpt lat="38.4710350" lon="-0.6416970">
        <ele>480.1</ele>
        <time>2018-03-30T07:23:06Z</time>
      </trkpt>
      <trkpt lat="38.4710470" lon="-0.6416510">
        <ele>480.2</ele>
        <time>2018-03-30T07:23:07Z</time>
      </trkpt>
      <trkpt lat="38.4710620" lon="-0.6416060">
        <ele>480.3</ele>
        <time>2018-03-30T07:23:08Z</time>
      </trkpt>
      <trkpt lat="38.4710740" lon="-0.6415620">
        <ele>480.5</ele>
        <time>2018-03-30T07:23:09Z</time>
      </trkpt>
      <trkpt lat="38.4710890" lon="-0.6415190">
        <ele>480.6</ele>
        <time>2018-03-30T07:23:10Z</time>
      </trkpt>
      <trkpt lat="38.4711050" lon="-0.6414780">
        <ele>480.7</ele>
        <time>2018-03-30T07:23:11Z</time>
      </trkpt>
      <trkpt lat="38.4711170" lon="-0.6414330">
        <ele>480.9</ele>
        <time>2018-03-30T07:23:12Z</time>
      </trkpt>
      <trkpt lat="38.4711330" lon="-0.6413880">
        <ele>481.2</ele>
        <time>2018-03-30T07:23:13Z</time>
      </trkpt>
      <trkpt lat="38.4711470" lon="-0.6413430">
        <ele>481.4</ele>
        <time>2018-03-30T07:23:14Z</time>
      </trkpt>
      <trkpt lat="38.4711620" lon="-0.6412990">
        <ele>481.6</ele>
        <time>2018-03-30T07:23:15Z</time>
      </trkpt>
      <trkpt lat="38.4711750" lon="-0.6412530">
        <ele>481.8</ele>
        <time>2018-03-30T07:23:16Z</time>
      </trkpt>
      <trkpt lat="38.4711880" lon="-0.6412080">
        <ele>482.1</ele>
        <time>2018-03-30T07:23:17Z</time>
      </trkpt>
      <trkpt lat="38.4712020" lon="-0.6411610">
        <ele>482.3</ele>
        <time>2018-03-30T07:23:18Z</time>
      </trkpt>
      <trkpt lat="38.4712160" lon="-0.6411150">
        <ele>482.5</ele>
        <time>2018-03-30T07:23:19Z</time>
      </trkpt>
      <trkpt lat="38.4712300" lon="-0.6410680">
        <ele>482.8</ele>
        <time>2018-03-30T07:23:20Z</time>
      </trkpt>
      <trkpt lat="38.4712430" lon="-0.6410200">
        <ele>483.0</ele>
        <time>2018-03-30T07:23:21Z</time>
      </trkpt>
      <trkpt lat="38.4712590" lon="-0.6409730">
        <ele>483.3</ele>
        <time>2018-03-30T07:23:22Z</time>
      </trkpt>
      <trkpt lat="38.4712740" lon="-0.6409250">
        <ele>483.5</ele>
        <time>2018-03-30T07:23:23Z</time>
      </trkpt>
      <trkpt lat="38.4712900" lon="-0.6408770">
        <ele>483.7</ele>
        <time>2018-03-30T07:23:24Z</time>
      </trkpt>
      <trkpt lat="38.4713050" lon="-0.6408280">
        <ele>483.9</ele>
        <time>2018-03-30T07:23:25Z</time>
      </trkpt>
      <trkpt lat="38.4713220" lon="-0.6407820">
        <ele>484.2</ele>
        <time>2018-03-30T07:23:26Z</time>
      </trkpt>
      <trkpt lat="38.4713390" lon="-0.6407370">
        <ele>484.4</ele>
        <time>2018-03-30T07:23:27Z</time>
      </trkpt>
      <trkpt lat="38.4713580" lon="-0.6406940">
        <ele>484.7</ele>
        <time>2018-03-30T07:23:28Z</time>
      </trkpt>
      <trkpt lat="38.4713790" lon="-0.6406520">
        <ele>484.9</ele>
        <time>2018-03-30T07:23:29Z</time>
      </trkpt>
      <trkpt lat="38.4714020" lon="-0.6406130">
        <ele>485.1</ele>
        <time>2018-03-30T07:23:30Z</time>
      </trkpt>
      <trkpt lat="38.4714270" lon="-0.6405760">
        <ele>485.4</ele>
        <time>2018-03-30T07:23:31Z</time>
      </trkpt>
      <trkpt lat="38.4714570" lon="-0.6405420">
        <ele>485.6</ele>
        <time>2018-03-30T07:23:32Z</time>
      </trkpt>
      <trkpt lat="38.4714880" lon="-0.6405140">
        <ele>485.9</ele>
        <time>2018-03-30T07:23:33Z</time>
      </trkpt>
      <trkpt lat="38.4715210" lon="-0.6404890">
        <ele>486.1</ele>
        <time>2018-03-30T07:23:34Z</time>
      </trkpt>
      <trkpt lat="38.4715550" lon="-0.6404690">
        <ele>486.3</ele>
        <time>2018-03-30T07:23:35Z</time>
      </trkpt>
      <trkpt lat="38.4715900" lon="-0.6404500">
        <ele>486.6</ele>
        <time>2018-03-30T07:23:36Z</time>
      </trkpt>
      <trkpt lat="38.4716250" lon="-0.6404360">
        <ele>486.8</ele>
        <time>2018-03-30T07:23:37Z</time>
      </trkpt>
      <trkpt lat="38.4716600" lon="-0.6404240">
        <ele>487.0</ele>
        <time>2018-03-30T07:23:38Z</time>
      </trkpt>
      <trkpt lat="38.4716970" lon="-0.6404170">
        <ele>487.2</ele>
        <time>2018-03-30T07:23:39Z</time>
      </trkpt>
      <trkpt lat="38.4717340" lon="-0.6404140">
        <ele>487.4</ele>
        <time>2018-03-30T07:23:40Z</time>
      </trkpt>
      <trkpt lat="38.4717720" lon="-0.6404150">
        <ele>487.6</ele>
        <time>2018-03-30T07:23:41Z</time>
      </trkpt>
      <trkpt lat="38.4718060" lon="-0.6404190">
        <ele>487.8</ele>
        <time>2018-03-30T07:23:42Z</time>
      </trkpt>
      <trkpt lat="38.4718430" lon="-0.6404280">
        <ele>488.0</ele>
        <time>2018-03-30T07:23:43Z</time>
      </trkpt>
      <trkpt lat="38.4718800" lon="-0.6404410">
        <ele>488.3</ele>
        <time>2018-03-30T07:23:44Z</time>
      </trkpt>
      <trkpt lat="38.4719170" lon="-0.6404600">
        <ele>488.5</ele>
        <time>2018-03-30T07:23:45Z</time>
      </trkpt>
      <trkpt lat="38.4719510" lon="-0.6404800">
        <ele>488.7</ele>
        <time>2018-03-30T07:23:46Z</time>
      </trkpt>
      <trkpt lat="38.4719830" lon="-0.6405040">
        <ele>488.9</ele>
        <time>2018-03-30T07:23:47Z</time>
      </trkpt>
      <trkpt lat="38.4720150" lon="-0.6405280">
        <ele>489.2</ele>
        <time>2018-03-30T07:23:48Z</time>
      </trkpt>
      <trkpt lat="38.4720480" lon="-0.6405540">
        <ele>489.4</ele>
        <time>2018-03-30T07:23:49Z</time>
      </trkpt>
      <trkpt lat="38.4720780" lon="-0.6405830">
        <ele>489.6</ele>
        <time>2018-03-30T07:23:50Z</time>
      </trkpt>
      <trkpt lat="38.4721080" lon="-0.6406120">
        <ele>489.8</ele>
        <time>2018-03-30T07:23:51Z</time>
      </trkpt>
      <trkpt lat="38.4721370" lon="-0.6406420">
        <ele>490.0</ele>
        <time>2018-03-30T07:23:52Z</time>
      </trkpt>
      <trkpt lat="38.4721660" lon="-0.6406700">
        <ele>490.2</ele>
        <time>2018-03-30T07:23:53Z</time>
      </trkpt>
      <trkpt lat="38.4721950" lon="-0.6406990">
        <ele>490.4</ele>
        <time>2018-03-30T07:23:54Z</time>
      </trkpt>
      <trkpt lat="38.4722230" lon="-0.6407290">
        <ele>490.6</ele>
        <time>2018-03-30T07:23:55Z</time>
      </trkpt>
      <trkpt lat="38.4722510" lon="-0.6407580">
        <ele>490.8</ele>
        <time>2018-03-30T07:23:56Z</time>
      </trkpt>
      <trkpt lat="38.4722800" lon="-0.6407880">
        <ele>490.9</ele>
        <time>2018-03-30T07:23:57Z</time>
      </trkpt>
      <trkpt lat="38.4723090" lon="-0.6408180">
        <ele>491.1</ele>
        <time>2018-03-30T07:23:58Z</time>
      </trkpt>
      <trkpt lat="38.4723350" lon="-0.6408490">
        <ele>491.3</ele>
        <time>2018-03-30T07:23:59Z</time>
      </trkpt>
      <trkpt lat="38.4723610" lon="-0.6408800">
        <ele>491.5</ele>
        <time>2018-03-30T07:24:00Z</time>
      </trkpt>
      <trkpt lat="38.4723900" lon="-0.6409090">
        <ele>491.7</ele>
        <time>2018-03-30T07:24:01Z</time>
      </trkpt>
      <trkpt lat="38.4724180" lon="-0.6409370">
        <ele>491.8</ele>
        <time>2018-03-30T07:24:02Z</time>
      </trkpt>
      <trkpt lat="38.4724460" lon="-0.6409660">
        <ele>492.0</ele>
        <time>2018-03-30T07:24:03Z</time>
      </trkpt>
      <trkpt lat="38.4724720" lon="-0.6409980">
        <ele>492.2</ele>
        <time>2018-03-30T07:24:04Z</time>
      </trkpt>
      <trkpt lat="38.4724980" lon="-0.6410250">
        <ele>492.4</ele>
        <time>2018-03-30T07:24:05Z</time>
      </trkpt>
      <trkpt lat="38.4725250" lon="-0.6410510">
        <ele>492.5</ele>
        <time>2018-03-30T07:24:06Z</time>
      </trkpt>
      <trkpt lat="38.4725530" lon="-0.6410790">
        <ele>492.7</ele>
        <time>2018-03-30T07:24:07Z</time>
      </trkpt>
      <trkpt lat="38.4725820" lon="-0.6411070">
        <ele>492.9</ele>
        <time>2018-03-30T07:24:08Z</time>
      </trkpt>
      <trkpt lat="38.4726120" lon="-0.6411340">
        <ele>493.0</ele>
        <time>2018-03-30T07:24:09Z</time>
      </trkpt>
      <trkpt lat="38.4726410" lon="-0.6411600">
        <ele>493.2</ele>
        <time>2018-03-30T07:24:10Z</time>
      </trkpt>
      <trkpt lat="38.4726700" lon="-0.6411860">
        <ele>493.4</ele>
        <time>2018-03-30T07:24:11Z</time>
      </trkpt>
      <trkpt lat="38.4726990" lon="-0.6412150">
        <ele>493.6</ele>
        <time>2018-03-30T07:24:12Z</time>
      </trkpt>
      <trkpt lat="38.4727270" lon="-0.6412440">
        <ele>493.8</ele>
        <time>2018-03-30T07:24:13Z</time>
      </trkpt>
      <trkpt lat="38.4727570" lon="-0.6412720">
        <ele>494.0</ele>
        <time>2018-03-30T07:24:14Z</time>
      </trkpt>
      <trkpt lat="38.4727860" lon="-0.6413000">
        <ele>494.2</ele>
        <time>2018-03-30T07:24:15Z</time>
      </trkpt>
      <trkpt lat="38.4728130" lon="-0.6413290">
        <ele>494.4</ele>
        <time>2018-03-30T07:24:16Z</time>
      </trkpt>
      <trkpt lat="38.4728390" lon="-0.6413570">
        <ele>494.6</ele>
        <time>2018-03-30T07:24:17Z</time>
      </trkpt>
      <trkpt lat="38.4728660" lon="-0.6413830">
        <ele>494.8</ele>
        <time>2018-03-30T07:24:18Z</time>
      </trkpt>
      <trkpt lat="38.4728910" lon="-0.6414110">
        <ele>495.1</ele>
        <time>2018-03-30T07:24:19Z</time>
      </trkpt>
      <trkpt lat="38.4729160" lon="-0.6414390">
        <ele>495.2</ele>
        <time>2018-03-30T07:24:20Z</time>
      </trkpt>
      <trkpt lat="38.4729380" lon="-0.6414700">
        <ele>495.5</ele>
        <time>2018-03-30T07:24:21Z</time>
      </trkpt>
      <trkpt lat="38.4729630" lon="-0.6415010">
        <ele>495.7</ele>
        <time>2018-03-30T07:24:22Z</time>
      </trkpt>
      <trkpt lat="38.4729860" lon="-0.6415310">
        <ele>495.9</ele>
        <time>2018-03-30T07:24:23Z</time>
      </trkpt>
      <trkpt lat="38.4730030" lon="-0.6415620">
        <ele>496.2</ele>
        <time>2018-03-30T07:24:24Z</time>
      </trkpt>
      <trkpt lat="38.4730220" lon="-0.6415950">
        <ele>496.4</ele>
        <time>2018-03-30T07:24:25Z</time>
      </trkpt>
      <trkpt lat="38.4730410" lon="-0.6416290">
        <ele>496.7</ele>
        <time>2018-03-30T07:24:26Z</time>
      </trkpt>
      <trkpt lat="38.4730580" lon="-0.6416620">
        <ele>496.9</ele>
        <time>2018-03-30T07:24:27Z</time>
      </trkpt>
      <trkpt lat="38.4730780" lon="-0.6416950">
        <ele>497.1</ele>
        <time>2018-03-30T07:24:28Z</time>
      </trkpt>
      <trkpt lat="38.4730990" lon="-0.6417280">
        <ele>497.4</ele>
        <time>2018-03-30T07:24:29Z</time>
      </trkpt>
      <trkpt lat="38.4731200" lon="-0.6417620">
        <ele>497.7</ele>
        <time>2018-03-30T07:24:30Z</time>
      </trkpt>
      <trkpt lat="38.4731440" lon="-0.6417920">
        <ele>497.9</ele>
        <time>2018-03-30T07:24:31Z</time>
      </trkpt>
      <trkpt lat="38.4731670" lon="-0.6418240">
        <ele>498.2</ele>
        <time>2018-03-30T07:24:32Z</time>
      </trkpt>
      <trkpt lat="38.4731900" lon="-0.6418550">
        <ele>498.4</ele>
        <time>2018-03-30T07:24:33Z</time>
      </trkpt>
      <trkpt lat="38.4732100" lon="-0.6418790">
        <ele>498.6</ele>
        <time>2018-03-30T07:24:34Z</time>
      </trkpt>
      <trkpt lat="38.4732340" lon="-0.6418990">
        <ele>498.8</ele>
        <time>2018-03-30T07:24:35Z</time>
      </trkpt>
      <trkpt lat="38.4732650" lon="-0.6419130">
        <ele>499.1</ele>
        <time>2018-03-30T07:24:36Z</time>
      </trkpt>
      <trkpt lat="38.4732990" lon="-0.6419210">
        <ele>499.3</ele>
        <time>2018-03-30T07:24:37Z</time>
      </trkpt>
      <trkpt lat="38.4733330" lon="-0.6419140">
        <ele>499.6</ele>
        <time>2018-03-30T07:24:38Z</time>
      </trkpt>
      <trkpt lat="38.4733650" lon="-0.6419080">
        <ele>499.8</ele>
        <time>2018-03-30T07:24:39Z</time>
      </trkpt>
      <trkpt lat="38.4733900" lon="-0.6418950">
        <ele>500.0</ele>
        <time>2018-03-30T07:24:40Z</time>
      </trkpt>
      <trkpt lat="38.4734170" lon="-0.6418820">
        <ele>500.3</ele>
        <time>2018-03-30T07:24:41Z</time>
      </trkpt>
      <trkpt lat="38.4734440" lon="-0.6418640">
        <ele>500.5</ele>
        <time>2018-03-30T07:24:42Z</time>
      </trkpt>
      <trkpt lat="38.4734700" lon="-0.6418460">
        <ele>500.7</ele>
        <time>2018-03-30T07:24:43Z</time>
      </trkpt>
      <trkpt lat="38.4734970" lon="-0.6418300">
        <ele>500.9</ele>
        <time>2018-03-30T07:24:44Z</time>
      </trkpt>
      <trkpt lat="38.4735250" lon="-0.6418130">
        <ele>501.2</ele>
        <time>2018-03-30T07:24:45Z</time>
      </trkpt>
      <trkpt lat="38.4735540" lon="-0.6417980">
        <ele>501.4</ele>
        <time>2018-03-30T07:24:46Z</time>
      </trkpt>
      <trkpt lat="38.4735850" lon="-0.6417850">
        <ele>501.6</ele>
        <time>2018-03-30T07:24:47Z</time>
      </trkpt>
      <trkpt lat="38.4736160" lon="-0.6417730">
        <ele>501.9</ele>
        <time>2018-03-30T07:24:48Z</time>
      </trkpt>
      <trkpt lat="38.4736480" lon="-0.6417640">
        <ele>502.1</ele>
        <time>2018-03-30T07:24:49Z</time>
      </trkpt>
      <trkpt lat="38.4736810" lon="-0.6417570">
        <ele>502.3</ele>
        <time>2018-03-30T07:24:50Z</time>
      </trkpt>
      <trkpt lat="38.4737170" lon="-0.6417520">
        <ele>502.6</ele>
        <time>2018-03-30T07:24:51Z</time>
      </trkpt>
      <trkpt lat="38.4737510" lon="-0.6417510">
        <ele>502.8</ele>
        <time>2018-03-30T07:24:52Z</time>
      </trkpt>
      <trkpt lat="38.4737850" lon="-0.6417520">
        <ele>503.1</ele>
        <time>2018-03-30T07:24:53Z</time>
      </trkpt>
      <trkpt lat="38.4738210" lon="-0.6417530">
        <ele>503.3</ele>
        <time>2018-03-30T07:24:54Z</time>
      </trkpt>
      <trkpt lat="38.4738560" lon="-0.6417580">
        <ele>503.6</ele>
        <time>2018-03-30T07:24:55Z</time>
      </trkpt>
      <trkpt lat="38.4738900" lon="-0.6417640">
        <ele>503.8</ele>
        <time>2018-03-30T07:24:56Z</time>
      </trkpt>
      <trkpt lat="38.4739230" lon="-0.6417720">
        <ele>504.0</ele>
        <time>2018-03-30T07:24:57Z</time>
      </trkpt>
      <trkpt lat="38.4739570" lon="-0.6417790">
        <ele>504.3</ele>
        <time>2018-03-30T07:24:58Z</time>
      </trkpt>
      <trkpt lat="38.4739900" lon="-0.6417860">
        <ele>504.5</ele>
        <time>2018-03-30T07:24:59Z</time>
      </trkpt>
      <trkpt lat="38.4740230" lon="-0.6417940">
        <ele>504.7</ele>
        <time>2018-03-30T07:25:00Z</time>
      </trkpt>
      <trkpt lat="38.4740560" lon="-0.6418040">
        <ele>505.0</ele>
        <time>2018-03-30T07:25:01Z</time>
      </trkpt>
      <trkpt lat="38.4740880" lon="-0.6418140">
        <ele>505.2</ele>
        <time>2018-03-30T07:25:02Z</time>
      </trkpt>
      <trkpt lat="38.4741210" lon="-0.6418240">
        <ele>505.4</ele>
        <time>2018-03-30T07:25:03Z</time>
      </trkpt>
      <trkpt lat="38.4741520" lon="-0.6418350">
        <ele>505.6</ele>
        <time>2018-03-30T07:25:04Z</time>
      </trkpt>
      <trkpt lat="38.4741830" lon="-0.6418460">
        <ele>505.8</ele>
        <time>2018-03-30T07:25:05Z</time>
      </trkpt>
      <trkpt lat="38.4742140" lon="-0.6418590">
        <ele>506.0</ele>
        <time>2018-03-30T07:25:06Z</time>
      </trkpt>
      <trkpt lat="38.4742450" lon="-0.6418720">
        <ele>506.3</ele>
        <time>2018-03-30T07:25:07Z</time>
      </trkpt>
      <trkpt lat="38.4742760" lon="-0.6418850">
        <ele>506.5</ele>
        <time>2018-03-30T07:25:08Z</time>
      </trkpt>
      <trkpt lat="38.4743070" lon="-0.6419000">
        <ele>506.7</ele>
        <time>2018-03-30T07:25:09Z</time>
      </trkpt>
      <trkpt lat="38.4743380" lon="-0.6419160">
        <ele>506.9</ele>
        <time>2018-03-30T07:25:10Z</time>
      </trkpt>
      <trkpt lat="38.4743680" lon="-0.6419350">
        <ele>507.1</ele>
        <time>2018-03-30T07:25:11Z</time>
      </trkpt>
      <trkpt lat="38.4743990" lon="-0.6419530">
        <ele>507.3</ele>
        <time>2018-03-30T07:25:12Z</time>
      </trkpt>
      <trkpt lat="38.4744280" lon="-0.6419720">
        <ele>507.5</ele>
        <time>2018-03-30T07:25:13Z</time>
      </trkpt>
      <trkpt lat="38.4744590" lon="-0.6419920">
        <ele>507.8</ele>
        <time>2018-03-30T07:25:14Z</time>
      </trkpt>
      <trkpt lat="38.4744900" lon="-0.6420100">
        <ele>508.0</ele>
        <time>2018-03-30T07:25:15Z</time>
      </trkpt>
      <trkpt lat="38.4745190" lon="-0.6420270">
        <ele>508.2</ele>
        <time>2018-03-30T07:25:16Z</time>
      </trkpt>
      <trkpt lat="38.4745490" lon="-0.6420440">
        <ele>508.4</ele>
        <time>2018-03-30T07:25:17Z</time>
      </trkpt>
      <trkpt lat="38.4745780" lon="-0.6420600">
        <ele>508.6</ele>
        <time>2018-03-30T07:25:18Z</time>
      </trkpt>
      <trkpt lat="38.4746100" lon="-0.6420780">
        <ele>508.8</ele>
        <time>2018-03-30T07:25:19Z</time>
      </trkpt>
      <trkpt lat="38.4746400" lon="-0.6420960">
        <ele>509.0</ele>
        <time>2018-03-30T07:25:20Z</time>
      </trkpt>
      <trkpt lat="38.4746710" lon="-0.6421150">
        <ele>509.2</ele>
        <time>2018-03-30T07:25:21Z</time>
      </trkpt>
      <trkpt lat="38.4747010" lon="-0.6421340">
        <ele>509.4</ele>
        <time>2018-03-30T07:25:22Z</time>
      </trkpt>
      <trkpt lat="38.4747330" lon="-0.6421520">
        <ele>509.6</ele>
        <time>2018-03-30T07:25:23Z</time>
      </trkpt>
      <trkpt lat="38.4747620" lon="-0.6421720">
        <ele>509.8</ele>
        <time>2018-03-30T07:25:24Z</time>
      </trkpt>
      <trkpt lat="38.4747900" lon="-0.6421910">
        <ele>510.0</ele>
        <time>2018-03-30T07:25:25Z</time>
      </trkpt>
      <trkpt lat="38.4748180" lon="-0.6422090">
        <ele>510.2</ele>
        <time>2018-03-30T07:25:26Z</time>
      </trkpt>
      <trkpt lat="38.4748470" lon="-0.6422270">
        <ele>510.4</ele>
        <time>2018-03-30T07:25:27Z</time>
      </trkpt>
      <trkpt lat="38.4748760" lon="-0.6422450">
        <ele>510.6</ele>
        <time>2018-03-30T07:25:28Z</time>
      </trkpt>
      <trkpt lat="38.4749050" lon="-0.6422630">
        <ele>510.8</ele>
        <time>2018-03-30T07:25:29Z</time>
      </trkpt>
      <trkpt lat="38.4749350" lon="-0.6422840">
        <ele>511.0</ele>
        <time>2018-03-30T07:25:30Z</time>
      </trkpt>
      <trkpt lat="38.4749610" lon="-0.6423040">
        <ele>511.2</ele>
        <time>2018-03-30T07:25:31Z</time>
      </trkpt>
      <trkpt lat="38.4749860" lon="-0.6423250">
        <ele>511.3</ele>
        <time>2018-03-30T07:25:32Z</time>
      </trkpt>
      <trkpt lat="38.4750130" lon="-0.6423460">
        <ele>511.5</ele>
        <time>2018-03-30T07:25:33Z</time>
      </trkpt>
      <trkpt lat="38.4750390" lon="-0.6423660">
        <ele>511.7</ele>
        <time>2018-03-30T07:25:34Z</time>
      </trkpt>
      <trkpt lat="38.4750630" lon="-0.6423870">
        <ele>511.9</ele>
        <time>2018-03-30T07:25:35Z</time>
      </trkpt>
      <trkpt lat="38.4750870" lon="-0.6424090">
        <ele>512.0</ele>
        <time>2018-03-30T07:25:36Z</time>
      </trkpt>
      <trkpt lat="38.4751120" lon="-0.6424310">
        <ele>512.2</ele>
        <time>2018-03-30T07:25:37Z</time>
      </trkpt>
      <trkpt lat="38.4751360" lon="-0.6424530">
        <ele>512.4</ele>
        <time>2018-03-30T07:25:38Z</time>
      </trkpt>
      <trkpt lat="38.4751630" lon="-0.6424750">
        <ele>512.6</ele>
        <time>2018-03-30T07:25:39Z</time>
      </trkpt>
      <trkpt lat="38.4751870" lon="-0.6424970">
        <ele>512.7</ele>
        <time>2018-03-30T07:25:40Z</time>
      </trkpt>
      <trkpt lat="38.4752110" lon="-0.6425210">
        <ele>512.9</ele>
        <time>2018-03-30T07:25:41Z</time>
      </trkpt>
      <trkpt lat="38.4752390" lon="-0.6425430">
        <ele>513.1</ele>
        <time>2018-03-30T07:25:42Z</time>
      </trkpt>
      <trkpt lat="38.4752650" lon="-0.6425660">
        <ele>513.3</ele>
        <time>2018-03-30T07:25:43Z</time>
      </trkpt>
      <trkpt lat="38.4752890" lon="-0.6425900">
        <ele>513.5</ele>
        <time>2018-03-30T07:25:44Z</time>
      </trkpt>
      <trkpt lat="38.4753140" lon="-0.6426110">
        <ele>513.6</ele>
        <time>2018-03-30T07:25:45Z</time>
      </trkpt>
      <trkpt lat="38.4753390" lon="-0.6426330">
        <ele>513.8</ele>
        <time>2018-03-30T07:25:46Z</time>
      </trkpt>
      <trkpt lat="38.4753650" lon="-0.6426530">
        <ele>514.0</ele>
        <time>2018-03-30T07:25:47Z</time>
      </trkpt>
      <trkpt lat="38.4753910" lon="-0.6426780">
        <ele>514.2</ele>
        <time>2018-03-30T07:25:48Z</time>
      </trkpt>
      <trkpt lat="38.4754170" lon="-0.6426990">
        <ele>514.4</ele>
        <time>2018-03-30T07:25:49Z</time>
      </trkpt>
      <trkpt lat="38.4754360" lon="-0.6427210">
        <ele>514.5</ele>
        <time>2018-03-30T07:25:50Z</time>
      </trkpt>
      <trkpt lat="38.4754570" lon="-0.6427470">
        <ele>514.7</ele>
        <time>2018-03-30T07:25:51Z</time>
      </trkpt>
      <trkpt lat="38.4754810" lon="-0.6427720">
        <ele>514.9</ele>
        <time>2018-03-30T07:25:52Z</time>
      </trkpt>
      <trkpt lat="38.4755060" lon="-0.6427950">
        <ele>515.0</ele>
        <time>2018-03-30T07:25:53Z</time>
      </trkpt>
      <trkpt lat="38.4755320" lon="-0.6428190">
        <ele>515.2</ele>
        <time>2018-03-30T07:25:54Z</time>
      </trkpt>
      <trkpt lat="38.4755550" lon="-0.6428370">
        <ele>515.4</ele>
        <time>2018-03-30T07:25:55Z</time>
      </trkpt>
      <trkpt lat="38.4755780" lon="-0.6428560">
        <ele>515.6</ele>
        <time>2018-03-30T07:25:56Z</time>
      </trkpt>
      <trkpt lat="38.4756010" lon="-0.6428770">
        <ele>515.7</ele>
        <time>2018-03-30T07:25:57Z</time>
      </trkpt>
      <trkpt lat="38.4756260" lon="-0.6428990">
        <ele>515.9</ele>
        <time>2018-03-30T07:25:58Z</time>
      </trkpt>
      <trkpt lat="38.4756490" lon="-0.6429200">
        <ele>516.1</ele>
        <time>2018-03-30T07:25:59Z</time>
      </trkpt>
      <trkpt lat="38.4756740" lon="-0.6429420">
        <ele>516.3</ele>
        <time>2018-03-30T07:26:00Z</time>
      </trkpt>
      <trkpt lat="38.4756970" lon="-0.6429620">
        <ele>516.4</ele>
        <time>2018-03-30T07:26:01Z</time>
      </trkpt>
      <trkpt lat="38.4757200" lon="-0.6429840">
        <ele>516.6</ele>
        <time>2018-03-30T07:26:02Z</time>
      </trkpt>
      <trkpt lat="38.4757410" lon="-0.6430060">
        <ele>516.8</ele>
        <time>2018-03-30T07:26:03Z</time>
      </trkpt>
      <trkpt lat="38.4757650" lon="-0.6430290">
        <ele>517.0</ele>
        <time>2018-03-30T07:26:04Z</time>
      </trkpt>
      <trkpt lat="38.4757890" lon="-0.6430500">
        <ele>517.1</ele>
        <time>2018-03-30T07:26:05Z</time>
      </trkpt>
      <trkpt lat="38.4758140" lon="-0.6430700">
        <ele>517.3</ele>
        <time>2018-03-30T07:26:06Z</time>
      </trkpt>
      <trkpt lat="38.4758360" lon="-0.6430910">
        <ele>517.5</ele>
        <time>2018-03-30T07:26:07Z</time>
      </trkpt>
      <trkpt lat="38.4758600" lon="-0.6431130">
        <ele>517.6</ele>
        <time>2018-03-30T07:26:08Z</time>
      </trkpt>
      <trkpt lat="38.4758850" lon="-0.6431350">
        <ele>517.8</ele>
        <time>2018-03-30T07:26:09Z</time>
      </trkpt>
      <trkpt lat="38.4759100" lon="-0.6431560">
        <ele>517.9</ele>
        <time>2018-03-30T07:26:10Z</time>
      </trkpt>
      <trkpt lat="38.4759340" lon="-0.6431770">
        <ele>518.1</ele>
        <time>2018-03-30T07:26:11Z</time>
      </trkpt>
      <trkpt lat="38.4759570" lon="-0.6431980">
        <ele>518.2</ele>
        <time>2018-03-30T07:26:12Z</time>
      </trkpt>
      <trkpt lat="38.4759830" lon="-0.6432170">
        <ele>518.4</ele>
        <time>2018-03-30T07:26:13Z</time>
      </trkpt>
      <trkpt lat="38.4760060" lon="-0.6432360">
        <ele>518.5</ele>
        <time>2018-03-30T07:26:14Z</time>
      </trkpt>
      <trkpt lat="38.4760280" lon="-0.6432550">
        <ele>518.6</ele>
        <time>2018-03-30T07:26:15Z</time>
      </trkpt>
      <trkpt lat="38.4760500" lon="-0.6432740">
        <ele>518.8</ele>
        <time>2018-03-30T07:26:16Z</time>
      </trkpt>
      <trkpt lat="38.4760730" lon="-0.6432920">
        <ele>518.9</ele>
        <time>2018-03-30T07:26:17Z</time>
      </trkpt>
      <trkpt lat="38.4760980" lon="-0.6433110">
        <ele>519.0</ele>
        <time>2018-03-30T07:26:18Z</time>
      </trkpt>
      <trkpt lat="38.4761200" lon="-0.6433310">
        <ele>519.1</ele>
        <time>2018-03-30T07:26:19Z</time>
      </trkpt>
      <trkpt lat="38.4761450" lon="-0.6433510">
        <ele>519.2</ele>
        <time>2018-03-30T07:26:20Z</time>
      </trkpt>
      <trkpt lat="38.4761680" lon="-0.6433700">
        <ele>519.3</ele>
        <time>2018-03-30T07:26:21Z</time>
      </trkpt>
      <trkpt lat="38.4761940" lon="-0.6433860">
        <ele>519.4</ele>
        <time>2018-03-30T07:26:22Z</time>
      </trkpt>
      <trkpt lat="38.4762180" lon="-0.6434040">
        <ele>519.5</ele>
        <time>2018-03-30T07:26:23Z</time>
      </trkpt>
      <trkpt lat="38.4762420" lon="-0.6434230">
        <ele>519.6</ele>
        <time>2018-03-30T07:26:24Z</time>
      </trkpt>
      <trkpt lat="38.4762680" lon="-0.6434410">
        <ele>519.7</ele>
        <time>2018-03-30T07:26:25Z</time>
      </trkpt>
      <trkpt lat="38.4762920" lon="-0.6434600">
        <ele>519.8</ele>
        <time>2018-03-30T07:26:26Z</time>
      </trkpt>
      <trkpt lat="38.4763150" lon="-0.6434790">
        <ele>519.9</ele>
        <time>2018-03-30T07:26:27Z</time>
      </trkpt>
      <trkpt lat="38.4763390" lon="-0.6434980">
        <ele>520.0</ele>
        <time>2018-03-30T07:26:28Z</time>
      </trkpt>
      <trkpt lat="38.4763650" lon="-0.6435190">
        <ele>520.1</ele>
        <time>2018-03-30T07:26:29Z</time>
      </trkpt>
      <trkpt lat="38.4763950" lon="-0.6435390">
        <ele>520.2</ele>
        <time>2018-03-30T07:26:30Z</time>
      </trkpt>
      <trkpt lat="38.4764210" lon="-0.6435580">
        <ele>520.3</ele>
        <time>2018-03-30T07:26:31Z</time>
      </trkpt>
      <trkpt lat="38.4764470" lon="-0.6435800">
        <ele>520.4</ele>
        <time>2018-03-30T07:26:32Z</time>
      </trkpt>
      <trkpt lat="38.4764730" lon="-0.6436010">
        <ele>520.4</ele>
        <time>2018-03-30T07:26:33Z</time>
      </trkpt>
      <trkpt lat="38.4764980" lon="-0.6436210">
        <ele>520.5</ele>
        <time>2018-03-30T07:26:34Z</time>
      </trkpt>
      <trkpt lat="38.4765230" lon="-0.6436400">
        <ele>520.5</ele>
        <time>2018-03-30T07:26:35Z</time>
      </trkpt>
      <trkpt lat="38.4765450" lon="-0.6436600">
        <ele>520.6</ele>
        <time>2018-03-30T07:26:36Z</time>
      </trkpt>
      <trkpt lat="38.4765690" lon="-0.6436800">
        <ele>520.7</ele>
        <time>2018-03-30T07:26:37Z</time>
      </trkpt>
      <trkpt lat="38.4765940" lon="-0.6437010">
        <ele>520.7</ele>
        <time>2018-03-30T07:26:38Z</time>
      </trkpt>
      <trkpt lat="38.4766190" lon="-0.6437230">
        <ele>520.8</ele>
        <time>2018-03-30T07:26:39Z</time>
      </trkpt>
      <trkpt lat="38.4766440" lon="-0.6437370">
        <ele>520.8</ele>
        <time>2018-03-30T07:26:40Z</time>
      </trkpt>
      <trkpt lat="38.4766710" lon="-0.6437580">
        <ele>520.9</ele>
        <time>2018-03-30T07:26:41Z</time>
      </trkpt>
      <trkpt lat="38.4767010" lon="-0.6437850">
        <ele>521.1</ele>
        <time>2018-03-30T07:26:42Z</time>
      </trkpt>
      <trkpt lat="38.4767300" lon="-0.6438140">
        <ele>521.2</ele>
        <time>2018-03-30T07:26:43Z</time>
      </trkpt>
      <trkpt lat="38.4767610" lon="-0.6438420">
        <ele>521.4</ele>
        <time>2018-03-30T07:26:44Z</time>
      </trkpt>
      <trkpt lat="38.4767920" lon="-0.6438710">
        <ele>521.6</ele>
        <time>2018-03-30T07:26:45Z</time>
      </trkpt>
      <trkpt lat="38.4768210" lon="-0.6439000">
        <ele>521.7</ele>
        <time>2018-03-30T07:26:46Z</time>
      </trkpt>
      <trkpt lat="38.4768500" lon="-0.6439290">
        <ele>521.9</ele>
        <time>2018-03-30T07:26:47Z</time>
      </trkpt>
      <trkpt lat="38.4768780" lon="-0.6439530">
        <ele>522.2</ele>
        <time>2018-03-30T07:26:48Z</time>
      </trkpt>
      <trkpt lat="38.4769020" lon="-0.6439710">
        <ele>522.3</ele>
        <time>2018-03-30T07:26:49Z</time>
      </trkpt>
      <trkpt lat="38.4769240" lon="-0.6439960">
        <ele>523.1</ele>
        <time>2018-03-30T07:26:50Z</time>
      </trkpt>
      <trkpt lat="38.4769490" lon="-0.6440170">
        <ele>523.6</ele>
        <time>2018-03-30T07:26:51Z</time>
      </trkpt>
      <trkpt lat="38.4769730" lon="-0.6440340">
        <ele>524.1</ele>
        <time>2018-03-30T07:26:52Z</time>
      </trkpt>
      <trkpt lat="38.4769960" lon="-0.6440530">
        <ele>524.6</ele>
        <time>2018-03-30T07:26:53Z</time>
      </trkpt>
      <trkpt lat="38.4770270" lon="-0.6440650">
        <ele>525.0</ele>
        <time>2018-03-30T07:26:54Z</time>
      </trkpt>
      <trkpt lat="38.4770540" lon="-0.6440760">
        <ele>525.7</ele>
        <time>2018-03-30T07:26:55Z</time>
      </trkpt>
      <trkpt lat="38.4770840" lon="-0.6440870">
        <ele>526.1</ele>
        <time>2018-03-30T07:26:56Z</time>
      </trkpt>
      <trkpt lat="38.4771140" lon="-0.6441000">
        <ele>526.5</ele>
        <time>2018-03-30T07:26:57Z</time>
      </trkpt>
      <trkpt lat="38.4771440" lon="-0.6441130">
        <ele>527.0</ele>
        <time>2018-03-30T07:26:58Z</time>
      </trkpt>
      <trkpt lat="38.4771700" lon="-0.6441260">
        <ele>527.5</ele>
        <time>2018-03-30T07:26:59Z</time>
      </trkpt>
      <trkpt lat="38.4771920" lon="-0.6441390">
        <ele>527.9</ele>
        <time>2018-03-30T07:27:00Z</time>
      </trkpt>
      <trkpt lat="38.4772170" lon="-0.6441510">
        <ele>528.4</ele>
        <time>2018-03-30T07:27:01Z</time>
      </trkpt>
      <trkpt lat="38.4772360" lon="-0.6441620">
        <ele>528.9</ele>
        <time>2018-03-30T07:27:02Z</time>
      </trkpt>
      <trkpt lat="38.4772530" lon="-0.6441710">
        <ele>529.4</ele>
        <time>2018-03-30T07:27:03Z</time>
      </trkpt>
      <trkpt lat="38.4772730" lon="-0.6441820">
        <ele>529.7</ele>
        <time>2018-03-30T07:27:04Z</time>
      </trkpt>
      <trkpt lat="38.4772910" lon="-0.6441940">
        <ele>530.2</ele>
        <time>2018-03-30T07:27:05Z</time>
      </trkpt>
      <trkpt lat="38.4773080" lon="-0.6442060">
        <ele>530.8</ele>
        <time>2018-03-30T07:27:06Z</time>
      </trkpt>
      <trkpt lat="38.4773260" lon="-0.6442150">
        <ele>531.4</ele>
        <time>2018-03-30T07:27:07Z</time>
      </trkpt>
      <trkpt lat="38.4773430" lon="-0.6442230">
        <ele>531.7</ele>
        <time>2018-03-30T07:27:08Z</time>
      </trkpt>
      <trkpt lat="38.4773600" lon="-0.6442340">
        <ele>532.2</ele>
        <time>2018-03-30T07:27:09Z</time>
      </trkpt>
      <trkpt lat="38.4773740" lon="-0.6442450">
        <ele>532.5</ele>
        <time>2018-03-30T07:27:10Z</time>
      </trkpt>
      <trkpt lat="38.4773870" lon="-0.6442550">
        <ele>533.4</ele>
        <time>2018-03-30T07:27:11Z</time>
      </trkpt>
      <trkpt lat="38.4774030" lon="-0.6442640">
        <ele>533.7</ele>
        <time>2018-03-30T07:27:12Z</time>
      </trkpt>
      <trkpt lat="38.4774190" lon="-0.6442710">
        <ele>534.3</ele>
        <time>2018-03-30T07:27:13Z</time>
      </trkpt>
      <trkpt lat="38.4774360" lon="-0.6442790">
        <ele>534.6</ele>
        <time>2018-03-30T07:27:14Z</time>
      </trkpt>
      <trkpt lat="38.4774530" lon="-0.6442900">
        <ele>535.5</ele>
        <time>2018-03-30T07:27:15Z</time>
      </trkpt>
      <trkpt lat="38.4774690" lon="-0.6443030">
        <ele>535.8</ele>
        <time>2018-03-30T07:27:16Z</time>
      </trkpt>
      <trkpt lat="38.4774830" lon="-0.6443120">
        <ele>536.3</ele>
        <time>2018-03-30T07:27:17Z</time>
      </trkpt>
      <trkpt lat="38.4774980" lon="-0.6443230">
        <ele>536.6</ele>
        <time>2018-03-30T07:27:18Z</time>
      </trkpt>
      <trkpt lat="38.4775130" lon="-0.6443330">
        <ele>537.3</ele>
        <time>2018-03-30T07:27:19Z</time>
      </trkpt>
      <trkpt lat="38.4775310" lon="-0.6443420">
        <ele>537.7</ele>
        <time>2018-03-30T07:27:20Z</time>
      </trkpt>
      <trkpt lat="38.4775470" lon="-0.6443500">
        <ele>538.2</ele>
        <time>2018-03-30T07:27:21Z</time>
      </trkpt>
      <trkpt lat="38.4775630" lon="-0.6443620">
        <ele>538.5</ele>
        <time>2018-03-30T07:27:22Z</time>
      </trkpt>
      <trkpt lat="38.4775800" lon="-0.6443730">
        <ele>538.8</ele>
        <time>2018-03-30T07:27:23Z</time>
      </trkpt>
      <trkpt lat="38.4775960" lon="-0.6443850">
        <ele>539.6</ele>
        <time>2018-03-30T07:27:24Z</time>
      </trkpt>
      <trkpt lat="38.4776120" lon="-0.6443970">
        <ele>539.9</ele>
        <time>2018-03-30T07:27:25Z</time>
      </trkpt>
      <trkpt lat="38.4776290" lon="-0.6444070">
        <ele>540.3</ele>
        <time>2018-03-30T07:27:26Z</time>
      </trkpt>
      <trkpt lat="38.4776450" lon="-0.6444170">
        <ele>540.9</ele>
        <time>2018-03-30T07:27:27Z</time>
      </trkpt>
      <trkpt lat="38.4776580" lon="-0.6444250">
        <ele>541.3</ele>
        <time>2018-03-30T07:27:28Z</time>
      </trkpt>
      <trkpt lat="38.4776710" lon="-0.6444340">
        <ele>541.6</ele>
        <time>2018-03-30T07:27:29Z</time>
      </trkpt>
      <trkpt lat="38.4776850" lon="-0.6444450">
        <ele>542.0</ele>
        <time>2018-03-30T07:27:30Z</time>
      </trkpt>
      <trkpt lat="38.4777020" lon="-0.6444560">
        <ele>542.0</ele>
        <time>2018-03-30T07:27:31Z</time>
      </trkpt>
      <trkpt lat="38.4777180" lon="-0.6444660">
        <ele>542.0</ele>
        <time>2018-03-30T07:27:32Z</time>
      </trkpt>
      <trkpt lat="38.4777370" lon="-0.6444760">
        <ele>542.0</ele>
        <time>2018-03-30T07:27:33Z</time>
      </trkpt>
      <trkpt lat="38.4777530" lon="-0.6444860">
        <ele>542.0</ele>
        <time>2018-03-30T07:27:34Z</time>
      </trkpt>
      <trkpt lat="38.4777710" lon="-0.6444970">
        <ele>542.0</ele>
        <time>2018-03-30T07:27:35Z</time>
      </trkpt>
      <trkpt lat="38.4777870" lon="-0.6445080">
        <ele>542.0</ele>
        <time>2018-03-30T07:27:36Z</time>
      </trkpt>
      <trkpt lat="38.4778030" lon="-0.6445170">
        <ele>542.0</ele>
        <time>2018-03-30T07:27:37Z</time>
      </trkpt>
      <trkpt lat="38.4778210" lon="-0.6445260">
        <ele>542.0</ele>
        <time>2018-03-30T07:27:38Z</time>
      </trkpt>
      <trkpt lat="38.4778410" lon="-0.6445360">
        <ele>542.0</ele>
        <time>2018-03-30T07:27:39Z</time>
      </trkpt>
      <trkpt lat="38.4778590" lon="-0.6445440">
        <ele>542.0</ele>
        <time>2018-03-30T07:27:40Z</time>
      </trkpt>
      <trkpt lat="38.4778750" lon="-0.6445570">
        <ele>542.0</ele>
        <time>2018-03-30T07:27:41Z</time>
      </trkpt>
      <trkpt lat="38.4778940" lon="-0.6445680">
        <ele>542.0</ele>
        <time>2018-03-30T07:27:42Z</time>
      </trkpt>
      <trkpt lat="38.4779120" lon="-0.6445760">
        <ele>542.0</ele>
        <time>2018-03-30T07:27:43Z</time>
      </trkpt>
      <trkpt lat="38.4779300" lon="-0.6445840">
        <ele>542.0</ele>
        <time>2018-03-30T07:27:44Z</time>
      </trkpt>
      <trkpt lat="38.4779460" lon="-0.6445920">
        <ele>542.0</ele>
        <time>2018-03-30T07:27:45Z</time>
      </trkpt>
      <trkpt lat="38.4779650" lon="-0.6445990">
        <ele>542.0</ele>
        <time>2018-03-30T07:27:46Z</time>
      </trkpt>
      <trkpt lat="38.4779850" lon="-0.6446080">
        <ele>542.0</ele>
        <time>2018-03-30T07:27:47Z</time>
      </trkpt>
      <trkpt lat="38.4780030" lon="-0.6446140">
        <ele>542.0</ele>
        <time>2018-03-30T07:27:48Z</time>
      </trkpt>
      <trkpt lat="38.4780200" lon="-0.6446200">
        <ele>542.0</ele>
        <time>2018-03-30T07:27:49Z</time>
      </trkpt>
      <trkpt lat="38.4780370" lon="-0.6446270">
        <ele>542.0</ele>
        <time>2018-03-30T07:27:50Z</time>
      </trkpt>
      <trkpt lat="38.4780560" lon="-0.6446340">
        <ele>542.3</ele>
        <time>2018-03-30T07:27:51Z</time>
      </trkpt>
      <trkpt lat="38.4780730" lon="-0.6446370">
        <ele>542.3</ele>
        <time>2018-03-30T07:27:52Z</time>
      </trkpt>
      <trkpt lat="38.4780910" lon="-0.6446360">
        <ele>542.3</ele>
        <time>2018-03-30T07:27:53Z</time>
      </trkpt>
      <trkpt lat="38.4781100" lon="-0.6446360">
        <ele>542.3</ele>
        <time>2018-03-30T07:27:54Z</time>
      </trkpt>
      <trkpt lat="38.4781310" lon="-0.6446360">
        <ele>542.3</ele>
        <time>2018-03-30T07:27:55Z</time>
      </trkpt>
      <trkpt lat="38.4781520" lon="-0.6446350">
        <ele>542.2</ele>
        <time>2018-03-30T07:27:56Z</time>
      </trkpt>
      <trkpt lat="38.4781720" lon="-0.6446360">
        <ele>542.2</ele>
        <time>2018-03-30T07:27:57Z</time>
      </trkpt>
      <trkpt lat="38.4781940" lon="-0.6446380">
        <ele>542.1</ele>
        <time>2018-03-30T07:27:58Z</time>
      </trkpt>
      <trkpt lat="38.4782110" lon="-0.6446430">
        <ele>542.1</ele>
        <time>2018-03-30T07:27:59Z</time>
      </trkpt>
      <trkpt lat="38.4782290" lon="-0.6446540">
        <ele>542.0</ele>
        <time>2018-03-30T07:28:00Z</time>
      </trkpt>
      <trkpt lat="38.4782450" lon="-0.6446650">
        <ele>542.0</ele>
        <time>2018-03-30T07:28:01Z</time>
      </trkpt>
      <trkpt lat="38.4782610" lon="-0.6446790">
        <ele>542.2</ele>
        <time>2018-03-30T07:28:02Z</time>
      </trkpt>
      <trkpt lat="38.4782780" lon="-0.6446920">
        <ele>542.2</ele>
        <time>2018-03-30T07:28:03Z</time>
      </trkpt>
      <trkpt lat="38.4782960" lon="-0.6447080">
        <ele>542.1</ele>
        <time>2018-03-30T07:28:04Z</time>
      </trkpt>
      <trkpt lat="38.4782980" lon="-0.6447260">
        <ele>542.3</ele>
        <time>2018-03-30T07:28:05Z</time>
      </trkpt>
      <trkpt lat="38.4782830" lon="-0.6447360">
        <ele>542.3</ele>
        <time>2018-03-30T07:28:06Z</time>
      </trkpt>
      <trkpt lat="38.4782650" lon="-0.6447360">
        <ele>542.3</ele>
        <time>2018-03-30T07:28:07Z</time>
      </trkpt>
      <trkpt lat="38.4782420" lon="-0.6447370">
        <ele>542.4</ele>
        <time>2018-03-30T07:28:08Z</time>
      </trkpt>
      <trkpt lat="38.4782180" lon="-0.6447340">
        <ele>542.4</ele>
        <time>2018-03-30T07:28:09Z</time>
      </trkpt>
      <trkpt lat="38.4781930" lon="-0.6447300">
        <ele>542.4</ele>
        <time>2018-03-30T07:28:10Z</time>
      </trkpt>
      <trkpt lat="38.4781690" lon="-0.6447310">
        <ele>542.5</ele>
        <time>2018-03-30T07:28:11Z</time>
      </trkpt>
      <trkpt lat="38.4781490" lon="-0.6447320">
        <ele>542.5</ele>
        <time>2018-03-30T07:28:12Z</time>
      </trkpt>
      <trkpt lat="38.4781280" lon="-0.6447290">
        <ele>542.5</ele>
        <time>2018-03-30T07:28:13Z</time>
      </trkpt>
      <trkpt lat="38.4781060" lon="-0.6447260">
        <ele>542.5</ele>
        <time>2018-03-30T07:28:14Z</time>
      </trkpt>
      <trkpt lat="38.4780840" lon="-0.6447240">
        <ele>542.5</ele>
        <time>2018-03-30T07:28:15Z</time>
      </trkpt>
      <trkpt lat="38.4780610" lon="-0.6447200">
        <ele>542.4</ele>
        <time>2018-03-30T07:28:16Z</time>
      </trkpt>
      <trkpt lat="38.4780390" lon="-0.6447150">
        <ele>542.2</ele>
        <time>2018-03-30T07:28:17Z</time>
      </trkpt>
      <trkpt lat="38.4780170" lon="-0.6447110">
        <ele>542.1</ele>
        <time>2018-03-30T07:28:18Z</time>
      </trkpt>
      <trkpt lat="38.4779940" lon="-0.6447070">
        <ele>542.1</ele>
        <time>2018-03-30T07:28:19Z</time>
      </trkpt>
      <trkpt lat="38.4779710" lon="-0.6447040">
        <ele>542.0</ele>
        <time>2018-03-30T07:28:20Z</time>
      </trkpt>
      <trkpt lat="38.4779470" lon="-0.6447030">
        <ele>542.0</ele>
        <time>2018-03-30T07:28:21Z</time>
      </trkpt>
      <trkpt lat="38.4779240" lon="-0.6447030">
        <ele>542.0</ele>
        <time>2018-03-30T07:28:22Z</time>
      </trkpt>
      <trkpt lat="38.4778980" lon="-0.6447000">
        <ele>542.0</ele>
        <time>2018-03-30T07:28:23Z</time>
      </trkpt>
      <trkpt lat="38.4778710" lon="-0.6446980">
        <ele>542.0</ele>
        <time>2018-03-30T07:28:24Z</time>
      </trkpt>
      <trkpt lat="38.4778410" lon="-0.6446950">
        <ele>542.0</ele>
        <time>2018-03-30T07:28:25Z</time>
      </trkpt>
      <trkpt lat="38.4778090" lon="-0.6446940">
        <ele>542.0</ele>
        <time>2018-03-30T07:28:26Z</time>
      </trkpt>
      <trkpt lat="38.4777740" lon="-0.6446930">
        <ele>542.3</ele>
        <time>2018-03-30T07:28:27Z</time>
      </trkpt>
      <trkpt lat="38.4777400" lon="-0.6446980">
        <ele>542.9</ele>
        <time>2018-03-30T07:28:28Z</time>
      </trkpt>
      <trkpt lat="38.4777080" lon="-0.6447120">
        <ele>543.5</ele>
        <time>2018-03-30T07:28:29Z</time>
      </trkpt>
      <trkpt lat="38.4776750" lon="-0.6447340">
        <ele>544.1</ele>
        <time>2018-03-30T07:28:30Z</time>
      </trkpt>
      <trkpt lat="38.4776400" lon="-0.6447590">
        <ele>544.8</ele>
        <time>2018-03-30T07:28:31Z</time>
      </trkpt>
      <trkpt lat="38.4776000" lon="-0.6447860">
        <ele>545.6</ele>
        <time>2018-03-30T07:28:32Z</time>
      </trkpt>
      <trkpt lat="38.4775600" lon="-0.6448130">
        <ele>546.4</ele>
        <time>2018-03-30T07:28:33Z</time>
      </trkpt>
      <trkpt lat="38.4775160" lon="-0.6448410">
        <ele>547.1</ele>
        <time>2018-03-30T07:28:34Z</time>
      </trkpt>
      <trkpt lat="38.4774710" lon="-0.6448700">
        <ele>547.8</ele>
        <time>2018-03-30T07:28:35Z</time>
      </trkpt>
      <trkpt lat="38.4774270" lon="-0.6449030">
        <ele>548.5</ele>
        <time>2018-03-30T07:28:36Z</time>
      </trkpt>
      <trkpt lat="38.4773820" lon="-0.6449370">
        <ele>549.2</ele>
        <time>2018-03-30T07:28:37Z</time>
      </trkpt>
      <trkpt lat="38.4773340" lon="-0.6449720">
        <ele>549.9</ele>
        <time>2018-03-30T07:28:38Z</time>
      </trkpt>
      <trkpt lat="38.4772840" lon="-0.6450070">
        <ele>550.7</ele>
        <time>2018-03-30T07:28:39Z</time>
      </trkpt>
      <trkpt lat="38.4772340" lon="-0.6450410">
        <ele>552.3</ele>
        <time>2018-03-30T07:28:40Z</time>
      </trkpt>
      <trkpt lat="38.4771830" lon="-0.6450700">
        <ele>552.9</ele>
        <time>2018-03-30T07:28:41Z</time>
      </trkpt>
      <trkpt lat="38.4771370" lon="-0.6450990">
        <ele>553.4</ele>
        <time>2018-03-30T07:28:42Z</time>
      </trkpt>
      <trkpt lat="38.4770920" lon="-0.6451280">
        <ele>553.9</ele>
        <time>2018-03-30T07:28:43Z</time>
      </trkpt>
      <trkpt lat="38.4770470" lon="-0.6451590">
        <ele>554.5</ele>
        <time>2018-03-30T07:28:44Z</time>
      </trkpt>
      <trkpt lat="38.4770010" lon="-0.6451910">
        <ele>555.0</ele>
        <time>2018-03-30T07:28:45Z</time>
      </trkpt>
      <trkpt lat="38.4769560" lon="-0.6452200">
        <ele>555.5</ele>
        <time>2018-03-30T07:28:46Z</time>
      </trkpt>
      <trkpt lat="38.4769120" lon="-0.6452500">
        <ele>556.0</ele>
        <time>2018-03-30T07:28:47Z</time>
      </trkpt>
      <trkpt lat="38.4768680" lon="-0.6452800">
        <ele>555.9</ele>
        <time>2018-03-30T07:28:48Z</time>
      </trkpt>
      <trkpt lat="38.4768240" lon="-0.6453110">
        <ele>555.7</ele>
        <time>2018-03-30T07:28:49Z</time>
      </trkpt>
      <trkpt lat="38.4767780" lon="-0.6453420">
        <ele>555.6</ele>
        <time>2018-03-30T07:28:50Z</time>
      </trkpt>
      <trkpt lat="38.4767590" lon="-0.6453720">
        <ele>555.5</ele>
        <time>2018-03-30T07:28:51Z</time>
      </trkpt>
      <trkpt lat="38.4767400" lon="-0.6454030">
        <ele>555.5</ele>
        <time>2018-03-30T07:28:52Z</time>
      </trkpt>
      <trkpt lat="38.4767210" lon="-0.6454330">
        <ele>555.4</ele>
        <time>2018-03-30T07:28:53Z</time>
      </trkpt>
      <trkpt lat="38.4767020" lon="-0.6454640">
        <ele>555.3</ele>
        <time>2018-03-30T07:28:54Z</time>
      </trkpt>
      <trkpt lat="38.4766830" lon="-0.6454940">
        <ele>555.2</ele>
        <time>2018-03-30T07:28:55Z</time>
      </trkpt>
      <trkpt lat="38.4766650" lon="-0.6455250">
        <ele>555.2</ele>
        <time>2018-03-30T07:28:56Z</time>
      </trkpt>
      <trkpt lat="38.4766460" lon="-0.6455550">
        <ele>555.1</ele>
        <time>2018-03-30T07:28:57Z</time>
      </trkpt>
      <trkpt lat="38.4766270" lon="-0.6455860">
        <ele>555.0</ele>
        <time>2018-03-30T07:28:58Z</time>
      </trkpt>
      <trkpt lat="38.4766080" lon="-0.6456160">
        <ele>555.0</ele>
        <time>2018-03-30T07:28:59Z</time>
      </trkpt>
      <trkpt lat="38.4765890" lon="-0.6456470">
        <ele>554.9</ele>
        <time>2018-03-30T07:29:00Z</time>
      </trkpt>
      <trkpt lat="38.4765700" lon="-0.6456770">
        <ele>554.8</ele>
        <time>2018-03-30T07:29:01Z</time>
      </trkpt>
      <trkpt lat="38.4765510" lon="-0.6457080">
        <ele>554.7</ele>
        <time>2018-03-30T07:29:02Z</time>
      </trkpt>
      <trkpt lat="38.4765320" lon="-0.6457380">
        <ele>554.5</ele>
        <time>2018-03-30T07:29:03Z</time>
      </trkpt>
      <trkpt lat="38.4765130" lon="-0.6457680">
        <ele>554.2</ele>
        <time>2018-03-30T07:29:04Z</time>
      </trkpt>
      <trkpt lat="38.4764940" lon="-0.6457990">
        <ele>553.9</ele>
        <time>2018-03-30T07:29:05Z</time>
      </trkpt>
      <trkpt lat="38.4764750" lon="-0.6458290">
        <ele>553.5</ele>
        <time>2018-03-30T07:29:06Z</time>
      </trkpt>
      <trkpt lat="38.4764560" lon="-0.6458600">
        <ele>553.0</ele>
        <time>2018-03-30T07:29:07Z</time>
      </trkpt>
      <trkpt lat="38.4764380" lon="-0.6458900">
        <ele>552.6</ele>
        <time>2018-03-30T07:29:08Z</time>
      </trkpt>
      <trkpt lat="38.4764190" lon="-0.6459210">
        <ele>552.0</ele>
        <time>2018-03-30T07:29:09Z</time>
      </trkpt>
      <trkpt lat="38.4764000" lon="-0.6459510">
        <ele>551.5</ele>
        <time>2018-03-30T07:29:10Z</time>
      </trkpt>
      <trkpt lat="38.4763810" lon="-0.6459820">
        <ele>550.9</ele>
        <time>2018-03-30T07:29:11Z</time>
      </trkpt>
      <trkpt lat="38.4763620" lon="-0.6460120">
        <ele>550.3</ele>
        <time>2018-03-30T07:29:12Z</time>
      </trkpt>
      <trkpt lat="38.4763430" lon="-0.6460430">
        <ele>549.7</ele>
        <time>2018-03-30T07:29:13Z</time>
      </trkpt>
      <trkpt lat="38.4763240" lon="-0.6460730">
        <ele>549.0</ele>
        <time>2018-03-30T07:29:14Z</time>
      </trkpt>
      <trkpt lat="38.4758700" lon="-0.6468040">
        <ele>535.7</ele>
        <time>2018-03-30T07:29:15Z</time>
      </trkpt>
      <trkpt lat="38.4758510" lon="-0.6468840">
        <ele>535.1</ele>
        <time>2018-03-30T07:29:16Z</time>
      </trkpt>
      <trkpt lat="38.4758260" lon="-0.6469560">
        <ele>534.5</ele>
        <time>2018-03-30T07:29:17Z</time>
      </trkpt>
      <trkpt lat="38.4757960" lon="-0.6470270">
        <ele>533.9</ele>
        <time>2018-03-30T07:29:18Z</time>
      </trkpt>
      <trkpt lat="38.4757650" lon="-0.6471010">
        <ele>533.3</ele>
        <time>2018-03-30T07:29:19Z</time>
      </trkpt>
      <trkpt lat="38.4757350" lon="-0.6471750">
        <ele>532.8</ele>
        <time>2018-03-30T07:29:20Z</time>
      </trkpt>
      <trkpt lat="38.4757050" lon="-0.6472510">
        <ele>532.2</ele>
        <time>2018-03-30T07:29:21Z</time>
      </trkpt>
      <trkpt lat="38.4756750" lon="-0.6473320">
        <ele>531.7</ele>
        <time>2018-03-30T07:29:22Z</time>
      </trkpt>
      <trkpt lat="38.4756460" lon="-0.6474120">
        <ele>531.1</ele>
        <time>2018-03-30T07:29:23Z</time>
      </trkpt>
      <trkpt lat="38.4756170" lon="-0.6474910">
        <ele>530.6</ele>
        <time>2018-03-30T07:29:24Z</time>
      </trkpt>
      <trkpt lat="38.4755860" lon="-0.6475710">
        <ele>530.0</ele>
        <time>2018-03-30T07:29:25Z</time>
      </trkpt>
      <trkpt lat="38.4755540" lon="-0.6476500">
        <ele>529.5</ele>
        <time>2018-03-30T07:29:26Z</time>
      </trkpt>
      <trkpt lat="38.4755220" lon="-0.6477300">
        <ele>529.1</ele>
        <time>2018-03-30T07:29:27Z</time>
      </trkpt>
      <trkpt lat="38.4754920" lon="-0.6478120">
        <ele>528.8</ele>
        <time>2018-03-30T07:29:28Z</time>
      </trkpt>
      <trkpt lat="38.4754600" lon="-0.6478950">
        <ele>528.4</ele>
        <time>2018-03-30T07:29:29Z</time>
      </trkpt>
      <trkpt lat="38.4754290" lon="-0.6479790">
        <ele>528.0</ele>
        <time>2018-03-30T07:29:30Z</time>
      </trkpt>
      <trkpt lat="38.4753990" lon="-0.6480630">
        <ele>527.7</ele>
        <time>2018-03-30T07:29:31Z</time>
      </trkpt>
      <trkpt lat="38.4753700" lon="-0.6481470">
        <ele>527.3</ele>
        <time>2018-03-30T07:29:32Z</time>
      </trkpt>
      <trkpt lat="38.4753380" lon="-0.6482320">
        <ele>526.9</ele>
        <time>2018-03-30T07:29:33Z</time>
      </trkpt>
      <trkpt lat="38.4753060" lon="-0.6483160">
        <ele>526.6</ele>
        <time>2018-03-30T07:29:34Z</time>
      </trkpt>
      <trkpt lat="38.4752750" lon="-0.6484000">
        <ele>526.2</ele>
        <time>2018-03-30T07:29:35Z</time>
      </trkpt>
      <trkpt lat="38.4752450" lon="-0.6484830">
        <ele>525.9</ele>
        <time>2018-03-30T07:29:36Z</time>
      </trkpt>
      <trkpt lat="38.4752150" lon="-0.6485630">
        <ele>525.5</ele>
        <time>2018-03-30T07:29:37Z</time>
      </trkpt>
      <trkpt lat="38.4751860" lon="-0.6486440">
        <ele>525.1</ele>
        <time>2018-03-30T07:29:38Z</time>
      </trkpt>
      <trkpt lat="38.4751570" lon="-0.6487220">
        <ele>524.8</ele>
        <time>2018-03-30T07:29:39Z</time>
      </trkpt>
      <trkpt lat="38.4751280" lon="-0.6487980">
        <ele>524.4</ele>
        <time>2018-03-30T07:29:40Z</time>
      </trkpt>
      <trkpt lat="38.4751010" lon="-0.6488720">
        <ele>524.1</ele>
        <time>2018-03-30T07:29:41Z</time>
      </trkpt>
      <trkpt lat="38.4750740" lon="-0.6489440">
        <ele>523.8</ele>
        <time>2018-03-30T07:29:42Z</time>
      </trkpt>
      <trkpt lat="38.4750470" lon="-0.6490150">
        <ele>523.5</ele>
        <time>2018-03-30T07:29:43Z</time>
      </trkpt>
      <trkpt lat="38.4750200" lon="-0.6490850">
        <ele>523.2</ele>
        <time>2018-03-30T07:29:44Z</time>
      </trkpt>
      <trkpt lat="38.4749930" lon="-0.6491520">
        <ele>522.8</ele>
        <time>2018-03-30T07:29:45Z</time>
      </trkpt>
      <trkpt lat="38.4749680" lon="-0.6492160">
        <ele>522.3</ele>
        <time>2018-03-30T07:29:46Z</time>
      </trkpt>
      <trkpt lat="38.4749450" lon="-0.6492790">
        <ele>521.8</ele>
        <time>2018-03-30T07:29:47Z</time>
      </trkpt>
      <trkpt lat="38.4749220" lon="-0.6493400">
        <ele>521.4</ele>
        <time>2018-03-30T07:29:48Z</time>
      </trkpt>
      <trkpt lat="38.4749000" lon="-0.6493980">
        <ele>521.1</ele>
        <time>2018-03-30T07:29:49Z</time>
      </trkpt>
      <trkpt lat="38.4748780" lon="-0.6494530">
        <ele>520.8</ele>
        <time>2018-03-30T07:29:50Z</time>
      </trkpt>
      <trkpt lat="38.4748560" lon="-0.6495050">
        <ele>520.5</ele>
        <time>2018-03-30T07:29:51Z</time>
      </trkpt>
      <trkpt lat="38.4748350" lon="-0.6495590">
        <ele>520.2</ele>
        <time>2018-03-30T07:29:52Z</time>
      </trkpt>
      <trkpt lat="38.4748140" lon="-0.6496130">
        <ele>519.9</ele>
        <time>2018-03-30T07:29:53Z</time>
      </trkpt>
      <trkpt lat="38.4747900" lon="-0.6496670">
        <ele>519.6</ele>
        <time>2018-03-30T07:29:54Z</time>
      </trkpt>
      <trkpt lat="38.4747660" lon="-0.6497200">
        <ele>519.2</ele>
        <time>2018-03-30T07:29:55Z</time>
      </trkpt>
      <trkpt lat="38.4747410" lon="-0.6497740">
        <ele>518.8</ele>
        <time>2018-03-30T07:29:56Z</time>
      </trkpt>
      <trkpt lat="38.4747140" lon="-0.6498330">
        <ele>518.4</ele>
        <time>2018-03-30T07:29:57Z</time>
      </trkpt>
      <trkpt lat="38.4746870" lon="-0.6498910">
        <ele>517.9</ele>
        <time>2018-03-30T07:29:58Z</time>
      </trkpt>
      <trkpt lat="38.4746630" lon="-0.6499500">
        <ele>517.5</ele>
        <time>2018-03-30T07:29:59Z</time>
      </trkpt>
      <trkpt lat="38.4746350" lon="-0.6500090">
        <ele>516.8</ele>
        <time>2018-03-30T07:30:00Z</time>
      </trkpt>
      <trkpt lat="38.4746140" lon="-0.6500740">
        <ele>516.0</ele>
        <time>2018-03-30T07:30:01Z</time>
      </trkpt>
      <trkpt lat="38.4745960" lon="-0.6501450">
        <ele>515.5</ele>
        <time>2018-03-30T07:30:02Z</time>
      </trkpt>
      <trkpt lat="38.4745940" lon="-0.6502190">
        <ele>515.0</ele>
        <time>2018-03-30T07:30:03Z</time>
      </trkpt>
      <trkpt lat="38.4746080" lon="-0.6502880">
        <ele>514.5</ele>
        <time>2018-03-30T07:30:04Z</time>
      </trkpt>
      <trkpt lat="38.4746260" lon="-0.6503430">
        <ele>514.3</ele>
        <time>2018-03-30T07:30:05Z</time>
      </trkpt>
      <trkpt lat="38.4746440" lon="-0.6503870">
        <ele>515.0</ele>
        <time>2018-03-30T07:30:06Z</time>
      </trkpt>
      <trkpt lat="38.4746690" lon="-0.6504200">
        <ele>515.7</ele>
        <time>2018-03-30T07:30:07Z</time>
      </trkpt>
      <trkpt lat="38.4746940" lon="-0.6504430">
        <ele>516.4</ele>
        <time>2018-03-30T07:30:08Z</time>
      </trkpt>
      <trkpt lat="38.4747180" lon="-0.6504620">
        <ele>516.6</ele>
        <time>2018-03-30T07:30:09Z</time>
      </trkpt>
      <trkpt lat="38.4747390" lon="-0.6504750">
        <ele>516.7</ele>
        <time>2018-03-30T07:30:10Z</time>
      </trkpt>
      <trkpt lat="38.4747580" lon="-0.6504820">
        <ele>516.9</ele>
        <time>2018-03-30T07:30:11Z</time>
      </trkpt>
      <trkpt lat="38.4747790" lon="-0.6504860">
        <ele>517.1</ele>
        <time>2018-03-30T07:30:12Z</time>
      </trkpt>
      <trkpt lat="38.4748030" lon="-0.6504920">
        <ele>517.2</ele>
        <time>2018-03-30T07:30:13Z</time>
      </trkpt>
      <trkpt lat="38.4748270" lon="-0.6504940">
        <ele>517.4</ele>
        <time>2018-03-30T07:30:14Z</time>
      </trkpt>
      <trkpt lat="38.4748520" lon="-0.6504970">
        <ele>517.6</ele>
        <time>2018-03-30T07:30:15Z</time>
      </trkpt>
      <trkpt lat="38.4748760" lon="-0.6505000">
        <ele>517.8</ele>
        <time>2018-03-30T07:30:16Z</time>
      </trkpt>
      <trkpt lat="38.4748990" lon="-0.6505020">
        <ele>518.0</ele>
        <time>2018-03-30T07:30:17Z</time>
      </trkpt>
      <trkpt lat="38.4749220" lon="-0.6505030">
        <ele>518.2</ele>
        <time>2018-03-30T07:30:18Z</time>
      </trkpt>
      <trkpt lat="38.4749460" lon="-0.6505050">
        <ele>518.3</ele>
        <time>2018-03-30T07:30:19Z</time>
      </trkpt>
      <trkpt lat="38.4749680" lon="-0.6505070">
        <ele>518.5</ele>
        <time>2018-03-30T07:30:20Z</time>
      </trkpt>
      <trkpt lat="38.4749890" lon="-0.6505110">
        <ele>518.7</ele>
        <time>2018-03-30T07:30:21Z</time>
      </trkpt>
      <trkpt lat="38.4750110" lon="-0.6505130">
        <ele>518.8</ele>
        <time>2018-03-30T07:30:22Z</time>
      </trkpt>
      <trkpt lat="38.4750330" lon="-0.6505150">
        <ele>519.0</ele>
        <time>2018-03-30T07:30:23Z</time>
      </trkpt>
      <trkpt lat="38.4750560" lon="-0.6505160">
        <ele>519.2</ele>
        <time>2018-03-30T07:30:24Z</time>
      </trkpt>
      <trkpt lat="38.4750790" lon="-0.6505180">
        <ele>519.5</ele>
        <time>2018-03-30T07:30:25Z</time>
      </trkpt>
      <trkpt lat="38.4751020" lon="-0.6505210">
        <ele>520.0</ele>
        <time>2018-03-30T07:30:26Z</time>
      </trkpt>
      <trkpt lat="38.4751250" lon="-0.6505220">
        <ele>520.4</ele>
        <time>2018-03-30T07:30:27Z</time>
      </trkpt>
      <trkpt lat="38.4751480" lon="-0.6505240">
        <ele>520.8</ele>
        <time>2018-03-30T07:30:28Z</time>
      </trkpt>
      <trkpt lat="38.4751700" lon="-0.6505270">
        <ele>521.1</ele>
        <time>2018-03-30T07:30:29Z</time>
      </trkpt>
      <trkpt lat="38.4751930" lon="-0.6505280">
        <ele>521.6</ele>
        <time>2018-03-30T07:30:30Z</time>
      </trkpt>
      <trkpt lat="38.4752160" lon="-0.6505300">
        <ele>521.8</ele>
        <time>2018-03-30T07:30:31Z</time>
      </trkpt>
      <trkpt lat="38.4752390" lon="-0.6505300">
        <ele>522.0</ele>
        <time>2018-03-30T07:30:32Z</time>
      </trkpt>
      <trkpt lat="38.4752610" lon="-0.6505310">
        <ele>522.2</ele>
        <time>2018-03-30T07:30:33Z</time>
      </trkpt>
      <trkpt lat="38.4752820" lon="-0.6505320">
        <ele>522.3</ele>
        <time>2018-03-30T07:30:34Z</time>
      </trkpt>
      <trkpt lat="38.4753050" lon="-0.6505320">
        <ele>522.5</ele>
        <time>2018-03-30T07:30:35Z</time>
      </trkpt>
      <trkpt lat="38.4753260" lon="-0.6505330">
        <ele>522.7</ele>
        <time>2018-03-30T07:30:36Z</time>
      </trkpt>
      <trkpt lat="38.4753500" lon="-0.6505330">
        <ele>522.9</ele>
        <time>2018-03-30T07:30:37Z</time>
      </trkpt>
      <trkpt lat="38.4753730" lon="-0.6505310">
        <ele>523.1</ele>
        <time>2018-03-30T07:30:38Z</time>
      </trkpt>
      <trkpt lat="38.4753940" lon="-0.6505300">
        <ele>523.2</ele>
        <time>2018-03-30T07:30:39Z</time>
      </trkpt>
      <trkpt lat="38.4754140" lon="-0.6505300">
        <ele>523.3</ele>
        <time>2018-03-30T07:30:40Z</time>
      </trkpt>
      <trkpt lat="38.4754340" lon="-0.6505280">
        <ele>523.4</ele>
        <time>2018-03-30T07:30:41Z</time>
      </trkpt>
      <trkpt lat="38.4754570" lon="-0.6505280">
        <ele>523.5</ele>
        <time>2018-03-30T07:30:42Z</time>
      </trkpt>
      <trkpt lat="38.4754830" lon="-0.6505230">
        <ele>523.7</ele>
        <time>2018-03-30T07:30:43Z</time>
      </trkpt>
      <trkpt lat="38.4755080" lon="-0.6505180">
        <ele>523.8</ele>
        <time>2018-03-30T07:30:44Z</time>
      </trkpt>
      <trkpt lat="38.4755340" lon="-0.6505150">
        <ele>523.9</ele>
        <time>2018-03-30T07:30:45Z</time>
      </trkpt>
      <trkpt lat="38.4755590" lon="-0.6505100">
        <ele>524.0</ele>
        <time>2018-03-30T07:30:46Z</time>
      </trkpt>
      <trkpt lat="38.4755830" lon="-0.6505060">
        <ele>524.2</ele>
        <time>2018-03-30T07:30:47Z</time>
      </trkpt>
      <trkpt lat="38.4756080" lon="-0.6505060">
        <ele>524.3</ele>
        <time>2018-03-30T07:30:48Z</time>
      </trkpt>
      <trkpt lat="38.4756330" lon="-0.6505040">
        <ele>524.4</ele>
        <time>2018-03-30T07:30:49Z</time>
      </trkpt>
      <trkpt lat="38.4756580" lon="-0.6505050">
        <ele>524.7</ele>
        <time>2018-03-30T07:30:50Z</time>
      </trkpt>
      <trkpt lat="38.4756830" lon="-0.6505050">
        <ele>524.8</ele>
        <time>2018-03-30T07:30:51Z</time>
      </trkpt>
      <trkpt lat="38.4757080" lon="-0.6505050">
        <ele>524.9</ele>
        <time>2018-03-30T07:30:52Z</time>
      </trkpt>
      <trkpt lat="38.4757330" lon="-0.6505050">
        <ele>525.0</ele>
        <time>2018-03-30T07:30:53Z</time>
      </trkpt>
      <trkpt lat="38.4757570" lon="-0.6505050">
        <ele>525.1</ele>
        <time>2018-03-30T07:30:54Z</time>
      </trkpt>
      <trkpt lat="38.4757820" lon="-0.6505050">
        <ele>525.2</ele>
        <time>2018-03-30T07:30:55Z</time>
      </trkpt>
      <trkpt lat="38.4758080" lon="-0.6505020">
        <ele>525.4</ele>
        <time>2018-03-30T07:30:56Z</time>
      </trkpt>
      <trkpt lat="38.4758320" lon="-0.6505040">
        <ele>525.5</ele>
        <time>2018-03-30T07:30:57Z</time>
      </trkpt>
      <trkpt lat="38.4758550" lon="-0.6505030">
        <ele>525.7</ele>
        <time>2018-03-30T07:30:58Z</time>
      </trkpt>
      <trkpt lat="38.4758790" lon="-0.6505030">
        <ele>525.8</ele>
        <time>2018-03-30T07:30:59Z</time>
      </trkpt>
      <trkpt lat="38.4759040" lon="-0.6505070">
        <ele>526.0</ele>
        <time>2018-03-30T07:31:00Z</time>
      </trkpt>
      <trkpt lat="38.4759270" lon="-0.6505160">
        <ele>526.1</ele>
        <time>2018-03-30T07:31:01Z</time>
      </trkpt>
      <trkpt lat="38.4759520" lon="-0.6505250">
        <ele>526.3</ele>
        <time>2018-03-30T07:31:02Z</time>
      </trkpt>
      <trkpt lat="38.4759730" lon="-0.6505370">
        <ele>526.4</ele>
        <time>2018-03-30T07:31:03Z</time>
      </trkpt>
      <trkpt lat="38.4759990" lon="-0.6505490">
        <ele>526.6</ele>
        <time>2018-03-30T07:31:04Z</time>
      </trkpt>
      <trkpt lat="38.4760220" lon="-0.6505610">
        <ele>526.8</ele>
        <time>2018-03-30T07:31:05Z</time>
      </trkpt>
      <trkpt lat="38.4760450" lon="-0.6505730">
        <ele>527.0</ele>
        <time>2018-03-30T07:31:06Z</time>
      </trkpt>
      <trkpt lat="38.4760700" lon="-0.6505830">
        <ele>527.2</ele>
        <time>2018-03-30T07:31:07Z</time>
      </trkpt>
      <trkpt lat="38.4760950" lon="-0.6505930">
        <ele>527.4</ele>
        <time>2018-03-30T07:31:08Z</time>
      </trkpt>
      <trkpt lat="38.4761190" lon="-0.6506040">
        <ele>527.5</ele>
        <time>2018-03-30T07:31:09Z</time>
      </trkpt>
      <trkpt lat="38.4761470" lon="-0.6506120">
        <ele>527.7</ele>
        <time>2018-03-30T07:31:10Z</time>
      </trkpt>
      <trkpt lat="38.4761730" lon="-0.6506170">
        <ele>527.9</ele>
        <time>2018-03-30T07:31:11Z</time>
      </trkpt>
      <trkpt lat="38.4761990" lon="-0.6506220">
        <ele>528.1</ele>
        <time>2018-03-30T07:31:12Z</time>
      </trkpt>
      <trkpt lat="38.4762240" lon="-0.6506280">
        <ele>528.2</ele>
        <time>2018-03-30T07:31:13Z</time>
      </trkpt>
      <trkpt lat="38.4762470" lon="-0.6506380">
        <ele>528.6</ele>
        <time>2018-03-30T07:31:14Z</time>
      </trkpt>
      <trkpt lat="38.4762680" lon="-0.6506500">
        <ele>528.8</ele>
        <time>2018-03-30T07:31:15Z</time>
      </trkpt>
      <trkpt lat="38.4762880" lon="-0.6506620">
        <ele>529.0</ele>
        <time>2018-03-30T07:31:16Z</time>
      </trkpt>
      <trkpt lat="38.4763120" lon="-0.6506700">
        <ele>529.2</ele>
        <time>2018-03-30T07:31:17Z</time>
      </trkpt>
      <trkpt lat="38.4763370" lon="-0.6506800">
        <ele>529.5</ele>
        <time>2018-03-30T07:31:18Z</time>
      </trkpt>
      <trkpt lat="38.4763610" lon="-0.6506950">
        <ele>529.9</ele>
        <time>2018-03-30T07:31:19Z</time>
      </trkpt>
      <trkpt lat="38.4763840" lon="-0.6507050">
        <ele>530.1</ele>
        <time>2018-03-30T07:31:20Z</time>
      </trkpt>
      <trkpt lat="38.4764080" lon="-0.6507160">
        <ele>530.3</ele>
        <time>2018-03-30T07:31:21Z</time>
      </trkpt>
      <trkpt lat="38.4764300" lon="-0.6507260">
        <ele>530.5</ele>
        <time>2018-03-30T07:31:22Z</time>
      </trkpt>
      <trkpt lat="38.4764530" lon="-0.6507350">
        <ele>530.6</ele>
        <time>2018-03-30T07:31:23Z</time>
      </trkpt>
      <trkpt lat="38.4764750" lon="-0.6507450">
        <ele>530.8</ele>
        <time>2018-03-30T07:31:24Z</time>
      </trkpt>
      <trkpt lat="38.4764970" lon="-0.6507530">
        <ele>531.1</ele>
        <time>2018-03-30T07:31:25Z</time>
      </trkpt>
      <trkpt lat="38.4765190" lon="-0.6507630">
        <ele>531.4</ele>
        <time>2018-03-30T07:31:26Z</time>
      </trkpt>
      <trkpt lat="38.4765420" lon="-0.6507730">
        <ele>531.6</ele>
        <time>2018-03-30T07:31:27Z</time>
      </trkpt>
      <trkpt lat="38.4765670" lon="-0.6507820">
        <ele>531.8</ele>
        <time>2018-03-30T07:31:28Z</time>
      </trkpt>
      <trkpt lat="38.4765900" lon="-0.6507920">
        <ele>531.9</ele>
        <time>2018-03-30T07:31:29Z</time>
      </trkpt>
      <trkpt lat="38.4766120" lon="-0.6508040">
        <ele>532.1</ele>
        <time>2018-03-30T07:31:30Z</time>
      </trkpt>
      <trkpt lat="38.4766340" lon="-0.6508130">
        <ele>532.3</ele>
        <time>2018-03-30T07:31:31Z</time>
      </trkpt>
      <trkpt lat="38.4766570" lon="-0.6508230">
        <ele>532.5</ele>
        <time>2018-03-30T07:31:32Z</time>
      </trkpt>
      <trkpt lat="38.4766770" lon="-0.6508330">
        <ele>532.7</ele>
        <time>2018-03-30T07:31:33Z</time>
      </trkpt>
      <trkpt lat="38.4766970" lon="-0.6508400">
        <ele>532.8</ele>
        <time>2018-03-30T07:31:34Z</time>
      </trkpt>
      <trkpt lat="38.4767200" lon="-0.6508510">
        <ele>533.0</ele>
        <time>2018-03-30T07:31:35Z</time>
      </trkpt>
      <trkpt lat="38.4767450" lon="-0.6508630">
        <ele>533.1</ele>
        <time>2018-03-30T07:31:36Z</time>
      </trkpt>
      <trkpt lat="38.4767720" lon="-0.6508750">
        <ele>533.3</ele>
        <time>2018-03-30T07:31:37Z</time>
      </trkpt>
      <trkpt lat="38.4767960" lon="-0.6508880">
        <ele>533.4</ele>
        <time>2018-03-30T07:31:38Z</time>
      </trkpt>
      <trkpt lat="38.4768170" lon="-0.6509010">
        <ele>533.6</ele>
        <time>2018-03-30T07:31:39Z</time>
      </trkpt>
      <trkpt lat="38.4768380" lon="-0.6509120">
        <ele>533.8</ele>
        <time>2018-03-30T07:31:40Z</time>
      </trkpt>
      <trkpt lat="38.4768590" lon="-0.6509240">
        <ele>534.0</ele>
        <time>2018-03-30T07:31:41Z</time>
      </trkpt>
      <trkpt lat="38.4768780" lon="-0.6509390">
        <ele>534.2</ele>
        <time>2018-03-30T07:31:42Z</time>
      </trkpt>
      <trkpt lat="38.4768940" lon="-0.6509590">
        <ele>534.3</ele>
        <time>2018-03-30T07:31:43Z</time>
      </trkpt>
      <trkpt lat="38.4769120" lon="-0.6509740">
        <ele>534.5</ele>
        <time>2018-03-30T07:31:44Z</time>
      </trkpt>
      <trkpt lat="38.4769290" lon="-0.6509830">
        <ele>534.6</ele>
        <time>2018-03-30T07:31:45Z</time>
      </trkpt>
      <trkpt lat="38.4769910" lon="-0.6510100">
        <ele>535.1</ele>
        <time>2018-03-30T07:32:08Z</time>
      </trkpt>
      <trkpt lat="38.4770080" lon="-0.6510140">
        <ele>535.2</ele>
        <time>2018-03-30T07:32:09Z</time>
      </trkpt>
      <trkpt lat="38.4770210" lon="-0.6510240">
        <ele>535.4</ele>
        <time>2018-03-30T07:32:10Z</time>
      </trkpt>
      <trkpt lat="38.4770360" lon="-0.6510360">
        <ele>535.5</ele>
        <time>2018-03-30T07:32:11Z</time>
      </trkpt>
      <trkpt lat="38.4770590" lon="-0.6510490">
        <ele>535.7</ele>
        <time>2018-03-30T07:32:12Z</time>
      </trkpt>
      <trkpt lat="38.4770850" lon="-0.6510620">
        <ele>535.9</ele>
        <time>2018-03-30T07:32:13Z</time>
      </trkpt>
      <trkpt lat="38.4771110" lon="-0.6510740">
        <ele>536.0</ele>
        <time>2018-03-30T07:32:14Z</time>
      </trkpt>
      <trkpt lat="38.4771380" lon="-0.6510840">
        <ele>536.2</ele>
        <time>2018-03-30T07:32:15Z</time>
      </trkpt>
      <trkpt lat="38.4771660" lon="-0.6510940">
        <ele>536.3</ele>
        <time>2018-03-30T07:32:16Z</time>
      </trkpt>
      <trkpt lat="38.4771940" lon="-0.6511050">
        <ele>536.5</ele>
        <time>2018-03-30T07:32:17Z</time>
      </trkpt>
      <trkpt lat="38.4772220" lon="-0.6511160">
        <ele>536.7</ele>
        <time>2018-03-30T07:32:18Z</time>
      </trkpt>
      <trkpt lat="38.4772490" lon="-0.6511270">
        <ele>537.0</ele>
        <time>2018-03-30T07:32:19Z</time>
      </trkpt>
      <trkpt lat="38.4772760" lon="-0.6511370">
        <ele>537.3</ele>
        <time>2018-03-30T07:32:20Z</time>
      </trkpt>
      <trkpt lat="38.4773070" lon="-0.6511400">
        <ele>537.6</ele>
        <time>2018-03-30T07:32:21Z</time>
      </trkpt>
      <trkpt lat="38.4773360" lon="-0.6511460">
        <ele>537.8</ele>
        <time>2018-03-30T07:32:22Z</time>
      </trkpt>
      <trkpt lat="38.4773640" lon="-0.6511550">
        <ele>538.1</ele>
        <time>2018-03-30T07:32:23Z</time>
      </trkpt>
      <trkpt lat="38.4773920" lon="-0.6511620">
        <ele>538.3</ele>
        <time>2018-03-30T07:32:24Z</time>
      </trkpt>
      <trkpt lat="38.4774190" lon="-0.6511640">
        <ele>538.5</ele>
        <time>2018-03-30T07:32:25Z</time>
      </trkpt>
      <trkpt lat="38.4774470" lon="-0.6511760">
        <ele>538.6</ele>
        <time>2018-03-30T07:32:26Z</time>
      </trkpt>
      <trkpt lat="38.4774750" lon="-0.6511820">
        <ele>538.7</ele>
        <time>2018-03-30T07:32:27Z</time>
      </trkpt>
      <trkpt lat="38.4775040" lon="-0.6511870">
        <ele>539.0</ele>
        <time>2018-03-30T07:32:28Z</time>
      </trkpt>
      <trkpt lat="38.4775310" lon="-0.6511890">
        <ele>539.1</ele>
        <time>2018-03-30T07:32:29Z</time>
      </trkpt>
      <trkpt lat="38.4775590" lon="-0.6511890">
        <ele>539.3</ele>
        <time>2018-03-30T07:32:30Z</time>
      </trkpt>
      <trkpt lat="38.4775860" lon="-0.6511880">
        <ele>539.5</ele>
        <time>2018-03-30T07:32:31Z</time>
      </trkpt>
      <trkpt lat="38.4776120" lon="-0.6511920">
        <ele>539.7</ele>
        <time>2018-03-30T07:32:32Z</time>
      </trkpt>
      <trkpt lat="38.4776350" lon="-0.6511970">
        <ele>539.9</ele>
        <time>2018-03-30T07:32:33Z</time>
      </trkpt>
      <trkpt lat="38.4776620" lon="-0.6511950">
        <ele>540.1</ele>
        <time>2018-03-30T07:32:34Z</time>
      </trkpt>
      <trkpt lat="38.4776890" lon="-0.6511910">
        <ele>540.3</ele>
        <time>2018-03-30T07:32:35Z</time>
      </trkpt>
      <trkpt lat="38.4777150" lon="-0.6511880">
        <ele>540.4</ele>
        <time>2018-03-30T07:32:36Z</time>
      </trkpt>
      <trkpt lat="38.4777430" lon="-0.6511830">
        <ele>540.5</ele>
        <time>2018-03-30T07:32:37Z</time>
      </trkpt>
      <trkpt lat="38.4777720" lon="-0.6511800">
        <ele>540.6</ele>
        <time>2018-03-30T07:32:38Z</time>
      </trkpt>
      <trkpt lat="38.4778020" lon="-0.6511790">
        <ele>540.7</ele>
        <time>2018-03-30T07:32:39Z</time>
      </trkpt>
      <trkpt lat="38.4778340" lon="-0.6511720">
        <ele>540.8</ele>
        <time>2018-03-30T07:32:40Z</time>
      </trkpt>
      <trkpt lat="38.4778700" lon="-0.6511690">
        <ele>541.0</ele>
        <time>2018-03-30T07:32:41Z</time>
      </trkpt>
      <trkpt lat="38.4779010" lon="-0.6511690">
        <ele>541.1</ele>
        <time>2018-03-30T07:32:42Z</time>
      </trkpt>
      <trkpt lat="38.4779330" lon="-0.6511720">
        <ele>541.2</ele>
        <time>2018-03-30T07:32:43Z</time>
      </trkpt>
      <trkpt lat="38.4779660" lon="-0.6511800">
        <ele>541.3</ele>
        <time>2018-03-30T07:32:44Z</time>
      </trkpt>
      <trkpt lat="38.4779950" lon="-0.6511910">
        <ele>541.5</ele>
        <time>2018-03-30T07:32:45Z</time>
      </trkpt>
      <trkpt lat="38.4780250" lon="-0.6512030">
        <ele>541.6</ele>
        <time>2018-03-30T07:32:46Z</time>
      </trkpt>
      <trkpt lat="38.4780490" lon="-0.6512210">
        <ele>541.8</ele>
        <time>2018-03-30T07:32:47Z</time>
      </trkpt>
      <trkpt lat="38.4780740" lon="-0.6512390">
        <ele>542.0</ele>
        <time>2018-03-30T07:32:48Z</time>
      </trkpt>
      <trkpt lat="38.4781010" lon="-0.6512560">
        <ele>542.2</ele>
        <time>2018-03-30T07:32:49Z</time>
      </trkpt>
      <trkpt lat="38.4781250" lon="-0.6512710">
        <ele>542.3</ele>
        <time>2018-03-30T07:32:50Z</time>
      </trkpt>
      <trkpt lat="38.4781490" lon="-0.6512890">
        <ele>542.5</ele>
        <time>2018-03-30T07:32:51Z</time>
      </trkpt>
      <trkpt lat="38.4781730" lon="-0.6513040">
        <ele>542.6</ele>
        <time>2018-03-30T07:32:52Z</time>
      </trkpt>
      <trkpt lat="38.4781980" lon="-0.6513170">
        <ele>542.8</ele>
        <time>2018-03-30T07:32:53Z</time>
      </trkpt>
      <trkpt lat="38.4782240" lon="-0.6513300">
        <ele>543.1</ele>
        <time>2018-03-30T07:32:54Z</time>
      </trkpt>
      <trkpt lat="38.4782490" lon="-0.6513430">
        <ele>543.3</ele>
        <time>2018-03-30T07:32:55Z</time>
      </trkpt>
      <trkpt lat="38.4782740" lon="-0.6513530">
        <ele>543.4</ele>
        <time>2018-03-30T07:32:56Z</time>
      </trkpt>
      <trkpt lat="38.4782970" lon="-0.6513670">
        <ele>543.6</ele>
        <time>2018-03-30T07:32:57Z</time>
      </trkpt>
      <trkpt lat="38.4783210" lon="-0.6513840">
        <ele>543.8</ele>
        <time>2018-03-30T07:32:58Z</time>
      </trkpt>
      <trkpt lat="38.4783420" lon="-0.6514000">
        <ele>544.0</ele>
        <time>2018-03-30T07:32:59Z</time>
      </trkpt>
      <trkpt lat="38.4783650" lon="-0.6514160">
        <ele>544.2</ele>
        <time>2018-03-30T07:33:00Z</time>
      </trkpt>
      <trkpt lat="38.4783890" lon="-0.6514310">
        <ele>544.4</ele>
        <time>2018-03-30T07:33:01Z</time>
      </trkpt>
      <trkpt lat="38.4784110" lon="-0.6514440">
        <ele>544.7</ele>
        <time>2018-03-30T07:33:02Z</time>
      </trkpt>
      <trkpt lat="38.4784340" lon="-0.6514570">
        <ele>544.9</ele>
        <time>2018-03-30T07:33:03Z</time>
      </trkpt>
      <trkpt lat="38.4784560" lon="-0.6514710">
        <ele>545.1</ele>
        <time>2018-03-30T07:33:04Z</time>
      </trkpt>
      <trkpt lat="38.4784790" lon="-0.6514860">
        <ele>545.3</ele>
        <time>2018-03-30T07:33:05Z</time>
      </trkpt>
      <trkpt lat="38.4785010" lon="-0.6514980">
        <ele>545.5</ele>
        <time>2018-03-30T07:33:06Z</time>
      </trkpt>
      <trkpt lat="38.4785250" lon="-0.6515100">
        <ele>545.7</ele>
        <time>2018-03-30T07:33:07Z</time>
      </trkpt>
      <trkpt lat="38.4785510" lon="-0.6515240">
        <ele>546.1</ele>
        <time>2018-03-30T07:33:08Z</time>
      </trkpt>
      <trkpt lat="38.4785750" lon="-0.6515360">
        <ele>546.3</ele>
        <time>2018-03-30T07:33:09Z</time>
      </trkpt>
      <trkpt lat="38.4785970" lon="-0.6515480">
        <ele>546.5</ele>
        <time>2018-03-30T07:33:10Z</time>
      </trkpt>
      <trkpt lat="38.4786220" lon="-0.6515590">
        <ele>546.8</ele>
        <time>2018-03-30T07:33:11Z</time>
      </trkpt>
      <trkpt lat="38.4786460" lon="-0.6515700">
        <ele>547.0</ele>
        <time>2018-03-30T07:33:12Z</time>
      </trkpt>
      <trkpt lat="38.4786700" lon="-0.6515810">
        <ele>547.3</ele>
        <time>2018-03-30T07:33:13Z</time>
      </trkpt>
      <trkpt lat="38.4786900" lon="-0.6515970">
        <ele>547.6</ele>
        <time>2018-03-30T07:33:14Z</time>
      </trkpt>
      <trkpt lat="38.4787130" lon="-0.6516160">
        <ele>547.9</ele>
        <time>2018-03-30T07:33:15Z</time>
      </trkpt>
      <trkpt lat="38.4787370" lon="-0.6516360">
        <ele>548.3</ele>
        <time>2018-03-30T07:33:16Z</time>
      </trkpt>
      <trkpt lat="38.4787590" lon="-0.6516550">
        <ele>548.5</ele>
        <time>2018-03-30T07:33:17Z</time>
      </trkpt>
      <trkpt lat="38.4787810" lon="-0.6516730">
        <ele>548.7</ele>
        <time>2018-03-30T07:33:18Z</time>
      </trkpt>
      <trkpt lat="38.4788030" lon="-0.6516900">
        <ele>548.9</ele>
        <time>2018-03-30T07:33:19Z</time>
      </trkpt>
      <trkpt lat="38.4788240" lon="-0.6517070">
        <ele>549.1</ele>
        <time>2018-03-30T07:33:20Z</time>
      </trkpt>
      <trkpt lat="38.4788440" lon="-0.6517270">
        <ele>549.5</ele>
        <time>2018-03-30T07:33:21Z</time>
      </trkpt>
      <trkpt lat="38.4788660" lon="-0.6517440">
        <ele>549.7</ele>
        <time>2018-03-30T07:33:22Z</time>
      </trkpt>
      <trkpt lat="38.4788870" lon="-0.6517610">
        <ele>549.8</ele>
        <time>2018-03-30T07:33:23Z</time>
      </trkpt>
      <trkpt lat="38.4789070" lon="-0.6517780">
        <ele>550.0</ele>
        <time>2018-03-30T07:33:24Z</time>
      </trkpt>
      <trkpt lat="38.4789270" lon="-0.6517980">
        <ele>550.2</ele>
        <time>2018-03-30T07:33:25Z</time>
      </trkpt>
      <trkpt lat="38.4789500" lon="-0.6518180">
        <ele>550.4</ele>
        <time>2018-03-30T07:33:26Z</time>
      </trkpt>
      <trkpt lat="38.4789730" lon="-0.6518380">
        <ele>550.7</ele>
        <time>2018-03-30T07:33:27Z</time>
      </trkpt>
      <trkpt lat="38.4790000" lon="-0.6518570">
        <ele>550.9</ele>
        <time>2018-03-30T07:33:28Z</time>
      </trkpt>
      <trkpt lat="38.4790250" lon="-0.6518750">
        <ele>551.1</ele>
        <time>2018-03-30T07:33:29Z</time>
      </trkpt>
      <trkpt lat="38.4790460" lon="-0.6518940">
        <ele>551.2</ele>
        <time>2018-03-30T07:33:30Z</time>
      </trkpt>
      <trkpt lat="38.4790700" lon="-0.6519120">
        <ele>551.4</ele>
        <time>2018-03-30T07:33:31Z</time>
      </trkpt>
      <trkpt lat="38.4790960" lon="-0.6519280">
        <ele>551.6</ele>
        <time>2018-03-30T07:33:32Z</time>
      </trkpt>
      <trkpt lat="38.4791260" lon="-0.6519450">
        <ele>551.9</ele>
        <time>2018-03-30T07:33:33Z</time>
      </trkpt>
      <trkpt lat="38.4791510" lon="-0.6519620">
        <ele>552.0</ele>
        <time>2018-03-30T07:33:34Z</time>
      </trkpt>
      <trkpt lat="38.4791760" lon="-0.6519800">
        <ele>552.2</ele>
        <time>2018-03-30T07:33:35Z</time>
      </trkpt>
      <trkpt lat="38.4792030" lon="-0.6519970">
        <ele>552.3</ele>
        <time>2018-03-30T07:33:36Z</time>
      </trkpt>
      <trkpt lat="38.4792310" lon="-0.6520120">
        <ele>552.5</ele>
        <time>2018-03-30T07:33:37Z</time>
      </trkpt>
      <trkpt lat="38.4792590" lon="-0.6520270">
        <ele>552.6</ele>
        <time>2018-03-30T07:33:38Z</time>
      </trkpt>
      <trkpt lat="38.4792850" lon="-0.6520450">
        <ele>552.9</ele>
        <time>2018-03-30T07:33:39Z</time>
      </trkpt>
      <trkpt lat="38.4793100" lon="-0.6520610">
        <ele>553.1</ele>
        <time>2018-03-30T07:33:40Z</time>
      </trkpt>
      <trkpt lat="38.4793350" lon="-0.6520790">
        <ele>553.2</ele>
        <time>2018-03-30T07:33:41Z</time>
      </trkpt>
      <trkpt lat="38.4793610" lon="-0.6520970">
        <ele>553.4</ele>
        <time>2018-03-30T07:33:42Z</time>
      </trkpt>
      <trkpt lat="38.4793860" lon="-0.6521150">
        <ele>553.5</ele>
        <time>2018-03-30T07:33:43Z</time>
      </trkpt>
      <trkpt lat="38.4794100" lon="-0.6521360">
        <ele>553.7</ele>
        <time>2018-03-30T07:33:44Z</time>
      </trkpt>
      <trkpt lat="38.4794320" lon="-0.6521580">
        <ele>553.9</ele>
        <time>2018-03-30T07:33:45Z</time>
      </trkpt>
      <trkpt lat="38.4794550" lon="-0.6521760">
        <ele>554.1</ele>
        <time>2018-03-30T07:33:46Z</time>
      </trkpt>
      <trkpt lat="38.4794800" lon="-0.6521910">
        <ele>554.2</ele>
        <time>2018-03-30T07:33:47Z</time>
      </trkpt>
      <trkpt lat="38.4795030" lon="-0.6522080">
        <ele>554.4</ele>
        <time>2018-03-30T07:33:48Z</time>
      </trkpt>
      <trkpt lat="38.4795250" lon="-0.6522260">
        <ele>554.6</ele>
        <time>2018-03-30T07:33:49Z</time>
      </trkpt>
      <trkpt lat="38.4795550" lon="-0.6522410">
        <ele>554.8</ele>
        <time>2018-03-30T07:33:50Z</time>
      </trkpt>
      <trkpt lat="38.4795820" lon="-0.6522530">
        <ele>555.0</ele>
        <time>2018-03-30T07:33:51Z</time>
      </trkpt>
      <trkpt lat="38.4796100" lon="-0.6522660">
        <ele>555.2</ele>
        <time>2018-03-30T07:33:52Z</time>
      </trkpt>
      <trkpt lat="38.4796360" lon="-0.6522780">
        <ele>555.4</ele>
        <time>2018-03-30T07:33:53Z</time>
      </trkpt>
      <trkpt lat="38.4796630" lon="-0.6522900">
        <ele>555.5</ele>
        <time>2018-03-30T07:33:54Z</time>
      </trkpt>
      <trkpt lat="38.4796920" lon="-0.6523010">
        <ele>555.7</ele>
        <time>2018-03-30T07:33:55Z</time>
      </trkpt>
      <trkpt lat="38.4797200" lon="-0.6523080">
        <ele>555.8</ele>
        <time>2018-03-30T07:33:56Z</time>
      </trkpt>
      <trkpt lat="38.4797480" lon="-0.6523200">
        <ele>556.0</ele>
        <time>2018-03-30T07:33:57Z</time>
      </trkpt>
      <trkpt lat="38.4797790" lon="-0.6523300">
        <ele>556.2</ele>
        <time>2018-03-30T07:33:58Z</time>
      </trkpt>
      <trkpt lat="38.4798090" lon="-0.6523420">
        <ele>556.3</ele>
        <time>2018-03-30T07:33:59Z</time>
      </trkpt>
      <trkpt lat="38.4798360" lon="-0.6523560">
        <ele>556.5</ele>
        <time>2018-03-30T07:34:00Z</time>
      </trkpt>
      <trkpt lat="38.4798620" lon="-0.6523740">
        <ele>556.8</ele>
        <time>2018-03-30T07:34:01Z</time>
      </trkpt>
      <trkpt lat="38.4798830" lon="-0.6523960">
        <ele>557.0</ele>
        <time>2018-03-30T07:34:02Z</time>
      </trkpt>
      <trkpt lat="38.4798970" lon="-0.6524250">
        <ele>557.2</ele>
        <time>2018-03-30T07:34:03Z</time>
      </trkpt>
      <trkpt lat="38.4799100" lon="-0.6524490">
        <ele>557.3</ele>
        <time>2018-03-30T07:34:04Z</time>
      </trkpt>
      <trkpt lat="38.4799250" lon="-0.6524730">
        <ele>557.4</ele>
        <time>2018-03-30T07:34:05Z</time>
      </trkpt>
      <trkpt lat="38.4799400" lon="-0.6524960">
        <ele>557.6</ele>
        <time>2018-03-30T07:34:06Z</time>
      </trkpt>
      <trkpt lat="38.4799540" lon="-0.6525190">
        <ele>557.7</ele>
        <time>2018-03-30T07:34:07Z</time>
      </trkpt>
      <trkpt lat="38.4799720" lon="-0.6525380">
        <ele>557.9</ele>
        <time>2018-03-30T07:34:08Z</time>
      </trkpt>
      <trkpt lat="38.4799890" lon="-0.6525550">
        <ele>558.1</ele>
        <time>2018-03-30T07:34:09Z</time>
      </trkpt>
      <trkpt lat="38.4800080" lon="-0.6525720">
        <ele>558.3</ele>
        <time>2018-03-30T07:34:10Z</time>
      </trkpt>
      <trkpt lat="38.4800270" lon="-0.6525890">
        <ele>558.5</ele>
        <time>2018-03-30T07:34:11Z</time>
      </trkpt>
      <trkpt lat="38.4800450" lon="-0.6526070">
        <ele>558.8</ele>
        <time>2018-03-30T07:34:12Z</time>
      </trkpt>
      <trkpt lat="38.4800610" lon="-0.6526250">
        <ele>559.0</ele>
        <time>2018-03-30T07:34:13Z</time>
      </trkpt>
      <trkpt lat="38.4800790" lon="-0.6526410">
        <ele>559.2</ele>
        <time>2018-03-30T07:34:14Z</time>
      </trkpt>
      <trkpt lat="38.4800960" lon="-0.6526580">
        <ele>559.3</ele>
        <time>2018-03-30T07:34:15Z</time>
      </trkpt>
      <trkpt lat="38.4801170" lon="-0.6526730">
        <ele>559.5</ele>
        <time>2018-03-30T07:34:16Z</time>
      </trkpt>
      <trkpt lat="38.4801370" lon="-0.6526880">
        <ele>559.6</ele>
        <time>2018-03-30T07:34:17Z</time>
      </trkpt>
      <trkpt lat="38.4801540" lon="-0.6527030">
        <ele>559.7</ele>
        <time>2018-03-30T07:34:18Z</time>
      </trkpt>
      <trkpt lat="38.4801740" lon="-0.6527190">
        <ele>559.9</ele>
        <time>2018-03-30T07:34:19Z</time>
      </trkpt>
      <trkpt lat="38.4801950" lon="-0.6527340">
        <ele>560.0</ele>
        <time>2018-03-30T07:34:20Z</time>
      </trkpt>
      <trkpt lat="38.4802170" lon="-0.6527500">
        <ele>560.2</ele>
        <time>2018-03-30T07:34:21Z</time>
      </trkpt>
      <trkpt lat="38.4802360" lon="-0.6527690">
        <ele>560.5</ele>
        <time>2018-03-30T07:34:22Z</time>
      </trkpt>
      <trkpt lat="38.4802550" lon="-0.6527910">
        <ele>560.7</ele>
        <time>2018-03-30T07:34:23Z</time>
      </trkpt>
      <trkpt lat="38.4802790" lon="-0.6528140">
        <ele>560.9</ele>
        <time>2018-03-30T07:34:24Z</time>
      </trkpt>
      <trkpt lat="38.4802950" lon="-0.6528340">
        <ele>561.0</ele>
        <time>2018-03-30T07:34:25Z</time>
      </trkpt>
      <trkpt lat="38.4803120" lon="-0.6528530">
        <ele>561.1</ele>
        <time>2018-03-30T07:34:26Z</time>
      </trkpt>
      <trkpt lat="38.4803320" lon="-0.6528710">
        <ele>561.3</ele>
        <time>2018-03-30T07:34:27Z</time>
      </trkpt>
      <trkpt lat="38.4803510" lon="-0.6528900">
        <ele>561.5</ele>
        <time>2018-03-30T07:34:28Z</time>
      </trkpt>
      <trkpt lat="38.4803720" lon="-0.6529070">
        <ele>561.7</ele>
        <time>2018-03-30T07:34:29Z</time>
      </trkpt>
      <trkpt lat="38.4803890" lon="-0.6529240">
        <ele>562.0</ele>
        <time>2018-03-30T07:34:30Z</time>
      </trkpt>
      <trkpt lat="38.4804050" lon="-0.6529460">
        <ele>562.1</ele>
        <time>2018-03-30T07:34:31Z</time>
      </trkpt>
      <trkpt lat="38.4804230" lon="-0.6529730">
        <ele>562.3</ele>
        <time>2018-03-30T07:34:32Z</time>
      </trkpt>
      <trkpt lat="38.4804360" lon="-0.6529960">
        <ele>562.4</ele>
        <time>2018-03-30T07:34:33Z</time>
      </trkpt>
      <trkpt lat="38.4804510" lon="-0.6530180">
        <ele>562.5</ele>
        <time>2018-03-30T07:34:34Z</time>
      </trkpt>
      <trkpt lat="38.4804680" lon="-0.6530340">
        <ele>562.6</ele>
        <time>2018-03-30T07:34:35Z</time>
      </trkpt>
      <trkpt lat="38.4804860" lon="-0.6530470">
        <ele>562.8</ele>
        <time>2018-03-30T07:34:36Z</time>
      </trkpt>
      <trkpt lat="38.4805040" lon="-0.6530600">
        <ele>563.1</ele>
        <time>2018-03-30T07:34:37Z</time>
      </trkpt>
      <trkpt lat="38.4805240" lon="-0.6530740">
        <ele>563.2</ele>
        <time>2018-03-30T07:34:38Z</time>
      </trkpt>
      <trkpt lat="38.4805420" lon="-0.6530890">
        <ele>563.3</ele>
        <time>2018-03-30T07:34:39Z</time>
      </trkpt>
      <trkpt lat="38.4805610" lon="-0.6531050">
        <ele>563.4</ele>
        <time>2018-03-30T07:34:40Z</time>
      </trkpt>
      <trkpt lat="38.4805800" lon="-0.6531220">
        <ele>563.6</ele>
        <time>2018-03-30T07:34:41Z</time>
      </trkpt>
      <trkpt lat="38.4806030" lon="-0.6531370">
        <ele>563.7</ele>
        <time>2018-03-30T07:34:42Z</time>
      </trkpt>
      <trkpt lat="38.4806280" lon="-0.6531570">
        <ele>564.0</ele>
        <time>2018-03-30T07:34:43Z</time>
      </trkpt>
      <trkpt lat="38.4806500" lon="-0.6531760">
        <ele>564.2</ele>
        <time>2018-03-30T07:34:44Z</time>
      </trkpt>
      <trkpt lat="38.4806710" lon="-0.6531940">
        <ele>564.4</ele>
        <time>2018-03-30T07:34:45Z</time>
      </trkpt>
      <trkpt lat="38.4806930" lon="-0.6532110">
        <ele>564.6</ele>
        <time>2018-03-30T07:34:46Z</time>
      </trkpt>
      <trkpt lat="38.4807120" lon="-0.6532290">
        <ele>564.8</ele>
        <time>2018-03-30T07:34:47Z</time>
      </trkpt>
      <trkpt lat="38.4807320" lon="-0.6532470">
        <ele>564.9</ele>
        <time>2018-03-30T07:34:48Z</time>
      </trkpt>
      <trkpt lat="38.4807520" lon="-0.6532660">
        <ele>565.0</ele>
        <time>2018-03-30T07:34:49Z</time>
      </trkpt>
      <trkpt lat="38.4807710" lon="-0.6532850">
        <ele>565.2</ele>
        <time>2018-03-30T07:34:50Z</time>
      </trkpt>
      <trkpt lat="38.4807910" lon="-0.6533030">
        <ele>565.3</ele>
        <time>2018-03-30T07:34:51Z</time>
      </trkpt>
      <trkpt lat="38.4808110" lon="-0.6533240">
        <ele>565.6</ele>
        <time>2018-03-30T07:34:52Z</time>
      </trkpt>
      <trkpt lat="38.4808320" lon="-0.6533450">
        <ele>565.8</ele>
        <time>2018-03-30T07:34:53Z</time>
      </trkpt>
      <trkpt lat="38.4808520" lon="-0.6533690">
        <ele>565.9</ele>
        <time>2018-03-30T07:34:54Z</time>
      </trkpt>
      <trkpt lat="38.4808740" lon="-0.6533920">
        <ele>566.1</ele>
        <time>2018-03-30T07:34:55Z</time>
      </trkpt>
      <trkpt lat="38.4808920" lon="-0.6534140">
        <ele>566.2</ele>
        <time>2018-03-30T07:34:56Z</time>
      </trkpt>
      <trkpt lat="38.4809100" lon="-0.6534360">
        <ele>566.3</ele>
        <time>2018-03-30T07:34:57Z</time>
      </trkpt>
      <trkpt lat="38.4809300" lon="-0.6534590">
        <ele>566.4</ele>
        <time>2018-03-30T07:34:58Z</time>
      </trkpt>
      <trkpt lat="38.4809500" lon="-0.6534800">
        <ele>566.7</ele>
        <time>2018-03-30T07:34:59Z</time>
      </trkpt>
      <trkpt lat="38.4809670" lon="-0.6535020">
        <ele>566.9</ele>
        <time>2018-03-30T07:35:00Z</time>
      </trkpt>
      <trkpt lat="38.4809850" lon="-0.6535250">
        <ele>567.0</ele>
        <time>2018-03-30T07:35:01Z</time>
      </trkpt>
      <trkpt lat="38.4810030" lon="-0.6535480">
        <ele>567.2</ele>
        <time>2018-03-30T07:35:02Z</time>
      </trkpt>
      <trkpt lat="38.4810220" lon="-0.6535700">
        <ele>567.3</ele>
        <time>2018-03-30T07:35:03Z</time>
      </trkpt>
      <trkpt lat="38.4810400" lon="-0.6535920">
        <ele>567.4</ele>
        <time>2018-03-30T07:35:04Z</time>
      </trkpt>
      <trkpt lat="38.4810570" lon="-0.6536150">
        <ele>567.6</ele>
        <time>2018-03-30T07:35:05Z</time>
      </trkpt>
      <trkpt lat="38.4810740" lon="-0.6536380">
        <ele>567.8</ele>
        <time>2018-03-30T07:35:06Z</time>
      </trkpt>
      <trkpt lat="38.4810910" lon="-0.6536620">
        <ele>568.0</ele>
        <time>2018-03-30T07:35:07Z</time>
      </trkpt>
      <trkpt lat="38.4811070" lon="-0.6536870">
        <ele>568.1</ele>
        <time>2018-03-30T07:35:08Z</time>
      </trkpt>
      <trkpt lat="38.4811230" lon="-0.6537110">
        <ele>568.2</ele>
        <time>2018-03-30T07:35:09Z</time>
      </trkpt>
      <trkpt lat="38.4811370" lon="-0.6537350">
        <ele>568.4</ele>
        <time>2018-03-30T07:35:10Z</time>
      </trkpt>
      <trkpt lat="38.4811500" lon="-0.6537560">
        <ele>568.5</ele>
        <time>2018-03-30T07:35:11Z</time>
      </trkpt>
      <trkpt lat="38.4811620" lon="-0.6537800">
        <ele>568.6</ele>
        <time>2018-03-30T07:35:12Z</time>
      </trkpt>
      <trkpt lat="38.4811700" lon="-0.6538050">
        <ele>568.7</ele>
        <time>2018-03-30T07:35:13Z</time>
      </trkpt>
      <trkpt lat="38.4811820" lon="-0.6538250">
        <ele>568.8</ele>
        <time>2018-03-30T07:35:14Z</time>
      </trkpt>
      <trkpt lat="38.4811990" lon="-0.6538460">
        <ele>569.0</ele>
        <time>2018-03-30T07:35:15Z</time>
      </trkpt>
      <trkpt lat="38.4812160" lon="-0.6538650">
        <ele>569.1</ele>
        <time>2018-03-30T07:35:16Z</time>
      </trkpt>
      <trkpt lat="38.4812320" lon="-0.6538840">
        <ele>569.2</ele>
        <time>2018-03-30T07:35:17Z</time>
      </trkpt>
      <trkpt lat="38.4812500" lon="-0.6539030">
        <ele>569.4</ele>
        <time>2018-03-30T07:35:18Z</time>
      </trkpt>
      <trkpt lat="38.4812690" lon="-0.6539230">
        <ele>569.5</ele>
        <time>2018-03-30T07:35:19Z</time>
      </trkpt>
      <trkpt lat="38.4812900" lon="-0.6539430">
        <ele>569.7</ele>
        <time>2018-03-30T07:35:20Z</time>
      </trkpt>
      <trkpt lat="38.4813100" lon="-0.6539640">
        <ele>569.8</ele>
        <time>2018-03-30T07:35:21Z</time>
      </trkpt>
      <trkpt lat="38.4813330" lon="-0.6539840">
        <ele>570.0</ele>
        <time>2018-03-30T07:35:22Z</time>
      </trkpt>
      <trkpt lat="38.4813530" lon="-0.6540030">
        <ele>570.2</ele>
        <time>2018-03-30T07:35:23Z</time>
      </trkpt>
      <trkpt lat="38.4813740" lon="-0.6540240">
        <ele>570.3</ele>
        <time>2018-03-30T07:35:24Z</time>
      </trkpt>
      <trkpt lat="38.4813950" lon="-0.6540430">
        <ele>570.4</ele>
        <time>2018-03-30T07:35:25Z</time>
      </trkpt>
      <trkpt lat="38.4814170" lon="-0.6540650">
        <ele>570.6</ele>
        <time>2018-03-30T07:35:26Z</time>
      </trkpt>
      <trkpt lat="38.4814360" lon="-0.6540860">
        <ele>570.7</ele>
        <time>2018-03-30T07:35:27Z</time>
      </trkpt>
      <trkpt lat="38.4814580" lon="-0.6541060">
        <ele>570.8</ele>
        <time>2018-03-30T07:35:28Z</time>
      </trkpt>
      <trkpt lat="38.4814770" lon="-0.6541260">
        <ele>570.9</ele>
        <time>2018-03-30T07:35:29Z</time>
      </trkpt>
      <trkpt lat="38.4814980" lon="-0.6541470">
        <ele>571.0</ele>
        <time>2018-03-30T07:35:30Z</time>
      </trkpt>
      <trkpt lat="38.4815210" lon="-0.6541670">
        <ele>571.1</ele>
        <time>2018-03-30T07:35:31Z</time>
      </trkpt>
      <trkpt lat="38.4815440" lon="-0.6541850">
        <ele>571.2</ele>
        <time>2018-03-30T07:35:32Z</time>
      </trkpt>
      <trkpt lat="38.4815670" lon="-0.6542050">
        <ele>571.3</ele>
        <time>2018-03-30T07:35:33Z</time>
      </trkpt>
      <trkpt lat="38.4815910" lon="-0.6542250">
        <ele>571.4</ele>
        <time>2018-03-30T07:35:34Z</time>
      </trkpt>
      <trkpt lat="38.4816140" lon="-0.6542440">
        <ele>571.5</ele>
        <time>2018-03-30T07:35:35Z</time>
      </trkpt>
      <trkpt lat="38.4816380" lon="-0.6542670">
        <ele>571.6</ele>
        <time>2018-03-30T07:35:36Z</time>
      </trkpt>
      <trkpt lat="38.4816660" lon="-0.6542880">
        <ele>571.6</ele>
        <time>2018-03-30T07:35:37Z</time>
      </trkpt>
      <trkpt lat="38.4816960" lon="-0.6543130">
        <ele>571.7</ele>
        <time>2018-03-30T07:35:38Z</time>
      </trkpt>
      <trkpt lat="38.4817340" lon="-0.6543350">
        <ele>571.8</ele>
        <time>2018-03-30T07:35:39Z</time>
      </trkpt>
      <trkpt lat="38.4817730" lon="-0.6543560">
        <ele>571.8</ele>
        <time>2018-03-30T07:35:40Z</time>
      </trkpt>
      <trkpt lat="38.4818250" lon="-0.6543720">
        <ele>571.8</ele>
        <time>2018-03-30T07:35:41Z</time>
      </trkpt>
      <trkpt lat="38.4818800" lon="-0.6543850">
        <ele>571.8</ele>
        <time>2018-03-30T07:35:42Z</time>
      </trkpt>
      <trkpt lat="38.4819370" lon="-0.6543980">
        <ele>571.6</ele>
        <time>2018-03-30T07:35:43Z</time>
      </trkpt>
      <trkpt lat="38.4819980" lon="-0.6544020">
        <ele>571.5</ele>
        <time>2018-03-30T07:35:44Z</time>
      </trkpt>
      <trkpt lat="38.4820610" lon="-0.6544040">
        <ele>571.2</ele>
        <time>2018-03-30T07:35:45Z</time>
      </trkpt>
      <trkpt lat="38.4821280" lon="-0.6543990">
        <ele>570.9</ele>
        <time>2018-03-30T07:35:46Z</time>
      </trkpt>
      <trkpt lat="38.4821940" lon="-0.6543920">
        <ele>570.5</ele>
        <time>2018-03-30T07:35:47Z</time>
      </trkpt>
      <trkpt lat="38.4822670" lon="-0.6543800">
        <ele>570.3</ele>
        <time>2018-03-30T07:35:48Z</time>
      </trkpt>
      <trkpt lat="38.4823410" lon="-0.6543720">
        <ele>570.0</ele>
        <time>2018-03-30T07:35:49Z</time>
      </trkpt>
      <trkpt lat="38.4824170" lon="-0.6543740">
        <ele>569.7</ele>
        <time>2018-03-30T07:35:50Z</time>
      </trkpt>
      <trkpt lat="38.4824930" lon="-0.6543830">
        <ele>569.3</ele>
        <time>2018-03-30T07:35:51Z</time>
      </trkpt>
      <trkpt lat="38.4825680" lon="-0.6543980">
        <ele>568.8</ele>
        <time>2018-03-30T07:35:52Z</time>
      </trkpt>
      <trkpt lat="38.4826380" lon="-0.6544270">
        <ele>568.3</ele>
        <time>2018-03-30T07:35:53Z</time>
      </trkpt>
      <trkpt lat="38.4827020" lon="-0.6544650">
        <ele>568.0</ele>
        <time>2018-03-30T07:35:54Z</time>
      </trkpt>
      <trkpt lat="38.4827630" lon="-0.6545110">
        <ele>568.1</ele>
        <time>2018-03-30T07:35:55Z</time>
      </trkpt>
      <trkpt lat="38.4828220" lon="-0.6545480">
        <ele>568.2</ele>
        <time>2018-03-30T07:35:56Z</time>
      </trkpt>
      <trkpt lat="38.4828810" lon="-0.6545710">
        <ele>568.4</ele>
        <time>2018-03-30T07:35:57Z</time>
      </trkpt>
      <trkpt lat="38.4829320" lon="-0.6545760">
        <ele>568.7</ele>
        <time>2018-03-30T07:35:58Z</time>
      </trkpt>
      <trkpt lat="38.4829700" lon="-0.6545700">
        <ele>568.9</ele>
        <time>2018-03-30T07:35:59Z</time>
      </trkpt>
      <trkpt lat="38.4830010" lon="-0.6545560">
        <ele>569.1</ele>
        <time>2018-03-30T07:36:00Z</time>
      </trkpt>
      <trkpt lat="38.4830370" lon="-0.6545410">
        <ele>569.3</ele>
        <time>2018-03-30T07:36:01Z</time>
      </trkpt>
      <trkpt lat="38.4830680" lon="-0.6545340">
        <ele>569.5</ele>
        <time>2018-03-30T07:36:02Z</time>
      </trkpt>
      <trkpt lat="38.4830990" lon="-0.6545320">
        <ele>569.7</ele>
        <time>2018-03-30T07:36:03Z</time>
      </trkpt>
      <trkpt lat="38.4831260" lon="-0.6545320">
        <ele>569.8</ele>
        <time>2018-03-30T07:36:04Z</time>
      </trkpt>
      <trkpt lat="38.4831540" lon="-0.6545300">
        <ele>570.0</ele>
        <time>2018-03-30T07:36:05Z</time>
      </trkpt>
      <trkpt lat="38.4831830" lon="-0.6545300">
        <ele>570.2</ele>
        <time>2018-03-30T07:36:06Z</time>
      </trkpt>
      <trkpt lat="38.4832120" lon="-0.6545290">
        <ele>570.3</ele>
        <time>2018-03-30T07:36:07Z</time>
      </trkpt>
      <trkpt lat="38.4832410" lon="-0.6545310">
        <ele>570.5</ele>
        <time>2018-03-30T07:36:08Z</time>
      </trkpt>
      <trkpt lat="38.4832690" lon="-0.6545290">
        <ele>570.7</ele>
        <time>2018-03-30T07:36:09Z</time>
      </trkpt>
      <trkpt lat="38.4832970" lon="-0.6545300">
        <ele>570.8</ele>
        <time>2018-03-30T07:36:10Z</time>
      </trkpt>
      <trkpt lat="38.4833260" lon="-0.6545300">
        <ele>571.2</ele>
        <time>2018-03-30T07:36:11Z</time>
      </trkpt>
      <trkpt lat="38.4833540" lon="-0.6545320">
        <ele>571.5</ele>
        <time>2018-03-30T07:36:12Z</time>
      </trkpt>
      <trkpt lat="38.4833810" lon="-0.6545340">
        <ele>571.8</ele>
        <time>2018-03-30T07:36:13Z</time>
      </trkpt>
      <trkpt lat="38.4834090" lon="-0.6545340">
        <ele>572.0</ele>
        <time>2018-03-30T07:36:14Z</time>
      </trkpt>
      <trkpt lat="38.4834370" lon="-0.6545350">
        <ele>572.3</ele>
        <time>2018-03-30T07:36:15Z</time>
      </trkpt>
      <trkpt lat="38.4834650" lon="-0.6545350">
        <ele>572.5</ele>
        <time>2018-03-30T07:36:16Z</time>
      </trkpt>
      <trkpt lat="38.4834950" lon="-0.6545320">
        <ele>572.7</ele>
        <time>2018-03-30T07:36:17Z</time>
      </trkpt>
      <trkpt lat="38.4835270" lon="-0.6545320">
        <ele>572.9</ele>
        <time>2018-03-30T07:36:18Z</time>
      </trkpt>
      <trkpt lat="38.4835590" lon="-0.6545310">
        <ele>573.1</ele>
        <time>2018-03-30T07:36:19Z</time>
      </trkpt>
      <trkpt lat="38.4835920" lon="-0.6545290">
        <ele>573.3</ele>
        <time>2018-03-30T07:36:20Z</time>
      </trkpt>
      <trkpt lat="38.4836250" lon="-0.6545280">
        <ele>573.5</ele>
        <time>2018-03-30T07:36:21Z</time>
      </trkpt>
      <trkpt lat="38.4836610" lon="-0.6545290">
        <ele>573.6</ele>
        <time>2018-03-30T07:36:22Z</time>
      </trkpt>
      <trkpt lat="38.4836990" lon="-0.6545280">
        <ele>573.6</ele>
        <time>2018-03-30T07:36:23Z</time>
      </trkpt>
      <trkpt lat="38.4837390" lon="-0.6545250">
        <ele>573.7</ele>
        <time>2018-03-30T07:36:24Z</time>
      </trkpt>
      <trkpt lat="38.4837780" lon="-0.6545240">
        <ele>573.8</ele>
        <time>2018-03-30T07:36:25Z</time>
      </trkpt>
      <trkpt lat="38.4838200" lon="-0.6545230">
        <ele>573.8</ele>
        <time>2018-03-30T07:36:26Z</time>
      </trkpt>
      <trkpt lat="38.4838620" lon="-0.6545220">
        <ele>573.9</ele>
        <time>2018-03-30T07:36:27Z</time>
      </trkpt>
      <trkpt lat="38.4839040" lon="-0.6545190">
        <ele>574.0</ele>
        <time>2018-03-30T07:36:28Z</time>
      </trkpt>
      <trkpt lat="38.4839480" lon="-0.6545170">
        <ele>574.0</ele>
        <time>2018-03-30T07:36:29Z</time>
      </trkpt>
      <trkpt lat="38.4839900" lon="-0.6545130">
        <ele>574.0</ele>
        <time>2018-03-30T07:36:30Z</time>
      </trkpt>
      <trkpt lat="38.4840350" lon="-0.6545090">
        <ele>574.0</ele>
        <time>2018-03-30T07:36:31Z</time>
      </trkpt>
      <trkpt lat="38.4840800" lon="-0.6545060">
        <ele>574.0</ele>
        <time>2018-03-30T07:36:32Z</time>
      </trkpt>
      <trkpt lat="38.4841250" lon="-0.6544990">
        <ele>574.0</ele>
        <time>2018-03-30T07:36:33Z</time>
      </trkpt>
      <trkpt lat="38.4841690" lon="-0.6544900">
        <ele>574.0</ele>
        <time>2018-03-30T07:36:34Z</time>
      </trkpt>
      <trkpt lat="38.4842120" lon="-0.6544780">
        <ele>574.0</ele>
        <time>2018-03-30T07:36:35Z</time>
      </trkpt>
      <trkpt lat="38.4842560" lon="-0.6544660">
        <ele>574.0</ele>
        <time>2018-03-30T07:36:36Z</time>
      </trkpt>
      <trkpt lat="38.4842990" lon="-0.6544540">
        <ele>574.0</ele>
        <time>2018-03-30T07:36:37Z</time>
      </trkpt>
      <trkpt lat="38.4843420" lon="-0.6544410">
        <ele>574.0</ele>
        <time>2018-03-30T07:36:38Z</time>
      </trkpt>
      <trkpt lat="38.4843870" lon="-0.6544280">
        <ele>574.0</ele>
        <time>2018-03-30T07:36:39Z</time>
      </trkpt>
      <trkpt lat="38.4844340" lon="-0.6544110">
        <ele>574.0</ele>
        <time>2018-03-30T07:36:40Z</time>
      </trkpt>
      <trkpt lat="38.4844800" lon="-0.6543870">
        <ele>574.0</ele>
        <time>2018-03-30T07:36:41Z</time>
      </trkpt>
      <trkpt lat="38.4845270" lon="-0.6543570">
        <ele>573.9</ele>
        <time>2018-03-30T07:36:42Z</time>
      </trkpt>
      <trkpt lat="38.4845730" lon="-0.6543280">
        <ele>573.9</ele>
        <time>2018-03-30T07:36:43Z</time>
      </trkpt>
      <trkpt lat="38.4846200" lon="-0.6542960">
        <ele>573.9</ele>
        <time>2018-03-30T07:36:44Z</time>
      </trkpt>
      <trkpt lat="38.4846670" lon="-0.6542630">
        <ele>573.8</ele>
        <time>2018-03-30T07:36:45Z</time>
      </trkpt>
      <trkpt lat="38.4847130" lon="-0.6542280">
        <ele>573.7</ele>
        <time>2018-03-30T07:36:46Z</time>
      </trkpt>
      <trkpt lat="38.4847570" lon="-0.6541920">
        <ele>573.7</ele>
        <time>2018-03-30T07:36:47Z</time>
      </trkpt>
      <trkpt lat="38.4848000" lon="-0.6541590">
        <ele>573.7</ele>
        <time>2018-03-30T07:36:48Z</time>
      </trkpt>
      <trkpt lat="38.4848390" lon="-0.6541250">
        <ele>573.7</ele>
        <time>2018-03-30T07:36:49Z</time>
      </trkpt>
      <trkpt lat="38.4848800" lon="-0.6540950">
        <ele>573.7</ele>
        <time>2018-03-30T07:36:50Z</time>
      </trkpt>
      <trkpt lat="38.4849090" lon="-0.6540680">
        <ele>573.6</ele>
        <time>2018-03-30T07:36:51Z</time>
      </trkpt>
      <trkpt lat="38.4849420" lon="-0.6540390">
        <ele>573.6</ele>
        <time>2018-03-30T07:36:52Z</time>
      </trkpt>
      <trkpt lat="38.4849750" lon="-0.6540130">
        <ele>573.6</ele>
        <time>2018-03-30T07:36:53Z</time>
      </trkpt>
      <trkpt lat="38.4850090" lon="-0.6539900">
        <ele>573.6</ele>
        <time>2018-03-30T07:36:54Z</time>
      </trkpt>
      <trkpt lat="38.4850420" lon="-0.6539730">
        <ele>573.5</ele>
        <time>2018-03-30T07:36:55Z</time>
      </trkpt>
      <trkpt lat="38.4850850" lon="-0.6539580">
        <ele>573.5</ele>
        <time>2018-03-30T07:36:56Z</time>
      </trkpt>
      <trkpt lat="38.4851220" lon="-0.6539470">
        <ele>573.4</ele>
        <time>2018-03-30T07:36:57Z</time>
      </trkpt>
      <trkpt lat="38.4851550" lon="-0.6539330">
        <ele>573.3</ele>
        <time>2018-03-30T07:36:58Z</time>
      </trkpt>
      <trkpt lat="38.4851930" lon="-0.6539280">
        <ele>573.2</ele>
        <time>2018-03-30T07:36:59Z</time>
      </trkpt>
      <trkpt lat="38.4852360" lon="-0.6539220">
        <ele>573.1</ele>
        <time>2018-03-30T07:37:00Z</time>
      </trkpt>
      <trkpt lat="38.4852930" lon="-0.6539180">
        <ele>572.9</ele>
        <time>2018-03-30T07:37:01Z</time>
      </trkpt>
      <trkpt lat="38.4853290" lon="-0.6539020">
        <ele>572.9</ele>
        <time>2018-03-30T07:37:02Z</time>
      </trkpt>
      <trkpt lat="38.4853580" lon="-0.6538850">
        <ele>572.8</ele>
        <time>2018-03-30T07:37:03Z</time>
      </trkpt>
      <trkpt lat="38.4853830" lon="-0.6538660">
        <ele>572.7</ele>
        <time>2018-03-30T07:37:04Z</time>
      </trkpt>
      <trkpt lat="38.4854130" lon="-0.6538500">
        <ele>572.7</ele>
        <time>2018-03-30T07:37:05Z</time>
      </trkpt>
      <trkpt lat="38.4854340" lon="-0.6538390">
        <ele>572.6</ele>
        <time>2018-03-30T07:37:06Z</time>
      </trkpt>
      <trkpt lat="38.4854580" lon="-0.6538270">
        <ele>572.6</ele>
        <time>2018-03-30T07:37:07Z</time>
      </trkpt>
      <trkpt lat="38.4854790" lon="-0.6538100">
        <ele>572.6</ele>
        <time>2018-03-30T07:37:08Z</time>
      </trkpt>
      <trkpt lat="38.4854980" lon="-0.6537880">
        <ele>572.6</ele>
        <time>2018-03-30T07:37:09Z</time>
      </trkpt>
      <trkpt lat="38.4855200" lon="-0.6537630">
        <ele>572.5</ele>
        <time>2018-03-30T07:37:10Z</time>
      </trkpt>
      <trkpt lat="38.4855420" lon="-0.6537400">
        <ele>572.5</ele>
        <time>2018-03-30T07:37:11Z</time>
      </trkpt>
      <trkpt lat="38.4855640" lon="-0.6537260">
        <ele>572.6</ele>
        <time>2018-03-30T07:37:12Z</time>
      </trkpt>
      <trkpt lat="38.4855880" lon="-0.6536990">
        <ele>572.6</ele>
        <time>2018-03-30T07:37:13Z</time>
      </trkpt>
      <trkpt lat="38.4856010" lon="-0.6536740">
        <ele>572.7</ele>
        <time>2018-03-30T07:37:14Z</time>
      </trkpt>
      <trkpt lat="38.4856220" lon="-0.6536500">
        <ele>572.7</ele>
        <time>2018-03-30T07:37:15Z</time>
      </trkpt>
      <trkpt lat="38.4856370" lon="-0.6536240">
        <ele>572.8</ele>
        <time>2018-03-30T07:37:16Z</time>
      </trkpt>
      <trkpt lat="38.4856520" lon="-0.6536020">
        <ele>572.9</ele>
        <time>2018-03-30T07:37:17Z</time>
      </trkpt>
      <trkpt lat="38.4856630" lon="-0.6535770">
        <ele>573.0</ele>
        <time>2018-03-30T07:37:18Z</time>
      </trkpt>
      <trkpt lat="38.4856750" lon="-0.6535510">
        <ele>573.1</ele>
        <time>2018-03-30T07:37:19Z</time>
      </trkpt>
      <trkpt lat="38.4856890" lon="-0.6535270">
        <ele>573.1</ele>
        <time>2018-03-30T07:37:20Z</time>
      </trkpt>
      <trkpt lat="38.4857020" lon="-0.6535090">
        <ele>573.2</ele>
        <time>2018-03-30T07:37:21Z</time>
      </trkpt>
      <trkpt lat="38.4857150" lon="-0.6534910">
        <ele>573.3</ele>
        <time>2018-03-30T07:37:22Z</time>
      </trkpt>
      <trkpt lat="38.4857240" lon="-0.6534840">
        <ele>573.4</ele>
        <time>2018-03-30T07:37:23Z</time>
      </trkpt>
      <trkpt lat="38.4857140" lon="-0.6534920">
        <ele>573.5</ele>
        <time>2018-03-30T07:37:24Z</time>
      </trkpt>
      <trkpt lat="38.4857170" lon="-0.6534900">
        <ele>573.5</ele>
        <time>2018-03-30T07:37:25Z</time>
      </trkpt>
      <trkpt lat="38.4857260" lon="-0.6534830">
        <ele>573.6</ele>
        <time>2018-03-30T07:37:26Z</time>
      </trkpt>
      <trkpt lat="38.4857300" lon="-0.6534720">
        <ele>573.6</ele>
        <time>2018-03-30T07:37:27Z</time>
      </trkpt>
      <trkpt lat="38.4857300" lon="-0.6534620">
        <ele>573.7</ele>
        <time>2018-03-30T07:37:28Z</time>
      </trkpt>
      <trkpt lat="38.4857290" lon="-0.6534540">
        <ele>573.7</ele>
        <time>2018-03-30T07:37:29Z</time>
      </trkpt>
      <trkpt lat="38.4857210" lon="-0.6534410">
        <ele>573.7</ele>
        <time>2018-03-30T07:37:30Z</time>
      </trkpt>
      <trkpt lat="38.4857160" lon="-0.6534290">
        <ele>573.8</ele>
        <time>2018-03-30T07:37:31Z</time>
      </trkpt>
      <trkpt lat="38.4857100" lon="-0.6534170">
        <ele>573.8</ele>
        <time>2018-03-30T07:37:32Z</time>
      </trkpt>
      <trkpt lat="38.4857070" lon="-0.6534050">
        <ele>573.9</ele>
        <time>2018-03-30T07:37:33Z</time>
      </trkpt>
      <trkpt lat="38.4857060" lon="-0.6533940">
        <ele>573.9</ele>
        <time>2018-03-30T07:37:34Z</time>
      </trkpt>
      <trkpt lat="38.4857040" lon="-0.6533840">
        <ele>573.9</ele>
        <time>2018-03-30T07:37:35Z</time>
      </trkpt>
      <trkpt lat="38.4857050" lon="-0.6533770">
        <ele>574.0</ele>
        <time>2018-03-30T07:37:36Z</time>
      </trkpt>
      <trkpt lat="38.4857030" lon="-0.6533730">
        <ele>574.0</ele>
        <time>2018-03-30T07:37:37Z</time>
      </trkpt>
      <trkpt lat="38.4857030" lon="-0.6533590">
        <ele>574.0</ele>
        <time>2018-03-30T07:37:38Z</time>
      </trkpt>
      <trkpt lat="38.4857060" lon="-0.6533470">
        <ele>574.1</ele>
        <time>2018-03-30T07:37:39Z</time>
      </trkpt>
      <trkpt lat="38.4857080" lon="-0.6533370">
        <ele>574.1</ele>
        <time>2018-03-30T07:37:40Z</time>
      </trkpt>
      <trkpt lat="38.4857110" lon="-0.6533280">
        <ele>574.5</ele>
        <time>2018-03-30T07:37:41Z</time>
      </trkpt>
      <trkpt lat="38.4857160" lon="-0.6533230">
        <ele>574.6</ele>
        <time>2018-03-30T07:37:42Z</time>
      </trkpt>
      <trkpt lat="38.4857120" lon="-0.6533250">
        <ele>574.7</ele>
        <time>2018-03-30T07:37:43Z</time>
      </trkpt>
      <trkpt lat="38.4857160" lon="-0.6533220">
        <ele>574.8</ele>
        <time>2018-03-30T07:37:44Z</time>
      </trkpt>
      <trkpt lat="38.4857170" lon="-0.6533140">
        <ele>574.9</ele>
        <time>2018-03-30T07:37:45Z</time>
      </trkpt>
      <trkpt lat="38.4857240" lon="-0.6533000">
        <ele>574.9</ele>
        <time>2018-03-30T07:37:46Z</time>
      </trkpt>
      <trkpt lat="38.4857330" lon="-0.6532820">
        <ele>575.0</ele>
        <time>2018-03-30T07:37:47Z</time>
      </trkpt>
      <trkpt lat="38.4857420" lon="-0.6532610">
        <ele>575.1</ele>
        <time>2018-03-30T07:37:48Z</time>
      </trkpt>
      <trkpt lat="38.4857470" lon="-0.6532330">
        <ele>575.4</ele>
        <time>2018-03-30T07:37:49Z</time>
      </trkpt>
      <trkpt lat="38.4857540" lon="-0.6532040">
        <ele>575.6</ele>
        <time>2018-03-30T07:37:50Z</time>
      </trkpt>
      <trkpt lat="38.4857640" lon="-0.6531780">
        <ele>575.7</ele>
        <time>2018-03-30T07:37:51Z</time>
      </trkpt>
      <trkpt lat="38.4857780" lon="-0.6531490">
        <ele>576.1</ele>
        <time>2018-03-30T07:37:52Z</time>
      </trkpt>
      <trkpt lat="38.4857890" lon="-0.6531170">
        <ele>576.4</ele>
        <time>2018-03-30T07:37:53Z</time>
      </trkpt>
      <trkpt lat="38.4858020" lon="-0.6530860">
        <ele>576.5</ele>
        <time>2018-03-30T07:37:54Z</time>
      </trkpt>
      <trkpt lat="38.4858170" lon="-0.6530540">
        <ele>577.1</ele>
        <time>2018-03-30T07:37:55Z</time>
      </trkpt>
      <trkpt lat="38.4858300" lon="-0.6530250">
        <ele>577.4</ele>
        <time>2018-03-30T07:37:56Z</time>
      </trkpt>
      <trkpt lat="38.4858430" lon="-0.6530010">
        <ele>577.5</ele>
        <time>2018-03-30T07:37:57Z</time>
      </trkpt>
      <trkpt lat="38.4858640" lon="-0.6529800">
        <ele>578.2</ele>
        <time>2018-03-30T07:37:58Z</time>
      </trkpt>
      <trkpt lat="38.4858890" lon="-0.6529590">
        <ele>578.4</ele>
        <time>2018-03-30T07:37:59Z</time>
      </trkpt>
      <trkpt lat="38.4859320" lon="-0.6529450">
        <ele>579.1</ele>
        <time>2018-03-30T07:38:00Z</time>
      </trkpt>
      <trkpt lat="38.4859530" lon="-0.6529320">
        <ele>579.3</ele>
        <time>2018-03-30T07:38:01Z</time>
      </trkpt>
      <trkpt lat="38.4859770" lon="-0.6529270">
        <ele>579.4</ele>
        <time>2018-03-30T07:38:02Z</time>
      </trkpt>
      <trkpt lat="38.4859920" lon="-0.6529170">
        <ele>579.7</ele>
        <time>2018-03-30T07:38:03Z</time>
      </trkpt>
      <trkpt lat="38.4860150" lon="-0.6529010">
        <ele>580.3</ele>
        <time>2018-03-30T07:38:04Z</time>
      </trkpt>
      <trkpt lat="38.4860390" lon="-0.6528810">
        <ele>580.4</ele>
        <time>2018-03-30T07:38:05Z</time>
      </trkpt>
      <trkpt lat="38.4860620" lon="-0.6528610">
        <ele>581.0</ele>
        <time>2018-03-30T07:38:06Z</time>
      </trkpt>
      <trkpt lat="38.4860830" lon="-0.6528430">
        <ele>581.3</ele>
        <time>2018-03-30T07:38:07Z</time>
      </trkpt>
      <trkpt lat="38.4861060" lon="-0.6528270">
        <ele>581.8</ele>
        <time>2018-03-30T07:38:08Z</time>
      </trkpt>
      <trkpt lat="38.4861270" lon="-0.6528150">
        <ele>582.1</ele>
        <time>2018-03-30T07:38:09Z</time>
      </trkpt>
      <trkpt lat="38.4861520" lon="-0.6528030">
        <ele>582.4</ele>
        <time>2018-03-30T07:38:10Z</time>
      </trkpt>
      <trkpt lat="38.4861760" lon="-0.6527880">
        <ele>582.5</ele>
        <time>2018-03-30T07:38:11Z</time>
      </trkpt>
      <trkpt lat="38.4861950" lon="-0.6527720">
        <ele>583.2</ele>
        <time>2018-03-30T07:38:12Z</time>
      </trkpt>
      <trkpt lat="38.4862220" lon="-0.6527630">
        <ele>583.5</ele>
        <time>2018-03-30T07:38:13Z</time>
      </trkpt>
      <trkpt lat="38.4862570" lon="-0.6527590">
        <ele>583.8</ele>
        <time>2018-03-30T07:38:14Z</time>
      </trkpt>
      <trkpt lat="38.4862810" lon="-0.6527500">
        <ele>583.9</ele>
        <time>2018-03-30T07:38:15Z</time>
      </trkpt>
      <trkpt lat="38.4863130" lon="-0.6527420">
        <ele>584.7</ele>
        <time>2018-03-30T07:38:16Z</time>
      </trkpt>
      <trkpt lat="38.4863360" lon="-0.6527340">
        <ele>585.0</ele>
        <time>2018-03-30T07:38:17Z</time>
      </trkpt>
      <trkpt lat="38.4863650" lon="-0.6527290">
        <ele>585.3</ele>
        <time>2018-03-30T07:38:18Z</time>
      </trkpt>
      <trkpt lat="38.4863910" lon="-0.6527250">
        <ele>585.6</ele>
        <time>2018-03-30T07:38:19Z</time>
      </trkpt>
      <trkpt lat="38.4864150" lon="-0.6527200">
        <ele>585.7</ele>
        <time>2018-03-30T07:38:20Z</time>
      </trkpt>
      <trkpt lat="38.4864440" lon="-0.6527160">
        <ele>586.0</ele>
        <time>2018-03-30T07:38:21Z</time>
      </trkpt>
      <trkpt lat="38.4864710" lon="-0.6527150">
        <ele>586.3</ele>
        <time>2018-03-30T07:38:22Z</time>
      </trkpt>
      <trkpt lat="38.4864970" lon="-0.6527170">
        <ele>586.6</ele>
        <time>2018-03-30T07:38:23Z</time>
      </trkpt>
      <trkpt lat="38.4865230" lon="-0.6527200">
        <ele>586.9</ele>
        <time>2018-03-30T07:38:24Z</time>
      </trkpt>
      <trkpt lat="38.4865500" lon="-0.6527240">
        <ele>587.0</ele>
        <time>2018-03-30T07:38:25Z</time>
      </trkpt>
      <trkpt lat="38.4865770" lon="-0.6527320">
        <ele>587.3</ele>
        <time>2018-03-30T07:38:26Z</time>
      </trkpt>
      <trkpt lat="38.4866040" lon="-0.6527390">
        <ele>587.6</ele>
        <time>2018-03-30T07:38:27Z</time>
      </trkpt>
      <trkpt lat="38.4866330" lon="-0.6527470">
        <ele>587.6</ele>
        <time>2018-03-30T07:38:28Z</time>
      </trkpt>
      <trkpt lat="38.4866660" lon="-0.6527570">
        <ele>588.0</ele>
        <time>2018-03-30T07:38:29Z</time>
      </trkpt>
      <trkpt lat="38.4866960" lon="-0.6527710">
        <ele>588.5</ele>
        <time>2018-03-30T07:38:30Z</time>
      </trkpt>
      <trkpt lat="38.4867210" lon="-0.6527860">
        <ele>588.7</ele>
        <time>2018-03-30T07:38:31Z</time>
      </trkpt>
      <trkpt lat="38.4867520" lon="-0.6528000">
        <ele>589.1</ele>
        <time>2018-03-30T07:38:32Z</time>
      </trkpt>
      <trkpt lat="38.4867830" lon="-0.6528150">
        <ele>589.2</ele>
        <time>2018-03-30T07:38:33Z</time>
      </trkpt>
      <trkpt lat="38.4868150" lon="-0.6528280">
        <ele>589.7</ele>
        <time>2018-03-30T07:38:34Z</time>
      </trkpt>
      <trkpt lat="38.4868450" lon="-0.6528430">
        <ele>590.0</ele>
        <time>2018-03-30T07:38:35Z</time>
      </trkpt>
      <trkpt lat="38.4868750" lon="-0.6528570">
        <ele>590.5</ele>
        <time>2018-03-30T07:38:36Z</time>
      </trkpt>
      <trkpt lat="38.4869030" lon="-0.6528710">
        <ele>591.0</ele>
        <time>2018-03-30T07:38:37Z</time>
      </trkpt>
      <trkpt lat="38.4869330" lon="-0.6528850">
        <ele>591.4</ele>
        <time>2018-03-30T07:38:38Z</time>
      </trkpt>
      <trkpt lat="38.4869560" lon="-0.6528990">
        <ele>591.9</ele>
        <time>2018-03-30T07:38:39Z</time>
      </trkpt>
      <trkpt lat="38.4869860" lon="-0.6529060">
        <ele>592.0</ele>
        <time>2018-03-30T07:38:40Z</time>
      </trkpt>
      <trkpt lat="38.4870160" lon="-0.6529080">
        <ele>592.4</ele>
        <time>2018-03-30T07:38:41Z</time>
      </trkpt>
      <trkpt lat="38.4870510" lon="-0.6529060">
        <ele>592.8</ele>
        <time>2018-03-30T07:38:42Z</time>
      </trkpt>
      <trkpt lat="38.4870870" lon="-0.6528970">
        <ele>593.2</ele>
        <time>2018-03-30T07:38:43Z</time>
      </trkpt>
      <trkpt lat="38.4871210" lon="-0.6528890">
        <ele>593.6</ele>
        <time>2018-03-30T07:38:44Z</time>
      </trkpt>
      <trkpt lat="38.4871550" lon="-0.6528870">
        <ele>594.3</ele>
        <time>2018-03-30T07:38:45Z</time>
      </trkpt>
      <trkpt lat="38.4871900" lon="-0.6528870">
        <ele>594.7</ele>
        <time>2018-03-30T07:38:46Z</time>
      </trkpt>
      <trkpt lat="38.4872210" lon="-0.6528870">
        <ele>594.8</ele>
        <time>2018-03-30T07:38:47Z</time>
      </trkpt>
      <trkpt lat="38.4872530" lon="-0.6528880">
        <ele>595.2</ele>
        <time>2018-03-30T07:38:48Z</time>
      </trkpt>
      <trkpt lat="38.4872790" lon="-0.6528880">
        <ele>595.7</ele>
        <time>2018-03-30T07:38:49Z</time>
      </trkpt>
      <trkpt lat="38.4873070" lon="-0.6528890">
        <ele>596.0</ele>
        <time>2018-03-30T07:38:50Z</time>
      </trkpt>
      <trkpt lat="38.4873370" lon="-0.6528910">
        <ele>596.3</ele>
        <time>2018-03-30T07:38:51Z</time>
      </trkpt>
      <trkpt lat="38.4873690" lon="-0.6528950">
        <ele>596.7</ele>
        <time>2018-03-30T07:38:52Z</time>
      </trkpt>
      <trkpt lat="38.4874040" lon="-0.6528990">
        <ele>597.0</ele>
        <time>2018-03-30T07:38:53Z</time>
      </trkpt>
      <trkpt lat="38.4874340" lon="-0.6529080">
        <ele>597.3</ele>
        <time>2018-03-30T07:38:54Z</time>
      </trkpt>
      <trkpt lat="38.4874630" lon="-0.6529110">
        <ele>597.7</ele>
        <time>2018-03-30T07:38:55Z</time>
      </trkpt>
      <trkpt lat="38.4874910" lon="-0.6529060">
        <ele>598.0</ele>
        <time>2018-03-30T07:38:56Z</time>
      </trkpt>
      <trkpt lat="38.4875170" lon="-0.6528950">
        <ele>598.1</ele>
        <time>2018-03-30T07:38:57Z</time>
      </trkpt>
      <trkpt lat="38.4875340" lon="-0.6528870">
        <ele>598.4</ele>
        <time>2018-03-30T07:38:58Z</time>
      </trkpt>
      <trkpt lat="38.4875110" lon="-0.6528830">
        <ele>598.3</ele>
        <time>2018-03-30T07:38:59Z</time>
      </trkpt>
      <trkpt lat="38.4875230" lon="-0.6528700">
        <ele>598.5</ele>
        <time>2018-03-30T07:39:00Z</time>
      </trkpt>
      <trkpt lat="38.4875300" lon="-0.6528670">
        <ele>598.8</ele>
        <time>2018-03-30T07:39:01Z</time>
      </trkpt>
      <trkpt lat="38.4875380" lon="-0.6528610">
        <ele>598.9</ele>
        <time>2018-03-30T07:39:02Z</time>
      </trkpt>
      <trkpt lat="38.4875490" lon="-0.6528660">
        <ele>599.0</ele>
        <time>2018-03-30T07:39:03Z</time>
      </trkpt>
      <trkpt lat="38.4875550" lon="-0.6528660">
        <ele>599.1</ele>
        <time>2018-03-30T07:39:04Z</time>
      </trkpt>
      <trkpt lat="38.4875620" lon="-0.6528670">
        <ele>599.4</ele>
        <time>2018-03-30T07:39:05Z</time>
      </trkpt>
      <trkpt lat="38.4875740" lon="-0.6528610">
        <ele>599.5</ele>
        <time>2018-03-30T07:39:06Z</time>
      </trkpt>
      <trkpt lat="38.4875850" lon="-0.6528580">
        <ele>599.6</ele>
        <time>2018-03-30T07:39:07Z</time>
      </trkpt>
      <trkpt lat="38.4875950" lon="-0.6528550">
        <ele>600.0</ele>
        <time>2018-03-30T07:39:08Z</time>
      </trkpt>
      <trkpt lat="38.4876060" lon="-0.6528500">
        <ele>600.1</ele>
        <time>2018-03-30T07:39:09Z</time>
      </trkpt>
      <trkpt lat="38.4876140" lon="-0.6528450">
        <ele>600.2</ele>
        <time>2018-03-30T07:39:10Z</time>
      </trkpt>
      <trkpt lat="38.4876280" lon="-0.6528430">
        <ele>600.6</ele>
        <time>2018-03-30T07:39:11Z</time>
      </trkpt>
      <trkpt lat="38.4876460" lon="-0.6528390">
        <ele>600.7</ele>
        <time>2018-03-30T07:39:12Z</time>
      </trkpt>
      <trkpt lat="38.4876580" lon="-0.6528420">
        <ele>600.8</ele>
        <time>2018-03-30T07:39:13Z</time>
      </trkpt>
      <trkpt lat="38.4876730" lon="-0.6528440">
        <ele>601.2</ele>
        <time>2018-03-30T07:39:14Z</time>
      </trkpt>
      <trkpt lat="38.4876850" lon="-0.6528450">
        <ele>601.3</ele>
        <time>2018-03-30T07:39:15Z</time>
      </trkpt>
      <trkpt lat="38.4876950" lon="-0.6528460">
        <ele>601.7</ele>
        <time>2018-03-30T07:39:16Z</time>
      </trkpt>
      <trkpt lat="38.4877050" lon="-0.6528470">
        <ele>601.8</ele>
        <time>2018-03-30T07:39:17Z</time>
      </trkpt>
      <trkpt lat="38.4877190" lon="-0.6528480">
        <ele>601.9</ele>
        <time>2018-03-30T07:39:18Z</time>
      </trkpt>
      <trkpt lat="38.4877310" lon="-0.6528510">
        <ele>602.4</ele>
        <time>2018-03-30T07:39:19Z</time>
      </trkpt>
      <trkpt lat="38.4877420" lon="-0.6528620">
        <ele>602.5</ele>
        <time>2018-03-30T07:39:20Z</time>
      </trkpt>
      <trkpt lat="38.4877410" lon="-0.6528900">
        <ele>602.5</ele>
        <time>2018-03-30T07:39:21Z</time>
      </trkpt>
      <trkpt lat="38.4877570" lon="-0.6529090">
        <ele>602.6</ele>
        <time>2018-03-30T07:39:22Z</time>
      </trkpt>
      <trkpt lat="38.4877840" lon="-0.6529360">
        <ele>603.2</ele>
        <time>2018-03-30T07:39:23Z</time>
      </trkpt>
      <trkpt lat="38.4878020" lon="-0.6529620">
        <ele>604.0</ele>
        <time>2018-03-30T07:39:24Z</time>
      </trkpt>
      <trkpt lat="38.4878190" lon="-0.6529830">
        <ele>604.1</ele>
        <time>2018-03-30T07:39:25Z</time>
      </trkpt>
      <trkpt lat="38.4878330" lon="-0.6530000">
        <ele>605.0</ele>
        <time>2018-03-30T07:39:26Z</time>
      </trkpt>
      <trkpt lat="38.4878430" lon="-0.6530220">
        <ele>605.1</ele>
        <time>2018-03-30T07:39:27Z</time>
      </trkpt>
      <trkpt lat="38.4878470" lon="-0.6530430">
        <ele>605.6</ele>
        <time>2018-03-30T07:39:28Z</time>
      </trkpt>
      <trkpt lat="38.4878540" lon="-0.6530700">
        <ele>605.7</ele>
        <time>2018-03-30T07:39:29Z</time>
      </trkpt>
      <trkpt lat="38.4878570" lon="-0.6530940">
        <ele>606.2</ele>
        <time>2018-03-30T07:39:30Z</time>
      </trkpt>
      <trkpt lat="38.4878560" lon="-0.6531070">
        <ele>606.3</ele>
        <time>2018-03-30T07:39:31Z</time>
      </trkpt>
      <trkpt lat="38.4878630" lon="-0.6531280">
        <ele>606.8</ele>
        <time>2018-03-30T07:39:32Z</time>
      </trkpt>
      <trkpt lat="38.4878730" lon="-0.6531460">
        <ele>607.3</ele>
        <time>2018-03-30T07:39:33Z</time>
      </trkpt>
      <trkpt lat="38.4878800" lon="-0.6531630">
        <ele>607.4</ele>
        <time>2018-03-30T07:39:34Z</time>
      </trkpt>
      <trkpt lat="38.4878960" lon="-0.6531760">
        <ele>608.2</ele>
        <time>2018-03-30T07:39:35Z</time>
      </trkpt>
      <trkpt lat="38.4879140" lon="-0.6531950">
        <ele>608.3</ele>
        <time>2018-03-30T07:39:36Z</time>
      </trkpt>
      <trkpt lat="38.4879250" lon="-0.6532160">
        <ele>608.7</ele>
        <time>2018-03-30T07:39:37Z</time>
      </trkpt>
      <trkpt lat="38.4879340" lon="-0.6532370">
        <ele>609.0</ele>
        <time>2018-03-30T07:39:38Z</time>
      </trkpt>
      <trkpt lat="38.4879440" lon="-0.6532580">
        <ele>609.4</ele>
        <time>2018-03-30T07:39:39Z</time>
      </trkpt>
      <trkpt lat="38.4879620" lon="-0.6532790">
        <ele>609.7</ele>
        <time>2018-03-30T07:39:40Z</time>
      </trkpt>
      <trkpt lat="38.4879810" lon="-0.6533020">
        <ele>610.0</ele>
        <time>2018-03-30T07:39:41Z</time>
      </trkpt>
      <trkpt lat="38.4879990" lon="-0.6533250">
        <ele>610.4</ele>
        <time>2018-03-30T07:39:42Z</time>
      </trkpt>
      <trkpt lat="38.4880120" lon="-0.6533490">
        <ele>610.7</ele>
        <time>2018-03-30T07:39:43Z</time>
      </trkpt>
      <trkpt lat="38.4880250" lon="-0.6533700">
        <ele>610.8</ele>
        <time>2018-03-30T07:39:44Z</time>
      </trkpt>
      <trkpt lat="38.4880340" lon="-0.6533870">
        <ele>611.4</ele>
        <time>2018-03-30T07:39:45Z</time>
      </trkpt>
      <trkpt lat="38.4880410" lon="-0.6534070">
        <ele>611.5</ele>
        <time>2018-03-30T07:39:46Z</time>
      </trkpt>
      <trkpt lat="38.4880510" lon="-0.6534310">
        <ele>611.9</ele>
        <time>2018-03-30T07:39:47Z</time>
      </trkpt>
      <trkpt lat="38.4880600" lon="-0.6534490">
        <ele>612.0</ele>
        <time>2018-03-30T07:39:48Z</time>
      </trkpt>
      <trkpt lat="38.4880640" lon="-0.6534690">
        <ele>612.2</ele>
        <time>2018-03-30T07:39:49Z</time>
      </trkpt>
      <trkpt lat="38.4880810" lon="-0.6534920">
        <ele>612.7</ele>
        <time>2018-03-30T07:39:50Z</time>
      </trkpt>
      <trkpt lat="38.4881010" lon="-0.6535140">
        <ele>612.9</ele>
        <time>2018-03-30T07:39:51Z</time>
      </trkpt>
      <trkpt lat="38.4881100" lon="-0.6535290">
        <ele>613.4</ele>
        <time>2018-03-30T07:39:52Z</time>
      </trkpt>
      <trkpt lat="38.4881340" lon="-0.6535470">
        <ele>613.6</ele>
        <time>2018-03-30T07:39:53Z</time>
      </trkpt>
      <trkpt lat="38.4881460" lon="-0.6535570">
        <ele>613.7</ele>
        <time>2018-03-30T07:39:54Z</time>
      </trkpt>
      <trkpt lat="38.4881780" lon="-0.6535530">
        <ele>613.8</ele>
        <time>2018-03-30T07:39:55Z</time>
      </trkpt>
      <trkpt lat="38.4882080" lon="-0.6535570">
        <ele>613.9</ele>
        <time>2018-03-30T07:39:56Z</time>
      </trkpt>
      <trkpt lat="38.4882400" lon="-0.6535540">
        <ele>614.0</ele>
        <time>2018-03-30T07:39:57Z</time>
      </trkpt>
      <trkpt lat="38.4882910" lon="-0.6535620">
        <ele>614.4</ele>
        <time>2018-03-30T07:39:58Z</time>
      </trkpt>
      <trkpt lat="38.4883370" lon="-0.6535710">
        <ele>614.5</ele>
        <time>2018-03-30T07:39:59Z</time>
      </trkpt>
      <trkpt lat="38.4883670" lon="-0.6535720">
        <ele>614.6</ele>
        <time>2018-03-30T07:40:00Z</time>
      </trkpt>
      <trkpt lat="38.4883970" lon="-0.6535680">
        <ele>614.7</ele>
        <time>2018-03-30T07:40:01Z</time>
      </trkpt>
      <trkpt lat="38.4884240" lon="-0.6535700">
        <ele>614.8</ele>
        <time>2018-03-30T07:40:02Z</time>
      </trkpt>
      <trkpt lat="38.4884480" lon="-0.6535730">
        <ele>614.9</ele>
        <time>2018-03-30T07:40:03Z</time>
      </trkpt>
      <trkpt lat="38.4884720" lon="-0.6535680">
        <ele>615.0</ele>
        <time>2018-03-30T07:40:04Z</time>
      </trkpt>
      <trkpt lat="38.4884920" lon="-0.6535700">
        <ele>615.1</ele>
        <time>2018-03-30T07:40:05Z</time>
      </trkpt>
      <trkpt lat="38.4885140" lon="-0.6535730">
        <ele>615.3</ele>
        <time>2018-03-30T07:40:06Z</time>
      </trkpt>
      <trkpt lat="38.4885360" lon="-0.6535790">
        <ele>615.5</ele>
        <time>2018-03-30T07:40:07Z</time>
      </trkpt>
      <trkpt lat="38.4885600" lon="-0.6535880">
        <ele>615.6</ele>
        <time>2018-03-30T07:40:08Z</time>
      </trkpt>
      <trkpt lat="38.4885800" lon="-0.6535970">
        <ele>615.8</ele>
        <time>2018-03-30T07:40:09Z</time>
      </trkpt>
      <trkpt lat="38.4885990" lon="-0.6536070">
        <ele>616.1</ele>
        <time>2018-03-30T07:40:10Z</time>
      </trkpt>
      <trkpt lat="38.4886010" lon="-0.6536310">
        <ele>616.3</ele>
        <time>2018-03-30T07:40:11Z</time>
      </trkpt>
      <trkpt lat="38.4886080" lon="-0.6536510">
        <ele>616.6</ele>
        <time>2018-03-30T07:40:12Z</time>
      </trkpt>
      <trkpt lat="38.4886200" lon="-0.6536710">
        <ele>616.7</ele>
        <time>2018-03-30T07:40:13Z</time>
      </trkpt>
      <trkpt lat="38.4886320" lon="-0.6536880">
        <ele>617.0</ele>
        <time>2018-03-30T07:40:14Z</time>
      </trkpt>
      <trkpt lat="38.4886420" lon="-0.6537170">
        <ele>617.2</ele>
        <time>2018-03-30T07:40:15Z</time>
      </trkpt>
      <trkpt lat="38.4886570" lon="-0.6537410">
        <ele>617.5</ele>
        <time>2018-03-30T07:40:16Z</time>
      </trkpt>
      <trkpt lat="38.4886720" lon="-0.6537650">
        <ele>617.6</ele>
        <time>2018-03-30T07:40:17Z</time>
      </trkpt>
      <trkpt lat="38.4886840" lon="-0.6537850">
        <ele>618.0</ele>
        <time>2018-03-30T07:40:18Z</time>
      </trkpt>
      <trkpt lat="38.4886880" lon="-0.6538080">
        <ele>618.1</ele>
        <time>2018-03-30T07:40:19Z</time>
      </trkpt>
      <trkpt lat="38.4886970" lon="-0.6538350">
        <ele>618.4</ele>
        <time>2018-03-30T07:40:20Z</time>
      </trkpt>
      <trkpt lat="38.4887060" lon="-0.6538580">
        <ele>618.5</ele>
        <time>2018-03-30T07:40:21Z</time>
      </trkpt>
      <trkpt lat="38.4887070" lon="-0.6538840">
        <ele>618.9</ele>
        <time>2018-03-30T07:40:22Z</time>
      </trkpt>
      <trkpt lat="38.4887040" lon="-0.6539080">
        <ele>619.3</ele>
        <time>2018-03-30T07:40:23Z</time>
      </trkpt>
      <trkpt lat="38.4887140" lon="-0.6539300">
        <ele>619.4</ele>
        <time>2018-03-30T07:40:24Z</time>
      </trkpt>
      <trkpt lat="38.4887200" lon="-0.6539550">
        <ele>619.8</ele>
        <time>2018-03-30T07:40:25Z</time>
      </trkpt>
      <trkpt lat="38.4887270" lon="-0.6539770">
        <ele>619.9</ele>
        <time>2018-03-30T07:40:26Z</time>
      </trkpt>
      <trkpt lat="38.4887360" lon="-0.6540030">
        <ele>620.3</ele>
        <time>2018-03-30T07:40:27Z</time>
      </trkpt>
      <trkpt lat="38.4887440" lon="-0.6540320">
        <ele>620.8</ele>
        <time>2018-03-30T07:40:28Z</time>
      </trkpt>
      <trkpt lat="38.4887570" lon="-0.6540530">
        <ele>620.9</ele>
        <time>2018-03-30T07:40:29Z</time>
      </trkpt>
      <trkpt lat="38.4887680" lon="-0.6540740">
        <ele>621.4</ele>
        <time>2018-03-30T07:40:30Z</time>
      </trkpt>
      <trkpt lat="38.4887760" lon="-0.6540910">
        <ele>621.5</ele>
        <time>2018-03-30T07:40:31Z</time>
      </trkpt>
      <trkpt lat="38.4887880" lon="-0.6541110">
        <ele>621.6</ele>
        <time>2018-03-30T07:40:32Z</time>
      </trkpt>
      <trkpt lat="38.4887940" lon="-0.6541310">
        <ele>622.2</ele>
        <time>2018-03-30T07:40:33Z</time>
      </trkpt>
      <trkpt lat="38.4888040" lon="-0.6541510">
        <ele>622.3</ele>
        <time>2018-03-30T07:40:34Z</time>
      </trkpt>
      <trkpt lat="38.4888150" lon="-0.6541680">
        <ele>622.9</ele>
        <time>2018-03-30T07:40:35Z</time>
      </trkpt>
      <trkpt lat="38.4888260" lon="-0.6541830">
        <ele>623.0</ele>
        <time>2018-03-30T07:40:36Z</time>
      </trkpt>
      <trkpt lat="38.4888420" lon="-0.6541910">
        <ele>623.1</ele>
        <time>2018-03-30T07:40:37Z</time>
      </trkpt>
      <trkpt lat="38.4888800" lon="-0.6541940">
        <ele>623.2</ele>
        <time>2018-03-30T07:40:38Z</time>
      </trkpt>
      <trkpt lat="38.4889020" lon="-0.6541960">
        <ele>623.3</ele>
        <time>2018-03-30T07:40:39Z</time>
      </trkpt>
      <trkpt lat="38.4889240" lon="-0.6541990">
        <ele>623.4</ele>
        <time>2018-03-30T07:40:40Z</time>
      </trkpt>
      <trkpt lat="38.4889500" lon="-0.6542000">
        <ele>623.4</ele>
        <time>2018-03-30T07:40:41Z</time>
      </trkpt>
      <trkpt lat="38.4889710" lon="-0.6542010">
        <ele>623.5</ele>
        <time>2018-03-30T07:40:42Z</time>
      </trkpt>
      <trkpt lat="38.4889910" lon="-0.6542000">
        <ele>623.6</ele>
        <time>2018-03-30T07:40:43Z</time>
      </trkpt>
      <trkpt lat="38.4890060" lon="-0.6541950">
        <ele>623.7</ele>
        <time>2018-03-30T07:40:44Z</time>
      </trkpt>
      <trkpt lat="38.4890160" lon="-0.6541930">
        <ele>623.8</ele>
        <time>2018-03-30T07:40:45Z</time>
      </trkpt>
      <trkpt lat="38.4890160" lon="-0.6542000">
        <ele>623.9</ele>
        <time>2018-03-30T07:40:46Z</time>
      </trkpt>
      <trkpt lat="38.4890250" lon="-0.6541960">
        <ele>624.0</ele>
        <time>2018-03-30T07:40:47Z</time>
      </trkpt>
      <trkpt lat="38.4890290" lon="-0.6541980">
        <ele>624.1</ele>
        <time>2018-03-30T07:40:48Z</time>
      </trkpt>
      <trkpt lat="38.4890360" lon="-0.6542000">
        <ele>624.1</ele>
        <time>2018-03-30T07:40:49Z</time>
      </trkpt>
      <trkpt lat="38.4890490" lon="-0.6542010">
        <ele>624.2</ele>
        <time>2018-03-30T07:40:50Z</time>
      </trkpt>
      <trkpt lat="38.4890580" lon="-0.6541990">
        <ele>624.3</ele>
        <time>2018-03-30T07:40:51Z</time>
      </trkpt>
      <trkpt lat="38.4890680" lon="-0.6542030">
        <ele>624.8</ele>
        <time>2018-03-30T07:40:52Z</time>
      </trkpt>
      <trkpt lat="38.4890800" lon="-0.6542070">
        <ele>624.9</ele>
        <time>2018-03-30T07:40:53Z</time>
      </trkpt>
      <trkpt lat="38.4890940" lon="-0.6542120">
        <ele>625.0</ele>
        <time>2018-03-30T07:40:54Z</time>
      </trkpt>
      <trkpt lat="38.4891050" lon="-0.6542180">
        <ele>625.0</ele>
        <time>2018-03-30T07:40:55Z</time>
      </trkpt>
      <trkpt lat="38.4891130" lon="-0.6542210">
        <ele>625.1</ele>
        <time>2018-03-30T07:40:56Z</time>
      </trkpt>
      <trkpt lat="38.4891240" lon="-0.6542260">
        <ele>625.2</ele>
        <time>2018-03-30T07:40:57Z</time>
      </trkpt>
      <trkpt lat="38.4891380" lon="-0.6542300">
        <ele>625.2</ele>
        <time>2018-03-30T07:40:58Z</time>
      </trkpt>
      <trkpt lat="38.4891520" lon="-0.6542360">
        <ele>625.3</ele>
        <time>2018-03-30T07:40:59Z</time>
      </trkpt>
      <trkpt lat="38.4891650" lon="-0.6542430">
        <ele>625.4</ele>
        <time>2018-03-30T07:41:00Z</time>
      </trkpt>
      <trkpt lat="38.4891720" lon="-0.6542530">
        <ele>625.8</ele>
        <time>2018-03-30T07:41:01Z</time>
      </trkpt>
      <trkpt lat="38.4891800" lon="-0.6542580">
        <ele>625.9</ele>
        <time>2018-03-30T07:41:02Z</time>
      </trkpt>
      <trkpt lat="38.4891870" lon="-0.6542610">
        <ele>626.0</ele>
        <time>2018-03-30T07:41:03Z</time>
      </trkpt>
      <trkpt lat="38.4891980" lon="-0.6542640">
        <ele>626.1</ele>
        <time>2018-03-30T07:41:04Z</time>
      </trkpt>
      <trkpt lat="38.4892070" lon="-0.6542680">
        <ele>626.2</ele>
        <time>2018-03-30T07:41:05Z</time>
      </trkpt>
      <trkpt lat="38.4892210" lon="-0.6542740">
        <ele>626.2</ele>
        <time>2018-03-30T07:41:06Z</time>
      </trkpt>
      <trkpt lat="38.4892320" lon="-0.6542810">
        <ele>626.3</ele>
        <time>2018-03-30T07:41:07Z</time>
      </trkpt>
      <trkpt lat="38.4892460" lon="-0.6542860">
        <ele>626.4</ele>
        <time>2018-03-30T07:41:08Z</time>
      </trkpt>
      <trkpt lat="38.4892540" lon="-0.6542910">
        <ele>626.8</ele>
        <time>2018-03-30T07:41:09Z</time>
      </trkpt>
      <trkpt lat="38.4892640" lon="-0.6542960">
        <ele>626.9</ele>
        <time>2018-03-30T07:41:10Z</time>
      </trkpt>
      <trkpt lat="38.4892750" lon="-0.6543030">
        <ele>627.0</ele>
        <time>2018-03-30T07:41:11Z</time>
      </trkpt>
      <trkpt lat="38.4892840" lon="-0.6543090">
        <ele>627.1</ele>
        <time>2018-03-30T07:41:12Z</time>
      </trkpt>
      <trkpt lat="38.4892840" lon="-0.6543090">
        <ele>627.2</ele>
        <time>2018-03-30T07:41:13Z</time>
      </trkpt>
      <trkpt lat="38.4892860" lon="-0.6543090">
        <ele>627.2</ele>
        <time>2018-03-30T07:41:14Z</time>
      </trkpt>
      <trkpt lat="38.4892870" lon="-0.6543090">
        <ele>627.3</ele>
        <time>2018-03-30T07:41:15Z</time>
      </trkpt>
      <trkpt lat="38.4892890" lon="-0.6543100">
        <ele>627.4</ele>
        <time>2018-03-30T07:41:16Z</time>
      </trkpt>
      <trkpt lat="38.4892980" lon="-0.6543170">
        <ele>627.5</ele>
        <time>2018-03-30T07:41:17Z</time>
      </trkpt>
      <trkpt lat="38.4893060" lon="-0.6543260">
        <ele>627.6</ele>
        <time>2018-03-30T07:41:18Z</time>
      </trkpt>
      <trkpt lat="38.4893180" lon="-0.6543380">
        <ele>628.0</ele>
        <time>2018-03-30T07:41:19Z</time>
      </trkpt>
      <trkpt lat="38.4893320" lon="-0.6543490">
        <ele>628.1</ele>
        <time>2018-03-30T07:41:20Z</time>
      </trkpt>
      <trkpt lat="38.4893450" lon="-0.6543620">
        <ele>628.2</ele>
        <time>2018-03-30T07:41:21Z</time>
      </trkpt>
      <trkpt lat="38.4893590" lon="-0.6543760">
        <ele>628.6</ele>
        <time>2018-03-30T07:41:22Z</time>
      </trkpt>
      <trkpt lat="38.4893730" lon="-0.6543890">
        <ele>628.7</ele>
        <time>2018-03-30T07:41:23Z</time>
      </trkpt>
      <trkpt lat="38.4893900" lon="-0.6543990">
        <ele>628.8</ele>
        <time>2018-03-30T07:41:24Z</time>
      </trkpt>
      <trkpt lat="38.4894180" lon="-0.6544080">
        <ele>628.8</ele>
        <time>2018-03-30T07:41:25Z</time>
      </trkpt>
      <trkpt lat="38.4894420" lon="-0.6544170">
        <ele>629.2</ele>
        <time>2018-03-30T07:41:26Z</time>
      </trkpt>
      <trkpt lat="38.4894640" lon="-0.6544280">
        <ele>629.3</ele>
        <time>2018-03-30T07:41:27Z</time>
      </trkpt>
      <trkpt lat="38.4894820" lon="-0.6544350">
        <ele>629.3</ele>
        <time>2018-03-30T07:41:28Z</time>
      </trkpt>
      <trkpt lat="38.4895010" lon="-0.6544440">
        <ele>629.4</ele>
        <time>2018-03-30T07:41:29Z</time>
      </trkpt>
      <trkpt lat="38.4895190" lon="-0.6544530">
        <ele>629.5</ele>
        <time>2018-03-30T07:41:30Z</time>
      </trkpt>
      <trkpt lat="38.4895350" lon="-0.6544610">
        <ele>629.9</ele>
        <time>2018-03-30T07:41:31Z</time>
      </trkpt>
      <trkpt lat="38.4895510" lon="-0.6544680">
        <ele>630.0</ele>
        <time>2018-03-30T07:41:32Z</time>
      </trkpt>
      <trkpt lat="38.4895670" lon="-0.6544740">
        <ele>630.1</ele>
        <time>2018-03-30T07:41:33Z</time>
      </trkpt>
      <trkpt lat="38.4895840" lon="-0.6544810">
        <ele>630.3</ele>
        <time>2018-03-30T07:41:34Z</time>
      </trkpt>
      <trkpt lat="38.4896070" lon="-0.6544900">
        <ele>630.4</ele>
        <time>2018-03-30T07:41:35Z</time>
      </trkpt>
      <trkpt lat="38.4896260" lon="-0.6544940">
        <ele>630.5</ele>
        <time>2018-03-30T07:41:36Z</time>
      </trkpt>
      <trkpt lat="38.4896410" lon="-0.6544930">
        <ele>630.7</ele>
        <time>2018-03-30T07:41:37Z</time>
      </trkpt>
      <trkpt lat="38.4896600" lon="-0.6544970">
        <ele>630.8</ele>
        <time>2018-03-30T07:41:38Z</time>
      </trkpt>
      <trkpt lat="38.4896760" lon="-0.6545010">
        <ele>631.0</ele>
        <time>2018-03-30T07:41:39Z</time>
      </trkpt>
      <trkpt lat="38.4896920" lon="-0.6545070">
        <ele>631.4</ele>
        <time>2018-03-30T07:41:40Z</time>
      </trkpt>
      <trkpt lat="38.4897070" lon="-0.6545130">
        <ele>631.5</ele>
        <time>2018-03-30T07:41:41Z</time>
      </trkpt>
      <trkpt lat="38.4897230" lon="-0.6545190">
        <ele>631.7</ele>
        <time>2018-03-30T07:41:42Z</time>
      </trkpt>
      <trkpt lat="38.4897390" lon="-0.6545250">
        <ele>631.8</ele>
        <time>2018-03-30T07:41:43Z</time>
      </trkpt>
      <trkpt lat="38.4897480" lon="-0.6545410">
        <ele>632.1</ele>
        <time>2018-03-30T07:41:44Z</time>
      </trkpt>
      <trkpt lat="38.4897580" lon="-0.6545570">
        <ele>632.5</ele>
        <time>2018-03-30T07:41:45Z</time>
      </trkpt>
      <trkpt lat="38.4897650" lon="-0.6545770">
        <ele>632.6</ele>
        <time>2018-03-30T07:41:46Z</time>
      </trkpt>
      <trkpt lat="38.4897650" lon="-0.6545970">
        <ele>633.0</ele>
        <time>2018-03-30T07:41:47Z</time>
      </trkpt>
      <trkpt lat="38.4897630" lon="-0.6546150">
        <ele>633.0</ele>
        <time>2018-03-30T07:41:48Z</time>
      </trkpt>
      <trkpt lat="38.4897590" lon="-0.6546330">
        <ele>633.5</ele>
        <time>2018-03-30T07:41:49Z</time>
      </trkpt>
      <trkpt lat="38.4897390" lon="-0.6546410">
        <ele>633.4</ele>
        <time>2018-03-30T07:41:50Z</time>
      </trkpt>
      <trkpt lat="38.4897240" lon="-0.6546450">
        <ele>633.5</ele>
        <time>2018-03-30T07:41:51Z</time>
      </trkpt>
      <trkpt lat="38.4897090" lon="-0.6546470">
        <ele>633.6</ele>
        <time>2018-03-30T07:41:52Z</time>
      </trkpt>
      <trkpt lat="38.4896930" lon="-0.6546510">
        <ele>633.6</ele>
        <time>2018-03-30T07:41:53Z</time>
      </trkpt>
      <trkpt lat="38.4896770" lon="-0.6546530">
        <ele>633.7</ele>
        <time>2018-03-30T07:41:54Z</time>
      </trkpt>
      <trkpt lat="38.4896590" lon="-0.6546530">
        <ele>633.7</ele>
        <time>2018-03-30T07:41:55Z</time>
      </trkpt>
      <trkpt lat="38.4896410" lon="-0.6546530">
        <ele>633.8</ele>
        <time>2018-03-30T07:41:56Z</time>
      </trkpt>
      <trkpt lat="38.4896240" lon="-0.6546510">
        <ele>633.8</ele>
        <time>2018-03-30T07:41:57Z</time>
      </trkpt>
      <trkpt lat="38.4896060" lon="-0.6546510">
        <ele>633.9</ele>
        <time>2018-03-30T07:41:58Z</time>
      </trkpt>
      <trkpt lat="38.4895900" lon="-0.6546480">
        <ele>634.0</ele>
        <time>2018-03-30T07:41:59Z</time>
      </trkpt>
      <trkpt lat="38.4895760" lon="-0.6546470">
        <ele>634.1</ele>
        <time>2018-03-30T07:42:00Z</time>
      </trkpt>
      <trkpt lat="38.4895610" lon="-0.6546440">
        <ele>634.2</ele>
        <time>2018-03-30T07:42:01Z</time>
      </trkpt>
      <trkpt lat="38.4895470" lon="-0.6546410">
        <ele>634.3</ele>
        <time>2018-03-30T07:42:02Z</time>
      </trkpt>
      <trkpt lat="38.4895330" lon="-0.6546400">
        <ele>634.4</ele>
        <time>2018-03-30T07:42:03Z</time>
      </trkpt>
      <trkpt lat="38.4895180" lon="-0.6546360">
        <ele>634.5</ele>
        <time>2018-03-30T07:42:04Z</time>
      </trkpt>
      <trkpt lat="38.4895030" lon="-0.6546300">
        <ele>634.2</ele>
        <time>2018-03-30T07:42:05Z</time>
      </trkpt>
      <trkpt lat="38.4894880" lon="-0.6546230">
        <ele>634.3</ele>
        <time>2018-03-30T07:42:06Z</time>
      </trkpt>
      <trkpt lat="38.4894760" lon="-0.6546160">
        <ele>634.4</ele>
        <time>2018-03-30T07:42:07Z</time>
      </trkpt>
      <trkpt lat="38.4894640" lon="-0.6546110">
        <ele>634.6</ele>
        <time>2018-03-30T07:42:08Z</time>
      </trkpt>
      <trkpt lat="38.4894480" lon="-0.6546110">
        <ele>634.7</ele>
        <time>2018-03-30T07:42:09Z</time>
      </trkpt>
      <trkpt lat="38.4894310" lon="-0.6546140">
        <ele>634.9</ele>
        <time>2018-03-30T07:42:10Z</time>
      </trkpt>
      <trkpt lat="38.4894140" lon="-0.6546190">
        <ele>635.0</ele>
        <time>2018-03-30T07:42:11Z</time>
      </trkpt>
      <trkpt lat="38.4893980" lon="-0.6546270">
        <ele>635.2</ele>
        <time>2018-03-30T07:42:12Z</time>
      </trkpt>
      <trkpt lat="38.4893870" lon="-0.6546410">
        <ele>635.7</ele>
        <time>2018-03-30T07:42:13Z</time>
      </trkpt>
      <trkpt lat="38.4893740" lon="-0.6546580">
        <ele>635.8</ele>
        <time>2018-03-30T07:42:14Z</time>
      </trkpt>
      <trkpt lat="38.4893660" lon="-0.6546760">
        <ele>636.5</ele>
        <time>2018-03-30T07:42:15Z</time>
      </trkpt>
      <trkpt lat="38.4893640" lon="-0.6546940">
        <ele>636.6</ele>
        <time>2018-03-30T07:42:16Z</time>
      </trkpt>
      <trkpt lat="38.4893630" lon="-0.6547170">
        <ele>637.2</ele>
        <time>2018-03-30T07:42:17Z</time>
      </trkpt>
      <trkpt lat="38.4893730" lon="-0.6547370">
        <ele>637.1</ele>
        <time>2018-03-30T07:42:18Z</time>
      </trkpt>
      <trkpt lat="38.4893790" lon="-0.6547550">
        <ele>637.2</ele>
        <time>2018-03-30T07:42:19Z</time>
      </trkpt>
      <trkpt lat="38.4893870" lon="-0.6547670">
        <ele>637.8</ele>
        <time>2018-03-30T07:42:20Z</time>
      </trkpt>
      <trkpt lat="38.4893930" lon="-0.6547800">
        <ele>637.9</ele>
        <time>2018-03-30T07:42:21Z</time>
      </trkpt>
      <trkpt lat="38.4894120" lon="-0.6547900">
        <ele>637.8</ele>
        <time>2018-03-30T07:42:22Z</time>
      </trkpt>
      <trkpt lat="38.4894320" lon="-0.6547980">
        <ele>637.9</ele>
        <time>2018-03-30T07:42:23Z</time>
      </trkpt>
      <trkpt lat="38.4894500" lon="-0.6548040">
        <ele>638.3</ele>
        <time>2018-03-30T07:42:24Z</time>
      </trkpt>
      <trkpt lat="38.4894660" lon="-0.6548070">
        <ele>638.4</ele>
        <time>2018-03-30T07:42:25Z</time>
      </trkpt>
      <trkpt lat="38.4894820" lon="-0.6548070">
        <ele>638.4</ele>
        <time>2018-03-30T07:42:26Z</time>
      </trkpt>
      <trkpt lat="38.4894990" lon="-0.6548070">
        <ele>638.5</ele>
        <time>2018-03-30T07:42:27Z</time>
      </trkpt>
      <trkpt lat="38.4895170" lon="-0.6548080">
        <ele>638.5</ele>
        <time>2018-03-30T07:42:28Z</time>
      </trkpt>
      <trkpt lat="38.4895360" lon="-0.6548110">
        <ele>638.6</ele>
        <time>2018-03-30T07:42:29Z</time>
      </trkpt>
      <trkpt lat="38.4895530" lon="-0.6548190">
        <ele>638.7</ele>
        <time>2018-03-30T07:42:30Z</time>
      </trkpt>
      <trkpt lat="38.4895700" lon="-0.6548260">
        <ele>638.8</ele>
        <time>2018-03-30T07:42:31Z</time>
      </trkpt>
      <trkpt lat="38.4895870" lon="-0.6548350">
        <ele>638.9</ele>
        <time>2018-03-30T07:42:32Z</time>
      </trkpt>
      <trkpt lat="38.4896020" lon="-0.6548460">
        <ele>639.4</ele>
        <time>2018-03-30T07:42:33Z</time>
      </trkpt>
      <trkpt lat="38.4896170" lon="-0.6548590">
        <ele>639.4</ele>
        <time>2018-03-30T07:42:34Z</time>
      </trkpt>
      <trkpt lat="38.4896280" lon="-0.6548760">
        <ele>639.5</ele>
        <time>2018-03-30T07:42:35Z</time>
      </trkpt>
      <trkpt lat="38.4896410" lon="-0.6548920">
        <ele>640.0</ele>
        <time>2018-03-30T07:42:36Z</time>
      </trkpt>
      <trkpt lat="38.4896530" lon="-0.6549070">
        <ele>640.0</ele>
        <time>2018-03-30T07:42:37Z</time>
      </trkpt>
      <trkpt lat="38.4896650" lon="-0.6549200">
        <ele>640.1</ele>
        <time>2018-03-30T07:42:38Z</time>
      </trkpt>
      <trkpt lat="38.4896750" lon="-0.6549320">
        <ele>640.5</ele>
        <time>2018-03-30T07:42:39Z</time>
      </trkpt>
      <trkpt lat="38.4896870" lon="-0.6549470">
        <ele>640.6</ele>
        <time>2018-03-30T07:42:40Z</time>
      </trkpt>
      <trkpt lat="38.4897000" lon="-0.6549600">
        <ele>640.7</ele>
        <time>2018-03-30T07:42:41Z</time>
      </trkpt>
      <trkpt lat="38.4897140" lon="-0.6549690">
        <ele>640.8</ele>
        <time>2018-03-30T07:42:42Z</time>
      </trkpt>
      <trkpt lat="38.4897280" lon="-0.6549800">
        <ele>641.2</ele>
        <time>2018-03-30T07:42:43Z</time>
      </trkpt>
      <trkpt lat="38.4897410" lon="-0.6549920">
        <ele>641.3</ele>
        <time>2018-03-30T07:42:44Z</time>
      </trkpt>
      <trkpt lat="38.4897530" lon="-0.6550070">
        <ele>641.4</ele>
        <time>2018-03-30T07:42:45Z</time>
      </trkpt>
      <trkpt lat="38.4897660" lon="-0.6550280">
        <ele>641.7</ele>
        <time>2018-03-30T07:42:46Z</time>
      </trkpt>
      <trkpt lat="38.4897790" lon="-0.6550470">
        <ele>641.8</ele>
        <time>2018-03-30T07:42:47Z</time>
      </trkpt>
      <trkpt lat="38.4897910" lon="-0.6550590">
        <ele>641.9</ele>
        <time>2018-03-30T07:42:48Z</time>
      </trkpt>
      <trkpt lat="38.4898010" lon="-0.6550730">
        <ele>642.3</ele>
        <time>2018-03-30T07:42:49Z</time>
      </trkpt>
      <trkpt lat="38.4898160" lon="-0.6550880">
        <ele>642.4</ele>
        <time>2018-03-30T07:42:50Z</time>
      </trkpt>
      <trkpt lat="38.4898290" lon="-0.6551030">
        <ele>642.7</ele>
        <time>2018-03-30T07:42:51Z</time>
      </trkpt>
      <trkpt lat="38.4898390" lon="-0.6551170">
        <ele>642.8</ele>
        <time>2018-03-30T07:42:52Z</time>
      </trkpt>
      <trkpt lat="38.4898480" lon="-0.6551360">
        <ele>643.0</ele>
        <time>2018-03-30T07:42:53Z</time>
      </trkpt>
      <trkpt lat="38.4898560" lon="-0.6551570">
        <ele>643.3</ele>
        <time>2018-03-30T07:42:54Z</time>
      </trkpt>
      <trkpt lat="38.4898510" lon="-0.6551550">
        <ele>643.4</ele>
        <time>2018-03-30T07:42:55Z</time>
      </trkpt>
      <trkpt lat="38.4898530" lon="-0.6551530">
        <ele>643.5</ele>
        <time>2018-03-30T07:42:56Z</time>
      </trkpt>
      <trkpt lat="38.4898630" lon="-0.6551610">
        <ele>643.6</ele>
        <time>2018-03-30T07:42:57Z</time>
      </trkpt>
      <trkpt lat="38.4898700" lon="-0.6551700">
        <ele>643.7</ele>
        <time>2018-03-30T07:42:58Z</time>
      </trkpt>
      <trkpt lat="38.4898780" lon="-0.6551800">
        <ele>643.8</ele>
        <time>2018-03-30T07:42:59Z</time>
      </trkpt>
      <trkpt lat="38.4898850" lon="-0.6551880">
        <ele>643.9</ele>
        <time>2018-03-30T07:43:00Z</time>
      </trkpt>
      <trkpt lat="38.4898910" lon="-0.6551960">
        <ele>644.2</ele>
        <time>2018-03-30T07:43:01Z</time>
      </trkpt>
      <trkpt lat="38.4898960" lon="-0.6552060">
        <ele>644.3</ele>
        <time>2018-03-30T07:43:02Z</time>
      </trkpt>
      <trkpt lat="38.4898990" lon="-0.6552180">
        <ele>644.4</ele>
        <time>2018-03-30T07:43:03Z</time>
      </trkpt>
      <trkpt lat="38.4899010" lon="-0.6552300">
        <ele>644.5</ele>
        <time>2018-03-30T07:43:04Z</time>
      </trkpt>
      <trkpt lat="38.4899040" lon="-0.6552440">
        <ele>644.8</ele>
        <time>2018-03-30T07:43:05Z</time>
      </trkpt>
      <trkpt lat="38.4899080" lon="-0.6552550">
        <ele>644.9</ele>
        <time>2018-03-30T07:43:06Z</time>
      </trkpt>
      <trkpt lat="38.4899110" lon="-0.6552650">
        <ele>645.0</ele>
        <time>2018-03-30T07:43:07Z</time>
      </trkpt>
      <trkpt lat="38.4899140" lon="-0.6552720">
        <ele>645.1</ele>
        <time>2018-03-30T07:43:08Z</time>
      </trkpt>
      <trkpt lat="38.4899180" lon="-0.6552790">
        <ele>645.4</ele>
        <time>2018-03-30T07:43:09Z</time>
      </trkpt>
      <trkpt lat="38.4899230" lon="-0.6552870">
        <ele>645.5</ele>
        <time>2018-03-30T07:43:10Z</time>
      </trkpt>
      <trkpt lat="38.4899270" lon="-0.6552920">
        <ele>645.6</ele>
        <time>2018-03-30T07:43:11Z</time>
      </trkpt>
      <trkpt lat="38.4899300" lon="-0.6552960">
        <ele>645.7</ele>
        <time>2018-03-30T07:43:12Z</time>
      </trkpt>
      <trkpt lat="38.4899350" lon="-0.6553030">
        <ele>645.7</ele>
        <time>2018-03-30T07:43:13Z</time>
      </trkpt>
      <trkpt lat="38.4899390" lon="-0.6553070">
        <ele>645.8</ele>
        <time>2018-03-30T07:43:14Z</time>
      </trkpt>
      <trkpt lat="38.4899410" lon="-0.6553100">
        <ele>645.9</ele>
        <time>2018-03-30T07:43:15Z</time>
      </trkpt>
      <trkpt lat="38.4899420" lon="-0.6553100">
        <ele>646.0</ele>
        <time>2018-03-30T07:43:16Z</time>
      </trkpt>
      <trkpt lat="38.4899420" lon="-0.6553110">
        <ele>646.1</ele>
        <time>2018-03-30T07:43:17Z</time>
      </trkpt>
      <trkpt lat="38.4899450" lon="-0.6553130">
        <ele>646.3</ele>
        <time>2018-03-30T07:43:18Z</time>
      </trkpt>
      <trkpt lat="38.4899470" lon="-0.6553180">
        <ele>646.5</ele>
        <time>2018-03-30T07:43:19Z</time>
      </trkpt>
      <trkpt lat="38.4899500" lon="-0.6553240">
        <ele>646.6</ele>
        <time>2018-03-30T07:43:20Z</time>
      </trkpt>
      <trkpt lat="38.4899540" lon="-0.6553290">
        <ele>646.7</ele>
        <time>2018-03-30T07:43:21Z</time>
      </trkpt>
      <trkpt lat="38.4899570" lon="-0.6553340">
        <ele>646.8</ele>
        <time>2018-03-30T07:43:22Z</time>
      </trkpt>
      <trkpt lat="38.4899590" lon="-0.6553350">
        <ele>646.8</ele>
        <time>2018-03-30T07:43:23Z</time>
      </trkpt>
      <trkpt lat="38.4899620" lon="-0.6553380">
        <ele>646.9</ele>
        <time>2018-03-30T07:43:24Z</time>
      </trkpt>
      <trkpt lat="38.4899700" lon="-0.6553440">
        <ele>647.0</ele>
        <time>2018-03-30T07:43:25Z</time>
      </trkpt>
      <trkpt lat="38.4899750" lon="-0.6553470">
        <ele>647.1</ele>
        <time>2018-03-30T07:43:26Z</time>
      </trkpt>
      <trkpt lat="38.4899800" lon="-0.6553510">
        <ele>647.3</ele>
        <time>2018-03-30T07:43:27Z</time>
      </trkpt>
      <trkpt lat="38.4899870" lon="-0.6553570">
        <ele>647.4</ele>
        <time>2018-03-30T07:43:28Z</time>
      </trkpt>
      <trkpt lat="38.4899970" lon="-0.6553650">
        <ele>647.5</ele>
        <time>2018-03-30T07:43:29Z</time>
      </trkpt>
      <trkpt lat="38.4900080" lon="-0.6553750">
        <ele>647.6</ele>
        <time>2018-03-30T07:43:30Z</time>
      </trkpt>
      <trkpt lat="38.4900240" lon="-0.6553820">
        <ele>647.8</ele>
        <time>2018-03-30T07:43:31Z</time>
      </trkpt>
      <trkpt lat="38.4900350" lon="-0.6553930">
        <ele>647.9</ele>
        <time>2018-03-30T07:43:32Z</time>
      </trkpt>
      <trkpt lat="38.4900500" lon="-0.6554010">
        <ele>648.1</ele>
        <time>2018-03-30T07:43:33Z</time>
      </trkpt>
      <trkpt lat="38.4900610" lon="-0.6554030">
        <ele>648.1</ele>
        <time>2018-03-30T07:43:34Z</time>
      </trkpt>
      <trkpt lat="38.4900660" lon="-0.6554060">
        <ele>648.3</ele>
        <time>2018-03-30T07:43:35Z</time>
      </trkpt>
      <trkpt lat="38.4900700" lon="-0.6554090">
        <ele>648.4</ele>
        <time>2018-03-30T07:43:36Z</time>
      </trkpt>
      <trkpt lat="38.4900760" lon="-0.6554110">
        <ele>648.5</ele>
        <time>2018-03-30T07:43:37Z</time>
      </trkpt>
      <trkpt lat="38.4900790" lon="-0.6554150">
        <ele>648.7</ele>
        <time>2018-03-30T07:43:38Z</time>
      </trkpt>
      <trkpt lat="38.4900840" lon="-0.6554170">
        <ele>648.8</ele>
        <time>2018-03-30T07:43:39Z</time>
      </trkpt>
      <trkpt lat="38.4900880" lon="-0.6554180">
        <ele>648.9</ele>
        <time>2018-03-30T07:43:40Z</time>
      </trkpt>
      <trkpt lat="38.4900910" lon="-0.6554180">
        <ele>649.0</ele>
        <time>2018-03-30T07:43:41Z</time>
      </trkpt>
      <trkpt lat="38.4900940" lon="-0.6554170">
        <ele>649.1</ele>
        <time>2018-03-30T07:43:42Z</time>
      </trkpt>
      <trkpt lat="38.4901010" lon="-0.6554200">
        <ele>649.2</ele>
        <time>2018-03-30T07:43:43Z</time>
      </trkpt>
      <trkpt lat="38.4901110" lon="-0.6554240">
        <ele>649.4</ele>
        <time>2018-03-30T07:43:44Z</time>
      </trkpt>
      <trkpt lat="38.4901210" lon="-0.6554290">
        <ele>649.5</ele>
        <time>2018-03-30T07:43:45Z</time>
      </trkpt>
      <trkpt lat="38.4901280" lon="-0.6554330">
        <ele>649.6</ele>
        <time>2018-03-30T07:43:46Z</time>
      </trkpt>
      <trkpt lat="38.4901370" lon="-0.6554380">
        <ele>649.7</ele>
        <time>2018-03-30T07:43:47Z</time>
      </trkpt>
      <trkpt lat="38.4901450" lon="-0.6554420">
        <ele>649.9</ele>
        <time>2018-03-30T07:43:48Z</time>
      </trkpt>
      <trkpt lat="38.4901480" lon="-0.6554470">
        <ele>650.2</ele>
        <time>2018-03-30T07:43:49Z</time>
      </trkpt>
      <trkpt lat="38.4901490" lon="-0.6554460">
        <ele>650.1</ele>
        <time>2018-03-30T07:43:50Z</time>
      </trkpt>
      <trkpt lat="38.4901500" lon="-0.6554450">
        <ele>650.2</ele>
        <time>2018-03-30T07:43:51Z</time>
      </trkpt>
      <trkpt lat="38.4901500" lon="-0.6554450">
        <ele>650.3</ele>
        <time>2018-03-30T07:43:52Z</time>
      </trkpt>
      <trkpt lat="38.4901560" lon="-0.6554450">
        <ele>650.4</ele>
        <time>2018-03-30T07:43:53Z</time>
      </trkpt>
      <trkpt lat="38.4901610" lon="-0.6554490">
        <ele>650.7</ele>
        <time>2018-03-30T07:43:54Z</time>
      </trkpt>
      <trkpt lat="38.4901630" lon="-0.6554500">
        <ele>650.8</ele>
        <time>2018-03-30T07:43:55Z</time>
      </trkpt>
      <trkpt lat="38.4901650" lon="-0.6554500">
        <ele>650.9</ele>
        <time>2018-03-30T07:43:56Z</time>
      </trkpt>
      <trkpt lat="38.4901700" lon="-0.6554550">
        <ele>651.0</ele>
        <time>2018-03-30T07:43:57Z</time>
      </trkpt>
      <trkpt lat="38.4901740" lon="-0.6554610">
        <ele>651.1</ele>
        <time>2018-03-30T07:43:58Z</time>
      </trkpt>
      <trkpt lat="38.4901810" lon="-0.6554640">
        <ele>651.4</ele>
        <time>2018-03-30T07:43:59Z</time>
      </trkpt>
      <trkpt lat="38.4901890" lon="-0.6554700">
        <ele>651.4</ele>
        <time>2018-03-30T07:44:00Z</time>
      </trkpt>
      <trkpt lat="38.4901950" lon="-0.6554750">
        <ele>651.5</ele>
        <time>2018-03-30T07:44:01Z</time>
      </trkpt>
      <trkpt lat="38.4901990" lon="-0.6554770">
        <ele>651.6</ele>
        <time>2018-03-30T07:44:02Z</time>
      </trkpt>
      <trkpt lat="38.4902050" lon="-0.6554770">
        <ele>651.7</ele>
        <time>2018-03-30T07:44:03Z</time>
      </trkpt>
      <trkpt lat="38.4902120" lon="-0.6554810">
        <ele>652.1</ele>
        <time>2018-03-30T07:44:04Z</time>
      </trkpt>
      <trkpt lat="38.4902200" lon="-0.6554880">
        <ele>652.2</ele>
        <time>2018-03-30T07:44:05Z</time>
      </trkpt>
      <trkpt lat="38.4902270" lon="-0.6554930">
        <ele>652.5</ele>
        <time>2018-03-30T07:44:06Z</time>
      </trkpt>
      <trkpt lat="38.4902330" lon="-0.6555010">
        <ele>652.7</ele>
        <time>2018-03-30T07:44:07Z</time>
      </trkpt>
      <trkpt lat="38.4902390" lon="-0.6555070">
        <ele>652.8</ele>
        <time>2018-03-30T07:44:08Z</time>
      </trkpt>
      <trkpt lat="38.4902480" lon="-0.6555140">
        <ele>653.2</ele>
        <time>2018-03-30T07:44:09Z</time>
      </trkpt>
      <trkpt lat="38.4902580" lon="-0.6555230">
        <ele>653.3</ele>
        <time>2018-03-30T07:44:10Z</time>
      </trkpt>
      <trkpt lat="38.4902640" lon="-0.6555340">
        <ele>653.8</ele>
        <time>2018-03-30T07:44:11Z</time>
      </trkpt>
      <trkpt lat="38.4902710" lon="-0.6555430">
        <ele>653.9</ele>
        <time>2018-03-30T07:44:12Z</time>
      </trkpt>
      <trkpt lat="38.4902780" lon="-0.6555510">
        <ele>653.9</ele>
        <time>2018-03-30T07:44:13Z</time>
      </trkpt>
      <trkpt lat="38.4902850" lon="-0.6555600">
        <ele>654.4</ele>
        <time>2018-03-30T07:44:14Z</time>
      </trkpt>
      <trkpt lat="38.4902910" lon="-0.6555700">
        <ele>654.5</ele>
        <time>2018-03-30T07:44:15Z</time>
      </trkpt>
      <trkpt lat="38.4902980" lon="-0.6555770">
        <ele>655.0</ele>
        <time>2018-03-30T07:44:16Z</time>
      </trkpt>
      <trkpt lat="38.4903050" lon="-0.6555850">
        <ele>655.0</ele>
        <time>2018-03-30T07:44:17Z</time>
      </trkpt>
      <trkpt lat="38.4903080" lon="-0.6555930">
        <ele>655.1</ele>
        <time>2018-03-30T07:44:18Z</time>
      </trkpt>
      <trkpt lat="38.4903120" lon="-0.6556030">
        <ele>655.2</ele>
        <time>2018-03-30T07:44:19Z</time>
      </trkpt>
      <trkpt lat="38.4903160" lon="-0.6556140">
        <ele>655.7</ele>
        <time>2018-03-30T07:44:20Z</time>
      </trkpt>
      <trkpt lat="38.4903190" lon="-0.6556240">
        <ele>656.2</ele>
        <time>2018-03-30T07:44:21Z</time>
      </trkpt>
      <trkpt lat="38.4903210" lon="-0.6556380">
        <ele>656.2</ele>
        <time>2018-03-30T07:44:22Z</time>
      </trkpt>
      <trkpt lat="38.4903190" lon="-0.6556520">
        <ele>656.3</ele>
        <time>2018-03-30T07:44:23Z</time>
      </trkpt>
      <trkpt lat="38.4903210" lon="-0.6556570">
        <ele>656.3</ele>
        <time>2018-03-30T07:44:24Z</time>
      </trkpt>
      <trkpt lat="38.4903240" lon="-0.6556580">
        <ele>656.4</ele>
        <time>2018-03-30T07:44:25Z</time>
      </trkpt>
      <trkpt lat="38.4903220" lon="-0.6556610">
        <ele>656.4</ele>
        <time>2018-03-30T07:44:26Z</time>
      </trkpt>
      <trkpt lat="38.4903180" lon="-0.6556780">
        <ele>656.3</ele>
        <time>2018-03-30T07:44:27Z</time>
      </trkpt>
      <trkpt lat="38.4903100" lon="-0.6556830">
        <ele>656.2</ele>
        <time>2018-03-30T07:44:28Z</time>
      </trkpt>
      <trkpt lat="38.4903000" lon="-0.6556890">
        <ele>656.1</ele>
        <time>2018-03-30T07:44:29Z</time>
      </trkpt>
      <trkpt lat="38.4902900" lon="-0.6556980">
        <ele>656.0</ele>
        <time>2018-03-30T07:44:30Z</time>
      </trkpt>
      <trkpt lat="38.4902730" lon="-0.6557070">
        <ele>655.9</ele>
        <time>2018-03-30T07:44:31Z</time>
      </trkpt>
      <trkpt lat="38.4902530" lon="-0.6557160">
        <ele>655.8</ele>
        <time>2018-03-30T07:44:32Z</time>
      </trkpt>
      <trkpt lat="38.4902360" lon="-0.6557260">
        <ele>655.7</ele>
        <time>2018-03-30T07:44:33Z</time>
      </trkpt>
      <trkpt lat="38.4902150" lon="-0.6557360">
        <ele>655.6</ele>
        <time>2018-03-30T07:44:34Z</time>
      </trkpt>
      <trkpt lat="38.4901940" lon="-0.6557470">
        <ele>655.5</ele>
        <time>2018-03-30T07:44:35Z</time>
      </trkpt>
      <trkpt lat="38.4901710" lon="-0.6557570">
        <ele>655.4</ele>
        <time>2018-03-30T07:44:36Z</time>
      </trkpt>
      <trkpt lat="38.4901470" lon="-0.6557650">
        <ele>655.2</ele>
        <time>2018-03-30T07:44:37Z</time>
      </trkpt>
      <trkpt lat="38.4901280" lon="-0.6557750">
        <ele>655.1</ele>
        <time>2018-03-30T07:44:38Z</time>
      </trkpt>
      <trkpt lat="38.4901110" lon="-0.6557850">
        <ele>655.1</ele>
        <time>2018-03-30T07:44:39Z</time>
      </trkpt>
      <trkpt lat="38.4900940" lon="-0.6557870">
        <ele>655.0</ele>
        <time>2018-03-30T07:44:40Z</time>
      </trkpt>
      <trkpt lat="38.4900740" lon="-0.6557880">
        <ele>654.9</ele>
        <time>2018-03-30T07:44:41Z</time>
      </trkpt>
      <trkpt lat="38.4900570" lon="-0.6557960">
        <ele>654.8</ele>
        <time>2018-03-30T07:44:42Z</time>
      </trkpt>
      <trkpt lat="38.4900530" lon="-0.6558100">
        <ele>654.7</ele>
        <time>2018-03-30T07:44:43Z</time>
      </trkpt>
      <trkpt lat="38.4900640" lon="-0.6558260">
        <ele>654.6</ele>
        <time>2018-03-30T07:44:44Z</time>
      </trkpt>
      <trkpt lat="38.4900820" lon="-0.6558330">
        <ele>654.7</ele>
        <time>2018-03-30T07:44:45Z</time>
      </trkpt>
      <trkpt lat="38.4900970" lon="-0.6558390">
        <ele>654.8</ele>
        <time>2018-03-30T07:44:46Z</time>
      </trkpt>
      <trkpt lat="38.4901150" lon="-0.6558360">
        <ele>654.9</ele>
        <time>2018-03-30T07:44:47Z</time>
      </trkpt>
      <trkpt lat="38.4901350" lon="-0.6558350">
        <ele>655.0</ele>
        <time>2018-03-30T07:44:48Z</time>
      </trkpt>
      <trkpt lat="38.4901530" lon="-0.6558320">
        <ele>655.1</ele>
        <time>2018-03-30T07:44:49Z</time>
      </trkpt>
      <trkpt lat="38.4901710" lon="-0.6558260">
        <ele>655.2</ele>
        <time>2018-03-30T07:44:50Z</time>
      </trkpt>
      <trkpt lat="38.4901920" lon="-0.6558210">
        <ele>655.3</ele>
        <time>2018-03-30T07:44:51Z</time>
      </trkpt>
      <trkpt lat="38.4902120" lon="-0.6558160">
        <ele>655.5</ele>
        <time>2018-03-30T07:44:52Z</time>
      </trkpt>
      <trkpt lat="38.4902350" lon="-0.6558090">
        <ele>655.6</ele>
        <time>2018-03-30T07:44:53Z</time>
      </trkpt>
      <trkpt lat="38.4902570" lon="-0.6558020">
        <ele>655.7</ele>
        <time>2018-03-30T07:44:54Z</time>
      </trkpt>
      <trkpt lat="38.4902800" lon="-0.6557960">
        <ele>655.8</ele>
        <time>2018-03-30T07:44:55Z</time>
      </trkpt>
      <trkpt lat="38.4903030" lon="-0.6557890">
        <ele>656.0</ele>
        <time>2018-03-30T07:44:56Z</time>
      </trkpt>
      <trkpt lat="38.4903250" lon="-0.6557820">
        <ele>656.2</ele>
        <time>2018-03-30T07:44:57Z</time>
      </trkpt>
      <trkpt lat="38.4903450" lon="-0.6557760">
        <ele>656.4</ele>
        <time>2018-03-30T07:44:58Z</time>
      </trkpt>
      <trkpt lat="38.4903660" lon="-0.6557720">
        <ele>656.6</ele>
        <time>2018-03-30T07:44:59Z</time>
      </trkpt>
      <trkpt lat="38.4903880" lon="-0.6557650">
        <ele>656.8</ele>
        <time>2018-03-30T07:45:00Z</time>
      </trkpt>
      <trkpt lat="38.4904110" lon="-0.6557540">
        <ele>657.0</ele>
        <time>2018-03-30T07:45:01Z</time>
      </trkpt>
      <trkpt lat="38.4904340" lon="-0.6557450">
        <ele>657.2</ele>
        <time>2018-03-30T07:45:02Z</time>
      </trkpt>
      <trkpt lat="38.4904550" lon="-0.6557340">
        <ele>657.4</ele>
        <time>2018-03-30T07:45:03Z</time>
      </trkpt>
      <trkpt lat="38.4904750" lon="-0.6557210">
        <ele>657.5</ele>
        <time>2018-03-30T07:45:04Z</time>
      </trkpt>
      <trkpt lat="38.4904960" lon="-0.6557060">
        <ele>657.7</ele>
        <time>2018-03-30T07:45:05Z</time>
      </trkpt>
      <trkpt lat="38.4905160" lon="-0.6556950">
        <ele>657.9</ele>
        <time>2018-03-30T07:45:06Z</time>
      </trkpt>
      <trkpt lat="38.4905350" lon="-0.6556860">
        <ele>658.1</ele>
        <time>2018-03-30T07:45:07Z</time>
      </trkpt>
      <trkpt lat="38.4905540" lon="-0.6556760">
        <ele>658.3</ele>
        <time>2018-03-30T07:45:08Z</time>
      </trkpt>
      <trkpt lat="38.4905750" lon="-0.6556670">
        <ele>658.6</ele>
        <time>2018-03-30T07:45:09Z</time>
      </trkpt>
      <trkpt lat="38.4905940" lon="-0.6556600">
        <ele>658.9</ele>
        <time>2018-03-30T07:45:10Z</time>
      </trkpt>
      <trkpt lat="38.4906150" lon="-0.6556590">
        <ele>659.1</ele>
        <time>2018-03-30T07:45:11Z</time>
      </trkpt>
      <trkpt lat="38.4906350" lon="-0.6556550">
        <ele>659.3</ele>
        <time>2018-03-30T07:45:12Z</time>
      </trkpt>
      <trkpt lat="38.4906560" lon="-0.6556510">
        <ele>659.5</ele>
        <time>2018-03-30T07:45:13Z</time>
      </trkpt>
      <trkpt lat="38.4906760" lon="-0.6556470">
        <ele>659.7</ele>
        <time>2018-03-30T07:45:14Z</time>
      </trkpt>
      <trkpt lat="38.4906930" lon="-0.6556400">
        <ele>659.9</ele>
        <time>2018-03-30T07:45:15Z</time>
      </trkpt>
      <trkpt lat="38.4907110" lon="-0.6556310">
        <ele>660.2</ele>
        <time>2018-03-30T07:45:16Z</time>
      </trkpt>
      <trkpt lat="38.4907280" lon="-0.6556210">
        <ele>660.6</ele>
        <time>2018-03-30T07:45:17Z</time>
      </trkpt>
      <trkpt lat="38.4907420" lon="-0.6556110">
        <ele>660.9</ele>
        <time>2018-03-30T07:45:18Z</time>
      </trkpt>
      <trkpt lat="38.4907550" lon="-0.6556020">
        <ele>661.1</ele>
        <time>2018-03-30T07:45:19Z</time>
      </trkpt>
      <trkpt lat="38.4907680" lon="-0.6555940">
        <ele>661.3</ele>
        <time>2018-03-30T07:45:20Z</time>
      </trkpt>
      <trkpt lat="38.4907810" lon="-0.6555840">
        <ele>661.5</ele>
        <time>2018-03-30T07:45:21Z</time>
      </trkpt>
      <trkpt lat="38.4907890" lon="-0.6555680">
        <ele>661.7</ele>
        <time>2018-03-30T07:45:22Z</time>
      </trkpt>
      <trkpt lat="38.4907980" lon="-0.6555540">
        <ele>661.9</ele>
        <time>2018-03-30T07:45:23Z</time>
      </trkpt>
      <trkpt lat="38.4908100" lon="-0.6555390">
        <ele>662.2</ele>
        <time>2018-03-30T07:45:24Z</time>
      </trkpt>
      <trkpt lat="38.4908200" lon="-0.6555280">
        <ele>662.6</ele>
        <time>2018-03-30T07:45:25Z</time>
      </trkpt>
      <trkpt lat="38.4908310" lon="-0.6555220">
        <ele>662.9</ele>
        <time>2018-03-30T07:45:26Z</time>
      </trkpt>
      <trkpt lat="38.4908430" lon="-0.6555130">
        <ele>663.1</ele>
        <time>2018-03-30T07:45:27Z</time>
      </trkpt>
      <trkpt lat="38.4908580" lon="-0.6555070">
        <ele>663.4</ele>
        <time>2018-03-30T07:45:28Z</time>
      </trkpt>
      <trkpt lat="38.4908710" lon="-0.6555020">
        <ele>663.6</ele>
        <time>2018-03-30T07:45:29Z</time>
      </trkpt>
      <trkpt lat="38.4908840" lon="-0.6554960">
        <ele>663.9</ele>
        <time>2018-03-30T07:45:30Z</time>
      </trkpt>
      <trkpt lat="38.4908960" lon="-0.6554860">
        <ele>664.1</ele>
        <time>2018-03-30T07:45:31Z</time>
      </trkpt>
      <trkpt lat="38.4909070" lon="-0.6554740">
        <ele>664.5</ele>
        <time>2018-03-30T07:45:32Z</time>
      </trkpt>
      <trkpt lat="38.4909210" lon="-0.6554650">
        <ele>665.0</ele>
        <time>2018-03-30T07:45:33Z</time>
      </trkpt>
      <trkpt lat="38.4909350" lon="-0.6554590">
        <ele>665.4</ele>
        <time>2018-03-30T07:45:34Z</time>
      </trkpt>
      <trkpt lat="38.4909490" lon="-0.6554550">
        <ele>665.7</ele>
        <time>2018-03-30T07:45:35Z</time>
      </trkpt>
      <trkpt lat="38.4909640" lon="-0.6554510">
        <ele>665.9</ele>
        <time>2018-03-30T07:45:36Z</time>
      </trkpt>
      <trkpt lat="38.4909810" lon="-0.6554450">
        <ele>666.1</ele>
        <time>2018-03-30T07:45:37Z</time>
      </trkpt>
      <trkpt lat="38.4910000" lon="-0.6554440">
        <ele>666.3</ele>
        <time>2018-03-30T07:45:38Z</time>
      </trkpt>
      <trkpt lat="38.4910170" lon="-0.6554380">
        <ele>666.5</ele>
        <time>2018-03-30T07:45:39Z</time>
      </trkpt>
      <trkpt lat="38.4910350" lon="-0.6554310">
        <ele>666.7</ele>
        <time>2018-03-30T07:45:40Z</time>
      </trkpt>
      <trkpt lat="38.4910530" lon="-0.6554260">
        <ele>666.8</ele>
        <time>2018-03-30T07:45:41Z</time>
      </trkpt>
      <trkpt lat="38.4910700" lon="-0.6554220">
        <ele>667.0</ele>
        <time>2018-03-30T07:45:42Z</time>
      </trkpt>
      <trkpt lat="38.4910880" lon="-0.6554170">
        <ele>667.2</ele>
        <time>2018-03-30T07:45:43Z</time>
      </trkpt>
      <trkpt lat="38.4911040" lon="-0.6554100">
        <ele>667.4</ele>
        <time>2018-03-30T07:45:44Z</time>
      </trkpt>
      <trkpt lat="38.4911190" lon="-0.6554030">
        <ele>667.5</ele>
        <time>2018-03-30T07:45:45Z</time>
      </trkpt>
      <trkpt lat="38.4911370" lon="-0.6553980">
        <ele>667.6</ele>
        <time>2018-03-30T07:45:46Z</time>
      </trkpt>
      <trkpt lat="38.4911540" lon="-0.6553930">
        <ele>667.8</ele>
        <time>2018-03-30T07:45:47Z</time>
      </trkpt>
      <trkpt lat="38.4911710" lon="-0.6553870">
        <ele>667.9</ele>
        <time>2018-03-30T07:45:48Z</time>
      </trkpt>
      <trkpt lat="38.4911900" lon="-0.6553790">
        <ele>668.1</ele>
        <time>2018-03-30T07:45:49Z</time>
      </trkpt>
      <trkpt lat="38.4912070" lon="-0.6553710">
        <ele>668.2</ele>
        <time>2018-03-30T07:45:50Z</time>
      </trkpt>
      <trkpt lat="38.4912240" lon="-0.6553610">
        <ele>668.3</ele>
        <time>2018-03-30T07:45:51Z</time>
      </trkpt>
      <trkpt lat="38.4912400" lon="-0.6553540">
        <ele>668.5</ele>
        <time>2018-03-30T07:45:52Z</time>
      </trkpt>
      <trkpt lat="38.4912580" lon="-0.6553460">
        <ele>668.6</ele>
        <time>2018-03-30T07:45:53Z</time>
      </trkpt>
      <trkpt lat="38.4912740" lon="-0.6553400">
        <ele>668.8</ele>
        <time>2018-03-30T07:45:54Z</time>
      </trkpt>
      <trkpt lat="38.4912920" lon="-0.6553300">
        <ele>668.9</ele>
        <time>2018-03-30T07:45:55Z</time>
      </trkpt>
      <trkpt lat="38.4913120" lon="-0.6553250">
        <ele>669.1</ele>
        <time>2018-03-30T07:45:56Z</time>
      </trkpt>
      <trkpt lat="38.4913300" lon="-0.6553170">
        <ele>669.2</ele>
        <time>2018-03-30T07:45:57Z</time>
      </trkpt>
      <trkpt lat="38.4913490" lon="-0.6553130">
        <ele>669.4</ele>
        <time>2018-03-30T07:45:58Z</time>
      </trkpt>
      <trkpt lat="38.4913680" lon="-0.6553110">
        <ele>669.6</ele>
        <time>2018-03-30T07:45:59Z</time>
      </trkpt>
      <trkpt lat="38.4913860" lon="-0.6553070">
        <ele>669.7</ele>
        <time>2018-03-30T07:46:00Z</time>
      </trkpt>
      <trkpt lat="38.4914040" lon="-0.6553010">
        <ele>669.9</ele>
        <time>2018-03-30T07:46:01Z</time>
      </trkpt>
      <trkpt lat="38.4914220" lon="-0.6552970">
        <ele>670.0</ele>
        <time>2018-03-30T07:46:02Z</time>
      </trkpt>
      <trkpt lat="38.4914440" lon="-0.6552880">
        <ele>670.2</ele>
        <time>2018-03-30T07:46:03Z</time>
      </trkpt>
      <trkpt lat="38.4914640" lon="-0.6552790">
        <ele>670.4</ele>
        <time>2018-03-30T07:46:04Z</time>
      </trkpt>
      <trkpt lat="38.4914840" lon="-0.6552660">
        <ele>670.6</ele>
        <time>2018-03-30T07:46:05Z</time>
      </trkpt>
      <trkpt lat="38.4915060" lon="-0.6552580">
        <ele>670.8</ele>
        <time>2018-03-30T07:46:06Z</time>
      </trkpt>
      <trkpt lat="38.4915270" lon="-0.6552490">
        <ele>670.9</ele>
        <time>2018-03-30T07:46:07Z</time>
      </trkpt>
      <trkpt lat="38.4915480" lon="-0.6552380">
        <ele>671.0</ele>
        <time>2018-03-30T07:46:08Z</time>
      </trkpt>
      <trkpt lat="38.4915720" lon="-0.6552270">
        <ele>671.2</ele>
        <time>2018-03-30T07:46:09Z</time>
      </trkpt>
      <trkpt lat="38.4915940" lon="-0.6552200">
        <ele>671.3</ele>
        <time>2018-03-30T07:46:10Z</time>
      </trkpt>
      <trkpt lat="38.4916170" lon="-0.6552100">
        <ele>671.5</ele>
        <time>2018-03-30T07:46:11Z</time>
      </trkpt>
      <trkpt lat="38.4916420" lon="-0.6552010">
        <ele>671.7</ele>
        <time>2018-03-30T07:46:12Z</time>
      </trkpt>
      <trkpt lat="38.4916670" lon="-0.6551980">
        <ele>671.8</ele>
        <time>2018-03-30T07:46:13Z</time>
      </trkpt>
      <trkpt lat="38.4916920" lon="-0.6551970">
        <ele>672.1</ele>
        <time>2018-03-30T07:46:14Z</time>
      </trkpt>
      <trkpt lat="38.4917160" lon="-0.6551970">
        <ele>672.3</ele>
        <time>2018-03-30T07:46:15Z</time>
      </trkpt>
      <trkpt lat="38.4917390" lon="-0.6552040">
        <ele>672.6</ele>
        <time>2018-03-30T07:46:16Z</time>
      </trkpt>
      <trkpt lat="38.4917630" lon="-0.6552130">
        <ele>672.8</ele>
        <time>2018-03-30T07:46:17Z</time>
      </trkpt>
      <trkpt lat="38.4917870" lon="-0.6552230">
        <ele>673.0</ele>
        <time>2018-03-30T07:46:18Z</time>
      </trkpt>
      <trkpt lat="38.4918080" lon="-0.6552360">
        <ele>673.2</ele>
        <time>2018-03-30T07:46:19Z</time>
      </trkpt>
      <trkpt lat="38.4918300" lon="-0.6552500">
        <ele>673.5</ele>
        <time>2018-03-30T07:46:20Z</time>
      </trkpt>
      <trkpt lat="38.4918540" lon="-0.6552610">
        <ele>673.9</ele>
        <time>2018-03-30T07:46:21Z</time>
      </trkpt>
      <trkpt lat="38.4918780" lon="-0.6552710">
        <ele>674.2</ele>
        <time>2018-03-30T07:46:22Z</time>
      </trkpt>
      <trkpt lat="38.4919020" lon="-0.6552760">
        <ele>674.4</ele>
        <time>2018-03-30T07:46:23Z</time>
      </trkpt>
      <trkpt lat="38.4919270" lon="-0.6552820">
        <ele>674.6</ele>
        <time>2018-03-30T07:46:24Z</time>
      </trkpt>
      <trkpt lat="38.4919540" lon="-0.6552850">
        <ele>674.8</ele>
        <time>2018-03-30T07:46:25Z</time>
      </trkpt>
      <trkpt lat="38.4919800" lon="-0.6552860">
        <ele>675.0</ele>
        <time>2018-03-30T07:46:26Z</time>
      </trkpt>
      <trkpt lat="38.4920040" lon="-0.6552840">
        <ele>675.2</ele>
        <time>2018-03-30T07:46:27Z</time>
      </trkpt>
      <trkpt lat="38.4920290" lon="-0.6552810">
        <ele>675.5</ele>
        <time>2018-03-30T07:46:28Z</time>
      </trkpt>
      <trkpt lat="38.4920530" lon="-0.6552780">
        <ele>675.9</ele>
        <time>2018-03-30T07:46:29Z</time>
      </trkpt>
      <trkpt lat="38.4920790" lon="-0.6552740">
        <ele>676.0</ele>
        <time>2018-03-30T07:46:30Z</time>
      </trkpt>
      <trkpt lat="38.4921040" lon="-0.6552690">
        <ele>676.2</ele>
        <time>2018-03-30T07:46:31Z</time>
      </trkpt>
      <trkpt lat="38.4921280" lon="-0.6552670">
        <ele>676.3</ele>
        <time>2018-03-30T07:46:32Z</time>
      </trkpt>
      <trkpt lat="38.4921520" lon="-0.6552600">
        <ele>676.5</ele>
        <time>2018-03-30T07:46:33Z</time>
      </trkpt>
      <trkpt lat="38.4921780" lon="-0.6552520">
        <ele>676.6</ele>
        <time>2018-03-30T07:46:34Z</time>
      </trkpt>
      <trkpt lat="38.4922020" lon="-0.6552420">
        <ele>676.8</ele>
        <time>2018-03-30T07:46:35Z</time>
      </trkpt>
      <trkpt lat="38.4922260" lon="-0.6552190">
        <ele>677.0</ele>
        <time>2018-03-30T07:46:36Z</time>
      </trkpt>
      <trkpt lat="38.4922440" lon="-0.6551980">
        <ele>677.2</ele>
        <time>2018-03-30T07:46:37Z</time>
      </trkpt>
      <trkpt lat="38.4922690" lon="-0.6551780">
        <ele>677.4</ele>
        <time>2018-03-30T07:46:38Z</time>
      </trkpt>
      <trkpt lat="38.4923020" lon="-0.6551590">
        <ele>677.5</ele>
        <time>2018-03-30T07:46:39Z</time>
      </trkpt>
      <trkpt lat="38.4923310" lon="-0.6551330">
        <ele>677.7</ele>
        <time>2018-03-30T07:46:40Z</time>
      </trkpt>
      <trkpt lat="38.4923510" lon="-0.6550970">
        <ele>677.8</ele>
        <time>2018-03-30T07:46:41Z</time>
      </trkpt>
      <trkpt lat="38.4923730" lon="-0.6550640">
        <ele>677.9</ele>
        <time>2018-03-30T07:46:42Z</time>
      </trkpt>
      <trkpt lat="38.4923940" lon="-0.6550320">
        <ele>678.0</ele>
        <time>2018-03-30T07:46:43Z</time>
      </trkpt>
      <trkpt lat="38.4924150" lon="-0.6550050">
        <ele>678.1</ele>
        <time>2018-03-30T07:46:44Z</time>
      </trkpt>
      <trkpt lat="38.4924360" lon="-0.6549780">
        <ele>678.2</ele>
        <time>2018-03-30T07:46:45Z</time>
      </trkpt>
      <trkpt lat="38.4924590" lon="-0.6549510">
        <ele>678.3</ele>
        <time>2018-03-30T07:46:46Z</time>
      </trkpt>
      <trkpt lat="38.4924780" lon="-0.6549270">
        <ele>678.4</ele>
        <time>2018-03-30T07:46:47Z</time>
      </trkpt>
      <trkpt lat="38.4924990" lon="-0.6549030">
        <ele>678.6</ele>
        <time>2018-03-30T07:46:48Z</time>
      </trkpt>
      <trkpt lat="38.4925170" lon="-0.6548800">
        <ele>678.6</ele>
        <time>2018-03-30T07:46:49Z</time>
      </trkpt>
      <trkpt lat="38.4925360" lon="-0.6548570">
        <ele>678.7</ele>
        <time>2018-03-30T07:46:50Z</time>
      </trkpt>
      <trkpt lat="38.4925670" lon="-0.6548330">
        <ele>678.8</ele>
        <time>2018-03-30T07:46:51Z</time>
      </trkpt>
      <trkpt lat="38.4925940" lon="-0.6548080">
        <ele>678.9</ele>
        <time>2018-03-30T07:46:52Z</time>
      </trkpt>
      <trkpt lat="38.4926230" lon="-0.6547820">
        <ele>679.0</ele>
        <time>2018-03-30T07:46:53Z</time>
      </trkpt>
      <trkpt lat="38.4926560" lon="-0.6547550">
        <ele>679.1</ele>
        <time>2018-03-30T07:46:54Z</time>
      </trkpt>
      <trkpt lat="38.4926900" lon="-0.6547270">
        <ele>679.1</ele>
        <time>2018-03-30T07:46:55Z</time>
      </trkpt>
      <trkpt lat="38.4927220" lon="-0.6547000">
        <ele>679.2</ele>
        <time>2018-03-30T07:46:56Z</time>
      </trkpt>
      <trkpt lat="38.4927580" lon="-0.6546730">
        <ele>679.2</ele>
        <time>2018-03-30T07:46:57Z</time>
      </trkpt>
      <trkpt lat="38.4927930" lon="-0.6546510">
        <ele>679.3</ele>
        <time>2018-03-30T07:46:58Z</time>
      </trkpt>
      <trkpt lat="38.4928270" lon="-0.6546330">
        <ele>679.4</ele>
        <time>2018-03-30T07:46:59Z</time>
      </trkpt>
      <trkpt lat="38.4928610" lon="-0.6546160">
        <ele>679.4</ele>
        <time>2018-03-30T07:47:00Z</time>
      </trkpt>
      <trkpt lat="38.4928920" lon="-0.6545900">
        <ele>679.5</ele>
        <time>2018-03-30T07:47:01Z</time>
      </trkpt>
      <trkpt lat="38.4929330" lon="-0.6545670">
        <ele>679.5</ele>
        <time>2018-03-30T07:47:02Z</time>
      </trkpt>
      <trkpt lat="38.4929720" lon="-0.6545440">
        <ele>679.5</ele>
        <time>2018-03-30T07:47:03Z</time>
      </trkpt>
      <trkpt lat="38.4930120" lon="-0.6545290">
        <ele>679.6</ele>
        <time>2018-03-30T07:47:04Z</time>
      </trkpt>
      <trkpt lat="38.4930550" lon="-0.6545210">
        <ele>679.6</ele>
        <time>2018-03-30T07:47:05Z</time>
      </trkpt>
      <trkpt lat="38.4930980" lon="-0.6545220">
        <ele>679.7</ele>
        <time>2018-03-30T07:47:06Z</time>
      </trkpt>
      <trkpt lat="38.4931450" lon="-0.6545270">
        <ele>679.7</ele>
        <time>2018-03-30T07:47:07Z</time>
      </trkpt>
      <trkpt lat="38.4931900" lon="-0.6545350">
        <ele>679.8</ele>
        <time>2018-03-30T07:47:08Z</time>
      </trkpt>
      <trkpt lat="38.4932390" lon="-0.6545360">
        <ele>679.9</ele>
        <time>2018-03-30T07:47:09Z</time>
      </trkpt>
      <trkpt lat="38.4932800" lon="-0.6545300">
        <ele>679.9</ele>
        <time>2018-03-30T07:47:10Z</time>
      </trkpt>
      <trkpt lat="38.4933220" lon="-0.6545220">
        <ele>680.0</ele>
        <time>2018-03-30T07:47:11Z</time>
      </trkpt>
      <trkpt lat="38.4933580" lon="-0.6545090">
        <ele>680.1</ele>
        <time>2018-03-30T07:47:12Z</time>
      </trkpt>
      <trkpt lat="38.4933930" lon="-0.6544970">
        <ele>680.3</ele>
        <time>2018-03-30T07:47:13Z</time>
      </trkpt>
      <trkpt lat="38.4934230" lon="-0.6544930">
        <ele>680.4</ele>
        <time>2018-03-30T07:47:14Z</time>
      </trkpt>
      <trkpt lat="38.4934550" lon="-0.6544830">
        <ele>680.5</ele>
        <time>2018-03-30T07:47:15Z</time>
      </trkpt>
      <trkpt lat="38.4934840" lon="-0.6544750">
        <ele>680.6</ele>
        <time>2018-03-30T07:47:16Z</time>
      </trkpt>
      <trkpt lat="38.4935110" lon="-0.6544670">
        <ele>680.7</ele>
        <time>2018-03-30T07:47:17Z</time>
      </trkpt>
      <trkpt lat="38.4935360" lon="-0.6544600">
        <ele>680.8</ele>
        <time>2018-03-30T07:47:18Z</time>
      </trkpt>
      <trkpt lat="38.4935630" lon="-0.6544530">
        <ele>680.9</ele>
        <time>2018-03-30T07:47:19Z</time>
      </trkpt>
      <trkpt lat="38.4935760" lon="-0.6544560">
        <ele>680.9</ele>
        <time>2018-03-30T07:47:20Z</time>
      </trkpt>
      <trkpt lat="38.4936000" lon="-0.6544430">
        <ele>681.1</ele>
        <time>2018-03-30T07:47:21Z</time>
      </trkpt>
      <trkpt lat="38.4936170" lon="-0.6544270">
        <ele>681.2</ele>
        <time>2018-03-30T07:47:22Z</time>
      </trkpt>
      <trkpt lat="38.4936470" lon="-0.6543960">
        <ele>681.5</ele>
        <time>2018-03-30T07:47:23Z</time>
      </trkpt>
      <trkpt lat="38.4936600" lon="-0.6543560">
        <ele>681.8</ele>
        <time>2018-03-30T07:47:24Z</time>
      </trkpt>
      <trkpt lat="38.4936730" lon="-0.6543270">
        <ele>682.1</ele>
        <time>2018-03-30T07:47:25Z</time>
      </trkpt>
      <trkpt lat="38.4936880" lon="-0.6543060">
        <ele>682.5</ele>
        <time>2018-03-30T07:47:26Z</time>
      </trkpt>
      <trkpt lat="38.4937040" lon="-0.6542900">
        <ele>682.9</ele>
        <time>2018-03-30T07:47:27Z</time>
      </trkpt>
      <trkpt lat="38.4937200" lon="-0.6542750">
        <ele>683.2</ele>
        <time>2018-03-30T07:47:28Z</time>
      </trkpt>
      <trkpt lat="38.4937310" lon="-0.6542600">
        <ele>683.5</ele>
        <time>2018-03-30T07:47:29Z</time>
      </trkpt>
      <trkpt lat="38.4937420" lon="-0.6542410">
        <ele>683.7</ele>
        <time>2018-03-30T07:47:30Z</time>
      </trkpt>
      <trkpt lat="38.4937520" lon="-0.6542190">
        <ele>684.0</ele>
        <time>2018-03-30T07:47:31Z</time>
      </trkpt>
      <trkpt lat="38.4937530" lon="-0.6542120">
        <ele>684.1</ele>
        <time>2018-03-30T07:47:32Z</time>
      </trkpt>
      <trkpt lat="38.4937630" lon="-0.6542030">
        <ele>684.3</ele>
        <time>2018-03-30T07:47:33Z</time>
      </trkpt>
      <trkpt lat="38.4937820" lon="-0.6542060">
        <ele>684.6</ele>
        <time>2018-03-30T07:47:34Z</time>
      </trkpt>
      <trkpt lat="38.4938220" lon="-0.6542240">
        <ele>685.3</ele>
        <time>2018-03-30T07:47:35Z</time>
      </trkpt>
      <trkpt lat="38.4938470" lon="-0.6542330">
        <ele>685.6</ele>
        <time>2018-03-30T07:47:36Z</time>
      </trkpt>
      <trkpt lat="38.4938610" lon="-0.6542400">
        <ele>685.8</ele>
        <time>2018-03-30T07:47:37Z</time>
      </trkpt>
      <trkpt lat="38.4938740" lon="-0.6542470">
        <ele>685.9</ele>
        <time>2018-03-30T07:47:38Z</time>
      </trkpt>
      <trkpt lat="38.4938850" lon="-0.6542530">
        <ele>686.1</ele>
        <time>2018-03-30T07:47:39Z</time>
      </trkpt>
      <trkpt lat="38.4938900" lon="-0.6542610">
        <ele>686.2</ele>
        <time>2018-03-30T07:47:40Z</time>
      </trkpt>
      <trkpt lat="38.4938930" lon="-0.6542760">
        <ele>686.3</ele>
        <time>2018-03-30T07:47:41Z</time>
      </trkpt>
      <trkpt lat="38.4939030" lon="-0.6542930">
        <ele>686.5</ele>
        <time>2018-03-30T07:47:42Z</time>
      </trkpt>
      <trkpt lat="38.4939100" lon="-0.6543120">
        <ele>686.7</ele>
        <time>2018-03-30T07:47:43Z</time>
      </trkpt>
      <trkpt lat="38.4939200" lon="-0.6543320">
        <ele>687.2</ele>
        <time>2018-03-30T07:47:44Z</time>
      </trkpt>
      <trkpt lat="38.4939350" lon="-0.6543490">
        <ele>687.6</ele>
        <time>2018-03-30T07:47:45Z</time>
      </trkpt>
      <trkpt lat="38.4939570" lon="-0.6543700">
        <ele>688.3</ele>
        <time>2018-03-30T07:47:46Z</time>
      </trkpt>
      <trkpt lat="38.4939760" lon="-0.6543830">
        <ele>688.7</ele>
        <time>2018-03-30T07:47:47Z</time>
      </trkpt>
      <trkpt lat="38.4940010" lon="-0.6544010">
        <ele>689.2</ele>
        <time>2018-03-30T07:47:48Z</time>
      </trkpt>
      <trkpt lat="38.4940230" lon="-0.6544140">
        <ele>689.8</ele>
        <time>2018-03-30T07:47:49Z</time>
      </trkpt>
      <trkpt lat="38.4940540" lon="-0.6544240">
        <ele>690.4</ele>
        <time>2018-03-30T07:47:50Z</time>
      </trkpt>
      <trkpt lat="38.4940770" lon="-0.6544290">
        <ele>690.6</ele>
        <time>2018-03-30T07:47:51Z</time>
      </trkpt>
      <trkpt lat="38.4941040" lon="-0.6544330">
        <ele>690.8</ele>
        <time>2018-03-30T07:47:52Z</time>
      </trkpt>
      <trkpt lat="38.4941280" lon="-0.6544360">
        <ele>691.1</ele>
        <time>2018-03-30T07:47:53Z</time>
      </trkpt>
      <trkpt lat="38.4941520" lon="-0.6544370">
        <ele>691.3</ele>
        <time>2018-03-30T07:47:54Z</time>
      </trkpt>
      <trkpt lat="38.4941750" lon="-0.6544390">
        <ele>691.6</ele>
        <time>2018-03-30T07:47:55Z</time>
      </trkpt>
      <trkpt lat="38.4941960" lon="-0.6544430">
        <ele>692.0</ele>
        <time>2018-03-30T07:47:56Z</time>
      </trkpt>
      <trkpt lat="38.4942170" lon="-0.6544430">
        <ele>692.3</ele>
        <time>2018-03-30T07:47:57Z</time>
      </trkpt>
      <trkpt lat="38.4942350" lon="-0.6544430">
        <ele>692.5</ele>
        <time>2018-03-30T07:47:58Z</time>
      </trkpt>
      <trkpt lat="38.4942570" lon="-0.6544500">
        <ele>692.7</ele>
        <time>2018-03-30T07:47:59Z</time>
      </trkpt>
      <trkpt lat="38.4942770" lon="-0.6544600">
        <ele>692.9</ele>
        <time>2018-03-30T07:48:00Z</time>
      </trkpt>
      <trkpt lat="38.4942870" lon="-0.6544760">
        <ele>693.1</ele>
        <time>2018-03-30T07:48:01Z</time>
      </trkpt>
      <trkpt lat="38.4942980" lon="-0.6544940">
        <ele>693.2</ele>
        <time>2018-03-30T07:48:02Z</time>
      </trkpt>
      <trkpt lat="38.4943090" lon="-0.6545160">
        <ele>693.4</ele>
        <time>2018-03-30T07:48:03Z</time>
      </trkpt>
      <trkpt lat="38.4943210" lon="-0.6545480">
        <ele>693.7</ele>
        <time>2018-03-30T07:48:04Z</time>
      </trkpt>
      <trkpt lat="38.4943270" lon="-0.6545770">
        <ele>693.9</ele>
        <time>2018-03-30T07:48:05Z</time>
      </trkpt>
      <trkpt lat="38.4943360" lon="-0.6546080">
        <ele>694.2</ele>
        <time>2018-03-30T07:48:06Z</time>
      </trkpt>
      <trkpt lat="38.4943430" lon="-0.6546360">
        <ele>694.5</ele>
        <time>2018-03-30T07:48:07Z</time>
      </trkpt>
      <trkpt lat="38.4943440" lon="-0.6546610">
        <ele>695.0</ele>
        <time>2018-03-30T07:48:08Z</time>
      </trkpt>
      <trkpt lat="38.4943530" lon="-0.6546900">
        <ele>695.4</ele>
        <time>2018-03-30T07:48:09Z</time>
      </trkpt>
      <trkpt lat="38.4943590" lon="-0.6547170">
        <ele>695.7</ele>
        <time>2018-03-30T07:48:10Z</time>
      </trkpt>
      <trkpt lat="38.4943650" lon="-0.6547400">
        <ele>696.0</ele>
        <time>2018-03-30T07:48:11Z</time>
      </trkpt>
      <trkpt lat="38.4943700" lon="-0.6547610">
        <ele>695.9</ele>
        <time>2018-03-30T07:48:12Z</time>
      </trkpt>
      <trkpt lat="38.4943780" lon="-0.6547800">
        <ele>695.8</ele>
        <time>2018-03-30T07:48:13Z</time>
      </trkpt>
      <trkpt lat="38.4943860" lon="-0.6548010">
        <ele>695.6</ele>
        <time>2018-03-30T07:48:14Z</time>
      </trkpt>
      <trkpt lat="38.4943980" lon="-0.6548250">
        <ele>695.5</ele>
        <time>2018-03-30T07:48:15Z</time>
      </trkpt>
      <trkpt lat="38.4944040" lon="-0.6548460">
        <ele>695.3</ele>
        <time>2018-03-30T07:48:16Z</time>
      </trkpt>
      <trkpt lat="38.4944110" lon="-0.6548710">
        <ele>695.2</ele>
        <time>2018-03-30T07:48:17Z</time>
      </trkpt>
      <trkpt lat="38.4944180" lon="-0.6548910">
        <ele>695.1</ele>
        <time>2018-03-30T07:48:18Z</time>
      </trkpt>
      <trkpt lat="38.4944160" lon="-0.6549060">
        <ele>695.0</ele>
        <time>2018-03-30T07:48:19Z</time>
      </trkpt>
      <trkpt lat="38.4944270" lon="-0.6549240">
        <ele>694.8</ele>
        <time>2018-03-30T07:48:20Z</time>
      </trkpt>
      <trkpt lat="38.4944350" lon="-0.6549420">
        <ele>694.7</ele>
        <time>2018-03-30T07:48:21Z</time>
      </trkpt>
      <trkpt lat="38.4944390" lon="-0.6549590">
        <ele>694.6</ele>
        <time>2018-03-30T07:48:22Z</time>
      </trkpt>
      <trkpt lat="38.4944400" lon="-0.6549770">
        <ele>694.5</ele>
        <time>2018-03-30T07:48:23Z</time>
      </trkpt>
      <trkpt lat="38.4944400" lon="-0.6549950">
        <ele>694.4</ele>
        <time>2018-03-30T07:48:24Z</time>
      </trkpt>
      <trkpt lat="38.4944440" lon="-0.6550180">
        <ele>694.3</ele>
        <time>2018-03-30T07:48:25Z</time>
      </trkpt>
      <trkpt lat="38.4944460" lon="-0.6550370">
        <ele>694.2</ele>
        <time>2018-03-30T07:48:26Z</time>
      </trkpt>
      <trkpt lat="38.4944510" lon="-0.6550530">
        <ele>694.1</ele>
        <time>2018-03-30T07:48:27Z</time>
      </trkpt>
      <trkpt lat="38.4944490" lon="-0.6550650">
        <ele>694.0</ele>
        <time>2018-03-30T07:48:28Z</time>
      </trkpt>
      <trkpt lat="38.4944540" lon="-0.6550790">
        <ele>693.9</ele>
        <time>2018-03-30T07:48:29Z</time>
      </trkpt>
      <trkpt lat="38.4944600" lon="-0.6550920">
        <ele>693.8</ele>
        <time>2018-03-30T07:48:30Z</time>
      </trkpt>
      <trkpt lat="38.4944740" lon="-0.6551110">
        <ele>693.7</ele>
        <time>2018-03-30T07:48:31Z</time>
      </trkpt>
      <trkpt lat="38.4944900" lon="-0.6551290">
        <ele>693.6</ele>
        <time>2018-03-30T07:48:32Z</time>
      </trkpt>
      <trkpt lat="38.4945070" lon="-0.6551450">
        <ele>693.4</ele>
        <time>2018-03-30T07:48:33Z</time>
      </trkpt>
      <trkpt lat="38.4945220" lon="-0.6551620">
        <ele>693.3</ele>
        <time>2018-03-30T07:48:34Z</time>
      </trkpt>
      <trkpt lat="38.4945330" lon="-0.6551740">
        <ele>693.3</ele>
        <time>2018-03-30T07:48:35Z</time>
      </trkpt>
      <trkpt lat="38.4945410" lon="-0.6551910">
        <ele>693.2</ele>
        <time>2018-03-30T07:48:36Z</time>
      </trkpt>
      <trkpt lat="38.4945470" lon="-0.6552050">
        <ele>693.2</ele>
        <time>2018-03-30T07:48:37Z</time>
      </trkpt>
      <trkpt lat="38.4945560" lon="-0.6552220">
        <ele>693.1</ele>
        <time>2018-03-30T07:48:38Z</time>
      </trkpt>
      <trkpt lat="38.4945620" lon="-0.6552360">
        <ele>693.1</ele>
        <time>2018-03-30T07:48:39Z</time>
      </trkpt>
      <trkpt lat="38.4945730" lon="-0.6552500">
        <ele>693.0</ele>
        <time>2018-03-30T07:48:40Z</time>
      </trkpt>
      <trkpt lat="38.4945780" lon="-0.6552680">
        <ele>693.0</ele>
        <time>2018-03-30T07:48:41Z</time>
      </trkpt>
      <trkpt lat="38.4945800" lon="-0.6552860">
        <ele>692.9</ele>
        <time>2018-03-30T07:48:42Z</time>
      </trkpt>
      <trkpt lat="38.4945810" lon="-0.6553010">
        <ele>692.9</ele>
        <time>2018-03-30T07:48:43Z</time>
      </trkpt>
      <trkpt lat="38.4945850" lon="-0.6553170">
        <ele>692.8</ele>
        <time>2018-03-30T07:48:44Z</time>
      </trkpt>
      <trkpt lat="38.4945870" lon="-0.6553340">
        <ele>692.8</ele>
        <time>2018-03-30T07:48:45Z</time>
      </trkpt>
      <trkpt lat="38.4945940" lon="-0.6553490">
        <ele>692.7</ele>
        <time>2018-03-30T07:48:46Z</time>
      </trkpt>
      <trkpt lat="38.4945920" lon="-0.6553630">
        <ele>692.7</ele>
        <time>2018-03-30T07:48:47Z</time>
      </trkpt>
      <trkpt lat="38.4946010" lon="-0.6553860">
        <ele>692.7</ele>
        <time>2018-03-30T07:48:48Z</time>
      </trkpt>
      <trkpt lat="38.4946080" lon="-0.6554070">
        <ele>692.6</ele>
        <time>2018-03-30T07:48:49Z</time>
      </trkpt>
      <trkpt lat="38.4946130" lon="-0.6554300">
        <ele>692.5</ele>
        <time>2018-03-30T07:48:50Z</time>
      </trkpt>
      <trkpt lat="38.4946200" lon="-0.6554540">
        <ele>692.5</ele>
        <time>2018-03-30T07:48:51Z</time>
      </trkpt>
      <trkpt lat="38.4946260" lon="-0.6554790">
        <ele>692.4</ele>
        <time>2018-03-30T07:48:52Z</time>
      </trkpt>
      <trkpt lat="38.4946320" lon="-0.6555030">
        <ele>692.4</ele>
        <time>2018-03-30T07:48:53Z</time>
      </trkpt>
      <trkpt lat="38.4946390" lon="-0.6555210">
        <ele>692.4</ele>
        <time>2018-03-30T07:48:54Z</time>
      </trkpt>
      <trkpt lat="38.4946450" lon="-0.6555390">
        <ele>692.3</ele>
        <time>2018-03-30T07:48:55Z</time>
      </trkpt>
      <trkpt lat="38.4946540" lon="-0.6555600">
        <ele>692.3</ele>
        <time>2018-03-30T07:48:56Z</time>
      </trkpt>
      <trkpt lat="38.4946680" lon="-0.6555790">
        <ele>692.2</ele>
        <time>2018-03-30T07:48:57Z</time>
      </trkpt>
      <trkpt lat="38.4946860" lon="-0.6555970">
        <ele>692.2</ele>
        <time>2018-03-30T07:48:58Z</time>
      </trkpt>
      <trkpt lat="38.4947010" lon="-0.6556150">
        <ele>692.1</ele>
        <time>2018-03-30T07:48:59Z</time>
      </trkpt>
      <trkpt lat="38.4947200" lon="-0.6556310">
        <ele>692.0</ele>
        <time>2018-03-30T07:49:00Z</time>
      </trkpt>
      <trkpt lat="38.4947350" lon="-0.6556430">
        <ele>691.9</ele>
        <time>2018-03-30T07:49:01Z</time>
      </trkpt>
      <trkpt lat="38.4947490" lon="-0.6556550">
        <ele>691.8</ele>
        <time>2018-03-30T07:49:02Z</time>
      </trkpt>
      <trkpt lat="38.4947610" lon="-0.6556670">
        <ele>691.7</ele>
        <time>2018-03-30T07:49:03Z</time>
      </trkpt>
      <trkpt lat="38.4947730" lon="-0.6556780">
        <ele>691.6</ele>
        <time>2018-03-30T07:49:04Z</time>
      </trkpt>
      <trkpt lat="38.4947910" lon="-0.6556840">
        <ele>691.5</ele>
        <time>2018-03-30T07:49:05Z</time>
      </trkpt>
      <trkpt lat="38.4948090" lon="-0.6556900">
        <ele>691.4</ele>
        <time>2018-03-30T07:49:06Z</time>
      </trkpt>
      <trkpt lat="38.4948230" lon="-0.6556910">
        <ele>691.4</ele>
        <time>2018-03-30T07:49:07Z</time>
      </trkpt>
      <trkpt lat="38.4948430" lon="-0.6556910">
        <ele>691.3</ele>
        <time>2018-03-30T07:49:08Z</time>
      </trkpt>
      <trkpt lat="38.4948640" lon="-0.6556890">
        <ele>691.2</ele>
        <time>2018-03-30T07:49:09Z</time>
      </trkpt>
      <trkpt lat="38.4948780" lon="-0.6556920">
        <ele>691.1</ele>
        <time>2018-03-30T07:49:10Z</time>
      </trkpt>
      <trkpt lat="38.4948890" lon="-0.6556920">
        <ele>691.0</ele>
        <time>2018-03-30T07:49:11Z</time>
      </trkpt>
      <trkpt lat="38.4949030" lon="-0.6556910">
        <ele>691.0</ele>
        <time>2018-03-30T07:49:12Z</time>
      </trkpt>
      <trkpt lat="38.4949220" lon="-0.6556880">
        <ele>690.9</ele>
        <time>2018-03-30T07:49:13Z</time>
      </trkpt>
      <trkpt lat="38.4949440" lon="-0.6556870">
        <ele>690.8</ele>
        <time>2018-03-30T07:49:14Z</time>
      </trkpt>
      <trkpt lat="38.4949640" lon="-0.6556840">
        <ele>690.7</ele>
        <time>2018-03-30T07:49:15Z</time>
      </trkpt>
      <trkpt lat="38.4949890" lon="-0.6556860">
        <ele>690.5</ele>
        <time>2018-03-30T07:49:16Z</time>
      </trkpt>
      <trkpt lat="38.4950090" lon="-0.6556880">
        <ele>690.4</ele>
        <time>2018-03-30T07:49:17Z</time>
      </trkpt>
      <trkpt lat="38.4950290" lon="-0.6556910">
        <ele>690.3</ele>
        <time>2018-03-30T07:49:18Z</time>
      </trkpt>
      <trkpt lat="38.4950490" lon="-0.6556940">
        <ele>690.2</ele>
        <time>2018-03-30T07:49:19Z</time>
      </trkpt>
      <trkpt lat="38.4950730" lon="-0.6556990">
        <ele>689.9</ele>
        <time>2018-03-30T07:49:20Z</time>
      </trkpt>
      <trkpt lat="38.4950950" lon="-0.6557030">
        <ele>689.6</ele>
        <time>2018-03-30T07:49:21Z</time>
      </trkpt>
      <trkpt lat="38.4951190" lon="-0.6557070">
        <ele>689.3</ele>
        <time>2018-03-30T07:49:22Z</time>
      </trkpt>
      <trkpt lat="38.4951410" lon="-0.6557120">
        <ele>689.1</ele>
        <time>2018-03-30T07:49:23Z</time>
      </trkpt>
      <trkpt lat="38.4951640" lon="-0.6557130">
        <ele>688.9</ele>
        <time>2018-03-30T07:49:24Z</time>
      </trkpt>
      <trkpt lat="38.4951880" lon="-0.6557130">
        <ele>688.6</ele>
        <time>2018-03-30T07:49:25Z</time>
      </trkpt>
      <trkpt lat="38.4952090" lon="-0.6557110">
        <ele>688.4</ele>
        <time>2018-03-30T07:49:26Z</time>
      </trkpt>
      <trkpt lat="38.4952310" lon="-0.6557070">
        <ele>688.2</ele>
        <time>2018-03-30T07:49:27Z</time>
      </trkpt>
      <trkpt lat="38.4952540" lon="-0.6557030">
        <ele>688.0</ele>
        <time>2018-03-30T07:49:28Z</time>
      </trkpt>
      <trkpt lat="38.4952750" lon="-0.6556960">
        <ele>687.8</ele>
        <time>2018-03-30T07:49:29Z</time>
      </trkpt>
      <trkpt lat="38.4953000" lon="-0.6556860">
        <ele>687.5</ele>
        <time>2018-03-30T07:49:30Z</time>
      </trkpt>
      <trkpt lat="38.4953280" lon="-0.6556720">
        <ele>686.9</ele>
        <time>2018-03-30T07:49:31Z</time>
      </trkpt>
      <trkpt lat="38.4953560" lon="-0.6556520">
        <ele>686.3</ele>
        <time>2018-03-30T07:49:32Z</time>
      </trkpt>
      <trkpt lat="38.4953850" lon="-0.6556310">
        <ele>685.8</ele>
        <time>2018-03-30T07:49:33Z</time>
      </trkpt>
      <trkpt lat="38.4954160" lon="-0.6556100">
        <ele>685.3</ele>
        <time>2018-03-30T07:49:34Z</time>
      </trkpt>
      <trkpt lat="38.4954480" lon="-0.6555860">
        <ele>684.7</ele>
        <time>2018-03-30T07:49:35Z</time>
      </trkpt>
      <trkpt lat="38.4954740" lon="-0.6555640">
        <ele>684.3</ele>
        <time>2018-03-30T07:49:36Z</time>
      </trkpt>
      <trkpt lat="38.4954980" lon="-0.6555460">
        <ele>683.9</ele>
        <time>2018-03-30T07:49:37Z</time>
      </trkpt>
      <trkpt lat="38.4955170" lon="-0.6555300">
        <ele>683.6</ele>
        <time>2018-03-30T07:49:38Z</time>
      </trkpt>
      <trkpt lat="38.4955400" lon="-0.6555080">
        <ele>683.3</ele>
        <time>2018-03-30T07:49:39Z</time>
      </trkpt>
      <trkpt lat="38.4955610" lon="-0.6554840">
        <ele>683.6</ele>
        <time>2018-03-30T07:49:40Z</time>
      </trkpt>
      <trkpt lat="38.4955750" lon="-0.6554620">
        <ele>683.8</ele>
        <time>2018-03-30T07:49:41Z</time>
      </trkpt>
      <trkpt lat="38.4955910" lon="-0.6554350">
        <ele>684.0</ele>
        <time>2018-03-30T07:49:42Z</time>
      </trkpt>
      <trkpt lat="38.4956040" lon="-0.6554080">
        <ele>684.3</ele>
        <time>2018-03-30T07:49:43Z</time>
      </trkpt>
      <trkpt lat="38.4956130" lon="-0.6553780">
        <ele>684.6</ele>
        <time>2018-03-30T07:49:44Z</time>
      </trkpt>
      <trkpt lat="38.4956190" lon="-0.6553460">
        <ele>684.8</ele>
        <time>2018-03-30T07:49:45Z</time>
      </trkpt>
      <trkpt lat="38.4956280" lon="-0.6553230">
        <ele>685.0</ele>
        <time>2018-03-30T07:49:46Z</time>
      </trkpt>
      <trkpt lat="38.4956360" lon="-0.6553010">
        <ele>685.1</ele>
        <time>2018-03-30T07:49:47Z</time>
      </trkpt>
      <trkpt lat="38.4956450" lon="-0.6552780">
        <ele>685.3</ele>
        <time>2018-03-30T07:49:48Z</time>
      </trkpt>
      <trkpt lat="38.4956530" lon="-0.6552540">
        <ele>685.6</ele>
        <time>2018-03-30T07:49:49Z</time>
      </trkpt>
      <trkpt lat="38.4956600" lon="-0.6552290">
        <ele>685.7</ele>
        <time>2018-03-30T07:49:50Z</time>
      </trkpt>
      <trkpt lat="38.4956720" lon="-0.6552070">
        <ele>685.9</ele>
        <time>2018-03-30T07:49:51Z</time>
      </trkpt>
      <trkpt lat="38.4956930" lon="-0.6551820">
        <ele>686.1</ele>
        <time>2018-03-30T07:49:52Z</time>
      </trkpt>
      <trkpt lat="38.4957080" lon="-0.6551560">
        <ele>686.3</ele>
        <time>2018-03-30T07:49:53Z</time>
      </trkpt>
      <trkpt lat="38.4957160" lon="-0.6551280">
        <ele>686.5</ele>
        <time>2018-03-30T07:49:54Z</time>
      </trkpt>
      <trkpt lat="38.4957260" lon="-0.6550960">
        <ele>686.7</ele>
        <time>2018-03-30T07:49:55Z</time>
      </trkpt>
      <trkpt lat="38.4957350" lon="-0.6550650">
        <ele>686.9</ele>
        <time>2018-03-30T07:49:56Z</time>
      </trkpt>
      <trkpt lat="38.4957430" lon="-0.6550380">
        <ele>687.2</ele>
        <time>2018-03-30T07:49:57Z</time>
      </trkpt>
      <trkpt lat="38.4957440" lon="-0.6550120">
        <ele>687.4</ele>
        <time>2018-03-30T07:49:58Z</time>
      </trkpt>
      <trkpt lat="38.4957510" lon="-0.6549910">
        <ele>687.6</ele>
        <time>2018-03-30T07:49:59Z</time>
      </trkpt>
      <trkpt lat="38.4957540" lon="-0.6549640">
        <ele>687.8</ele>
        <time>2018-03-30T07:50:00Z</time>
      </trkpt>
      <trkpt lat="38.4957570" lon="-0.6549390">
        <ele>688.0</ele>
        <time>2018-03-30T07:50:01Z</time>
      </trkpt>
      <trkpt lat="38.4957600" lon="-0.6549140">
        <ele>688.3</ele>
        <time>2018-03-30T07:50:02Z</time>
      </trkpt>
      <trkpt lat="38.4957630" lon="-0.6548870">
        <ele>688.6</ele>
        <time>2018-03-30T07:50:03Z</time>
      </trkpt>
      <trkpt lat="38.4957670" lon="-0.6548550">
        <ele>689.0</ele>
        <time>2018-03-30T07:50:04Z</time>
      </trkpt>
      <trkpt lat="38.4957700" lon="-0.6548240">
        <ele>689.2</ele>
        <time>2018-03-30T07:50:05Z</time>
      </trkpt>
      <trkpt lat="38.4957720" lon="-0.6547990">
        <ele>689.4</ele>
        <time>2018-03-30T07:50:06Z</time>
      </trkpt>
      <trkpt lat="38.4957760" lon="-0.6547780">
        <ele>689.6</ele>
        <time>2018-03-30T07:50:07Z</time>
      </trkpt>
      <trkpt lat="38.4957900" lon="-0.6547880">
        <ele>689.8</ele>
        <time>2018-03-30T07:50:08Z</time>
      </trkpt>
      <trkpt lat="38.4957920" lon="-0.6547870">
        <ele>689.8</ele>
        <time>2018-03-30T07:50:09Z</time>
      </trkpt>
      <trkpt lat="38.4957920" lon="-0.6547820">
        <ele>689.9</ele>
        <time>2018-03-30T07:50:10Z</time>
      </trkpt>
      <trkpt lat="38.4957980" lon="-0.6547780">
        <ele>690.0</ele>
        <time>2018-03-30T07:50:11Z</time>
      </trkpt>
      <trkpt lat="38.4958000" lon="-0.6547740">
        <ele>690.0</ele>
        <time>2018-03-30T07:50:12Z</time>
      </trkpt>
      <trkpt lat="38.4958050" lon="-0.6547640">
        <ele>690.1</ele>
        <time>2018-03-30T07:50:13Z</time>
      </trkpt>
      <trkpt lat="38.4958100" lon="-0.6547560">
        <ele>690.2</ele>
        <time>2018-03-30T07:50:14Z</time>
      </trkpt>
      <trkpt lat="38.4958230" lon="-0.6547540">
        <ele>690.4</ele>
        <time>2018-03-30T07:50:15Z</time>
      </trkpt>
      <trkpt lat="38.4958330" lon="-0.6547410">
        <ele>690.7</ele>
        <time>2018-03-30T07:50:16Z</time>
      </trkpt>
      <trkpt lat="38.4958370" lon="-0.6547300">
        <ele>690.8</ele>
        <time>2018-03-30T07:50:17Z</time>
      </trkpt>
      <trkpt lat="38.4958420" lon="-0.6547240">
        <ele>690.9</ele>
        <time>2018-03-30T07:50:18Z</time>
      </trkpt>
      <trkpt lat="38.4958530" lon="-0.6547160">
        <ele>691.1</ele>
        <time>2018-03-30T07:50:19Z</time>
      </trkpt>
      <trkpt lat="38.4958630" lon="-0.6547140">
        <ele>691.1</ele>
        <time>2018-03-30T07:50:20Z</time>
      </trkpt>
      <trkpt lat="38.4958720" lon="-0.6547100">
        <ele>691.2</ele>
        <time>2018-03-30T07:50:21Z</time>
      </trkpt>
      <trkpt lat="38.4958820" lon="-0.6547130">
        <ele>691.3</ele>
        <time>2018-03-30T07:50:22Z</time>
      </trkpt>
      <trkpt lat="38.4958940" lon="-0.6547140">
        <ele>691.4</ele>
        <time>2018-03-30T07:50:23Z</time>
      </trkpt>
      <trkpt lat="38.4959090" lon="-0.6547180">
        <ele>691.5</ele>
        <time>2018-03-30T07:50:24Z</time>
      </trkpt>
      <trkpt lat="38.4959210" lon="-0.6547200">
        <ele>691.6</ele>
        <time>2018-03-30T07:50:25Z</time>
      </trkpt>
      <trkpt lat="38.4959480" lon="-0.6547150">
        <ele>691.8</ele>
        <time>2018-03-30T07:50:26Z</time>
      </trkpt>
      <trkpt lat="38.4959620" lon="-0.6547140">
        <ele>691.9</ele>
        <time>2018-03-30T07:50:27Z</time>
      </trkpt>
      <trkpt lat="38.4959690" lon="-0.6547120">
        <ele>692.0</ele>
        <time>2018-03-30T07:50:28Z</time>
      </trkpt>
      <trkpt lat="38.4959670" lon="-0.6547130">
        <ele>692.0</ele>
        <time>2018-03-30T07:50:29Z</time>
      </trkpt>
      <trkpt lat="38.4959720" lon="-0.6547150">
        <ele>692.1</ele>
        <time>2018-03-30T07:50:30Z</time>
      </trkpt>
      <trkpt lat="38.4959770" lon="-0.6547160">
        <ele>692.1</ele>
        <time>2018-03-30T07:50:31Z</time>
      </trkpt>
      <trkpt lat="38.4959860" lon="-0.6547160">
        <ele>692.2</ele>
        <time>2018-03-30T07:50:32Z</time>
      </trkpt>
      <trkpt lat="38.4960020" lon="-0.6547180">
        <ele>692.4</ele>
        <time>2018-03-30T07:50:33Z</time>
      </trkpt>
      <trkpt lat="38.4960170" lon="-0.6547200">
        <ele>692.6</ele>
        <time>2018-03-30T07:50:34Z</time>
      </trkpt>
      <trkpt lat="38.4960310" lon="-0.6547230">
        <ele>692.8</ele>
        <time>2018-03-30T07:50:35Z</time>
      </trkpt>
      <trkpt lat="38.4960440" lon="-0.6547200">
        <ele>692.9</ele>
        <time>2018-03-30T07:50:36Z</time>
      </trkpt>
      <trkpt lat="38.4960640" lon="-0.6547180">
        <ele>693.1</ele>
        <time>2018-03-30T07:50:37Z</time>
      </trkpt>
      <trkpt lat="38.4960820" lon="-0.6547200">
        <ele>693.4</ele>
        <time>2018-03-30T07:50:38Z</time>
      </trkpt>
      <trkpt lat="38.4960980" lon="-0.6547200">
        <ele>693.5</ele>
        <time>2018-03-30T07:50:39Z</time>
      </trkpt>
      <trkpt lat="38.4961140" lon="-0.6547210">
        <ele>693.6</ele>
        <time>2018-03-30T07:50:40Z</time>
      </trkpt>
      <trkpt lat="38.4961290" lon="-0.6547150">
        <ele>693.7</ele>
        <time>2018-03-30T07:50:41Z</time>
      </trkpt>
      <trkpt lat="38.4961430" lon="-0.6547030">
        <ele>693.8</ele>
        <time>2018-03-30T07:50:42Z</time>
      </trkpt>
      <trkpt lat="38.4961520" lon="-0.6546880">
        <ele>693.9</ele>
        <time>2018-03-30T07:50:43Z</time>
      </trkpt>
      <trkpt lat="38.4961650" lon="-0.6546810">
        <ele>694.0</ele>
        <time>2018-03-30T07:50:44Z</time>
      </trkpt>
      <trkpt lat="38.4961810" lon="-0.6546730">
        <ele>694.3</ele>
        <time>2018-03-30T07:50:45Z</time>
      </trkpt>
      <trkpt lat="38.4961980" lon="-0.6546610">
        <ele>694.5</ele>
        <time>2018-03-30T07:50:46Z</time>
      </trkpt>
      <trkpt lat="38.4962090" lon="-0.6546440">
        <ele>694.7</ele>
        <time>2018-03-30T07:50:47Z</time>
      </trkpt>
      <trkpt lat="38.4962220" lon="-0.6546270">
        <ele>694.9</ele>
        <time>2018-03-30T07:50:48Z</time>
      </trkpt>
      <trkpt lat="38.4962360" lon="-0.6546120">
        <ele>695.1</ele>
        <time>2018-03-30T07:50:49Z</time>
      </trkpt>
      <trkpt lat="38.4962480" lon="-0.6545950">
        <ele>695.2</ele>
        <time>2018-03-30T07:50:50Z</time>
      </trkpt>
      <trkpt lat="38.4962540" lon="-0.6545740">
        <ele>695.3</ele>
        <time>2018-03-30T07:50:51Z</time>
      </trkpt>
      <trkpt lat="38.4962620" lon="-0.6545570">
        <ele>695.5</ele>
        <time>2018-03-30T07:50:52Z</time>
      </trkpt>
      <trkpt lat="38.4962710" lon="-0.6545400">
        <ele>695.6</ele>
        <time>2018-03-30T07:50:53Z</time>
      </trkpt>
      <trkpt lat="38.4962800" lon="-0.6545250">
        <ele>695.7</ele>
        <time>2018-03-30T07:50:54Z</time>
      </trkpt>
      <trkpt lat="38.4962910" lon="-0.6545120">
        <ele>695.9</ele>
        <time>2018-03-30T07:50:55Z</time>
      </trkpt>
      <trkpt lat="38.4963070" lon="-0.6544960">
        <ele>696.1</ele>
        <time>2018-03-30T07:50:56Z</time>
      </trkpt>
      <trkpt lat="38.4963240" lon="-0.6544810">
        <ele>696.3</ele>
        <time>2018-03-30T07:50:57Z</time>
      </trkpt>
      <trkpt lat="38.4963370" lon="-0.6544650">
        <ele>696.5</ele>
        <time>2018-03-30T07:50:58Z</time>
      </trkpt>
      <trkpt lat="38.4963510" lon="-0.6544540">
        <ele>696.7</ele>
        <time>2018-03-30T07:50:59Z</time>
      </trkpt>
      <trkpt lat="38.4963640" lon="-0.6544410">
        <ele>696.9</ele>
        <time>2018-03-30T07:51:00Z</time>
      </trkpt>
      <trkpt lat="38.4963800" lon="-0.6544230">
        <ele>697.2</ele>
        <time>2018-03-30T07:51:01Z</time>
      </trkpt>
      <trkpt lat="38.4963870" lon="-0.6544000">
        <ele>697.5</ele>
        <time>2018-03-30T07:51:02Z</time>
      </trkpt>
      <trkpt lat="38.4963980" lon="-0.6543820">
        <ele>697.8</ele>
        <time>2018-03-30T07:51:03Z</time>
      </trkpt>
      <trkpt lat="38.4964090" lon="-0.6543640">
        <ele>698.0</ele>
        <time>2018-03-30T07:51:04Z</time>
      </trkpt>
      <trkpt lat="38.4964230" lon="-0.6543500">
        <ele>698.2</ele>
        <time>2018-03-30T07:51:05Z</time>
      </trkpt>
      <trkpt lat="38.4964400" lon="-0.6543400">
        <ele>698.4</ele>
        <time>2018-03-30T07:51:06Z</time>
      </trkpt>
      <trkpt lat="38.4964540" lon="-0.6543280">
        <ele>698.5</ele>
        <time>2018-03-30T07:51:07Z</time>
      </trkpt>
      <trkpt lat="38.4964670" lon="-0.6543170">
        <ele>698.7</ele>
        <time>2018-03-30T07:51:08Z</time>
      </trkpt>
      <trkpt lat="38.4964790" lon="-0.6543060">
        <ele>698.9</ele>
        <time>2018-03-30T07:51:09Z</time>
      </trkpt>
      <trkpt lat="38.4964930" lon="-0.6542930">
        <ele>699.0</ele>
        <time>2018-03-30T07:51:10Z</time>
      </trkpt>
      <trkpt lat="38.4965060" lon="-0.6542840">
        <ele>699.2</ele>
        <time>2018-03-30T07:51:11Z</time>
      </trkpt>
      <trkpt lat="38.4965190" lon="-0.6542740">
        <ele>699.3</ele>
        <time>2018-03-30T07:51:12Z</time>
      </trkpt>
      <trkpt lat="38.4965360" lon="-0.6542650">
        <ele>699.6</ele>
        <time>2018-03-30T07:51:13Z</time>
      </trkpt>
      <trkpt lat="38.4965490" lon="-0.6542530">
        <ele>699.9</ele>
        <time>2018-03-30T07:51:14Z</time>
      </trkpt>
      <trkpt lat="38.4965630" lon="-0.6542370">
        <ele>700.1</ele>
        <time>2018-03-30T07:51:15Z</time>
      </trkpt>
      <trkpt lat="38.4965770" lon="-0.6542220">
        <ele>700.3</ele>
        <time>2018-03-30T07:51:16Z</time>
      </trkpt>
      <trkpt lat="38.4965910" lon="-0.6542060">
        <ele>700.5</ele>
        <time>2018-03-30T07:51:17Z</time>
      </trkpt>
      <trkpt lat="38.4966040" lon="-0.6541910">
        <ele>700.7</ele>
        <time>2018-03-30T07:51:18Z</time>
      </trkpt>
      <trkpt lat="38.4966150" lon="-0.6541780">
        <ele>700.9</ele>
        <time>2018-03-30T07:51:19Z</time>
      </trkpt>
      <trkpt lat="38.4966240" lon="-0.6541650">
        <ele>701.2</ele>
        <time>2018-03-30T07:51:20Z</time>
      </trkpt>
      <trkpt lat="38.4966310" lon="-0.6541460">
        <ele>701.4</ele>
        <time>2018-03-30T07:51:21Z</time>
      </trkpt>
      <trkpt lat="38.4966400" lon="-0.6541310">
        <ele>701.5</ele>
        <time>2018-03-30T07:51:22Z</time>
      </trkpt>
      <trkpt lat="38.4966480" lon="-0.6541160">
        <ele>701.6</ele>
        <time>2018-03-30T07:51:23Z</time>
      </trkpt>
      <trkpt lat="38.4966600" lon="-0.6541000">
        <ele>701.8</ele>
        <time>2018-03-30T07:51:24Z</time>
      </trkpt>
      <trkpt lat="38.4966680" lon="-0.6540860">
        <ele>702.0</ele>
        <time>2018-03-30T07:51:25Z</time>
      </trkpt>
      <trkpt lat="38.4966780" lon="-0.6540700">
        <ele>702.3</ele>
        <time>2018-03-30T07:51:26Z</time>
      </trkpt>
      <trkpt lat="38.4966870" lon="-0.6540570">
        <ele>702.5</ele>
        <time>2018-03-30T07:51:27Z</time>
      </trkpt>
      <trkpt lat="38.4966970" lon="-0.6540410">
        <ele>702.7</ele>
        <time>2018-03-30T07:51:28Z</time>
      </trkpt>
      <trkpt lat="38.4967080" lon="-0.6540240">
        <ele>702.9</ele>
        <time>2018-03-30T07:51:29Z</time>
      </trkpt>
      <trkpt lat="38.4967150" lon="-0.6540040">
        <ele>703.0</ele>
        <time>2018-03-30T07:51:30Z</time>
      </trkpt>
      <trkpt lat="38.4967260" lon="-0.6539870">
        <ele>703.2</ele>
        <time>2018-03-30T07:51:31Z</time>
      </trkpt>
      <trkpt lat="38.4967310" lon="-0.6539660">
        <ele>703.3</ele>
        <time>2018-03-30T07:51:32Z</time>
      </trkpt>
      <trkpt lat="38.4967380" lon="-0.6539480">
        <ele>703.5</ele>
        <time>2018-03-30T07:51:33Z</time>
      </trkpt>
      <trkpt lat="38.4967470" lon="-0.6539350">
        <ele>703.7</ele>
        <time>2018-03-30T07:51:34Z</time>
      </trkpt>
      <trkpt lat="38.4967580" lon="-0.6539180">
        <ele>703.9</ele>
        <time>2018-03-30T07:51:35Z</time>
      </trkpt>
      <trkpt lat="38.4967690" lon="-0.6539040">
        <ele>704.1</ele>
        <time>2018-03-30T07:51:36Z</time>
      </trkpt>
      <trkpt lat="38.4967800" lon="-0.6538890">
        <ele>704.3</ele>
        <time>2018-03-30T07:51:37Z</time>
      </trkpt>
      <trkpt lat="38.4967880" lon="-0.6538710">
        <ele>704.5</ele>
        <time>2018-03-30T07:51:38Z</time>
      </trkpt>
      <trkpt lat="38.4967950" lon="-0.6538570">
        <ele>704.7</ele>
        <time>2018-03-30T07:51:39Z</time>
      </trkpt>
      <trkpt lat="38.4967990" lon="-0.6538380">
        <ele>704.9</ele>
        <time>2018-03-30T07:51:40Z</time>
      </trkpt>
      <trkpt lat="38.4968080" lon="-0.6538220">
        <ele>705.2</ele>
        <time>2018-03-30T07:51:41Z</time>
      </trkpt>
      <trkpt lat="38.4968130" lon="-0.6538070">
        <ele>705.3</ele>
        <time>2018-03-30T07:51:42Z</time>
      </trkpt>
      <trkpt lat="38.4968240" lon="-0.6537930">
        <ele>705.5</ele>
        <time>2018-03-30T07:51:43Z</time>
      </trkpt>
      <trkpt lat="38.4968310" lon="-0.6537760">
        <ele>705.6</ele>
        <time>2018-03-30T07:51:44Z</time>
      </trkpt>
      <trkpt lat="38.4968380" lon="-0.6537620">
        <ele>705.8</ele>
        <time>2018-03-30T07:51:45Z</time>
      </trkpt>
      <trkpt lat="38.4968430" lon="-0.6537480">
        <ele>705.9</ele>
        <time>2018-03-30T07:51:46Z</time>
      </trkpt>
      <trkpt lat="38.4968560" lon="-0.6537380">
        <ele>706.1</ele>
        <time>2018-03-30T07:51:47Z</time>
      </trkpt>
      <trkpt lat="38.4968680" lon="-0.6537240">
        <ele>706.3</ele>
        <time>2018-03-30T07:51:48Z</time>
      </trkpt>
      <trkpt lat="38.4968780" lon="-0.6537110">
        <ele>706.5</ele>
        <time>2018-03-30T07:51:49Z</time>
      </trkpt>
      <trkpt lat="38.4968880" lon="-0.6536990">
        <ele>706.7</ele>
        <time>2018-03-30T07:51:50Z</time>
      </trkpt>
      <trkpt lat="38.4968980" lon="-0.6536860">
        <ele>706.9</ele>
        <time>2018-03-30T07:51:51Z</time>
      </trkpt>
      <trkpt lat="38.4969050" lon="-0.6536740">
        <ele>707.1</ele>
        <time>2018-03-30T07:51:52Z</time>
      </trkpt>
      <trkpt lat="38.4969140" lon="-0.6536630">
        <ele>707.2</ele>
        <time>2018-03-30T07:51:53Z</time>
      </trkpt>
      <trkpt lat="38.4969330" lon="-0.6536560">
        <ele>707.4</ele>
        <time>2018-03-30T07:51:54Z</time>
      </trkpt>
      <trkpt lat="38.4969510" lon="-0.6536520">
        <ele>707.5</ele>
        <time>2018-03-30T07:51:55Z</time>
      </trkpt>
      <trkpt lat="38.4969650" lon="-0.6536450">
        <ele>707.7</ele>
        <time>2018-03-30T07:51:56Z</time>
      </trkpt>
      <trkpt lat="38.4969800" lon="-0.6536300">
        <ele>707.9</ele>
        <time>2018-03-30T07:51:57Z</time>
      </trkpt>
      <trkpt lat="38.4969920" lon="-0.6536180">
        <ele>708.2</ele>
        <time>2018-03-30T07:51:58Z</time>
      </trkpt>
      <trkpt lat="38.4970020" lon="-0.6536030">
        <ele>708.3</ele>
        <time>2018-03-30T07:51:59Z</time>
      </trkpt>
      <trkpt lat="38.4970270" lon="-0.6535950">
        <ele>708.7</ele>
        <time>2018-03-30T07:52:00Z</time>
      </trkpt>
      <trkpt lat="38.4970430" lon="-0.6535890">
        <ele>708.9</ele>
        <time>2018-03-30T07:52:01Z</time>
      </trkpt>
      <trkpt lat="38.4970560" lon="-0.6535890">
        <ele>709.1</ele>
        <time>2018-03-30T07:52:02Z</time>
      </trkpt>
      <trkpt lat="38.4970560" lon="-0.6535880">
        <ele>709.1</ele>
        <time>2018-03-30T07:52:03Z</time>
      </trkpt>
      <trkpt lat="38.4970590" lon="-0.6535840">
        <ele>709.2</ele>
        <time>2018-03-30T07:52:04Z</time>
      </trkpt>
      <trkpt lat="38.4970660" lon="-0.6535870">
        <ele>709.3</ele>
        <time>2018-03-30T07:52:05Z</time>
      </trkpt>
      <trkpt lat="38.4970760" lon="-0.6535840">
        <ele>709.4</ele>
        <time>2018-03-30T07:52:06Z</time>
      </trkpt>
      <trkpt lat="38.4970950" lon="-0.6535780">
        <ele>709.7</ele>
        <time>2018-03-30T07:52:07Z</time>
      </trkpt>
      <trkpt lat="38.4971120" lon="-0.6535830">
        <ele>710.0</ele>
        <time>2018-03-30T07:52:08Z</time>
      </trkpt>
      <trkpt lat="38.4971230" lon="-0.6535810">
        <ele>710.1</ele>
        <time>2018-03-30T07:52:09Z</time>
      </trkpt>
      <trkpt lat="38.4971380" lon="-0.6535810">
        <ele>710.3</ele>
        <time>2018-03-30T07:52:10Z</time>
      </trkpt>
      <trkpt lat="38.4971510" lon="-0.6535800">
        <ele>710.5</ele>
        <time>2018-03-30T07:52:11Z</time>
      </trkpt>
      <trkpt lat="38.4971620" lon="-0.6535730">
        <ele>710.6</ele>
        <time>2018-03-30T07:52:12Z</time>
      </trkpt>
      <trkpt lat="38.4971700" lon="-0.6535690">
        <ele>710.8</ele>
        <time>2018-03-30T07:52:13Z</time>
      </trkpt>
      <trkpt lat="38.4971760" lon="-0.6535650">
        <ele>710.9</ele>
        <time>2018-03-30T07:52:14Z</time>
      </trkpt>
      <trkpt lat="38.4971780" lon="-0.6535610">
        <ele>710.9</ele>
        <time>2018-03-30T07:52:15Z</time>
      </trkpt>
      <trkpt lat="38.4971840" lon="-0.6535540">
        <ele>711.0</ele>
        <time>2018-03-30T07:52:16Z</time>
      </trkpt>
      <trkpt lat="38.4971860" lon="-0.6535420">
        <ele>711.2</ele>
        <time>2018-03-30T07:52:17Z</time>
      </trkpt>
      <trkpt lat="38.4971960" lon="-0.6535360">
        <ele>711.5</ele>
        <time>2018-03-30T07:52:18Z</time>
      </trkpt>
      <trkpt lat="38.4972040" lon="-0.6535240">
        <ele>711.7</ele>
        <time>2018-03-30T07:52:19Z</time>
      </trkpt>
      <trkpt lat="38.4972070" lon="-0.6535190">
        <ele>711.7</ele>
        <time>2018-03-30T07:52:20Z</time>
      </trkpt>
      <trkpt lat="38.4972100" lon="-0.6535220">
        <ele>711.8</ele>
        <time>2018-03-30T07:52:21Z</time>
      </trkpt>
      <trkpt lat="38.4972130" lon="-0.6535200">
        <ele>711.8</ele>
        <time>2018-03-30T07:52:22Z</time>
      </trkpt>
      <trkpt lat="38.4972130" lon="-0.6535130">
        <ele>711.9</ele>
        <time>2018-03-30T07:52:23Z</time>
      </trkpt>
      <trkpt lat="38.4972170" lon="-0.6535060">
        <ele>712.0</ele>
        <time>2018-03-30T07:52:24Z</time>
      </trkpt>
      <trkpt lat="38.4972210" lon="-0.6534980">
        <ele>712.2</ele>
        <time>2018-03-30T07:52:25Z</time>
      </trkpt>
      <trkpt lat="38.4972240" lon="-0.6534870">
        <ele>712.4</ele>
        <time>2018-03-30T07:52:26Z</time>
      </trkpt>
      <trkpt lat="38.4972280" lon="-0.6534780">
        <ele>712.6</ele>
        <time>2018-03-30T07:52:27Z</time>
      </trkpt>
      <trkpt lat="38.4972320" lon="-0.6534660">
        <ele>712.8</ele>
        <time>2018-03-30T07:52:28Z</time>
      </trkpt>
      <trkpt lat="38.4972360" lon="-0.6534530">
        <ele>713.0</ele>
        <time>2018-03-30T07:52:29Z</time>
      </trkpt>
      <trkpt lat="38.4972420" lon="-0.6534400">
        <ele>713.1</ele>
        <time>2018-03-30T07:52:30Z</time>
      </trkpt>
      <trkpt lat="38.4972470" lon="-0.6534260">
        <ele>713.3</ele>
        <time>2018-03-30T07:52:31Z</time>
      </trkpt>
      <trkpt lat="38.4972510" lon="-0.6534130">
        <ele>713.4</ele>
        <time>2018-03-30T07:52:32Z</time>
      </trkpt>
      <trkpt lat="38.4972530" lon="-0.6534020">
        <ele>713.5</ele>
        <time>2018-03-30T07:52:33Z</time>
      </trkpt>
      <trkpt lat="38.4972590" lon="-0.6533900">
        <ele>713.6</ele>
        <time>2018-03-30T07:52:34Z</time>
      </trkpt>
      <trkpt lat="38.4972600" lon="-0.6533810">
        <ele>713.7</ele>
        <time>2018-03-30T07:52:35Z</time>
      </trkpt>
      <trkpt lat="38.4972640" lon="-0.6533680">
        <ele>713.8</ele>
        <time>2018-03-30T07:52:36Z</time>
      </trkpt>
      <trkpt lat="38.4972680" lon="-0.6533550">
        <ele>714.0</ele>
        <time>2018-03-30T07:52:37Z</time>
      </trkpt>
      <trkpt lat="38.4972700" lon="-0.6533330">
        <ele>714.3</ele>
        <time>2018-03-30T07:52:38Z</time>
      </trkpt>
      <trkpt lat="38.4972750" lon="-0.6533150">
        <ele>714.5</ele>
        <time>2018-03-30T07:52:39Z</time>
      </trkpt>
      <trkpt lat="38.4972830" lon="-0.6532990">
        <ele>714.8</ele>
        <time>2018-03-30T07:52:40Z</time>
      </trkpt>
      <trkpt lat="38.4972930" lon="-0.6532820">
        <ele>715.1</ele>
        <time>2018-03-30T07:52:41Z</time>
      </trkpt>
      <trkpt lat="38.4972970" lon="-0.6532640">
        <ele>715.3</ele>
        <time>2018-03-30T07:52:42Z</time>
      </trkpt>
      <trkpt lat="38.4973030" lon="-0.6532450">
        <ele>715.5</ele>
        <time>2018-03-30T07:52:43Z</time>
      </trkpt>
      <trkpt lat="38.4973050" lon="-0.6532270">
        <ele>715.7</ele>
        <time>2018-03-30T07:52:44Z</time>
      </trkpt>
      <trkpt lat="38.4973070" lon="-0.6532070">
        <ele>715.9</ele>
        <time>2018-03-30T07:52:45Z</time>
      </trkpt>
      <trkpt lat="38.4973140" lon="-0.6531870">
        <ele>716.3</ele>
        <time>2018-03-30T07:52:46Z</time>
      </trkpt>
      <trkpt lat="38.4973160" lon="-0.6531700">
        <ele>716.5</ele>
        <time>2018-03-30T07:52:47Z</time>
      </trkpt>
      <trkpt lat="38.4973230" lon="-0.6531530">
        <ele>716.7</ele>
        <time>2018-03-30T07:52:48Z</time>
      </trkpt>
      <trkpt lat="38.4973290" lon="-0.6531340">
        <ele>716.9</ele>
        <time>2018-03-30T07:52:49Z</time>
      </trkpt>
      <trkpt lat="38.4973360" lon="-0.6531170">
        <ele>717.1</ele>
        <time>2018-03-30T07:52:50Z</time>
      </trkpt>
      <trkpt lat="38.4973440" lon="-0.6530990">
        <ele>717.2</ele>
        <time>2018-03-30T07:52:51Z</time>
      </trkpt>
      <trkpt lat="38.4973520" lon="-0.6530800">
        <ele>717.4</ele>
        <time>2018-03-30T07:52:52Z</time>
      </trkpt>
      <trkpt lat="38.4973580" lon="-0.6530610">
        <ele>717.6</ele>
        <time>2018-03-30T07:52:53Z</time>
      </trkpt>
      <trkpt lat="38.4973660" lon="-0.6530410">
        <ele>717.7</ele>
        <time>2018-03-30T07:52:54Z</time>
      </trkpt>
      <trkpt lat="38.4973730" lon="-0.6530200">
        <ele>717.9</ele>
        <time>2018-03-30T07:52:55Z</time>
      </trkpt>
      <trkpt lat="38.4973790" lon="-0.6530030">
        <ele>718.2</ele>
        <time>2018-03-30T07:52:56Z</time>
      </trkpt>
      <trkpt lat="38.4973730" lon="-0.6529980">
        <ele>718.3</ele>
        <time>2018-03-30T07:52:57Z</time>
      </trkpt>
      <trkpt lat="38.4973720" lon="-0.6529940">
        <ele>718.4</ele>
        <time>2018-03-30T07:52:58Z</time>
      </trkpt>
      <trkpt lat="38.4973730" lon="-0.6529940">
        <ele>718.4</ele>
        <time>2018-03-30T07:52:59Z</time>
      </trkpt>
      <trkpt lat="38.4973750" lon="-0.6529810">
        <ele>718.5</ele>
        <time>2018-03-30T07:53:00Z</time>
      </trkpt>
      <trkpt lat="38.4973770" lon="-0.6529750">
        <ele>718.5</ele>
        <time>2018-03-30T07:53:01Z</time>
      </trkpt>
      <trkpt lat="38.4973770" lon="-0.6529640">
        <ele>718.6</ele>
        <time>2018-03-30T07:53:02Z</time>
      </trkpt>
      <trkpt lat="38.4973770" lon="-0.6529520">
        <ele>718.7</ele>
        <time>2018-03-30T07:53:03Z</time>
      </trkpt>
      <trkpt lat="38.4973820" lon="-0.6529420">
        <ele>718.8</ele>
        <time>2018-03-30T07:53:04Z</time>
      </trkpt>
      <trkpt lat="38.4973830" lon="-0.6529310">
        <ele>718.9</ele>
        <time>2018-03-30T07:53:05Z</time>
      </trkpt>
      <trkpt lat="38.4973900" lon="-0.6529200">
        <ele>719.1</ele>
        <time>2018-03-30T07:53:06Z</time>
      </trkpt>
      <trkpt lat="38.4973910" lon="-0.6529090">
        <ele>719.1</ele>
        <time>2018-03-30T07:53:07Z</time>
      </trkpt>
      <trkpt lat="38.4973920" lon="-0.6529040">
        <ele>719.2</ele>
        <time>2018-03-30T07:53:08Z</time>
      </trkpt>
      <trkpt lat="38.4973980" lon="-0.6529000">
        <ele>719.3</ele>
        <time>2018-03-30T07:53:09Z</time>
      </trkpt>
      <trkpt lat="38.4973940" lon="-0.6528900">
        <ele>719.5</ele>
        <time>2018-03-30T07:53:10Z</time>
      </trkpt>
      <trkpt lat="38.4973950" lon="-0.6528890">
        <ele>719.6</ele>
        <time>2018-03-30T07:53:11Z</time>
      </trkpt>
      <trkpt lat="38.4973910" lon="-0.6528840">
        <ele>719.6</ele>
        <time>2018-03-30T07:53:12Z</time>
      </trkpt>
      <trkpt lat="38.4973880" lon="-0.6528830">
        <ele>719.7</ele>
        <time>2018-03-30T07:53:13Z</time>
      </trkpt>
      <trkpt lat="38.4973880" lon="-0.6528770">
        <ele>719.7</ele>
        <time>2018-03-30T07:53:14Z</time>
      </trkpt>
      <trkpt lat="38.4973950" lon="-0.6528680">
        <ele>719.8</ele>
        <time>2018-03-30T07:53:15Z</time>
      </trkpt>
      <trkpt lat="38.4973970" lon="-0.6528520">
        <ele>720.0</ele>
        <time>2018-03-30T07:53:16Z</time>
      </trkpt>
      <trkpt lat="38.4974020" lon="-0.6528340">
        <ele>720.1</ele>
        <time>2018-03-30T07:53:17Z</time>
      </trkpt>
      <trkpt lat="38.4974080" lon="-0.6528190">
        <ele>720.3</ele>
        <time>2018-03-30T07:53:18Z</time>
      </trkpt>
      <trkpt lat="38.4974130" lon="-0.6528000">
        <ele>720.5</ele>
        <time>2018-03-30T07:53:19Z</time>
      </trkpt>
      <trkpt lat="38.4974120" lon="-0.6527790">
        <ele>720.9</ele>
        <time>2018-03-30T07:53:20Z</time>
      </trkpt>
      <trkpt lat="38.4974170" lon="-0.6527570">
        <ele>721.2</ele>
        <time>2018-03-30T07:53:21Z</time>
      </trkpt>
      <trkpt lat="38.4974230" lon="-0.6527390">
        <ele>721.4</ele>
        <time>2018-03-30T07:53:22Z</time>
      </trkpt>
      <trkpt lat="38.4974300" lon="-0.6527190">
        <ele>721.6</ele>
        <time>2018-03-30T07:53:23Z</time>
      </trkpt>
      <trkpt lat="38.4974360" lon="-0.6527000">
        <ele>721.8</ele>
        <time>2018-03-30T07:53:24Z</time>
      </trkpt>
      <trkpt lat="38.4974420" lon="-0.6526830">
        <ele>722.0</ele>
        <time>2018-03-30T07:53:25Z</time>
      </trkpt>
      <trkpt lat="38.4974460" lon="-0.6526620">
        <ele>722.2</ele>
        <time>2018-03-30T07:53:26Z</time>
      </trkpt>
      <trkpt lat="38.4974480" lon="-0.6526370">
        <ele>722.4</ele>
        <time>2018-03-30T07:53:27Z</time>
      </trkpt>
      <trkpt lat="38.4974550" lon="-0.6526200">
        <ele>722.6</ele>
        <time>2018-03-30T07:53:28Z</time>
      </trkpt>
      <trkpt lat="38.4974630" lon="-0.6526030">
        <ele>722.7</ele>
        <time>2018-03-30T07:53:29Z</time>
      </trkpt>
      <trkpt lat="38.4974700" lon="-0.6525840">
        <ele>722.9</ele>
        <time>2018-03-30T07:53:30Z</time>
      </trkpt>
      <trkpt lat="38.4974840" lon="-0.6525660">
        <ele>723.2</ele>
        <time>2018-03-30T07:53:31Z</time>
      </trkpt>
      <trkpt lat="38.4974920" lon="-0.6525430">
        <ele>723.4</ele>
        <time>2018-03-30T07:53:32Z</time>
      </trkpt>
      <trkpt lat="38.4974980" lon="-0.6525260">
        <ele>723.5</ele>
        <time>2018-03-30T07:53:33Z</time>
      </trkpt>
      <trkpt lat="38.4975070" lon="-0.6525130">
        <ele>723.7</ele>
        <time>2018-03-30T07:53:34Z</time>
      </trkpt>
      <trkpt lat="38.4975130" lon="-0.6524960">
        <ele>723.9</ele>
        <time>2018-03-30T07:53:35Z</time>
      </trkpt>
      <trkpt lat="38.4975230" lon="-0.6524770">
        <ele>724.1</ele>
        <time>2018-03-30T07:53:36Z</time>
      </trkpt>
      <trkpt lat="38.4975290" lon="-0.6524610">
        <ele>724.2</ele>
        <time>2018-03-30T07:53:37Z</time>
      </trkpt>
      <trkpt lat="38.4975400" lon="-0.6524450">
        <ele>724.4</ele>
        <time>2018-03-30T07:53:38Z</time>
      </trkpt>
      <trkpt lat="38.4975460" lon="-0.6524260">
        <ele>724.6</ele>
        <time>2018-03-30T07:53:39Z</time>
      </trkpt>
      <trkpt lat="38.4975520" lon="-0.6524120">
        <ele>724.8</ele>
        <time>2018-03-30T07:53:40Z</time>
      </trkpt>
      <trkpt lat="38.4975580" lon="-0.6523980">
        <ele>724.9</ele>
        <time>2018-03-30T07:53:41Z</time>
      </trkpt>
      <trkpt lat="38.4975640" lon="-0.6523830">
        <ele>725.1</ele>
        <time>2018-03-30T07:53:42Z</time>
      </trkpt>
      <trkpt lat="38.4975700" lon="-0.6523680">
        <ele>725.4</ele>
        <time>2018-03-30T07:53:43Z</time>
      </trkpt>
      <trkpt lat="38.4975790" lon="-0.6523550">
        <ele>725.6</ele>
        <time>2018-03-30T07:53:44Z</time>
      </trkpt>
      <trkpt lat="38.4975790" lon="-0.6523420">
        <ele>725.7</ele>
        <time>2018-03-30T07:53:45Z</time>
      </trkpt>
      <trkpt lat="38.4975840" lon="-0.6523280">
        <ele>725.8</ele>
        <time>2018-03-30T07:53:46Z</time>
      </trkpt>
      <trkpt lat="38.4975960" lon="-0.6523140">
        <ele>726.0</ele>
        <time>2018-03-30T07:53:47Z</time>
      </trkpt>
      <trkpt lat="38.4976060" lon="-0.6523010">
        <ele>726.2</ele>
        <time>2018-03-30T07:53:48Z</time>
      </trkpt>
      <trkpt lat="38.4976270" lon="-0.6522930">
        <ele>726.5</ele>
        <time>2018-03-30T07:53:49Z</time>
      </trkpt>
      <trkpt lat="38.4976480" lon="-0.6522830">
        <ele>726.8</ele>
        <time>2018-03-30T07:53:50Z</time>
      </trkpt>
      <trkpt lat="38.4976590" lon="-0.6522690">
        <ele>727.0</ele>
        <time>2018-03-30T07:53:51Z</time>
      </trkpt>
      <trkpt lat="38.4976610" lon="-0.6522540">
        <ele>727.1</ele>
        <time>2018-03-30T07:53:52Z</time>
      </trkpt>
      <trkpt lat="38.4976710" lon="-0.6522400">
        <ele>727.4</ele>
        <time>2018-03-30T07:53:53Z</time>
      </trkpt>
      <trkpt lat="38.4976750" lon="-0.6522270">
        <ele>727.5</ele>
        <time>2018-03-30T07:53:54Z</time>
      </trkpt>
      <trkpt lat="38.4976880" lon="-0.6522160">
        <ele>727.7</ele>
        <time>2018-03-30T07:53:55Z</time>
      </trkpt>
      <trkpt lat="38.4977010" lon="-0.6522010">
        <ele>727.9</ele>
        <time>2018-03-30T07:53:56Z</time>
      </trkpt>
      <trkpt lat="38.4977160" lon="-0.6521870">
        <ele>728.2</ele>
        <time>2018-03-30T07:53:57Z</time>
      </trkpt>
      <trkpt lat="38.4977280" lon="-0.6521730">
        <ele>728.4</ele>
        <time>2018-03-30T07:53:58Z</time>
      </trkpt>
      <trkpt lat="38.4977360" lon="-0.6521550">
        <ele>728.6</ele>
        <time>2018-03-30T07:53:59Z</time>
      </trkpt>
      <trkpt lat="38.4977430" lon="-0.6521370">
        <ele>728.8</ele>
        <time>2018-03-30T07:54:00Z</time>
      </trkpt>
      <trkpt lat="38.4977540" lon="-0.6521200">
        <ele>729.0</ele>
        <time>2018-03-30T07:54:01Z</time>
      </trkpt>
      <trkpt lat="38.4977570" lon="-0.6521030">
        <ele>729.2</ele>
        <time>2018-03-30T07:54:02Z</time>
      </trkpt>
      <trkpt lat="38.4977640" lon="-0.6520920">
        <ele>729.3</ele>
        <time>2018-03-30T07:54:03Z</time>
      </trkpt>
      <trkpt lat="38.4977710" lon="-0.6520800">
        <ele>729.5</ele>
        <time>2018-03-30T07:54:04Z</time>
      </trkpt>
      <trkpt lat="38.4977770" lon="-0.6520690">
        <ele>729.8</ele>
        <time>2018-03-30T07:54:05Z</time>
      </trkpt>
      <trkpt lat="38.4977870" lon="-0.6520520">
        <ele>730.1</ele>
        <time>2018-03-30T07:54:06Z</time>
      </trkpt>
      <trkpt lat="38.4977960" lon="-0.6520320">
        <ele>730.3</ele>
        <time>2018-03-30T07:54:07Z</time>
      </trkpt>
      <trkpt lat="38.4977970" lon="-0.6520110">
        <ele>730.5</ele>
        <time>2018-03-30T07:54:08Z</time>
      </trkpt>
      <trkpt lat="38.4977990" lon="-0.6519910">
        <ele>730.7</ele>
        <time>2018-03-30T07:54:09Z</time>
      </trkpt>
      <trkpt lat="38.4978020" lon="-0.6519740">
        <ele>730.8</ele>
        <time>2018-03-30T07:54:10Z</time>
      </trkpt>
      <trkpt lat="38.4978180" lon="-0.6519570">
        <ele>731.0</ele>
        <time>2018-03-30T07:54:11Z</time>
      </trkpt>
      <trkpt lat="38.4978270" lon="-0.6519390">
        <ele>731.2</ele>
        <time>2018-03-30T07:54:12Z</time>
      </trkpt>
      <trkpt lat="38.4978340" lon="-0.6519250">
        <ele>731.3</ele>
        <time>2018-03-30T07:54:13Z</time>
      </trkpt>
      <trkpt lat="38.4978420" lon="-0.6519100">
        <ele>731.4</ele>
        <time>2018-03-30T07:54:14Z</time>
      </trkpt>
      <trkpt lat="38.4978510" lon="-0.6518930">
        <ele>731.5</ele>
        <time>2018-03-30T07:54:15Z</time>
      </trkpt>
      <trkpt lat="38.4978580" lon="-0.6518790">
        <ele>731.7</ele>
        <time>2018-03-30T07:54:16Z</time>
      </trkpt>
      <trkpt lat="38.4978640" lon="-0.6518650">
        <ele>731.8</ele>
        <time>2018-03-30T07:54:17Z</time>
      </trkpt>
      <trkpt lat="38.4978750" lon="-0.6518520">
        <ele>732.0</ele>
        <time>2018-03-30T07:54:18Z</time>
      </trkpt>
      <trkpt lat="38.4978830" lon="-0.6518390">
        <ele>732.1</ele>
        <time>2018-03-30T07:54:19Z</time>
      </trkpt>
      <trkpt lat="38.4978950" lon="-0.6518270">
        <ele>732.2</ele>
        <time>2018-03-30T07:54:20Z</time>
      </trkpt>
      <trkpt lat="38.4979060" lon="-0.6518140">
        <ele>732.5</ele>
        <time>2018-03-30T07:54:21Z</time>
      </trkpt>
      <trkpt lat="38.4979150" lon="-0.6518040">
        <ele>732.7</ele>
        <time>2018-03-30T07:54:22Z</time>
      </trkpt>
      <trkpt lat="38.4979320" lon="-0.6517980">
        <ele>732.8</ele>
        <time>2018-03-30T07:54:23Z</time>
      </trkpt>
      <trkpt lat="38.4979440" lon="-0.6517940">
        <ele>732.9</ele>
        <time>2018-03-30T07:54:24Z</time>
      </trkpt>
      <trkpt lat="38.4979570" lon="-0.6517840">
        <ele>733.1</ele>
        <time>2018-03-30T07:54:25Z</time>
      </trkpt>
      <trkpt lat="38.4979750" lon="-0.6517810">
        <ele>733.2</ele>
        <time>2018-03-30T07:54:26Z</time>
      </trkpt>
      <trkpt lat="38.4979950" lon="-0.6517770">
        <ele>733.4</ele>
        <time>2018-03-30T07:54:27Z</time>
      </trkpt>
      <trkpt lat="38.4980090" lon="-0.6517730">
        <ele>733.7</ele>
        <time>2018-03-30T07:54:28Z</time>
      </trkpt>
      <trkpt lat="38.4980200" lon="-0.6517660">
        <ele>734.0</ele>
        <time>2018-03-30T07:54:29Z</time>
      </trkpt>
      <trkpt lat="38.4980340" lon="-0.6517630">
        <ele>734.2</ele>
        <time>2018-03-30T07:54:30Z</time>
      </trkpt>
      <trkpt lat="38.4980470" lon="-0.6517580">
        <ele>734.4</ele>
        <time>2018-03-30T07:54:31Z</time>
      </trkpt>
      <trkpt lat="38.4980570" lon="-0.6517530">
        <ele>734.6</ele>
        <time>2018-03-30T07:54:32Z</time>
      </trkpt>
      <trkpt lat="38.4980680" lon="-0.6517480">
        <ele>734.7</ele>
        <time>2018-03-30T07:54:33Z</time>
      </trkpt>
      <trkpt lat="38.4980830" lon="-0.6517440">
        <ele>734.9</ele>
        <time>2018-03-30T07:54:34Z</time>
      </trkpt>
      <trkpt lat="38.4980940" lon="-0.6517400">
        <ele>735.1</ele>
        <time>2018-03-30T07:54:35Z</time>
      </trkpt>
      <trkpt lat="38.4981030" lon="-0.6517350">
        <ele>735.2</ele>
        <time>2018-03-30T07:54:36Z</time>
      </trkpt>
      <trkpt lat="38.4981140" lon="-0.6517280">
        <ele>735.4</ele>
        <time>2018-03-30T07:54:37Z</time>
      </trkpt>
      <trkpt lat="38.4981250" lon="-0.6517220">
        <ele>735.7</ele>
        <time>2018-03-30T07:54:38Z</time>
      </trkpt>
      <trkpt lat="38.4981350" lon="-0.6517160">
        <ele>735.8</ele>
        <time>2018-03-30T07:54:39Z</time>
      </trkpt>
      <trkpt lat="38.4981470" lon="-0.6517100">
        <ele>735.9</ele>
        <time>2018-03-30T07:54:40Z</time>
      </trkpt>
      <trkpt lat="38.4981620" lon="-0.6517020">
        <ele>736.1</ele>
        <time>2018-03-30T07:54:41Z</time>
      </trkpt>
      <trkpt lat="38.4981760" lon="-0.6516960">
        <ele>736.3</ele>
        <time>2018-03-30T07:54:42Z</time>
      </trkpt>
      <trkpt lat="38.4981850" lon="-0.6516850">
        <ele>736.4</ele>
        <time>2018-03-30T07:54:43Z</time>
      </trkpt>
      <trkpt lat="38.4981930" lon="-0.6516730">
        <ele>736.7</ele>
        <time>2018-03-30T07:54:44Z</time>
      </trkpt>
      <trkpt lat="38.4982010" lon="-0.6516600">
        <ele>737.0</ele>
        <time>2018-03-30T07:54:45Z</time>
      </trkpt>
      <trkpt lat="38.4982090" lon="-0.6516460">
        <ele>737.3</ele>
        <time>2018-03-30T07:54:46Z</time>
      </trkpt>
      <trkpt lat="38.4982150" lon="-0.6516330">
        <ele>737.4</ele>
        <time>2018-03-30T07:54:47Z</time>
      </trkpt>
      <trkpt lat="38.4982250" lon="-0.6516180">
        <ele>737.7</ele>
        <time>2018-03-30T07:54:48Z</time>
      </trkpt>
      <trkpt lat="38.4982370" lon="-0.6516070">
        <ele>737.9</ele>
        <time>2018-03-30T07:54:49Z</time>
      </trkpt>
      <trkpt lat="38.4982440" lon="-0.6515940">
        <ele>738.0</ele>
        <time>2018-03-30T07:54:50Z</time>
      </trkpt>
      <trkpt lat="38.4982450" lon="-0.6515760">
        <ele>738.2</ele>
        <time>2018-03-30T07:54:51Z</time>
      </trkpt>
      <trkpt lat="38.4982480" lon="-0.6515560">
        <ele>738.5</ele>
        <time>2018-03-30T07:54:52Z</time>
      </trkpt>
      <trkpt lat="38.4982500" lon="-0.6515390">
        <ele>738.7</ele>
        <time>2018-03-30T07:54:53Z</time>
      </trkpt>
      <trkpt lat="38.4982480" lon="-0.6515220">
        <ele>739.0</ele>
        <time>2018-03-30T07:54:54Z</time>
      </trkpt>
      <trkpt lat="38.4982500" lon="-0.6515080">
        <ele>739.2</ele>
        <time>2018-03-30T07:54:55Z</time>
      </trkpt>
      <trkpt lat="38.4982500" lon="-0.6514930">
        <ele>739.4</ele>
        <time>2018-03-30T07:54:56Z</time>
      </trkpt>
      <trkpt lat="38.4982470" lon="-0.6514750">
        <ele>739.6</ele>
        <time>2018-03-30T07:54:57Z</time>
      </trkpt>
      <trkpt lat="38.4982440" lon="-0.6514600">
        <ele>739.8</ele>
        <time>2018-03-30T07:54:58Z</time>
      </trkpt>
      <trkpt lat="38.4982360" lon="-0.6514420">
        <ele>740.0</ele>
        <time>2018-03-30T07:54:59Z</time>
      </trkpt>
      <trkpt lat="38.4982330" lon="-0.6514270">
        <ele>740.1</ele>
        <time>2018-03-30T07:55:00Z</time>
      </trkpt>
      <trkpt lat="38.4982260" lon="-0.6514100">
        <ele>740.3</ele>
        <time>2018-03-30T07:55:01Z</time>
      </trkpt>
      <trkpt lat="38.4982210" lon="-0.6513940">
        <ele>740.5</ele>
        <time>2018-03-30T07:55:02Z</time>
      </trkpt>
      <trkpt lat="38.4982180" lon="-0.6513790">
        <ele>740.7</ele>
        <time>2018-03-30T07:55:03Z</time>
      </trkpt>
      <trkpt lat="38.4982140" lon="-0.6513620">
        <ele>740.9</ele>
        <time>2018-03-30T07:55:04Z</time>
      </trkpt>
      <trkpt lat="38.4982090" lon="-0.6513450">
        <ele>741.1</ele>
        <time>2018-03-30T07:55:05Z</time>
      </trkpt>
      <trkpt lat="38.4982060" lon="-0.6513280">
        <ele>741.3</ele>
        <time>2018-03-30T07:55:06Z</time>
      </trkpt>
      <trkpt lat="38.4982030" lon="-0.6513120">
        <ele>741.5</ele>
        <time>2018-03-30T07:55:07Z</time>
      </trkpt>
      <trkpt lat="38.4982010" lon="-0.6512970">
        <ele>741.7</ele>
        <time>2018-03-30T07:55:08Z</time>
      </trkpt>
      <trkpt lat="38.4982010" lon="-0.6512830">
        <ele>741.8</ele>
        <time>2018-03-30T07:55:09Z</time>
      </trkpt>
      <trkpt lat="38.4981980" lon="-0.6512660">
        <ele>742.0</ele>
        <time>2018-03-30T07:55:10Z</time>
      </trkpt>
      <trkpt lat="38.4981980" lon="-0.6512520">
        <ele>742.2</ele>
        <time>2018-03-30T07:55:11Z</time>
      </trkpt>
      <trkpt lat="38.4981970" lon="-0.6512360">
        <ele>742.5</ele>
        <time>2018-03-30T07:55:12Z</time>
      </trkpt>
      <trkpt lat="38.4981960" lon="-0.6512180">
        <ele>742.6</ele>
        <time>2018-03-30T07:55:13Z</time>
      </trkpt>
      <trkpt lat="38.4981950" lon="-0.6512020">
        <ele>742.8</ele>
        <time>2018-03-30T07:55:14Z</time>
      </trkpt>
      <trkpt lat="38.4981930" lon="-0.6511860">
        <ele>743.0</ele>
        <time>2018-03-30T07:55:15Z</time>
      </trkpt>
      <trkpt lat="38.4981920" lon="-0.6511690">
        <ele>743.1</ele>
        <time>2018-03-30T07:55:16Z</time>
      </trkpt>
      <trkpt lat="38.4981900" lon="-0.6511510">
        <ele>743.3</ele>
        <time>2018-03-30T07:55:17Z</time>
      </trkpt>
      <trkpt lat="38.4981880" lon="-0.6511340">
        <ele>743.5</ele>
        <time>2018-03-30T07:55:18Z</time>
      </trkpt>
      <trkpt lat="38.4981880" lon="-0.6511180">
        <ele>743.7</ele>
        <time>2018-03-30T07:55:19Z</time>
      </trkpt>
      <trkpt lat="38.4981870" lon="-0.6510990">
        <ele>743.9</ele>
        <time>2018-03-30T07:55:20Z</time>
      </trkpt>
      <trkpt lat="38.4981880" lon="-0.6510800">
        <ele>744.1</ele>
        <time>2018-03-30T07:55:21Z</time>
      </trkpt>
      <trkpt lat="38.4981840" lon="-0.6510610">
        <ele>744.3</ele>
        <time>2018-03-30T07:55:22Z</time>
      </trkpt>
      <trkpt lat="38.4981860" lon="-0.6510430">
        <ele>744.6</ele>
        <time>2018-03-30T07:55:23Z</time>
      </trkpt>
      <trkpt lat="38.4981860" lon="-0.6510250">
        <ele>744.8</ele>
        <time>2018-03-30T07:55:24Z</time>
      </trkpt>
      <trkpt lat="38.4981850" lon="-0.6510050">
        <ele>745.0</ele>
        <time>2018-03-30T07:55:25Z</time>
      </trkpt>
      <trkpt lat="38.4981880" lon="-0.6509880">
        <ele>745.2</ele>
        <time>2018-03-30T07:55:26Z</time>
      </trkpt>
      <trkpt lat="38.4981880" lon="-0.6509700">
        <ele>745.4</ele>
        <time>2018-03-30T07:55:27Z</time>
      </trkpt>
      <trkpt lat="38.4981900" lon="-0.6509520">
        <ele>745.7</ele>
        <time>2018-03-30T07:55:28Z</time>
      </trkpt>
      <trkpt lat="38.4981920" lon="-0.6509340">
        <ele>745.9</ele>
        <time>2018-03-30T07:55:29Z</time>
      </trkpt>
      <trkpt lat="38.4981960" lon="-0.6509170">
        <ele>746.1</ele>
        <time>2018-03-30T07:55:30Z</time>
      </trkpt>
      <trkpt lat="38.4982030" lon="-0.6509020">
        <ele>746.4</ele>
        <time>2018-03-30T07:55:31Z</time>
      </trkpt>
      <trkpt lat="38.4982110" lon="-0.6508890">
        <ele>746.7</ele>
        <time>2018-03-30T07:55:32Z</time>
      </trkpt>
      <trkpt lat="38.4982250" lon="-0.6508790">
        <ele>747.1</ele>
        <time>2018-03-30T07:55:33Z</time>
      </trkpt>
      <trkpt lat="38.4982360" lon="-0.6508710">
        <ele>747.3</ele>
        <time>2018-03-30T07:55:34Z</time>
      </trkpt>
      <trkpt lat="38.4982550" lon="-0.6508690">
        <ele>747.6</ele>
        <time>2018-03-30T07:55:35Z</time>
      </trkpt>
      <trkpt lat="38.4982690" lon="-0.6508690">
        <ele>747.9</ele>
        <time>2018-03-30T07:55:36Z</time>
      </trkpt>
      <trkpt lat="38.4982920" lon="-0.6508770">
        <ele>748.4</ele>
        <time>2018-03-30T07:55:37Z</time>
      </trkpt>
      <trkpt lat="38.4983070" lon="-0.6508840">
        <ele>748.7</ele>
        <time>2018-03-30T07:55:38Z</time>
      </trkpt>
      <trkpt lat="38.4983280" lon="-0.6508950">
        <ele>749.0</ele>
        <time>2018-03-30T07:55:39Z</time>
      </trkpt>
      <trkpt lat="38.4983400" lon="-0.6508990">
        <ele>749.3</ele>
        <time>2018-03-30T07:55:40Z</time>
      </trkpt>
      <trkpt lat="38.4983520" lon="-0.6509060">
        <ele>749.6</ele>
        <time>2018-03-30T07:55:41Z</time>
      </trkpt>
      <trkpt lat="38.4983640" lon="-0.6509110">
        <ele>749.9</ele>
        <time>2018-03-30T07:55:42Z</time>
      </trkpt>
      <trkpt lat="38.4983760" lon="-0.6509150">
        <ele>750.1</ele>
        <time>2018-03-30T07:55:43Z</time>
      </trkpt>
      <trkpt lat="38.4983880" lon="-0.6509190">
        <ele>750.3</ele>
        <time>2018-03-30T07:55:44Z</time>
      </trkpt>
      <trkpt lat="38.4983990" lon="-0.6509230">
        <ele>750.4</ele>
        <time>2018-03-30T07:55:45Z</time>
      </trkpt>
      <trkpt lat="38.4984090" lon="-0.6509270">
        <ele>750.6</ele>
        <time>2018-03-30T07:55:46Z</time>
      </trkpt>
      <trkpt lat="38.4984210" lon="-0.6509290">
        <ele>750.9</ele>
        <time>2018-03-30T07:55:47Z</time>
      </trkpt>
      <trkpt lat="38.4984310" lon="-0.6509310">
        <ele>751.1</ele>
        <time>2018-03-30T07:55:48Z</time>
      </trkpt>
      <trkpt lat="38.4984410" lon="-0.6509300">
        <ele>751.3</ele>
        <time>2018-03-30T07:55:49Z</time>
      </trkpt>
      <trkpt lat="38.4984560" lon="-0.6509270">
        <ele>751.6</ele>
        <time>2018-03-30T07:55:50Z</time>
      </trkpt>
      <trkpt lat="38.4984750" lon="-0.6509200">
        <ele>751.9</ele>
        <time>2018-03-30T07:55:51Z</time>
      </trkpt>
      <trkpt lat="38.4984910" lon="-0.6509140">
        <ele>752.1</ele>
        <time>2018-03-30T07:55:52Z</time>
      </trkpt>
      <trkpt lat="38.4985040" lon="-0.6509060">
        <ele>752.2</ele>
        <time>2018-03-30T07:55:53Z</time>
      </trkpt>
      <trkpt lat="38.4985140" lon="-0.6508970">
        <ele>752.4</ele>
        <time>2018-03-30T07:55:54Z</time>
      </trkpt>
      <trkpt lat="38.4985260" lon="-0.6508890">
        <ele>752.6</ele>
        <time>2018-03-30T07:55:55Z</time>
      </trkpt>
      <trkpt lat="38.4985380" lon="-0.6508810">
        <ele>752.8</ele>
        <time>2018-03-30T07:55:56Z</time>
      </trkpt>
      <trkpt lat="38.4985500" lon="-0.6508710">
        <ele>753.0</ele>
        <time>2018-03-30T07:55:57Z</time>
      </trkpt>
      <trkpt lat="38.4985590" lon="-0.6508630">
        <ele>753.1</ele>
        <time>2018-03-30T07:55:58Z</time>
      </trkpt>
      <trkpt lat="38.4985680" lon="-0.6508520">
        <ele>753.2</ele>
        <time>2018-03-30T07:55:59Z</time>
      </trkpt>
      <trkpt lat="38.4985790" lon="-0.6508400">
        <ele>753.3</ele>
        <time>2018-03-30T07:56:00Z</time>
      </trkpt>
      <trkpt lat="38.4985870" lon="-0.6508270">
        <ele>753.5</ele>
        <time>2018-03-30T07:56:01Z</time>
      </trkpt>
      <trkpt lat="38.4985950" lon="-0.6508150">
        <ele>753.6</ele>
        <time>2018-03-30T07:56:02Z</time>
      </trkpt>
      <trkpt lat="38.4986070" lon="-0.6507980">
        <ele>753.8</ele>
        <time>2018-03-30T07:56:03Z</time>
      </trkpt>
      <trkpt lat="38.4986100" lon="-0.6507800">
        <ele>754.0</ele>
        <time>2018-03-30T07:56:04Z</time>
      </trkpt>
      <trkpt lat="38.4986130" lon="-0.6507630">
        <ele>754.1</ele>
        <time>2018-03-30T07:56:05Z</time>
      </trkpt>
      <trkpt lat="38.4986140" lon="-0.6507490">
        <ele>754.3</ele>
        <time>2018-03-30T07:56:06Z</time>
      </trkpt>
      <trkpt lat="38.4986190" lon="-0.6507320">
        <ele>754.5</ele>
        <time>2018-03-30T07:56:07Z</time>
      </trkpt>
      <trkpt lat="38.4986260" lon="-0.6507180">
        <ele>754.7</ele>
        <time>2018-03-30T07:56:08Z</time>
      </trkpt>
      <trkpt lat="38.4986310" lon="-0.6507030">
        <ele>754.8</ele>
        <time>2018-03-30T07:56:09Z</time>
      </trkpt>
      <trkpt lat="38.4986350" lon="-0.6506870">
        <ele>754.9</ele>
        <time>2018-03-30T07:56:10Z</time>
      </trkpt>
      <trkpt lat="38.4986410" lon="-0.6506700">
        <ele>755.1</ele>
        <time>2018-03-30T07:56:11Z</time>
      </trkpt>
      <trkpt lat="38.4986460" lon="-0.6506520">
        <ele>755.4</ele>
        <time>2018-03-30T07:56:12Z</time>
      </trkpt>
      <trkpt lat="38.4986510" lon="-0.6506340">
        <ele>755.7</ele>
        <time>2018-03-30T07:56:13Z</time>
      </trkpt>
      <trkpt lat="38.4986590" lon="-0.6506190">
        <ele>755.8</ele>
        <time>2018-03-30T07:56:14Z</time>
      </trkpt>
      <trkpt lat="38.4986640" lon="-0.6506020">
        <ele>756.0</ele>
        <time>2018-03-30T07:56:15Z</time>
      </trkpt>
      <trkpt lat="38.4986710" lon="-0.6505840">
        <ele>756.1</ele>
        <time>2018-03-30T07:56:16Z</time>
      </trkpt>
      <trkpt lat="38.4986770" lon="-0.6505680">
        <ele>756.2</ele>
        <time>2018-03-30T07:56:17Z</time>
      </trkpt>
      <trkpt lat="38.4986820" lon="-0.6505500">
        <ele>756.4</ele>
        <time>2018-03-30T07:56:18Z</time>
      </trkpt>
      <trkpt lat="38.4986850" lon="-0.6505320">
        <ele>756.6</ele>
        <time>2018-03-30T07:56:19Z</time>
      </trkpt>
      <trkpt lat="38.4986900" lon="-0.6505120">
        <ele>756.8</ele>
        <time>2018-03-30T07:56:20Z</time>
      </trkpt>
      <trkpt lat="38.4986960" lon="-0.6504910">
        <ele>757.0</ele>
        <time>2018-03-30T07:56:21Z</time>
      </trkpt>
      <trkpt lat="38.4987020" lon="-0.6504740">
        <ele>757.2</ele>
        <time>2018-03-30T07:56:22Z</time>
      </trkpt>
      <trkpt lat="38.4987080" lon="-0.6504610">
        <ele>757.3</ele>
        <time>2018-03-30T07:56:23Z</time>
      </trkpt>
      <trkpt lat="38.4987140" lon="-0.6504460">
        <ele>757.5</ele>
        <time>2018-03-30T07:56:24Z</time>
      </trkpt>
      <trkpt lat="38.4987230" lon="-0.6504330">
        <ele>757.7</ele>
        <time>2018-03-30T07:56:25Z</time>
      </trkpt>
      <trkpt lat="38.4987320" lon="-0.6504210">
        <ele>758.0</ele>
        <time>2018-03-30T07:56:26Z</time>
      </trkpt>
      <trkpt lat="38.4987400" lon="-0.6504100">
        <ele>758.2</ele>
        <time>2018-03-30T07:56:27Z</time>
      </trkpt>
      <trkpt lat="38.4987480" lon="-0.6503970">
        <ele>758.4</ele>
        <time>2018-03-30T07:56:28Z</time>
      </trkpt>
      <trkpt lat="38.4987570" lon="-0.6503840">
        <ele>758.6</ele>
        <time>2018-03-30T07:56:29Z</time>
      </trkpt>
      <trkpt lat="38.4987690" lon="-0.6503770">
        <ele>758.9</ele>
        <time>2018-03-30T07:56:30Z</time>
      </trkpt>
      <trkpt lat="38.4987810" lon="-0.6503690">
        <ele>759.0</ele>
        <time>2018-03-30T07:56:31Z</time>
      </trkpt>
      <trkpt lat="38.4987890" lon="-0.6503620">
        <ele>759.1</ele>
        <time>2018-03-30T07:56:32Z</time>
      </trkpt>
      <trkpt lat="38.4988000" lon="-0.6503510">
        <ele>759.3</ele>
        <time>2018-03-30T07:56:33Z</time>
      </trkpt>
      <trkpt lat="38.4988090" lon="-0.6503440">
        <ele>759.4</ele>
        <time>2018-03-30T07:56:34Z</time>
      </trkpt>
      <trkpt lat="38.4988190" lon="-0.6503350">
        <ele>759.5</ele>
        <time>2018-03-30T07:56:35Z</time>
      </trkpt>
      <trkpt lat="38.4988310" lon="-0.6503250">
        <ele>759.7</ele>
        <time>2018-03-30T07:56:36Z</time>
      </trkpt>
      <trkpt lat="38.4988410" lon="-0.6503140">
        <ele>759.8</ele>
        <time>2018-03-30T07:56:37Z</time>
      </trkpt>
      <trkpt lat="38.4988460" lon="-0.6503030">
        <ele>760.0</ele>
        <time>2018-03-30T07:56:38Z</time>
      </trkpt>
      <trkpt lat="38.4988560" lon="-0.6502890">
        <ele>760.3</ele>
        <time>2018-03-30T07:56:39Z</time>
      </trkpt>
      <trkpt lat="38.4988620" lon="-0.6502770">
        <ele>760.4</ele>
        <time>2018-03-30T07:56:40Z</time>
      </trkpt>
      <trkpt lat="38.4988760" lon="-0.6502630">
        <ele>760.6</ele>
        <time>2018-03-30T07:56:41Z</time>
      </trkpt>
      <trkpt lat="38.4988830" lon="-0.6502480">
        <ele>760.8</ele>
        <time>2018-03-30T07:56:42Z</time>
      </trkpt>
      <trkpt lat="38.4988850" lon="-0.6502270">
        <ele>761.0</ele>
        <time>2018-03-30T07:56:43Z</time>
      </trkpt>
      <trkpt lat="38.4988900" lon="-0.6502070">
        <ele>761.3</ele>
        <time>2018-03-30T07:56:44Z</time>
      </trkpt>
      <trkpt lat="38.4988920" lon="-0.6501870">
        <ele>761.5</ele>
        <time>2018-03-30T07:56:45Z</time>
      </trkpt>
      <trkpt lat="38.4988970" lon="-0.6501670">
        <ele>761.8</ele>
        <time>2018-03-30T07:56:46Z</time>
      </trkpt>
      <trkpt lat="38.4989020" lon="-0.6501470">
        <ele>762.0</ele>
        <time>2018-03-30T07:56:47Z</time>
      </trkpt>
      <trkpt lat="38.4989070" lon="-0.6501310">
        <ele>762.2</ele>
        <time>2018-03-30T07:56:48Z</time>
      </trkpt>
      <trkpt lat="38.4989100" lon="-0.6501120">
        <ele>762.4</ele>
        <time>2018-03-30T07:56:49Z</time>
      </trkpt>
      <trkpt lat="38.4989130" lon="-0.6500880">
        <ele>762.7</ele>
        <time>2018-03-30T07:56:50Z</time>
      </trkpt>
      <trkpt lat="38.4989150" lon="-0.6500680">
        <ele>762.8</ele>
        <time>2018-03-30T07:56:51Z</time>
      </trkpt>
      <trkpt lat="38.4989170" lon="-0.6500530">
        <ele>762.9</ele>
        <time>2018-03-30T07:56:52Z</time>
      </trkpt>
      <trkpt lat="38.4989180" lon="-0.6500370">
        <ele>763.0</ele>
        <time>2018-03-30T07:56:53Z</time>
      </trkpt>
      <trkpt lat="38.4989210" lon="-0.6500210">
        <ele>763.2</ele>
        <time>2018-03-30T07:56:54Z</time>
      </trkpt>
      <trkpt lat="38.4989250" lon="-0.6500050">
        <ele>763.3</ele>
        <time>2018-03-30T07:56:55Z</time>
      </trkpt>
      <trkpt lat="38.4989280" lon="-0.6499900">
        <ele>763.4</ele>
        <time>2018-03-30T07:56:56Z</time>
      </trkpt>
      <trkpt lat="38.4989320" lon="-0.6499750">
        <ele>763.5</ele>
        <time>2018-03-30T07:56:57Z</time>
      </trkpt>
      <trkpt lat="38.4989360" lon="-0.6499580">
        <ele>763.7</ele>
        <time>2018-03-30T07:56:58Z</time>
      </trkpt>
      <trkpt lat="38.4989410" lon="-0.6499420">
        <ele>763.8</ele>
        <time>2018-03-30T07:56:59Z</time>
      </trkpt>
      <trkpt lat="38.4989460" lon="-0.6499270">
        <ele>763.9</ele>
        <time>2018-03-30T07:57:00Z</time>
      </trkpt>
      <trkpt lat="38.4989490" lon="-0.6499110">
        <ele>764.1</ele>
        <time>2018-03-30T07:57:01Z</time>
      </trkpt>
      <trkpt lat="38.4989570" lon="-0.6498980">
        <ele>764.4</ele>
        <time>2018-03-30T07:57:02Z</time>
      </trkpt>
      <trkpt lat="38.4989620" lon="-0.6498860">
        <ele>764.5</ele>
        <time>2018-03-30T07:57:03Z</time>
      </trkpt>
      <trkpt lat="38.4989670" lon="-0.6498700">
        <ele>764.7</ele>
        <time>2018-03-30T07:57:04Z</time>
      </trkpt>
      <trkpt lat="38.4989740" lon="-0.6498530">
        <ele>765.0</ele>
        <time>2018-03-30T07:57:05Z</time>
      </trkpt>
      <trkpt lat="38.4989790" lon="-0.6498390">
        <ele>765.2</ele>
        <time>2018-03-30T07:57:06Z</time>
      </trkpt>
      <trkpt lat="38.4989800" lon="-0.6498250">
        <ele>765.4</ele>
        <time>2018-03-30T07:57:07Z</time>
      </trkpt>
      <trkpt lat="38.4989840" lon="-0.6498090">
        <ele>765.6</ele>
        <time>2018-03-30T07:57:08Z</time>
      </trkpt>
      <trkpt lat="38.4989930" lon="-0.6497960">
        <ele>765.7</ele>
        <time>2018-03-30T07:57:09Z</time>
      </trkpt>
      <trkpt lat="38.4989980" lon="-0.6497800">
        <ele>765.8</ele>
        <time>2018-03-30T07:57:10Z</time>
      </trkpt>
      <trkpt lat="38.4990050" lon="-0.6497650">
        <ele>766.0</ele>
        <time>2018-03-30T07:57:11Z</time>
      </trkpt>
      <trkpt lat="38.4990130" lon="-0.6497500">
        <ele>766.1</ele>
        <time>2018-03-30T07:57:12Z</time>
      </trkpt>
      <trkpt lat="38.4990210" lon="-0.6497370">
        <ele>766.2</ele>
        <time>2018-03-30T07:57:13Z</time>
      </trkpt>
      <trkpt lat="38.4990260" lon="-0.6497250">
        <ele>766.3</ele>
        <time>2018-03-30T07:57:14Z</time>
      </trkpt>
      <trkpt lat="38.4990330" lon="-0.6497110">
        <ele>766.5</ele>
        <time>2018-03-30T07:57:15Z</time>
      </trkpt>
      <trkpt lat="38.4990400" lon="-0.6496990">
        <ele>766.6</ele>
        <time>2018-03-30T07:57:16Z</time>
      </trkpt>
      <trkpt lat="38.4990480" lon="-0.6496900">
        <ele>766.8</ele>
        <time>2018-03-30T07:57:17Z</time>
      </trkpt>
      <trkpt lat="38.4990570" lon="-0.6496790">
        <ele>766.9</ele>
        <time>2018-03-30T07:57:18Z</time>
      </trkpt>
      <trkpt lat="38.4990680" lon="-0.6496670">
        <ele>767.1</ele>
        <time>2018-03-30T07:57:19Z</time>
      </trkpt>
      <trkpt lat="38.4990760" lon="-0.6496530">
        <ele>767.2</ele>
        <time>2018-03-30T07:57:20Z</time>
      </trkpt>
      <trkpt lat="38.4990830" lon="-0.6496390">
        <ele>767.4</ele>
        <time>2018-03-30T07:57:21Z</time>
      </trkpt>
      <trkpt lat="38.4990940" lon="-0.6496260">
        <ele>767.6</ele>
        <time>2018-03-30T07:57:22Z</time>
      </trkpt>
      <trkpt lat="38.4991010" lon="-0.6496120">
        <ele>767.8</ele>
        <time>2018-03-30T07:57:23Z</time>
      </trkpt>
      <trkpt lat="38.4991060" lon="-0.6495960">
        <ele>768.1</ele>
        <time>2018-03-30T07:57:24Z</time>
      </trkpt>
      <trkpt lat="38.4991100" lon="-0.6495830">
        <ele>768.3</ele>
        <time>2018-03-30T07:57:25Z</time>
      </trkpt>
      <trkpt lat="38.4991180" lon="-0.6495680">
        <ele>768.5</ele>
        <time>2018-03-30T07:57:26Z</time>
      </trkpt>
      <trkpt lat="38.4991280" lon="-0.6495500">
        <ele>768.7</ele>
        <time>2018-03-30T07:57:27Z</time>
      </trkpt>
      <trkpt lat="38.4991370" lon="-0.6495300">
        <ele>769.0</ele>
        <time>2018-03-30T07:57:28Z</time>
      </trkpt>
      <trkpt lat="38.4991400" lon="-0.6495150">
        <ele>769.2</ele>
        <time>2018-03-30T07:57:29Z</time>
      </trkpt>
      <trkpt lat="38.4991420" lon="-0.6494950">
        <ele>769.4</ele>
        <time>2018-03-30T07:57:30Z</time>
      </trkpt>
      <trkpt lat="38.4991420" lon="-0.6494740">
        <ele>769.7</ele>
        <time>2018-03-30T07:57:31Z</time>
      </trkpt>
      <trkpt lat="38.4991460" lon="-0.6494550">
        <ele>769.8</ele>
        <time>2018-03-30T07:57:32Z</time>
      </trkpt>
      <trkpt lat="38.4991500" lon="-0.6494400">
        <ele>770.0</ele>
        <time>2018-03-30T07:57:33Z</time>
      </trkpt>
      <trkpt lat="38.4991510" lon="-0.6494220">
        <ele>770.2</ele>
        <time>2018-03-30T07:57:34Z</time>
      </trkpt>
      <trkpt lat="38.4991520" lon="-0.6494040">
        <ele>770.3</ele>
        <time>2018-03-30T07:57:35Z</time>
      </trkpt>
      <trkpt lat="38.4991540" lon="-0.6493850">
        <ele>770.5</ele>
        <time>2018-03-30T07:57:36Z</time>
      </trkpt>
      <trkpt lat="38.4991580" lon="-0.6493680">
        <ele>770.6</ele>
        <time>2018-03-30T07:57:37Z</time>
      </trkpt>
      <trkpt lat="38.4991610" lon="-0.6493510">
        <ele>770.8</ele>
        <time>2018-03-30T07:57:38Z</time>
      </trkpt>
      <trkpt lat="38.4991620" lon="-0.6493330">
        <ele>771.0</ele>
        <time>2018-03-30T07:57:39Z</time>
      </trkpt>
      <trkpt lat="38.4991640" lon="-0.6493170">
        <ele>771.1</ele>
        <time>2018-03-30T07:57:40Z</time>
      </trkpt>
      <trkpt lat="38.4991670" lon="-0.6493020">
        <ele>771.2</ele>
        <time>2018-03-30T07:57:41Z</time>
      </trkpt>
      <trkpt lat="38.4991680" lon="-0.6492860">
        <ele>771.4</ele>
        <time>2018-03-30T07:57:42Z</time>
      </trkpt>
      <trkpt lat="38.4991660" lon="-0.6492690">
        <ele>771.7</ele>
        <time>2018-03-30T07:57:43Z</time>
      </trkpt>
      <trkpt lat="38.4991650" lon="-0.6492520">
        <ele>772.0</ele>
        <time>2018-03-30T07:57:44Z</time>
      </trkpt>
      <trkpt lat="38.4991660" lon="-0.6492360">
        <ele>772.2</ele>
        <time>2018-03-30T07:57:45Z</time>
      </trkpt>
      <trkpt lat="38.4991640" lon="-0.6492160">
        <ele>772.4</ele>
        <time>2018-03-30T07:57:46Z</time>
      </trkpt>
      <trkpt lat="38.4991630" lon="-0.6492000">
        <ele>772.6</ele>
        <time>2018-03-30T07:57:47Z</time>
      </trkpt>
      <trkpt lat="38.4991620" lon="-0.6491850">
        <ele>772.8</ele>
        <time>2018-03-30T07:57:48Z</time>
      </trkpt>
      <trkpt lat="38.4991590" lon="-0.6491710">
        <ele>773.0</ele>
        <time>2018-03-30T07:57:49Z</time>
      </trkpt>
      <trkpt lat="38.4991550" lon="-0.6491590">
        <ele>773.1</ele>
        <time>2018-03-30T07:57:50Z</time>
      </trkpt>
      <trkpt lat="38.4991500" lon="-0.6491460">
        <ele>773.3</ele>
        <time>2018-03-30T07:57:51Z</time>
      </trkpt>
      <trkpt lat="38.4991430" lon="-0.6491280">
        <ele>773.4</ele>
        <time>2018-03-30T07:57:52Z</time>
      </trkpt>
      <trkpt lat="38.4991400" lon="-0.6491110">
        <ele>773.5</ele>
        <time>2018-03-30T07:57:53Z</time>
      </trkpt>
      <trkpt lat="38.4991370" lon="-0.6490930">
        <ele>773.6</ele>
        <time>2018-03-30T07:57:54Z</time>
      </trkpt>
      <trkpt lat="38.4991320" lon="-0.6490730">
        <ele>773.7</ele>
        <time>2018-03-30T07:57:55Z</time>
      </trkpt>
      <trkpt lat="38.4991290" lon="-0.6490570">
        <ele>773.8</ele>
        <time>2018-03-30T07:57:56Z</time>
      </trkpt>
      <trkpt lat="38.4991280" lon="-0.6490430">
        <ele>773.9</ele>
        <time>2018-03-30T07:57:57Z</time>
      </trkpt>
      <trkpt lat="38.4991290" lon="-0.6490260">
        <ele>774.0</ele>
        <time>2018-03-30T07:57:58Z</time>
      </trkpt>
      <trkpt lat="38.4991280" lon="-0.6490090">
        <ele>774.1</ele>
        <time>2018-03-30T07:57:59Z</time>
      </trkpt>
      <trkpt lat="38.4991290" lon="-0.6489940">
        <ele>774.2</ele>
        <time>2018-03-30T07:58:00Z</time>
      </trkpt>
      <trkpt lat="38.4991280" lon="-0.6489720">
        <ele>774.3</ele>
        <time>2018-03-30T07:58:01Z</time>
      </trkpt>
      <trkpt lat="38.4991280" lon="-0.6489530">
        <ele>774.4</ele>
        <time>2018-03-30T07:58:02Z</time>
      </trkpt>
      <trkpt lat="38.4991300" lon="-0.6489360">
        <ele>774.6</ele>
        <time>2018-03-30T07:58:03Z</time>
      </trkpt>
      <trkpt lat="38.4991300" lon="-0.6489200">
        <ele>774.7</ele>
        <time>2018-03-30T07:58:04Z</time>
      </trkpt>
      <trkpt lat="38.4991290" lon="-0.6489030">
        <ele>774.9</ele>
        <time>2018-03-30T07:58:05Z</time>
      </trkpt>
      <trkpt lat="38.4991310" lon="-0.6488800">
        <ele>775.1</ele>
        <time>2018-03-30T07:58:06Z</time>
      </trkpt>
      <trkpt lat="38.4991320" lon="-0.6488620">
        <ele>775.2</ele>
        <time>2018-03-30T07:58:07Z</time>
      </trkpt>
      <trkpt lat="38.4991370" lon="-0.6488440">
        <ele>775.3</ele>
        <time>2018-03-30T07:58:08Z</time>
      </trkpt>
      <trkpt lat="38.4991380" lon="-0.6488290">
        <ele>775.5</ele>
        <time>2018-03-30T07:58:09Z</time>
      </trkpt>
      <trkpt lat="38.4991400" lon="-0.6488120">
        <ele>775.7</ele>
        <time>2018-03-30T07:58:10Z</time>
      </trkpt>
      <trkpt lat="38.4991400" lon="-0.6487990">
        <ele>775.8</ele>
        <time>2018-03-30T07:58:11Z</time>
      </trkpt>
      <trkpt lat="38.4991410" lon="-0.6487820">
        <ele>776.0</ele>
        <time>2018-03-30T07:58:12Z</time>
      </trkpt>
      <trkpt lat="38.4991400" lon="-0.6487640">
        <ele>776.1</ele>
        <time>2018-03-30T07:58:13Z</time>
      </trkpt>
      <trkpt lat="38.4991420" lon="-0.6487470">
        <ele>776.3</ele>
        <time>2018-03-30T07:58:14Z</time>
      </trkpt>
      <trkpt lat="38.4991460" lon="-0.6487270">
        <ele>776.4</ele>
        <time>2018-03-30T07:58:15Z</time>
      </trkpt>
      <trkpt lat="38.4991440" lon="-0.6487090">
        <ele>776.6</ele>
        <time>2018-03-30T07:58:16Z</time>
      </trkpt>
      <trkpt lat="38.4991410" lon="-0.6486990">
        <ele>776.7</ele>
        <time>2018-03-30T07:58:17Z</time>
      </trkpt>
      <trkpt lat="38.4991390" lon="-0.6486830">
        <ele>776.9</ele>
        <time>2018-03-30T07:58:18Z</time>
      </trkpt>
      <trkpt lat="38.4991360" lon="-0.6486700">
        <ele>777.0</ele>
        <time>2018-03-30T07:58:19Z</time>
      </trkpt>
      <trkpt lat="38.4991210" lon="-0.6486680">
        <ele>777.2</ele>
        <time>2018-03-30T07:58:20Z</time>
      </trkpt>
      <trkpt lat="38.4990990" lon="-0.6486580">
        <ele>777.5</ele>
        <time>2018-03-30T07:58:21Z</time>
      </trkpt>
      <trkpt lat="38.4990860" lon="-0.6486480">
        <ele>777.8</ele>
        <time>2018-03-30T07:58:22Z</time>
      </trkpt>
      <trkpt lat="38.4990800" lon="-0.6486370">
        <ele>778.0</ele>
        <time>2018-03-30T07:58:23Z</time>
      </trkpt>
      <trkpt lat="38.4990750" lon="-0.6486330">
        <ele>778.1</ele>
        <time>2018-03-30T07:58:24Z</time>
      </trkpt>
      <trkpt lat="38.4990740" lon="-0.6486300">
        <ele>778.2</ele>
        <time>2018-03-30T07:58:25Z</time>
      </trkpt>
      <trkpt lat="38.4990700" lon="-0.6486290">
        <ele>778.3</ele>
        <time>2018-03-30T07:58:26Z</time>
      </trkpt>
      <trkpt lat="38.4990680" lon="-0.6486220">
        <ele>778.4</ele>
        <time>2018-03-30T07:58:27Z</time>
      </trkpt>
      <trkpt lat="38.4990650" lon="-0.6486130">
        <ele>778.5</ele>
        <time>2018-03-30T07:58:28Z</time>
      </trkpt>
      <trkpt lat="38.4990630" lon="-0.6486040">
        <ele>778.7</ele>
        <time>2018-03-30T07:58:29Z</time>
      </trkpt>
      <trkpt lat="38.4990550" lon="-0.6485970">
        <ele>778.8</ele>
        <time>2018-03-30T07:58:30Z</time>
      </trkpt>
      <trkpt lat="38.4990480" lon="-0.6485880">
        <ele>779.0</ele>
        <time>2018-03-30T07:58:31Z</time>
      </trkpt>
      <trkpt lat="38.4990480" lon="-0.6485750">
        <ele>779.2</ele>
        <time>2018-03-30T07:58:32Z</time>
      </trkpt>
      <trkpt lat="38.4990430" lon="-0.6485630">
        <ele>779.3</ele>
        <time>2018-03-30T07:58:33Z</time>
      </trkpt>
      <trkpt lat="38.4990380" lon="-0.6485520">
        <ele>779.5</ele>
        <time>2018-03-30T07:58:34Z</time>
      </trkpt>
      <trkpt lat="38.4990420" lon="-0.6485400">
        <ele>779.8</ele>
        <time>2018-03-30T07:58:35Z</time>
      </trkpt>
      <trkpt lat="38.4990450" lon="-0.6485270">
        <ele>779.9</ele>
        <time>2018-03-30T07:58:36Z</time>
      </trkpt>
      <trkpt lat="38.4990470" lon="-0.6485180">
        <ele>780.0</ele>
        <time>2018-03-30T07:58:37Z</time>
      </trkpt>
      <trkpt lat="38.4990470" lon="-0.6485080">
        <ele>780.1</ele>
        <time>2018-03-30T07:58:38Z</time>
      </trkpt>
      <trkpt lat="38.4990550" lon="-0.6485010">
        <ele>780.2</ele>
        <time>2018-03-30T07:58:39Z</time>
      </trkpt>
      <trkpt lat="38.4990540" lon="-0.6484890">
        <ele>780.3</ele>
        <time>2018-03-30T07:58:40Z</time>
      </trkpt>
      <trkpt lat="38.4990540" lon="-0.6484840">
        <ele>780.3</ele>
        <time>2018-03-30T07:58:41Z</time>
      </trkpt>
      <trkpt lat="38.4990550" lon="-0.6484780">
        <ele>780.4</ele>
        <time>2018-03-30T07:58:42Z</time>
      </trkpt>
      <trkpt lat="38.4990500" lon="-0.6484670">
        <ele>780.5</ele>
        <time>2018-03-30T07:58:43Z</time>
      </trkpt>
      <trkpt lat="38.4990410" lon="-0.6484520">
        <ele>780.7</ele>
        <time>2018-03-30T07:58:44Z</time>
      </trkpt>
      <trkpt lat="38.4990360" lon="-0.6484440">
        <ele>780.8</ele>
        <time>2018-03-30T07:58:45Z</time>
      </trkpt>
      <trkpt lat="38.4990360" lon="-0.6484390">
        <ele>780.9</ele>
        <time>2018-03-30T07:58:46Z</time>
      </trkpt>
      <trkpt lat="38.4990380" lon="-0.6484360">
        <ele>780.9</ele>
        <time>2018-03-30T07:58:47Z</time>
      </trkpt>
      <trkpt lat="38.4990410" lon="-0.6484280">
        <ele>780.9</ele>
        <time>2018-03-30T07:58:48Z</time>
      </trkpt>
      <trkpt lat="38.4990440" lon="-0.6484160">
        <ele>781.0</ele>
        <time>2018-03-30T07:58:49Z</time>
      </trkpt>
      <trkpt lat="38.4990440" lon="-0.6484040">
        <ele>781.1</ele>
        <time>2018-03-30T07:58:50Z</time>
      </trkpt>
      <trkpt lat="38.4990490" lon="-0.6483930">
        <ele>781.1</ele>
        <time>2018-03-30T07:58:51Z</time>
      </trkpt>
      <trkpt lat="38.4990530" lon="-0.6483770">
        <ele>781.2</ele>
        <time>2018-03-30T07:58:52Z</time>
      </trkpt>
      <trkpt lat="38.4990560" lon="-0.6483580">
        <ele>781.4</ele>
        <time>2018-03-30T07:58:53Z</time>
      </trkpt>
      <trkpt lat="38.4990590" lon="-0.6483430">
        <ele>781.5</ele>
        <time>2018-03-30T07:58:54Z</time>
      </trkpt>
      <trkpt lat="38.4990630" lon="-0.6483300">
        <ele>781.6</ele>
        <time>2018-03-30T07:58:55Z</time>
      </trkpt>
      <trkpt lat="38.4990660" lon="-0.6483130">
        <ele>781.7</ele>
        <time>2018-03-30T07:58:56Z</time>
      </trkpt>
      <trkpt lat="38.4990660" lon="-0.6482970">
        <ele>781.8</ele>
        <time>2018-03-30T07:58:57Z</time>
      </trkpt>
      <trkpt lat="38.4990760" lon="-0.6482810">
        <ele>781.9</ele>
        <time>2018-03-30T07:58:58Z</time>
      </trkpt>
      <trkpt lat="38.4990730" lon="-0.6482690">
        <ele>782.0</ele>
        <time>2018-03-30T07:58:59Z</time>
      </trkpt>
      <trkpt lat="38.4990740" lon="-0.6482570">
        <ele>782.1</ele>
        <time>2018-03-30T07:59:00Z</time>
      </trkpt>
      <trkpt lat="38.4990740" lon="-0.6482440">
        <ele>782.2</ele>
        <time>2018-03-30T07:59:01Z</time>
      </trkpt>
      <trkpt lat="38.4990800" lon="-0.6482300">
        <ele>782.3</ele>
        <time>2018-03-30T07:59:02Z</time>
      </trkpt>
      <trkpt lat="38.4990880" lon="-0.6482140">
        <ele>782.4</ele>
        <time>2018-03-30T07:59:03Z</time>
      </trkpt>
      <trkpt lat="38.4990970" lon="-0.6482000">
        <ele>782.5</ele>
        <time>2018-03-30T07:59:04Z</time>
      </trkpt>
      <trkpt lat="38.4991020" lon="-0.6481830">
        <ele>782.6</ele>
        <time>2018-03-30T07:59:05Z</time>
      </trkpt>
      <trkpt lat="38.4991010" lon="-0.6481630">
        <ele>782.7</ele>
        <time>2018-03-30T07:59:06Z</time>
      </trkpt>
      <trkpt lat="38.4991070" lon="-0.6481470">
        <ele>782.8</ele>
        <time>2018-03-30T07:59:07Z</time>
      </trkpt>
      <trkpt lat="38.4991070" lon="-0.6481250">
        <ele>783.0</ele>
        <time>2018-03-30T07:59:08Z</time>
      </trkpt>
      <trkpt lat="38.4991120" lon="-0.6481040">
        <ele>783.3</ele>
        <time>2018-03-30T07:59:09Z</time>
      </trkpt>
      <trkpt lat="38.4991200" lon="-0.6480870">
        <ele>783.5</ele>
        <time>2018-03-30T07:59:10Z</time>
      </trkpt>
      <trkpt lat="38.4991200" lon="-0.6480670">
        <ele>783.6</ele>
        <time>2018-03-30T07:59:11Z</time>
      </trkpt>
      <trkpt lat="38.4991250" lon="-0.6480510">
        <ele>783.8</ele>
        <time>2018-03-30T07:59:12Z</time>
      </trkpt>
      <trkpt lat="38.4991330" lon="-0.6480410">
        <ele>783.9</ele>
        <time>2018-03-30T07:59:13Z</time>
      </trkpt>
      <trkpt lat="38.4991410" lon="-0.6480320">
        <ele>784.1</ele>
        <time>2018-03-30T07:59:14Z</time>
      </trkpt>
      <trkpt lat="38.4991480" lon="-0.6480230">
        <ele>784.2</ele>
        <time>2018-03-30T07:59:15Z</time>
      </trkpt>
      <trkpt lat="38.4991570" lon="-0.6480190">
        <ele>784.3</ele>
        <time>2018-03-30T07:59:16Z</time>
      </trkpt>
      <trkpt lat="38.4991690" lon="-0.6480140">
        <ele>784.4</ele>
        <time>2018-03-30T07:59:17Z</time>
      </trkpt>
      <trkpt lat="38.4991790" lon="-0.6480110">
        <ele>784.5</ele>
        <time>2018-03-30T07:59:18Z</time>
      </trkpt>
      <trkpt lat="38.4991880" lon="-0.6480030">
        <ele>784.6</ele>
        <time>2018-03-30T07:59:19Z</time>
      </trkpt>
      <trkpt lat="38.4991950" lon="-0.6479940">
        <ele>784.7</ele>
        <time>2018-03-30T07:59:20Z</time>
      </trkpt>
      <trkpt lat="38.4992050" lon="-0.6479850">
        <ele>784.8</ele>
        <time>2018-03-30T07:59:21Z</time>
      </trkpt>
      <trkpt lat="38.4992120" lon="-0.6479680">
        <ele>785.0</ele>
        <time>2018-03-30T07:59:22Z</time>
      </trkpt>
      <trkpt lat="38.4992180" lon="-0.6479540">
        <ele>785.1</ele>
        <time>2018-03-30T07:59:23Z</time>
      </trkpt>
      <trkpt lat="38.4992230" lon="-0.6479380">
        <ele>785.3</ele>
        <time>2018-03-30T07:59:24Z</time>
      </trkpt>
      <trkpt lat="38.4992280" lon="-0.6479260">
        <ele>785.4</ele>
        <time>2018-03-30T07:59:25Z</time>
      </trkpt>
      <trkpt lat="38.4992320" lon="-0.6479130">
        <ele>785.5</ele>
        <time>2018-03-30T07:59:26Z</time>
      </trkpt>
      <trkpt lat="38.4992330" lon="-0.6478980">
        <ele>785.7</ele>
        <time>2018-03-30T07:59:27Z</time>
      </trkpt>
      <trkpt lat="38.4992330" lon="-0.6478840">
        <ele>785.8</ele>
        <time>2018-03-30T07:59:28Z</time>
      </trkpt>
      <trkpt lat="38.4992390" lon="-0.6478700">
        <ele>785.9</ele>
        <time>2018-03-30T07:59:29Z</time>
      </trkpt>
      <trkpt lat="38.4992400" lon="-0.6478540">
        <ele>786.0</ele>
        <time>2018-03-30T07:59:30Z</time>
      </trkpt>
      <trkpt lat="38.4992390" lon="-0.6478440">
        <ele>786.1</ele>
        <time>2018-03-30T07:59:31Z</time>
      </trkpt>
      <trkpt lat="38.4992430" lon="-0.6478300">
        <ele>786.1</ele>
        <time>2018-03-30T07:59:32Z</time>
      </trkpt>
      <trkpt lat="38.4992440" lon="-0.6478110">
        <ele>786.2</ele>
        <time>2018-03-30T07:59:33Z</time>
      </trkpt>
      <trkpt lat="38.4992450" lon="-0.6477950">
        <ele>786.3</ele>
        <time>2018-03-30T07:59:34Z</time>
      </trkpt>
      <trkpt lat="38.4992440" lon="-0.6477760">
        <ele>786.4</ele>
        <time>2018-03-30T07:59:35Z</time>
      </trkpt>
      <trkpt lat="38.4992460" lon="-0.6477580">
        <ele>786.6</ele>
        <time>2018-03-30T07:59:36Z</time>
      </trkpt>
      <trkpt lat="38.4992410" lon="-0.6477360">
        <ele>786.7</ele>
        <time>2018-03-30T07:59:37Z</time>
      </trkpt>
      <trkpt lat="38.4992360" lon="-0.6477180">
        <ele>786.9</ele>
        <time>2018-03-30T07:59:38Z</time>
      </trkpt>
      <trkpt lat="38.4992360" lon="-0.6477020">
        <ele>787.0</ele>
        <time>2018-03-30T07:59:39Z</time>
      </trkpt>
      <trkpt lat="38.4992410" lon="-0.6476860">
        <ele>787.2</ele>
        <time>2018-03-30T07:59:40Z</time>
      </trkpt>
      <trkpt lat="38.4992450" lon="-0.6476700">
        <ele>787.3</ele>
        <time>2018-03-30T07:59:41Z</time>
      </trkpt>
      <trkpt lat="38.4992510" lon="-0.6476580">
        <ele>787.4</ele>
        <time>2018-03-30T07:59:42Z</time>
      </trkpt>
      <trkpt lat="38.4992510" lon="-0.6476390">
        <ele>787.5</ele>
        <time>2018-03-30T07:59:43Z</time>
      </trkpt>
      <trkpt lat="38.4992530" lon="-0.6476210">
        <ele>787.6</ele>
        <time>2018-03-30T07:59:44Z</time>
      </trkpt>
      <trkpt lat="38.4992510" lon="-0.6476010">
        <ele>787.8</ele>
        <time>2018-03-30T07:59:45Z</time>
      </trkpt>
      <trkpt lat="38.4992370" lon="-0.6475800">
        <ele>788.0</ele>
        <time>2018-03-30T07:59:46Z</time>
      </trkpt>
      <trkpt lat="38.4992330" lon="-0.6475680">
        <ele>788.1</ele>
        <time>2018-03-30T07:59:47Z</time>
      </trkpt>
      <trkpt lat="38.4992300" lon="-0.6475460">
        <ele>788.2</ele>
        <time>2018-03-30T07:59:48Z</time>
      </trkpt>
      <trkpt lat="38.4992230" lon="-0.6475200">
        <ele>788.4</ele>
        <time>2018-03-30T07:59:49Z</time>
      </trkpt>
      <trkpt lat="38.4992210" lon="-0.6475010">
        <ele>788.5</ele>
        <time>2018-03-30T07:59:50Z</time>
      </trkpt>
      <trkpt lat="38.4992170" lon="-0.6474830">
        <ele>788.6</ele>
        <time>2018-03-30T07:59:51Z</time>
      </trkpt>
      <trkpt lat="38.4992090" lon="-0.6474570">
        <ele>788.7</ele>
        <time>2018-03-30T07:59:52Z</time>
      </trkpt>
      <trkpt lat="38.4992000" lon="-0.6474330">
        <ele>789.0</ele>
        <time>2018-03-30T07:59:53Z</time>
      </trkpt>
      <trkpt lat="38.4991940" lon="-0.6474140">
        <ele>789.1</ele>
        <time>2018-03-30T07:59:54Z</time>
      </trkpt>
      <trkpt lat="38.4991870" lon="-0.6473920">
        <ele>789.3</ele>
        <time>2018-03-30T07:59:55Z</time>
      </trkpt>
      <trkpt lat="38.4991800" lon="-0.6473700">
        <ele>789.5</ele>
        <time>2018-03-30T07:59:56Z</time>
      </trkpt>
      <trkpt lat="38.4991740" lon="-0.6473500">
        <ele>789.6</ele>
        <time>2018-03-30T07:59:57Z</time>
      </trkpt>
      <trkpt lat="38.4991710" lon="-0.6473320">
        <ele>789.7</ele>
        <time>2018-03-30T07:59:58Z</time>
      </trkpt>
      <trkpt lat="38.4991700" lon="-0.6473120">
        <ele>789.9</ele>
        <time>2018-03-30T07:59:59Z</time>
      </trkpt>
      <trkpt lat="38.4991660" lon="-0.6472920">
        <ele>790.1</ele>
        <time>2018-03-30T08:00:00Z</time>
      </trkpt>
      <trkpt lat="38.4991690" lon="-0.6472750">
        <ele>790.2</ele>
        <time>2018-03-30T08:00:01Z</time>
      </trkpt>
      <trkpt lat="38.4991700" lon="-0.6472610">
        <ele>790.4</ele>
        <time>2018-03-30T08:00:02Z</time>
      </trkpt>
      <trkpt lat="38.4991670" lon="-0.6472400">
        <ele>790.6</ele>
        <time>2018-03-30T08:00:03Z</time>
      </trkpt>
      <trkpt lat="38.4991720" lon="-0.6472260">
        <ele>790.7</ele>
        <time>2018-03-30T08:00:04Z</time>
      </trkpt>
      <trkpt lat="38.4991710" lon="-0.6472020">
        <ele>791.0</ele>
        <time>2018-03-30T08:00:05Z</time>
      </trkpt>
      <trkpt lat="38.4991720" lon="-0.6471840">
        <ele>791.2</ele>
        <time>2018-03-30T08:00:06Z</time>
      </trkpt>
      <trkpt lat="38.4991750" lon="-0.6471630">
        <ele>791.4</ele>
        <time>2018-03-30T08:00:07Z</time>
      </trkpt>
      <trkpt lat="38.4991770" lon="-0.6471400">
        <ele>791.6</ele>
        <time>2018-03-30T08:00:08Z</time>
      </trkpt>
      <trkpt lat="38.4991820" lon="-0.6471200">
        <ele>791.7</ele>
        <time>2018-03-30T08:00:09Z</time>
      </trkpt>
      <trkpt lat="38.4991800" lon="-0.6470970">
        <ele>791.9</ele>
        <time>2018-03-30T08:00:10Z</time>
      </trkpt>
      <trkpt lat="38.4991740" lon="-0.6470760">
        <ele>792.2</ele>
        <time>2018-03-30T08:00:11Z</time>
      </trkpt>
      <trkpt lat="38.4991750" lon="-0.6470560">
        <ele>792.4</ele>
        <time>2018-03-30T08:00:12Z</time>
      </trkpt>
      <trkpt lat="38.4991760" lon="-0.6470390">
        <ele>792.5</ele>
        <time>2018-03-30T08:00:13Z</time>
      </trkpt>
      <trkpt lat="38.4991810" lon="-0.6470180">
        <ele>792.7</ele>
        <time>2018-03-30T08:00:14Z</time>
      </trkpt>
      <trkpt lat="38.4991870" lon="-0.6469990">
        <ele>792.9</ele>
        <time>2018-03-30T08:00:15Z</time>
      </trkpt>
      <trkpt lat="38.4991910" lon="-0.6469800">
        <ele>793.1</ele>
        <time>2018-03-30T08:00:16Z</time>
      </trkpt>
      <trkpt lat="38.4991970" lon="-0.6469600">
        <ele>793.3</ele>
        <time>2018-03-30T08:00:17Z</time>
      </trkpt>
      <trkpt lat="38.4992070" lon="-0.6469440">
        <ele>793.5</ele>
        <time>2018-03-30T08:00:18Z</time>
      </trkpt>
      <trkpt lat="38.4992110" lon="-0.6469280">
        <ele>793.7</ele>
        <time>2018-03-30T08:00:19Z</time>
      </trkpt>
      <trkpt lat="38.4992050" lon="-0.6469060">
        <ele>793.8</ele>
        <time>2018-03-30T08:00:20Z</time>
      </trkpt>
      <trkpt lat="38.4992080" lon="-0.6468860">
        <ele>794.0</ele>
        <time>2018-03-30T08:00:21Z</time>
      </trkpt>
      <trkpt lat="38.4992100" lon="-0.6468670">
        <ele>794.2</ele>
        <time>2018-03-30T08:00:22Z</time>
      </trkpt>
      <trkpt lat="38.4992090" lon="-0.6468470">
        <ele>794.4</ele>
        <time>2018-03-30T08:00:23Z</time>
      </trkpt>
      <trkpt lat="38.4992120" lon="-0.6468280">
        <ele>794.6</ele>
        <time>2018-03-30T08:00:24Z</time>
      </trkpt>
      <trkpt lat="38.4992160" lon="-0.6468120">
        <ele>794.7</ele>
        <time>2018-03-30T08:00:25Z</time>
      </trkpt>
      <trkpt lat="38.4992240" lon="-0.6467940">
        <ele>794.9</ele>
        <time>2018-03-30T08:00:26Z</time>
      </trkpt>
      <trkpt lat="38.4992280" lon="-0.6467700">
        <ele>795.0</ele>
        <time>2018-03-30T08:00:27Z</time>
      </trkpt>
      <trkpt lat="38.4992310" lon="-0.6467500">
        <ele>795.2</ele>
        <time>2018-03-30T08:00:28Z</time>
      </trkpt>
      <trkpt lat="38.4992340" lon="-0.6467310">
        <ele>795.3</ele>
        <time>2018-03-30T08:00:29Z</time>
      </trkpt>
      <trkpt lat="38.4992380" lon="-0.6467070">
        <ele>795.4</ele>
        <time>2018-03-30T08:00:30Z</time>
      </trkpt>
      <trkpt lat="38.4992410" lon="-0.6466840">
        <ele>795.6</ele>
        <time>2018-03-30T08:00:31Z</time>
      </trkpt>
      <trkpt lat="38.4992530" lon="-0.6466680">
        <ele>795.8</ele>
        <time>2018-03-30T08:00:32Z</time>
      </trkpt>
      <trkpt lat="38.4992750" lon="-0.6466600">
        <ele>796.1</ele>
        <time>2018-03-30T08:00:33Z</time>
      </trkpt>
      <trkpt lat="38.4992800" lon="-0.6466530">
        <ele>796.1</ele>
        <time>2018-03-30T08:00:34Z</time>
      </trkpt>
      <trkpt lat="38.4992870" lon="-0.6466470">
        <ele>796.2</ele>
        <time>2018-03-30T08:00:35Z</time>
      </trkpt>
      <trkpt lat="38.4992970" lon="-0.6466410">
        <ele>796.3</ele>
        <time>2018-03-30T08:00:36Z</time>
      </trkpt>
      <trkpt lat="38.4993080" lon="-0.6466330">
        <ele>796.5</ele>
        <time>2018-03-30T08:00:37Z</time>
      </trkpt>
      <trkpt lat="38.4993230" lon="-0.6466230">
        <ele>796.6</ele>
        <time>2018-03-30T08:00:38Z</time>
      </trkpt>
      <trkpt lat="38.4993300" lon="-0.6466120">
        <ele>796.7</ele>
        <time>2018-03-30T08:00:39Z</time>
      </trkpt>
      <trkpt lat="38.4993410" lon="-0.6465990">
        <ele>796.8</ele>
        <time>2018-03-30T08:00:40Z</time>
      </trkpt>
      <trkpt lat="38.4993470" lon="-0.6465760">
        <ele>797.0</ele>
        <time>2018-03-30T08:00:41Z</time>
      </trkpt>
      <trkpt lat="38.4993560" lon="-0.6465540">
        <ele>797.3</ele>
        <time>2018-03-30T08:00:42Z</time>
      </trkpt>
      <trkpt lat="38.4993590" lon="-0.6465340">
        <ele>797.5</ele>
        <time>2018-03-30T08:00:43Z</time>
      </trkpt>
      <trkpt lat="38.4993640" lon="-0.6465160">
        <ele>797.7</ele>
        <time>2018-03-30T08:00:44Z</time>
      </trkpt>
      <trkpt lat="38.4993720" lon="-0.6464990">
        <ele>797.8</ele>
        <time>2018-03-30T08:00:45Z</time>
      </trkpt>
      <trkpt lat="38.4993800" lon="-0.6464830">
        <ele>798.0</ele>
        <time>2018-03-30T08:00:46Z</time>
      </trkpt>
      <trkpt lat="38.4993860" lon="-0.6464660">
        <ele>798.1</ele>
        <time>2018-03-30T08:00:47Z</time>
      </trkpt>
      <trkpt lat="38.4993910" lon="-0.6464530">
        <ele>798.2</ele>
        <time>2018-03-30T08:00:48Z</time>
      </trkpt>
      <trkpt lat="38.4993910" lon="-0.6464370">
        <ele>798.4</ele>
        <time>2018-03-30T08:00:49Z</time>
      </trkpt>
      <trkpt lat="38.4993960" lon="-0.6464190">
        <ele>798.6</ele>
        <time>2018-03-30T08:00:50Z</time>
      </trkpt>
      <trkpt lat="38.4993990" lon="-0.6464010">
        <ele>798.7</ele>
        <time>2018-03-30T08:00:51Z</time>
      </trkpt>
      <trkpt lat="38.4993990" lon="-0.6463820">
        <ele>798.9</ele>
        <time>2018-03-30T08:00:52Z</time>
      </trkpt>
      <trkpt lat="38.4994030" lon="-0.6463650">
        <ele>799.0</ele>
        <time>2018-03-30T08:00:53Z</time>
      </trkpt>
      <trkpt lat="38.4994110" lon="-0.6463460">
        <ele>799.1</ele>
        <time>2018-03-30T08:00:54Z</time>
      </trkpt>
      <trkpt lat="38.4994170" lon="-0.6463310">
        <ele>799.2</ele>
        <time>2018-03-30T08:00:55Z</time>
      </trkpt>
      <trkpt lat="38.4994240" lon="-0.6463130">
        <ele>799.3</ele>
        <time>2018-03-30T08:00:56Z</time>
      </trkpt>
      <trkpt lat="38.4994220" lon="-0.6462960">
        <ele>799.4</ele>
        <time>2018-03-30T08:00:57Z</time>
      </trkpt>
      <trkpt lat="38.4994280" lon="-0.6462770">
        <ele>799.5</ele>
        <time>2018-03-30T08:00:58Z</time>
      </trkpt>
      <trkpt lat="38.4994330" lon="-0.6462580">
        <ele>799.6</ele>
        <time>2018-03-30T08:00:59Z</time>
      </trkpt>
      <trkpt lat="38.4994380" lon="-0.6462400">
        <ele>799.8</ele>
        <time>2018-03-30T08:01:00Z</time>
      </trkpt>
      <trkpt lat="38.4994400" lon="-0.6462240">
        <ele>799.9</ele>
        <time>2018-03-30T08:01:01Z</time>
      </trkpt>
      <trkpt lat="38.4994390" lon="-0.6462040">
        <ele>800.1</ele>
        <time>2018-03-30T08:01:02Z</time>
      </trkpt>
      <trkpt lat="38.4994370" lon="-0.6461860">
        <ele>800.2</ele>
        <time>2018-03-30T08:01:03Z</time>
      </trkpt>
      <trkpt lat="38.4994330" lon="-0.6461690">
        <ele>800.3</ele>
        <time>2018-03-30T08:01:04Z</time>
      </trkpt>
      <trkpt lat="38.4994240" lon="-0.6461510">
        <ele>800.4</ele>
        <time>2018-03-30T08:01:05Z</time>
      </trkpt>
      <trkpt lat="38.4994200" lon="-0.6461360">
        <ele>800.5</ele>
        <time>2018-03-30T08:01:06Z</time>
      </trkpt>
      <trkpt lat="38.4994140" lon="-0.6461230">
        <ele>800.6</ele>
        <time>2018-03-30T08:01:07Z</time>
      </trkpt>
      <trkpt lat="38.4994110" lon="-0.6461090">
        <ele>800.6</ele>
        <time>2018-03-30T08:01:08Z</time>
      </trkpt>
      <trkpt lat="38.4994070" lon="-0.6460930">
        <ele>800.8</ele>
        <time>2018-03-30T08:01:09Z</time>
      </trkpt>
      <trkpt lat="38.4994040" lon="-0.6460790">
        <ele>801.0</ele>
        <time>2018-03-30T08:01:10Z</time>
      </trkpt>
      <trkpt lat="38.4993950" lon="-0.6460660">
        <ele>801.1</ele>
        <time>2018-03-30T08:01:11Z</time>
      </trkpt>
      <trkpt lat="38.4993930" lon="-0.6460550">
        <ele>801.2</ele>
        <time>2018-03-30T08:01:12Z</time>
      </trkpt>
      <trkpt lat="38.4993960" lon="-0.6460520">
        <ele>801.2</ele>
        <time>2018-03-30T08:01:13Z</time>
      </trkpt>
      <trkpt lat="38.4993930" lon="-0.6460470">
        <ele>801.3</ele>
        <time>2018-03-30T08:01:14Z</time>
      </trkpt>
      <trkpt lat="38.4993890" lon="-0.6460370">
        <ele>801.3</ele>
        <time>2018-03-30T08:01:15Z</time>
      </trkpt>
      <trkpt lat="38.4993850" lon="-0.6460300">
        <ele>801.4</ele>
        <time>2018-03-30T08:01:16Z</time>
      </trkpt>
      <trkpt lat="38.4993790" lon="-0.6460210">
        <ele>801.6</ele>
        <time>2018-03-30T08:01:17Z</time>
      </trkpt>
      <trkpt lat="38.4993690" lon="-0.6460130">
        <ele>801.7</ele>
        <time>2018-03-30T08:01:18Z</time>
      </trkpt>
      <trkpt lat="38.4993640" lon="-0.6460010">
        <ele>801.9</ele>
        <time>2018-03-30T08:01:19Z</time>
      </trkpt>
      <trkpt lat="38.4993610" lon="-0.6459900">
        <ele>802.0</ele>
        <time>2018-03-30T08:01:20Z</time>
      </trkpt>
      <trkpt lat="38.4993570" lon="-0.6459790">
        <ele>802.0</ele>
        <time>2018-03-30T08:01:21Z</time>
      </trkpt>
      <trkpt lat="38.4993560" lon="-0.6459710">
        <ele>802.1</ele>
        <time>2018-03-30T08:01:22Z</time>
      </trkpt>
      <trkpt lat="38.4993530" lon="-0.6459650">
        <ele>802.1</ele>
        <time>2018-03-30T08:01:23Z</time>
      </trkpt>
      <trkpt lat="38.4993500" lon="-0.6459590">
        <ele>802.2</ele>
        <time>2018-03-30T08:01:24Z</time>
      </trkpt>
      <trkpt lat="38.4993420" lon="-0.6459520">
        <ele>802.3</ele>
        <time>2018-03-30T08:01:25Z</time>
      </trkpt>
      <trkpt lat="38.4993380" lon="-0.6459470">
        <ele>802.3</ele>
        <time>2018-03-30T08:01:26Z</time>
      </trkpt>
      <trkpt lat="38.4993350" lon="-0.6459440">
        <ele>802.4</ele>
        <time>2018-03-30T08:01:27Z</time>
      </trkpt>
      <trkpt lat="38.4993320" lon="-0.6459400">
        <ele>802.4</ele>
        <time>2018-03-30T08:01:28Z</time>
      </trkpt>
      <trkpt lat="38.4993220" lon="-0.6459310">
        <ele>802.5</ele>
        <time>2018-03-30T08:01:29Z</time>
      </trkpt>
      <trkpt lat="38.4993120" lon="-0.6459260">
        <ele>802.7</ele>
        <time>2018-03-30T08:01:30Z</time>
      </trkpt>
      <trkpt lat="38.4993050" lon="-0.6459160">
        <ele>802.8</ele>
        <time>2018-03-30T08:01:31Z</time>
      </trkpt>
      <trkpt lat="38.4992980" lon="-0.6459010">
        <ele>802.9</ele>
        <time>2018-03-30T08:01:32Z</time>
      </trkpt>
      <trkpt lat="38.4992930" lon="-0.6458840">
        <ele>803.0</ele>
        <time>2018-03-30T08:01:33Z</time>
      </trkpt>
      <trkpt lat="38.4992970" lon="-0.6458650">
        <ele>803.2</ele>
        <time>2018-03-30T08:01:34Z</time>
      </trkpt>
      <trkpt lat="38.4992960" lon="-0.6458510">
        <ele>803.3</ele>
        <time>2018-03-30T08:01:35Z</time>
      </trkpt>
      <trkpt lat="38.4993020" lon="-0.6458330">
        <ele>803.6</ele>
        <time>2018-03-30T08:01:36Z</time>
      </trkpt>
      <trkpt lat="38.4992980" lon="-0.6458160">
        <ele>803.7</ele>
        <time>2018-03-30T08:01:37Z</time>
      </trkpt>
      <trkpt lat="38.4992940" lon="-0.6458060">
        <ele>803.8</ele>
        <time>2018-03-30T08:01:38Z</time>
      </trkpt>
      <trkpt lat="38.4992940" lon="-0.6457990">
        <ele>803.8</ele>
        <time>2018-03-30T08:01:39Z</time>
      </trkpt>
      <trkpt lat="38.4992960" lon="-0.6457930">
        <ele>803.8</ele>
        <time>2018-03-30T08:01:40Z</time>
      </trkpt>
      <trkpt lat="38.4992970" lon="-0.6457870">
        <ele>803.9</ele>
        <time>2018-03-30T08:01:41Z</time>
      </trkpt>
      <trkpt lat="38.4992940" lon="-0.6457850">
        <ele>803.9</ele>
        <time>2018-03-30T08:01:42Z</time>
      </trkpt>
      <trkpt lat="38.4992920" lon="-0.6457820">
        <ele>803.9</ele>
        <time>2018-03-30T08:01:43Z</time>
      </trkpt>
      <trkpt lat="38.4992820" lon="-0.6457710">
        <ele>804.0</ele>
        <time>2018-03-30T08:01:44Z</time>
      </trkpt>
      <trkpt lat="38.4992760" lon="-0.6457650">
        <ele>804.0</ele>
        <time>2018-03-30T08:01:45Z</time>
      </trkpt>
      <trkpt lat="38.4992710" lon="-0.6457600">
        <ele>804.1</ele>
        <time>2018-03-30T08:01:46Z</time>
      </trkpt>
      <trkpt lat="38.4992690" lon="-0.6457520">
        <ele>804.1</ele>
        <time>2018-03-30T08:01:47Z</time>
      </trkpt>
      <trkpt lat="38.4992690" lon="-0.6457260">
        <ele>804.3</ele>
        <time>2018-03-30T08:01:48Z</time>
      </trkpt>
      <trkpt lat="38.4992700" lon="-0.6457110">
        <ele>804.4</ele>
        <time>2018-03-30T08:01:49Z</time>
      </trkpt>
      <trkpt lat="38.4992690" lon="-0.6456950">
        <ele>804.6</ele>
        <time>2018-03-30T08:01:50Z</time>
      </trkpt>
      <trkpt lat="38.4992700" lon="-0.6456790">
        <ele>804.7</ele>
        <time>2018-03-30T08:01:51Z</time>
      </trkpt>
      <trkpt lat="38.4992770" lon="-0.6456600">
        <ele>804.9</ele>
        <time>2018-03-30T08:01:52Z</time>
      </trkpt>
      <trkpt lat="38.4992740" lon="-0.6456320">
        <ele>805.1</ele>
        <time>2018-03-30T08:01:53Z</time>
      </trkpt>
      <trkpt lat="38.4992760" lon="-0.6456110">
        <ele>805.4</ele>
        <time>2018-03-30T08:01:54Z</time>
      </trkpt>
      <trkpt lat="38.4992710" lon="-0.6455920">
        <ele>805.6</ele>
        <time>2018-03-30T08:01:55Z</time>
      </trkpt>
      <trkpt lat="38.4992750" lon="-0.6455770">
        <ele>805.8</ele>
        <time>2018-03-30T08:01:56Z</time>
      </trkpt>
      <trkpt lat="38.4992840" lon="-0.6455620">
        <ele>806.1</ele>
        <time>2018-03-30T08:01:57Z</time>
      </trkpt>
      <trkpt lat="38.4992920" lon="-0.6455460">
        <ele>806.3</ele>
        <time>2018-03-30T08:01:58Z</time>
      </trkpt>
      <trkpt lat="38.4993020" lon="-0.6455340">
        <ele>806.5</ele>
        <time>2018-03-30T08:01:59Z</time>
      </trkpt>
      <trkpt lat="38.4993130" lon="-0.6455240">
        <ele>806.6</ele>
        <time>2018-03-30T08:02:00Z</time>
      </trkpt>
      <trkpt lat="38.4993170" lon="-0.6455120">
        <ele>806.8</ele>
        <time>2018-03-30T08:02:01Z</time>
      </trkpt>
      <trkpt lat="38.4993270" lon="-0.6455060">
        <ele>806.9</ele>
        <time>2018-03-30T08:02:02Z</time>
      </trkpt>
      <trkpt lat="38.4993360" lon="-0.6454990">
        <ele>806.9</ele>
        <time>2018-03-30T08:02:03Z</time>
      </trkpt>
      <trkpt lat="38.4993420" lon="-0.6454880">
        <ele>807.0</ele>
        <time>2018-03-30T08:02:04Z</time>
      </trkpt>
      <trkpt lat="38.4993520" lon="-0.6454780">
        <ele>807.1</ele>
        <time>2018-03-30T08:02:05Z</time>
      </trkpt>
      <trkpt lat="38.4993620" lon="-0.6454660">
        <ele>807.2</ele>
        <time>2018-03-30T08:02:06Z</time>
      </trkpt>
      <trkpt lat="38.4993690" lon="-0.6454530">
        <ele>807.3</ele>
        <time>2018-03-30T08:02:07Z</time>
      </trkpt>
      <trkpt lat="38.4993770" lon="-0.6454420">
        <ele>807.4</ele>
        <time>2018-03-30T08:02:08Z</time>
      </trkpt>
      <trkpt lat="38.4993790" lon="-0.6454360">
        <ele>807.5</ele>
        <time>2018-03-30T08:02:09Z</time>
      </trkpt>
      <trkpt lat="38.4993830" lon="-0.6454310">
        <ele>807.6</ele>
        <time>2018-03-30T08:02:10Z</time>
      </trkpt>
      <trkpt lat="38.4993820" lon="-0.6454210">
        <ele>807.7</ele>
        <time>2018-03-30T08:02:11Z</time>
      </trkpt>
      <trkpt lat="38.4993710" lon="-0.6454150">
        <ele>807.8</ele>
        <time>2018-03-30T08:02:12Z</time>
      </trkpt>
      <trkpt lat="38.4993730" lon="-0.6454120">
        <ele>807.9</ele>
        <time>2018-03-30T08:02:13Z</time>
      </trkpt>
      <trkpt lat="38.4993730" lon="-0.6454030">
        <ele>808.0</ele>
        <time>2018-03-30T08:02:14Z</time>
      </trkpt>
      <trkpt lat="38.4993770" lon="-0.6453930">
        <ele>808.1</ele>
        <time>2018-03-30T08:02:15Z</time>
      </trkpt>
      <trkpt lat="38.4993780" lon="-0.6453850">
        <ele>808.1</ele>
        <time>2018-03-30T08:02:16Z</time>
      </trkpt>
      <trkpt lat="38.4993810" lon="-0.6453790">
        <ele>808.2</ele>
        <time>2018-03-30T08:02:17Z</time>
      </trkpt>
      <trkpt lat="38.4993800" lon="-0.6453710">
        <ele>808.3</ele>
        <time>2018-03-30T08:02:18Z</time>
      </trkpt>
      <trkpt lat="38.4993800" lon="-0.6453630">
        <ele>808.4</ele>
        <time>2018-03-30T08:02:19Z</time>
      </trkpt>
      <trkpt lat="38.4993770" lon="-0.6453580">
        <ele>808.5</ele>
        <time>2018-03-30T08:02:20Z</time>
      </trkpt>
      <trkpt lat="38.4993800" lon="-0.6453500">
        <ele>808.5</ele>
        <time>2018-03-30T08:02:21Z</time>
      </trkpt>
      <trkpt lat="38.4993810" lon="-0.6453410">
        <ele>808.6</ele>
        <time>2018-03-30T08:02:22Z</time>
      </trkpt>
      <trkpt lat="38.4993820" lon="-0.6453260">
        <ele>808.6</ele>
        <time>2018-03-30T08:02:23Z</time>
      </trkpt>
      <trkpt lat="38.4993850" lon="-0.6453180">
        <ele>808.7</ele>
        <time>2018-03-30T08:02:24Z</time>
      </trkpt>
      <trkpt lat="38.4993910" lon="-0.6453090">
        <ele>808.8</ele>
        <time>2018-03-30T08:02:25Z</time>
      </trkpt>
      <trkpt lat="38.4993940" lon="-0.6453000">
        <ele>808.8</ele>
        <time>2018-03-30T08:02:26Z</time>
      </trkpt>
      <trkpt lat="38.4993960" lon="-0.6452900">
        <ele>808.9</ele>
        <time>2018-03-30T08:02:27Z</time>
      </trkpt>
      <trkpt lat="38.4993870" lon="-0.6452800">
        <ele>808.9</ele>
        <time>2018-03-30T08:02:28Z</time>
      </trkpt>
      <trkpt lat="38.4993850" lon="-0.6452710">
        <ele>809.0</ele>
        <time>2018-03-30T08:02:29Z</time>
      </trkpt>
      <trkpt lat="38.4993880" lon="-0.6452590">
        <ele>809.1</ele>
        <time>2018-03-30T08:02:30Z</time>
      </trkpt>
      <trkpt lat="38.4993880" lon="-0.6452510">
        <ele>809.2</ele>
        <time>2018-03-30T08:02:31Z</time>
      </trkpt>
      <trkpt lat="38.4993880" lon="-0.6452440">
        <ele>809.2</ele>
        <time>2018-03-30T08:02:32Z</time>
      </trkpt>
      <trkpt lat="38.4993870" lon="-0.6452340">
        <ele>809.3</ele>
        <time>2018-03-30T08:02:33Z</time>
      </trkpt>
      <trkpt lat="38.4993860" lon="-0.6452210">
        <ele>809.5</ele>
        <time>2018-03-30T08:02:34Z</time>
      </trkpt>
      <trkpt lat="38.4993840" lon="-0.6452130">
        <ele>809.9</ele>
        <time>2018-03-30T08:02:35Z</time>
      </trkpt>
      <trkpt lat="38.4993820" lon="-0.6452040">
        <ele>810.0</ele>
        <time>2018-03-30T08:02:36Z</time>
      </trkpt>
      <trkpt lat="38.4993770" lon="-0.6452000">
        <ele>810.1</ele>
        <time>2018-03-30T08:02:37Z</time>
      </trkpt>
      <trkpt lat="38.4993750" lon="-0.6452000">
        <ele>810.2</ele>
        <time>2018-03-30T08:02:38Z</time>
      </trkpt>
      <trkpt lat="38.4993740" lon="-0.6451970">
        <ele>810.2</ele>
        <time>2018-03-30T08:02:39Z</time>
      </trkpt>
      <trkpt lat="38.4993680" lon="-0.6451860">
        <ele>810.4</ele>
        <time>2018-03-30T08:02:40Z</time>
      </trkpt>
      <trkpt lat="38.4993550" lon="-0.6451760">
        <ele>810.8</ele>
        <time>2018-03-30T08:02:41Z</time>
      </trkpt>
      <trkpt lat="38.4993500" lon="-0.6451660">
        <ele>811.0</ele>
        <time>2018-03-30T08:02:42Z</time>
      </trkpt>
      <trkpt lat="38.4993520" lon="-0.6451600">
        <ele>811.1</ele>
        <time>2018-03-30T08:02:43Z</time>
      </trkpt>
      <trkpt lat="38.4993520" lon="-0.6451540">
        <ele>811.2</ele>
        <time>2018-03-30T08:02:44Z</time>
      </trkpt>
      <trkpt lat="38.4993500" lon="-0.6451460">
        <ele>811.3</ele>
        <time>2018-03-30T08:02:45Z</time>
      </trkpt>
      <trkpt lat="38.4993430" lon="-0.6451380">
        <ele>811.6</ele>
        <time>2018-03-30T08:02:46Z</time>
      </trkpt>
      <trkpt lat="38.4993370" lon="-0.6451340">
        <ele>811.7</ele>
        <time>2018-03-30T08:02:47Z</time>
      </trkpt>
      <trkpt lat="38.4993370" lon="-0.6451270">
        <ele>811.8</ele>
        <time>2018-03-30T08:02:48Z</time>
      </trkpt>
      <trkpt lat="38.4993380" lon="-0.6451200">
        <ele>811.9</ele>
        <time>2018-03-30T08:02:49Z</time>
      </trkpt>
      <trkpt lat="38.4993360" lon="-0.6451140">
        <ele>812.0</ele>
        <time>2018-03-30T08:02:50Z</time>
      </trkpt>
      <trkpt lat="38.4993350" lon="-0.6451060">
        <ele>812.2</ele>
        <time>2018-03-30T08:02:51Z</time>
      </trkpt>
      <trkpt lat="38.4993320" lon="-0.6450980">
        <ele>812.3</ele>
        <time>2018-03-30T08:02:52Z</time>
      </trkpt>
      <trkpt lat="38.4993320" lon="-0.6450870">
        <ele>812.4</ele>
        <time>2018-03-30T08:02:53Z</time>
      </trkpt>
      <trkpt lat="38.4993310" lon="-0.6450780">
        <ele>812.8</ele>
        <time>2018-03-30T08:02:54Z</time>
      </trkpt>
      <trkpt lat="38.4993260" lon="-0.6450700">
        <ele>813.0</ele>
        <time>2018-03-30T08:02:55Z</time>
      </trkpt>
      <trkpt lat="38.4993200" lon="-0.6450640">
        <ele>813.1</ele>
        <time>2018-03-30T08:02:56Z</time>
      </trkpt>
      <trkpt lat="38.4993170" lon="-0.6450570">
        <ele>813.3</ele>
        <time>2018-03-30T08:02:57Z</time>
      </trkpt>
      <trkpt lat="38.4993120" lon="-0.6450520">
        <ele>813.4</ele>
        <time>2018-03-30T08:02:58Z</time>
      </trkpt>
      <trkpt lat="38.4993070" lon="-0.6450480">
        <ele>813.5</ele>
        <time>2018-03-30T08:02:59Z</time>
      </trkpt>
      <trkpt lat="38.4992990" lon="-0.6450420">
        <ele>813.7</ele>
        <time>2018-03-30T08:03:00Z</time>
      </trkpt>
      <trkpt lat="38.4992920" lon="-0.6450380">
        <ele>813.9</ele>
        <time>2018-03-30T08:03:01Z</time>
      </trkpt>
      <trkpt lat="38.4992850" lon="-0.6450340">
        <ele>814.1</ele>
        <time>2018-03-30T08:03:02Z</time>
      </trkpt>
      <trkpt lat="38.4992780" lon="-0.6450350">
        <ele>814.2</ele>
        <time>2018-03-30T08:03:03Z</time>
      </trkpt>
      <trkpt lat="38.4992760" lon="-0.6450360">
        <ele>814.3</ele>
        <time>2018-03-30T08:03:04Z</time>
      </trkpt>
      <trkpt lat="38.4992690" lon="-0.6450410">
        <ele>817.3</ele>
        <time>2018-03-30T08:03:05Z</time>
      </trkpt>
      <trkpt lat="38.4992640" lon="-0.6450480">
        <ele>817.3</ele>
        <time>2018-03-30T08:03:06Z</time>
      </trkpt>
      <trkpt lat="38.4992620" lon="-0.6450500">
        <ele>817.3</ele>
        <time>2018-03-30T08:03:07Z</time>
      </trkpt>
      <trkpt lat="38.4992570" lon="-0.6450570">
        <ele>817.4</ele>
        <time>2018-03-30T08:03:08Z</time>
      </trkpt>
      <trkpt lat="38.4992510" lon="-0.6450640">
        <ele>817.4</ele>
        <time>2018-03-30T08:03:09Z</time>
      </trkpt>
      <trkpt lat="38.4992460" lon="-0.6450700">
        <ele>817.4</ele>
        <time>2018-03-30T08:03:10Z</time>
      </trkpt>
      <trkpt lat="38.4992410" lon="-0.6450730">
        <ele>817.5</ele>
        <time>2018-03-30T08:03:11Z</time>
      </trkpt>
      <trkpt lat="38.4992330" lon="-0.6450770">
        <ele>817.5</ele>
        <time>2018-03-30T08:03:12Z</time>
      </trkpt>
      <trkpt lat="38.4992270" lon="-0.6450790">
        <ele>817.5</ele>
        <time>2018-03-30T08:03:13Z</time>
      </trkpt>
      <trkpt lat="38.4992200" lon="-0.6450810">
        <ele>817.6</ele>
        <time>2018-03-30T08:03:14Z</time>
      </trkpt>
      <trkpt lat="38.4992140" lon="-0.6450800">
        <ele>817.7</ele>
        <time>2018-03-30T08:03:15Z</time>
      </trkpt>
      <trkpt lat="38.4992080" lon="-0.6450850">
        <ele>817.8</ele>
        <time>2018-03-30T08:03:16Z</time>
      </trkpt>
      <trkpt lat="38.4992080" lon="-0.6450890">
        <ele>817.8</ele>
        <time>2018-03-30T08:03:17Z</time>
      </trkpt>
      <trkpt lat="38.4991910" lon="-0.6451190">
        <ele>818.1</ele>
        <time>2018-03-30T08:04:35Z</time>
      </trkpt>
      <trkpt lat="38.4991900" lon="-0.6451310">
        <ele>818.2</ele>
        <time>2018-03-30T08:04:36Z</time>
      </trkpt>
      <trkpt lat="38.4991870" lon="-0.6451410">
        <ele>818.3</ele>
        <time>2018-03-30T08:04:37Z</time>
      </trkpt>
      <trkpt lat="38.4991800" lon="-0.6451540">
        <ele>818.4</ele>
        <time>2018-03-30T08:04:38Z</time>
      </trkpt>
      <trkpt lat="38.4991730" lon="-0.6451700">
        <ele>818.5</ele>
        <time>2018-03-30T08:04:39Z</time>
      </trkpt>
      <trkpt lat="38.4991660" lon="-0.6451850">
        <ele>818.7</ele>
        <time>2018-03-30T08:04:40Z</time>
      </trkpt>
      <trkpt lat="38.4991570" lon="-0.6452020">
        <ele>818.9</ele>
        <time>2018-03-30T08:04:41Z</time>
      </trkpt>
      <trkpt lat="38.4991470" lon="-0.6452170">
        <ele>819.1</ele>
        <time>2018-03-30T08:04:42Z</time>
      </trkpt>
      <trkpt lat="38.4991370" lon="-0.6452330">
        <ele>819.3</ele>
        <time>2018-03-30T08:04:43Z</time>
      </trkpt>
      <trkpt lat="38.4991250" lon="-0.6452480">
        <ele>819.5</ele>
        <time>2018-03-30T08:04:44Z</time>
      </trkpt>
      <trkpt lat="38.4991150" lon="-0.6452640">
        <ele>819.7</ele>
        <time>2018-03-30T08:04:45Z</time>
      </trkpt>
      <trkpt lat="38.4991050" lon="-0.6452790">
        <ele>819.9</ele>
        <time>2018-03-30T08:04:46Z</time>
      </trkpt>
      <trkpt lat="38.4990910" lon="-0.6452950">
        <ele>820.2</ele>
        <time>2018-03-30T08:04:47Z</time>
      </trkpt>
      <trkpt lat="38.4990810" lon="-0.6453070">
        <ele>820.4</ele>
        <time>2018-03-30T08:04:48Z</time>
      </trkpt>
      <trkpt lat="38.4990700" lon="-0.6453200">
        <ele>820.7</ele>
        <time>2018-03-30T08:04:49Z</time>
      </trkpt>
      <trkpt lat="38.4990570" lon="-0.6453300">
        <ele>821.1</ele>
        <time>2018-03-30T08:04:50Z</time>
      </trkpt>
      <trkpt lat="38.4990460" lon="-0.6453380">
        <ele>821.4</ele>
        <time>2018-03-30T08:04:51Z</time>
      </trkpt>
      <trkpt lat="38.4990330" lon="-0.6453480">
        <ele>821.6</ele>
        <time>2018-03-30T08:04:52Z</time>
      </trkpt>
      <trkpt lat="38.4990190" lon="-0.6453550">
        <ele>822.0</ele>
        <time>2018-03-30T08:04:53Z</time>
      </trkpt>
      <trkpt lat="38.4990050" lon="-0.6453590">
        <ele>822.4</ele>
        <time>2018-03-30T08:04:54Z</time>
      </trkpt>
      <trkpt lat="38.4989910" lon="-0.6453600">
        <ele>822.7</ele>
        <time>2018-03-30T08:04:55Z</time>
      </trkpt>
      <trkpt lat="38.4989790" lon="-0.6453620">
        <ele>822.9</ele>
        <time>2018-03-30T08:04:56Z</time>
      </trkpt>
      <trkpt lat="38.4989690" lon="-0.6453630">
        <ele>823.2</ele>
        <time>2018-03-30T08:04:57Z</time>
      </trkpt>
      <trkpt lat="38.4989600" lon="-0.6453590">
        <ele>823.4</ele>
        <time>2018-03-30T08:04:58Z</time>
      </trkpt>
      <trkpt lat="38.4989490" lon="-0.6453550">
        <ele>823.6</ele>
        <time>2018-03-30T08:04:59Z</time>
      </trkpt>
      <trkpt lat="38.4989410" lon="-0.6453500">
        <ele>823.8</ele>
        <time>2018-03-30T08:05:00Z</time>
      </trkpt>
      <trkpt lat="38.4989340" lon="-0.6453420">
        <ele>824.1</ele>
        <time>2018-03-30T08:05:01Z</time>
      </trkpt>
      <trkpt lat="38.4989270" lon="-0.6453340">
        <ele>824.3</ele>
        <time>2018-03-30T08:05:02Z</time>
      </trkpt>
      <trkpt lat="38.4989200" lon="-0.6453270">
        <ele>824.5</ele>
        <time>2018-03-30T08:05:03Z</time>
      </trkpt>
      <trkpt lat="38.4989140" lon="-0.6453140">
        <ele>824.8</ele>
        <time>2018-03-30T08:05:04Z</time>
      </trkpt>
      <trkpt lat="38.4989050" lon="-0.6453050">
        <ele>825.0</ele>
        <time>2018-03-30T08:05:05Z</time>
      </trkpt>
      <trkpt lat="38.4989010" lon="-0.6452960">
        <ele>825.2</ele>
        <time>2018-03-30T08:05:06Z</time>
      </trkpt>
      <trkpt lat="38.4988990" lon="-0.6452840">
        <ele>825.3</ele>
        <time>2018-03-30T08:05:07Z</time>
      </trkpt>
      <trkpt lat="38.4988930" lon="-0.6452730">
        <ele>825.7</ele>
        <time>2018-03-30T08:05:08Z</time>
      </trkpt>
      <trkpt lat="38.4988900" lon="-0.6452620">
        <ele>826.0</ele>
        <time>2018-03-30T08:05:09Z</time>
      </trkpt>
      <trkpt lat="38.4988860" lon="-0.6452480">
        <ele>826.2</ele>
        <time>2018-03-30T08:05:10Z</time>
      </trkpt>
      <trkpt lat="38.4988810" lon="-0.6452350">
        <ele>826.4</ele>
        <time>2018-03-30T08:05:11Z</time>
      </trkpt>
      <trkpt lat="38.4988770" lon="-0.6452220">
        <ele>826.6</ele>
        <time>2018-03-30T08:05:12Z</time>
      </trkpt>
      <trkpt lat="38.4988750" lon="-0.6452100">
        <ele>826.8</ele>
        <time>2018-03-30T08:05:13Z</time>
      </trkpt>
      <trkpt lat="38.4988760" lon="-0.6451990">
        <ele>826.9</ele>
        <time>2018-03-30T08:05:14Z</time>
      </trkpt>
      <trkpt lat="38.4988750" lon="-0.6451860">
        <ele>827.1</ele>
        <time>2018-03-30T08:05:15Z</time>
      </trkpt>
      <trkpt lat="38.4988770" lon="-0.6451720">
        <ele>827.3</ele>
        <time>2018-03-30T08:05:16Z</time>
      </trkpt>
      <trkpt lat="38.4988760" lon="-0.6451610">
        <ele>827.4</ele>
        <time>2018-03-30T08:05:17Z</time>
      </trkpt>
      <trkpt lat="38.4988760" lon="-0.6451500">
        <ele>827.7</ele>
        <time>2018-03-30T08:05:18Z</time>
      </trkpt>
      <trkpt lat="38.4988760" lon="-0.6451370">
        <ele>827.9</ele>
        <time>2018-03-30T08:05:19Z</time>
      </trkpt>
      <trkpt lat="38.4988750" lon="-0.6451270">
        <ele>828.1</ele>
        <time>2018-03-30T08:05:20Z</time>
      </trkpt>
      <trkpt lat="38.4988720" lon="-0.6451130">
        <ele>828.4</ele>
        <time>2018-03-30T08:05:21Z</time>
      </trkpt>
      <trkpt lat="38.4988710" lon="-0.6451010">
        <ele>828.8</ele>
        <time>2018-03-30T08:05:22Z</time>
      </trkpt>
      <trkpt lat="38.4988740" lon="-0.6450900">
        <ele>829.0</ele>
        <time>2018-03-30T08:05:23Z</time>
      </trkpt>
      <trkpt lat="38.4988730" lon="-0.6450770">
        <ele>829.2</ele>
        <time>2018-03-30T08:05:24Z</time>
      </trkpt>
      <trkpt lat="38.4988730" lon="-0.6450650">
        <ele>829.4</ele>
        <time>2018-03-30T08:05:25Z</time>
      </trkpt>
      <trkpt lat="38.4988720" lon="-0.6450550">
        <ele>829.7</ele>
        <time>2018-03-30T08:05:26Z</time>
      </trkpt>
      <trkpt lat="38.4988700" lon="-0.6450450">
        <ele>829.9</ele>
        <time>2018-03-30T08:05:27Z</time>
      </trkpt>
      <trkpt lat="38.4988680" lon="-0.6450340">
        <ele>830.0</ele>
        <time>2018-03-30T08:05:28Z</time>
      </trkpt>
      <trkpt lat="38.4988680" lon="-0.6450220">
        <ele>830.2</ele>
        <time>2018-03-30T08:05:29Z</time>
      </trkpt>
      <trkpt lat="38.4988660" lon="-0.6450090">
        <ele>830.4</ele>
        <time>2018-03-30T08:05:30Z</time>
      </trkpt>
      <trkpt lat="38.4988690" lon="-0.6449970">
        <ele>830.6</ele>
        <time>2018-03-30T08:05:31Z</time>
      </trkpt>
      <trkpt lat="38.4988730" lon="-0.6449850">
        <ele>830.9</ele>
        <time>2018-03-30T08:05:32Z</time>
      </trkpt>
      <trkpt lat="38.4988770" lon="-0.6449740">
        <ele>831.2</ele>
        <time>2018-03-30T08:05:33Z</time>
      </trkpt>
      <trkpt lat="38.4988790" lon="-0.6449600">
        <ele>831.4</ele>
        <time>2018-03-30T08:05:34Z</time>
      </trkpt>
      <trkpt lat="38.4988810" lon="-0.6449480">
        <ele>831.5</ele>
        <time>2018-03-30T08:05:35Z</time>
      </trkpt>
      <trkpt lat="38.4988800" lon="-0.6449360">
        <ele>831.7</ele>
        <time>2018-03-30T08:05:36Z</time>
      </trkpt>
      <trkpt lat="38.4988800" lon="-0.6449240">
        <ele>831.8</ele>
        <time>2018-03-30T08:05:37Z</time>
      </trkpt>
      <trkpt lat="38.4988780" lon="-0.6449140">
        <ele>832.0</ele>
        <time>2018-03-30T08:05:38Z</time>
      </trkpt>
      <trkpt lat="38.4988740" lon="-0.6449050">
        <ele>832.1</ele>
        <time>2018-03-30T08:05:39Z</time>
      </trkpt>
      <trkpt lat="38.4988680" lon="-0.6448940">
        <ele>832.3</ele>
        <time>2018-03-30T08:05:40Z</time>
      </trkpt>
      <trkpt lat="38.4988660" lon="-0.6448840">
        <ele>832.4</ele>
        <time>2018-03-30T08:05:41Z</time>
      </trkpt>
      <trkpt lat="38.4988660" lon="-0.6448720">
        <ele>832.6</ele>
        <time>2018-03-30T08:05:42Z</time>
      </trkpt>
      <trkpt lat="38.4988630" lon="-0.6448620">
        <ele>832.7</ele>
        <time>2018-03-30T08:05:43Z</time>
      </trkpt>
      <trkpt lat="38.4988580" lon="-0.6448510">
        <ele>832.8</ele>
        <time>2018-03-30T08:05:44Z</time>
      </trkpt>
      <trkpt lat="38.4988520" lon="-0.6448400">
        <ele>833.0</ele>
        <time>2018-03-30T08:05:45Z</time>
      </trkpt>
      <trkpt lat="38.4988400" lon="-0.6448300">
        <ele>833.2</ele>
        <time>2018-03-30T08:05:46Z</time>
      </trkpt>
      <trkpt lat="38.4988360" lon="-0.6448190">
        <ele>833.5</ele>
        <time>2018-03-30T08:05:47Z</time>
      </trkpt>
      <trkpt lat="38.4988330" lon="-0.6448090">
        <ele>833.7</ele>
        <time>2018-03-30T08:05:48Z</time>
      </trkpt>
      <trkpt lat="38.4988290" lon="-0.6447980">
        <ele>833.9</ele>
        <time>2018-03-30T08:05:49Z</time>
      </trkpt>
      <trkpt lat="38.4988240" lon="-0.6447890">
        <ele>834.1</ele>
        <time>2018-03-30T08:05:50Z</time>
      </trkpt>
      <trkpt lat="38.4988220" lon="-0.6447790">
        <ele>834.2</ele>
        <time>2018-03-30T08:05:51Z</time>
      </trkpt>
      <trkpt lat="38.4988210" lon="-0.6447700">
        <ele>834.4</ele>
        <time>2018-03-30T08:05:52Z</time>
      </trkpt>
      <trkpt lat="38.4988170" lon="-0.6447610">
        <ele>834.5</ele>
        <time>2018-03-30T08:05:53Z</time>
      </trkpt>
      <trkpt lat="38.4988130" lon="-0.6447530">
        <ele>834.6</ele>
        <time>2018-03-30T08:05:54Z</time>
      </trkpt>
      <trkpt lat="38.4988060" lon="-0.6447430">
        <ele>834.8</ele>
        <time>2018-03-30T08:05:55Z</time>
      </trkpt>
      <trkpt lat="38.4987990" lon="-0.6447340">
        <ele>834.9</ele>
        <time>2018-03-30T08:05:56Z</time>
      </trkpt>
      <trkpt lat="38.4987930" lon="-0.6447240">
        <ele>835.1</ele>
        <time>2018-03-30T08:05:57Z</time>
      </trkpt>
      <trkpt lat="38.4987860" lon="-0.6447160">
        <ele>835.3</ele>
        <time>2018-03-30T08:05:58Z</time>
      </trkpt>
      <trkpt lat="38.4987820" lon="-0.6447070">
        <ele>835.5</ele>
        <time>2018-03-30T08:05:59Z</time>
      </trkpt>
      <trkpt lat="38.4987740" lon="-0.6446980">
        <ele>835.8</ele>
        <time>2018-03-30T08:06:00Z</time>
      </trkpt>
      <trkpt lat="38.4987690" lon="-0.6446880">
        <ele>836.0</ele>
        <time>2018-03-30T08:06:01Z</time>
      </trkpt>
      <trkpt lat="38.4987660" lon="-0.6446770">
        <ele>836.1</ele>
        <time>2018-03-30T08:06:02Z</time>
      </trkpt>
      <trkpt lat="38.4987610" lon="-0.6446680">
        <ele>836.3</ele>
        <time>2018-03-30T08:06:03Z</time>
      </trkpt>
      <trkpt lat="38.4987510" lon="-0.6446560">
        <ele>836.6</ele>
        <time>2018-03-30T08:06:04Z</time>
      </trkpt>
      <trkpt lat="38.4987410" lon="-0.6446490">
        <ele>836.8</ele>
        <time>2018-03-30T08:06:05Z</time>
      </trkpt>
      <trkpt lat="38.4987340" lon="-0.6446400">
        <ele>837.0</ele>
        <time>2018-03-30T08:06:06Z</time>
      </trkpt>
      <trkpt lat="38.4987250" lon="-0.6446310">
        <ele>837.2</ele>
        <time>2018-03-30T08:06:07Z</time>
      </trkpt>
      <trkpt lat="38.4987250" lon="-0.6446190">
        <ele>837.4</ele>
        <time>2018-03-30T08:06:08Z</time>
      </trkpt>
      <trkpt lat="38.4987220" lon="-0.6446060">
        <ele>837.6</ele>
        <time>2018-03-30T08:06:09Z</time>
      </trkpt>
      <trkpt lat="38.4987150" lon="-0.6445930">
        <ele>837.8</ele>
        <time>2018-03-30T08:06:10Z</time>
      </trkpt>
      <trkpt lat="38.4987120" lon="-0.6445830">
        <ele>837.9</ele>
        <time>2018-03-30T08:06:11Z</time>
      </trkpt>
      <trkpt lat="38.4987090" lon="-0.6445720">
        <ele>838.0</ele>
        <time>2018-03-30T08:06:12Z</time>
      </trkpt>
      <trkpt lat="38.4987050" lon="-0.6445610">
        <ele>838.1</ele>
        <time>2018-03-30T08:06:13Z</time>
      </trkpt>
      <trkpt lat="38.4987010" lon="-0.6445490">
        <ele>838.2</ele>
        <time>2018-03-30T08:06:14Z</time>
      </trkpt>
      <trkpt lat="38.4986980" lon="-0.6445390">
        <ele>838.3</ele>
        <time>2018-03-30T08:06:15Z</time>
      </trkpt>
      <trkpt lat="38.4986950" lon="-0.6445290">
        <ele>838.4</ele>
        <time>2018-03-30T08:06:16Z</time>
      </trkpt>
      <trkpt lat="38.4986900" lon="-0.6445180">
        <ele>838.6</ele>
        <time>2018-03-30T08:06:17Z</time>
      </trkpt>
      <trkpt lat="38.4986840" lon="-0.6445060">
        <ele>838.8</ele>
        <time>2018-03-30T08:06:18Z</time>
      </trkpt>
      <trkpt lat="38.4986820" lon="-0.6444950">
        <ele>838.9</ele>
        <time>2018-03-30T08:06:19Z</time>
      </trkpt>
      <trkpt lat="38.4986820" lon="-0.6444810">
        <ele>839.1</ele>
        <time>2018-03-30T08:06:20Z</time>
      </trkpt>
      <trkpt lat="38.4986820" lon="-0.6444640">
        <ele>839.3</ele>
        <time>2018-03-30T08:06:21Z</time>
      </trkpt>
      <trkpt lat="38.4986830" lon="-0.6444520">
        <ele>839.4</ele>
        <time>2018-03-30T08:06:22Z</time>
      </trkpt>
      <trkpt lat="38.4986920" lon="-0.6444420">
        <ele>839.7</ele>
        <time>2018-03-30T08:06:23Z</time>
      </trkpt>
      <trkpt lat="38.4987020" lon="-0.6444330">
        <ele>839.8</ele>
        <time>2018-03-30T08:06:24Z</time>
      </trkpt>
      <trkpt lat="38.4987070" lon="-0.6444240">
        <ele>839.9</ele>
        <time>2018-03-30T08:06:25Z</time>
      </trkpt>
      <trkpt lat="38.4987140" lon="-0.6444150">
        <ele>840.0</ele>
        <time>2018-03-30T08:06:26Z</time>
      </trkpt>
      <trkpt lat="38.4987220" lon="-0.6444040">
        <ele>840.2</ele>
        <time>2018-03-30T08:06:27Z</time>
      </trkpt>
      <trkpt lat="38.4987330" lon="-0.6443970">
        <ele>840.3</ele>
        <time>2018-03-30T08:06:28Z</time>
      </trkpt>
      <trkpt lat="38.4987400" lon="-0.6443860">
        <ele>840.5</ele>
        <time>2018-03-30T08:06:29Z</time>
      </trkpt>
      <trkpt lat="38.4987490" lon="-0.6443760">
        <ele>840.7</ele>
        <time>2018-03-30T08:06:30Z</time>
      </trkpt>
      <trkpt lat="38.4987530" lon="-0.6443640">
        <ele>840.9</ele>
        <time>2018-03-30T08:06:31Z</time>
      </trkpt>
      <trkpt lat="38.4987620" lon="-0.6443550">
        <ele>841.1</ele>
        <time>2018-03-30T08:06:32Z</time>
      </trkpt>
      <trkpt lat="38.4987700" lon="-0.6443480">
        <ele>841.2</ele>
        <time>2018-03-30T08:06:33Z</time>
      </trkpt>
      <trkpt lat="38.4987800" lon="-0.6443390">
        <ele>841.4</ele>
        <time>2018-03-30T08:06:34Z</time>
      </trkpt>
      <trkpt lat="38.4987880" lon="-0.6443300">
        <ele>841.6</ele>
        <time>2018-03-30T08:06:35Z</time>
      </trkpt>
      <trkpt lat="38.4987970" lon="-0.6443220">
        <ele>841.8</ele>
        <time>2018-03-30T08:06:36Z</time>
      </trkpt>
      <trkpt lat="38.4988070" lon="-0.6443130">
        <ele>842.1</ele>
        <time>2018-03-30T08:06:37Z</time>
      </trkpt>
      <trkpt lat="38.4988150" lon="-0.6443060">
        <ele>842.2</ele>
        <time>2018-03-30T08:06:38Z</time>
      </trkpt>
      <trkpt lat="38.4988230" lon="-0.6442980">
        <ele>842.4</ele>
        <time>2018-03-30T08:06:39Z</time>
      </trkpt>
      <trkpt lat="38.4988300" lon="-0.6442870">
        <ele>842.5</ele>
        <time>2018-03-30T08:06:40Z</time>
      </trkpt>
      <trkpt lat="38.4988350" lon="-0.6442740">
        <ele>842.6</ele>
        <time>2018-03-30T08:06:41Z</time>
      </trkpt>
      <trkpt lat="38.4988410" lon="-0.6442610">
        <ele>842.8</ele>
        <time>2018-03-30T08:06:42Z</time>
      </trkpt>
      <trkpt lat="38.4988460" lon="-0.6442460">
        <ele>843.1</ele>
        <time>2018-03-30T08:06:43Z</time>
      </trkpt>
      <trkpt lat="38.4988520" lon="-0.6442320">
        <ele>843.4</ele>
        <time>2018-03-30T08:06:44Z</time>
      </trkpt>
      <trkpt lat="38.4988590" lon="-0.6442210">
        <ele>843.5</ele>
        <time>2018-03-30T08:06:45Z</time>
      </trkpt>
      <trkpt lat="38.4988630" lon="-0.6442090">
        <ele>843.6</ele>
        <time>2018-03-30T08:06:46Z</time>
      </trkpt>
      <trkpt lat="38.4988690" lon="-0.6441970">
        <ele>843.7</ele>
        <time>2018-03-30T08:06:47Z</time>
      </trkpt>
      <trkpt lat="38.4988720" lon="-0.6441830">
        <ele>843.9</ele>
        <time>2018-03-30T08:06:48Z</time>
      </trkpt>
      <trkpt lat="38.4988750" lon="-0.6441700">
        <ele>844.2</ele>
        <time>2018-03-30T08:06:49Z</time>
      </trkpt>
      <trkpt lat="38.4988730" lon="-0.6441560">
        <ele>844.3</ele>
        <time>2018-03-30T08:06:50Z</time>
      </trkpt>
      <trkpt lat="38.4988740" lon="-0.6441430">
        <ele>844.4</ele>
        <time>2018-03-30T08:06:51Z</time>
      </trkpt>
      <trkpt lat="38.4988760" lon="-0.6441310">
        <ele>844.5</ele>
        <time>2018-03-30T08:06:52Z</time>
      </trkpt>
      <trkpt lat="38.4988800" lon="-0.6441180">
        <ele>844.7</ele>
        <time>2018-03-30T08:06:53Z</time>
      </trkpt>
      <trkpt lat="38.4988810" lon="-0.6441050">
        <ele>844.8</ele>
        <time>2018-03-30T08:06:54Z</time>
      </trkpt>
      <trkpt lat="38.4988820" lon="-0.6440910">
        <ele>845.0</ele>
        <time>2018-03-30T08:06:55Z</time>
      </trkpt>
      <trkpt lat="38.4988860" lon="-0.6440780">
        <ele>845.2</ele>
        <time>2018-03-30T08:06:56Z</time>
      </trkpt>
      <trkpt lat="38.4988940" lon="-0.6440660">
        <ele>845.3</ele>
        <time>2018-03-30T08:06:57Z</time>
      </trkpt>
      <trkpt lat="38.4988970" lon="-0.6440490">
        <ele>845.5</ele>
        <time>2018-03-30T08:06:58Z</time>
      </trkpt>
      <trkpt lat="38.4988930" lon="-0.6440310">
        <ele>845.7</ele>
        <time>2018-03-30T08:06:59Z</time>
      </trkpt>
      <trkpt lat="38.4988890" lon="-0.6440130">
        <ele>846.0</ele>
        <time>2018-03-30T08:07:00Z</time>
      </trkpt>
      <trkpt lat="38.4988880" lon="-0.6439990">
        <ele>846.2</ele>
        <time>2018-03-30T08:07:01Z</time>
      </trkpt>
      <trkpt lat="38.4988890" lon="-0.6439860">
        <ele>846.3</ele>
        <time>2018-03-30T08:07:02Z</time>
      </trkpt>
      <trkpt lat="38.4988880" lon="-0.6439710">
        <ele>846.5</ele>
        <time>2018-03-30T08:07:03Z</time>
      </trkpt>
      <trkpt lat="38.4988850" lon="-0.6439560">
        <ele>846.7</ele>
        <time>2018-03-30T08:07:04Z</time>
      </trkpt>
      <trkpt lat="38.4988850" lon="-0.6439430">
        <ele>846.8</ele>
        <time>2018-03-30T08:07:05Z</time>
      </trkpt>
      <trkpt lat="38.4988870" lon="-0.6439290">
        <ele>847.0</ele>
        <time>2018-03-30T08:07:06Z</time>
      </trkpt>
      <trkpt lat="38.4988890" lon="-0.6439130">
        <ele>847.2</ele>
        <time>2018-03-30T08:07:07Z</time>
      </trkpt>
      <trkpt lat="38.4988910" lon="-0.6438970">
        <ele>847.4</ele>
        <time>2018-03-30T08:07:08Z</time>
      </trkpt>
      <trkpt lat="38.4988940" lon="-0.6438820">
        <ele>847.7</ele>
        <time>2018-03-30T08:07:09Z</time>
      </trkpt>
      <trkpt lat="38.4988980" lon="-0.6438680">
        <ele>847.9</ele>
        <time>2018-03-30T08:07:10Z</time>
      </trkpt>
      <trkpt lat="38.4989000" lon="-0.6438530">
        <ele>848.1</ele>
        <time>2018-03-30T08:07:11Z</time>
      </trkpt>
      <trkpt lat="38.4988970" lon="-0.6438350">
        <ele>848.4</ele>
        <time>2018-03-30T08:07:12Z</time>
      </trkpt>
      <trkpt lat="38.4989010" lon="-0.6438230">
        <ele>848.5</ele>
        <time>2018-03-30T08:07:13Z</time>
      </trkpt>
      <trkpt lat="38.4989010" lon="-0.6438060">
        <ele>848.7</ele>
        <time>2018-03-30T08:07:14Z</time>
      </trkpt>
      <trkpt lat="38.4989030" lon="-0.6437900">
        <ele>848.8</ele>
        <time>2018-03-30T08:07:15Z</time>
      </trkpt>
      <trkpt lat="38.4989070" lon="-0.6437770">
        <ele>848.9</ele>
        <time>2018-03-30T08:07:16Z</time>
      </trkpt>
      <trkpt lat="38.4989070" lon="-0.6437590">
        <ele>849.1</ele>
        <time>2018-03-30T08:07:17Z</time>
      </trkpt>
      <trkpt lat="38.4989090" lon="-0.6437420">
        <ele>849.3</ele>
        <time>2018-03-30T08:07:18Z</time>
      </trkpt>
      <trkpt lat="38.4989090" lon="-0.6437280">
        <ele>849.5</ele>
        <time>2018-03-30T08:07:19Z</time>
      </trkpt>
      <trkpt lat="38.4989040" lon="-0.6437140">
        <ele>849.6</ele>
        <time>2018-03-30T08:07:20Z</time>
      </trkpt>
      <trkpt lat="38.4989040" lon="-0.6436990">
        <ele>849.8</ele>
        <time>2018-03-30T08:07:21Z</time>
      </trkpt>
      <trkpt lat="38.4988990" lon="-0.6436820">
        <ele>849.9</ele>
        <time>2018-03-30T08:07:22Z</time>
      </trkpt>
      <trkpt lat="38.4988930" lon="-0.6436660">
        <ele>850.1</ele>
        <time>2018-03-30T08:07:23Z</time>
      </trkpt>
      <trkpt lat="38.4988950" lon="-0.6436500">
        <ele>850.3</ele>
        <time>2018-03-30T08:07:24Z</time>
      </trkpt>
      <trkpt lat="38.4988910" lon="-0.6436340">
        <ele>850.4</ele>
        <time>2018-03-30T08:07:25Z</time>
      </trkpt>
      <trkpt lat="38.4988840" lon="-0.6436190">
        <ele>850.6</ele>
        <time>2018-03-30T08:07:26Z</time>
      </trkpt>
      <trkpt lat="38.4988800" lon="-0.6436060">
        <ele>850.7</ele>
        <time>2018-03-30T08:07:27Z</time>
      </trkpt>
      <trkpt lat="38.4988750" lon="-0.6435930">
        <ele>850.9</ele>
        <time>2018-03-30T08:07:28Z</time>
      </trkpt>
      <trkpt lat="38.4988710" lon="-0.6435800">
        <ele>851.1</ele>
        <time>2018-03-30T08:07:29Z</time>
      </trkpt>
      <trkpt lat="38.4988690" lon="-0.6435690">
        <ele>851.2</ele>
        <time>2018-03-30T08:07:30Z</time>
      </trkpt>
      <trkpt lat="38.4988680" lon="-0.6435560">
        <ele>851.3</ele>
        <time>2018-03-30T08:07:31Z</time>
      </trkpt>
      <trkpt lat="38.4988810" lon="-0.6435470">
        <ele>851.4</ele>
        <time>2018-03-30T08:07:32Z</time>
      </trkpt>
      <trkpt lat="38.4988840" lon="-0.6435290">
        <ele>851.6</ele>
        <time>2018-03-30T08:07:33Z</time>
      </trkpt>
      <trkpt lat="38.4988890" lon="-0.6435160">
        <ele>851.7</ele>
        <time>2018-03-30T08:07:34Z</time>
      </trkpt>
      <trkpt lat="38.4988890" lon="-0.6435030">
        <ele>851.8</ele>
        <time>2018-03-30T08:07:35Z</time>
      </trkpt>
      <trkpt lat="38.4988890" lon="-0.6434930">
        <ele>851.9</ele>
        <time>2018-03-30T08:07:36Z</time>
      </trkpt>
      <trkpt lat="38.4988830" lon="-0.6434830">
        <ele>852.0</ele>
        <time>2018-03-30T08:07:37Z</time>
      </trkpt>
      <trkpt lat="38.4988860" lon="-0.6434720">
        <ele>852.1</ele>
        <time>2018-03-30T08:07:38Z</time>
      </trkpt>
      <trkpt lat="38.4988860" lon="-0.6434550">
        <ele>852.2</ele>
        <time>2018-03-30T08:07:39Z</time>
      </trkpt>
      <trkpt lat="38.4988820" lon="-0.6434350">
        <ele>852.4</ele>
        <time>2018-03-30T08:07:40Z</time>
      </trkpt>
      <trkpt lat="38.4988800" lon="-0.6434160">
        <ele>852.6</ele>
        <time>2018-03-30T08:07:41Z</time>
      </trkpt>
      <trkpt lat="38.4988730" lon="-0.6433980">
        <ele>852.7</ele>
        <time>2018-03-30T08:07:42Z</time>
      </trkpt>
      <trkpt lat="38.4988740" lon="-0.6433800">
        <ele>852.8</ele>
        <time>2018-03-30T08:07:43Z</time>
      </trkpt>
      <trkpt lat="38.4988710" lon="-0.6433660">
        <ele>852.9</ele>
        <time>2018-03-30T08:07:44Z</time>
      </trkpt>
      <trkpt lat="38.4988710" lon="-0.6433510">
        <ele>853.0</ele>
        <time>2018-03-30T08:07:45Z</time>
      </trkpt>
      <trkpt lat="38.4988690" lon="-0.6433350">
        <ele>853.2</ele>
        <time>2018-03-30T08:07:46Z</time>
      </trkpt>
      <trkpt lat="38.4988680" lon="-0.6433210">
        <ele>853.3</ele>
        <time>2018-03-30T08:07:47Z</time>
      </trkpt>
      <trkpt lat="38.4988660" lon="-0.6433050">
        <ele>853.5</ele>
        <time>2018-03-30T08:07:48Z</time>
      </trkpt>
      <trkpt lat="38.4988620" lon="-0.6432950">
        <ele>853.6</ele>
        <time>2018-03-30T08:07:49Z</time>
      </trkpt>
      <trkpt lat="38.4988590" lon="-0.6432790">
        <ele>853.7</ele>
        <time>2018-03-30T08:07:50Z</time>
      </trkpt>
      <trkpt lat="38.4988550" lon="-0.6432590">
        <ele>853.8</ele>
        <time>2018-03-30T08:07:51Z</time>
      </trkpt>
      <trkpt lat="38.4988450" lon="-0.6432380">
        <ele>854.0</ele>
        <time>2018-03-30T08:07:52Z</time>
      </trkpt>
      <trkpt lat="38.4988370" lon="-0.6432180">
        <ele>854.2</ele>
        <time>2018-03-30T08:07:53Z</time>
      </trkpt>
      <trkpt lat="38.4988290" lon="-0.6432040">
        <ele>854.5</ele>
        <time>2018-03-30T08:07:54Z</time>
      </trkpt>
      <trkpt lat="38.4988190" lon="-0.6431830">
        <ele>854.7</ele>
        <time>2018-03-30T08:07:55Z</time>
      </trkpt>
      <trkpt lat="38.4988120" lon="-0.6431690">
        <ele>854.8</ele>
        <time>2018-03-30T08:07:56Z</time>
      </trkpt>
      <trkpt lat="38.4988040" lon="-0.6431530">
        <ele>855.0</ele>
        <time>2018-03-30T08:07:57Z</time>
      </trkpt>
      <trkpt lat="38.4988010" lon="-0.6431410">
        <ele>855.1</ele>
        <time>2018-03-30T08:07:58Z</time>
      </trkpt>
      <trkpt lat="38.4987910" lon="-0.6431280">
        <ele>855.4</ele>
        <time>2018-03-30T08:07:59Z</time>
      </trkpt>
      <trkpt lat="38.4987690" lon="-0.6431050">
        <ele>855.7</ele>
        <time>2018-03-30T08:08:00Z</time>
      </trkpt>
      <trkpt lat="38.4987600" lon="-0.6430950">
        <ele>855.8</ele>
        <time>2018-03-30T08:08:01Z</time>
      </trkpt>
      <trkpt lat="38.4987570" lon="-0.6430790">
        <ele>856.0</ele>
        <time>2018-03-30T08:08:02Z</time>
      </trkpt>
      <trkpt lat="38.4987560" lon="-0.6430610">
        <ele>856.1</ele>
        <time>2018-03-30T08:08:03Z</time>
      </trkpt>
      <trkpt lat="38.4987530" lon="-0.6430450">
        <ele>856.3</ele>
        <time>2018-03-30T08:08:04Z</time>
      </trkpt>
      <trkpt lat="38.4987530" lon="-0.6430270">
        <ele>856.5</ele>
        <time>2018-03-30T08:08:05Z</time>
      </trkpt>
      <trkpt lat="38.4987520" lon="-0.6430080">
        <ele>856.7</ele>
        <time>2018-03-30T08:08:06Z</time>
      </trkpt>
      <trkpt lat="38.4987530" lon="-0.6429920">
        <ele>856.8</ele>
        <time>2018-03-30T08:08:07Z</time>
      </trkpt>
      <trkpt lat="38.4987590" lon="-0.6429750">
        <ele>857.0</ele>
        <time>2018-03-30T08:08:08Z</time>
      </trkpt>
      <trkpt lat="38.4987690" lon="-0.6429570">
        <ele>857.1</ele>
        <time>2018-03-30T08:08:09Z</time>
      </trkpt>
      <trkpt lat="38.4987590" lon="-0.6429430">
        <ele>857.3</ele>
        <time>2018-03-30T08:08:10Z</time>
      </trkpt>
      <trkpt lat="38.4987600" lon="-0.6429250">
        <ele>857.5</ele>
        <time>2018-03-30T08:08:11Z</time>
      </trkpt>
      <trkpt lat="38.4987590" lon="-0.6429130">
        <ele>857.7</ele>
        <time>2018-03-30T08:08:12Z</time>
      </trkpt>
      <trkpt lat="38.4987640" lon="-0.6429070">
        <ele>857.7</ele>
        <time>2018-03-30T08:08:13Z</time>
      </trkpt>
      <trkpt lat="38.4987740" lon="-0.6428990">
        <ele>857.8</ele>
        <time>2018-03-30T08:08:14Z</time>
      </trkpt>
      <trkpt lat="38.4987810" lon="-0.6428910">
        <ele>857.9</ele>
        <time>2018-03-30T08:08:15Z</time>
      </trkpt>
      <trkpt lat="38.4987870" lon="-0.6428850">
        <ele>858.0</ele>
        <time>2018-03-30T08:08:16Z</time>
      </trkpt>
      <trkpt lat="38.4987950" lon="-0.6428750">
        <ele>858.1</ele>
        <time>2018-03-30T08:08:17Z</time>
      </trkpt>
      <trkpt lat="38.4988040" lon="-0.6428680">
        <ele>858.3</ele>
        <time>2018-03-30T08:08:18Z</time>
      </trkpt>
      <trkpt lat="38.4988150" lon="-0.6428550">
        <ele>858.5</ele>
        <time>2018-03-30T08:08:19Z</time>
      </trkpt>
      <trkpt lat="38.4988310" lon="-0.6428380">
        <ele>858.7</ele>
        <time>2018-03-30T08:08:20Z</time>
      </trkpt>
      <trkpt lat="38.4988470" lon="-0.6428190">
        <ele>859.0</ele>
        <time>2018-03-30T08:08:21Z</time>
      </trkpt>
      <trkpt lat="38.4988630" lon="-0.6427990">
        <ele>859.2</ele>
        <time>2018-03-30T08:08:22Z</time>
      </trkpt>
      <trkpt lat="38.4988780" lon="-0.6427780">
        <ele>859.5</ele>
        <time>2018-03-30T08:08:23Z</time>
      </trkpt>
      <trkpt lat="38.4988930" lon="-0.6427570">
        <ele>859.8</ele>
        <time>2018-03-30T08:08:24Z</time>
      </trkpt>
      <trkpt lat="38.4989000" lon="-0.6427390">
        <ele>859.9</ele>
        <time>2018-03-30T08:08:25Z</time>
      </trkpt>
      <trkpt lat="38.4989100" lon="-0.6427240">
        <ele>860.1</ele>
        <time>2018-03-30T08:08:26Z</time>
      </trkpt>
      <trkpt lat="38.4989210" lon="-0.6427120">
        <ele>860.2</ele>
        <time>2018-03-30T08:08:27Z</time>
      </trkpt>
      <trkpt lat="38.4989320" lon="-0.6426990">
        <ele>860.4</ele>
        <time>2018-03-30T08:08:28Z</time>
      </trkpt>
      <trkpt lat="38.4989420" lon="-0.6426850">
        <ele>860.6</ele>
        <time>2018-03-30T08:08:29Z</time>
      </trkpt>
      <trkpt lat="38.4989560" lon="-0.6426670">
        <ele>860.9</ele>
        <time>2018-03-30T08:08:30Z</time>
      </trkpt>
      <trkpt lat="38.4989660" lon="-0.6426500">
        <ele>861.1</ele>
        <time>2018-03-30T08:08:31Z</time>
      </trkpt>
      <trkpt lat="38.4989690" lon="-0.6426280">
        <ele>861.3</ele>
        <time>2018-03-30T08:08:32Z</time>
      </trkpt>
      <trkpt lat="38.4989760" lon="-0.6426080">
        <ele>861.6</ele>
        <time>2018-03-30T08:08:33Z</time>
      </trkpt>
      <trkpt lat="38.4989850" lon="-0.6425920">
        <ele>861.9</ele>
        <time>2018-03-30T08:08:34Z</time>
      </trkpt>
      <trkpt lat="38.4989910" lon="-0.6425770">
        <ele>862.2</ele>
        <time>2018-03-30T08:08:35Z</time>
      </trkpt>
      <trkpt lat="38.4989980" lon="-0.6425630">
        <ele>862.4</ele>
        <time>2018-03-30T08:08:36Z</time>
      </trkpt>
      <trkpt lat="38.4990060" lon="-0.6425480">
        <ele>862.6</ele>
        <time>2018-03-30T08:08:37Z</time>
      </trkpt>
      <trkpt lat="38.4990070" lon="-0.6425240">
        <ele>862.9</ele>
        <time>2018-03-30T08:08:38Z</time>
      </trkpt>
      <trkpt lat="38.4990110" lon="-0.6425000">
        <ele>863.2</ele>
        <time>2018-03-30T08:08:39Z</time>
      </trkpt>
      <trkpt lat="38.4990040" lon="-0.6424790">
        <ele>863.4</ele>
        <time>2018-03-30T08:08:40Z</time>
      </trkpt>
      <trkpt lat="38.4990030" lon="-0.6424610">
        <ele>863.8</ele>
        <time>2018-03-30T08:08:41Z</time>
      </trkpt>
      <trkpt lat="38.4990030" lon="-0.6424420">
        <ele>864.1</ele>
        <time>2018-03-30T08:08:42Z</time>
      </trkpt>
      <trkpt lat="38.4990030" lon="-0.6424250">
        <ele>864.3</ele>
        <time>2018-03-30T08:08:43Z</time>
      </trkpt>
      <trkpt lat="38.4989970" lon="-0.6424090">
        <ele>864.6</ele>
        <time>2018-03-30T08:08:44Z</time>
      </trkpt>
      <trkpt lat="38.4989930" lon="-0.6423940">
        <ele>864.7</ele>
        <time>2018-03-30T08:08:45Z</time>
      </trkpt>
      <trkpt lat="38.4989920" lon="-0.6423810">
        <ele>864.9</ele>
        <time>2018-03-30T08:08:46Z</time>
      </trkpt>
      <trkpt lat="38.4989900" lon="-0.6423670">
        <ele>865.0</ele>
        <time>2018-03-30T08:08:47Z</time>
      </trkpt>
      <trkpt lat="38.4989870" lon="-0.6423530">
        <ele>865.2</ele>
        <time>2018-03-30T08:08:48Z</time>
      </trkpt>
      <trkpt lat="38.4989840" lon="-0.6423410">
        <ele>865.3</ele>
        <time>2018-03-30T08:08:49Z</time>
      </trkpt>
      <trkpt lat="38.4989790" lon="-0.6423260">
        <ele>865.5</ele>
        <time>2018-03-30T08:08:50Z</time>
      </trkpt>
      <trkpt lat="38.4989610" lon="-0.6423150">
        <ele>865.8</ele>
        <time>2018-03-30T08:08:51Z</time>
      </trkpt>
      <trkpt lat="38.4989490" lon="-0.6423070">
        <ele>866.0</ele>
        <time>2018-03-30T08:08:52Z</time>
      </trkpt>
      <trkpt lat="38.4989320" lon="-0.6422950">
        <ele>866.2</ele>
        <time>2018-03-30T08:08:53Z</time>
      </trkpt>
      <trkpt lat="38.4989200" lon="-0.6422870">
        <ele>866.4</ele>
        <time>2018-03-30T08:08:54Z</time>
      </trkpt>
      <trkpt lat="38.4989120" lon="-0.6422850">
        <ele>866.5</ele>
        <time>2018-03-30T08:08:55Z</time>
      </trkpt>
      <trkpt lat="38.4988980" lon="-0.6422880">
        <ele>866.6</ele>
        <time>2018-03-30T08:08:56Z</time>
      </trkpt>
      <trkpt lat="38.4988870" lon="-0.6422870">
        <ele>866.7</ele>
        <time>2018-03-30T08:08:57Z</time>
      </trkpt>
      <trkpt lat="38.4988700" lon="-0.6422890">
        <ele>866.9</ele>
        <time>2018-03-30T08:08:58Z</time>
      </trkpt>
      <trkpt lat="38.4988570" lon="-0.6422900">
        <ele>867.0</ele>
        <time>2018-03-30T08:08:59Z</time>
      </trkpt>
      <trkpt lat="38.4988450" lon="-0.6422920">
        <ele>867.2</ele>
        <time>2018-03-30T08:09:00Z</time>
      </trkpt>
      <trkpt lat="38.4988320" lon="-0.6422950">
        <ele>867.3</ele>
        <time>2018-03-30T08:09:01Z</time>
      </trkpt>
      <trkpt lat="38.4988200" lon="-0.6423000">
        <ele>867.4</ele>
        <time>2018-03-30T08:09:02Z</time>
      </trkpt>
      <trkpt lat="38.4988060" lon="-0.6423060">
        <ele>867.6</ele>
        <time>2018-03-30T08:09:03Z</time>
      </trkpt>
      <trkpt lat="38.4987970" lon="-0.6423160">
        <ele>867.7</ele>
        <time>2018-03-30T08:09:04Z</time>
      </trkpt>
      <trkpt lat="38.4987860" lon="-0.6423270">
        <ele>867.9</ele>
        <time>2018-03-30T08:09:05Z</time>
      </trkpt>
      <trkpt lat="38.4987700" lon="-0.6423350">
        <ele>868.2</ele>
        <time>2018-03-30T08:09:06Z</time>
      </trkpt>
      <trkpt lat="38.4987570" lon="-0.6423470">
        <ele>868.5</ele>
        <time>2018-03-30T08:09:07Z</time>
      </trkpt>
      <trkpt lat="38.4987420" lon="-0.6423600">
        <ele>868.7</ele>
        <time>2018-03-30T08:09:08Z</time>
      </trkpt>
      <trkpt lat="38.4987310" lon="-0.6423740">
        <ele>868.9</ele>
        <time>2018-03-30T08:09:09Z</time>
      </trkpt>
      <trkpt lat="38.4987250" lon="-0.6423850">
        <ele>869.0</ele>
        <time>2018-03-30T08:09:10Z</time>
      </trkpt>
      <trkpt lat="38.4987180" lon="-0.6423990">
        <ele>869.2</ele>
        <time>2018-03-30T08:09:11Z</time>
      </trkpt>
      <trkpt lat="38.4987080" lon="-0.6424120">
        <ele>869.4</ele>
        <time>2018-03-30T08:09:12Z</time>
      </trkpt>
      <trkpt lat="38.4986950" lon="-0.6424250">
        <ele>869.6</ele>
        <time>2018-03-30T08:09:13Z</time>
      </trkpt>
      <trkpt lat="38.4986750" lon="-0.6424280">
        <ele>869.9</ele>
        <time>2018-03-30T08:09:14Z</time>
      </trkpt>
      <trkpt lat="38.4986580" lon="-0.6424260">
        <ele>870.1</ele>
        <time>2018-03-30T08:09:15Z</time>
      </trkpt>
      <trkpt lat="38.4986420" lon="-0.6424240">
        <ele>870.2</ele>
        <time>2018-03-30T08:09:16Z</time>
      </trkpt>
      <trkpt lat="38.4986290" lon="-0.6424150">
        <ele>870.3</ele>
        <time>2018-03-30T08:09:17Z</time>
      </trkpt>
      <trkpt lat="38.4986190" lon="-0.6424020">
        <ele>870.4</ele>
        <time>2018-03-30T08:09:18Z</time>
      </trkpt>
      <trkpt lat="38.4986130" lon="-0.6423890">
        <ele>870.5</ele>
        <time>2018-03-30T08:09:19Z</time>
      </trkpt>
      <trkpt lat="38.4986110" lon="-0.6423720">
        <ele>870.6</ele>
        <time>2018-03-30T08:09:20Z</time>
      </trkpt>
      <trkpt lat="38.4986080" lon="-0.6423540">
        <ele>870.7</ele>
        <time>2018-03-30T08:09:21Z</time>
      </trkpt>
      <trkpt lat="38.4986070" lon="-0.6423380">
        <ele>870.8</ele>
        <time>2018-03-30T08:09:22Z</time>
      </trkpt>
      <trkpt lat="38.4986090" lon="-0.6423190">
        <ele>870.9</ele>
        <time>2018-03-30T08:09:23Z</time>
      </trkpt>
      <trkpt lat="38.4986100" lon="-0.6423030">
        <ele>871.0</ele>
        <time>2018-03-30T08:09:24Z</time>
      </trkpt>
      <trkpt lat="38.4986150" lon="-0.6422870">
        <ele>871.1</ele>
        <time>2018-03-30T08:09:25Z</time>
      </trkpt>
      <trkpt lat="38.4986190" lon="-0.6422690">
        <ele>871.3</ele>
        <time>2018-03-30T08:09:26Z</time>
      </trkpt>
      <trkpt lat="38.4986220" lon="-0.6422510">
        <ele>871.4</ele>
        <time>2018-03-30T08:09:27Z</time>
      </trkpt>
      <trkpt lat="38.4986260" lon="-0.6422330">
        <ele>871.5</ele>
        <time>2018-03-30T08:09:28Z</time>
      </trkpt>
      <trkpt lat="38.4986300" lon="-0.6422180">
        <ele>871.5</ele>
        <time>2018-03-30T08:09:29Z</time>
      </trkpt>
      <trkpt lat="38.4986360" lon="-0.6421990">
        <ele>871.6</ele>
        <time>2018-03-30T08:09:30Z</time>
      </trkpt>
      <trkpt lat="38.4986410" lon="-0.6421830">
        <ele>871.7</ele>
        <time>2018-03-30T08:09:31Z</time>
      </trkpt>
      <trkpt lat="38.4986440" lon="-0.6421670">
        <ele>871.8</ele>
        <time>2018-03-30T08:09:32Z</time>
      </trkpt>
      <trkpt lat="38.4986520" lon="-0.6421490">
        <ele>871.9</ele>
        <time>2018-03-30T08:09:33Z</time>
      </trkpt>
      <trkpt lat="38.4986600" lon="-0.6421310">
        <ele>872.1</ele>
        <time>2018-03-30T08:09:34Z</time>
      </trkpt>
      <trkpt lat="38.4986670" lon="-0.6421140">
        <ele>872.3</ele>
        <time>2018-03-30T08:09:35Z</time>
      </trkpt>
      <trkpt lat="38.4986740" lon="-0.6420940">
        <ele>872.4</ele>
        <time>2018-03-30T08:09:36Z</time>
      </trkpt>
      <trkpt lat="38.4986790" lon="-0.6420730">
        <ele>872.6</ele>
        <time>2018-03-30T08:09:37Z</time>
      </trkpt>
      <trkpt lat="38.4986890" lon="-0.6420510">
        <ele>873.0</ele>
        <time>2018-03-30T08:09:38Z</time>
      </trkpt>
      <trkpt lat="38.4986960" lon="-0.6420290">
        <ele>873.2</ele>
        <time>2018-03-30T08:09:39Z</time>
      </trkpt>
      <trkpt lat="38.4987000" lon="-0.6420090">
        <ele>873.4</ele>
        <time>2018-03-30T08:09:40Z</time>
      </trkpt>
      <trkpt lat="38.4987070" lon="-0.6419920">
        <ele>873.6</ele>
        <time>2018-03-30T08:09:41Z</time>
      </trkpt>
      <trkpt lat="38.4987170" lon="-0.6419750">
        <ele>873.8</ele>
        <time>2018-03-30T08:09:42Z</time>
      </trkpt>
      <trkpt lat="38.4987310" lon="-0.6419550">
        <ele>874.1</ele>
        <time>2018-03-30T08:09:43Z</time>
      </trkpt>
      <trkpt lat="38.4987440" lon="-0.6419360">
        <ele>874.4</ele>
        <time>2018-03-30T08:09:44Z</time>
      </trkpt>
      <trkpt lat="38.4987530" lon="-0.6419210">
        <ele>874.6</ele>
        <time>2018-03-30T08:09:45Z</time>
      </trkpt>
      <trkpt lat="38.4987620" lon="-0.6419050">
        <ele>874.8</ele>
        <time>2018-03-30T08:09:46Z</time>
      </trkpt>
      <trkpt lat="38.4987700" lon="-0.6418890">
        <ele>875.1</ele>
        <time>2018-03-30T08:09:47Z</time>
      </trkpt>
      <trkpt lat="38.4987780" lon="-0.6418690">
        <ele>875.5</ele>
        <time>2018-03-30T08:09:48Z</time>
      </trkpt>
      <trkpt lat="38.4987870" lon="-0.6418490">
        <ele>875.7</ele>
        <time>2018-03-30T08:09:49Z</time>
      </trkpt>
      <trkpt lat="38.4987950" lon="-0.6418310">
        <ele>875.9</ele>
        <time>2018-03-30T08:09:50Z</time>
      </trkpt>
      <trkpt lat="38.4988030" lon="-0.6418150">
        <ele>876.1</ele>
        <time>2018-03-30T08:09:51Z</time>
      </trkpt>
      <trkpt lat="38.4988010" lon="-0.6417950">
        <ele>876.3</ele>
        <time>2018-03-30T08:09:52Z</time>
      </trkpt>
      <trkpt lat="38.4988020" lon="-0.6417770">
        <ele>876.4</ele>
        <time>2018-03-30T08:09:53Z</time>
      </trkpt>
      <trkpt lat="38.4988040" lon="-0.6417610">
        <ele>876.6</ele>
        <time>2018-03-30T08:09:54Z</time>
      </trkpt>
      <trkpt lat="38.4988120" lon="-0.6417420">
        <ele>876.7</ele>
        <time>2018-03-30T08:09:55Z</time>
      </trkpt>
      <trkpt lat="38.4988180" lon="-0.6417240">
        <ele>876.9</ele>
        <time>2018-03-30T08:09:56Z</time>
      </trkpt>
      <trkpt lat="38.4988240" lon="-0.6417040">
        <ele>877.0</ele>
        <time>2018-03-30T08:09:57Z</time>
      </trkpt>
      <trkpt lat="38.4988330" lon="-0.6416870">
        <ele>877.2</ele>
        <time>2018-03-30T08:09:58Z</time>
      </trkpt>
      <trkpt lat="38.4988400" lon="-0.6416710">
        <ele>877.4</ele>
        <time>2018-03-30T08:09:59Z</time>
      </trkpt>
      <trkpt lat="38.4988490" lon="-0.6416560">
        <ele>877.5</ele>
        <time>2018-03-30T08:10:00Z</time>
      </trkpt>
      <trkpt lat="38.4988540" lon="-0.6416390">
        <ele>877.7</ele>
        <time>2018-03-30T08:10:01Z</time>
      </trkpt>
      <trkpt lat="38.4988600" lon="-0.6416200">
        <ele>877.8</ele>
        <time>2018-03-30T08:10:02Z</time>
      </trkpt>
      <trkpt lat="38.4988680" lon="-0.6416020">
        <ele>877.9</ele>
        <time>2018-03-30T08:10:03Z</time>
      </trkpt>
      <trkpt lat="38.4988740" lon="-0.6415850">
        <ele>878.0</ele>
        <time>2018-03-30T08:10:04Z</time>
      </trkpt>
      <trkpt lat="38.4988830" lon="-0.6415660">
        <ele>878.2</ele>
        <time>2018-03-30T08:10:05Z</time>
      </trkpt>
      <trkpt lat="38.4988910" lon="-0.6415510">
        <ele>878.3</ele>
        <time>2018-03-30T08:10:06Z</time>
      </trkpt>
      <trkpt lat="38.4988990" lon="-0.6415340">
        <ele>878.5</ele>
        <time>2018-03-30T08:10:07Z</time>
      </trkpt>
      <trkpt lat="38.4989080" lon="-0.6415180">
        <ele>878.7</ele>
        <time>2018-03-30T08:10:08Z</time>
      </trkpt>
      <trkpt lat="38.4989190" lon="-0.6415020">
        <ele>878.8</ele>
        <time>2018-03-30T08:10:09Z</time>
      </trkpt>
      <trkpt lat="38.4989290" lon="-0.6414870">
        <ele>879.0</ele>
        <time>2018-03-30T08:10:10Z</time>
      </trkpt>
      <trkpt lat="38.4989360" lon="-0.6414710">
        <ele>879.1</ele>
        <time>2018-03-30T08:10:11Z</time>
      </trkpt>
      <trkpt lat="38.4989450" lon="-0.6414530">
        <ele>879.2</ele>
        <time>2018-03-30T08:10:12Z</time>
      </trkpt>
      <trkpt lat="38.4989560" lon="-0.6414390">
        <ele>879.4</ele>
        <time>2018-03-30T08:10:13Z</time>
      </trkpt>
      <trkpt lat="38.4989660" lon="-0.6414220">
        <ele>879.7</ele>
        <time>2018-03-30T08:10:14Z</time>
      </trkpt>
      <trkpt lat="38.4989770" lon="-0.6414020">
        <ele>880.0</ele>
        <time>2018-03-30T08:10:15Z</time>
      </trkpt>
      <trkpt lat="38.4989780" lon="-0.6413810">
        <ele>880.3</ele>
        <time>2018-03-30T08:10:16Z</time>
      </trkpt>
      <trkpt lat="38.4989890" lon="-0.6413590">
        <ele>880.6</ele>
        <time>2018-03-30T08:10:17Z</time>
      </trkpt>
      <trkpt lat="38.4989980" lon="-0.6413400">
        <ele>880.8</ele>
        <time>2018-03-30T08:10:18Z</time>
      </trkpt>
      <trkpt lat="38.4990070" lon="-0.6413230">
        <ele>881.0</ele>
        <time>2018-03-30T08:10:19Z</time>
      </trkpt>
      <trkpt lat="38.4990200" lon="-0.6413010">
        <ele>881.2</ele>
        <time>2018-03-30T08:10:20Z</time>
      </trkpt>
      <trkpt lat="38.4990250" lon="-0.6412820">
        <ele>881.4</ele>
        <time>2018-03-30T08:10:21Z</time>
      </trkpt>
      <trkpt lat="38.4990230" lon="-0.6412610">
        <ele>881.5</ele>
        <time>2018-03-30T08:10:22Z</time>
      </trkpt>
      <trkpt lat="38.4990240" lon="-0.6412420">
        <ele>881.6</ele>
        <time>2018-03-30T08:10:23Z</time>
      </trkpt>
      <trkpt lat="38.4990250" lon="-0.6412250">
        <ele>881.7</ele>
        <time>2018-03-30T08:10:24Z</time>
      </trkpt>
      <trkpt lat="38.4990280" lon="-0.6412070">
        <ele>881.9</ele>
        <time>2018-03-30T08:10:25Z</time>
      </trkpt>
      <trkpt lat="38.4990240" lon="-0.6411900">
        <ele>882.0</ele>
        <time>2018-03-30T08:10:26Z</time>
      </trkpt>
      <trkpt lat="38.4990200" lon="-0.6411730">
        <ele>882.1</ele>
        <time>2018-03-30T08:10:27Z</time>
      </trkpt>
      <trkpt lat="38.4990160" lon="-0.6411600">
        <ele>882.2</ele>
        <time>2018-03-30T08:10:28Z</time>
      </trkpt>
      <trkpt lat="38.4990160" lon="-0.6411460">
        <ele>882.3</ele>
        <time>2018-03-30T08:10:29Z</time>
      </trkpt>
      <trkpt lat="38.4990040" lon="-0.6411310">
        <ele>882.5</ele>
        <time>2018-03-30T08:10:30Z</time>
      </trkpt>
      <trkpt lat="38.4989940" lon="-0.6411150">
        <ele>882.7</ele>
        <time>2018-03-30T08:10:31Z</time>
      </trkpt>
      <trkpt lat="38.4989830" lon="-0.6410950">
        <ele>882.9</ele>
        <time>2018-03-30T08:10:32Z</time>
      </trkpt>
      <trkpt lat="38.4989760" lon="-0.6410790">
        <ele>883.0</ele>
        <time>2018-03-30T08:10:33Z</time>
      </trkpt>
      <trkpt lat="38.4989670" lon="-0.6410620">
        <ele>883.2</ele>
        <time>2018-03-30T08:10:34Z</time>
      </trkpt>
      <trkpt lat="38.4989620" lon="-0.6410410">
        <ele>883.3</ele>
        <time>2018-03-30T08:10:35Z</time>
      </trkpt>
      <trkpt lat="38.4989590" lon="-0.6410230">
        <ele>883.5</ele>
        <time>2018-03-30T08:10:36Z</time>
      </trkpt>
      <trkpt lat="38.4989560" lon="-0.6410040">
        <ele>883.6</ele>
        <time>2018-03-30T08:10:37Z</time>
      </trkpt>
      <trkpt lat="38.4989600" lon="-0.6409890">
        <ele>883.7</ele>
        <time>2018-03-30T08:10:38Z</time>
      </trkpt>
      <trkpt lat="38.4989630" lon="-0.6409750">
        <ele>883.9</ele>
        <time>2018-03-30T08:10:39Z</time>
      </trkpt>
      <trkpt lat="38.4989690" lon="-0.6409550">
        <ele>884.1</ele>
        <time>2018-03-30T08:10:40Z</time>
      </trkpt>
      <trkpt lat="38.4989690" lon="-0.6409370">
        <ele>884.2</ele>
        <time>2018-03-30T08:10:41Z</time>
      </trkpt>
      <trkpt lat="38.4989740" lon="-0.6409190">
        <ele>884.4</ele>
        <time>2018-03-30T08:10:42Z</time>
      </trkpt>
      <trkpt lat="38.4989800" lon="-0.6409040">
        <ele>884.5</ele>
        <time>2018-03-30T08:10:43Z</time>
      </trkpt>
      <trkpt lat="38.4989930" lon="-0.6408880">
        <ele>884.7</ele>
        <time>2018-03-30T08:10:44Z</time>
      </trkpt>
      <trkpt lat="38.4990050" lon="-0.6408750">
        <ele>884.9</ele>
        <time>2018-03-30T08:10:45Z</time>
      </trkpt>
      <trkpt lat="38.4990260" lon="-0.6408590">
        <ele>885.3</ele>
        <time>2018-03-30T08:10:46Z</time>
      </trkpt>
      <trkpt lat="38.4990440" lon="-0.6408460">
        <ele>885.5</ele>
        <time>2018-03-30T08:10:47Z</time>
      </trkpt>
      <trkpt lat="38.4990620" lon="-0.6408360">
        <ele>885.7</ele>
        <time>2018-03-30T08:10:48Z</time>
      </trkpt>
      <trkpt lat="38.4990770" lon="-0.6408310">
        <ele>885.8</ele>
        <time>2018-03-30T08:10:49Z</time>
      </trkpt>
      <trkpt lat="38.4990950" lon="-0.6408190">
        <ele>886.0</ele>
        <time>2018-03-30T08:10:50Z</time>
      </trkpt>
      <trkpt lat="38.4991150" lon="-0.6408060">
        <ele>886.1</ele>
        <time>2018-03-30T08:10:51Z</time>
      </trkpt>
      <trkpt lat="38.4991310" lon="-0.6407920">
        <ele>886.2</ele>
        <time>2018-03-30T08:10:52Z</time>
      </trkpt>
      <trkpt lat="38.4991410" lon="-0.6407710">
        <ele>886.3</ele>
        <time>2018-03-30T08:10:53Z</time>
      </trkpt>
      <trkpt lat="38.4991530" lon="-0.6407530">
        <ele>886.4</ele>
        <time>2018-03-30T08:10:54Z</time>
      </trkpt>
      <trkpt lat="38.4991630" lon="-0.6407370">
        <ele>886.4</ele>
        <time>2018-03-30T08:10:55Z</time>
      </trkpt>
      <trkpt lat="38.4991710" lon="-0.6407210">
        <ele>886.5</ele>
        <time>2018-03-30T08:10:56Z</time>
      </trkpt>
      <trkpt lat="38.4991810" lon="-0.6407000">
        <ele>886.6</ele>
        <time>2018-03-30T08:10:57Z</time>
      </trkpt>
      <trkpt lat="38.4991900" lon="-0.6406830">
        <ele>886.6</ele>
        <time>2018-03-30T08:10:58Z</time>
      </trkpt>
      <trkpt lat="38.4991980" lon="-0.6406650">
        <ele>886.7</ele>
        <time>2018-03-30T08:10:59Z</time>
      </trkpt>
      <trkpt lat="38.4992070" lon="-0.6406480">
        <ele>886.7</ele>
        <time>2018-03-30T08:11:00Z</time>
      </trkpt>
      <trkpt lat="38.4992190" lon="-0.6406220">
        <ele>886.8</ele>
        <time>2018-03-30T08:11:01Z</time>
      </trkpt>
      <trkpt lat="38.4992270" lon="-0.6406000">
        <ele>886.9</ele>
        <time>2018-03-30T08:11:02Z</time>
      </trkpt>
      <trkpt lat="38.4992360" lon="-0.6405810">
        <ele>887.0</ele>
        <time>2018-03-30T08:11:03Z</time>
      </trkpt>
      <trkpt lat="38.4992420" lon="-0.6405610">
        <ele>887.0</ele>
        <time>2018-03-30T08:11:04Z</time>
      </trkpt>
      <trkpt lat="38.4992510" lon="-0.6405340">
        <ele>887.1</ele>
        <time>2018-03-30T08:11:05Z</time>
      </trkpt>
      <trkpt lat="38.4992590" lon="-0.6405120">
        <ele>887.3</ele>
        <time>2018-03-30T08:11:06Z</time>
      </trkpt>
      <trkpt lat="38.4992670" lon="-0.6404870">
        <ele>887.4</ele>
        <time>2018-03-30T08:11:07Z</time>
      </trkpt>
      <trkpt lat="38.4992690" lon="-0.6404630">
        <ele>887.5</ele>
        <time>2018-03-30T08:11:08Z</time>
      </trkpt>
      <trkpt lat="38.4992770" lon="-0.6404420">
        <ele>887.6</ele>
        <time>2018-03-30T08:11:09Z</time>
      </trkpt>
      <trkpt lat="38.4992870" lon="-0.6404230">
        <ele>887.8</ele>
        <time>2018-03-30T08:11:10Z</time>
      </trkpt>
      <trkpt lat="38.4992920" lon="-0.6404030">
        <ele>888.0</ele>
        <time>2018-03-30T08:11:11Z</time>
      </trkpt>
      <trkpt lat="38.4992910" lon="-0.6403820">
        <ele>888.1</ele>
        <time>2018-03-30T08:11:12Z</time>
      </trkpt>
      <trkpt lat="38.4992990" lon="-0.6403630">
        <ele>888.2</ele>
        <time>2018-03-30T08:11:13Z</time>
      </trkpt>
      <trkpt lat="38.4993180" lon="-0.6403410">
        <ele>888.5</ele>
        <time>2018-03-30T08:11:14Z</time>
      </trkpt>
      <trkpt lat="38.4993360" lon="-0.6403180">
        <ele>888.9</ele>
        <time>2018-03-30T08:11:15Z</time>
      </trkpt>
      <trkpt lat="38.4993400" lon="-0.6403050">
        <ele>889.0</ele>
        <time>2018-03-30T08:11:16Z</time>
      </trkpt>
      <trkpt lat="38.4993560" lon="-0.6402820">
        <ele>889.2</ele>
        <time>2018-03-30T08:11:17Z</time>
      </trkpt>
      <trkpt lat="38.4993690" lon="-0.6402640">
        <ele>889.4</ele>
        <time>2018-03-30T08:11:18Z</time>
      </trkpt>
      <trkpt lat="38.4993810" lon="-0.6402450">
        <ele>889.6</ele>
        <time>2018-03-30T08:11:19Z</time>
      </trkpt>
      <trkpt lat="38.4993920" lon="-0.6402270">
        <ele>889.8</ele>
        <time>2018-03-30T08:11:20Z</time>
      </trkpt>
      <trkpt lat="38.4994040" lon="-0.6402070">
        <ele>890.1</ele>
        <time>2018-03-30T08:11:21Z</time>
      </trkpt>
      <trkpt lat="38.4994200" lon="-0.6401830">
        <ele>890.5</ele>
        <time>2018-03-30T08:11:22Z</time>
      </trkpt>
      <trkpt lat="38.4994360" lon="-0.6401600">
        <ele>890.9</ele>
        <time>2018-03-30T08:11:23Z</time>
      </trkpt>
      <trkpt lat="38.4994490" lon="-0.6401410">
        <ele>891.3</ele>
        <time>2018-03-30T08:11:24Z</time>
      </trkpt>
      <trkpt lat="38.4994590" lon="-0.6401240">
        <ele>891.7</ele>
        <time>2018-03-30T08:11:25Z</time>
      </trkpt>
      <trkpt lat="38.4994650" lon="-0.6401060">
        <ele>892.1</ele>
        <time>2018-03-30T08:11:26Z</time>
      </trkpt>
      <trkpt lat="38.4994730" lon="-0.6400890">
        <ele>892.4</ele>
        <time>2018-03-30T08:11:27Z</time>
      </trkpt>
      <trkpt lat="38.4994870" lon="-0.6400720">
        <ele>892.8</ele>
        <time>2018-03-30T08:11:28Z</time>
      </trkpt>
      <trkpt lat="38.4994930" lon="-0.6400580">
        <ele>893.1</ele>
        <time>2018-03-30T08:11:29Z</time>
      </trkpt>
      <trkpt lat="38.4995020" lon="-0.6400460">
        <ele>893.3</ele>
        <time>2018-03-30T08:11:30Z</time>
      </trkpt>
      <trkpt lat="38.4995090" lon="-0.6400350">
        <ele>893.5</ele>
        <time>2018-03-30T08:11:31Z</time>
      </trkpt>
      <trkpt lat="38.4995120" lon="-0.6400210">
        <ele>893.6</ele>
        <time>2018-03-30T08:11:32Z</time>
      </trkpt>
      <trkpt lat="38.4995050" lon="-0.6400020">
        <ele>893.9</ele>
        <time>2018-03-30T08:11:33Z</time>
      </trkpt>
      <trkpt lat="38.4995050" lon="-0.6399870">
        <ele>894.2</ele>
        <time>2018-03-30T08:11:34Z</time>
      </trkpt>
      <trkpt lat="38.4995070" lon="-0.6399770">
        <ele>894.4</ele>
        <time>2018-03-30T08:11:35Z</time>
      </trkpt>
      <trkpt lat="38.4995090" lon="-0.6399670">
        <ele>894.6</ele>
        <time>2018-03-30T08:11:36Z</time>
      </trkpt>
      <trkpt lat="38.4995170" lon="-0.6399520">
        <ele>894.9</ele>
        <time>2018-03-30T08:11:37Z</time>
      </trkpt>
      <trkpt lat="38.4995220" lon="-0.6399420">
        <ele>895.0</ele>
        <time>2018-03-30T08:11:38Z</time>
      </trkpt>
      <trkpt lat="38.4995270" lon="-0.6399320">
        <ele>895.2</ele>
        <time>2018-03-30T08:11:39Z</time>
      </trkpt>
      <trkpt lat="38.4995320" lon="-0.6399180">
        <ele>895.4</ele>
        <time>2018-03-30T08:11:40Z</time>
      </trkpt>
      <trkpt lat="38.4995370" lon="-0.6399020">
        <ele>895.7</ele>
        <time>2018-03-30T08:11:41Z</time>
      </trkpt>
      <trkpt lat="38.4995420" lon="-0.6398890">
        <ele>896.1</ele>
        <time>2018-03-30T08:11:42Z</time>
      </trkpt>
      <trkpt lat="38.4995460" lon="-0.6398750">
        <ele>896.3</ele>
        <time>2018-03-30T08:11:43Z</time>
      </trkpt>
      <trkpt lat="38.4995510" lon="-0.6398630">
        <ele>896.5</ele>
        <time>2018-03-30T08:11:44Z</time>
      </trkpt>
      <trkpt lat="38.4995580" lon="-0.6398540">
        <ele>897.0</ele>
        <time>2018-03-30T08:11:45Z</time>
      </trkpt>
      <trkpt lat="38.4995650" lon="-0.6398420">
        <ele>897.2</ele>
        <time>2018-03-30T08:11:46Z</time>
      </trkpt>
      <trkpt lat="38.4995690" lon="-0.6398280">
        <ele>897.4</ele>
        <time>2018-03-30T08:11:47Z</time>
      </trkpt>
      <trkpt lat="38.4995700" lon="-0.6398160">
        <ele>897.5</ele>
        <time>2018-03-30T08:11:48Z</time>
      </trkpt>
      <trkpt lat="38.4995770" lon="-0.6398010">
        <ele>897.7</ele>
        <time>2018-03-30T08:11:49Z</time>
      </trkpt>
      <trkpt lat="38.4995830" lon="-0.6397860">
        <ele>898.0</ele>
        <time>2018-03-30T08:11:50Z</time>
      </trkpt>
      <trkpt lat="38.4995900" lon="-0.6397700">
        <ele>898.2</ele>
        <time>2018-03-30T08:11:51Z</time>
      </trkpt>
      <trkpt lat="38.4995960" lon="-0.6397560">
        <ele>898.5</ele>
        <time>2018-03-30T08:11:52Z</time>
      </trkpt>
      <trkpt lat="38.4996030" lon="-0.6397420">
        <ele>898.8</ele>
        <time>2018-03-30T08:11:53Z</time>
      </trkpt>
      <trkpt lat="38.4996080" lon="-0.6397320">
        <ele>898.9</ele>
        <time>2018-03-30T08:11:54Z</time>
      </trkpt>
      <trkpt lat="38.4996130" lon="-0.6397200">
        <ele>899.1</ele>
        <time>2018-03-30T08:11:55Z</time>
      </trkpt>
      <trkpt lat="38.4996180" lon="-0.6397060">
        <ele>899.3</ele>
        <time>2018-03-30T08:11:56Z</time>
      </trkpt>
      <trkpt lat="38.4996240" lon="-0.6396930">
        <ele>899.5</ele>
        <time>2018-03-30T08:11:57Z</time>
      </trkpt>
      <trkpt lat="38.4996300" lon="-0.6396840">
        <ele>899.7</ele>
        <time>2018-03-30T08:11:58Z</time>
      </trkpt>
      <trkpt lat="38.4996410" lon="-0.6396710">
        <ele>900.0</ele>
        <time>2018-03-30T08:11:59Z</time>
      </trkpt>
      <trkpt lat="38.4996490" lon="-0.6396590">
        <ele>900.2</ele>
        <time>2018-03-30T08:12:00Z</time>
      </trkpt>
      <trkpt lat="38.4996510" lon="-0.6396450">
        <ele>900.3</ele>
        <time>2018-03-30T08:12:01Z</time>
      </trkpt>
      <trkpt lat="38.4996580" lon="-0.6396300">
        <ele>900.8</ele>
        <time>2018-03-30T08:12:02Z</time>
      </trkpt>
      <trkpt lat="38.4996650" lon="-0.6396170">
        <ele>900.9</ele>
        <time>2018-03-30T08:12:03Z</time>
      </trkpt>
      <trkpt lat="38.4996720" lon="-0.6396070">
        <ele>901.1</ele>
        <time>2018-03-30T08:12:04Z</time>
      </trkpt>
      <trkpt lat="38.4996730" lon="-0.6395910">
        <ele>901.2</ele>
        <time>2018-03-30T08:12:05Z</time>
      </trkpt>
      <trkpt lat="38.4996810" lon="-0.6395790">
        <ele>901.4</ele>
        <time>2018-03-30T08:12:06Z</time>
      </trkpt>
      <trkpt lat="38.4996840" lon="-0.6395680">
        <ele>901.5</ele>
        <time>2018-03-30T08:12:07Z</time>
      </trkpt>
      <trkpt lat="38.4996820" lon="-0.6395560">
        <ele>901.6</ele>
        <time>2018-03-30T08:12:08Z</time>
      </trkpt>
      <trkpt lat="38.4996830" lon="-0.6395460">
        <ele>901.7</ele>
        <time>2018-03-30T08:12:09Z</time>
      </trkpt>
      <trkpt lat="38.4996850" lon="-0.6395330">
        <ele>901.8</ele>
        <time>2018-03-30T08:12:10Z</time>
      </trkpt>
      <trkpt lat="38.4996820" lon="-0.6395230">
        <ele>901.9</ele>
        <time>2018-03-30T08:12:11Z</time>
      </trkpt>
      <trkpt lat="38.4996750" lon="-0.6395100">
        <ele>902.1</ele>
        <time>2018-03-30T08:12:12Z</time>
      </trkpt>
      <trkpt lat="38.4996740" lon="-0.6394990">
        <ele>902.2</ele>
        <time>2018-03-30T08:12:13Z</time>
      </trkpt>
      <trkpt lat="38.4996770" lon="-0.6394870">
        <ele>902.3</ele>
        <time>2018-03-30T08:12:14Z</time>
      </trkpt>
      <trkpt lat="38.4996780" lon="-0.6394760">
        <ele>902.4</ele>
        <time>2018-03-30T08:12:15Z</time>
      </trkpt>
      <trkpt lat="38.4996810" lon="-0.6394630">
        <ele>902.6</ele>
        <time>2018-03-30T08:12:16Z</time>
      </trkpt>
      <trkpt lat="38.4996820" lon="-0.6394520">
        <ele>902.8</ele>
        <time>2018-03-30T08:12:17Z</time>
      </trkpt>
      <trkpt lat="38.4996860" lon="-0.6394420">
        <ele>903.0</ele>
        <time>2018-03-30T08:12:18Z</time>
      </trkpt>
      <trkpt lat="38.4996970" lon="-0.6394250">
        <ele>903.2</ele>
        <time>2018-03-30T08:12:19Z</time>
      </trkpt>
      <trkpt lat="38.4997030" lon="-0.6394110">
        <ele>903.4</ele>
        <time>2018-03-30T08:12:20Z</time>
      </trkpt>
      <trkpt lat="38.4997090" lon="-0.6393990">
        <ele>903.5</ele>
        <time>2018-03-30T08:12:21Z</time>
      </trkpt>
      <trkpt lat="38.4997110" lon="-0.6393910">
        <ele>903.7</ele>
        <time>2018-03-30T08:12:22Z</time>
      </trkpt>
      <trkpt lat="38.4997150" lon="-0.6393800">
        <ele>904.1</ele>
        <time>2018-03-30T08:12:23Z</time>
      </trkpt>
      <trkpt lat="38.4997180" lon="-0.6393710">
        <ele>904.2</ele>
        <time>2018-03-30T08:12:24Z</time>
      </trkpt>
      <trkpt lat="38.4997180" lon="-0.6393580">
        <ele>904.4</ele>
        <time>2018-03-30T08:12:25Z</time>
      </trkpt>
      <trkpt lat="38.4997290" lon="-0.6393450">
        <ele>904.6</ele>
        <time>2018-03-30T08:12:26Z</time>
      </trkpt>
      <trkpt lat="38.4997350" lon="-0.6393370">
        <ele>904.7</ele>
        <time>2018-03-30T08:12:27Z</time>
      </trkpt>
      <trkpt lat="38.4997390" lon="-0.6393230">
        <ele>904.9</ele>
        <time>2018-03-30T08:12:28Z</time>
      </trkpt>
      <trkpt lat="38.4997460" lon="-0.6393080">
        <ele>905.1</ele>
        <time>2018-03-30T08:12:29Z</time>
      </trkpt>
      <trkpt lat="38.4997560" lon="-0.6392950">
        <ele>905.3</ele>
        <time>2018-03-30T08:12:30Z</time>
      </trkpt>
      <trkpt lat="38.4997630" lon="-0.6392830">
        <ele>905.5</ele>
        <time>2018-03-30T08:12:31Z</time>
      </trkpt>
      <trkpt lat="38.4997700" lon="-0.6392670">
        <ele>905.7</ele>
        <time>2018-03-30T08:12:32Z</time>
      </trkpt>
      <trkpt lat="38.4997770" lon="-0.6392520">
        <ele>906.0</ele>
        <time>2018-03-30T08:12:33Z</time>
      </trkpt>
      <trkpt lat="38.4997840" lon="-0.6392390">
        <ele>906.2</ele>
        <time>2018-03-30T08:12:34Z</time>
      </trkpt>
      <trkpt lat="38.4997910" lon="-0.6392280">
        <ele>906.4</ele>
        <time>2018-03-30T08:12:35Z</time>
      </trkpt>
      <trkpt lat="38.4997980" lon="-0.6392170">
        <ele>906.6</ele>
        <time>2018-03-30T08:12:36Z</time>
      </trkpt>
      <trkpt lat="38.4998020" lon="-0.6392050">
        <ele>906.9</ele>
        <time>2018-03-30T08:12:37Z</time>
      </trkpt>
      <trkpt lat="38.4998090" lon="-0.6391910">
        <ele>907.2</ele>
        <time>2018-03-30T08:12:38Z</time>
      </trkpt>
      <trkpt lat="38.4998140" lon="-0.6391770">
        <ele>907.4</ele>
        <time>2018-03-30T08:12:39Z</time>
      </trkpt>
      <trkpt lat="38.4998160" lon="-0.6391630">
        <ele>907.5</ele>
        <time>2018-03-30T08:12:40Z</time>
      </trkpt>
      <trkpt lat="38.4998150" lon="-0.6391480">
        <ele>907.8</ele>
        <time>2018-03-30T08:12:41Z</time>
      </trkpt>
      <trkpt lat="38.4998160" lon="-0.6391350">
        <ele>908.0</ele>
        <time>2018-03-30T08:12:42Z</time>
      </trkpt>
      <trkpt lat="38.4998160" lon="-0.6391190">
        <ele>908.2</ele>
        <time>2018-03-30T08:12:43Z</time>
      </trkpt>
      <trkpt lat="38.4998140" lon="-0.6391040">
        <ele>908.4</ele>
        <time>2018-03-30T08:12:44Z</time>
      </trkpt>
      <trkpt lat="38.4998100" lon="-0.6390920">
        <ele>908.5</ele>
        <time>2018-03-30T08:12:45Z</time>
      </trkpt>
      <trkpt lat="38.4998030" lon="-0.6390800">
        <ele>908.7</ele>
        <time>2018-03-30T08:12:46Z</time>
      </trkpt>
      <trkpt lat="38.4997970" lon="-0.6390670">
        <ele>908.8</ele>
        <time>2018-03-30T08:12:47Z</time>
      </trkpt>
      <trkpt lat="38.4997960" lon="-0.6390600">
        <ele>908.9</ele>
        <time>2018-03-30T08:12:48Z</time>
      </trkpt>
      <trkpt lat="38.4997920" lon="-0.6390490">
        <ele>909.0</ele>
        <time>2018-03-30T08:12:49Z</time>
      </trkpt>
      <trkpt lat="38.4997900" lon="-0.6390400">
        <ele>909.1</ele>
        <time>2018-03-30T08:12:50Z</time>
      </trkpt>
      <trkpt lat="38.4997870" lon="-0.6390310">
        <ele>909.2</ele>
        <time>2018-03-30T08:12:51Z</time>
      </trkpt>
      <trkpt lat="38.4997770" lon="-0.6390220">
        <ele>909.4</ele>
        <time>2018-03-30T08:12:52Z</time>
      </trkpt>
      <trkpt lat="38.4997760" lon="-0.6390130">
        <ele>909.5</ele>
        <time>2018-03-30T08:12:53Z</time>
      </trkpt>
      <trkpt lat="38.4997740" lon="-0.6390040">
        <ele>909.6</ele>
        <time>2018-03-30T08:12:54Z</time>
      </trkpt>
      <trkpt lat="38.4997690" lon="-0.6389910">
        <ele>909.8</ele>
        <time>2018-03-30T08:12:55Z</time>
      </trkpt>
      <trkpt lat="38.4997650" lon="-0.6389800">
        <ele>909.9</ele>
        <time>2018-03-30T08:12:56Z</time>
      </trkpt>
      <trkpt lat="38.4997590" lon="-0.6389700">
        <ele>910.0</ele>
        <time>2018-03-30T08:12:57Z</time>
      </trkpt>
      <trkpt lat="38.4997510" lon="-0.6389560">
        <ele>910.1</ele>
        <time>2018-03-30T08:12:58Z</time>
      </trkpt>
      <trkpt lat="38.4997490" lon="-0.6389460">
        <ele>910.2</ele>
        <time>2018-03-30T08:12:59Z</time>
      </trkpt>
      <trkpt lat="38.4997470" lon="-0.6389360">
        <ele>910.3</ele>
        <time>2018-03-30T08:13:00Z</time>
      </trkpt>
      <trkpt lat="38.4997420" lon="-0.6389200">
        <ele>910.4</ele>
        <time>2018-03-30T08:13:01Z</time>
      </trkpt>
      <trkpt lat="38.4997320" lon="-0.6389100">
        <ele>910.5</ele>
        <time>2018-03-30T08:13:02Z</time>
      </trkpt>
      <trkpt lat="38.4997310" lon="-0.6388990">
        <ele>910.6</ele>
        <time>2018-03-30T08:13:03Z</time>
      </trkpt>
      <trkpt lat="38.4997320" lon="-0.6388880">
        <ele>910.7</ele>
        <time>2018-03-30T08:13:04Z</time>
      </trkpt>
      <trkpt lat="38.4997310" lon="-0.6388720">
        <ele>910.7</ele>
        <time>2018-03-30T08:13:05Z</time>
      </trkpt>
      <trkpt lat="38.4997330" lon="-0.6388570">
        <ele>910.8</ele>
        <time>2018-03-30T08:13:06Z</time>
      </trkpt>
      <trkpt lat="38.4997340" lon="-0.6388430">
        <ele>910.9</ele>
        <time>2018-03-30T08:13:07Z</time>
      </trkpt>
      <trkpt lat="38.4997390" lon="-0.6388310">
        <ele>911.0</ele>
        <time>2018-03-30T08:13:08Z</time>
      </trkpt>
      <trkpt lat="38.4997390" lon="-0.6388170">
        <ele>911.1</ele>
        <time>2018-03-30T08:13:09Z</time>
      </trkpt>
      <trkpt lat="38.4997420" lon="-0.6388050">
        <ele>911.1</ele>
        <time>2018-03-30T08:13:10Z</time>
      </trkpt>
      <trkpt lat="38.4997480" lon="-0.6387890">
        <ele>911.2</ele>
        <time>2018-03-30T08:13:11Z</time>
      </trkpt>
      <trkpt lat="38.4997520" lon="-0.6387740">
        <ele>911.3</ele>
        <time>2018-03-30T08:13:12Z</time>
      </trkpt>
      <trkpt lat="38.4997550" lon="-0.6387590">
        <ele>911.4</ele>
        <time>2018-03-30T08:13:13Z</time>
      </trkpt>
      <trkpt lat="38.4997610" lon="-0.6387450">
        <ele>911.5</ele>
        <time>2018-03-30T08:13:14Z</time>
      </trkpt>
      <trkpt lat="38.4997650" lon="-0.6387290">
        <ele>911.6</ele>
        <time>2018-03-30T08:13:15Z</time>
      </trkpt>
      <trkpt lat="38.4997690" lon="-0.6387160">
        <ele>911.7</ele>
        <time>2018-03-30T08:13:16Z</time>
      </trkpt>
      <trkpt lat="38.4997760" lon="-0.6387030">
        <ele>911.8</ele>
        <time>2018-03-30T08:13:17Z</time>
      </trkpt>
      <trkpt lat="38.4997800" lon="-0.6386860">
        <ele>911.9</ele>
        <time>2018-03-30T08:13:18Z</time>
      </trkpt>
      <trkpt lat="38.4997840" lon="-0.6386710">
        <ele>912.1</ele>
        <time>2018-03-30T08:13:19Z</time>
      </trkpt>
      <trkpt lat="38.4997890" lon="-0.6386570">
        <ele>912.2</ele>
        <time>2018-03-30T08:13:20Z</time>
      </trkpt>
      <trkpt lat="38.4997920" lon="-0.6386490">
        <ele>912.3</ele>
        <time>2018-03-30T08:13:21Z</time>
      </trkpt>
      <trkpt lat="38.4997950" lon="-0.6386390">
        <ele>912.4</ele>
        <time>2018-03-30T08:13:22Z</time>
      </trkpt>
      <trkpt lat="38.4997920" lon="-0.6386270">
        <ele>912.5</ele>
        <time>2018-03-30T08:13:23Z</time>
      </trkpt>
      <trkpt lat="38.4997980" lon="-0.6386100">
        <ele>912.7</ele>
        <time>2018-03-30T08:13:24Z</time>
      </trkpt>
      <trkpt lat="38.4998050" lon="-0.6385970">
        <ele>912.9</ele>
        <time>2018-03-30T08:13:25Z</time>
      </trkpt>
      <trkpt lat="38.4998120" lon="-0.6385790">
        <ele>913.0</ele>
        <time>2018-03-30T08:13:26Z</time>
      </trkpt>
      <trkpt lat="38.4998230" lon="-0.6385660">
        <ele>913.3</ele>
        <time>2018-03-30T08:13:27Z</time>
      </trkpt>
      <trkpt lat="38.4998360" lon="-0.6385530">
        <ele>913.5</ele>
        <time>2018-03-30T08:13:28Z</time>
      </trkpt>
      <trkpt lat="38.4998480" lon="-0.6385360">
        <ele>913.6</ele>
        <time>2018-03-30T08:13:29Z</time>
      </trkpt>
      <trkpt lat="38.4998610" lon="-0.6385190">
        <ele>913.7</ele>
        <time>2018-03-30T08:13:30Z</time>
      </trkpt>
      <trkpt lat="38.4998730" lon="-0.6384990">
        <ele>913.8</ele>
        <time>2018-03-30T08:13:31Z</time>
      </trkpt>
      <trkpt lat="38.4998840" lon="-0.6384830">
        <ele>914.0</ele>
        <time>2018-03-30T08:13:32Z</time>
      </trkpt>
      <trkpt lat="38.4998900" lon="-0.6384650">
        <ele>914.1</ele>
        <time>2018-03-30T08:13:33Z</time>
      </trkpt>
      <trkpt lat="38.4998990" lon="-0.6384500">
        <ele>914.2</ele>
        <time>2018-03-30T08:13:34Z</time>
      </trkpt>
      <trkpt lat="38.4999090" lon="-0.6384380">
        <ele>914.3</ele>
        <time>2018-03-30T08:13:35Z</time>
      </trkpt>
      <trkpt lat="38.4999130" lon="-0.6384210">
        <ele>914.4</ele>
        <time>2018-03-30T08:13:36Z</time>
      </trkpt>
      <trkpt lat="38.4999270" lon="-0.6384000">
        <ele>914.5</ele>
        <time>2018-03-30T08:13:37Z</time>
      </trkpt>
      <trkpt lat="38.4999370" lon="-0.6383810">
        <ele>914.6</ele>
        <time>2018-03-30T08:13:38Z</time>
      </trkpt>
      <trkpt lat="38.4999460" lon="-0.6383650">
        <ele>914.7</ele>
        <time>2018-03-30T08:13:39Z</time>
      </trkpt>
      <trkpt lat="38.4999570" lon="-0.6383490">
        <ele>914.8</ele>
        <time>2018-03-30T08:13:40Z</time>
      </trkpt>
      <trkpt lat="38.4999680" lon="-0.6383380">
        <ele>914.8</ele>
        <time>2018-03-30T08:13:41Z</time>
      </trkpt>
      <trkpt lat="38.4999810" lon="-0.6383240">
        <ele>914.9</ele>
        <time>2018-03-30T08:13:42Z</time>
      </trkpt>
      <trkpt lat="38.4999960" lon="-0.6383080">
        <ele>914.9</ele>
        <time>2018-03-30T08:13:43Z</time>
      </trkpt>
      <trkpt lat="38.5000110" lon="-0.6382870">
        <ele>915.0</ele>
        <time>2018-03-30T08:13:44Z</time>
      </trkpt>
      <trkpt lat="38.5000250" lon="-0.6382710">
        <ele>915.0</ele>
        <time>2018-03-30T08:13:45Z</time>
      </trkpt>
      <trkpt lat="38.5000380" lon="-0.6382530">
        <ele>915.0</ele>
        <time>2018-03-30T08:13:46Z</time>
      </trkpt>
      <trkpt lat="38.5000520" lon="-0.6382340">
        <ele>915.1</ele>
        <time>2018-03-30T08:13:47Z</time>
      </trkpt>
      <trkpt lat="38.5000640" lon="-0.6382160">
        <ele>915.1</ele>
        <time>2018-03-30T08:13:48Z</time>
      </trkpt>
      <trkpt lat="38.5000750" lon="-0.6381960">
        <ele>915.1</ele>
        <time>2018-03-30T08:13:49Z</time>
      </trkpt>
      <trkpt lat="38.5000850" lon="-0.6381780">
        <ele>915.1</ele>
        <time>2018-03-30T08:13:50Z</time>
      </trkpt>
      <trkpt lat="38.5000940" lon="-0.6381590">
        <ele>915.1</ele>
        <time>2018-03-30T08:13:51Z</time>
      </trkpt>
      <trkpt lat="38.5001090" lon="-0.6381340">
        <ele>915.1</ele>
        <time>2018-03-30T08:13:52Z</time>
      </trkpt>
      <trkpt lat="38.5001180" lon="-0.6381170">
        <ele>915.1</ele>
        <time>2018-03-30T08:13:53Z</time>
      </trkpt>
      <trkpt lat="38.5001300" lon="-0.6381010">
        <ele>915.2</ele>
        <time>2018-03-30T08:13:54Z</time>
      </trkpt>
      <trkpt lat="38.5001400" lon="-0.6380840">
        <ele>915.2</ele>
        <time>2018-03-30T08:13:55Z</time>
      </trkpt>
      <trkpt lat="38.5001510" lon="-0.6380690">
        <ele>915.2</ele>
        <time>2018-03-30T08:13:56Z</time>
      </trkpt>
      <trkpt lat="38.5001700" lon="-0.6380530">
        <ele>915.3</ele>
        <time>2018-03-30T08:13:57Z</time>
      </trkpt>
      <trkpt lat="38.5001910" lon="-0.6380370">
        <ele>915.4</ele>
        <time>2018-03-30T08:13:58Z</time>
      </trkpt>
      <trkpt lat="38.5002160" lon="-0.6380310">
        <ele>915.5</ele>
        <time>2018-03-30T08:13:59Z</time>
      </trkpt>
      <trkpt lat="38.5002300" lon="-0.6380480">
        <ele>915.6</ele>
        <time>2018-03-30T08:14:00Z</time>
      </trkpt>
      <trkpt lat="38.5002440" lon="-0.6380700">
        <ele>915.8</ele>
        <time>2018-03-30T08:14:01Z</time>
      </trkpt>
      <trkpt lat="38.5002530" lon="-0.6380980">
        <ele>915.9</ele>
        <time>2018-03-30T08:14:02Z</time>
      </trkpt>
      <trkpt lat="38.5002530" lon="-0.6381290">
        <ele>916.0</ele>
        <time>2018-03-30T08:14:03Z</time>
      </trkpt>
      <trkpt lat="38.5002540" lon="-0.6381590">
        <ele>916.2</ele>
        <time>2018-03-30T08:14:04Z</time>
      </trkpt>
      <trkpt lat="38.5002560" lon="-0.6381880">
        <ele>916.3</ele>
        <time>2018-03-30T08:14:05Z</time>
      </trkpt>
      <trkpt lat="38.5002540" lon="-0.6382160">
        <ele>916.5</ele>
        <time>2018-03-30T08:14:06Z</time>
      </trkpt>
      <trkpt lat="38.5002540" lon="-0.6382450">
        <ele>916.8</ele>
        <time>2018-03-30T08:14:07Z</time>
      </trkpt>
      <trkpt lat="38.5002540" lon="-0.6382730">
        <ele>917.0</ele>
        <time>2018-03-30T08:14:08Z</time>
      </trkpt>
      <trkpt lat="38.5002520" lon="-0.6383010">
        <ele>917.2</ele>
        <time>2018-03-30T08:14:09Z</time>
      </trkpt>
      <trkpt lat="38.5002550" lon="-0.6383290">
        <ele>917.3</ele>
        <time>2018-03-30T08:14:10Z</time>
      </trkpt>
      <trkpt lat="38.5002600" lon="-0.6383580">
        <ele>917.8</ele>
        <time>2018-03-30T08:14:11Z</time>
      </trkpt>
      <trkpt lat="38.5002620" lon="-0.6383830">
        <ele>918.1</ele>
        <time>2018-03-30T08:14:12Z</time>
      </trkpt>
      <trkpt lat="38.5002670" lon="-0.6384070">
        <ele>918.4</ele>
        <time>2018-03-30T08:14:13Z</time>
      </trkpt>
      <trkpt lat="38.5002740" lon="-0.6384230">
        <ele>918.7</ele>
        <time>2018-03-30T08:14:14Z</time>
      </trkpt>
      <trkpt lat="38.5002820" lon="-0.6384400">
        <ele>918.9</ele>
        <time>2018-03-30T08:14:15Z</time>
      </trkpt>
      <trkpt lat="38.5002950" lon="-0.6384600">
        <ele>919.2</ele>
        <time>2018-03-30T08:14:16Z</time>
      </trkpt>
      <trkpt lat="38.5003110" lon="-0.6384730">
        <ele>919.5</ele>
        <time>2018-03-30T08:14:17Z</time>
      </trkpt>
      <trkpt lat="38.5003240" lon="-0.6384790">
        <ele>919.7</ele>
        <time>2018-03-30T08:14:18Z</time>
      </trkpt>
      <trkpt lat="38.5003370" lon="-0.6384780">
        <ele>920.0</ele>
        <time>2018-03-30T08:14:19Z</time>
      </trkpt>
      <trkpt lat="38.5003470" lon="-0.6384770">
        <ele>920.2</ele>
        <time>2018-03-30T08:14:20Z</time>
      </trkpt>
      <trkpt lat="38.5003550" lon="-0.6384780">
        <ele>920.3</ele>
        <time>2018-03-30T08:14:21Z</time>
      </trkpt>
      <trkpt lat="38.5003610" lon="-0.6384740">
        <ele>920.5</ele>
        <time>2018-03-30T08:14:22Z</time>
      </trkpt>
      <trkpt lat="38.5003670" lon="-0.6384660">
        <ele>920.6</ele>
        <time>2018-03-30T08:14:23Z</time>
      </trkpt>
      <trkpt lat="38.5003730" lon="-0.6384580">
        <ele>920.8</ele>
        <time>2018-03-30T08:14:24Z</time>
      </trkpt>
      <trkpt lat="38.5003770" lon="-0.6384480">
        <ele>920.9</ele>
        <time>2018-03-30T08:14:25Z</time>
      </trkpt>
      <trkpt lat="38.5003820" lon="-0.6384380">
        <ele>921.1</ele>
        <time>2018-03-30T08:14:26Z</time>
      </trkpt>
      <trkpt lat="38.5003910" lon="-0.6384260">
        <ele>921.3</ele>
        <time>2018-03-30T08:14:27Z</time>
      </trkpt>
      <trkpt lat="38.5003990" lon="-0.6384140">
        <ele>921.6</ele>
        <time>2018-03-30T08:14:28Z</time>
      </trkpt>
      <trkpt lat="38.5004070" lon="-0.6384050">
        <ele>921.8</ele>
        <time>2018-03-30T08:14:29Z</time>
      </trkpt>
      <trkpt lat="38.5004130" lon="-0.6383940">
        <ele>922.0</ele>
        <time>2018-03-30T08:14:30Z</time>
      </trkpt>
      <trkpt lat="38.5004220" lon="-0.6383810">
        <ele>922.2</ele>
        <time>2018-03-30T08:14:31Z</time>
      </trkpt>
      <trkpt lat="38.5004320" lon="-0.6383670">
        <ele>922.4</ele>
        <time>2018-03-30T08:14:32Z</time>
      </trkpt>
      <trkpt lat="38.5004410" lon="-0.6383530">
        <ele>922.6</ele>
        <time>2018-03-30T08:14:33Z</time>
      </trkpt>
      <trkpt lat="38.5004460" lon="-0.6383400">
        <ele>922.9</ele>
        <time>2018-03-30T08:14:34Z</time>
      </trkpt>
      <trkpt lat="38.5004530" lon="-0.6383270">
        <ele>923.1</ele>
        <time>2018-03-30T08:14:35Z</time>
      </trkpt>
      <trkpt lat="38.5004600" lon="-0.6383130">
        <ele>923.3</ele>
        <time>2018-03-30T08:14:36Z</time>
      </trkpt>
      <trkpt lat="38.5004660" lon="-0.6382980">
        <ele>923.5</ele>
        <time>2018-03-30T08:14:37Z</time>
      </trkpt>
      <trkpt lat="38.5004750" lon="-0.6382810">
        <ele>923.8</ele>
        <time>2018-03-30T08:14:38Z</time>
      </trkpt>
      <trkpt lat="38.5004800" lon="-0.6382660">
        <ele>924.1</ele>
        <time>2018-03-30T08:14:39Z</time>
      </trkpt>
      <trkpt lat="38.5004860" lon="-0.6382530">
        <ele>924.3</ele>
        <time>2018-03-30T08:14:40Z</time>
      </trkpt>
      <trkpt lat="38.5004940" lon="-0.6382400">
        <ele>924.5</ele>
        <time>2018-03-30T08:14:41Z</time>
      </trkpt>
      <trkpt lat="38.5005010" lon="-0.6382270">
        <ele>924.7</ele>
        <time>2018-03-30T08:14:42Z</time>
      </trkpt>
      <trkpt lat="38.5005080" lon="-0.6382140">
        <ele>924.9</ele>
        <time>2018-03-30T08:14:43Z</time>
      </trkpt>
      <trkpt lat="38.5005130" lon="-0.6382000">
        <ele>925.2</ele>
        <time>2018-03-30T08:14:44Z</time>
      </trkpt>
      <trkpt lat="38.5005190" lon="-0.6381880">
        <ele>925.4</ele>
        <time>2018-03-30T08:14:45Z</time>
      </trkpt>
      <trkpt lat="38.5005260" lon="-0.6381770">
        <ele>925.5</ele>
        <time>2018-03-30T08:14:46Z</time>
      </trkpt>
      <trkpt lat="38.5005320" lon="-0.6381680">
        <ele>925.7</ele>
        <time>2018-03-30T08:14:47Z</time>
      </trkpt>
      <trkpt lat="38.5005390" lon="-0.6381600">
        <ele>925.8</ele>
        <time>2018-03-30T08:14:48Z</time>
      </trkpt>
      <trkpt lat="38.5005470" lon="-0.6381500">
        <ele>926.0</ele>
        <time>2018-03-30T08:14:49Z</time>
      </trkpt>
      <trkpt lat="38.5005530" lon="-0.6381380">
        <ele>926.2</ele>
        <time>2018-03-30T08:14:50Z</time>
      </trkpt>
      <trkpt lat="38.5005590" lon="-0.6381260">
        <ele>926.3</ele>
        <time>2018-03-30T08:14:51Z</time>
      </trkpt>
      <trkpt lat="38.5005670" lon="-0.6381120">
        <ele>926.5</ele>
        <time>2018-03-30T08:14:52Z</time>
      </trkpt>
      <trkpt lat="38.5005750" lon="-0.6381000">
        <ele>926.7</ele>
        <time>2018-03-30T08:14:53Z</time>
      </trkpt>
      <trkpt lat="38.5005830" lon="-0.6380900">
        <ele>926.9</ele>
        <time>2018-03-30T08:14:54Z</time>
      </trkpt>
      <trkpt lat="38.5005910" lon="-0.6380770">
        <ele>927.1</ele>
        <time>2018-03-30T08:14:55Z</time>
      </trkpt>
      <trkpt lat="38.5006010" lon="-0.6380680">
        <ele>927.2</ele>
        <time>2018-03-30T08:14:56Z</time>
      </trkpt>
      <trkpt lat="38.5006100" lon="-0.6380580">
        <ele>927.4</ele>
        <time>2018-03-30T08:14:57Z</time>
      </trkpt>
      <trkpt lat="38.5006180" lon="-0.6380480">
        <ele>927.6</ele>
        <time>2018-03-30T08:14:58Z</time>
      </trkpt>
      <trkpt lat="38.5006270" lon="-0.6380390">
        <ele>927.7</ele>
        <time>2018-03-30T08:14:59Z</time>
      </trkpt>
      <trkpt lat="38.5006350" lon="-0.6380300">
        <ele>927.9</ele>
        <time>2018-03-30T08:15:00Z</time>
      </trkpt>
      <trkpt lat="38.5006420" lon="-0.6380200">
        <ele>928.0</ele>
        <time>2018-03-30T08:15:01Z</time>
      </trkpt>
      <trkpt lat="38.5006510" lon="-0.6380120">
        <ele>928.2</ele>
        <time>2018-03-30T08:15:02Z</time>
      </trkpt>
      <trkpt lat="38.5006600" lon="-0.6380050">
        <ele>928.4</ele>
        <time>2018-03-30T08:15:03Z</time>
      </trkpt>
      <trkpt lat="38.5006690" lon="-0.6379970">
        <ele>928.6</ele>
        <time>2018-03-30T08:15:04Z</time>
      </trkpt>
      <trkpt lat="38.5006780" lon="-0.6379860">
        <ele>928.8</ele>
        <time>2018-03-30T08:15:05Z</time>
      </trkpt>
      <trkpt lat="38.5006860" lon="-0.6379740">
        <ele>929.0</ele>
        <time>2018-03-30T08:15:06Z</time>
      </trkpt>
      <trkpt lat="38.5006940" lon="-0.6379640">
        <ele>929.1</ele>
        <time>2018-03-30T08:15:07Z</time>
      </trkpt>
      <trkpt lat="38.5007020" lon="-0.6379550">
        <ele>929.3</ele>
        <time>2018-03-30T08:15:08Z</time>
      </trkpt>
      <trkpt lat="38.5007120" lon="-0.6379480">
        <ele>929.5</ele>
        <time>2018-03-30T08:15:09Z</time>
      </trkpt>
      <trkpt lat="38.5007190" lon="-0.6379390">
        <ele>929.7</ele>
        <time>2018-03-30T08:15:10Z</time>
      </trkpt>
      <trkpt lat="38.5007280" lon="-0.6379270">
        <ele>929.9</ele>
        <time>2018-03-30T08:15:11Z</time>
      </trkpt>
      <trkpt lat="38.5007370" lon="-0.6379190">
        <ele>930.1</ele>
        <time>2018-03-30T08:15:12Z</time>
      </trkpt>
      <trkpt lat="38.5007450" lon="-0.6379090">
        <ele>930.4</ele>
        <time>2018-03-30T08:15:13Z</time>
      </trkpt>
      <trkpt lat="38.5007530" lon="-0.6379010">
        <ele>930.6</ele>
        <time>2018-03-30T08:15:14Z</time>
      </trkpt>
      <trkpt lat="38.5007610" lon="-0.6378930">
        <ele>930.8</ele>
        <time>2018-03-30T08:15:15Z</time>
      </trkpt>
      <trkpt lat="38.5007710" lon="-0.6378850">
        <ele>931.0</ele>
        <time>2018-03-30T08:15:16Z</time>
      </trkpt>
      <trkpt lat="38.5007790" lon="-0.6378770">
        <ele>931.2</ele>
        <time>2018-03-30T08:15:17Z</time>
      </trkpt>
      <trkpt lat="38.5007870" lon="-0.6378710">
        <ele>931.3</ele>
        <time>2018-03-30T08:15:18Z</time>
      </trkpt>
      <trkpt lat="38.5007960" lon="-0.6378630">
        <ele>931.7</ele>
        <time>2018-03-30T08:15:19Z</time>
      </trkpt>
      <trkpt lat="38.5008060" lon="-0.6378530">
        <ele>932.0</ele>
        <time>2018-03-30T08:15:20Z</time>
      </trkpt>
      <trkpt lat="38.5008140" lon="-0.6378420">
        <ele>932.3</ele>
        <time>2018-03-30T08:15:21Z</time>
      </trkpt>
      <trkpt lat="38.5008230" lon="-0.6378310">
        <ele>932.5</ele>
        <time>2018-03-30T08:15:22Z</time>
      </trkpt>
      <trkpt lat="38.5008310" lon="-0.6378190">
        <ele>932.7</ele>
        <time>2018-03-30T08:15:23Z</time>
      </trkpt>
      <trkpt lat="38.5008380" lon="-0.6378080">
        <ele>932.9</ele>
        <time>2018-03-30T08:15:24Z</time>
      </trkpt>
      <trkpt lat="38.5008460" lon="-0.6378000">
        <ele>933.1</ele>
        <time>2018-03-30T08:15:25Z</time>
      </trkpt>
      <trkpt lat="38.5008530" lon="-0.6377910">
        <ele>933.3</ele>
        <time>2018-03-30T08:15:26Z</time>
      </trkpt>
      <trkpt lat="38.5008620" lon="-0.6377830">
        <ele>933.5</ele>
        <time>2018-03-30T08:15:27Z</time>
      </trkpt>
      <trkpt lat="38.5008700" lon="-0.6377760">
        <ele>933.7</ele>
        <time>2018-03-30T08:15:28Z</time>
      </trkpt>
      <trkpt lat="38.5008790" lon="-0.6377680">
        <ele>934.0</ele>
        <time>2018-03-30T08:15:29Z</time>
      </trkpt>
      <trkpt lat="38.5008850" lon="-0.6377580">
        <ele>934.4</ele>
        <time>2018-03-30T08:15:30Z</time>
      </trkpt>
      <trkpt lat="38.5008900" lon="-0.6377480">
        <ele>934.7</ele>
        <time>2018-03-30T08:15:31Z</time>
      </trkpt>
      <trkpt lat="38.5008980" lon="-0.6377370">
        <ele>934.9</ele>
        <time>2018-03-30T08:15:32Z</time>
      </trkpt>
      <trkpt lat="38.5009040" lon="-0.6377260">
        <ele>935.2</ele>
        <time>2018-03-30T08:15:33Z</time>
      </trkpt>
      <trkpt lat="38.5009100" lon="-0.6377180">
        <ele>935.4</ele>
        <time>2018-03-30T08:15:34Z</time>
      </trkpt>
      <trkpt lat="38.5009160" lon="-0.6377110">
        <ele>935.8</ele>
        <time>2018-03-30T08:15:35Z</time>
      </trkpt>
      <trkpt lat="38.5009220" lon="-0.6377020">
        <ele>936.0</ele>
        <time>2018-03-30T08:15:36Z</time>
      </trkpt>
      <trkpt lat="38.5009270" lon="-0.6376940">
        <ele>936.2</ele>
        <time>2018-03-30T08:15:37Z</time>
      </trkpt>
      <trkpt lat="38.5009310" lon="-0.6376850">
        <ele>936.3</ele>
        <time>2018-03-30T08:15:38Z</time>
      </trkpt>
      <trkpt lat="38.5009370" lon="-0.6376740">
        <ele>936.6</ele>
        <time>2018-03-30T08:15:39Z</time>
      </trkpt>
      <trkpt lat="38.5009440" lon="-0.6376650">
        <ele>936.8</ele>
        <time>2018-03-30T08:15:40Z</time>
      </trkpt>
      <trkpt lat="38.5009510" lon="-0.6376540">
        <ele>937.0</ele>
        <time>2018-03-30T08:15:41Z</time>
      </trkpt>
      <trkpt lat="38.5009580" lon="-0.6376430">
        <ele>937.2</ele>
        <time>2018-03-30T08:15:42Z</time>
      </trkpt>
      <trkpt lat="38.5009640" lon="-0.6376330">
        <ele>937.4</ele>
        <time>2018-03-30T08:15:43Z</time>
      </trkpt>
      <trkpt lat="38.5009680" lon="-0.6376230">
        <ele>937.6</ele>
        <time>2018-03-30T08:15:44Z</time>
      </trkpt>
      <trkpt lat="38.5009720" lon="-0.6376120">
        <ele>937.9</ele>
        <time>2018-03-30T08:15:45Z</time>
      </trkpt>
      <trkpt lat="38.5009770" lon="-0.6376010">
        <ele>938.0</ele>
        <time>2018-03-30T08:15:46Z</time>
      </trkpt>
      <trkpt lat="38.5009830" lon="-0.6375890">
        <ele>938.2</ele>
        <time>2018-03-30T08:15:47Z</time>
      </trkpt>
      <trkpt lat="38.5009900" lon="-0.6375800">
        <ele>938.3</ele>
        <time>2018-03-30T08:15:48Z</time>
      </trkpt>
      <trkpt lat="38.5009960" lon="-0.6375720">
        <ele>938.4</ele>
        <time>2018-03-30T08:15:49Z</time>
      </trkpt>
      <trkpt lat="38.5010020" lon="-0.6375700">
        <ele>938.5</ele>
        <time>2018-03-30T08:15:50Z</time>
      </trkpt>
      <trkpt lat="38.5010100" lon="-0.6375640">
        <ele>938.7</ele>
        <time>2018-03-30T08:15:51Z</time>
      </trkpt>
      <trkpt lat="38.5010160" lon="-0.6375580">
        <ele>938.8</ele>
        <time>2018-03-30T08:15:52Z</time>
      </trkpt>
      <trkpt lat="38.5010230" lon="-0.6375460">
        <ele>939.1</ele>
        <time>2018-03-30T08:15:53Z</time>
      </trkpt>
      <trkpt lat="38.5010280" lon="-0.6375320">
        <ele>939.3</ele>
        <time>2018-03-30T08:15:54Z</time>
      </trkpt>
      <trkpt lat="38.5010320" lon="-0.6375200">
        <ele>939.6</ele>
        <time>2018-03-30T08:15:55Z</time>
      </trkpt>
      <trkpt lat="38.5010350" lon="-0.6375080">
        <ele>939.8</ele>
        <time>2018-03-30T08:15:56Z</time>
      </trkpt>
      <trkpt lat="38.5010380" lon="-0.6374970">
        <ele>939.9</ele>
        <time>2018-03-30T08:15:57Z</time>
      </trkpt>
      <trkpt lat="38.5010440" lon="-0.6374880">
        <ele>940.1</ele>
        <time>2018-03-30T08:15:58Z</time>
      </trkpt>
      <trkpt lat="38.5010510" lon="-0.6374830">
        <ele>940.2</ele>
        <time>2018-03-30T08:15:59Z</time>
      </trkpt>
      <trkpt lat="38.5010560" lon="-0.6374750">
        <ele>940.3</ele>
        <time>2018-03-30T08:16:00Z</time>
      </trkpt>
      <trkpt lat="38.5010630" lon="-0.6374670">
        <ele>940.5</ele>
        <time>2018-03-30T08:16:01Z</time>
      </trkpt>
      <trkpt lat="38.5010700" lon="-0.6374570">
        <ele>940.8</ele>
        <time>2018-03-30T08:16:02Z</time>
      </trkpt>
      <trkpt lat="38.5010760" lon="-0.6374490">
        <ele>941.0</ele>
        <time>2018-03-30T08:16:03Z</time>
      </trkpt>
      <trkpt lat="38.5010830" lon="-0.6374390">
        <ele>941.2</ele>
        <time>2018-03-30T08:16:04Z</time>
      </trkpt>
      <trkpt lat="38.5010900" lon="-0.6374310">
        <ele>941.3</ele>
        <time>2018-03-30T08:16:05Z</time>
      </trkpt>
      <trkpt lat="38.5010970" lon="-0.6374200">
        <ele>941.5</ele>
        <time>2018-03-30T08:16:06Z</time>
      </trkpt>
      <trkpt lat="38.5011020" lon="-0.6374110">
        <ele>941.6</ele>
        <time>2018-03-30T08:16:07Z</time>
      </trkpt>
      <trkpt lat="38.5011080" lon="-0.6374030">
        <ele>941.7</ele>
        <time>2018-03-30T08:16:08Z</time>
      </trkpt>
      <trkpt lat="38.5011140" lon="-0.6373930">
        <ele>941.9</ele>
        <time>2018-03-30T08:16:09Z</time>
      </trkpt>
      <trkpt lat="38.5011200" lon="-0.6373860">
        <ele>942.0</ele>
        <time>2018-03-30T08:16:10Z</time>
      </trkpt>
      <trkpt lat="38.5011250" lon="-0.6373790">
        <ele>942.2</ele>
        <time>2018-03-30T08:16:11Z</time>
      </trkpt>
      <trkpt lat="38.5011310" lon="-0.6373710">
        <ele>942.3</ele>
        <time>2018-03-30T08:16:12Z</time>
      </trkpt>
      <trkpt lat="38.5011380" lon="-0.6373600">
        <ele>942.6</ele>
        <time>2018-03-30T08:16:13Z</time>
      </trkpt>
      <trkpt lat="38.5011450" lon="-0.6373510">
        <ele>942.8</ele>
        <time>2018-03-30T08:16:14Z</time>
      </trkpt>
      <trkpt lat="38.5011500" lon="-0.6373410">
        <ele>943.0</ele>
        <time>2018-03-30T08:16:15Z</time>
      </trkpt>
      <trkpt lat="38.5011570" lon="-0.6373340">
        <ele>943.2</ele>
        <time>2018-03-30T08:16:16Z</time>
      </trkpt>
      <trkpt lat="38.5011630" lon="-0.6373270">
        <ele>943.4</ele>
        <time>2018-03-30T08:16:17Z</time>
      </trkpt>
      <trkpt lat="38.5011690" lon="-0.6373220">
        <ele>943.5</ele>
        <time>2018-03-30T08:16:18Z</time>
      </trkpt>
      <trkpt lat="38.5011760" lon="-0.6373170">
        <ele>943.7</ele>
        <time>2018-03-30T08:16:19Z</time>
      </trkpt>
      <trkpt lat="38.5011850" lon="-0.6373140">
        <ele>943.9</ele>
        <time>2018-03-30T08:16:20Z</time>
      </trkpt>
      <trkpt lat="38.5011960" lon="-0.6373100">
        <ele>944.1</ele>
        <time>2018-03-30T08:16:21Z</time>
      </trkpt>
      <trkpt lat="38.5012060" lon="-0.6373070">
        <ele>944.4</ele>
        <time>2018-03-30T08:16:22Z</time>
      </trkpt>
      <trkpt lat="38.5012170" lon="-0.6373020">
        <ele>944.7</ele>
        <time>2018-03-30T08:16:23Z</time>
      </trkpt>
      <trkpt lat="38.5012250" lon="-0.6372980">
        <ele>944.9</ele>
        <time>2018-03-30T08:16:24Z</time>
      </trkpt>
      <trkpt lat="38.5012340" lon="-0.6372940">
        <ele>945.2</ele>
        <time>2018-03-30T08:16:25Z</time>
      </trkpt>
      <trkpt lat="38.5012420" lon="-0.6372910">
        <ele>945.5</ele>
        <time>2018-03-30T08:16:26Z</time>
      </trkpt>
      <trkpt lat="38.5012520" lon="-0.6372890">
        <ele>945.6</ele>
        <time>2018-03-30T08:16:27Z</time>
      </trkpt>
      <trkpt lat="38.5012600" lon="-0.6372840">
        <ele>945.8</ele>
        <time>2018-03-30T08:16:28Z</time>
      </trkpt>
      <trkpt lat="38.5012670" lon="-0.6372800">
        <ele>945.9</ele>
        <time>2018-03-30T08:16:29Z</time>
      </trkpt>
      <trkpt lat="38.5012740" lon="-0.6372740">
        <ele>946.0</ele>
        <time>2018-03-30T08:16:30Z</time>
      </trkpt>
      <trkpt lat="38.5012810" lon="-0.6372670">
        <ele>946.1</ele>
        <time>2018-03-30T08:16:31Z</time>
      </trkpt>
      <trkpt lat="38.5012870" lon="-0.6372580">
        <ele>946.3</ele>
        <time>2018-03-30T08:16:32Z</time>
      </trkpt>
      <trkpt lat="38.5012950" lon="-0.6372500">
        <ele>946.4</ele>
        <time>2018-03-30T08:16:33Z</time>
      </trkpt>
      <trkpt lat="38.5013020" lon="-0.6372450">
        <ele>946.5</ele>
        <time>2018-03-30T08:16:34Z</time>
      </trkpt>
      <trkpt lat="38.5013120" lon="-0.6372410">
        <ele>946.7</ele>
        <time>2018-03-30T08:16:35Z</time>
      </trkpt>
      <trkpt lat="38.5013220" lon="-0.6372350">
        <ele>947.0</ele>
        <time>2018-03-30T08:16:36Z</time>
      </trkpt>
      <trkpt lat="38.5013300" lon="-0.6372300">
        <ele>947.2</ele>
        <time>2018-03-30T08:16:37Z</time>
      </trkpt>
      <trkpt lat="38.5013370" lon="-0.6372250">
        <ele>947.4</ele>
        <time>2018-03-30T08:16:38Z</time>
      </trkpt>
      <trkpt lat="38.5013460" lon="-0.6372200">
        <ele>947.6</ele>
        <time>2018-03-30T08:16:39Z</time>
      </trkpt>
      <trkpt lat="38.5013530" lon="-0.6372130">
        <ele>947.7</ele>
        <time>2018-03-30T08:16:40Z</time>
      </trkpt>
      <trkpt lat="38.5013600" lon="-0.6372050">
        <ele>947.9</ele>
        <time>2018-03-30T08:16:41Z</time>
      </trkpt>
      <trkpt lat="38.5013690" lon="-0.6372030">
        <ele>948.1</ele>
        <time>2018-03-30T08:16:42Z</time>
      </trkpt>
      <trkpt lat="38.5013790" lon="-0.6372030">
        <ele>948.4</ele>
        <time>2018-03-30T08:16:43Z</time>
      </trkpt>
      <trkpt lat="38.5013880" lon="-0.6372020">
        <ele>948.7</ele>
        <time>2018-03-30T08:16:44Z</time>
      </trkpt>
      <trkpt lat="38.5013950" lon="-0.6371980">
        <ele>948.9</ele>
        <time>2018-03-30T08:16:45Z</time>
      </trkpt>
      <trkpt lat="38.5014040" lon="-0.6371900">
        <ele>949.3</ele>
        <time>2018-03-30T08:16:46Z</time>
      </trkpt>
      <trkpt lat="38.5014110" lon="-0.6371830">
        <ele>949.5</ele>
        <time>2018-03-30T08:16:47Z</time>
      </trkpt>
      <trkpt lat="38.5014170" lon="-0.6371710">
        <ele>949.8</ele>
        <time>2018-03-30T08:16:48Z</time>
      </trkpt>
      <trkpt lat="38.5014270" lon="-0.6371640">
        <ele>950.0</ele>
        <time>2018-03-30T08:16:49Z</time>
      </trkpt>
      <trkpt lat="38.5014370" lon="-0.6371580">
        <ele>950.4</ele>
        <time>2018-03-30T08:16:50Z</time>
      </trkpt>
      <trkpt lat="38.5014450" lon="-0.6371520">
        <ele>950.7</ele>
        <time>2018-03-30T08:16:51Z</time>
      </trkpt>
      <trkpt lat="38.5014520" lon="-0.6371470">
        <ele>950.9</ele>
        <time>2018-03-30T08:16:52Z</time>
      </trkpt>
      <trkpt lat="38.5014600" lon="-0.6371430">
        <ele>951.2</ele>
        <time>2018-03-30T08:16:53Z</time>
      </trkpt>
      <trkpt lat="38.5014670" lon="-0.6371370">
        <ele>951.4</ele>
        <time>2018-03-30T08:16:54Z</time>
      </trkpt>
      <trkpt lat="38.5014750" lon="-0.6371310">
        <ele>951.7</ele>
        <time>2018-03-30T08:16:55Z</time>
      </trkpt>
      <trkpt lat="38.5014810" lon="-0.6371230">
        <ele>951.9</ele>
        <time>2018-03-30T08:16:56Z</time>
      </trkpt>
      <trkpt lat="38.5014870" lon="-0.6371160">
        <ele>952.0</ele>
        <time>2018-03-30T08:16:57Z</time>
      </trkpt>
      <trkpt lat="38.5014980" lon="-0.6371130">
        <ele>952.3</ele>
        <time>2018-03-30T08:16:58Z</time>
      </trkpt>
      <trkpt lat="38.5015060" lon="-0.6371100">
        <ele>952.5</ele>
        <time>2018-03-30T08:16:59Z</time>
      </trkpt>
      <trkpt lat="38.5015160" lon="-0.6371070">
        <ele>952.9</ele>
        <time>2018-03-30T08:17:00Z</time>
      </trkpt>
      <trkpt lat="38.5015230" lon="-0.6371060">
        <ele>953.2</ele>
        <time>2018-03-30T08:17:01Z</time>
      </trkpt>
      <trkpt lat="38.5015310" lon="-0.6371030">
        <ele>953.5</ele>
        <time>2018-03-30T08:17:02Z</time>
      </trkpt>
      <trkpt lat="38.5015360" lon="-0.6370990">
        <ele>954.2</ele>
        <time>2018-03-30T08:17:03Z</time>
      </trkpt>
      <trkpt lat="38.5015450" lon="-0.6370990">
        <ele>954.3</ele>
        <time>2018-03-30T08:17:04Z</time>
      </trkpt>
      <trkpt lat="38.5015540" lon="-0.6371010">
        <ele>954.5</ele>
        <time>2018-03-30T08:17:05Z</time>
      </trkpt>
      <trkpt lat="38.5015600" lon="-0.6371040">
        <ele>954.7</ele>
        <time>2018-03-30T08:17:06Z</time>
      </trkpt>
      <trkpt lat="38.5015690" lon="-0.6371040">
        <ele>954.9</ele>
        <time>2018-03-30T08:17:07Z</time>
      </trkpt>
      <trkpt lat="38.5015780" lon="-0.6371060">
        <ele>955.1</ele>
        <time>2018-03-30T08:17:08Z</time>
      </trkpt>
      <trkpt lat="38.5015890" lon="-0.6371080">
        <ele>955.3</ele>
        <time>2018-03-30T08:17:09Z</time>
      </trkpt>
      <trkpt lat="38.5015980" lon="-0.6371080">
        <ele>955.5</ele>
        <time>2018-03-30T08:17:10Z</time>
      </trkpt>
      <trkpt lat="38.5016040" lon="-0.6371090">
        <ele>955.6</ele>
        <time>2018-03-30T08:17:11Z</time>
      </trkpt>
      <trkpt lat="38.5016110" lon="-0.6371100">
        <ele>955.7</ele>
        <time>2018-03-30T08:17:12Z</time>
      </trkpt>
      <trkpt lat="38.5016150" lon="-0.6371050">
        <ele>955.8</ele>
        <time>2018-03-30T08:17:13Z</time>
      </trkpt>
      <trkpt lat="38.5016250" lon="-0.6371080">
        <ele>956.0</ele>
        <time>2018-03-30T08:17:14Z</time>
      </trkpt>
      <trkpt lat="38.5016330" lon="-0.6371120">
        <ele>956.1</ele>
        <time>2018-03-30T08:17:15Z</time>
      </trkpt>
      <trkpt lat="38.5016400" lon="-0.6371140">
        <ele>956.3</ele>
        <time>2018-03-30T08:17:16Z</time>
      </trkpt>
      <trkpt lat="38.5016500" lon="-0.6371150">
        <ele>956.5</ele>
        <time>2018-03-30T08:17:17Z</time>
      </trkpt>
      <trkpt lat="38.5016600" lon="-0.6371150">
        <ele>956.7</ele>
        <time>2018-03-30T08:17:18Z</time>
      </trkpt>
      <trkpt lat="38.5016730" lon="-0.6371140">
        <ele>957.0</ele>
        <time>2018-03-30T08:17:19Z</time>
      </trkpt>
      <trkpt lat="38.5016850" lon="-0.6371110">
        <ele>957.3</ele>
        <time>2018-03-30T08:17:20Z</time>
      </trkpt>
      <trkpt lat="38.5016940" lon="-0.6371080">
        <ele>957.7</ele>
        <time>2018-03-30T08:17:21Z</time>
      </trkpt>
      <trkpt lat="38.5017050" lon="-0.6371030">
        <ele>957.9</ele>
        <time>2018-03-30T08:17:22Z</time>
      </trkpt>
      <trkpt lat="38.5017120" lon="-0.6370980">
        <ele>958.1</ele>
        <time>2018-03-30T08:17:23Z</time>
      </trkpt>
      <trkpt lat="38.5017190" lon="-0.6370900">
        <ele>958.2</ele>
        <time>2018-03-30T08:17:24Z</time>
      </trkpt>
      <trkpt lat="38.5017230" lon="-0.6370790">
        <ele>958.4</ele>
        <time>2018-03-30T08:17:25Z</time>
      </trkpt>
      <trkpt lat="38.5017320" lon="-0.6370700">
        <ele>958.6</ele>
        <time>2018-03-30T08:17:26Z</time>
      </trkpt>
      <trkpt lat="38.5017360" lon="-0.6370620">
        <ele>958.8</ele>
        <time>2018-03-30T08:17:27Z</time>
      </trkpt>
      <trkpt lat="38.5017430" lon="-0.6370590">
        <ele>959.0</ele>
        <time>2018-03-30T08:17:28Z</time>
      </trkpt>
      <trkpt lat="38.5017480" lon="-0.6370560">
        <ele>959.4</ele>
        <time>2018-03-30T08:17:29Z</time>
      </trkpt>
      <trkpt lat="38.5017530" lon="-0.6370520">
        <ele>959.6</ele>
        <time>2018-03-30T08:17:30Z</time>
      </trkpt>
      <trkpt lat="38.5017610" lon="-0.6370460">
        <ele>959.8</ele>
        <time>2018-03-30T08:17:31Z</time>
      </trkpt>
      <trkpt lat="38.5017680" lon="-0.6370410">
        <ele>960.0</ele>
        <time>2018-03-30T08:17:32Z</time>
      </trkpt>
      <trkpt lat="38.5017810" lon="-0.6370330">
        <ele>960.4</ele>
        <time>2018-03-30T08:17:33Z</time>
      </trkpt>
      <trkpt lat="38.5017900" lon="-0.6370300">
        <ele>960.7</ele>
        <time>2018-03-30T08:17:34Z</time>
      </trkpt>
      <trkpt lat="38.5017970" lon="-0.6370240">
        <ele>961.0</ele>
        <time>2018-03-30T08:17:35Z</time>
      </trkpt>
      <trkpt lat="38.5018090" lon="-0.6370130">
        <ele>961.3</ele>
        <time>2018-03-30T08:17:36Z</time>
      </trkpt>
      <trkpt lat="38.5018170" lon="-0.6370000">
        <ele>961.6</ele>
        <time>2018-03-30T08:17:37Z</time>
      </trkpt>
      <trkpt lat="38.5018160" lon="-0.6369900">
        <ele>961.7</ele>
        <time>2018-03-30T08:17:38Z</time>
      </trkpt>
      <trkpt lat="38.5018180" lon="-0.6369760">
        <ele>961.9</ele>
        <time>2018-03-30T08:17:39Z</time>
      </trkpt>
      <trkpt lat="38.5018190" lon="-0.6369630">
        <ele>962.2</ele>
        <time>2018-03-30T08:17:40Z</time>
      </trkpt>
      <trkpt lat="38.5018170" lon="-0.6369530">
        <ele>962.5</ele>
        <time>2018-03-30T08:17:41Z</time>
      </trkpt>
      <trkpt lat="38.5018170" lon="-0.6369410">
        <ele>962.7</ele>
        <time>2018-03-30T08:17:42Z</time>
      </trkpt>
      <trkpt lat="38.5018190" lon="-0.6369320">
        <ele>962.9</ele>
        <time>2018-03-30T08:17:43Z</time>
      </trkpt>
      <trkpt lat="38.5018250" lon="-0.6369240">
        <ele>963.1</ele>
        <time>2018-03-30T08:17:44Z</time>
      </trkpt>
      <trkpt lat="38.5018280" lon="-0.6369130">
        <ele>963.4</ele>
        <time>2018-03-30T08:17:45Z</time>
      </trkpt>
      <trkpt lat="38.5018340" lon="-0.6369080">
        <ele>963.5</ele>
        <time>2018-03-30T08:17:46Z</time>
      </trkpt>
      <trkpt lat="38.5018390" lon="-0.6368980">
        <ele>963.7</ele>
        <time>2018-03-30T08:17:47Z</time>
      </trkpt>
      <trkpt lat="38.5018430" lon="-0.6368900">
        <ele>963.9</ele>
        <time>2018-03-30T08:17:48Z</time>
      </trkpt>
      <trkpt lat="38.5018470" lon="-0.6368800">
        <ele>964.1</ele>
        <time>2018-03-30T08:17:49Z</time>
      </trkpt>
      <trkpt lat="38.5018510" lon="-0.6368680">
        <ele>964.3</ele>
        <time>2018-03-30T08:17:50Z</time>
      </trkpt>
      <trkpt lat="38.5018540" lon="-0.6368540">
        <ele>964.6</ele>
        <time>2018-03-30T08:17:51Z</time>
      </trkpt>
      <trkpt lat="38.5018570" lon="-0.6368440">
        <ele>964.8</ele>
        <time>2018-03-30T08:17:52Z</time>
      </trkpt>
      <trkpt lat="38.5018600" lon="-0.6368320">
        <ele>965.0</ele>
        <time>2018-03-30T08:17:53Z</time>
      </trkpt>
      <trkpt lat="38.5018620" lon="-0.6368290">
        <ele>965.0</ele>
        <time>2018-03-30T08:17:54Z</time>
      </trkpt>
      <trkpt lat="38.5018690" lon="-0.6368230">
        <ele>965.2</ele>
        <time>2018-03-30T08:17:55Z</time>
      </trkpt>
      <trkpt lat="38.5018750" lon="-0.6368150">
        <ele>965.4</ele>
        <time>2018-03-30T08:17:56Z</time>
      </trkpt>
      <trkpt lat="38.5018820" lon="-0.6368100">
        <ele>965.5</ele>
        <time>2018-03-30T08:17:57Z</time>
      </trkpt>
      <trkpt lat="38.5018890" lon="-0.6368030">
        <ele>966.0</ele>
        <time>2018-03-30T08:17:58Z</time>
      </trkpt>
      <trkpt lat="38.5018960" lon="-0.6367970">
        <ele>966.2</ele>
        <time>2018-03-30T08:17:59Z</time>
      </trkpt>
      <trkpt lat="38.5019030" lon="-0.6367890">
        <ele>966.5</ele>
        <time>2018-03-30T08:18:00Z</time>
      </trkpt>
      <trkpt lat="38.5019090" lon="-0.6367830">
        <ele>966.6</ele>
        <time>2018-03-30T08:18:01Z</time>
      </trkpt>
      <trkpt lat="38.5019120" lon="-0.6367740">
        <ele>967.1</ele>
        <time>2018-03-30T08:18:02Z</time>
      </trkpt>
      <trkpt lat="38.5019160" lon="-0.6367680">
        <ele>967.2</ele>
        <time>2018-03-30T08:18:03Z</time>
      </trkpt>
      <trkpt lat="38.5019210" lon="-0.6367570">
        <ele>967.4</ele>
        <time>2018-03-30T08:18:04Z</time>
      </trkpt>
      <trkpt lat="38.5019270" lon="-0.6367520">
        <ele>967.5</ele>
        <time>2018-03-30T08:18:05Z</time>
      </trkpt>
      <trkpt lat="38.5019340" lon="-0.6367470">
        <ele>967.8</ele>
        <time>2018-03-30T08:18:06Z</time>
      </trkpt>
      <trkpt lat="38.5019390" lon="-0.6367400">
        <ele>968.0</ele>
        <time>2018-03-30T08:18:07Z</time>
      </trkpt>
      <trkpt lat="38.5019470" lon="-0.6367340">
        <ele>968.2</ele>
        <time>2018-03-30T08:18:08Z</time>
      </trkpt>
      <trkpt lat="38.5019550" lon="-0.6367300">
        <ele>968.4</ele>
        <time>2018-03-30T08:18:09Z</time>
      </trkpt>
      <trkpt lat="38.5019620" lon="-0.6367260">
        <ele>968.6</ele>
        <time>2018-03-30T08:18:10Z</time>
      </trkpt>
      <trkpt lat="38.5019710" lon="-0.6367210">
        <ele>968.7</ele>
        <time>2018-03-30T08:18:11Z</time>
      </trkpt>
      <trkpt lat="38.5019780" lon="-0.6367170">
        <ele>968.9</ele>
        <time>2018-03-30T08:18:12Z</time>
      </trkpt>
      <trkpt lat="38.5019830" lon="-0.6367090">
        <ele>969.0</ele>
        <time>2018-03-30T08:18:13Z</time>
      </trkpt>
      <trkpt lat="38.5019900" lon="-0.6367090">
        <ele>969.1</ele>
        <time>2018-03-30T08:18:14Z</time>
      </trkpt>
      <trkpt lat="38.5019960" lon="-0.6367060">
        <ele>969.2</ele>
        <time>2018-03-30T08:18:15Z</time>
      </trkpt>
      <trkpt lat="38.5020020" lon="-0.6367060">
        <ele>969.3</ele>
        <time>2018-03-30T08:18:16Z</time>
      </trkpt>
      <trkpt lat="38.5020090" lon="-0.6367050">
        <ele>969.4</ele>
        <time>2018-03-30T08:18:17Z</time>
      </trkpt>
      <trkpt lat="38.5020160" lon="-0.6367010">
        <ele>969.6</ele>
        <time>2018-03-30T08:18:18Z</time>
      </trkpt>
      <trkpt lat="38.5020240" lon="-0.6367020">
        <ele>969.8</ele>
        <time>2018-03-30T08:18:19Z</time>
      </trkpt>
      <trkpt lat="38.5020320" lon="-0.6367010">
        <ele>969.9</ele>
        <time>2018-03-30T08:18:20Z</time>
      </trkpt>
      <trkpt lat="38.5020400" lon="-0.6367020">
        <ele>970.1</ele>
        <time>2018-03-30T08:18:21Z</time>
      </trkpt>
      <trkpt lat="38.5020500" lon="-0.6367000">
        <ele>970.2</ele>
        <time>2018-03-30T08:18:22Z</time>
      </trkpt>
      <trkpt lat="38.5020570" lon="-0.6367010">
        <ele>970.3</ele>
        <time>2018-03-30T08:18:23Z</time>
      </trkpt>
      <trkpt lat="38.5020630" lon="-0.6367090">
        <ele>970.4</ele>
        <time>2018-03-30T08:18:24Z</time>
      </trkpt>
      <trkpt lat="38.5020700" lon="-0.6367170">
        <ele>970.6</ele>
        <time>2018-03-30T08:18:25Z</time>
      </trkpt>
      <trkpt lat="38.5020750" lon="-0.6367270">
        <ele>970.7</ele>
        <time>2018-03-30T08:18:26Z</time>
      </trkpt>
      <trkpt lat="38.5020800" lon="-0.6367360">
        <ele>970.9</ele>
        <time>2018-03-30T08:18:27Z</time>
      </trkpt>
      <trkpt lat="38.5020880" lon="-0.6367400">
        <ele>971.1</ele>
        <time>2018-03-30T08:18:28Z</time>
      </trkpt>
      <trkpt lat="38.5020950" lon="-0.6367460">
        <ele>971.2</ele>
        <time>2018-03-30T08:18:29Z</time>
      </trkpt>
      <trkpt lat="38.5021010" lon="-0.6367530">
        <ele>971.3</ele>
        <time>2018-03-30T08:18:30Z</time>
      </trkpt>
      <trkpt lat="38.5021060" lon="-0.6367600">
        <ele>971.4</ele>
        <time>2018-03-30T08:18:31Z</time>
      </trkpt>
      <trkpt lat="38.5021130" lon="-0.6367680">
        <ele>971.5</ele>
        <time>2018-03-30T08:18:32Z</time>
      </trkpt>
      <trkpt lat="38.5021170" lon="-0.6367750">
        <ele>971.6</ele>
        <time>2018-03-30T08:18:33Z</time>
      </trkpt>
      <trkpt lat="38.5021170" lon="-0.6367840">
        <ele>971.7</ele>
        <time>2018-03-30T08:18:34Z</time>
      </trkpt>
      <trkpt lat="38.5021200" lon="-0.6367940">
        <ele>971.9</ele>
        <time>2018-03-30T08:18:35Z</time>
      </trkpt>
      <trkpt lat="38.5021240" lon="-0.6368070">
        <ele>972.0</ele>
        <time>2018-03-30T08:18:36Z</time>
      </trkpt>
      <trkpt lat="38.5021230" lon="-0.6368160">
        <ele>972.1</ele>
        <time>2018-03-30T08:18:37Z</time>
      </trkpt>
      <trkpt lat="38.5021220" lon="-0.6368290">
        <ele>972.3</ele>
        <time>2018-03-30T08:18:38Z</time>
      </trkpt>
      <trkpt lat="38.5021200" lon="-0.6368420">
        <ele>972.4</ele>
        <time>2018-03-30T08:18:39Z</time>
      </trkpt>
      <trkpt lat="38.5021200" lon="-0.6368540">
        <ele>972.6</ele>
        <time>2018-03-30T08:18:40Z</time>
      </trkpt>
      <trkpt lat="38.5021230" lon="-0.6368640">
        <ele>972.7</ele>
        <time>2018-03-30T08:18:41Z</time>
      </trkpt>
      <trkpt lat="38.5021240" lon="-0.6368750">
        <ele>972.9</ele>
        <time>2018-03-30T08:18:42Z</time>
      </trkpt>
      <trkpt lat="38.5021240" lon="-0.6368850">
        <ele>973.0</ele>
        <time>2018-03-30T08:18:43Z</time>
      </trkpt>
      <trkpt lat="38.5021270" lon="-0.6368960">
        <ele>973.1</ele>
        <time>2018-03-30T08:18:44Z</time>
      </trkpt>
      <trkpt lat="38.5021280" lon="-0.6369050">
        <ele>973.2</ele>
        <time>2018-03-30T08:18:45Z</time>
      </trkpt>
      <trkpt lat="38.5021310" lon="-0.6369150">
        <ele>973.3</ele>
        <time>2018-03-30T08:18:46Z</time>
      </trkpt>
      <trkpt lat="38.5021340" lon="-0.6369250">
        <ele>973.4</ele>
        <time>2018-03-30T08:18:47Z</time>
      </trkpt>
      <trkpt lat="38.5021410" lon="-0.6369360">
        <ele>973.6</ele>
        <time>2018-03-30T08:18:48Z</time>
      </trkpt>
      <trkpt lat="38.5021460" lon="-0.6369450">
        <ele>973.7</ele>
        <time>2018-03-30T08:18:49Z</time>
      </trkpt>
      <trkpt lat="38.5021500" lon="-0.6369540">
        <ele>973.8</ele>
        <time>2018-03-30T08:18:50Z</time>
      </trkpt>
      <trkpt lat="38.5021560" lon="-0.6369620">
        <ele>973.9</ele>
        <time>2018-03-30T08:18:51Z</time>
      </trkpt>
      <trkpt lat="38.5021630" lon="-0.6369720">
        <ele>974.1</ele>
        <time>2018-03-30T08:18:52Z</time>
      </trkpt>
      <trkpt lat="38.5021710" lon="-0.6369820">
        <ele>974.2</ele>
        <time>2018-03-30T08:18:53Z</time>
      </trkpt>
      <trkpt lat="38.5021770" lon="-0.6369920">
        <ele>974.4</ele>
        <time>2018-03-30T08:18:54Z</time>
      </trkpt>
      <trkpt lat="38.5021860" lon="-0.6369990">
        <ele>974.5</ele>
        <time>2018-03-30T08:18:55Z</time>
      </trkpt>
      <trkpt lat="38.5021930" lon="-0.6370020">
        <ele>974.6</ele>
        <time>2018-03-30T08:18:56Z</time>
      </trkpt>
      <trkpt lat="38.5022030" lon="-0.6370050">
        <ele>975.1</ele>
        <time>2018-03-30T08:18:57Z</time>
      </trkpt>
      <trkpt lat="38.5022130" lon="-0.6370080">
        <ele>975.2</ele>
        <time>2018-03-30T08:18:58Z</time>
      </trkpt>
      <trkpt lat="38.5022240" lon="-0.6370090">
        <ele>975.4</ele>
        <time>2018-03-30T08:18:59Z</time>
      </trkpt>
      <trkpt lat="38.5022360" lon="-0.6370050">
        <ele>975.6</ele>
        <time>2018-03-30T08:19:00Z</time>
      </trkpt>
      <trkpt lat="38.5022450" lon="-0.6369990">
        <ele>975.8</ele>
        <time>2018-03-30T08:19:01Z</time>
      </trkpt>
      <trkpt lat="38.5022540" lon="-0.6369930">
        <ele>976.0</ele>
        <time>2018-03-30T08:19:02Z</time>
      </trkpt>
      <trkpt lat="38.5022610" lon="-0.6369860">
        <ele>976.1</ele>
        <time>2018-03-30T08:19:03Z</time>
      </trkpt>
      <trkpt lat="38.5022690" lon="-0.6369780">
        <ele>976.3</ele>
        <time>2018-03-30T08:19:04Z</time>
      </trkpt>
      <trkpt lat="38.5022770" lon="-0.6369710">
        <ele>976.4</ele>
        <time>2018-03-30T08:19:05Z</time>
      </trkpt>
      <trkpt lat="38.5022840" lon="-0.6369630">
        <ele>976.6</ele>
        <time>2018-03-30T08:19:06Z</time>
      </trkpt>
      <trkpt lat="38.5022930" lon="-0.6369550">
        <ele>976.8</ele>
        <time>2018-03-30T08:19:07Z</time>
      </trkpt>
      <trkpt lat="38.5022990" lon="-0.6369470">
        <ele>977.0</ele>
        <time>2018-03-30T08:19:08Z</time>
      </trkpt>
      <trkpt lat="38.5023070" lon="-0.6369370">
        <ele>977.3</ele>
        <time>2018-03-30T08:19:09Z</time>
      </trkpt>
      <trkpt lat="38.5023160" lon="-0.6369320">
        <ele>977.4</ele>
        <time>2018-03-30T08:19:10Z</time>
      </trkpt>
      <trkpt lat="38.5023250" lon="-0.6369260">
        <ele>977.6</ele>
        <time>2018-03-30T08:19:11Z</time>
      </trkpt>
      <trkpt lat="38.5023330" lon="-0.6369170">
        <ele>977.8</ele>
        <time>2018-03-30T08:19:12Z</time>
      </trkpt>
      <trkpt lat="38.5023400" lon="-0.6369120">
        <ele>978.0</ele>
        <time>2018-03-30T08:19:13Z</time>
      </trkpt>
      <trkpt lat="38.5023450" lon="-0.6369050">
        <ele>978.1</ele>
        <time>2018-03-30T08:19:14Z</time>
      </trkpt>
      <trkpt lat="38.5023520" lon="-0.6368920">
        <ele>978.4</ele>
        <time>2018-03-30T08:19:15Z</time>
      </trkpt>
      <trkpt lat="38.5023590" lon="-0.6368840">
        <ele>978.7</ele>
        <time>2018-03-30T08:19:16Z</time>
      </trkpt>
      <trkpt lat="38.5023640" lon="-0.6368760">
        <ele>978.9</ele>
        <time>2018-03-30T08:19:17Z</time>
      </trkpt>
      <trkpt lat="38.5023700" lon="-0.6368680">
        <ele>979.1</ele>
        <time>2018-03-30T08:19:18Z</time>
      </trkpt>
      <trkpt lat="38.5023730" lon="-0.6368590">
        <ele>979.3</ele>
        <time>2018-03-30T08:19:19Z</time>
      </trkpt>
      <trkpt lat="38.5023780" lon="-0.6368490">
        <ele>979.6</ele>
        <time>2018-03-30T08:19:20Z</time>
      </trkpt>
      <trkpt lat="38.5023840" lon="-0.6368380">
        <ele>979.9</ele>
        <time>2018-03-30T08:19:21Z</time>
      </trkpt>
      <trkpt lat="38.5023900" lon="-0.6368310">
        <ele>980.1</ele>
        <time>2018-03-30T08:19:22Z</time>
      </trkpt>
      <trkpt lat="38.5023950" lon="-0.6368230">
        <ele>980.3</ele>
        <time>2018-03-30T08:19:23Z</time>
      </trkpt>
      <trkpt lat="38.5023990" lon="-0.6368130">
        <ele>980.5</ele>
        <time>2018-03-30T08:19:24Z</time>
      </trkpt>
      <trkpt lat="38.5024040" lon="-0.6368050">
        <ele>980.7</ele>
        <time>2018-03-30T08:19:25Z</time>
      </trkpt>
      <trkpt lat="38.5024090" lon="-0.6367960">
        <ele>980.9</ele>
        <time>2018-03-30T08:19:26Z</time>
      </trkpt>
      <trkpt lat="38.5024120" lon="-0.6367870">
        <ele>981.1</ele>
        <time>2018-03-30T08:19:27Z</time>
      </trkpt>
      <trkpt lat="38.5024160" lon="-0.6367750">
        <ele>981.3</ele>
        <time>2018-03-30T08:19:28Z</time>
      </trkpt>
      <trkpt lat="38.5024170" lon="-0.6367620">
        <ele>981.6</ele>
        <time>2018-03-30T08:19:29Z</time>
      </trkpt>
      <trkpt lat="38.5024210" lon="-0.6367510">
        <ele>981.8</ele>
        <time>2018-03-30T08:19:30Z</time>
      </trkpt>
      <trkpt lat="38.5024250" lon="-0.6367420">
        <ele>981.9</ele>
        <time>2018-03-30T08:19:31Z</time>
      </trkpt>
      <trkpt lat="38.5024310" lon="-0.6367350">
        <ele>982.1</ele>
        <time>2018-03-30T08:19:32Z</time>
      </trkpt>
      <trkpt lat="38.5024370" lon="-0.6367300">
        <ele>982.2</ele>
        <time>2018-03-30T08:19:33Z</time>
      </trkpt>
      <trkpt lat="38.5024440" lon="-0.6367210">
        <ele>982.4</ele>
        <time>2018-03-30T08:19:34Z</time>
      </trkpt>
      <trkpt lat="38.5024500" lon="-0.6367120">
        <ele>982.6</ele>
        <time>2018-03-30T08:19:35Z</time>
      </trkpt>
      <trkpt lat="38.5024540" lon="-0.6367030">
        <ele>983.2</ele>
        <time>2018-03-30T08:19:36Z</time>
      </trkpt>
      <trkpt lat="38.5024600" lon="-0.6366950">
        <ele>983.3</ele>
        <time>2018-03-30T08:19:37Z</time>
      </trkpt>
      <trkpt lat="38.5024650" lon="-0.6366870">
        <ele>983.4</ele>
        <time>2018-03-30T08:19:38Z</time>
      </trkpt>
      <trkpt lat="38.5024730" lon="-0.6366820">
        <ele>983.6</ele>
        <time>2018-03-30T08:19:39Z</time>
      </trkpt>
      <trkpt lat="38.5024820" lon="-0.6366780">
        <ele>983.8</ele>
        <time>2018-03-30T08:19:40Z</time>
      </trkpt>
      <trkpt lat="38.5024880" lon="-0.6366710">
        <ele>983.9</ele>
        <time>2018-03-30T08:19:41Z</time>
      </trkpt>
      <trkpt lat="38.5024910" lon="-0.6366620">
        <ele>984.0</ele>
        <time>2018-03-30T08:19:42Z</time>
      </trkpt>
      <trkpt lat="38.5024950" lon="-0.6366530">
        <ele>984.2</ele>
        <time>2018-03-30T08:19:43Z</time>
      </trkpt>
      <trkpt lat="38.5025010" lon="-0.6366470">
        <ele>984.5</ele>
        <time>2018-03-30T08:19:44Z</time>
      </trkpt>
      <trkpt lat="38.5025080" lon="-0.6366380">
        <ele>984.8</ele>
        <time>2018-03-30T08:19:45Z</time>
      </trkpt>
      <trkpt lat="38.5025120" lon="-0.6366310">
        <ele>985.0</ele>
        <time>2018-03-30T08:19:46Z</time>
      </trkpt>
      <trkpt lat="38.5025180" lon="-0.6366250">
        <ele>985.2</ele>
        <time>2018-03-30T08:19:47Z</time>
      </trkpt>
      <trkpt lat="38.5025230" lon="-0.6366210">
        <ele>985.3</ele>
        <time>2018-03-30T08:19:48Z</time>
      </trkpt>
      <trkpt lat="38.5025270" lon="-0.6366150">
        <ele>985.5</ele>
        <time>2018-03-30T08:19:49Z</time>
      </trkpt>
      <trkpt lat="38.5025320" lon="-0.6366020">
        <ele>985.7</ele>
        <time>2018-03-30T08:19:50Z</time>
      </trkpt>
      <trkpt lat="38.5025340" lon="-0.6365890">
        <ele>986.0</ele>
        <time>2018-03-30T08:19:51Z</time>
      </trkpt>
      <trkpt lat="38.5025370" lon="-0.6365800">
        <ele>986.3</ele>
        <time>2018-03-30T08:19:52Z</time>
      </trkpt>
      <trkpt lat="38.5025410" lon="-0.6365700">
        <ele>986.5</ele>
        <time>2018-03-30T08:19:53Z</time>
      </trkpt>
      <trkpt lat="38.5025460" lon="-0.6365580">
        <ele>986.7</ele>
        <time>2018-03-30T08:19:54Z</time>
      </trkpt>
      <trkpt lat="38.5025500" lon="-0.6365460">
        <ele>987.0</ele>
        <time>2018-03-30T08:19:55Z</time>
      </trkpt>
      <trkpt lat="38.5025520" lon="-0.6365330">
        <ele>987.3</ele>
        <time>2018-03-30T08:19:56Z</time>
      </trkpt>
      <trkpt lat="38.5025580" lon="-0.6365200">
        <ele>987.5</ele>
        <time>2018-03-30T08:19:57Z</time>
      </trkpt>
      <trkpt lat="38.5025630" lon="-0.6365070">
        <ele>987.7</ele>
        <time>2018-03-30T08:19:58Z</time>
      </trkpt>
      <trkpt lat="38.5025640" lon="-0.6364950">
        <ele>987.9</ele>
        <time>2018-03-30T08:19:59Z</time>
      </trkpt>
      <trkpt lat="38.5025660" lon="-0.6364850">
        <ele>988.0</ele>
        <time>2018-03-30T08:20:00Z</time>
      </trkpt>
      <trkpt lat="38.5025680" lon="-0.6364740">
        <ele>988.2</ele>
        <time>2018-03-30T08:20:01Z</time>
      </trkpt>
      <trkpt lat="38.5025720" lon="-0.6364630">
        <ele>988.5</ele>
        <time>2018-03-30T08:20:02Z</time>
      </trkpt>
      <trkpt lat="38.5025730" lon="-0.6364530">
        <ele>988.7</ele>
        <time>2018-03-30T08:20:03Z</time>
      </trkpt>
      <trkpt lat="38.5025750" lon="-0.6364430">
        <ele>988.9</ele>
        <time>2018-03-30T08:20:04Z</time>
      </trkpt>
      <trkpt lat="38.5025760" lon="-0.6364330">
        <ele>989.0</ele>
        <time>2018-03-30T08:20:05Z</time>
      </trkpt>
      <trkpt lat="38.5025760" lon="-0.6364240">
        <ele>989.1</ele>
        <time>2018-03-30T08:20:06Z</time>
      </trkpt>
      <trkpt lat="38.5025780" lon="-0.6364150">
        <ele>989.2</ele>
        <time>2018-03-30T08:20:07Z</time>
      </trkpt>
      <trkpt lat="38.5025800" lon="-0.6364050">
        <ele>989.3</ele>
        <time>2018-03-30T08:20:08Z</time>
      </trkpt>
      <trkpt lat="38.5025820" lon="-0.6363910">
        <ele>989.4</ele>
        <time>2018-03-30T08:20:09Z</time>
      </trkpt>
      <trkpt lat="38.5025840" lon="-0.6363770">
        <ele>989.6</ele>
        <time>2018-03-30T08:20:10Z</time>
      </trkpt>
      <trkpt lat="38.5025860" lon="-0.6363650">
        <ele>989.7</ele>
        <time>2018-03-30T08:20:11Z</time>
      </trkpt>
      <trkpt lat="38.5025900" lon="-0.6363520">
        <ele>989.8</ele>
        <time>2018-03-30T08:20:12Z</time>
      </trkpt>
      <trkpt lat="38.5025930" lon="-0.6363410">
        <ele>989.9</ele>
        <time>2018-03-30T08:20:13Z</time>
      </trkpt>
      <trkpt lat="38.5025970" lon="-0.6363310">
        <ele>990.2</ele>
        <time>2018-03-30T08:20:14Z</time>
      </trkpt>
      <trkpt lat="38.5025990" lon="-0.6363200">
        <ele>990.3</ele>
        <time>2018-03-30T08:20:15Z</time>
      </trkpt>
      <trkpt lat="38.5026030" lon="-0.6363090">
        <ele>990.4</ele>
        <time>2018-03-30T08:20:16Z</time>
      </trkpt>
      <trkpt lat="38.5026060" lon="-0.6362960">
        <ele>990.5</ele>
        <time>2018-03-30T08:20:17Z</time>
      </trkpt>
      <trkpt lat="38.5026090" lon="-0.6362840">
        <ele>990.6</ele>
        <time>2018-03-30T08:20:18Z</time>
      </trkpt>
      <trkpt lat="38.5026080" lon="-0.6362730">
        <ele>990.7</ele>
        <time>2018-03-30T08:20:19Z</time>
      </trkpt>
      <trkpt lat="38.5026090" lon="-0.6362610">
        <ele>990.8</ele>
        <time>2018-03-30T08:20:20Z</time>
      </trkpt>
      <trkpt lat="38.5026090" lon="-0.6362510">
        <ele>990.8</ele>
        <time>2018-03-30T08:20:21Z</time>
      </trkpt>
      <trkpt lat="38.5026100" lon="-0.6362390">
        <ele>990.9</ele>
        <time>2018-03-30T08:20:22Z</time>
      </trkpt>
      <trkpt lat="38.5026100" lon="-0.6362270">
        <ele>991.0</ele>
        <time>2018-03-30T08:20:23Z</time>
      </trkpt>
      <trkpt lat="38.5026100" lon="-0.6362170">
        <ele>991.1</ele>
        <time>2018-03-30T08:20:24Z</time>
      </trkpt>
      <trkpt lat="38.5026130" lon="-0.6362070">
        <ele>991.2</ele>
        <time>2018-03-30T08:20:25Z</time>
      </trkpt>
      <trkpt lat="38.5026160" lon="-0.6361970">
        <ele>991.3</ele>
        <time>2018-03-30T08:20:26Z</time>
      </trkpt>
      <trkpt lat="38.5026190" lon="-0.6361850">
        <ele>991.4</ele>
        <time>2018-03-30T08:20:27Z</time>
      </trkpt>
      <trkpt lat="38.5026210" lon="-0.6361750">
        <ele>991.6</ele>
        <time>2018-03-30T08:20:28Z</time>
      </trkpt>
      <trkpt lat="38.5026270" lon="-0.6361660">
        <ele>991.7</ele>
        <time>2018-03-30T08:20:29Z</time>
      </trkpt>
      <trkpt lat="38.5026300" lon="-0.6361570">
        <ele>991.8</ele>
        <time>2018-03-30T08:20:30Z</time>
      </trkpt>
      <trkpt lat="38.5026340" lon="-0.6361480">
        <ele>991.9</ele>
        <time>2018-03-30T08:20:31Z</time>
      </trkpt>
      <trkpt lat="38.5026320" lon="-0.6361380">
        <ele>992.1</ele>
        <time>2018-03-30T08:20:32Z</time>
      </trkpt>
      <trkpt lat="38.5026360" lon="-0.6361290">
        <ele>992.1</ele>
        <time>2018-03-30T08:20:33Z</time>
      </trkpt>
      <trkpt lat="38.5026380" lon="-0.6361190">
        <ele>992.2</ele>
        <time>2018-03-30T08:20:34Z</time>
      </trkpt>
      <trkpt lat="38.5026430" lon="-0.6361120">
        <ele>992.3</ele>
        <time>2018-03-30T08:20:35Z</time>
      </trkpt>
      <trkpt lat="38.5026470" lon="-0.6361020">
        <ele>992.3</ele>
        <time>2018-03-30T08:20:36Z</time>
      </trkpt>
      <trkpt lat="38.5026510" lon="-0.6360900">
        <ele>992.4</ele>
        <time>2018-03-30T08:20:37Z</time>
      </trkpt>
      <trkpt lat="38.5026530" lon="-0.6360780">
        <ele>992.5</ele>
        <time>2018-03-30T08:20:38Z</time>
      </trkpt>
      <trkpt lat="38.5026540" lon="-0.6360670">
        <ele>992.6</ele>
        <time>2018-03-30T08:20:39Z</time>
      </trkpt>
      <trkpt lat="38.5026450" lon="-0.6360560">
        <ele>992.8</ele>
        <time>2018-03-30T08:20:40Z</time>
      </trkpt>
      <trkpt lat="38.5026350" lon="-0.6360390">
        <ele>992.9</ele>
        <time>2018-03-30T08:20:41Z</time>
      </trkpt>
      <trkpt lat="38.5026310" lon="-0.6360270">
        <ele>993.0</ele>
        <time>2018-03-30T08:20:42Z</time>
      </trkpt>
      <trkpt lat="38.5026230" lon="-0.6360100">
        <ele>993.1</ele>
        <time>2018-03-30T08:20:43Z</time>
      </trkpt>
      <trkpt lat="38.5026120" lon="-0.6359960">
        <ele>993.3</ele>
        <time>2018-03-30T08:20:44Z</time>
      </trkpt>
      <trkpt lat="38.5026010" lon="-0.6359820">
        <ele>993.5</ele>
        <time>2018-03-30T08:20:45Z</time>
      </trkpt>
      <trkpt lat="38.5025920" lon="-0.6359720">
        <ele>993.6</ele>
        <time>2018-03-30T08:20:46Z</time>
      </trkpt>
      <trkpt lat="38.5025820" lon="-0.6359620">
        <ele>993.8</ele>
        <time>2018-03-30T08:20:47Z</time>
      </trkpt>
      <trkpt lat="38.5025730" lon="-0.6359500">
        <ele>993.9</ele>
        <time>2018-03-30T08:20:48Z</time>
      </trkpt>
      <trkpt lat="38.5025620" lon="-0.6359410">
        <ele>994.0</ele>
        <time>2018-03-30T08:20:49Z</time>
      </trkpt>
      <trkpt lat="38.5025510" lon="-0.6359350">
        <ele>994.2</ele>
        <time>2018-03-30T08:20:50Z</time>
      </trkpt>
      <trkpt lat="38.5025400" lon="-0.6359340">
        <ele>994.3</ele>
        <time>2018-03-30T08:20:51Z</time>
      </trkpt>
      <trkpt lat="38.5025260" lon="-0.6359360">
        <ele>994.4</ele>
        <time>2018-03-30T08:20:52Z</time>
      </trkpt>
      <trkpt lat="38.5025130" lon="-0.6359370">
        <ele>994.6</ele>
        <time>2018-03-30T08:20:53Z</time>
      </trkpt>
      <trkpt lat="38.5024970" lon="-0.6359380">
        <ele>994.8</ele>
        <time>2018-03-30T08:20:54Z</time>
      </trkpt>
      <trkpt lat="38.5024820" lon="-0.6359410">
        <ele>995.0</ele>
        <time>2018-03-30T08:20:55Z</time>
      </trkpt>
      <trkpt lat="38.5024680" lon="-0.6359450">
        <ele>995.2</ele>
        <time>2018-03-30T08:20:56Z</time>
      </trkpt>
      <trkpt lat="38.5024540" lon="-0.6359490">
        <ele>995.4</ele>
        <time>2018-03-30T08:20:57Z</time>
      </trkpt>
      <trkpt lat="38.5024400" lon="-0.6359550">
        <ele>995.6</ele>
        <time>2018-03-30T08:20:58Z</time>
      </trkpt>
      <trkpt lat="38.5024280" lon="-0.6359600">
        <ele>995.8</ele>
        <time>2018-03-30T08:20:59Z</time>
      </trkpt>
      <trkpt lat="38.5024170" lon="-0.6359630">
        <ele>995.9</ele>
        <time>2018-03-30T08:21:00Z</time>
      </trkpt>
      <trkpt lat="38.5024030" lon="-0.6359670">
        <ele>996.1</ele>
        <time>2018-03-30T08:21:01Z</time>
      </trkpt>
      <trkpt lat="38.5023910" lon="-0.6359680">
        <ele>996.2</ele>
        <time>2018-03-30T08:21:02Z</time>
      </trkpt>
      <trkpt lat="38.5023790" lon="-0.6359660">
        <ele>996.3</ele>
        <time>2018-03-30T08:21:03Z</time>
      </trkpt>
      <trkpt lat="38.5023680" lon="-0.6359600">
        <ele>996.4</ele>
        <time>2018-03-30T08:21:04Z</time>
      </trkpt>
      <trkpt lat="38.5023580" lon="-0.6359540">
        <ele>996.5</ele>
        <time>2018-03-30T08:21:05Z</time>
      </trkpt>
      <trkpt lat="38.5023490" lon="-0.6359410">
        <ele>996.7</ele>
        <time>2018-03-30T08:21:06Z</time>
      </trkpt>
      <trkpt lat="38.5023440" lon="-0.6359250">
        <ele>996.8</ele>
        <time>2018-03-30T08:21:07Z</time>
      </trkpt>
      <trkpt lat="38.5023400" lon="-0.6359080">
        <ele>997.0</ele>
        <time>2018-03-30T08:21:08Z</time>
      </trkpt>
      <trkpt lat="38.5023390" lon="-0.6358920">
        <ele>997.1</ele>
        <time>2018-03-30T08:21:09Z</time>
      </trkpt>
      <trkpt lat="38.5023410" lon="-0.6358780">
        <ele>997.2</ele>
        <time>2018-03-30T08:21:10Z</time>
      </trkpt>
      <trkpt lat="38.5023480" lon="-0.6358660">
        <ele>997.3</ele>
        <time>2018-03-30T08:21:11Z</time>
      </trkpt>
      <trkpt lat="38.5023550" lon="-0.6358540">
        <ele>997.4</ele>
        <time>2018-03-30T08:21:12Z</time>
      </trkpt>
      <trkpt lat="38.5023630" lon="-0.6358400">
        <ele>997.5</ele>
        <time>2018-03-30T08:21:13Z</time>
      </trkpt>
      <trkpt lat="38.5023730" lon="-0.6358300">
        <ele>997.6</ele>
        <time>2018-03-30T08:21:14Z</time>
      </trkpt>
      <trkpt lat="38.5023840" lon="-0.6358200">
        <ele>997.7</ele>
        <time>2018-03-30T08:21:15Z</time>
      </trkpt>
      <trkpt lat="38.5023950" lon="-0.6358100">
        <ele>997.9</ele>
        <time>2018-03-30T08:21:16Z</time>
      </trkpt>
      <trkpt lat="38.5024060" lon="-0.6358000">
        <ele>998.0</ele>
        <time>2018-03-30T08:21:17Z</time>
      </trkpt>
      <trkpt lat="38.5024170" lon="-0.6357900">
        <ele>998.1</ele>
        <time>2018-03-30T08:21:18Z</time>
      </trkpt>
      <trkpt lat="38.5024270" lon="-0.6357810">
        <ele>998.2</ele>
        <time>2018-03-30T08:21:19Z</time>
      </trkpt>
      <trkpt lat="38.5024390" lon="-0.6357740">
        <ele>998.4</ele>
        <time>2018-03-30T08:21:20Z</time>
      </trkpt>
      <trkpt lat="38.5024540" lon="-0.6357660">
        <ele>998.8</ele>
        <time>2018-03-30T08:21:21Z</time>
      </trkpt>
      <trkpt lat="38.5024670" lon="-0.6357600">
        <ele>999.0</ele>
        <time>2018-03-30T08:21:22Z</time>
      </trkpt>
      <trkpt lat="38.5024810" lon="-0.6357540">
        <ele>999.2</ele>
        <time>2018-03-30T08:21:23Z</time>
      </trkpt>
      <trkpt lat="38.5024930" lon="-0.6357450">
        <ele>999.3</ele>
        <time>2018-03-30T08:21:24Z</time>
      </trkpt>
      <trkpt lat="38.5025060" lon="-0.6357370">
        <ele>999.6</ele>
        <time>2018-03-30T08:21:25Z</time>
      </trkpt>
      <trkpt lat="38.5025220" lon="-0.6357360">
        <ele>999.9</ele>
        <time>2018-03-30T08:21:26Z</time>
      </trkpt>
      <trkpt lat="38.5025320" lon="-0.6357260">
        <ele>1000.1</ele>
        <time>2018-03-30T08:21:27Z</time>
      </trkpt>
      <trkpt lat="38.5025440" lon="-0.6357170">
        <ele>1000.3</ele>
        <time>2018-03-30T08:21:28Z</time>
      </trkpt>
      <trkpt lat="38.5025580" lon="-0.6357080">
        <ele>1000.5</ele>
        <time>2018-03-30T08:21:29Z</time>
      </trkpt>
      <trkpt lat="38.5025690" lon="-0.6356990">
        <ele>1000.6</ele>
        <time>2018-03-30T08:21:30Z</time>
      </trkpt>
      <trkpt lat="38.5025790" lon="-0.6356900">
        <ele>1000.9</ele>
        <time>2018-03-30T08:21:31Z</time>
      </trkpt>
      <trkpt lat="38.5025880" lon="-0.6356830">
        <ele>1001.0</ele>
        <time>2018-03-30T08:21:32Z</time>
      </trkpt>
      <trkpt lat="38.5026010" lon="-0.6356760">
        <ele>1001.3</ele>
        <time>2018-03-30T08:21:33Z</time>
      </trkpt>
      <trkpt lat="38.5026110" lon="-0.6356710">
        <ele>1001.5</ele>
        <time>2018-03-30T08:21:34Z</time>
      </trkpt>
      <trkpt lat="38.5026190" lon="-0.6356650">
        <ele>1001.7</ele>
        <time>2018-03-30T08:21:35Z</time>
      </trkpt>
      <trkpt lat="38.5026340" lon="-0.6356570">
        <ele>1002.0</ele>
        <time>2018-03-30T08:21:36Z</time>
      </trkpt>
      <trkpt lat="38.5026490" lon="-0.6356510">
        <ele>1002.2</ele>
        <time>2018-03-30T08:21:37Z</time>
      </trkpt>
      <trkpt lat="38.5026620" lon="-0.6356450">
        <ele>1002.4</ele>
        <time>2018-03-30T08:21:38Z</time>
      </trkpt>
      <trkpt lat="38.5026730" lon="-0.6356390">
        <ele>1002.5</ele>
        <time>2018-03-30T08:21:39Z</time>
      </trkpt>
      <trkpt lat="38.5026850" lon="-0.6356330">
        <ele>1002.7</ele>
        <time>2018-03-30T08:21:40Z</time>
      </trkpt>
      <trkpt lat="38.5026970" lon="-0.6356270">
        <ele>1003.0</ele>
        <time>2018-03-30T08:21:41Z</time>
      </trkpt>
      <trkpt lat="38.5027090" lon="-0.6356210">
        <ele>1003.2</ele>
        <time>2018-03-30T08:21:42Z</time>
      </trkpt>
      <trkpt lat="38.5027220" lon="-0.6356110">
        <ele>1003.4</ele>
        <time>2018-03-30T08:21:43Z</time>
      </trkpt>
      <trkpt lat="38.5027320" lon="-0.6356030">
        <ele>1003.6</ele>
        <time>2018-03-30T08:21:44Z</time>
      </trkpt>
      <trkpt lat="38.5027440" lon="-0.6355950">
        <ele>1003.7</ele>
        <time>2018-03-30T08:21:45Z</time>
      </trkpt>
      <trkpt lat="38.5027560" lon="-0.6355960">
        <ele>1003.9</ele>
        <time>2018-03-30T08:21:46Z</time>
      </trkpt>
      <trkpt lat="38.5027650" lon="-0.6355980">
        <ele>1003.9</ele>
        <time>2018-03-30T08:21:47Z</time>
      </trkpt>
      <trkpt lat="38.5027760" lon="-0.6356010">
        <ele>1004.0</ele>
        <time>2018-03-30T08:21:48Z</time>
      </trkpt>
      <trkpt lat="38.5027870" lon="-0.6356040">
        <ele>1004.1</ele>
        <time>2018-03-30T08:21:49Z</time>
      </trkpt>
      <trkpt lat="38.5027980" lon="-0.6356120">
        <ele>1004.2</ele>
        <time>2018-03-30T08:21:50Z</time>
      </trkpt>
      <trkpt lat="38.5028080" lon="-0.6356170">
        <ele>1004.3</ele>
        <time>2018-03-30T08:21:51Z</time>
      </trkpt>
      <trkpt lat="38.5028180" lon="-0.6356260">
        <ele>1004.4</ele>
        <time>2018-03-30T08:21:52Z</time>
      </trkpt>
      <trkpt lat="38.5028280" lon="-0.6356320">
        <ele>1004.5</ele>
        <time>2018-03-30T08:21:53Z</time>
      </trkpt>
      <trkpt lat="38.5028430" lon="-0.6356370">
        <ele>1004.7</ele>
        <time>2018-03-30T08:21:54Z</time>
      </trkpt>
      <trkpt lat="38.5028550" lon="-0.6356470">
        <ele>1004.8</ele>
        <time>2018-03-30T08:21:55Z</time>
      </trkpt>
      <trkpt lat="38.5028670" lon="-0.6356540">
        <ele>1004.9</ele>
        <time>2018-03-30T08:21:56Z</time>
      </trkpt>
      <trkpt lat="38.5028730" lon="-0.6356670">
        <ele>1005.0</ele>
        <time>2018-03-30T08:21:57Z</time>
      </trkpt>
      <trkpt lat="38.5028770" lon="-0.6356830">
        <ele>1005.2</ele>
        <time>2018-03-30T08:21:58Z</time>
      </trkpt>
      <trkpt lat="38.5028840" lon="-0.6356980">
        <ele>1005.4</ele>
        <time>2018-03-30T08:21:59Z</time>
      </trkpt>
      <trkpt lat="38.5028870" lon="-0.6357150">
        <ele>1005.5</ele>
        <time>2018-03-30T08:22:00Z</time>
      </trkpt>
      <trkpt lat="38.5028890" lon="-0.6357330">
        <ele>1005.7</ele>
        <time>2018-03-30T08:22:01Z</time>
      </trkpt>
      <trkpt lat="38.5028910" lon="-0.6357500">
        <ele>1005.8</ele>
        <time>2018-03-30T08:22:02Z</time>
      </trkpt>
      <trkpt lat="38.5028930" lon="-0.6357680">
        <ele>1006.0</ele>
        <time>2018-03-30T08:22:03Z</time>
      </trkpt>
      <trkpt lat="38.5028960" lon="-0.6357860">
        <ele>1006.2</ele>
        <time>2018-03-30T08:22:04Z</time>
      </trkpt>
      <trkpt lat="38.5028970" lon="-0.6358030">
        <ele>1006.4</ele>
        <time>2018-03-30T08:22:05Z</time>
      </trkpt>
      <trkpt lat="38.5028990" lon="-0.6358210">
        <ele>1006.6</ele>
        <time>2018-03-30T08:22:06Z</time>
      </trkpt>
      <trkpt lat="38.5029030" lon="-0.6358380">
        <ele>1006.8</ele>
        <time>2018-03-30T08:22:07Z</time>
      </trkpt>
      <trkpt lat="38.5029080" lon="-0.6358550">
        <ele>1006.9</ele>
        <time>2018-03-30T08:22:08Z</time>
      </trkpt>
      <trkpt lat="38.5029120" lon="-0.6358700">
        <ele>1007.1</ele>
        <time>2018-03-30T08:22:09Z</time>
      </trkpt>
      <trkpt lat="38.5029180" lon="-0.6358860">
        <ele>1007.4</ele>
        <time>2018-03-30T08:22:10Z</time>
      </trkpt>
      <trkpt lat="38.5029240" lon="-0.6359030">
        <ele>1007.6</ele>
        <time>2018-03-30T08:22:11Z</time>
      </trkpt>
      <trkpt lat="38.5029280" lon="-0.6359180">
        <ele>1007.8</ele>
        <time>2018-03-30T08:22:12Z</time>
      </trkpt>
      <trkpt lat="38.5029330" lon="-0.6359330">
        <ele>1007.9</ele>
        <time>2018-03-30T08:22:13Z</time>
      </trkpt>
      <trkpt lat="38.5029380" lon="-0.6359470">
        <ele>1008.1</ele>
        <time>2018-03-30T08:22:14Z</time>
      </trkpt>
      <trkpt lat="38.5029430" lon="-0.6359620">
        <ele>1008.4</ele>
        <time>2018-03-30T08:22:15Z</time>
      </trkpt>
      <trkpt lat="38.5029480" lon="-0.6359760">
        <ele>1008.6</ele>
        <time>2018-03-30T08:22:16Z</time>
      </trkpt>
      <trkpt lat="38.5029530" lon="-0.6359910">
        <ele>1008.7</ele>
        <time>2018-03-30T08:22:17Z</time>
      </trkpt>
      <trkpt lat="38.5029630" lon="-0.6360010">
        <ele>1008.9</ele>
        <time>2018-03-30T08:22:18Z</time>
      </trkpt>
      <trkpt lat="38.5029740" lon="-0.6360120">
        <ele>1009.0</ele>
        <time>2018-03-30T08:22:19Z</time>
      </trkpt>
      <trkpt lat="38.5029860" lon="-0.6360220">
        <ele>1009.2</ele>
        <time>2018-03-30T08:22:20Z</time>
      </trkpt>
      <trkpt lat="38.5029960" lon="-0.6360280">
        <ele>1009.3</ele>
        <time>2018-03-30T08:22:21Z</time>
      </trkpt>
      <trkpt lat="38.5030060" lon="-0.6360310">
        <ele>1009.5</ele>
        <time>2018-03-30T08:22:22Z</time>
      </trkpt>
      <trkpt lat="38.5030160" lon="-0.6360340">
        <ele>1009.7</ele>
        <time>2018-03-30T08:22:23Z</time>
      </trkpt>
      <trkpt lat="38.5030240" lon="-0.6360330">
        <ele>1009.8</ele>
        <time>2018-03-30T08:22:24Z</time>
      </trkpt>
      <trkpt lat="38.5030340" lon="-0.6360340">
        <ele>1009.9</ele>
        <time>2018-03-30T08:22:25Z</time>
      </trkpt>
      <trkpt lat="38.5030440" lon="-0.6360340">
        <ele>1010.0</ele>
        <time>2018-03-30T08:22:26Z</time>
      </trkpt>
      <trkpt lat="38.5030540" lon="-0.6360300">
        <ele>1010.2</ele>
        <time>2018-03-30T08:22:27Z</time>
      </trkpt>
      <trkpt lat="38.5030640" lon="-0.6360250">
        <ele>1010.3</ele>
        <time>2018-03-30T08:22:28Z</time>
      </trkpt>
      <trkpt lat="38.5030720" lon="-0.6360140">
        <ele>1010.4</ele>
        <time>2018-03-30T08:22:29Z</time>
      </trkpt>
      <trkpt lat="38.5030760" lon="-0.6360010">
        <ele>1010.5</ele>
        <time>2018-03-30T08:22:30Z</time>
      </trkpt>
      <trkpt lat="38.5030810" lon="-0.6359880">
        <ele>1010.7</ele>
        <time>2018-03-30T08:22:31Z</time>
      </trkpt>
      <trkpt lat="38.5030840" lon="-0.6359740">
        <ele>1010.9</ele>
        <time>2018-03-30T08:22:32Z</time>
      </trkpt>
      <trkpt lat="38.5030860" lon="-0.6359600">
        <ele>1011.1</ele>
        <time>2018-03-30T08:22:33Z</time>
      </trkpt>
      <trkpt lat="38.5030860" lon="-0.6359460">
        <ele>1011.2</ele>
        <time>2018-03-30T08:22:34Z</time>
      </trkpt>
      <trkpt lat="38.5030870" lon="-0.6359320">
        <ele>1011.4</ele>
        <time>2018-03-30T08:22:35Z</time>
      </trkpt>
      <trkpt lat="38.5030870" lon="-0.6359160">
        <ele>1011.6</ele>
        <time>2018-03-30T08:22:36Z</time>
      </trkpt>
      <trkpt lat="38.5030830" lon="-0.6359030">
        <ele>1011.8</ele>
        <time>2018-03-30T08:22:37Z</time>
      </trkpt>
      <trkpt lat="38.5030770" lon="-0.6358880">
        <ele>1012.0</ele>
        <time>2018-03-30T08:22:38Z</time>
      </trkpt>
      <trkpt lat="38.5030730" lon="-0.6358730">
        <ele>1012.2</ele>
        <time>2018-03-30T08:22:39Z</time>
      </trkpt>
      <trkpt lat="38.5030710" lon="-0.6358590">
        <ele>1012.3</ele>
        <time>2018-03-30T08:22:40Z</time>
      </trkpt>
      <trkpt lat="38.5030680" lon="-0.6358440">
        <ele>1012.5</ele>
        <time>2018-03-30T08:22:41Z</time>
      </trkpt>
      <trkpt lat="38.5030650" lon="-0.6358290">
        <ele>1012.7</ele>
        <time>2018-03-30T08:22:42Z</time>
      </trkpt>
      <trkpt lat="38.5030620" lon="-0.6358140">
        <ele>1012.9</ele>
        <time>2018-03-30T08:22:43Z</time>
      </trkpt>
      <trkpt lat="38.5030590" lon="-0.6357980">
        <ele>1013.0</ele>
        <time>2018-03-30T08:22:44Z</time>
      </trkpt>
      <trkpt lat="38.5030560" lon="-0.6357830">
        <ele>1013.1</ele>
        <time>2018-03-30T08:22:45Z</time>
      </trkpt>
      <trkpt lat="38.5030520" lon="-0.6357690">
        <ele>1013.2</ele>
        <time>2018-03-30T08:22:46Z</time>
      </trkpt>
      <trkpt lat="38.5030510" lon="-0.6357540">
        <ele>1013.4</ele>
        <time>2018-03-30T08:22:47Z</time>
      </trkpt>
      <trkpt lat="38.5030500" lon="-0.6357380">
        <ele>1013.5</ele>
        <time>2018-03-30T08:22:48Z</time>
      </trkpt>
      <trkpt lat="38.5030460" lon="-0.6357240">
        <ele>1013.7</ele>
        <time>2018-03-30T08:22:49Z</time>
      </trkpt>
      <trkpt lat="38.5030440" lon="-0.6357080">
        <ele>1013.7</ele>
        <time>2018-03-30T08:22:50Z</time>
      </trkpt>
      <trkpt lat="38.5030410" lon="-0.6356910">
        <ele>1013.8</ele>
        <time>2018-03-30T08:22:51Z</time>
      </trkpt>
      <trkpt lat="38.5030370" lon="-0.6356730">
        <ele>1013.9</ele>
        <time>2018-03-30T08:22:52Z</time>
      </trkpt>
      <trkpt lat="38.5030370" lon="-0.6356550">
        <ele>1014.0</ele>
        <time>2018-03-30T08:22:53Z</time>
      </trkpt>
      <trkpt lat="38.5030370" lon="-0.6356370">
        <ele>1014.1</ele>
        <time>2018-03-30T08:22:54Z</time>
      </trkpt>
      <trkpt lat="38.5030380" lon="-0.6356190">
        <ele>1014.2</ele>
        <time>2018-03-30T08:22:55Z</time>
      </trkpt>
      <trkpt lat="38.5030400" lon="-0.6356000">
        <ele>1014.3</ele>
        <time>2018-03-30T08:22:56Z</time>
      </trkpt>
      <trkpt lat="38.5030450" lon="-0.6355820">
        <ele>1014.5</ele>
        <time>2018-03-30T08:22:57Z</time>
      </trkpt>
      <trkpt lat="38.5030500" lon="-0.6355640">
        <ele>1014.6</ele>
        <time>2018-03-30T08:22:58Z</time>
      </trkpt>
      <trkpt lat="38.5030520" lon="-0.6355470">
        <ele>1014.8</ele>
        <time>2018-03-30T08:22:59Z</time>
      </trkpt>
      <trkpt lat="38.5030550" lon="-0.6355290">
        <ele>1014.9</ele>
        <time>2018-03-30T08:23:00Z</time>
      </trkpt>
      <trkpt lat="38.5030580" lon="-0.6355120">
        <ele>1015.0</ele>
        <time>2018-03-30T08:23:01Z</time>
      </trkpt>
      <trkpt lat="38.5030650" lon="-0.6354950">
        <ele>1015.2</ele>
        <time>2018-03-30T08:23:02Z</time>
      </trkpt>
      <trkpt lat="38.5030680" lon="-0.6354780">
        <ele>1015.4</ele>
        <time>2018-03-30T08:23:03Z</time>
      </trkpt>
      <trkpt lat="38.5030710" lon="-0.6354600">
        <ele>1015.7</ele>
        <time>2018-03-30T08:23:04Z</time>
      </trkpt>
      <trkpt lat="38.5030730" lon="-0.6354430">
        <ele>1015.8</ele>
        <time>2018-03-30T08:23:05Z</time>
      </trkpt>
      <trkpt lat="38.5030730" lon="-0.6354260">
        <ele>1016.0</ele>
        <time>2018-03-30T08:23:06Z</time>
      </trkpt>
      <trkpt lat="38.5030790" lon="-0.6354120">
        <ele>1016.1</ele>
        <time>2018-03-30T08:23:07Z</time>
      </trkpt>
      <trkpt lat="38.5030850" lon="-0.6353980">
        <ele>1016.2</ele>
        <time>2018-03-30T08:23:08Z</time>
      </trkpt>
      <trkpt lat="38.5030890" lon="-0.6353820">
        <ele>1016.5</ele>
        <time>2018-03-30T08:23:09Z</time>
      </trkpt>
      <trkpt lat="38.5030890" lon="-0.6353640">
        <ele>1016.7</ele>
        <time>2018-03-30T08:23:10Z</time>
      </trkpt>
      <trkpt lat="38.5030880" lon="-0.6353470">
        <ele>1016.8</ele>
        <time>2018-03-30T08:23:11Z</time>
      </trkpt>
      <trkpt lat="38.5030860" lon="-0.6353310">
        <ele>1017.0</ele>
        <time>2018-03-30T08:23:12Z</time>
      </trkpt>
      <trkpt lat="38.5030840" lon="-0.6353160">
        <ele>1017.2</ele>
        <time>2018-03-30T08:23:13Z</time>
      </trkpt>
      <trkpt lat="38.5030840" lon="-0.6352990">
        <ele>1017.4</ele>
        <time>2018-03-30T08:23:14Z</time>
      </trkpt>
      <trkpt lat="38.5030840" lon="-0.6352840">
        <ele>1017.6</ele>
        <time>2018-03-30T08:23:15Z</time>
      </trkpt>
      <trkpt lat="38.5030850" lon="-0.6352700">
        <ele>1017.9</ele>
        <time>2018-03-30T08:23:16Z</time>
      </trkpt>
      <trkpt lat="38.5030860" lon="-0.6352540">
        <ele>1018.0</ele>
        <time>2018-03-30T08:23:17Z</time>
      </trkpt>
      <trkpt lat="38.5030860" lon="-0.6352380">
        <ele>1018.2</ele>
        <time>2018-03-30T08:23:18Z</time>
      </trkpt>
      <trkpt lat="38.5030840" lon="-0.6352220">
        <ele>1018.3</ele>
        <time>2018-03-30T08:23:19Z</time>
      </trkpt>
      <trkpt lat="38.5030820" lon="-0.6352070">
        <ele>1018.6</ele>
        <time>2018-03-30T08:23:20Z</time>
      </trkpt>
      <trkpt lat="38.5030800" lon="-0.6351940">
        <ele>1018.6</ele>
        <time>2018-03-30T08:23:21Z</time>
      </trkpt>
      <trkpt lat="38.5030800" lon="-0.6351810">
        <ele>1018.7</ele>
        <time>2018-03-30T08:23:22Z</time>
      </trkpt>
      <trkpt lat="38.5030720" lon="-0.6351690">
        <ele>1018.8</ele>
        <time>2018-03-30T08:23:23Z</time>
      </trkpt>
      <trkpt lat="38.5030650" lon="-0.6351550">
        <ele>1018.9</ele>
        <time>2018-03-30T08:23:24Z</time>
      </trkpt>
      <trkpt lat="38.5030570" lon="-0.6351440">
        <ele>1019.0</ele>
        <time>2018-03-30T08:23:25Z</time>
      </trkpt>
      <trkpt lat="38.5030440" lon="-0.6351320">
        <ele>1019.2</ele>
        <time>2018-03-30T08:23:26Z</time>
      </trkpt>
      <trkpt lat="38.5030360" lon="-0.6351210">
        <ele>1019.4</ele>
        <time>2018-03-30T08:23:27Z</time>
      </trkpt>
      <trkpt lat="38.5030250" lon="-0.6351080">
        <ele>1019.5</ele>
        <time>2018-03-30T08:23:28Z</time>
      </trkpt>
      <trkpt lat="38.5030160" lon="-0.6350980">
        <ele>1019.6</ele>
        <time>2018-03-30T08:23:29Z</time>
      </trkpt>
      <trkpt lat="38.5030060" lon="-0.6350870">
        <ele>1019.8</ele>
        <time>2018-03-30T08:23:30Z</time>
      </trkpt>
      <trkpt lat="38.5029960" lon="-0.6350760">
        <ele>1019.9</ele>
        <time>2018-03-30T08:23:31Z</time>
      </trkpt>
      <trkpt lat="38.5029860" lon="-0.6350680">
        <ele>1020.0</ele>
        <time>2018-03-30T08:23:32Z</time>
      </trkpt>
      <trkpt lat="38.5029750" lon="-0.6350590">
        <ele>1020.1</ele>
        <time>2018-03-30T08:23:33Z</time>
      </trkpt>
      <trkpt lat="38.5029630" lon="-0.6350520">
        <ele>1020.2</ele>
        <time>2018-03-30T08:23:34Z</time>
      </trkpt>
      <trkpt lat="38.5029530" lon="-0.6350420">
        <ele>1020.3</ele>
        <time>2018-03-30T08:23:35Z</time>
      </trkpt>
      <trkpt lat="38.5029410" lon="-0.6350350">
        <ele>1020.5</ele>
        <time>2018-03-30T08:23:36Z</time>
      </trkpt>
      <trkpt lat="38.5029290" lon="-0.6350280">
        <ele>1020.6</ele>
        <time>2018-03-30T08:23:37Z</time>
      </trkpt>
      <trkpt lat="38.5029170" lon="-0.6350220">
        <ele>1020.8</ele>
        <time>2018-03-30T08:23:38Z</time>
      </trkpt>
      <trkpt lat="38.5029050" lon="-0.6350150">
        <ele>1021.0</ele>
        <time>2018-03-30T08:23:39Z</time>
      </trkpt>
      <trkpt lat="38.5028920" lon="-0.6350110">
        <ele>1021.1</ele>
        <time>2018-03-30T08:23:40Z</time>
      </trkpt>
      <trkpt lat="38.5028790" lon="-0.6350090">
        <ele>1021.2</ele>
        <time>2018-03-30T08:23:41Z</time>
      </trkpt>
      <trkpt lat="38.5028660" lon="-0.6350120">
        <ele>1021.3</ele>
        <time>2018-03-30T08:23:42Z</time>
      </trkpt>
      <trkpt lat="38.5028540" lon="-0.6350150">
        <ele>1021.4</ele>
        <time>2018-03-30T08:23:43Z</time>
      </trkpt>
      <trkpt lat="38.5028410" lon="-0.6350180">
        <ele>1021.6</ele>
        <time>2018-03-30T08:23:44Z</time>
      </trkpt>
      <trkpt lat="38.5028310" lon="-0.6350190">
        <ele>1021.7</ele>
        <time>2018-03-30T08:23:45Z</time>
      </trkpt>
      <trkpt lat="38.5028180" lon="-0.6350190">
        <ele>1021.8</ele>
        <time>2018-03-30T08:23:46Z</time>
      </trkpt>
      <trkpt lat="38.5028080" lon="-0.6350200">
        <ele>1021.9</ele>
        <time>2018-03-30T08:23:47Z</time>
      </trkpt>
      <trkpt lat="38.5027940" lon="-0.6350210">
        <ele>1022.1</ele>
        <time>2018-03-30T08:23:48Z</time>
      </trkpt>
      <trkpt lat="38.5027810" lon="-0.6350240">
        <ele>1022.3</ele>
        <time>2018-03-30T08:23:49Z</time>
      </trkpt>
      <trkpt lat="38.5027670" lon="-0.6350280">
        <ele>1022.4</ele>
        <time>2018-03-30T08:23:50Z</time>
      </trkpt>
      <trkpt lat="38.5027560" lon="-0.6350340">
        <ele>1022.5</ele>
        <time>2018-03-30T08:23:51Z</time>
      </trkpt>
      <trkpt lat="38.5027450" lon="-0.6350420">
        <ele>1022.6</ele>
        <time>2018-03-30T08:23:52Z</time>
      </trkpt>
      <trkpt lat="38.5027360" lon="-0.6350520">
        <ele>1022.7</ele>
        <time>2018-03-30T08:23:53Z</time>
      </trkpt>
      <trkpt lat="38.5027230" lon="-0.6350600">
        <ele>1022.9</ele>
        <time>2018-03-30T08:23:54Z</time>
      </trkpt>
      <trkpt lat="38.5027120" lon="-0.6350610">
        <ele>1022.9</ele>
        <time>2018-03-30T08:23:55Z</time>
      </trkpt>
      <trkpt lat="38.5027000" lon="-0.6350640">
        <ele>1023.0</ele>
        <time>2018-03-30T08:23:56Z</time>
      </trkpt>
      <trkpt lat="38.5026890" lon="-0.6350670">
        <ele>1023.1</ele>
        <time>2018-03-30T08:23:57Z</time>
      </trkpt>
      <trkpt lat="38.5026780" lon="-0.6350690">
        <ele>1023.2</ele>
        <time>2018-03-30T08:23:58Z</time>
      </trkpt>
      <trkpt lat="38.5026680" lon="-0.6350720">
        <ele>1023.3</ele>
        <time>2018-03-30T08:23:59Z</time>
      </trkpt>
      <trkpt lat="38.5026570" lon="-0.6350750">
        <ele>1023.4</ele>
        <time>2018-03-30T08:24:00Z</time>
      </trkpt>
      <trkpt lat="38.5026460" lon="-0.6350800">
        <ele>1023.4</ele>
        <time>2018-03-30T08:24:01Z</time>
      </trkpt>
      <trkpt lat="38.5026340" lon="-0.6350880">
        <ele>1023.6</ele>
        <time>2018-03-30T08:24:02Z</time>
      </trkpt>
      <trkpt lat="38.5026200" lon="-0.6350930">
        <ele>1023.9</ele>
        <time>2018-03-30T08:24:03Z</time>
      </trkpt>
      <trkpt lat="38.5026100" lon="-0.6350970">
        <ele>1024.1</ele>
        <time>2018-03-30T08:24:04Z</time>
      </trkpt>
      <trkpt lat="38.5026000" lon="-0.6351040">
        <ele>1024.3</ele>
        <time>2018-03-30T08:24:05Z</time>
      </trkpt>
      <trkpt lat="38.5025890" lon="-0.6351040">
        <ele>1024.4</ele>
        <time>2018-03-30T08:24:06Z</time>
      </trkpt>
      <trkpt lat="38.5025790" lon="-0.6351030">
        <ele>1024.5</ele>
        <time>2018-03-30T08:24:07Z</time>
      </trkpt>
      <trkpt lat="38.5025790" lon="-0.6350950">
        <ele>1024.6</ele>
        <time>2018-03-30T08:24:08Z</time>
      </trkpt>
      <trkpt lat="38.5025810" lon="-0.6350810">
        <ele>1024.7</ele>
        <time>2018-03-30T08:24:09Z</time>
      </trkpt>
      <trkpt lat="38.5025850" lon="-0.6350670">
        <ele>1025.0</ele>
        <time>2018-03-30T08:24:10Z</time>
      </trkpt>
      <trkpt lat="38.5025930" lon="-0.6350560">
        <ele>1025.2</ele>
        <time>2018-03-30T08:24:11Z</time>
      </trkpt>
      <trkpt lat="38.5026030" lon="-0.6350470">
        <ele>1025.4</ele>
        <time>2018-03-30T08:24:12Z</time>
      </trkpt>
      <trkpt lat="38.5026120" lon="-0.6350370">
        <ele>1025.6</ele>
        <time>2018-03-30T08:24:13Z</time>
      </trkpt>
      <trkpt lat="38.5026230" lon="-0.6350290">
        <ele>1025.8</ele>
        <time>2018-03-30T08:24:14Z</time>
      </trkpt>
      <trkpt lat="38.5026310" lon="-0.6350190">
        <ele>1026.0</ele>
        <time>2018-03-30T08:24:15Z</time>
      </trkpt>
      <trkpt lat="38.5026400" lon="-0.6350120">
        <ele>1026.2</ele>
        <time>2018-03-30T08:24:16Z</time>
      </trkpt>
      <trkpt lat="38.5026510" lon="-0.6350080">
        <ele>1026.3</ele>
        <time>2018-03-30T08:24:17Z</time>
      </trkpt>
      <trkpt lat="38.5026630" lon="-0.6350010">
        <ele>1026.5</ele>
        <time>2018-03-30T08:24:18Z</time>
      </trkpt>
      <trkpt lat="38.5026750" lon="-0.6349960">
        <ele>1026.7</ele>
        <time>2018-03-30T08:24:19Z</time>
      </trkpt>
      <trkpt lat="38.5026850" lon="-0.6349880">
        <ele>1026.8</ele>
        <time>2018-03-30T08:24:20Z</time>
      </trkpt>
      <trkpt lat="38.5026940" lon="-0.6349770">
        <ele>1027.0</ele>
        <time>2018-03-30T08:24:21Z</time>
      </trkpt>
      <trkpt lat="38.5027030" lon="-0.6349650">
        <ele>1027.1</ele>
        <time>2018-03-30T08:24:22Z</time>
      </trkpt>
      <trkpt lat="38.5027170" lon="-0.6349580">
        <ele>1027.3</ele>
        <time>2018-03-30T08:24:23Z</time>
      </trkpt>
      <trkpt lat="38.5027260" lon="-0.6349450">
        <ele>1027.5</ele>
        <time>2018-03-30T08:24:24Z</time>
      </trkpt>
      <trkpt lat="38.5027340" lon="-0.6349350">
        <ele>1027.7</ele>
        <time>2018-03-30T08:24:25Z</time>
      </trkpt>
      <trkpt lat="38.5027420" lon="-0.6349260">
        <ele>1027.9</ele>
        <time>2018-03-30T08:24:26Z</time>
      </trkpt>
      <trkpt lat="38.5027500" lon="-0.6349150">
        <ele>1028.0</ele>
        <time>2018-03-30T08:24:27Z</time>
      </trkpt>
      <trkpt lat="38.5027580" lon="-0.6349030">
        <ele>1028.2</ele>
        <time>2018-03-30T08:24:28Z</time>
      </trkpt>
      <trkpt lat="38.5027660" lon="-0.6348880">
        <ele>1028.3</ele>
        <time>2018-03-30T08:24:29Z</time>
      </trkpt>
      <trkpt lat="38.5027720" lon="-0.6348760">
        <ele>1028.4</ele>
        <time>2018-03-30T08:24:30Z</time>
      </trkpt>
      <trkpt lat="38.5027790" lon="-0.6348610">
        <ele>1028.5</ele>
        <time>2018-03-30T08:24:31Z</time>
      </trkpt>
      <trkpt lat="38.5027860" lon="-0.6348460">
        <ele>1028.7</ele>
        <time>2018-03-30T08:24:32Z</time>
      </trkpt>
      <trkpt lat="38.5027960" lon="-0.6348330">
        <ele>1028.9</ele>
        <time>2018-03-30T08:24:33Z</time>
      </trkpt>
      <trkpt lat="38.5028050" lon="-0.6348210">
        <ele>1029.0</ele>
        <time>2018-03-30T08:24:34Z</time>
      </trkpt>
      <trkpt lat="38.5028140" lon="-0.6348110">
        <ele>1029.2</ele>
        <time>2018-03-30T08:24:35Z</time>
      </trkpt>
      <trkpt lat="38.5028220" lon="-0.6348010">
        <ele>1029.4</ele>
        <time>2018-03-30T08:24:36Z</time>
      </trkpt>
      <trkpt lat="38.5028300" lon="-0.6347890">
        <ele>1029.6</ele>
        <time>2018-03-30T08:24:37Z</time>
      </trkpt>
      <trkpt lat="38.5028370" lon="-0.6347790">
        <ele>1029.7</ele>
        <time>2018-03-30T08:24:38Z</time>
      </trkpt>
      <trkpt lat="38.5028440" lon="-0.6347670">
        <ele>1030.0</ele>
        <time>2018-03-30T08:24:39Z</time>
      </trkpt>
      <trkpt lat="38.5028530" lon="-0.6347590">
        <ele>1030.2</ele>
        <time>2018-03-30T08:24:40Z</time>
      </trkpt>
      <trkpt lat="38.5028630" lon="-0.6347550">
        <ele>1030.4</ele>
        <time>2018-03-30T08:24:41Z</time>
      </trkpt>
      <trkpt lat="38.5028730" lon="-0.6347520">
        <ele>1030.5</ele>
        <time>2018-03-30T08:24:42Z</time>
      </trkpt>
      <trkpt lat="38.5028840" lon="-0.6347480">
        <ele>1030.7</ele>
        <time>2018-03-30T08:24:43Z</time>
      </trkpt>
      <trkpt lat="38.5028940" lon="-0.6347500">
        <ele>1030.8</ele>
        <time>2018-03-30T08:24:44Z</time>
      </trkpt>
      <trkpt lat="38.5029040" lon="-0.6347490">
        <ele>1030.9</ele>
        <time>2018-03-30T08:24:45Z</time>
      </trkpt>
      <trkpt lat="38.5029150" lon="-0.6347510">
        <ele>1031.0</ele>
        <time>2018-03-30T08:24:46Z</time>
      </trkpt>
      <trkpt lat="38.5029260" lon="-0.6347470">
        <ele>1031.1</ele>
        <time>2018-03-30T08:24:47Z</time>
      </trkpt>
      <trkpt lat="38.5029350" lon="-0.6347450">
        <ele>1031.2</ele>
        <time>2018-03-30T08:24:48Z</time>
      </trkpt>
      <trkpt lat="38.5029460" lon="-0.6347420">
        <ele>1031.4</ele>
        <time>2018-03-30T08:24:49Z</time>
      </trkpt>
      <trkpt lat="38.5029550" lon="-0.6347420">
        <ele>1031.5</ele>
        <time>2018-03-30T08:24:50Z</time>
      </trkpt>
      <trkpt lat="38.5029680" lon="-0.6347450">
        <ele>1031.7</ele>
        <time>2018-03-30T08:24:51Z</time>
      </trkpt>
      <trkpt lat="38.5029800" lon="-0.6347460">
        <ele>1031.9</ele>
        <time>2018-03-30T08:24:52Z</time>
      </trkpt>
      <trkpt lat="38.5029920" lon="-0.6347480">
        <ele>1032.1</ele>
        <time>2018-03-30T08:24:53Z</time>
      </trkpt>
      <trkpt lat="38.5030030" lon="-0.6347510">
        <ele>1032.2</ele>
        <time>2018-03-30T08:24:54Z</time>
      </trkpt>
      <trkpt lat="38.5030150" lon="-0.6347530">
        <ele>1032.3</ele>
        <time>2018-03-30T08:24:55Z</time>
      </trkpt>
      <trkpt lat="38.5030260" lon="-0.6347550">
        <ele>1032.5</ele>
        <time>2018-03-30T08:24:56Z</time>
      </trkpt>
      <trkpt lat="38.5030370" lon="-0.6347570">
        <ele>1032.6</ele>
        <time>2018-03-30T08:24:57Z</time>
      </trkpt>
      <trkpt lat="38.5030480" lon="-0.6347580">
        <ele>1032.8</ele>
        <time>2018-03-30T08:24:58Z</time>
      </trkpt>
      <trkpt lat="38.5030600" lon="-0.6347580">
        <ele>1033.0</ele>
        <time>2018-03-30T08:24:59Z</time>
      </trkpt>
      <trkpt lat="38.5030710" lon="-0.6347600">
        <ele>1033.2</ele>
        <time>2018-03-30T08:25:00Z</time>
      </trkpt>
      <trkpt lat="38.5030810" lon="-0.6347580">
        <ele>1033.3</ele>
        <time>2018-03-30T08:25:01Z</time>
      </trkpt>
      <trkpt lat="38.5030900" lon="-0.6347590">
        <ele>1033.5</ele>
        <time>2018-03-30T08:25:02Z</time>
      </trkpt>
      <trkpt lat="38.5030980" lon="-0.6347600">
        <ele>1033.6</ele>
        <time>2018-03-30T08:25:03Z</time>
      </trkpt>
      <trkpt lat="38.5031100" lon="-0.6347640">
        <ele>1033.9</ele>
        <time>2018-03-30T08:25:04Z</time>
      </trkpt>
      <trkpt lat="38.5031190" lon="-0.6347660">
        <ele>1034.0</ele>
        <time>2018-03-30T08:25:05Z</time>
      </trkpt>
      <trkpt lat="38.5031290" lon="-0.6347630">
        <ele>1034.2</ele>
        <time>2018-03-30T08:25:06Z</time>
      </trkpt>
      <trkpt lat="38.5031400" lon="-0.6347650">
        <ele>1034.4</ele>
        <time>2018-03-30T08:25:07Z</time>
      </trkpt>
      <trkpt lat="38.5031500" lon="-0.6347670">
        <ele>1034.5</ele>
        <time>2018-03-30T08:25:08Z</time>
      </trkpt>
      <trkpt lat="38.5031600" lon="-0.6347680">
        <ele>1034.6</ele>
        <time>2018-03-30T08:25:09Z</time>
      </trkpt>
      <trkpt lat="38.5031700" lon="-0.6347740">
        <ele>1034.7</ele>
        <time>2018-03-30T08:25:10Z</time>
      </trkpt>
      <trkpt lat="38.5031800" lon="-0.6347750">
        <ele>1034.9</ele>
        <time>2018-03-30T08:25:11Z</time>
      </trkpt>
      <trkpt lat="38.5031900" lon="-0.6347760">
        <ele>1035.0</ele>
        <time>2018-03-30T08:25:12Z</time>
      </trkpt>
      <trkpt lat="38.5032010" lon="-0.6347770">
        <ele>1035.2</ele>
        <time>2018-03-30T08:25:13Z</time>
      </trkpt>
      <trkpt lat="38.5032110" lon="-0.6347780">
        <ele>1035.4</ele>
        <time>2018-03-30T08:25:14Z</time>
      </trkpt>
      <trkpt lat="38.5032210" lon="-0.6347810">
        <ele>1035.7</ele>
        <time>2018-03-30T08:25:15Z</time>
      </trkpt>
      <trkpt lat="38.5032310" lon="-0.6347820">
        <ele>1035.9</ele>
        <time>2018-03-30T08:25:16Z</time>
      </trkpt>
      <trkpt lat="38.5032400" lon="-0.6347830">
        <ele>1036.1</ele>
        <time>2018-03-30T08:25:17Z</time>
      </trkpt>
      <trkpt lat="38.5032480" lon="-0.6347860">
        <ele>1036.2</ele>
        <time>2018-03-30T08:25:18Z</time>
      </trkpt>
      <trkpt lat="38.5032550" lon="-0.6347920">
        <ele>1036.3</ele>
        <time>2018-03-30T08:25:19Z</time>
      </trkpt>
      <trkpt lat="38.5032620" lon="-0.6347980">
        <ele>1036.5</ele>
        <time>2018-03-30T08:25:20Z</time>
      </trkpt>
      <trkpt lat="38.5032700" lon="-0.6348060">
        <ele>1036.6</ele>
        <time>2018-03-30T08:25:21Z</time>
      </trkpt>
      <trkpt lat="38.5032770" lon="-0.6348120">
        <ele>1036.7</ele>
        <time>2018-03-30T08:25:22Z</time>
      </trkpt>
      <trkpt lat="38.5032850" lon="-0.6348130">
        <ele>1036.8</ele>
        <time>2018-03-30T08:25:23Z</time>
      </trkpt>
      <trkpt lat="38.5032950" lon="-0.6348130">
        <ele>1036.9</ele>
        <time>2018-03-30T08:25:24Z</time>
      </trkpt>
      <trkpt lat="38.5033040" lon="-0.6348170">
        <ele>1037.1</ele>
        <time>2018-03-30T08:25:25Z</time>
      </trkpt>
      <trkpt lat="38.5033130" lon="-0.6348190">
        <ele>1037.2</ele>
        <time>2018-03-30T08:25:26Z</time>
      </trkpt>
      <trkpt lat="38.5033210" lon="-0.6348250">
        <ele>1037.4</ele>
        <time>2018-03-30T08:25:27Z</time>
      </trkpt>
      <trkpt lat="38.5033290" lon="-0.6348320">
        <ele>1037.7</ele>
        <time>2018-03-30T08:25:28Z</time>
      </trkpt>
      <trkpt lat="38.5033360" lon="-0.6348400">
        <ele>1037.8</ele>
        <time>2018-03-30T08:25:29Z</time>
      </trkpt>
      <trkpt lat="38.5033440" lon="-0.6348450">
        <ele>1038.0</ele>
        <time>2018-03-30T08:25:30Z</time>
      </trkpt>
      <trkpt lat="38.5033500" lon="-0.6348520">
        <ele>1038.1</ele>
        <time>2018-03-30T08:25:31Z</time>
      </trkpt>
      <trkpt lat="38.5033560" lon="-0.6348570">
        <ele>1038.2</ele>
        <time>2018-03-30T08:25:32Z</time>
      </trkpt>
      <trkpt lat="38.5033630" lon="-0.6348630">
        <ele>1038.4</ele>
        <time>2018-03-30T08:25:33Z</time>
      </trkpt>
      <trkpt lat="38.5033710" lon="-0.6348720">
        <ele>1038.5</ele>
        <time>2018-03-30T08:25:34Z</time>
      </trkpt>
      <trkpt lat="38.5033760" lon="-0.6348810">
        <ele>1038.7</ele>
        <time>2018-03-30T08:25:35Z</time>
      </trkpt>
      <trkpt lat="38.5033800" lon="-0.6348890">
        <ele>1038.8</ele>
        <time>2018-03-30T08:25:36Z</time>
      </trkpt>
      <trkpt lat="38.5033830" lon="-0.6349000">
        <ele>1039.0</ele>
        <time>2018-03-30T08:25:37Z</time>
      </trkpt>
      <trkpt lat="38.5033900" lon="-0.6349100">
        <ele>1039.3</ele>
        <time>2018-03-30T08:25:38Z</time>
      </trkpt>
      <trkpt lat="38.5033940" lon="-0.6349210">
        <ele>1039.5</ele>
        <time>2018-03-30T08:25:39Z</time>
      </trkpt>
      <trkpt lat="38.5034000" lon="-0.6349310">
        <ele>1039.8</ele>
        <time>2018-03-30T08:25:40Z</time>
      </trkpt>
      <trkpt lat="38.5034060" lon="-0.6349410">
        <ele>1040.1</ele>
        <time>2018-03-30T08:25:41Z</time>
      </trkpt>
      <trkpt lat="38.5034110" lon="-0.6349520">
        <ele>1040.3</ele>
        <time>2018-03-30T08:25:42Z</time>
      </trkpt>
      <trkpt lat="38.5034150" lon="-0.6349630">
        <ele>1040.5</ele>
        <time>2018-03-30T08:25:43Z</time>
      </trkpt>
      <trkpt lat="38.5034180" lon="-0.6349750">
        <ele>1040.7</ele>
        <time>2018-03-30T08:25:44Z</time>
      </trkpt>
      <trkpt lat="38.5034210" lon="-0.6349870">
        <ele>1040.8</ele>
        <time>2018-03-30T08:25:45Z</time>
      </trkpt>
      <trkpt lat="38.5034230" lon="-0.6349990">
        <ele>1040.9</ele>
        <time>2018-03-30T08:25:46Z</time>
      </trkpt>
      <trkpt lat="38.5034220" lon="-0.6350110">
        <ele>1041.0</ele>
        <time>2018-03-30T08:25:47Z</time>
      </trkpt>
      <trkpt lat="38.5034240" lon="-0.6350240">
        <ele>1041.1</ele>
        <time>2018-03-30T08:25:48Z</time>
      </trkpt>
      <trkpt lat="38.5034290" lon="-0.6350350">
        <ele>1041.3</ele>
        <time>2018-03-30T08:25:49Z</time>
      </trkpt>
      <trkpt lat="38.5034340" lon="-0.6350460">
        <ele>1041.4</ele>
        <time>2018-03-30T08:25:50Z</time>
      </trkpt>
      <trkpt lat="38.5034400" lon="-0.6350560">
        <ele>1041.5</ele>
        <time>2018-03-30T08:25:51Z</time>
      </trkpt>
      <trkpt lat="38.5034460" lon="-0.6350640">
        <ele>1041.6</ele>
        <time>2018-03-30T08:25:52Z</time>
      </trkpt>
      <trkpt lat="38.5034540" lon="-0.6350740">
        <ele>1041.7</ele>
        <time>2018-03-30T08:25:53Z</time>
      </trkpt>
      <trkpt lat="38.5034620" lon="-0.6350850">
        <ele>1041.9</ele>
        <time>2018-03-30T08:25:54Z</time>
      </trkpt>
      <trkpt lat="38.5034670" lon="-0.6350980">
        <ele>1042.0</ele>
        <time>2018-03-30T08:25:55Z</time>
      </trkpt>
      <trkpt lat="38.5034690" lon="-0.6351100">
        <ele>1042.1</ele>
        <time>2018-03-30T08:25:56Z</time>
      </trkpt>
      <trkpt lat="38.5034710" lon="-0.6351220">
        <ele>1042.2</ele>
        <time>2018-03-30T08:25:57Z</time>
      </trkpt>
      <trkpt lat="38.5034760" lon="-0.6351340">
        <ele>1042.4</ele>
        <time>2018-03-30T08:25:58Z</time>
      </trkpt>
      <trkpt lat="38.5034810" lon="-0.6351460">
        <ele>1042.5</ele>
        <time>2018-03-30T08:25:59Z</time>
      </trkpt>
      <trkpt lat="38.5034850" lon="-0.6351570">
        <ele>1042.6</ele>
        <time>2018-03-30T08:26:00Z</time>
      </trkpt>
      <trkpt lat="38.5034880" lon="-0.6351690">
        <ele>1042.7</ele>
        <time>2018-03-30T08:26:01Z</time>
      </trkpt>
      <trkpt lat="38.5034920" lon="-0.6351800">
        <ele>1042.8</ele>
        <time>2018-03-30T08:26:02Z</time>
      </trkpt>
      <trkpt lat="38.5034970" lon="-0.6351930">
        <ele>1042.9</ele>
        <time>2018-03-30T08:26:03Z</time>
      </trkpt>
      <trkpt lat="38.5035020" lon="-0.6352050">
        <ele>1043.0</ele>
        <time>2018-03-30T08:26:04Z</time>
      </trkpt>
      <trkpt lat="38.5035060" lon="-0.6352160">
        <ele>1043.1</ele>
        <time>2018-03-30T08:26:05Z</time>
      </trkpt>
      <trkpt lat="38.5035100" lon="-0.6352280">
        <ele>1043.3</ele>
        <time>2018-03-30T08:26:06Z</time>
      </trkpt>
      <trkpt lat="38.5035140" lon="-0.6352400">
        <ele>1043.4</ele>
        <time>2018-03-30T08:26:07Z</time>
      </trkpt>
      <trkpt lat="38.5035210" lon="-0.6352520">
        <ele>1043.5</ele>
        <time>2018-03-30T08:26:08Z</time>
      </trkpt>
      <trkpt lat="38.5035280" lon="-0.6352620">
        <ele>1043.6</ele>
        <time>2018-03-30T08:26:09Z</time>
      </trkpt>
      <trkpt lat="38.5035350" lon="-0.6352730">
        <ele>1043.7</ele>
        <time>2018-03-30T08:26:10Z</time>
      </trkpt>
      <trkpt lat="38.5035420" lon="-0.6352820">
        <ele>1044.0</ele>
        <time>2018-03-30T08:26:11Z</time>
      </trkpt>
      <trkpt lat="38.5035470" lon="-0.6352920">
        <ele>1044.2</ele>
        <time>2018-03-30T08:26:12Z</time>
      </trkpt>
      <trkpt lat="38.5035530" lon="-0.6353030">
        <ele>1044.3</ele>
        <time>2018-03-30T08:26:13Z</time>
      </trkpt>
      <trkpt lat="38.5035560" lon="-0.6353150">
        <ele>1044.4</ele>
        <time>2018-03-30T08:26:14Z</time>
      </trkpt>
      <trkpt lat="38.5035610" lon="-0.6353270">
        <ele>1044.6</ele>
        <time>2018-03-30T08:26:15Z</time>
      </trkpt>
      <trkpt lat="38.5035670" lon="-0.6353380">
        <ele>1044.7</ele>
        <time>2018-03-30T08:26:16Z</time>
      </trkpt>
      <trkpt lat="38.5035730" lon="-0.6353480">
        <ele>1044.8</ele>
        <time>2018-03-30T08:26:17Z</time>
      </trkpt>
      <trkpt lat="38.5035780" lon="-0.6353590">
        <ele>1045.1</ele>
        <time>2018-03-30T08:26:18Z</time>
      </trkpt>
      <trkpt lat="38.5035830" lon="-0.6353700">
        <ele>1045.3</ele>
        <time>2018-03-30T08:26:19Z</time>
      </trkpt>
      <trkpt lat="38.5035900" lon="-0.6353810">
        <ele>1045.4</ele>
        <time>2018-03-30T08:26:20Z</time>
      </trkpt>
      <trkpt lat="38.5035960" lon="-0.6353900">
        <ele>1045.5</ele>
        <time>2018-03-30T08:26:21Z</time>
      </trkpt>
      <trkpt lat="38.5036020" lon="-0.6354010">
        <ele>1045.6</ele>
        <time>2018-03-30T08:26:22Z</time>
      </trkpt>
      <trkpt lat="38.5036090" lon="-0.6354100">
        <ele>1045.8</ele>
        <time>2018-03-30T08:26:23Z</time>
      </trkpt>
      <trkpt lat="38.5036180" lon="-0.6354170">
        <ele>1045.9</ele>
        <time>2018-03-30T08:26:24Z</time>
      </trkpt>
      <trkpt lat="38.5036270" lon="-0.6354210">
        <ele>1046.0</ele>
        <time>2018-03-30T08:26:25Z</time>
      </trkpt>
      <trkpt lat="38.5036360" lon="-0.6354210">
        <ele>1046.1</ele>
        <time>2018-03-30T08:26:26Z</time>
      </trkpt>
      <trkpt lat="38.5036450" lon="-0.6354180">
        <ele>1046.3</ele>
        <time>2018-03-30T08:26:27Z</time>
      </trkpt>
      <trkpt lat="38.5036530" lon="-0.6354100">
        <ele>1046.4</ele>
        <time>2018-03-30T08:26:28Z</time>
      </trkpt>
      <trkpt lat="38.5036570" lon="-0.6353970">
        <ele>1046.5</ele>
        <time>2018-03-30T08:26:29Z</time>
      </trkpt>
      <trkpt lat="38.5036630" lon="-0.6353850">
        <ele>1046.7</ele>
        <time>2018-03-30T08:26:30Z</time>
      </trkpt>
      <trkpt lat="38.5036660" lon="-0.6353720">
        <ele>1046.9</ele>
        <time>2018-03-30T08:26:31Z</time>
      </trkpt>
      <trkpt lat="38.5036640" lon="-0.6353600">
        <ele>1047.1</ele>
        <time>2018-03-30T08:26:32Z</time>
      </trkpt>
      <trkpt lat="38.5036610" lon="-0.6353460">
        <ele>1047.2</ele>
        <time>2018-03-30T08:26:33Z</time>
      </trkpt>
      <trkpt lat="38.5036560" lon="-0.6353320">
        <ele>1047.4</ele>
        <time>2018-03-30T08:26:34Z</time>
      </trkpt>
      <trkpt lat="38.5036510" lon="-0.6353200">
        <ele>1047.5</ele>
        <time>2018-03-30T08:26:35Z</time>
      </trkpt>
      <trkpt lat="38.5036480" lon="-0.6353080">
        <ele>1047.6</ele>
        <time>2018-03-30T08:26:36Z</time>
      </trkpt>
      <trkpt lat="38.5036440" lon="-0.6352950">
        <ele>1047.8</ele>
        <time>2018-03-30T08:26:37Z</time>
      </trkpt>
      <trkpt lat="38.5036380" lon="-0.6352850">
        <ele>1047.9</ele>
        <time>2018-03-30T08:26:38Z</time>
      </trkpt>
      <trkpt lat="38.5036330" lon="-0.6352770">
        <ele>1048.1</ele>
        <time>2018-03-30T08:26:39Z</time>
      </trkpt>
      <trkpt lat="38.5036300" lon="-0.6352650">
        <ele>1048.2</ele>
        <time>2018-03-30T08:26:40Z</time>
      </trkpt>
      <trkpt lat="38.5036280" lon="-0.6352530">
        <ele>1048.4</ele>
        <time>2018-03-30T08:26:41Z</time>
      </trkpt>
      <trkpt lat="38.5036250" lon="-0.6352390">
        <ele>1048.5</ele>
        <time>2018-03-30T08:26:42Z</time>
      </trkpt>
      <trkpt lat="38.5036230" lon="-0.6352280">
        <ele>1048.7</ele>
        <time>2018-03-30T08:26:43Z</time>
      </trkpt>
      <trkpt lat="38.5036180" lon="-0.6352150">
        <ele>1048.8</ele>
        <time>2018-03-30T08:26:44Z</time>
      </trkpt>
      <trkpt lat="38.5036140" lon="-0.6352030">
        <ele>1049.0</ele>
        <time>2018-03-30T08:26:45Z</time>
      </trkpt>
      <trkpt lat="38.5036090" lon="-0.6351890">
        <ele>1049.1</ele>
        <time>2018-03-30T08:26:46Z</time>
      </trkpt>
      <trkpt lat="38.5036060" lon="-0.6351760">
        <ele>1049.2</ele>
        <time>2018-03-30T08:26:47Z</time>
      </trkpt>
      <trkpt lat="38.5036030" lon="-0.6351630">
        <ele>1049.4</ele>
        <time>2018-03-30T08:26:48Z</time>
      </trkpt>
      <trkpt lat="38.5036000" lon="-0.6351500">
        <ele>1049.5</ele>
        <time>2018-03-30T08:26:49Z</time>
      </trkpt>
      <trkpt lat="38.5035980" lon="-0.6351380">
        <ele>1049.6</ele>
        <time>2018-03-30T08:26:50Z</time>
      </trkpt>
      <trkpt lat="38.5035970" lon="-0.6351230">
        <ele>1049.7</ele>
        <time>2018-03-30T08:26:51Z</time>
      </trkpt>
      <trkpt lat="38.5035950" lon="-0.6351100">
        <ele>1049.8</ele>
        <time>2018-03-30T08:26:52Z</time>
      </trkpt>
      <trkpt lat="38.5035930" lon="-0.6350970">
        <ele>1050.0</ele>
        <time>2018-03-30T08:26:53Z</time>
      </trkpt>
      <trkpt lat="38.5035910" lon="-0.6350840">
        <ele>1050.1</ele>
        <time>2018-03-30T08:26:54Z</time>
      </trkpt>
      <trkpt lat="38.5035910" lon="-0.6350710">
        <ele>1050.2</ele>
        <time>2018-03-30T08:26:55Z</time>
      </trkpt>
      <trkpt lat="38.5035900" lon="-0.6350580">
        <ele>1050.3</ele>
        <time>2018-03-30T08:26:56Z</time>
      </trkpt>
      <trkpt lat="38.5035910" lon="-0.6350450">
        <ele>1050.4</ele>
        <time>2018-03-30T08:26:57Z</time>
      </trkpt>
      <trkpt lat="38.5035930" lon="-0.6350310">
        <ele>1050.5</ele>
        <time>2018-03-30T08:26:58Z</time>
      </trkpt>
      <trkpt lat="38.5035910" lon="-0.6350170">
        <ele>1050.6</ele>
        <time>2018-03-30T08:26:59Z</time>
      </trkpt>
      <trkpt lat="38.5035920" lon="-0.6350030">
        <ele>1050.7</ele>
        <time>2018-03-30T08:27:00Z</time>
      </trkpt>
      <trkpt lat="38.5035930" lon="-0.6349880">
        <ele>1050.8</ele>
        <time>2018-03-30T08:27:01Z</time>
      </trkpt>
      <trkpt lat="38.5035940" lon="-0.6349730">
        <ele>1051.0</ele>
        <time>2018-03-30T08:27:02Z</time>
      </trkpt>
      <trkpt lat="38.5035940" lon="-0.6349580">
        <ele>1051.1</ele>
        <time>2018-03-30T08:27:03Z</time>
      </trkpt>
      <trkpt lat="38.5035950" lon="-0.6349430">
        <ele>1051.2</ele>
        <time>2018-03-30T08:27:04Z</time>
      </trkpt>
      <trkpt lat="38.5035990" lon="-0.6349280">
        <ele>1051.3</ele>
        <time>2018-03-30T08:27:05Z</time>
      </trkpt>
      <trkpt lat="38.5036070" lon="-0.6349190">
        <ele>1051.4</ele>
        <time>2018-03-30T08:27:06Z</time>
      </trkpt>
      <trkpt lat="38.5036150" lon="-0.6349060">
        <ele>1051.6</ele>
        <time>2018-03-30T08:27:07Z</time>
      </trkpt>
      <trkpt lat="38.5036190" lon="-0.6348920">
        <ele>1051.7</ele>
        <time>2018-03-30T08:27:08Z</time>
      </trkpt>
      <trkpt lat="38.5036230" lon="-0.6348770">
        <ele>1051.9</ele>
        <time>2018-03-30T08:27:09Z</time>
      </trkpt>
      <trkpt lat="38.5036280" lon="-0.6348630">
        <ele>1052.0</ele>
        <time>2018-03-30T08:27:10Z</time>
      </trkpt>
      <trkpt lat="38.5036310" lon="-0.6348480">
        <ele>1052.2</ele>
        <time>2018-03-30T08:27:11Z</time>
      </trkpt>
      <trkpt lat="38.5036340" lon="-0.6348330">
        <ele>1052.3</ele>
        <time>2018-03-30T08:27:12Z</time>
      </trkpt>
      <trkpt lat="38.5036360" lon="-0.6348200">
        <ele>1052.4</ele>
        <time>2018-03-30T08:27:13Z</time>
      </trkpt>
      <trkpt lat="38.5036370" lon="-0.6348060">
        <ele>1052.5</ele>
        <time>2018-03-30T08:27:14Z</time>
      </trkpt>
      <trkpt lat="38.5036370" lon="-0.6347910">
        <ele>1052.6</ele>
        <time>2018-03-30T08:27:15Z</time>
      </trkpt>
      <trkpt lat="38.5036380" lon="-0.6347770">
        <ele>1052.7</ele>
        <time>2018-03-30T08:27:16Z</time>
      </trkpt>
      <trkpt lat="38.5036390" lon="-0.6347630">
        <ele>1052.9</ele>
        <time>2018-03-30T08:27:17Z</time>
      </trkpt>
      <trkpt lat="38.5036430" lon="-0.6347500">
        <ele>1053.0</ele>
        <time>2018-03-30T08:27:18Z</time>
      </trkpt>
      <trkpt lat="38.5036470" lon="-0.6347370">
        <ele>1053.1</ele>
        <time>2018-03-30T08:27:19Z</time>
      </trkpt>
      <trkpt lat="38.5036500" lon="-0.6347220">
        <ele>1053.2</ele>
        <time>2018-03-30T08:27:20Z</time>
      </trkpt>
      <trkpt lat="38.5036530" lon="-0.6347100">
        <ele>1053.3</ele>
        <time>2018-03-30T08:27:21Z</time>
      </trkpt>
      <trkpt lat="38.5036560" lon="-0.6346960">
        <ele>1053.5</ele>
        <time>2018-03-30T08:27:22Z</time>
      </trkpt>
      <trkpt lat="38.5036590" lon="-0.6346820">
        <ele>1053.6</ele>
        <time>2018-03-30T08:27:23Z</time>
      </trkpt>
      <trkpt lat="38.5036590" lon="-0.6346680">
        <ele>1053.7</ele>
        <time>2018-03-30T08:27:24Z</time>
      </trkpt>
      <trkpt lat="38.5036580" lon="-0.6346540">
        <ele>1053.8</ele>
        <time>2018-03-30T08:27:25Z</time>
      </trkpt>
      <trkpt lat="38.5036570" lon="-0.6346410">
        <ele>1054.1</ele>
        <time>2018-03-30T08:27:26Z</time>
      </trkpt>
      <trkpt lat="38.5036570" lon="-0.6346280">
        <ele>1054.2</ele>
        <time>2018-03-30T08:27:27Z</time>
      </trkpt>
      <trkpt lat="38.5036560" lon="-0.6346140">
        <ele>1054.3</ele>
        <time>2018-03-30T08:27:28Z</time>
      </trkpt>
      <trkpt lat="38.5036570" lon="-0.6346000">
        <ele>1054.4</ele>
        <time>2018-03-30T08:27:29Z</time>
      </trkpt>
      <trkpt lat="38.5036580" lon="-0.6345870">
        <ele>1054.5</ele>
        <time>2018-03-30T08:27:30Z</time>
      </trkpt>
      <trkpt lat="38.5036570" lon="-0.6345760">
        <ele>1054.6</ele>
        <time>2018-03-30T08:27:31Z</time>
      </trkpt>
      <trkpt lat="38.5036570" lon="-0.6345630">
        <ele>1054.7</ele>
        <time>2018-03-30T08:27:32Z</time>
      </trkpt>
      <trkpt lat="38.5036590" lon="-0.6345510">
        <ele>1054.8</ele>
        <time>2018-03-30T08:27:33Z</time>
      </trkpt>
      <trkpt lat="38.5036590" lon="-0.6345390">
        <ele>1054.9</ele>
        <time>2018-03-30T08:27:34Z</time>
      </trkpt>
      <trkpt lat="38.5036610" lon="-0.6345280">
        <ele>1055.0</ele>
        <time>2018-03-30T08:27:35Z</time>
      </trkpt>
      <trkpt lat="38.5036590" lon="-0.6345160">
        <ele>1055.2</ele>
        <time>2018-03-30T08:27:36Z</time>
      </trkpt>
      <trkpt lat="38.5036580" lon="-0.6345040">
        <ele>1055.3</ele>
        <time>2018-03-30T08:27:37Z</time>
      </trkpt>
      <trkpt lat="38.5036560" lon="-0.6344910">
        <ele>1055.5</ele>
        <time>2018-03-30T08:27:38Z</time>
      </trkpt>
      <trkpt lat="38.5036560" lon="-0.6344760">
        <ele>1055.6</ele>
        <time>2018-03-30T08:27:39Z</time>
      </trkpt>
      <trkpt lat="38.5036590" lon="-0.6344630">
        <ele>1055.7</ele>
        <time>2018-03-30T08:27:40Z</time>
      </trkpt>
      <trkpt lat="38.5036610" lon="-0.6344500">
        <ele>1055.8</ele>
        <time>2018-03-30T08:27:41Z</time>
      </trkpt>
      <trkpt lat="38.5036640" lon="-0.6344370">
        <ele>1056.0</ele>
        <time>2018-03-30T08:27:42Z</time>
      </trkpt>
      <trkpt lat="38.5036670" lon="-0.6344240">
        <ele>1056.2</ele>
        <time>2018-03-30T08:27:43Z</time>
      </trkpt>
      <trkpt lat="38.5036680" lon="-0.6344100">
        <ele>1056.4</ele>
        <time>2018-03-30T08:27:44Z</time>
      </trkpt>
      <trkpt lat="38.5036720" lon="-0.6343980">
        <ele>1056.5</ele>
        <time>2018-03-30T08:27:45Z</time>
      </trkpt>
      <trkpt lat="38.5036740" lon="-0.6343850">
        <ele>1056.6</ele>
        <time>2018-03-30T08:27:46Z</time>
      </trkpt>
      <trkpt lat="38.5036770" lon="-0.6343720">
        <ele>1056.7</ele>
        <time>2018-03-30T08:27:47Z</time>
      </trkpt>
      <trkpt lat="38.5036800" lon="-0.6343600">
        <ele>1056.8</ele>
        <time>2018-03-30T08:27:48Z</time>
      </trkpt>
      <trkpt lat="38.5036840" lon="-0.6343460">
        <ele>1057.0</ele>
        <time>2018-03-30T08:27:49Z</time>
      </trkpt>
      <trkpt lat="38.5036880" lon="-0.6343330">
        <ele>1057.1</ele>
        <time>2018-03-30T08:27:50Z</time>
      </trkpt>
      <trkpt lat="38.5036970" lon="-0.6343220">
        <ele>1057.3</ele>
        <time>2018-03-30T08:27:51Z</time>
      </trkpt>
      <trkpt lat="38.5037000" lon="-0.6343120">
        <ele>1057.4</ele>
        <time>2018-03-30T08:27:52Z</time>
      </trkpt>
      <trkpt lat="38.5037050" lon="-0.6342990">
        <ele>1057.5</ele>
        <time>2018-03-30T08:27:53Z</time>
      </trkpt>
      <trkpt lat="38.5037090" lon="-0.6342880">
        <ele>1057.6</ele>
        <time>2018-03-30T08:27:54Z</time>
      </trkpt>
      <trkpt lat="38.5037120" lon="-0.6342760">
        <ele>1057.7</ele>
        <time>2018-03-30T08:27:55Z</time>
      </trkpt>
      <trkpt lat="38.5037200" lon="-0.6342660">
        <ele>1057.9</ele>
        <time>2018-03-30T08:27:56Z</time>
      </trkpt>
      <trkpt lat="38.5037280" lon="-0.6342590">
        <ele>1058.0</ele>
        <time>2018-03-30T08:27:57Z</time>
      </trkpt>
      <trkpt lat="38.5037330" lon="-0.6342510">
        <ele>1058.0</ele>
        <time>2018-03-30T08:27:58Z</time>
      </trkpt>
      <trkpt lat="38.5037400" lon="-0.6342420">
        <ele>1058.0</ele>
        <time>2018-03-30T08:27:59Z</time>
      </trkpt>
      <trkpt lat="38.5037470" lon="-0.6342340">
        <ele>1058.0</ele>
        <time>2018-03-30T08:28:00Z</time>
      </trkpt>
      <trkpt lat="38.5037540" lon="-0.6342260">
        <ele>1058.0</ele>
        <time>2018-03-30T08:28:01Z</time>
      </trkpt>
      <trkpt lat="38.5037610" lon="-0.6342190">
        <ele>1058.0</ele>
        <time>2018-03-30T08:28:02Z</time>
      </trkpt>
      <trkpt lat="38.5037660" lon="-0.6342150">
        <ele>1058.0</ele>
        <time>2018-03-30T08:28:03Z</time>
      </trkpt>
      <trkpt lat="38.5037730" lon="-0.6342090">
        <ele>1058.0</ele>
        <time>2018-03-30T08:28:04Z</time>
      </trkpt>
      <trkpt lat="38.5037870" lon="-0.6342020">
        <ele>1058.0</ele>
        <time>2018-03-30T08:28:05Z</time>
      </trkpt>
      <trkpt lat="38.5037980" lon="-0.6342000">
        <ele>1058.0</ele>
        <time>2018-03-30T08:28:06Z</time>
      </trkpt>
      <trkpt lat="38.5038050" lon="-0.6342030">
        <ele>1058.0</ele>
        <time>2018-03-30T08:28:07Z</time>
      </trkpt>
      <trkpt lat="38.5038050" lon="-0.6342100">
        <ele>1058.0</ele>
        <time>2018-03-30T08:28:08Z</time>
      </trkpt>
      <trkpt lat="38.5038040" lon="-0.6342170">
        <ele>1058.0</ele>
        <time>2018-03-30T08:28:09Z</time>
      </trkpt>
      <trkpt lat="38.5038010" lon="-0.6342220">
        <ele>1058.0</ele>
        <time>2018-03-30T08:28:10Z</time>
      </trkpt>
      <trkpt lat="38.5037950" lon="-0.6342240">
        <ele>1058.0</ele>
        <time>2018-03-30T08:28:11Z</time>
      </trkpt>
      <trkpt lat="38.5037910" lon="-0.6342270">
        <ele>1058.0</ele>
        <time>2018-03-30T08:28:12Z</time>
      </trkpt>
      <trkpt lat="38.5037840" lon="-0.6342360">
        <ele>1058.0</ele>
        <time>2018-03-30T08:28:13Z</time>
      </trkpt>
      <trkpt lat="38.5037750" lon="-0.6342390">
        <ele>1058.0</ele>
        <time>2018-03-30T08:28:14Z</time>
      </trkpt>
      <trkpt lat="38.5037700" lon="-0.6342480">
        <ele>1058.0</ele>
        <time>2018-03-30T08:28:15Z</time>
      </trkpt>
      <trkpt lat="38.5037610" lon="-0.6342610">
        <ele>1058.0</ele>
        <time>2018-03-30T08:28:16Z</time>
      </trkpt>
      <trkpt lat="38.5037370" lon="-0.6342860">
        <ele>1058.0</ele>
        <time>2018-03-30T08:28:17Z</time>
      </trkpt>
      <trkpt lat="38.5037190" lon="-0.6343140">
        <ele>1057.6</ele>
        <time>2018-03-30T08:28:18Z</time>
      </trkpt>
      <trkpt lat="38.5037040" lon="-0.6343460">
        <ele>1057.3</ele>
        <time>2018-03-30T08:28:19Z</time>
      </trkpt>
      <trkpt lat="38.5036910" lon="-0.6344080">
        <ele>1056.7</ele>
        <time>2018-03-30T08:28:20Z</time>
      </trkpt>
      <trkpt lat="38.5036970" lon="-0.6344760">
        <ele>1056.0</ele>
        <time>2018-03-30T08:28:21Z</time>
      </trkpt>
      <trkpt lat="38.5036950" lon="-0.6345400">
        <ele>1055.3</ele>
        <time>2018-03-30T08:28:22Z</time>
      </trkpt>
      <trkpt lat="38.5036590" lon="-0.6346680">
        <ele>1054.1</ele>
        <time>2018-03-30T08:28:23Z</time>
      </trkpt>
      <trkpt lat="38.5036390" lon="-0.6347810">
        <ele>1053.0</ele>
        <time>2018-03-30T08:28:24Z</time>
      </trkpt>
      <trkpt lat="38.5036280" lon="-0.6348960">
        <ele>1052.0</ele>
        <time>2018-03-30T08:28:25Z</time>
      </trkpt>
      <trkpt lat="38.5036110" lon="-0.6350140">
        <ele>1051.0</ele>
        <time>2018-03-30T08:28:26Z</time>
      </trkpt>
      <trkpt lat="38.5036180" lon="-0.6351040">
        <ele>1050.3</ele>
        <time>2018-03-30T08:28:27Z</time>
      </trkpt>
      <trkpt lat="38.5036230" lon="-0.6352030">
        <ele>1049.4</ele>
        <time>2018-03-30T08:28:28Z</time>
      </trkpt>
      <trkpt lat="38.5036420" lon="-0.6352850">
        <ele>1048.5</ele>
        <time>2018-03-30T08:28:29Z</time>
      </trkpt>
      <trkpt lat="38.5036580" lon="-0.6353540">
        <ele>1047.6</ele>
        <time>2018-03-30T08:28:30Z</time>
      </trkpt>
      <trkpt lat="38.5036650" lon="-0.6353840">
        <ele>1047.3</ele>
        <time>2018-03-30T08:28:31Z</time>
      </trkpt>
      <trkpt lat="38.5035850" lon="-0.6354060">
        <ele>1046.1</ele>
        <time>2018-03-30T08:28:32Z</time>
      </trkpt>
      <trkpt lat="38.5035090" lon="-0.6354010">
        <ele>1045.2</ele>
        <time>2018-03-30T08:28:33Z</time>
      </trkpt>
      <trkpt lat="38.5035110" lon="-0.6353040">
        <ele>1044.0</ele>
        <time>2018-03-30T08:28:34Z</time>
      </trkpt>
      <trkpt lat="38.5034940" lon="-0.6352350">
        <ele>1043.2</ele>
        <time>2018-03-30T08:28:35Z</time>
      </trkpt>
      <trkpt lat="38.5034680" lon="-0.6351710">
        <ele>1042.6</ele>
        <time>2018-03-30T08:28:36Z</time>
      </trkpt>
      <trkpt lat="38.5034390" lon="-0.6350970">
        <ele>1041.8</ele>
        <time>2018-03-30T08:28:37Z</time>
      </trkpt>
      <trkpt lat="38.5034080" lon="-0.6350120">
        <ele>1041.0</ele>
        <time>2018-03-30T08:28:38Z</time>
      </trkpt>
      <trkpt lat="38.5033570" lon="-0.6349110">
        <ele>1039.0</ele>
        <time>2018-03-30T08:28:39Z</time>
      </trkpt>
      <trkpt lat="38.5033230" lon="-0.6348250">
        <ele>1037.7</ele>
        <time>2018-03-30T08:28:40Z</time>
      </trkpt>
      <trkpt lat="38.5032840" lon="-0.6347530">
        <ele>1036.6</ele>
        <time>2018-03-30T08:28:41Z</time>
      </trkpt>
      <trkpt lat="38.5032240" lon="-0.6347470">
        <ele>1035.4</ele>
        <time>2018-03-30T08:28:42Z</time>
      </trkpt>
      <trkpt lat="38.5031330" lon="-0.6347190">
        <ele>1034.1</ele>
        <time>2018-03-30T08:28:43Z</time>
      </trkpt>
      <trkpt lat="38.5030380" lon="-0.6346830">
        <ele>1032.4</ele>
        <time>2018-03-30T08:28:44Z</time>
      </trkpt>
      <trkpt lat="38.5029540" lon="-0.6346800">
        <ele>1031.3</ele>
        <time>2018-03-30T08:28:45Z</time>
      </trkpt>
      <trkpt lat="38.5028900" lon="-0.6347270">
        <ele>1030.4</ele>
        <time>2018-03-30T08:28:46Z</time>
      </trkpt>
      <trkpt lat="38.5028300" lon="-0.6347560">
        <ele>1029.3</ele>
        <time>2018-03-30T08:28:47Z</time>
      </trkpt>
      <trkpt lat="38.5027440" lon="-0.6348100">
        <ele>1028.2</ele>
        <time>2018-03-30T08:28:48Z</time>
      </trkpt>
      <trkpt lat="38.5026700" lon="-0.6348650">
        <ele>1027.1</ele>
        <time>2018-03-30T08:28:49Z</time>
      </trkpt>
      <trkpt lat="38.5026250" lon="-0.6348990">
        <ele>1026.4</ele>
        <time>2018-03-30T08:28:50Z</time>
      </trkpt>
      <trkpt lat="38.5025940" lon="-0.6349380">
        <ele>1025.6</ele>
        <time>2018-03-30T08:28:51Z</time>
      </trkpt>
      <trkpt lat="38.5026000" lon="-0.6349560">
        <ele>1025.4</ele>
        <time>2018-03-30T08:28:52Z</time>
      </trkpt>
      <trkpt lat="38.5026300" lon="-0.6349120">
        <ele>1024.6</ele>
        <time>2018-03-30T08:28:53Z</time>
      </trkpt>
      <trkpt lat="38.5026490" lon="-0.6349460">
        <ele>1024.2</ele>
        <time>2018-03-30T08:28:54Z</time>
      </trkpt>
      <trkpt lat="38.5026690" lon="-0.6349790">
        <ele>1023.6</ele>
        <time>2018-03-30T08:28:55Z</time>
      </trkpt>
      <trkpt lat="38.5026880" lon="-0.6350130">
        <ele>1023.3</ele>
        <time>2018-03-30T08:28:56Z</time>
      </trkpt>
      <trkpt lat="38.5027080" lon="-0.6350460">
        <ele>1023.1</ele>
        <time>2018-03-30T08:28:57Z</time>
      </trkpt>
      <trkpt lat="38.5027270" lon="-0.6350790">
        <ele>1022.8</ele>
        <time>2018-03-30T08:28:58Z</time>
      </trkpt>
      <trkpt lat="38.5027470" lon="-0.6351130">
        <ele>1022.5</ele>
        <time>2018-03-30T08:28:59Z</time>
      </trkpt>
      <trkpt lat="38.5027660" lon="-0.6351460">
        <ele>1022.2</ele>
        <time>2018-03-30T08:29:00Z</time>
      </trkpt>
      <trkpt lat="38.5027860" lon="-0.6351800">
        <ele>1021.8</ele>
        <time>2018-03-30T08:29:01Z</time>
      </trkpt>
      <trkpt lat="38.5028050" lon="-0.6352130">
        <ele>1021.5</ele>
        <time>2018-03-30T08:29:02Z</time>
      </trkpt>
      <trkpt lat="38.5027970" lon="-0.6353260">
        <ele>1012.0</ele>
        <time>2018-03-30T08:29:03Z</time>
      </trkpt>
      <trkpt lat="38.5028260" lon="-0.6354680">
        <ele>1003.5</ele>
        <time>2018-03-30T08:29:04Z</time>
      </trkpt>
      <trkpt lat="38.5028400" lon="-0.6355980">
        <ele>1004.2</ele>
        <time>2018-03-30T08:29:05Z</time>
      </trkpt>
      <trkpt lat="38.5028540" lon="-0.6357210">
        <ele>1004.9</ele>
        <time>2018-03-30T08:29:06Z</time>
      </trkpt>
      <trkpt lat="38.5028810" lon="-0.6358190">
        <ele>1005.6</ele>
        <time>2018-03-30T08:29:07Z</time>
      </trkpt>
      <trkpt lat="38.5029170" lon="-0.6359060">
        <ele>1006.4</ele>
        <time>2018-03-30T08:29:08Z</time>
      </trkpt>
      <trkpt lat="38.5029170" lon="-0.6359720">
        <ele>1006.9</ele>
        <time>2018-03-30T08:29:09Z</time>
      </trkpt>
      <trkpt lat="38.5028610" lon="-0.6359620">
        <ele>1006.6</ele>
        <time>2018-03-30T08:29:10Z</time>
      </trkpt>
      <trkpt lat="38.5027930" lon="-0.6358700">
        <ele>1005.4</ele>
        <time>2018-03-30T08:29:11Z</time>
      </trkpt>
      <trkpt lat="38.5028200" lon="-0.6357900">
        <ele>1004.7</ele>
        <time>2018-03-30T08:29:12Z</time>
      </trkpt>
      <trkpt lat="38.5028180" lon="-0.6357090">
        <ele>1004.1</ele>
        <time>2018-03-30T08:29:13Z</time>
      </trkpt>
      <trkpt lat="38.5028260" lon="-0.6356060">
        <ele>1003.4</ele>
        <time>2018-03-30T08:29:14Z</time>
      </trkpt>
      <trkpt lat="38.5028190" lon="-0.6354930">
        <ele>1002.1</ele>
        <time>2018-03-30T08:29:15Z</time>
      </trkpt>
      <trkpt lat="38.5028120" lon="-0.6354500">
        <ele>1001.5</ele>
        <time>2018-03-30T08:29:16Z</time>
      </trkpt>
      <trkpt lat="38.5028060" lon="-0.6354060">
        <ele>1000.9</ele>
        <time>2018-03-30T08:29:17Z</time>
      </trkpt>
      <trkpt lat="38.5027990" lon="-0.6353630">
        <ele>1000.4</ele>
        <time>2018-03-30T08:29:18Z</time>
      </trkpt>
      <trkpt lat="38.5027660" lon="-0.6353390">
        <ele>999.9</ele>
        <time>2018-03-30T08:29:19Z</time>
      </trkpt>
      <trkpt lat="38.5027290" lon="-0.6354330">
        <ele>998.7</ele>
        <time>2018-03-30T08:29:20Z</time>
      </trkpt>
      <trkpt lat="38.5026350" lon="-0.6355810">
        <ele>997.2</ele>
        <time>2018-03-30T08:29:21Z</time>
      </trkpt>
      <trkpt lat="38.5025950" lon="-0.6356150">
        <ele>996.7</ele>
        <time>2018-03-30T08:29:22Z</time>
      </trkpt>
      <trkpt lat="38.5025240" lon="-0.6356700">
        <ele>996.0</ele>
        <time>2018-03-30T08:29:23Z</time>
      </trkpt>
      <trkpt lat="38.5024960" lon="-0.6357080">
        <ele>995.5</ele>
        <time>2018-03-30T08:29:24Z</time>
      </trkpt>
      <trkpt lat="38.5024900" lon="-0.6357490">
        <ele>995.1</ele>
        <time>2018-03-30T08:29:25Z</time>
      </trkpt>
      <trkpt lat="38.5025140" lon="-0.6357520">
        <ele>994.8</ele>
        <time>2018-03-30T08:29:26Z</time>
      </trkpt>
      <trkpt lat="38.5025170" lon="-0.6357780">
        <ele>994.5</ele>
        <time>2018-03-30T08:29:27Z</time>
      </trkpt>
      <trkpt lat="38.5025180" lon="-0.6358000">
        <ele>994.3</ele>
        <time>2018-03-30T08:29:28Z</time>
      </trkpt>
      <trkpt lat="38.5025260" lon="-0.6358160">
        <ele>994.2</ele>
        <time>2018-03-30T08:29:29Z</time>
      </trkpt>
      <trkpt lat="38.5025510" lon="-0.6358150">
        <ele>993.9</ele>
        <time>2018-03-30T08:29:30Z</time>
      </trkpt>
      <trkpt lat="38.5025890" lon="-0.6358240">
        <ele>993.5</ele>
        <time>2018-03-30T08:29:31Z</time>
      </trkpt>
      <trkpt lat="38.5026190" lon="-0.6358700">
        <ele>993.0</ele>
        <time>2018-03-30T08:29:32Z</time>
      </trkpt>
      <trkpt lat="38.5026360" lon="-0.6359150">
        <ele>992.7</ele>
        <time>2018-03-30T08:29:33Z</time>
      </trkpt>
      <trkpt lat="38.5026420" lon="-0.6359400">
        <ele>992.5</ele>
        <time>2018-03-30T08:29:34Z</time>
      </trkpt>
      <trkpt lat="38.5026470" lon="-0.6359720">
        <ele>992.3</ele>
        <time>2018-03-30T08:29:35Z</time>
      </trkpt>
      <trkpt lat="38.5026540" lon="-0.6361080">
        <ele>991.0</ele>
        <time>2018-03-30T08:29:36Z</time>
      </trkpt>
      <trkpt lat="38.5026370" lon="-0.6362170">
        <ele>990.2</ele>
        <time>2018-03-30T08:29:37Z</time>
      </trkpt>
      <trkpt lat="38.5026220" lon="-0.6363000">
        <ele>989.3</ele>
        <time>2018-03-30T08:29:38Z</time>
      </trkpt>
      <trkpt lat="38.5026020" lon="-0.6363600">
        <ele>988.4</ele>
        <time>2018-03-30T08:29:39Z</time>
      </trkpt>
      <trkpt lat="38.5025060" lon="-0.6365030">
        <ele>985.1</ele>
        <time>2018-03-30T08:29:40Z</time>
      </trkpt>
      <trkpt lat="38.5024620" lon="-0.6365860">
        <ele>983.4</ele>
        <time>2018-03-30T08:29:41Z</time>
      </trkpt>
      <trkpt lat="38.5024180" lon="-0.6366660">
        <ele>981.6</ele>
        <time>2018-03-30T08:29:42Z</time>
      </trkpt>
      <trkpt lat="38.5023800" lon="-0.6367000">
        <ele>980.6</ele>
        <time>2018-03-30T08:29:43Z</time>
      </trkpt>
      <trkpt lat="38.5023440" lon="-0.6367170">
        <ele>979.7</ele>
        <time>2018-03-30T08:29:44Z</time>
      </trkpt>
      <trkpt lat="38.5022980" lon="-0.6367100">
        <ele>978.5</ele>
        <time>2018-03-30T08:29:45Z</time>
      </trkpt>
      <trkpt lat="38.5022870" lon="-0.6366620">
        <ele>977.8</ele>
        <time>2018-03-30T08:29:46Z</time>
      </trkpt>
      <trkpt lat="38.5022640" lon="-0.6365900">
        <ele>975.8</ele>
        <time>2018-03-30T08:29:47Z</time>
      </trkpt>
      <trkpt lat="38.5022460" lon="-0.6365230">
        <ele>975.4</ele>
        <time>2018-03-30T08:29:48Z</time>
      </trkpt>
      <trkpt lat="38.5022250" lon="-0.6364670">
        <ele>974.3</ele>
        <time>2018-03-30T08:29:49Z</time>
      </trkpt>
      <trkpt lat="38.5021940" lon="-0.6364330">
        <ele>973.4</ele>
        <time>2018-03-30T08:29:50Z</time>
      </trkpt>
      <trkpt lat="38.5021580" lon="-0.6364130">
        <ele>972.2</ele>
        <time>2018-03-30T08:29:51Z</time>
      </trkpt>
      <trkpt lat="38.5021270" lon="-0.6364360">
        <ele>970.7</ele>
        <time>2018-03-30T08:29:52Z</time>
      </trkpt>
      <trkpt lat="38.5020980" lon="-0.6364610">
        <ele>969.8</ele>
        <time>2018-03-30T08:29:53Z</time>
      </trkpt>
      <trkpt lat="38.5020790" lon="-0.6364930">
        <ele>969.0</ele>
        <time>2018-03-30T08:29:54Z</time>
      </trkpt>
      <trkpt lat="38.5020670" lon="-0.6365240">
        <ele>968.5</ele>
        <time>2018-03-30T08:29:55Z</time>
      </trkpt>
      <trkpt lat="38.5020350" lon="-0.6365740">
        <ele>967.2</ele>
        <time>2018-03-30T08:29:56Z</time>
      </trkpt>
      <trkpt lat="38.5019950" lon="-0.6366210">
        <ele>965.3</ele>
        <time>2018-03-30T08:29:57Z</time>
      </trkpt>
      <trkpt lat="38.5019550" lon="-0.6366490">
        <ele>964.3</ele>
        <time>2018-03-30T08:29:58Z</time>
      </trkpt>
      <trkpt lat="38.5018970" lon="-0.6366710">
        <ele>962.8</ele>
        <time>2018-03-30T08:29:59Z</time>
      </trkpt>
      <trkpt lat="38.5017580" lon="-0.6367620">
        <ele>958.4</ele>
        <time>2018-03-30T08:30:00Z</time>
      </trkpt>
      <trkpt lat="38.5016010" lon="-0.6368980">
        <ele>954.2</ele>
        <time>2018-03-30T08:30:01Z</time>
      </trkpt>
      <trkpt lat="38.5014140" lon="-0.6370580">
        <ele>947.3</ele>
        <time>2018-03-30T08:30:02Z</time>
      </trkpt>
      <trkpt lat="38.5012930" lon="-0.6371720">
        <ele>944.0</ele>
        <time>2018-03-30T08:30:03Z</time>
      </trkpt>
      <trkpt lat="38.5012090" lon="-0.6372770">
        <ele>941.5</ele>
        <time>2018-03-30T08:30:04Z</time>
      </trkpt>
      <trkpt lat="38.5011270" lon="-0.6373880">
        <ele>939.2</ele>
        <time>2018-03-30T08:30:05Z</time>
      </trkpt>
      <trkpt lat="38.5010450" lon="-0.6375290">
        <ele>936.5</ele>
        <time>2018-03-30T08:30:06Z</time>
      </trkpt>
      <trkpt lat="38.5009420" lon="-0.6376710">
        <ele>932.6</ele>
        <time>2018-03-30T08:30:07Z</time>
      </trkpt>
      <trkpt lat="38.5008410" lon="-0.6377890">
        <ele>929.6</ele>
        <time>2018-03-30T08:30:08Z</time>
      </trkpt>
      <trkpt lat="38.5007490" lon="-0.6378960">
        <ele>927.5</ele>
        <time>2018-03-30T08:30:09Z</time>
      </trkpt>
      <trkpt lat="38.5006690" lon="-0.6379930">
        <ele>925.8</ele>
        <time>2018-03-30T08:30:10Z</time>
      </trkpt>
      <trkpt lat="38.5006100" lon="-0.6380700">
        <ele>924.3</ele>
        <time>2018-03-30T08:30:11Z</time>
      </trkpt>
      <trkpt lat="38.5005600" lon="-0.6381570">
        <ele>922.7</ele>
        <time>2018-03-30T08:30:12Z</time>
      </trkpt>
      <trkpt lat="38.5005320" lon="-0.6382350">
        <ele>921.5</ele>
        <time>2018-03-30T08:30:13Z</time>
      </trkpt>
      <trkpt lat="38.5004980" lon="-0.6382820">
        <ele>920.6</ele>
        <time>2018-03-30T08:30:14Z</time>
      </trkpt>
      <trkpt lat="38.5004600" lon="-0.6383030">
        <ele>919.7</ele>
        <time>2018-03-30T08:30:15Z</time>
      </trkpt>
      <trkpt lat="38.5004120" lon="-0.6383260">
        <ele>918.9</ele>
        <time>2018-03-30T08:30:16Z</time>
      </trkpt>
      <trkpt lat="38.5003850" lon="-0.6382790">
        <ele>918.1</ele>
        <time>2018-03-30T08:30:17Z</time>
      </trkpt>
      <trkpt lat="38.5003670" lon="-0.6382310">
        <ele>917.3</ele>
        <time>2018-03-30T08:30:18Z</time>
      </trkpt>
      <trkpt lat="38.5003650" lon="-0.6381710">
        <ele>916.9</ele>
        <time>2018-03-30T08:30:19Z</time>
      </trkpt>
      <trkpt lat="38.5003600" lon="-0.6381090">
        <ele>916.4</ele>
        <time>2018-03-30T08:30:20Z</time>
      </trkpt>
      <trkpt lat="38.5003520" lon="-0.6380430">
        <ele>916.0</ele>
        <time>2018-03-30T08:30:21Z</time>
      </trkpt>
      <trkpt lat="38.5003430" lon="-0.6379800">
        <ele>915.7</ele>
        <time>2018-03-30T08:30:22Z</time>
      </trkpt>
      <trkpt lat="38.5003300" lon="-0.6379310">
        <ele>915.5</ele>
        <time>2018-03-30T08:30:23Z</time>
      </trkpt>
      <trkpt lat="38.5002940" lon="-0.6379110">
        <ele>915.3</ele>
        <time>2018-03-30T08:30:24Z</time>
      </trkpt>
      <trkpt lat="38.5002610" lon="-0.6379140">
        <ele>915.2</ele>
        <time>2018-03-30T08:30:25Z</time>
      </trkpt>
      <trkpt lat="38.5002280" lon="-0.6379390">
        <ele>915.1</ele>
        <time>2018-03-30T08:30:26Z</time>
      </trkpt>
      <trkpt lat="38.5002010" lon="-0.6379700">
        <ele>915.1</ele>
        <time>2018-03-30T08:30:27Z</time>
      </trkpt>
      <trkpt lat="38.5001720" lon="-0.6380150">
        <ele>915.1</ele>
        <time>2018-03-30T08:30:28Z</time>
      </trkpt>
      <trkpt lat="38.5001470" lon="-0.6380640">
        <ele>915.0</ele>
        <time>2018-03-30T08:30:29Z</time>
      </trkpt>
      <trkpt lat="38.5001100" lon="-0.6381330">
        <ele>914.9</ele>
        <time>2018-03-30T08:30:30Z</time>
      </trkpt>
      <trkpt lat="38.5000710" lon="-0.6381930">
        <ele>914.7</ele>
        <time>2018-03-30T08:30:31Z</time>
      </trkpt>
      <trkpt lat="38.5000190" lon="-0.6382520">
        <ele>914.2</ele>
        <time>2018-03-30T08:30:32Z</time>
      </trkpt>
      <trkpt lat="38.4999640" lon="-0.6383140">
        <ele>913.6</ele>
        <time>2018-03-30T08:30:33Z</time>
      </trkpt>
      <trkpt lat="38.4999120" lon="-0.6383840">
        <ele>912.8</ele>
        <time>2018-03-30T08:30:34Z</time>
      </trkpt>
      <trkpt lat="38.4998660" lon="-0.6384600">
        <ele>911.9</ele>
        <time>2018-03-30T08:30:35Z</time>
      </trkpt>
      <trkpt lat="38.4998170" lon="-0.6385500">
        <ele>911.2</ele>
        <time>2018-03-30T08:30:36Z</time>
      </trkpt>
      <trkpt lat="38.4997800" lon="-0.6386270">
        <ele>910.6</ele>
        <time>2018-03-30T08:30:37Z</time>
      </trkpt>
      <trkpt lat="38.4997710" lon="-0.6386940">
        <ele>910.1</ele>
        <time>2018-03-30T08:30:38Z</time>
      </trkpt>
      <trkpt lat="38.4997720" lon="-0.6387570">
        <ele>909.5</ele>
        <time>2018-03-30T08:30:39Z</time>
      </trkpt>
      <trkpt lat="38.4998090" lon="-0.6388310">
        <ele>908.5</ele>
        <time>2018-03-30T08:30:40Z</time>
      </trkpt>
      <trkpt lat="38.4998250" lon="-0.6389120">
        <ele>907.3</ele>
        <time>2018-03-30T08:30:41Z</time>
      </trkpt>
      <trkpt lat="38.4998250" lon="-0.6389970">
        <ele>905.9</ele>
        <time>2018-03-30T08:30:42Z</time>
      </trkpt>
      <trkpt lat="38.4997910" lon="-0.6390790">
        <ele>904.7</ele>
        <time>2018-03-30T08:30:43Z</time>
      </trkpt>
      <trkpt lat="38.4997480" lon="-0.6391540">
        <ele>903.3</ele>
        <time>2018-03-30T08:30:44Z</time>
      </trkpt>
      <trkpt lat="38.4997230" lon="-0.6392350">
        <ele>902.1</ele>
        <time>2018-03-30T08:30:45Z</time>
      </trkpt>
      <trkpt lat="38.4997010" lon="-0.6393300">
        <ele>901.2</ele>
        <time>2018-03-30T08:30:46Z</time>
      </trkpt>
      <trkpt lat="38.4996730" lon="-0.6394300">
        <ele>899.6</ele>
        <time>2018-03-30T08:30:47Z</time>
      </trkpt>
      <trkpt lat="38.4996290" lon="-0.6395690">
        <ele>897.4</ele>
        <time>2018-03-30T08:30:48Z</time>
      </trkpt>
      <trkpt lat="38.4995870" lon="-0.6396840">
        <ele>895.0</ele>
        <time>2018-03-30T08:30:49Z</time>
      </trkpt>
      <trkpt lat="38.4995370" lon="-0.6398240">
        <ele>892.6</ele>
        <time>2018-03-30T08:30:50Z</time>
      </trkpt>
      <trkpt lat="38.4994720" lon="-0.6399590">
        <ele>890.0</ele>
        <time>2018-03-30T08:30:51Z</time>
      </trkpt>
      <trkpt lat="38.4993990" lon="-0.6400890">
        <ele>888.4</ele>
        <time>2018-03-30T08:30:52Z</time>
      </trkpt>
      <trkpt lat="38.4993450" lon="-0.6402080">
        <ele>887.5</ele>
        <time>2018-03-30T08:30:53Z</time>
      </trkpt>
      <trkpt lat="38.4993030" lon="-0.6403280">
        <ele>886.9</ele>
        <time>2018-03-30T08:30:54Z</time>
      </trkpt>
      <trkpt lat="38.4992520" lon="-0.6404400">
        <ele>886.5</ele>
        <time>2018-03-30T08:30:55Z</time>
      </trkpt>
      <trkpt lat="38.4991820" lon="-0.6405290">
        <ele>886.1</ele>
        <time>2018-03-30T08:30:56Z</time>
      </trkpt>
      <trkpt lat="38.4991300" lon="-0.6405870">
        <ele>885.4</ele>
        <time>2018-03-30T08:30:57Z</time>
      </trkpt>
      <trkpt lat="38.4990740" lon="-0.6406420">
        <ele>884.5</ele>
        <time>2018-03-30T08:30:58Z</time>
      </trkpt>
      <trkpt lat="38.4990210" lon="-0.6407010">
        <ele>883.7</ele>
        <time>2018-03-30T08:30:59Z</time>
      </trkpt>
      <trkpt lat="38.4990040" lon="-0.6407580">
        <ele>883.2</ele>
        <time>2018-03-30T08:31:00Z</time>
      </trkpt>
      <trkpt lat="38.4990420" lon="-0.6408600">
        <ele>882.2</ele>
        <time>2018-03-30T08:31:01Z</time>
      </trkpt>
      <trkpt lat="38.4990610" lon="-0.6409440">
        <ele>881.6</ele>
        <time>2018-03-30T08:31:02Z</time>
      </trkpt>
      <trkpt lat="38.4990770" lon="-0.6410230">
        <ele>881.0</ele>
        <time>2018-03-30T08:31:03Z</time>
      </trkpt>
      <trkpt lat="38.4990790" lon="-0.6411100">
        <ele>879.9</ele>
        <time>2018-03-30T08:31:04Z</time>
      </trkpt>
      <trkpt lat="38.4990440" lon="-0.6411850">
        <ele>879.0</ele>
        <time>2018-03-30T08:31:05Z</time>
      </trkpt>
      <trkpt lat="38.4990040" lon="-0.6412390">
        <ele>878.5</ele>
        <time>2018-03-30T08:31:06Z</time>
      </trkpt>
      <trkpt lat="38.4989510" lon="-0.6412920">
        <ele>877.8</ele>
        <time>2018-03-30T08:31:07Z</time>
      </trkpt>
      <trkpt lat="38.4989050" lon="-0.6413550">
        <ele>877.0</ele>
        <time>2018-03-30T08:31:08Z</time>
      </trkpt>
      <trkpt lat="38.4988570" lon="-0.6414530">
        <ele>876.1</ele>
        <time>2018-03-30T08:31:09Z</time>
      </trkpt>
      <trkpt lat="38.4988240" lon="-0.6415860">
        <ele>874.4</ele>
        <time>2018-03-30T08:31:10Z</time>
      </trkpt>
      <trkpt lat="38.4987910" lon="-0.6417050">
        <ele>873.0</ele>
        <time>2018-03-30T08:31:11Z</time>
      </trkpt>
      <trkpt lat="38.4987440" lon="-0.6418110">
        <ele>871.8</ele>
        <time>2018-03-30T08:31:12Z</time>
      </trkpt>
      <trkpt lat="38.4986900" lon="-0.6419420">
        <ele>871.0</ele>
        <time>2018-03-30T08:31:13Z</time>
      </trkpt>
      <trkpt lat="38.4986530" lon="-0.6420430">
        <ele>870.3</ele>
        <time>2018-03-30T08:31:14Z</time>
      </trkpt>
      <trkpt lat="38.4986280" lon="-0.6421170">
        <ele>869.6</ele>
        <time>2018-03-30T08:31:15Z</time>
      </trkpt>
      <trkpt lat="38.4986460" lon="-0.6421630">
        <ele>869.0</ele>
        <time>2018-03-30T08:31:16Z</time>
      </trkpt>
      <trkpt lat="38.4986610" lon="-0.6422060">
        <ele>868.5</ele>
        <time>2018-03-30T08:31:17Z</time>
      </trkpt>
      <trkpt lat="38.4986860" lon="-0.6422300">
        <ele>867.9</ele>
        <time>2018-03-30T08:31:18Z</time>
      </trkpt>
      <trkpt lat="38.4987180" lon="-0.6422250">
        <ele>867.5</ele>
        <time>2018-03-30T08:31:19Z</time>
      </trkpt>
      <trkpt lat="38.4987490" lon="-0.6422100">
        <ele>867.2</ele>
        <time>2018-03-30T08:31:20Z</time>
      </trkpt>
      <trkpt lat="38.4987890" lon="-0.6421920">
        <ele>866.7</ele>
        <time>2018-03-30T08:31:21Z</time>
      </trkpt>
      <trkpt lat="38.4988430" lon="-0.6421810">
        <ele>866.1</ele>
        <time>2018-03-30T08:31:22Z</time>
      </trkpt>
      <trkpt lat="38.4988860" lon="-0.6421980">
        <ele>865.4</ele>
        <time>2018-03-30T08:31:23Z</time>
      </trkpt>
      <trkpt lat="38.4989210" lon="-0.6422350">
        <ele>864.7</ele>
        <time>2018-03-30T08:31:24Z</time>
      </trkpt>
      <trkpt lat="38.4989550" lon="-0.6422870">
        <ele>863.8</ele>
        <time>2018-03-30T08:31:25Z</time>
      </trkpt>
      <trkpt lat="38.4989610" lon="-0.6423670">
        <ele>862.6</ele>
        <time>2018-03-30T08:31:26Z</time>
      </trkpt>
      <trkpt lat="38.4989350" lon="-0.6424490">
        <ele>861.3</ele>
        <time>2018-03-30T08:31:27Z</time>
      </trkpt>
      <trkpt lat="38.4989030" lon="-0.6425480">
        <ele>860.2</ele>
        <time>2018-03-30T08:31:28Z</time>
      </trkpt>
      <trkpt lat="38.4988620" lon="-0.6426130">
        <ele>859.5</ele>
        <time>2018-03-30T08:31:29Z</time>
      </trkpt>
      <trkpt lat="38.4988150" lon="-0.6426750">
        <ele>858.7</ele>
        <time>2018-03-30T08:31:30Z</time>
      </trkpt>
      <trkpt lat="38.4987640" lon="-0.6427300">
        <ele>857.8</ele>
        <time>2018-03-30T08:31:31Z</time>
      </trkpt>
      <trkpt lat="38.4987210" lon="-0.6427810">
        <ele>857.0</ele>
        <time>2018-03-30T08:31:32Z</time>
      </trkpt>
      <trkpt lat="38.4986960" lon="-0.6428280">
        <ele>856.6</ele>
        <time>2018-03-30T08:31:33Z</time>
      </trkpt>
      <trkpt lat="38.4986910" lon="-0.6428850">
        <ele>855.9</ele>
        <time>2018-03-30T08:31:34Z</time>
      </trkpt>
      <trkpt lat="38.4987300" lon="-0.6429450">
        <ele>855.1</ele>
        <time>2018-03-30T08:31:35Z</time>
      </trkpt>
      <trkpt lat="38.4987440" lon="-0.6429950">
        <ele>854.6</ele>
        <time>2018-03-30T08:31:36Z</time>
      </trkpt>
      <trkpt lat="38.4987490" lon="-0.6430600">
        <ele>853.9</ele>
        <time>2018-03-30T08:31:37Z</time>
      </trkpt>
      <trkpt lat="38.4987580" lon="-0.6431400">
        <ele>853.2</ele>
        <time>2018-03-30T08:31:38Z</time>
      </trkpt>
      <trkpt lat="38.4987630" lon="-0.6432350">
        <ele>852.5</ele>
        <time>2018-03-30T08:31:39Z</time>
      </trkpt>
      <trkpt lat="38.4987760" lon="-0.6433330">
        <ele>851.6</ele>
        <time>2018-03-30T08:31:40Z</time>
      </trkpt>
      <trkpt lat="38.4987960" lon="-0.6434350">
        <ele>850.6</ele>
        <time>2018-03-30T08:31:41Z</time>
      </trkpt>
      <trkpt lat="38.4987980" lon="-0.6435700">
        <ele>849.1</ele>
        <time>2018-03-30T08:31:42Z</time>
      </trkpt>
      <trkpt lat="38.4987910" lon="-0.6436980">
        <ele>847.6</ele>
        <time>2018-03-30T08:31:43Z</time>
      </trkpt>
      <trkpt lat="38.4987870" lon="-0.6438210">
        <ele>845.9</ele>
        <time>2018-03-30T08:31:44Z</time>
      </trkpt>
      <trkpt lat="38.4987760" lon="-0.6439260">
        <ele>844.6</ele>
        <time>2018-03-30T08:31:45Z</time>
      </trkpt>
      <trkpt lat="38.4987530" lon="-0.6440110">
        <ele>843.5</ele>
        <time>2018-03-30T08:31:46Z</time>
      </trkpt>
      <trkpt lat="38.4987090" lon="-0.6440890">
        <ele>842.3</ele>
        <time>2018-03-30T08:31:47Z</time>
      </trkpt>
      <trkpt lat="38.4986730" lon="-0.6441510">
        <ele>841.2</ele>
        <time>2018-03-30T08:31:48Z</time>
      </trkpt>
      <trkpt lat="38.4986430" lon="-0.6442070">
        <ele>840.3</ele>
        <time>2018-03-30T08:31:49Z</time>
      </trkpt>
      <trkpt lat="38.4986150" lon="-0.6442530">
        <ele>839.7</ele>
        <time>2018-03-30T08:31:50Z</time>
      </trkpt>
      <trkpt lat="38.4985990" lon="-0.6443110">
        <ele>838.9</ele>
        <time>2018-03-30T08:31:51Z</time>
      </trkpt>
      <trkpt lat="38.4986200" lon="-0.6443740">
        <ele>838.1</ele>
        <time>2018-03-30T08:31:52Z</time>
      </trkpt>
      <trkpt lat="38.4986600" lon="-0.6444430">
        <ele>837.0</ele>
        <time>2018-03-30T08:31:53Z</time>
      </trkpt>
      <trkpt lat="38.4987110" lon="-0.6445140">
        <ele>835.3</ele>
        <time>2018-03-30T08:31:54Z</time>
      </trkpt>
      <trkpt lat="38.4987600" lon="-0.6445950">
        <ele>833.8</ele>
        <time>2018-03-30T08:31:55Z</time>
      </trkpt>
      <trkpt lat="38.4987780" lon="-0.6447220">
        <ele>831.9</ele>
        <time>2018-03-30T08:31:56Z</time>
      </trkpt>
      <trkpt lat="38.4988010" lon="-0.6448460">
        <ele>829.9</ele>
        <time>2018-03-30T08:31:57Z</time>
      </trkpt>
      <trkpt lat="38.4988200" lon="-0.6449600">
        <ele>827.3</ele>
        <time>2018-03-30T08:31:58Z</time>
      </trkpt>
      <trkpt lat="38.4988330" lon="-0.6450590">
        <ele>825.8</ele>
        <time>2018-03-30T08:31:59Z</time>
      </trkpt>
      <trkpt lat="38.4988470" lon="-0.6451390">
        <ele>824.2</ele>
        <time>2018-03-30T08:32:00Z</time>
      </trkpt>
      <trkpt lat="38.4988720" lon="-0.6451880">
        <ele>823.1</ele>
        <time>2018-03-30T08:32:01Z</time>
      </trkpt>
      <trkpt lat="38.4989060" lon="-0.6452310">
        <ele>821.9</ele>
        <time>2018-03-30T08:32:02Z</time>
      </trkpt>
      <trkpt lat="38.4989650" lon="-0.6452460">
        <ele>820.5</ele>
        <time>2018-03-30T08:32:03Z</time>
      </trkpt>
      <trkpt lat="38.4990070" lon="-0.6452340">
        <ele>819.8</ele>
        <time>2018-03-30T08:32:04Z</time>
      </trkpt>
      <trkpt lat="38.4990680" lon="-0.6451830">
        <ele>818.9</ele>
        <time>2018-03-30T08:32:05Z</time>
      </trkpt>
      <trkpt lat="38.4991170" lon="-0.6451200">
        <ele>818.1</ele>
        <time>2018-03-30T08:32:06Z</time>
      </trkpt>
      <trkpt lat="38.4991350" lon="-0.6450680">
        <ele>817.6</ele>
        <time>2018-03-30T08:32:07Z</time>
      </trkpt>
      <trkpt lat="38.4991500" lon="-0.6450250">
        <ele>817.4</ele>
        <time>2018-03-30T08:32:08Z</time>
      </trkpt>
      <trkpt lat="38.4991560" lon="-0.6450090">
        <ele>817.3</ele>
        <time>2018-03-30T08:32:09Z</time>
      </trkpt>
      <trkpt lat="38.4991600" lon="-0.6450110">
        <ele>817.0</ele>
        <time>2018-03-30T08:32:10Z</time>
      </trkpt>
      <trkpt lat="38.4992820" lon="-0.6450640">
        <ele>813.5</ele>
        <time>2018-03-30T08:32:33Z</time>
      </trkpt>
      <trkpt lat="38.4992830" lon="-0.6450690">
        <ele>813.4</ele>
        <time>2018-03-30T08:32:34Z</time>
      </trkpt>
      <trkpt lat="38.4992890" lon="-0.6450810">
        <ele>813.2</ele>
        <time>2018-03-30T08:32:35Z</time>
      </trkpt>
      <trkpt lat="38.4992910" lon="-0.6450900">
        <ele>813.0</ele>
        <time>2018-03-30T08:32:36Z</time>
      </trkpt>
      <trkpt lat="38.4992910" lon="-0.6450960">
        <ele>812.9</ele>
        <time>2018-03-30T08:32:37Z</time>
      </trkpt>
      <trkpt lat="38.4992930" lon="-0.6451060">
        <ele>812.7</ele>
        <time>2018-03-30T08:32:38Z</time>
      </trkpt>
      <trkpt lat="38.4993020" lon="-0.6451190">
        <ele>812.3</ele>
        <time>2018-03-30T08:32:39Z</time>
      </trkpt>
      <trkpt lat="38.4993030" lon="-0.6451340">
        <ele>812.1</ele>
        <time>2018-03-30T08:32:40Z</time>
      </trkpt>
      <trkpt lat="38.4993070" lon="-0.6451370">
        <ele>812.0</ele>
        <time>2018-03-30T08:32:41Z</time>
      </trkpt>
      <trkpt lat="38.4993110" lon="-0.6451410">
        <ele>811.9</ele>
        <time>2018-03-30T08:32:42Z</time>
      </trkpt>
      <trkpt lat="38.4993140" lon="-0.6451490">
        <ele>811.8</ele>
        <time>2018-03-30T08:32:43Z</time>
      </trkpt>
      <trkpt lat="38.4993190" lon="-0.6451580">
        <ele>811.6</ele>
        <time>2018-03-30T08:32:44Z</time>
      </trkpt>
      <trkpt lat="38.4993270" lon="-0.6451710">
        <ele>811.2</ele>
        <time>2018-03-30T08:32:45Z</time>
      </trkpt>
      <trkpt lat="38.4993320" lon="-0.6451840">
        <ele>811.0</ele>
        <time>2018-03-30T08:32:46Z</time>
      </trkpt>
      <trkpt lat="38.4993390" lon="-0.6451970">
        <ele>810.8</ele>
        <time>2018-03-30T08:32:47Z</time>
      </trkpt>
      <trkpt lat="38.4993350" lon="-0.6452050">
        <ele>810.6</ele>
        <time>2018-03-30T08:32:48Z</time>
      </trkpt>
      <trkpt lat="38.4993380" lon="-0.6452150">
        <ele>810.4</ele>
        <time>2018-03-30T08:32:49Z</time>
      </trkpt>
      <trkpt lat="38.4993390" lon="-0.6452250">
        <ele>810.3</ele>
        <time>2018-03-30T08:32:50Z</time>
      </trkpt>
      <trkpt lat="38.4993430" lon="-0.6452310">
        <ele>810.2</ele>
        <time>2018-03-30T08:32:51Z</time>
      </trkpt>
      <trkpt lat="38.4993470" lon="-0.6452390">
        <ele>810.0</ele>
        <time>2018-03-30T08:32:52Z</time>
      </trkpt>
      <trkpt lat="38.4993560" lon="-0.6452460">
        <ele>809.6</ele>
        <time>2018-03-30T08:32:53Z</time>
      </trkpt>
      <trkpt lat="38.4993610" lon="-0.6452500">
        <ele>809.4</ele>
        <time>2018-03-30T08:32:54Z</time>
      </trkpt>
      <trkpt lat="38.4993650" lon="-0.6452520">
        <ele>809.3</ele>
        <time>2018-03-30T08:32:55Z</time>
      </trkpt>
      <trkpt lat="38.4993680" lon="-0.6452560">
        <ele>809.3</ele>
        <time>2018-03-30T08:32:56Z</time>
      </trkpt>
      <trkpt lat="38.4993710" lon="-0.6452610">
        <ele>809.2</ele>
        <time>2018-03-30T08:32:57Z</time>
      </trkpt>
      <trkpt lat="38.4993760" lon="-0.6452640">
        <ele>809.2</ele>
        <time>2018-03-30T08:32:58Z</time>
      </trkpt>
      <trkpt lat="38.4993840" lon="-0.6452710">
        <ele>809.1</ele>
        <time>2018-03-30T08:32:59Z</time>
      </trkpt>
      <trkpt lat="38.4993890" lon="-0.6452710">
        <ele>809.0</ele>
        <time>2018-03-30T08:33:00Z</time>
      </trkpt>
      <trkpt lat="38.4993920" lon="-0.6452750">
        <ele>809.0</ele>
        <time>2018-03-30T08:33:01Z</time>
      </trkpt>
      <trkpt lat="38.4993970" lon="-0.6452770">
        <ele>809.0</ele>
        <time>2018-03-30T08:33:02Z</time>
      </trkpt>
      <trkpt lat="38.4994000" lon="-0.6452820">
        <ele>808.9</ele>
        <time>2018-03-30T08:33:03Z</time>
      </trkpt>
      <trkpt lat="38.4993970" lon="-0.6452890">
        <ele>808.9</ele>
        <time>2018-03-30T08:33:04Z</time>
      </trkpt>
      <trkpt lat="38.4993940" lon="-0.6452980">
        <ele>808.8</ele>
        <time>2018-03-30T08:33:05Z</time>
      </trkpt>
      <trkpt lat="38.4993970" lon="-0.6453140">
        <ele>808.7</ele>
        <time>2018-03-30T08:33:06Z</time>
      </trkpt>
      <trkpt lat="38.4993980" lon="-0.6453220">
        <ele>808.7</ele>
        <time>2018-03-30T08:33:07Z</time>
      </trkpt>
      <trkpt lat="38.4994040" lon="-0.6453380">
        <ele>808.6</ele>
        <time>2018-03-30T08:33:08Z</time>
      </trkpt>
      <trkpt lat="38.4994010" lon="-0.6453490">
        <ele>808.5</ele>
        <time>2018-03-30T08:33:09Z</time>
      </trkpt>
      <trkpt lat="38.4993980" lon="-0.6453570">
        <ele>808.5</ele>
        <time>2018-03-30T08:33:10Z</time>
      </trkpt>
      <trkpt lat="38.4993960" lon="-0.6453670">
        <ele>808.4</ele>
        <time>2018-03-30T08:33:11Z</time>
      </trkpt>
      <trkpt lat="38.4993930" lon="-0.6453790">
        <ele>808.3</ele>
        <time>2018-03-30T08:33:12Z</time>
      </trkpt>
      <trkpt lat="38.4993870" lon="-0.6453870">
        <ele>808.2</ele>
        <time>2018-03-30T08:33:13Z</time>
      </trkpt>
      <trkpt lat="38.4993830" lon="-0.6453930">
        <ele>808.1</ele>
        <time>2018-03-30T08:33:14Z</time>
      </trkpt>
      <trkpt lat="38.4993810" lon="-0.6453910">
        <ele>808.1</ele>
        <time>2018-03-30T08:33:15Z</time>
      </trkpt>
      <trkpt lat="38.4993780" lon="-0.6453940">
        <ele>808.0</ele>
        <time>2018-03-30T08:33:16Z</time>
      </trkpt>
      <trkpt lat="38.4993780" lon="-0.6453950">
        <ele>808.0</ele>
        <time>2018-03-30T08:33:17Z</time>
      </trkpt>
      <trkpt lat="38.4993700" lon="-0.6454000">
        <ele>807.9</ele>
        <time>2018-03-30T08:33:18Z</time>
      </trkpt>
      <trkpt lat="38.4993560" lon="-0.6454080">
        <ele>807.7</ele>
        <time>2018-03-30T08:33:19Z</time>
      </trkpt>
      <trkpt lat="38.4993440" lon="-0.6454150">
        <ele>807.5</ele>
        <time>2018-03-30T08:33:20Z</time>
      </trkpt>
      <trkpt lat="38.4993300" lon="-0.6454250">
        <ele>807.4</ele>
        <time>2018-03-30T08:33:21Z</time>
      </trkpt>
      <trkpt lat="38.4993150" lon="-0.6454440">
        <ele>807.2</ele>
        <time>2018-03-30T08:33:22Z</time>
      </trkpt>
      <trkpt lat="38.4992980" lon="-0.6454680">
        <ele>807.0</ele>
        <time>2018-03-30T08:33:23Z</time>
      </trkpt>
      <trkpt lat="38.4992890" lon="-0.6454980">
        <ele>806.8</ele>
        <time>2018-03-30T08:33:24Z</time>
      </trkpt>
      <trkpt lat="38.4992630" lon="-0.6455520">
        <ele>806.2</ele>
        <time>2018-03-30T08:33:25Z</time>
      </trkpt>
      <trkpt lat="38.4992450" lon="-0.6455890">
        <ele>805.7</ele>
        <time>2018-03-30T08:33:26Z</time>
      </trkpt>
      <trkpt lat="38.4992450" lon="-0.6456110">
        <ele>805.4</ele>
        <time>2018-03-30T08:33:27Z</time>
      </trkpt>
      <trkpt lat="38.4992400" lon="-0.6456470">
        <ele>805.0</ele>
        <time>2018-03-30T08:33:28Z</time>
      </trkpt>
      <trkpt lat="38.4992370" lon="-0.6456700">
        <ele>804.8</ele>
        <time>2018-03-30T08:33:29Z</time>
      </trkpt>
      <trkpt lat="38.4992450" lon="-0.6456950">
        <ele>804.6</ele>
        <time>2018-03-30T08:33:30Z</time>
      </trkpt>
      <trkpt lat="38.4992590" lon="-0.6457080">
        <ele>804.4</ele>
        <time>2018-03-30T08:33:31Z</time>
      </trkpt>
      <trkpt lat="38.4992640" lon="-0.6457250">
        <ele>804.3</ele>
        <time>2018-03-30T08:33:32Z</time>
      </trkpt>
      <trkpt lat="38.4992660" lon="-0.6457390">
        <ele>804.2</ele>
        <time>2018-03-30T08:33:33Z</time>
      </trkpt>
      <trkpt lat="38.4992590" lon="-0.6457480">
        <ele>804.1</ele>
        <time>2018-03-30T08:33:34Z</time>
      </trkpt>
      <trkpt lat="38.4992570" lon="-0.6457540">
        <ele>804.1</ele>
        <time>2018-03-30T08:33:35Z</time>
      </trkpt>
      <trkpt lat="38.4992550" lon="-0.6457590">
        <ele>804.0</ele>
        <time>2018-03-30T08:33:36Z</time>
      </trkpt>
      <trkpt lat="38.4992550" lon="-0.6457670">
        <ele>804.0</ele>
        <time>2018-03-30T08:33:37Z</time>
      </trkpt>
      <trkpt lat="38.4992500" lon="-0.6457820">
        <ele>803.9</ele>
        <time>2018-03-30T08:33:38Z</time>
      </trkpt>
      <trkpt lat="38.4992510" lon="-0.6457910">
        <ele>803.9</ele>
        <time>2018-03-30T08:33:39Z</time>
      </trkpt>
      <trkpt lat="38.4992470" lon="-0.6458110">
        <ele>803.8</ele>
        <time>2018-03-30T08:33:40Z</time>
      </trkpt>
      <trkpt lat="38.4992550" lon="-0.6458280">
        <ele>803.7</ele>
        <time>2018-03-30T08:33:41Z</time>
      </trkpt>
      <trkpt lat="38.4992610" lon="-0.6458440">
        <ele>803.5</ele>
        <time>2018-03-30T08:33:42Z</time>
      </trkpt>
      <trkpt lat="38.4992730" lon="-0.6458640">
        <ele>803.2</ele>
        <time>2018-03-30T08:33:43Z</time>
      </trkpt>
      <trkpt lat="38.4992950" lon="-0.6458910">
        <ele>802.9</ele>
        <time>2018-03-30T08:33:44Z</time>
      </trkpt>
      <trkpt lat="38.4993050" lon="-0.6459130">
        <ele>802.8</ele>
        <time>2018-03-30T08:33:45Z</time>
      </trkpt>
      <trkpt lat="38.4993120" lon="-0.6459320">
        <ele>802.6</ele>
        <time>2018-03-30T08:33:46Z</time>
      </trkpt>
      <trkpt lat="38.4993270" lon="-0.6459450">
        <ele>802.4</ele>
        <time>2018-03-30T08:33:47Z</time>
      </trkpt>
      <trkpt lat="38.4993440" lon="-0.6459640">
        <ele>802.2</ele>
        <time>2018-03-30T08:33:48Z</time>
      </trkpt>
      <trkpt lat="38.4993540" lon="-0.6459790">
        <ele>802.0</ele>
        <time>2018-03-30T08:33:49Z</time>
      </trkpt>
      <trkpt lat="38.4993590" lon="-0.6459860">
        <ele>802.0</ele>
        <time>2018-03-30T08:33:50Z</time>
      </trkpt>
      <trkpt lat="38.4993660" lon="-0.6459960">
        <ele>801.9</ele>
        <time>2018-03-30T08:33:51Z</time>
      </trkpt>
      <trkpt lat="38.4993770" lon="-0.6460150">
        <ele>801.7</ele>
        <time>2018-03-30T08:33:52Z</time>
      </trkpt>
      <trkpt lat="38.4993850" lon="-0.6460350">
        <ele>801.4</ele>
        <time>2018-03-30T08:33:53Z</time>
      </trkpt>
      <trkpt lat="38.4993930" lon="-0.6460540">
        <ele>801.2</ele>
        <time>2018-03-30T08:33:54Z</time>
      </trkpt>
      <trkpt lat="38.4994060" lon="-0.6460720">
        <ele>801.1</ele>
        <time>2018-03-30T08:33:55Z</time>
      </trkpt>
      <trkpt lat="38.4994190" lon="-0.6460890">
        <ele>800.8</ele>
        <time>2018-03-30T08:33:56Z</time>
      </trkpt>
      <trkpt lat="38.4994270" lon="-0.6461070">
        <ele>800.6</ele>
        <time>2018-03-30T08:33:57Z</time>
      </trkpt>
      <trkpt lat="38.4994320" lon="-0.6461200">
        <ele>800.6</ele>
        <time>2018-03-30T08:33:58Z</time>
      </trkpt>
      <trkpt lat="38.4994370" lon="-0.6461370">
        <ele>800.5</ele>
        <time>2018-03-30T08:33:59Z</time>
      </trkpt>
      <trkpt lat="38.4994420" lon="-0.6461530">
        <ele>800.4</ele>
        <time>2018-03-30T08:34:00Z</time>
      </trkpt>
      <trkpt lat="38.4994460" lon="-0.6461690">
        <ele>800.3</ele>
        <time>2018-03-30T08:34:01Z</time>
      </trkpt>
      <trkpt lat="38.4994460" lon="-0.6461860">
        <ele>800.2</ele>
        <time>2018-03-30T08:34:02Z</time>
      </trkpt>
      <trkpt lat="38.4994380" lon="-0.6462120">
        <ele>800.0</ele>
        <time>2018-03-30T08:34:03Z</time>
      </trkpt>
      <trkpt lat="38.4994140" lon="-0.6462620">
        <ele>799.6</ele>
        <time>2018-03-30T08:34:04Z</time>
      </trkpt>
      <trkpt lat="38.4994080" lon="-0.6463020">
        <ele>799.4</ele>
        <time>2018-03-30T08:34:05Z</time>
      </trkpt>
      <trkpt lat="38.4993930" lon="-0.6463240">
        <ele>799.2</ele>
        <time>2018-03-30T08:34:06Z</time>
      </trkpt>
      <trkpt lat="38.4993820" lon="-0.6463490">
        <ele>799.0</ele>
        <time>2018-03-30T08:34:07Z</time>
      </trkpt>
      <trkpt lat="38.4993780" lon="-0.6463670">
        <ele>798.9</ele>
        <time>2018-03-30T08:34:08Z</time>
      </trkpt>
      <trkpt lat="38.4993730" lon="-0.6463830">
        <ele>798.8</ele>
        <time>2018-03-30T08:34:09Z</time>
      </trkpt>
      <trkpt lat="38.4993700" lon="-0.6464030">
        <ele>798.7</ele>
        <time>2018-03-30T08:34:10Z</time>
      </trkpt>
      <trkpt lat="38.4993660" lon="-0.6464260">
        <ele>798.4</ele>
        <time>2018-03-30T08:34:11Z</time>
      </trkpt>
      <trkpt lat="38.4993540" lon="-0.6464560">
        <ele>798.1</ele>
        <time>2018-03-30T08:34:12Z</time>
      </trkpt>
      <trkpt lat="38.4993320" lon="-0.6464630">
        <ele>797.9</ele>
        <time>2018-03-30T08:34:13Z</time>
      </trkpt>
      <trkpt lat="38.4993120" lon="-0.6464680">
        <ele>797.8</ele>
        <time>2018-03-30T08:34:14Z</time>
      </trkpt>
      <trkpt lat="38.4992920" lon="-0.6464820">
        <ele>797.5</ele>
        <time>2018-03-30T08:34:15Z</time>
      </trkpt>
      <trkpt lat="38.4992580" lon="-0.6465060">
        <ele>797.0</ele>
        <time>2018-03-30T08:34:16Z</time>
      </trkpt>
      <trkpt lat="38.4992430" lon="-0.6465170">
        <ele>796.8</ele>
        <time>2018-03-30T08:34:17Z</time>
      </trkpt>
      <trkpt lat="38.4992120" lon="-0.6465490">
        <ele>796.5</ele>
        <time>2018-03-30T08:34:18Z</time>
      </trkpt>
      <trkpt lat="38.4991960" lon="-0.6465740">
        <ele>796.2</ele>
        <time>2018-03-30T08:34:19Z</time>
      </trkpt>
      <trkpt lat="38.4991780" lon="-0.6466070">
        <ele>795.9</ele>
        <time>2018-03-30T08:34:20Z</time>
      </trkpt>
      <trkpt lat="38.4991600" lon="-0.6466410">
        <ele>795.5</ele>
        <time>2018-03-30T08:34:21Z</time>
      </trkpt>
      <trkpt lat="38.4991290" lon="-0.6467060">
        <ele>795.1</ele>
        <time>2018-03-30T08:34:22Z</time>
      </trkpt>
      <trkpt lat="38.4991130" lon="-0.6467790">
        <ele>794.6</ele>
        <time>2018-03-30T08:34:23Z</time>
      </trkpt>
      <trkpt lat="38.4991070" lon="-0.6468280">
        <ele>794.1</ele>
        <time>2018-03-30T08:34:24Z</time>
      </trkpt>
      <trkpt lat="38.4990880" lon="-0.6468940">
        <ele>793.5</ele>
        <time>2018-03-30T08:34:25Z</time>
      </trkpt>
      <trkpt lat="38.4990920" lon="-0.6469560">
        <ele>792.9</ele>
        <time>2018-03-30T08:34:26Z</time>
      </trkpt>
      <trkpt lat="38.4990860" lon="-0.6470090">
        <ele>792.4</ele>
        <time>2018-03-30T08:34:27Z</time>
      </trkpt>
      <trkpt lat="38.4990830" lon="-0.6470740">
        <ele>791.8</ele>
        <time>2018-03-30T08:34:28Z</time>
      </trkpt>
      <trkpt lat="38.4990830" lon="-0.6471570">
        <ele>791.1</ele>
        <time>2018-03-30T08:34:29Z</time>
      </trkpt>
      <trkpt lat="38.4991110" lon="-0.6472450">
        <ele>790.2</ele>
        <time>2018-03-30T08:34:30Z</time>
      </trkpt>
      <trkpt lat="38.4991130" lon="-0.6473170">
        <ele>789.6</ele>
        <time>2018-03-30T08:34:31Z</time>
      </trkpt>
      <trkpt lat="38.4991260" lon="-0.6473830">
        <ele>789.2</ele>
        <time>2018-03-30T08:34:32Z</time>
      </trkpt>
      <trkpt lat="38.4991290" lon="-0.6474640">
        <ele>788.6</ele>
        <time>2018-03-30T08:34:33Z</time>
      </trkpt>
      <trkpt lat="38.4991450" lon="-0.6475470">
        <ele>788.1</ele>
        <time>2018-03-30T08:34:34Z</time>
      </trkpt>
      <trkpt lat="38.4991550" lon="-0.6476240">
        <ele>787.5</ele>
        <time>2018-03-30T08:34:35Z</time>
      </trkpt>
      <trkpt lat="38.4991560" lon="-0.6476880">
        <ele>787.1</ele>
        <time>2018-03-30T08:34:36Z</time>
      </trkpt>
      <trkpt lat="38.4991600" lon="-0.6477460">
        <ele>786.6</ele>
        <time>2018-03-30T08:34:37Z</time>
      </trkpt>
      <trkpt lat="38.4991550" lon="-0.6478010">
        <ele>786.3</ele>
        <time>2018-03-30T08:34:38Z</time>
      </trkpt>
      <trkpt lat="38.4991000" lon="-0.6478190">
        <ele>785.9</ele>
        <time>2018-03-30T08:34:39Z</time>
      </trkpt>
      <trkpt lat="38.4990810" lon="-0.6478090">
        <ele>785.7</ele>
        <time>2018-03-30T08:34:40Z</time>
      </trkpt>
      <trkpt lat="38.4990700" lon="-0.6478330">
        <ele>785.4</ele>
        <time>2018-03-30T08:34:41Z</time>
      </trkpt>
      <trkpt lat="38.4990580" lon="-0.6478620">
        <ele>785.2</ele>
        <time>2018-03-30T08:34:42Z</time>
      </trkpt>
      <trkpt lat="38.4990490" lon="-0.6478920">
        <ele>784.9</ele>
        <time>2018-03-30T08:34:43Z</time>
      </trkpt>
      <trkpt lat="38.4990390" lon="-0.6479180">
        <ele>784.6</ele>
        <time>2018-03-30T08:34:44Z</time>
      </trkpt>
      <trkpt lat="38.4990240" lon="-0.6479460">
        <ele>784.4</ele>
        <time>2018-03-30T08:34:45Z</time>
      </trkpt>
      <trkpt lat="38.4990080" lon="-0.6479740">
        <ele>784.1</ele>
        <time>2018-03-30T08:34:46Z</time>
      </trkpt>
      <trkpt lat="38.4989930" lon="-0.6480060">
        <ele>783.8</ele>
        <time>2018-03-30T08:34:47Z</time>
      </trkpt>
      <trkpt lat="38.4989840" lon="-0.6480310">
        <ele>783.6</ele>
        <time>2018-03-30T08:34:48Z</time>
      </trkpt>
      <trkpt lat="38.4989790" lon="-0.6480590">
        <ele>783.3</ele>
        <time>2018-03-30T08:34:49Z</time>
      </trkpt>
      <trkpt lat="38.4989710" lon="-0.6480930">
        <ele>782.9</ele>
        <time>2018-03-30T08:34:50Z</time>
      </trkpt>
      <trkpt lat="38.4989760" lon="-0.6481100">
        <ele>782.8</ele>
        <time>2018-03-30T08:34:51Z</time>
      </trkpt>
      <trkpt lat="38.4989680" lon="-0.6481430">
        <ele>782.6</ele>
        <time>2018-03-30T08:34:52Z</time>
      </trkpt>
      <trkpt lat="38.4989580" lon="-0.6481770">
        <ele>782.4</ele>
        <time>2018-03-30T08:34:53Z</time>
      </trkpt>
      <trkpt lat="38.4989500" lon="-0.6482120">
        <ele>782.1</ele>
        <time>2018-03-30T08:34:54Z</time>
      </trkpt>
      <trkpt lat="38.4989460" lon="-0.6482450">
        <ele>781.9</ele>
        <time>2018-03-30T08:34:55Z</time>
      </trkpt>
      <trkpt lat="38.4989430" lon="-0.6482800">
        <ele>781.7</ele>
        <time>2018-03-30T08:34:56Z</time>
      </trkpt>
      <trkpt lat="38.4989540" lon="-0.6483090">
        <ele>781.5</ele>
        <time>2018-03-30T08:34:57Z</time>
      </trkpt>
      <trkpt lat="38.4989610" lon="-0.6483350">
        <ele>781.3</ele>
        <time>2018-03-30T08:34:58Z</time>
      </trkpt>
      <trkpt lat="38.4989600" lon="-0.6483590">
        <ele>781.2</ele>
        <time>2018-03-30T08:34:59Z</time>
      </trkpt>
      <trkpt lat="38.4989590" lon="-0.6483830">
        <ele>781.0</ele>
        <time>2018-03-30T08:35:00Z</time>
      </trkpt>
      <trkpt lat="38.4989670" lon="-0.6484100">
        <ele>780.9</ele>
        <time>2018-03-30T08:35:01Z</time>
      </trkpt>
      <trkpt lat="38.4989780" lon="-0.6484380">
        <ele>780.6</ele>
        <time>2018-03-30T08:35:02Z</time>
      </trkpt>
      <trkpt lat="38.4989940" lon="-0.6484730">
        <ele>780.2</ele>
        <time>2018-03-30T08:35:03Z</time>
      </trkpt>
      <trkpt lat="38.4990030" lon="-0.6484960">
        <ele>780.0</ele>
        <time>2018-03-30T08:35:04Z</time>
      </trkpt>
      <trkpt lat="38.4990320" lon="-0.6485300">
        <ele>779.3</ele>
        <time>2018-03-30T08:35:05Z</time>
      </trkpt>
      <trkpt lat="38.4990320" lon="-0.6485500">
        <ele>779.1</ele>
        <time>2018-03-30T08:35:06Z</time>
      </trkpt>
      <trkpt lat="38.4990430" lon="-0.6485630">
        <ele>778.9</ele>
        <time>2018-03-30T08:35:07Z</time>
      </trkpt>
      <trkpt lat="38.4990480" lon="-0.6485750">
        <ele>778.7</ele>
        <time>2018-03-30T08:35:08Z</time>
      </trkpt>
      <trkpt lat="38.4990480" lon="-0.6485850">
        <ele>778.5</ele>
        <time>2018-03-30T08:35:09Z</time>
      </trkpt>
      <trkpt lat="38.4990680" lon="-0.6486010">
        <ele>778.1</ele>
        <time>2018-03-30T08:35:10Z</time>
      </trkpt>
      <trkpt lat="38.4990730" lon="-0.6486080">
        <ele>777.9</ele>
        <time>2018-03-30T08:35:11Z</time>
      </trkpt>
      <trkpt lat="38.4990760" lon="-0.6486170">
        <ele>777.8</ele>
        <time>2018-03-30T08:35:12Z</time>
      </trkpt>
      <trkpt lat="38.4990830" lon="-0.6486260">
        <ele>777.6</ele>
        <time>2018-03-30T08:35:13Z</time>
      </trkpt>
      <trkpt lat="38.4990890" lon="-0.6486440">
        <ele>777.4</ele>
        <time>2018-03-30T08:35:14Z</time>
      </trkpt>
      <trkpt lat="38.4990880" lon="-0.6486570">
        <ele>777.2</ele>
        <time>2018-03-30T08:35:15Z</time>
      </trkpt>
      <trkpt lat="38.4990850" lon="-0.6486770">
        <ele>777.0</ele>
        <time>2018-03-30T08:35:16Z</time>
      </trkpt>
      <trkpt lat="38.4990860" lon="-0.6487100">
        <ele>776.7</ele>
        <time>2018-03-30T08:35:17Z</time>
      </trkpt>
      <trkpt lat="38.4990860" lon="-0.6487350">
        <ele>776.5</ele>
        <time>2018-03-30T08:35:18Z</time>
      </trkpt>
      <trkpt lat="38.4990820" lon="-0.6487610">
        <ele>776.3</ele>
        <time>2018-03-30T08:35:19Z</time>
      </trkpt>
      <trkpt lat="38.4990830" lon="-0.6487930">
        <ele>776.0</ele>
        <time>2018-03-30T08:35:20Z</time>
      </trkpt>
      <trkpt lat="38.4990860" lon="-0.6488310">
        <ele>775.6</ele>
        <time>2018-03-30T08:35:21Z</time>
      </trkpt>
      <trkpt lat="38.4990890" lon="-0.6488780">
        <ele>775.2</ele>
        <time>2018-03-30T08:35:22Z</time>
      </trkpt>
      <trkpt lat="38.4990850" lon="-0.6489200">
        <ele>774.9</ele>
        <time>2018-03-30T08:35:23Z</time>
      </trkpt>
      <trkpt lat="38.4990840" lon="-0.6489620">
        <ele>774.5</ele>
        <time>2018-03-30T08:35:24Z</time>
      </trkpt>
      <trkpt lat="38.4990840" lon="-0.6490010">
        <ele>774.3</ele>
        <time>2018-03-30T08:35:25Z</time>
      </trkpt>
      <trkpt lat="38.4990910" lon="-0.6490360">
        <ele>774.1</ele>
        <time>2018-03-30T08:35:26Z</time>
      </trkpt>
      <trkpt lat="38.4991000" lon="-0.6490730">
        <ele>773.8</ele>
        <time>2018-03-30T08:35:27Z</time>
      </trkpt>
      <trkpt lat="38.4991070" lon="-0.6491180">
        <ele>773.6</ele>
        <time>2018-03-30T08:35:28Z</time>
      </trkpt>
      <trkpt lat="38.4991090" lon="-0.6491720">
        <ele>773.2</ele>
        <time>2018-03-30T08:35:29Z</time>
      </trkpt>
      <trkpt lat="38.4991130" lon="-0.6492420">
        <ele>772.1</ele>
        <time>2018-03-30T08:35:30Z</time>
      </trkpt>
      <trkpt lat="38.4991140" lon="-0.6492990">
        <ele>771.3</ele>
        <time>2018-03-30T08:35:31Z</time>
      </trkpt>
      <trkpt lat="38.4991160" lon="-0.6493520">
        <ele>770.8</ele>
        <time>2018-03-30T08:35:32Z</time>
      </trkpt>
      <trkpt lat="38.4991020" lon="-0.6493900">
        <ele>770.4</ele>
        <time>2018-03-30T08:35:33Z</time>
      </trkpt>
      <trkpt lat="38.4991050" lon="-0.6494260">
        <ele>770.1</ele>
        <time>2018-03-30T08:35:34Z</time>
      </trkpt>
      <trkpt lat="38.4991090" lon="-0.6494570">
        <ele>769.8</ele>
        <time>2018-03-30T08:35:35Z</time>
      </trkpt>
      <trkpt lat="38.4990840" lon="-0.6494710">
        <ele>769.4</ele>
        <time>2018-03-30T08:35:36Z</time>
      </trkpt>
      <trkpt lat="38.4990790" lon="-0.6495030">
        <ele>769.0</ele>
        <time>2018-03-30T08:35:37Z</time>
      </trkpt>
      <trkpt lat="38.4990740" lon="-0.6495430">
        <ele>768.5</ele>
        <time>2018-03-30T08:35:38Z</time>
      </trkpt>
      <trkpt lat="38.4990600" lon="-0.6495790">
        <ele>768.0</ele>
        <time>2018-03-30T08:35:39Z</time>
      </trkpt>
      <trkpt lat="38.4990430" lon="-0.6496160">
        <ele>767.4</ele>
        <time>2018-03-30T08:35:40Z</time>
      </trkpt>
      <trkpt lat="38.4990270" lon="-0.6496580">
        <ele>767.0</ele>
        <time>2018-03-30T08:35:41Z</time>
      </trkpt>
      <trkpt lat="38.4989950" lon="-0.6497180">
        <ele>766.2</ele>
        <time>2018-03-30T08:35:42Z</time>
      </trkpt>
      <trkpt lat="38.4989810" lon="-0.6497570">
        <ele>765.9</ele>
        <time>2018-03-30T08:35:43Z</time>
      </trkpt>
      <trkpt lat="38.4989610" lon="-0.6498000">
        <ele>765.5</ele>
        <time>2018-03-30T08:35:44Z</time>
      </trkpt>
      <trkpt lat="38.4989410" lon="-0.6498470">
        <ele>764.8</ele>
        <time>2018-03-30T08:35:45Z</time>
      </trkpt>
      <trkpt lat="38.4989240" lon="-0.6499070">
        <ele>764.0</ele>
        <time>2018-03-30T08:35:46Z</time>
      </trkpt>
      <trkpt lat="38.4989100" lon="-0.6499530">
        <ele>763.6</ele>
        <time>2018-03-30T08:35:47Z</time>
      </trkpt>
      <trkpt lat="38.4988940" lon="-0.6499960">
        <ele>763.2</ele>
        <time>2018-03-30T08:35:48Z</time>
      </trkpt>
      <trkpt lat="38.4988810" lon="-0.6500380">
        <ele>762.8</ele>
        <time>2018-03-30T08:35:49Z</time>
      </trkpt>
      <trkpt lat="38.4988690" lon="-0.6500780">
        <ele>762.5</ele>
        <time>2018-03-30T08:35:50Z</time>
      </trkpt>
      <trkpt lat="38.4988580" lon="-0.6501200">
        <ele>762.0</ele>
        <time>2018-03-30T08:35:51Z</time>
      </trkpt>
      <trkpt lat="38.4988480" lon="-0.6501500">
        <ele>761.6</ele>
        <time>2018-03-30T08:35:52Z</time>
      </trkpt>
      <trkpt lat="38.4988350" lon="-0.6501830">
        <ele>761.1</ele>
        <time>2018-03-30T08:35:53Z</time>
      </trkpt>
      <trkpt lat="38.4988140" lon="-0.6502090">
        <ele>760.7</ele>
        <time>2018-03-30T08:35:54Z</time>
      </trkpt>
      <trkpt lat="38.4987890" lon="-0.6502320">
        <ele>760.3</ele>
        <time>2018-03-30T08:35:55Z</time>
      </trkpt>
      <trkpt lat="38.4987700" lon="-0.6502640">
        <ele>759.7</ele>
        <time>2018-03-30T08:35:56Z</time>
      </trkpt>
      <trkpt lat="38.4987470" lon="-0.6502880">
        <ele>759.4</ele>
        <time>2018-03-30T08:35:57Z</time>
      </trkpt>
      <trkpt lat="38.4987160" lon="-0.6503260">
        <ele>759.0</ele>
        <time>2018-03-30T08:35:58Z</time>
      </trkpt>
      <trkpt lat="38.4986970" lon="-0.6503630">
        <ele>758.4</ele>
        <time>2018-03-30T08:35:59Z</time>
      </trkpt>
      <trkpt lat="38.4986810" lon="-0.6503970">
        <ele>757.8</ele>
        <time>2018-03-30T08:36:00Z</time>
      </trkpt>
      <trkpt lat="38.4986650" lon="-0.6504290">
        <ele>757.3</ele>
        <time>2018-03-30T08:36:01Z</time>
      </trkpt>
      <trkpt lat="38.4986530" lon="-0.6504590">
        <ele>757.0</ele>
        <time>2018-03-30T08:36:02Z</time>
      </trkpt>
      <trkpt lat="38.4986470" lon="-0.6504960">
        <ele>756.6</ele>
        <time>2018-03-30T08:36:03Z</time>
      </trkpt>
      <trkpt lat="38.4986340" lon="-0.6505600">
        <ele>756.0</ele>
        <time>2018-03-30T08:36:04Z</time>
      </trkpt>
      <trkpt lat="38.4986170" lon="-0.6506310">
        <ele>755.2</ele>
        <time>2018-03-30T08:36:05Z</time>
      </trkpt>
      <trkpt lat="38.4986040" lon="-0.6506960">
        <ele>754.5</ele>
        <time>2018-03-30T08:36:06Z</time>
      </trkpt>
      <trkpt lat="38.4985810" lon="-0.6507430">
        <ele>753.9</ele>
        <time>2018-03-30T08:36:07Z</time>
      </trkpt>
      <trkpt lat="38.4985490" lon="-0.6507840">
        <ele>753.4</ele>
        <time>2018-03-30T08:36:08Z</time>
      </trkpt>
      <trkpt lat="38.4985040" lon="-0.6508180">
        <ele>752.9</ele>
        <time>2018-03-30T08:36:09Z</time>
      </trkpt>
      <trkpt lat="38.4984620" lon="-0.6508540">
        <ele>752.2</ele>
        <time>2018-03-30T08:36:10Z</time>
      </trkpt>
      <trkpt lat="38.4984300" lon="-0.6508650">
        <ele>751.8</ele>
        <time>2018-03-30T08:36:11Z</time>
      </trkpt>
      <trkpt lat="38.4983900" lon="-0.6508750">
        <ele>751.0</ele>
        <time>2018-03-30T08:36:12Z</time>
      </trkpt>
      <trkpt lat="38.4983560" lon="-0.6508680">
        <ele>750.3</ele>
        <time>2018-03-30T08:36:13Z</time>
      </trkpt>
      <trkpt lat="38.4983160" lon="-0.6508650">
        <ele>749.6</ele>
        <time>2018-03-30T08:36:14Z</time>
      </trkpt>
      <trkpt lat="38.4982840" lon="-0.6508530">
        <ele>748.9</ele>
        <time>2018-03-30T08:36:15Z</time>
      </trkpt>
      <trkpt lat="38.4982510" lon="-0.6508530">
        <ele>748.3</ele>
        <time>2018-03-30T08:36:16Z</time>
      </trkpt>
      <trkpt lat="38.4982170" lon="-0.6508560">
        <ele>747.5</ele>
        <time>2018-03-30T08:36:17Z</time>
      </trkpt>
      <trkpt lat="38.4982130" lon="-0.6508550">
        <ele>747.4</ele>
        <time>2018-03-30T08:36:18Z</time>
      </trkpt>
      <trkpt lat="38.4982020" lon="-0.6508690">
        <ele>747.2</ele>
        <time>2018-03-30T08:36:19Z</time>
      </trkpt>
      <trkpt lat="38.4981930" lon="-0.6508850">
        <ele>746.9</ele>
        <time>2018-03-30T08:36:20Z</time>
      </trkpt>
      <trkpt lat="38.4981800" lon="-0.6509360">
        <ele>746.0</ele>
        <time>2018-03-30T08:36:21Z</time>
      </trkpt>
      <trkpt lat="38.4981640" lon="-0.6509820">
        <ele>745.3</ele>
        <time>2018-03-30T08:36:22Z</time>
      </trkpt>
      <trkpt lat="38.4981680" lon="-0.6510520">
        <ele>744.5</ele>
        <time>2018-03-30T08:36:23Z</time>
      </trkpt>
      <trkpt lat="38.4981710" lon="-0.6511300">
        <ele>743.5</ele>
        <time>2018-03-30T08:36:24Z</time>
      </trkpt>
      <trkpt lat="38.4981820" lon="-0.6512000">
        <ele>742.8</ele>
        <time>2018-03-30T08:36:25Z</time>
      </trkpt>
      <trkpt lat="38.4981910" lon="-0.6512620">
        <ele>742.0</ele>
        <time>2018-03-30T08:36:26Z</time>
      </trkpt>
      <trkpt lat="38.4981950" lon="-0.6513190">
        <ele>741.3</ele>
        <time>2018-03-30T08:36:27Z</time>
      </trkpt>
      <trkpt lat="38.4981980" lon="-0.6513650">
        <ele>740.7</ele>
        <time>2018-03-30T08:36:28Z</time>
      </trkpt>
      <trkpt lat="38.4981820" lon="-0.6514120">
        <ele>740.2</ele>
        <time>2018-03-30T08:36:29Z</time>
      </trkpt>
      <trkpt lat="38.4981810" lon="-0.6514710">
        <ele>739.5</ele>
        <time>2018-03-30T08:36:30Z</time>
      </trkpt>
      <trkpt lat="38.4981480" lon="-0.6515000">
        <ele>738.8</ele>
        <time>2018-03-30T08:36:31Z</time>
      </trkpt>
      <trkpt lat="38.4981130" lon="-0.6515310">
        <ele>738.1</ele>
        <time>2018-03-30T08:36:32Z</time>
      </trkpt>
      <trkpt lat="38.4980780" lon="-0.6515640">
        <ele>737.5</ele>
        <time>2018-03-30T08:36:33Z</time>
      </trkpt>
      <trkpt lat="38.4980480" lon="-0.6515940">
        <ele>736.7</ele>
        <time>2018-03-30T08:36:34Z</time>
      </trkpt>
      <trkpt lat="38.4980150" lon="-0.6516230">
        <ele>736.1</ele>
        <time>2018-03-30T08:36:35Z</time>
      </trkpt>
      <trkpt lat="38.4979690" lon="-0.6516580">
        <ele>735.4</ele>
        <time>2018-03-30T08:36:36Z</time>
      </trkpt>
      <trkpt lat="38.4979320" lon="-0.6516950">
        <ele>734.7</ele>
        <time>2018-03-30T08:36:37Z</time>
      </trkpt>
      <trkpt lat="38.4979040" lon="-0.6517280">
        <ele>734.1</ele>
        <time>2018-03-30T08:36:38Z</time>
      </trkpt>
      <trkpt lat="38.4978720" lon="-0.6517590">
        <ele>733.3</ele>
        <time>2018-03-30T08:36:39Z</time>
      </trkpt>
      <trkpt lat="38.4978400" lon="-0.6518010">
        <ele>732.9</ele>
        <time>2018-03-30T08:36:40Z</time>
      </trkpt>
      <trkpt lat="38.4978150" lon="-0.6518460">
        <ele>732.4</ele>
        <time>2018-03-30T08:36:41Z</time>
      </trkpt>
      <trkpt lat="38.4977870" lon="-0.6518880">
        <ele>731.9</ele>
        <time>2018-03-30T08:36:42Z</time>
      </trkpt>
      <trkpt lat="38.4977620" lon="-0.6519350">
        <ele>731.5</ele>
        <time>2018-03-30T08:36:43Z</time>
      </trkpt>
      <trkpt lat="38.4977440" lon="-0.6519800">
        <ele>731.1</ele>
        <time>2018-03-30T08:36:44Z</time>
      </trkpt>
      <trkpt lat="38.4977190" lon="-0.6520210">
        <ele>730.7</ele>
        <time>2018-03-30T08:36:45Z</time>
      </trkpt>
      <trkpt lat="38.4976920" lon="-0.6520660">
        <ele>730.1</ele>
        <time>2018-03-30T08:36:46Z</time>
      </trkpt>
      <trkpt lat="38.4976600" lon="-0.6521210">
        <ele>729.2</ele>
        <time>2018-03-30T08:36:47Z</time>
      </trkpt>
      <trkpt lat="38.4976240" lon="-0.6521740">
        <ele>728.5</ele>
        <time>2018-03-30T08:36:48Z</time>
      </trkpt>
      <trkpt lat="38.4975920" lon="-0.6522110">
        <ele>727.8</ele>
        <time>2018-03-30T08:36:49Z</time>
      </trkpt>
      <trkpt lat="38.4975580" lon="-0.6522670">
        <ele>727.1</ele>
        <time>2018-03-30T08:36:50Z</time>
      </trkpt>
      <trkpt lat="38.4975310" lon="-0.6523090">
        <ele>726.6</ele>
        <time>2018-03-30T08:36:51Z</time>
      </trkpt>
      <trkpt lat="38.4975070" lon="-0.6523600">
        <ele>725.9</ele>
        <time>2018-03-30T08:36:52Z</time>
      </trkpt>
      <trkpt lat="38.4974830" lon="-0.6524060">
        <ele>725.3</ele>
        <time>2018-03-30T08:36:53Z</time>
      </trkpt>
      <trkpt lat="38.4974590" lon="-0.6524550">
        <ele>724.7</ele>
        <time>2018-03-30T08:36:54Z</time>
      </trkpt>
      <trkpt lat="38.4974330" lon="-0.6525090">
        <ele>724.1</ele>
        <time>2018-03-30T08:36:55Z</time>
      </trkpt>
      <trkpt lat="38.4974140" lon="-0.6525640">
        <ele>723.5</ele>
        <time>2018-03-30T08:36:56Z</time>
      </trkpt>
      <trkpt lat="38.4973920" lon="-0.6526140">
        <ele>723.0</ele>
        <time>2018-03-30T08:36:57Z</time>
      </trkpt>
      <trkpt lat="38.4973880" lon="-0.6526590">
        <ele>722.5</ele>
        <time>2018-03-30T08:36:58Z</time>
      </trkpt>
      <trkpt lat="38.4973730" lon="-0.6526950">
        <ele>722.2</ele>
        <time>2018-03-30T08:36:59Z</time>
      </trkpt>
      <trkpt lat="38.4973590" lon="-0.6527300">
        <ele>721.8</ele>
        <time>2018-03-30T08:37:00Z</time>
      </trkpt>
      <trkpt lat="38.4973490" lon="-0.6527640">
        <ele>721.4</ele>
        <time>2018-03-30T08:37:01Z</time>
      </trkpt>
      <trkpt lat="38.4973430" lon="-0.6527970">
        <ele>721.1</ele>
        <time>2018-03-30T08:37:02Z</time>
      </trkpt>
      <trkpt lat="38.4973350" lon="-0.6528310">
        <ele>720.4</ele>
        <time>2018-03-30T08:37:03Z</time>
      </trkpt>
      <trkpt lat="38.4973480" lon="-0.6528380">
        <ele>720.3</ele>
        <time>2018-03-30T08:37:04Z</time>
      </trkpt>
      <trkpt lat="38.4973510" lon="-0.6528530">
        <ele>720.1</ele>
        <time>2018-03-30T08:37:05Z</time>
      </trkpt>
      <trkpt lat="38.4973570" lon="-0.6528710">
        <ele>719.9</ele>
        <time>2018-03-30T08:37:06Z</time>
      </trkpt>
      <trkpt lat="38.4973650" lon="-0.6528870">
        <ele>719.8</ele>
        <time>2018-03-30T08:37:07Z</time>
      </trkpt>
      <trkpt lat="38.4973680" lon="-0.6529060">
        <ele>719.6</ele>
        <time>2018-03-30T08:37:08Z</time>
      </trkpt>
      <trkpt lat="38.4973690" lon="-0.6529170">
        <ele>719.4</ele>
        <time>2018-03-30T08:37:09Z</time>
      </trkpt>
      <trkpt lat="38.4973680" lon="-0.6529340">
        <ele>719.2</ele>
        <time>2018-03-30T08:37:10Z</time>
      </trkpt>
      <trkpt lat="38.4973670" lon="-0.6529490">
        <ele>719.0</ele>
        <time>2018-03-30T08:37:11Z</time>
      </trkpt>
      <trkpt lat="38.4973620" lon="-0.6529640">
        <ele>718.9</ele>
        <time>2018-03-30T08:37:12Z</time>
      </trkpt>
      <trkpt lat="38.4973570" lon="-0.6529840">
        <ele>718.7</ele>
        <time>2018-03-30T08:37:13Z</time>
      </trkpt>
      <trkpt lat="38.4973480" lon="-0.6530160">
        <ele>718.4</ele>
        <time>2018-03-30T08:37:14Z</time>
      </trkpt>
      <trkpt lat="38.4973370" lon="-0.6530560">
        <ele>717.9</ele>
        <time>2018-03-30T08:37:15Z</time>
      </trkpt>
      <trkpt lat="38.4973250" lon="-0.6530850">
        <ele>717.6</ele>
        <time>2018-03-30T08:37:16Z</time>
      </trkpt>
      <trkpt lat="38.4973150" lon="-0.6531130">
        <ele>717.3</ele>
        <time>2018-03-30T08:37:17Z</time>
      </trkpt>
      <trkpt lat="38.4973050" lon="-0.6531490">
        <ele>717.0</ele>
        <time>2018-03-30T08:37:18Z</time>
      </trkpt>
      <trkpt lat="38.4972910" lon="-0.6531850">
        <ele>716.6</ele>
        <time>2018-03-30T08:37:19Z</time>
      </trkpt>
      <trkpt lat="38.4972700" lon="-0.6532020">
        <ele>716.2</ele>
        <time>2018-03-30T08:37:20Z</time>
      </trkpt>
      <trkpt lat="38.4972580" lon="-0.6532260">
        <ele>715.8</ele>
        <time>2018-03-30T08:37:21Z</time>
      </trkpt>
      <trkpt lat="38.4972500" lon="-0.6532500">
        <ele>715.5</ele>
        <time>2018-03-30T08:37:22Z</time>
      </trkpt>
      <trkpt lat="38.4972450" lon="-0.6532680">
        <ele>715.3</ele>
        <time>2018-03-30T08:37:23Z</time>
      </trkpt>
      <trkpt lat="38.4972290" lon="-0.6532930">
        <ele>714.9</ele>
        <time>2018-03-30T08:37:24Z</time>
      </trkpt>
      <trkpt lat="38.4972150" lon="-0.6533210">
        <ele>714.4</ele>
        <time>2018-03-30T08:37:25Z</time>
      </trkpt>
      <trkpt lat="38.4971980" lon="-0.6533410">
        <ele>714.1</ele>
        <time>2018-03-30T08:37:26Z</time>
      </trkpt>
      <trkpt lat="38.4971840" lon="-0.6533710">
        <ele>713.7</ele>
        <time>2018-03-30T08:37:27Z</time>
      </trkpt>
      <trkpt lat="38.4971660" lon="-0.6534060">
        <ele>713.3</ele>
        <time>2018-03-30T08:37:28Z</time>
      </trkpt>
      <trkpt lat="38.4971530" lon="-0.6534270">
        <ele>713.0</ele>
        <time>2018-03-30T08:37:29Z</time>
      </trkpt>
      <trkpt lat="38.4971470" lon="-0.6534420">
        <ele>712.8</ele>
        <time>2018-03-30T08:37:30Z</time>
      </trkpt>
      <trkpt lat="38.4971460" lon="-0.6534540">
        <ele>712.6</ele>
        <time>2018-03-30T08:37:31Z</time>
      </trkpt>
      <trkpt lat="38.4971480" lon="-0.6534630">
        <ele>712.4</ele>
        <time>2018-03-30T08:37:32Z</time>
      </trkpt>
      <trkpt lat="38.4971460" lon="-0.6534670">
        <ele>712.3</ele>
        <time>2018-03-30T08:37:33Z</time>
      </trkpt>
      <trkpt lat="38.4971340" lon="-0.6534740">
        <ele>712.0</ele>
        <time>2018-03-30T08:37:34Z</time>
      </trkpt>
      <trkpt lat="38.4971180" lon="-0.6534880">
        <ele>711.7</ele>
        <time>2018-03-30T08:37:35Z</time>
      </trkpt>
      <trkpt lat="38.4971060" lon="-0.6535110">
        <ele>711.3</ele>
        <time>2018-03-30T08:37:36Z</time>
      </trkpt>
      <trkpt lat="38.4970850" lon="-0.6535330">
        <ele>710.8</ele>
        <time>2018-03-30T08:37:37Z</time>
      </trkpt>
      <trkpt lat="38.4970620" lon="-0.6535510">
        <ele>710.5</ele>
        <time>2018-03-30T08:37:38Z</time>
      </trkpt>
      <trkpt lat="38.4970330" lon="-0.6535740">
        <ele>710.0</ele>
        <time>2018-03-30T08:37:39Z</time>
      </trkpt>
      <trkpt lat="38.4970090" lon="-0.6535950">
        <ele>709.5</ele>
        <time>2018-03-30T08:37:40Z</time>
      </trkpt>
      <trkpt lat="38.4969770" lon="-0.6536120">
        <ele>709.0</ele>
        <time>2018-03-30T08:37:41Z</time>
      </trkpt>
      <trkpt lat="38.4969350" lon="-0.6536300">
        <ele>708.4</ele>
        <time>2018-03-30T08:37:42Z</time>
      </trkpt>
      <trkpt lat="38.4969030" lon="-0.6536530">
        <ele>707.9</ele>
        <time>2018-03-30T08:37:43Z</time>
      </trkpt>
      <trkpt lat="38.4968710" lon="-0.6536880">
        <ele>707.4</ele>
        <time>2018-03-30T08:37:44Z</time>
      </trkpt>
      <trkpt lat="38.4968330" lon="-0.6537330">
        <ele>706.9</ele>
        <time>2018-03-30T08:37:45Z</time>
      </trkpt>
      <trkpt lat="38.4967880" lon="-0.6537870">
        <ele>706.0</ele>
        <time>2018-03-30T08:37:46Z</time>
      </trkpt>
      <trkpt lat="38.4967460" lon="-0.6538440">
        <ele>705.3</ele>
        <time>2018-03-30T08:37:47Z</time>
      </trkpt>
      <trkpt lat="38.4967120" lon="-0.6539250">
        <ele>704.3</ele>
        <time>2018-03-30T08:37:48Z</time>
      </trkpt>
      <trkpt lat="38.4966810" lon="-0.6539670">
        <ele>703.7</ele>
        <time>2018-03-30T08:37:49Z</time>
      </trkpt>
      <trkpt lat="38.4966710" lon="-0.6540170">
        <ele>703.2</ele>
        <time>2018-03-30T08:37:50Z</time>
      </trkpt>
      <trkpt lat="38.4966450" lon="-0.6540620">
        <ele>702.8</ele>
        <time>2018-03-30T08:37:51Z</time>
      </trkpt>
      <trkpt lat="38.4966170" lon="-0.6540980">
        <ele>702.3</ele>
        <time>2018-03-30T08:37:52Z</time>
      </trkpt>
      <trkpt lat="38.4965830" lon="-0.6541420">
        <ele>701.6</ele>
        <time>2018-03-30T08:37:53Z</time>
      </trkpt>
      <trkpt lat="38.4965510" lon="-0.6541800">
        <ele>701.1</ele>
        <time>2018-03-30T08:37:54Z</time>
      </trkpt>
      <trkpt lat="38.4965070" lon="-0.6542120">
        <ele>700.4</ele>
        <time>2018-03-30T08:37:55Z</time>
      </trkpt>
      <trkpt lat="38.4964770" lon="-0.6542570">
        <ele>699.9</ele>
        <time>2018-03-30T08:37:56Z</time>
      </trkpt>
      <trkpt lat="38.4964530" lon="-0.6542870">
        <ele>699.3</ele>
        <time>2018-03-30T08:37:57Z</time>
      </trkpt>
      <trkpt lat="38.4964370" lon="-0.6543110">
        <ele>699.1</ele>
        <time>2018-03-30T08:37:58Z</time>
      </trkpt>
      <trkpt lat="38.4964090" lon="-0.6543330">
        <ele>698.7</ele>
        <time>2018-03-30T08:37:59Z</time>
      </trkpt>
      <trkpt lat="38.4963900" lon="-0.6543550">
        <ele>698.4</ele>
        <time>2018-03-30T08:38:00Z</time>
      </trkpt>
      <trkpt lat="38.4963680" lon="-0.6543760">
        <ele>698.1</ele>
        <time>2018-03-30T08:38:01Z</time>
      </trkpt>
      <trkpt lat="38.4963460" lon="-0.6544050">
        <ele>697.8</ele>
        <time>2018-03-30T08:38:02Z</time>
      </trkpt>
      <trkpt lat="38.4963230" lon="-0.6544280">
        <ele>697.3</ele>
        <time>2018-03-30T08:38:03Z</time>
      </trkpt>
      <trkpt lat="38.4963020" lon="-0.6544490">
        <ele>696.9</ele>
        <time>2018-03-30T08:38:04Z</time>
      </trkpt>
      <trkpt lat="38.4962770" lon="-0.6544900">
        <ele>696.4</ele>
        <time>2018-03-30T08:38:05Z</time>
      </trkpt>
      <trkpt lat="38.4962600" lon="-0.6545220">
        <ele>696.1</ele>
        <time>2018-03-30T08:38:06Z</time>
      </trkpt>
      <trkpt lat="38.4962350" lon="-0.6545520">
        <ele>695.7</ele>
        <time>2018-03-30T08:38:07Z</time>
      </trkpt>
      <trkpt lat="38.4962110" lon="-0.6545730">
        <ele>695.5</ele>
        <time>2018-03-30T08:38:08Z</time>
      </trkpt>
      <trkpt lat="38.4961900" lon="-0.6545930">
        <ele>695.3</ele>
        <time>2018-03-30T08:38:09Z</time>
      </trkpt>
      <trkpt lat="38.4961730" lon="-0.6546130">
        <ele>695.0</ele>
        <time>2018-03-30T08:38:10Z</time>
      </trkpt>
      <trkpt lat="38.4961450" lon="-0.6546160">
        <ele>694.8</ele>
        <time>2018-03-30T08:38:11Z</time>
      </trkpt>
      <trkpt lat="38.4961180" lon="-0.6546230">
        <ele>694.5</ele>
        <time>2018-03-30T08:38:12Z</time>
      </trkpt>
      <trkpt lat="38.4960890" lon="-0.6546360">
        <ele>694.0</ele>
        <time>2018-03-30T08:38:13Z</time>
      </trkpt>
      <trkpt lat="38.4960430" lon="-0.6546560">
        <ele>693.7</ele>
        <time>2018-03-30T08:38:14Z</time>
      </trkpt>
      <trkpt lat="38.4960090" lon="-0.6546580">
        <ele>693.5</ele>
        <time>2018-03-30T08:38:15Z</time>
      </trkpt>
      <trkpt lat="38.4959730" lon="-0.6546550">
        <ele>693.0</ele>
        <time>2018-03-30T08:38:16Z</time>
      </trkpt>
      <trkpt lat="38.4959500" lon="-0.6546550">
        <ele>692.8</ele>
        <time>2018-03-30T08:38:17Z</time>
      </trkpt>
      <trkpt lat="38.4959260" lon="-0.6546630">
        <ele>692.5</ele>
        <time>2018-03-30T08:38:18Z</time>
      </trkpt>
      <trkpt lat="38.4959300" lon="-0.6546580">
        <ele>692.4</ele>
        <time>2018-03-30T08:38:19Z</time>
      </trkpt>
      <trkpt lat="38.4959190" lon="-0.6546650">
        <ele>692.2</ele>
        <time>2018-03-30T08:38:20Z</time>
      </trkpt>
      <trkpt lat="38.4959140" lon="-0.6546640">
        <ele>692.1</ele>
        <time>2018-03-30T08:38:21Z</time>
      </trkpt>
      <trkpt lat="38.4959090" lon="-0.6546650">
        <ele>692.1</ele>
        <time>2018-03-30T08:38:22Z</time>
      </trkpt>
      <trkpt lat="38.4959100" lon="-0.6546630">
        <ele>692.1</ele>
        <time>2018-03-30T08:38:23Z</time>
      </trkpt>
      <trkpt lat="38.4958960" lon="-0.6546650">
        <ele>692.0</ele>
        <time>2018-03-30T08:38:24Z</time>
      </trkpt>
      <trkpt lat="38.4958820" lon="-0.6546640">
        <ele>691.9</ele>
        <time>2018-03-30T08:38:25Z</time>
      </trkpt>
      <trkpt lat="38.4958700" lon="-0.6546640">
        <ele>691.8</ele>
        <time>2018-03-30T08:38:26Z</time>
      </trkpt>
      <trkpt lat="38.4958520" lon="-0.6546710">
        <ele>691.6</ele>
        <time>2018-03-30T08:38:27Z</time>
      </trkpt>
      <trkpt lat="38.4958310" lon="-0.6546840">
        <ele>691.4</ele>
        <time>2018-03-30T08:38:28Z</time>
      </trkpt>
      <trkpt lat="38.4958130" lon="-0.6546960">
        <ele>691.2</ele>
        <time>2018-03-30T08:38:29Z</time>
      </trkpt>
      <trkpt lat="38.4957980" lon="-0.6547120">
        <ele>691.1</ele>
        <time>2018-03-30T08:38:30Z</time>
      </trkpt>
      <trkpt lat="38.4957920" lon="-0.6547290">
        <ele>690.9</ele>
        <time>2018-03-30T08:38:31Z</time>
      </trkpt>
      <trkpt lat="38.4957850" lon="-0.6547390">
        <ele>690.7</ele>
        <time>2018-03-30T08:38:32Z</time>
      </trkpt>
      <trkpt lat="38.4957850" lon="-0.6547330">
        <ele>690.7</ele>
        <time>2018-03-30T08:38:33Z</time>
      </trkpt>
      <trkpt lat="38.4957850" lon="-0.6547350">
        <ele>690.6</ele>
        <time>2018-03-30T08:38:34Z</time>
      </trkpt>
      <trkpt lat="38.4957780" lon="-0.6547380">
        <ele>690.5</ele>
        <time>2018-03-30T08:38:35Z</time>
      </trkpt>
      <trkpt lat="38.4957750" lon="-0.6547460">
        <ele>690.4</ele>
        <time>2018-03-30T08:38:36Z</time>
      </trkpt>
      <trkpt lat="38.4957710" lon="-0.6547520">
        <ele>690.3</ele>
        <time>2018-03-30T08:38:37Z</time>
      </trkpt>
      <trkpt lat="38.4957670" lon="-0.6547630">
        <ele>690.2</ele>
        <time>2018-03-30T08:38:38Z</time>
      </trkpt>
      <trkpt lat="38.4957600" lon="-0.6547760">
        <ele>690.0</ele>
        <time>2018-03-30T08:38:39Z</time>
      </trkpt>
      <trkpt lat="38.4957530" lon="-0.6547980">
        <ele>689.8</ele>
        <time>2018-03-30T08:38:40Z</time>
      </trkpt>
      <trkpt lat="38.4957470" lon="-0.6548260">
        <ele>689.5</ele>
        <time>2018-03-30T08:38:41Z</time>
      </trkpt>
      <trkpt lat="38.4957480" lon="-0.6548700">
        <ele>689.1</ele>
        <time>2018-03-30T08:38:42Z</time>
      </trkpt>
      <trkpt lat="38.4957420" lon="-0.6549050">
        <ele>688.8</ele>
        <time>2018-03-30T08:38:43Z</time>
      </trkpt>
      <trkpt lat="38.4957380" lon="-0.6549460">
        <ele>688.2</ele>
        <time>2018-03-30T08:38:44Z</time>
      </trkpt>
      <trkpt lat="38.4957310" lon="-0.6549900">
        <ele>687.8</ele>
        <time>2018-03-30T08:38:45Z</time>
      </trkpt>
      <trkpt lat="38.4957250" lon="-0.6550420">
        <ele>687.4</ele>
        <time>2018-03-30T08:38:46Z</time>
      </trkpt>
      <trkpt lat="38.4957130" lon="-0.6550890">
        <ele>686.9</ele>
        <time>2018-03-30T08:38:47Z</time>
      </trkpt>
      <trkpt lat="38.4957060" lon="-0.6551460">
        <ele>686.6</ele>
        <time>2018-03-30T08:38:48Z</time>
      </trkpt>
      <trkpt lat="38.4956950" lon="-0.6551950">
        <ele>686.2</ele>
        <time>2018-03-30T08:38:49Z</time>
      </trkpt>
      <trkpt lat="38.4956790" lon="-0.6552470">
        <ele>685.9</ele>
        <time>2018-03-30T08:38:50Z</time>
      </trkpt>
      <trkpt lat="38.4956700" lon="-0.6553060">
        <ele>685.5</ele>
        <time>2018-03-30T08:38:51Z</time>
      </trkpt>
      <trkpt lat="38.4956520" lon="-0.6553630">
        <ele>685.0</ele>
        <time>2018-03-30T08:38:52Z</time>
      </trkpt>
      <trkpt lat="38.4956300" lon="-0.6554020">
        <ele>684.7</ele>
        <time>2018-03-30T08:38:53Z</time>
      </trkpt>
      <trkpt lat="38.4956170" lon="-0.6554330">
        <ele>684.4</ele>
        <time>2018-03-30T08:38:54Z</time>
      </trkpt>
      <trkpt lat="38.4955940" lon="-0.6554540">
        <ele>684.0</ele>
        <time>2018-03-30T08:38:55Z</time>
      </trkpt>
      <trkpt lat="38.4955810" lon="-0.6554520">
        <ele>683.9</ele>
        <time>2018-03-30T08:38:56Z</time>
      </trkpt>
      <trkpt lat="38.4955560" lon="-0.6554740">
        <ele>683.6</ele>
        <time>2018-03-30T08:38:57Z</time>
      </trkpt>
      <trkpt lat="38.4955210" lon="-0.6555010">
        <ele>683.6</ele>
        <time>2018-03-30T08:38:58Z</time>
      </trkpt>
      <trkpt lat="38.4954930" lon="-0.6555340">
        <ele>684.1</ele>
        <time>2018-03-30T08:38:59Z</time>
      </trkpt>
      <trkpt lat="38.4954640" lon="-0.6555610">
        <ele>684.7</ele>
        <time>2018-03-30T08:39:00Z</time>
      </trkpt>
      <trkpt lat="38.4954340" lon="-0.6555900">
        <ele>685.3</ele>
        <time>2018-03-30T08:39:01Z</time>
      </trkpt>
      <trkpt lat="38.4954060" lon="-0.6556080">
        <ele>685.7</ele>
        <time>2018-03-30T08:39:02Z</time>
      </trkpt>
      <trkpt lat="38.4953790" lon="-0.6556200">
        <ele>686.2</ele>
        <time>2018-03-30T08:39:03Z</time>
      </trkpt>
      <trkpt lat="38.4953490" lon="-0.6556380">
        <ele>686.8</ele>
        <time>2018-03-30T08:39:04Z</time>
      </trkpt>
      <trkpt lat="38.4953210" lon="-0.6556480">
        <ele>687.4</ele>
        <time>2018-03-30T08:39:05Z</time>
      </trkpt>
      <trkpt lat="38.4952890" lon="-0.6556610">
        <ele>687.8</ele>
        <time>2018-03-30T08:39:06Z</time>
      </trkpt>
      <trkpt lat="38.4952540" lon="-0.6556760">
        <ele>688.2</ele>
        <time>2018-03-30T08:39:07Z</time>
      </trkpt>
      <trkpt lat="38.4952230" lon="-0.6556780">
        <ele>688.5</ele>
        <time>2018-03-30T08:39:08Z</time>
      </trkpt>
      <trkpt lat="38.4951750" lon="-0.6556750">
        <ele>689.0</ele>
        <time>2018-03-30T08:39:09Z</time>
      </trkpt>
      <trkpt lat="38.4951380" lon="-0.6556700">
        <ele>689.4</ele>
        <time>2018-03-30T08:39:10Z</time>
      </trkpt>
      <trkpt lat="38.4950980" lon="-0.6556680">
        <ele>689.9</ele>
        <time>2018-03-30T08:39:11Z</time>
      </trkpt>
      <trkpt lat="38.4950580" lon="-0.6556670">
        <ele>690.3</ele>
        <time>2018-03-30T08:39:12Z</time>
      </trkpt>
      <trkpt lat="38.4950190" lon="-0.6556650">
        <ele>690.5</ele>
        <time>2018-03-30T08:39:13Z</time>
      </trkpt>
      <trkpt lat="38.4949780" lon="-0.6556660">
        <ele>690.8</ele>
        <time>2018-03-30T08:39:14Z</time>
      </trkpt>
      <trkpt lat="38.4949320" lon="-0.6556770">
        <ele>691.0</ele>
        <time>2018-03-30T08:39:15Z</time>
      </trkpt>
      <trkpt lat="38.4948690" lon="-0.6556740">
        <ele>691.3</ele>
        <time>2018-03-30T08:39:16Z</time>
      </trkpt>
      <trkpt lat="38.4948260" lon="-0.6556620">
        <ele>691.6</ele>
        <time>2018-03-30T08:39:17Z</time>
      </trkpt>
      <trkpt lat="38.4947960" lon="-0.6555990">
        <ele>691.9</ele>
        <time>2018-03-30T08:39:18Z</time>
      </trkpt>
      <trkpt lat="38.4947510" lon="-0.6555540">
        <ele>692.2</ele>
        <time>2018-03-30T08:39:19Z</time>
      </trkpt>
      <trkpt lat="38.4947180" lon="-0.6555080">
        <ele>692.3</ele>
        <time>2018-03-30T08:39:20Z</time>
      </trkpt>
      <trkpt lat="38.4946950" lon="-0.6554490">
        <ele>692.4</ele>
        <time>2018-03-30T08:39:21Z</time>
      </trkpt>
      <trkpt lat="38.4946740" lon="-0.6553920">
        <ele>692.6</ele>
        <time>2018-03-30T08:39:22Z</time>
      </trkpt>
      <trkpt lat="38.4946490" lon="-0.6553390">
        <ele>692.7</ele>
        <time>2018-03-30T08:39:23Z</time>
      </trkpt>
      <trkpt lat="38.4946170" lon="-0.6552750">
        <ele>692.9</ele>
        <time>2018-03-30T08:39:24Z</time>
      </trkpt>
      <trkpt lat="38.4945900" lon="-0.6552310">
        <ele>693.0</ele>
        <time>2018-03-30T08:39:25Z</time>
      </trkpt>
      <trkpt lat="38.4945900" lon="-0.6552310">
        <ele>693.0</ele>
        <time>2018-03-30T08:39:26Z</time>
      </trkpt>
      <trkpt lat="38.4945630" lon="-0.6551680">
        <ele>693.3</ele>
        <time>2018-03-30T08:39:27Z</time>
      </trkpt>
      <trkpt lat="38.4945500" lon="-0.6551100">
        <ele>693.5</ele>
        <time>2018-03-30T08:39:28Z</time>
      </trkpt>
      <trkpt lat="38.4945350" lon="-0.6550440">
        <ele>693.9</ele>
        <time>2018-03-30T08:39:29Z</time>
      </trkpt>
      <trkpt lat="38.4945260" lon="-0.6549840">
        <ele>694.2</ele>
        <time>2018-03-30T08:39:30Z</time>
      </trkpt>
      <trkpt lat="38.4945100" lon="-0.6549260">
        <ele>694.6</ele>
        <time>2018-03-30T08:39:31Z</time>
      </trkpt>
      <trkpt lat="38.4944940" lon="-0.6548710">
        <ele>695.0</ele>
        <time>2018-03-30T08:39:32Z</time>
      </trkpt>
      <trkpt lat="38.4944570" lon="-0.6547950">
        <ele>695.5</ele>
        <time>2018-03-30T08:39:33Z</time>
      </trkpt>
      <trkpt lat="38.4944180" lon="-0.6547130">
        <ele>696.0</ele>
        <time>2018-03-30T08:39:34Z</time>
      </trkpt>
      <trkpt lat="38.4943650" lon="-0.6546510">
        <ele>694.7</ele>
        <time>2018-03-30T08:39:35Z</time>
      </trkpt>
      <trkpt lat="38.4943190" lon="-0.6546420">
        <ele>694.0</ele>
        <time>2018-03-30T08:39:36Z</time>
      </trkpt>
      <trkpt lat="38.4942850" lon="-0.6546160">
        <ele>693.6</ele>
        <time>2018-03-30T08:39:37Z</time>
      </trkpt>
      <trkpt lat="38.4942370" lon="-0.6546120">
        <ele>693.1</ele>
        <time>2018-03-30T08:39:38Z</time>
      </trkpt>
      <trkpt lat="38.4941940" lon="-0.6545930">
        <ele>692.7</ele>
        <time>2018-03-30T08:39:39Z</time>
      </trkpt>
      <trkpt lat="38.4941270" lon="-0.6545830">
        <ele>691.8</ele>
        <time>2018-03-30T08:39:40Z</time>
      </trkpt>
      <trkpt lat="38.4940690" lon="-0.6545620">
        <ele>691.0</ele>
        <time>2018-03-30T08:39:41Z</time>
      </trkpt>
      <trkpt lat="38.4940380" lon="-0.6545100">
        <ele>690.5</ele>
        <time>2018-03-30T08:39:42Z</time>
      </trkpt>
      <trkpt lat="38.4939890" lon="-0.6544800">
        <ele>689.6</ele>
        <time>2018-03-30T08:39:43Z</time>
      </trkpt>
      <trkpt lat="38.4939390" lon="-0.6544550">
        <ele>688.5</ele>
        <time>2018-03-30T08:39:44Z</time>
      </trkpt>
      <trkpt lat="38.4938910" lon="-0.6544230">
        <ele>687.3</ele>
        <time>2018-03-30T08:39:45Z</time>
      </trkpt>
      <trkpt lat="38.4938490" lon="-0.6543890">
        <ele>686.4</ele>
        <time>2018-03-30T08:39:46Z</time>
      </trkpt>
      <trkpt lat="38.4937730" lon="-0.6543770">
        <ele>685.4</ele>
        <time>2018-03-30T08:39:47Z</time>
      </trkpt>
      <trkpt lat="38.4937380" lon="-0.6543890">
        <ele>684.9</ele>
        <time>2018-03-30T08:39:48Z</time>
      </trkpt>
      <trkpt lat="38.4937020" lon="-0.6544020">
        <ele>684.3</ele>
        <time>2018-03-30T08:39:49Z</time>
      </trkpt>
      <trkpt lat="38.4936670" lon="-0.6544140">
        <ele>683.7</ele>
        <time>2018-03-30T08:39:50Z</time>
      </trkpt>
      <trkpt lat="38.4936310" lon="-0.6544270">
        <ele>683.1</ele>
        <time>2018-03-30T08:39:51Z</time>
      </trkpt>
      <trkpt lat="38.4935960" lon="-0.6544390">
        <ele>682.4</ele>
        <time>2018-03-30T08:39:52Z</time>
      </trkpt>
      <trkpt lat="38.4935600" lon="-0.6544520">
        <ele>681.9</ele>
        <time>2018-03-30T08:39:53Z</time>
      </trkpt>
      <trkpt lat="38.4935260" lon="-0.6544730">
        <ele>681.5</ele>
        <time>2018-03-30T08:39:54Z</time>
      </trkpt>
      <trkpt lat="38.4934890" lon="-0.6544890">
        <ele>681.2</ele>
        <time>2018-03-30T08:39:55Z</time>
      </trkpt>
      <trkpt lat="38.4934290" lon="-0.6545160">
        <ele>680.9</ele>
        <time>2018-03-30T08:39:56Z</time>
      </trkpt>
      <trkpt lat="38.4933730" lon="-0.6545220">
        <ele>680.7</ele>
        <time>2018-03-30T08:39:57Z</time>
      </trkpt>
      <trkpt lat="38.4933260" lon="-0.6545330">
        <ele>680.5</ele>
        <time>2018-03-30T08:39:58Z</time>
      </trkpt>
      <trkpt lat="38.4932760" lon="-0.6545370">
        <ele>680.3</ele>
        <time>2018-03-30T08:39:59Z</time>
      </trkpt>
      <trkpt lat="38.4932280" lon="-0.6545340">
        <ele>680.1</ele>
        <time>2018-03-30T08:40:00Z</time>
      </trkpt>
      <trkpt lat="38.4931780" lon="-0.6545260">
        <ele>680.0</ele>
        <time>2018-03-30T08:40:01Z</time>
      </trkpt>
      <trkpt lat="38.4931300" lon="-0.6545140">
        <ele>679.9</ele>
        <time>2018-03-30T08:40:02Z</time>
      </trkpt>
      <trkpt lat="38.4930860" lon="-0.6545080">
        <ele>679.8</ele>
        <time>2018-03-30T08:40:03Z</time>
      </trkpt>
      <trkpt lat="38.4930360" lon="-0.6545220">
        <ele>679.7</ele>
        <time>2018-03-30T08:40:04Z</time>
      </trkpt>
      <trkpt lat="38.4929950" lon="-0.6545340">
        <ele>679.7</ele>
        <time>2018-03-30T08:40:05Z</time>
      </trkpt>
      <trkpt lat="38.4929570" lon="-0.6545550">
        <ele>679.6</ele>
        <time>2018-03-30T08:40:06Z</time>
      </trkpt>
      <trkpt lat="38.4929210" lon="-0.6545740">
        <ele>679.6</ele>
        <time>2018-03-30T08:40:07Z</time>
      </trkpt>
      <trkpt lat="38.4928880" lon="-0.6545990">
        <ele>679.6</ele>
        <time>2018-03-30T08:40:08Z</time>
      </trkpt>
      <trkpt lat="38.4928550" lon="-0.6546240">
        <ele>679.5</ele>
        <time>2018-03-30T08:40:09Z</time>
      </trkpt>
      <trkpt lat="38.4928150" lon="-0.6546410">
        <ele>679.5</ele>
        <time>2018-03-30T08:40:10Z</time>
      </trkpt>
      <trkpt lat="38.4927750" lon="-0.6546640">
        <ele>679.4</ele>
        <time>2018-03-30T08:40:11Z</time>
      </trkpt>
      <trkpt lat="38.4927360" lon="-0.6546920">
        <ele>679.4</ele>
        <time>2018-03-30T08:40:12Z</time>
      </trkpt>
      <trkpt lat="38.4926990" lon="-0.6547230">
        <ele>679.3</ele>
        <time>2018-03-30T08:40:13Z</time>
      </trkpt>
      <trkpt lat="38.4926620" lon="-0.6547570">
        <ele>679.2</ele>
        <time>2018-03-30T08:40:14Z</time>
      </trkpt>
      <trkpt lat="38.4926260" lon="-0.6547940">
        <ele>679.2</ele>
        <time>2018-03-30T08:40:15Z</time>
      </trkpt>
      <trkpt lat="38.4925910" lon="-0.6548320">
        <ele>679.1</ele>
        <time>2018-03-30T08:40:16Z</time>
      </trkpt>
      <trkpt lat="38.4925540" lon="-0.6548720">
        <ele>679.0</ele>
        <time>2018-03-30T08:40:17Z</time>
      </trkpt>
      <trkpt lat="38.4925180" lon="-0.6549110">
        <ele>678.9</ele>
        <time>2018-03-30T08:40:18Z</time>
      </trkpt>
      <trkpt lat="38.4924820" lon="-0.6549540">
        <ele>678.7</ele>
        <time>2018-03-30T08:40:19Z</time>
      </trkpt>
      <trkpt lat="38.4924430" lon="-0.6549980">
        <ele>678.6</ele>
        <time>2018-03-30T08:40:20Z</time>
      </trkpt>
      <trkpt lat="38.4924040" lon="-0.6550420">
        <ele>678.4</ele>
        <time>2018-03-30T08:40:21Z</time>
      </trkpt>
      <trkpt lat="38.4923680" lon="-0.6550890">
        <ele>678.2</ele>
        <time>2018-03-30T08:40:22Z</time>
      </trkpt>
      <trkpt lat="38.4923280" lon="-0.6551330">
        <ele>678.0</ele>
        <time>2018-03-30T08:40:23Z</time>
      </trkpt>
      <trkpt lat="38.4922850" lon="-0.6551650">
        <ele>677.8</ele>
        <time>2018-03-30T08:40:24Z</time>
      </trkpt>
      <trkpt lat="38.4922450" lon="-0.6552010">
        <ele>677.6</ele>
        <time>2018-03-30T08:40:25Z</time>
      </trkpt>
      <trkpt lat="38.4921980" lon="-0.6552320">
        <ele>677.5</ele>
        <time>2018-03-30T08:40:26Z</time>
      </trkpt>
      <trkpt lat="38.4921480" lon="-0.6552520">
        <ele>677.1</ele>
        <time>2018-03-30T08:40:27Z</time>
      </trkpt>
      <trkpt lat="38.4920980" lon="-0.6552610">
        <ele>676.7</ele>
        <time>2018-03-30T08:40:28Z</time>
      </trkpt>
      <trkpt lat="38.4920460" lon="-0.6552700">
        <ele>676.4</ele>
        <time>2018-03-30T08:40:29Z</time>
      </trkpt>
      <trkpt lat="38.4919920" lon="-0.6552760">
        <ele>676.0</ele>
        <time>2018-03-30T08:40:30Z</time>
      </trkpt>
      <trkpt lat="38.4919330" lon="-0.6552720">
        <ele>675.5</ele>
        <time>2018-03-30T08:40:31Z</time>
      </trkpt>
      <trkpt lat="38.4918720" lon="-0.6552530">
        <ele>674.8</ele>
        <time>2018-03-30T08:40:32Z</time>
      </trkpt>
      <trkpt lat="38.4918160" lon="-0.6552240">
        <ele>674.3</ele>
        <time>2018-03-30T08:40:33Z</time>
      </trkpt>
      <trkpt lat="38.4917550" lon="-0.6551930">
        <ele>673.5</ele>
        <time>2018-03-30T08:40:34Z</time>
      </trkpt>
      <trkpt lat="38.4916900" lon="-0.6551820">
        <ele>672.9</ele>
        <time>2018-03-30T08:40:35Z</time>
      </trkpt>
      <trkpt lat="38.4916240" lon="-0.6551940">
        <ele>672.2</ele>
        <time>2018-03-30T08:40:36Z</time>
      </trkpt>
      <trkpt lat="38.4915610" lon="-0.6552230">
        <ele>671.6</ele>
        <time>2018-03-30T08:40:37Z</time>
      </trkpt>
      <trkpt lat="38.4914990" lon="-0.6552540">
        <ele>671.2</ele>
        <time>2018-03-30T08:40:38Z</time>
      </trkpt>
      <trkpt lat="38.4914350" lon="-0.6552780">
        <ele>670.7</ele>
        <time>2018-03-30T08:40:39Z</time>
      </trkpt>
      <trkpt lat="38.4913690" lon="-0.6553000">
        <ele>670.2</ele>
        <time>2018-03-30T08:40:40Z</time>
      </trkpt>
      <trkpt lat="38.4913010" lon="-0.6553220">
        <ele>669.6</ele>
        <time>2018-03-30T08:40:41Z</time>
      </trkpt>
      <trkpt lat="38.4912390" lon="-0.6553480">
        <ele>669.0</ele>
        <time>2018-03-30T08:40:42Z</time>
      </trkpt>
      <trkpt lat="38.4911730" lon="-0.6553780">
        <ele>668.4</ele>
        <time>2018-03-30T08:40:43Z</time>
      </trkpt>
      <trkpt lat="38.4911060" lon="-0.6554040">
        <ele>667.9</ele>
        <time>2018-03-30T08:40:44Z</time>
      </trkpt>
      <trkpt lat="38.4910370" lon="-0.6554260">
        <ele>667.3</ele>
        <time>2018-03-30T08:40:45Z</time>
      </trkpt>
      <trkpt lat="38.4909680" lon="-0.6554490">
        <ele>666.6</ele>
        <time>2018-03-30T08:40:46Z</time>
      </trkpt>
      <trkpt lat="38.4908980" lon="-0.6554840">
        <ele>665.8</ele>
        <time>2018-03-30T08:40:47Z</time>
      </trkpt>
      <trkpt lat="38.4908490" lon="-0.6555370">
        <ele>664.0</ele>
        <time>2018-03-30T08:40:48Z</time>
      </trkpt>
      <trkpt lat="38.4907910" lon="-0.6555950">
        <ele>662.5</ele>
        <time>2018-03-30T08:40:49Z</time>
      </trkpt>
      <trkpt lat="38.4907280" lon="-0.6556450">
        <ele>661.3</ele>
        <time>2018-03-30T08:40:50Z</time>
      </trkpt>
      <trkpt lat="38.4906550" lon="-0.6556670">
        <ele>659.9</ele>
        <time>2018-03-30T08:40:51Z</time>
      </trkpt>
      <trkpt lat="38.4905810" lon="-0.6556830">
        <ele>659.1</ele>
        <time>2018-03-30T08:40:52Z</time>
      </trkpt>
      <trkpt lat="38.4905080" lon="-0.6557190">
        <ele>658.2</ele>
        <time>2018-03-30T08:40:53Z</time>
      </trkpt>
      <trkpt lat="38.4904300" lon="-0.6557560">
        <ele>657.5</ele>
        <time>2018-03-30T08:40:54Z</time>
      </trkpt>
      <trkpt lat="38.4903530" lon="-0.6557900">
        <ele>656.8</ele>
        <time>2018-03-30T08:40:55Z</time>
      </trkpt>
      <trkpt lat="38.4902760" lon="-0.6558160">
        <ele>656.0</ele>
        <time>2018-03-30T08:40:56Z</time>
      </trkpt>
      <trkpt lat="38.4902010" lon="-0.6558370">
        <ele>655.6</ele>
        <time>2018-03-30T08:40:57Z</time>
      </trkpt>
      <trkpt lat="38.4901310" lon="-0.6558550">
        <ele>655.1</ele>
        <time>2018-03-30T08:40:58Z</time>
      </trkpt>
      <trkpt lat="38.4900740" lon="-0.6558930">
        <ele>654.8</ele>
        <time>2018-03-30T08:40:59Z</time>
      </trkpt>
      <trkpt lat="38.4900210" lon="-0.6559420">
        <ele>654.0</ele>
        <time>2018-03-30T08:41:00Z</time>
      </trkpt>
      <trkpt lat="38.4899650" lon="-0.6559910">
        <ele>653.3</ele>
        <time>2018-03-30T08:41:01Z</time>
      </trkpt>
      <trkpt lat="38.4899060" lon="-0.6560400">
        <ele>652.6</ele>
        <time>2018-03-30T08:41:02Z</time>
      </trkpt>
      <trkpt lat="38.4898470" lon="-0.6560820">
        <ele>651.8</ele>
        <time>2018-03-30T08:41:03Z</time>
      </trkpt>
      <trkpt lat="38.4897900" lon="-0.6561340">
        <ele>650.9</ele>
        <time>2018-03-30T08:41:04Z</time>
      </trkpt>
      <trkpt lat="38.4897420" lon="-0.6561800">
        <ele>649.9</ele>
        <time>2018-03-30T08:41:05Z</time>
      </trkpt>
      <trkpt lat="38.4896990" lon="-0.6562290">
        <ele>649.0</ele>
        <time>2018-03-30T08:41:06Z</time>
      </trkpt>
      <trkpt lat="38.4896530" lon="-0.6562790">
        <ele>648.1</ele>
        <time>2018-03-30T08:41:07Z</time>
      </trkpt>
      <trkpt lat="38.4896110" lon="-0.6563250">
        <ele>647.1</ele>
        <time>2018-03-30T08:41:08Z</time>
      </trkpt>
      <trkpt lat="38.4895710" lon="-0.6563730">
        <ele>646.1</ele>
        <time>2018-03-30T08:41:09Z</time>
      </trkpt>
      <trkpt lat="38.4895360" lon="-0.6564250">
        <ele>645.3</ele>
        <time>2018-03-30T08:41:10Z</time>
      </trkpt>
      <trkpt lat="38.4895100" lon="-0.6564840">
        <ele>644.1</ele>
        <time>2018-03-30T08:41:11Z</time>
      </trkpt>
      <trkpt lat="38.4894780" lon="-0.6565430">
        <ele>643.1</ele>
        <time>2018-03-30T08:41:12Z</time>
      </trkpt>
      <trkpt lat="38.4894450" lon="-0.6566110">
        <ele>641.7</ele>
        <time>2018-03-30T08:41:13Z</time>
      </trkpt>
      <trkpt lat="38.4894060" lon="-0.6566760">
        <ele>640.3</ele>
        <time>2018-03-30T08:41:14Z</time>
      </trkpt>
      <trkpt lat="38.4893700" lon="-0.6567400">
        <ele>639.0</ele>
        <time>2018-03-30T08:41:15Z</time>
      </trkpt>
      <trkpt lat="38.4893430" lon="-0.6568000">
        <ele>637.9</ele>
        <time>2018-03-30T08:41:16Z</time>
      </trkpt>
      <trkpt lat="38.4893130" lon="-0.6568640">
        <ele>636.7</ele>
        <time>2018-03-30T08:41:17Z</time>
      </trkpt>
      <trkpt lat="38.4892570" lon="-0.6569260">
        <ele>635.2</ele>
        <time>2018-03-30T08:41:18Z</time>
      </trkpt>
      <trkpt lat="38.4892030" lon="-0.6569880">
        <ele>633.7</ele>
        <time>2018-03-30T08:41:19Z</time>
      </trkpt>
      <trkpt lat="38.4891550" lon="-0.6570350">
        <ele>632.5</ele>
        <time>2018-03-30T08:41:20Z</time>
      </trkpt>
      <trkpt lat="38.4891070" lon="-0.6570770">
        <ele>631.7</ele>
        <time>2018-03-30T08:41:21Z</time>
      </trkpt>
      <trkpt lat="38.4890600" lon="-0.6571250">
        <ele>630.5</ele>
        <time>2018-03-30T08:41:22Z</time>
      </trkpt>
      <trkpt lat="38.4890000" lon="-0.6571780">
        <ele>629.4</ele>
        <time>2018-03-30T08:41:23Z</time>
      </trkpt>
      <trkpt lat="38.4889420" lon="-0.6572310">
        <ele>627.9</ele>
        <time>2018-03-30T08:41:24Z</time>
      </trkpt>
      <trkpt lat="38.4888930" lon="-0.6572880">
        <ele>626.6</ele>
        <time>2018-03-30T08:41:25Z</time>
      </trkpt>
      <trkpt lat="38.4888620" lon="-0.6573400">
        <ele>625.9</ele>
        <time>2018-03-30T08:41:26Z</time>
      </trkpt>
      <trkpt lat="38.4888170" lon="-0.6573940">
        <ele>625.1</ele>
        <time>2018-03-30T08:41:27Z</time>
      </trkpt>
      <trkpt lat="38.4887640" lon="-0.6574470">
        <ele>624.0</ele>
        <time>2018-03-30T08:41:28Z</time>
      </trkpt>
      <trkpt lat="38.4887080" lon="-0.6574970">
        <ele>622.8</ele>
        <time>2018-03-30T08:41:29Z</time>
      </trkpt>
      <trkpt lat="38.4886490" lon="-0.6575360">
        <ele>621.8</ele>
        <time>2018-03-30T08:41:30Z</time>
      </trkpt>
      <trkpt lat="38.4885860" lon="-0.6575650">
        <ele>621.0</ele>
        <time>2018-03-30T08:41:31Z</time>
      </trkpt>
      <trkpt lat="38.4885260" lon="-0.6575900">
        <ele>619.7</ele>
        <time>2018-03-30T08:41:32Z</time>
      </trkpt>
      <trkpt lat="38.4884770" lon="-0.6576190">
        <ele>618.9</ele>
        <time>2018-03-30T08:41:33Z</time>
      </trkpt>
      <trkpt lat="38.4884290" lon="-0.6576540">
        <ele>617.4</ele>
        <time>2018-03-30T08:41:34Z</time>
      </trkpt>
      <trkpt lat="38.4883880" lon="-0.6576930">
        <ele>616.4</ele>
        <time>2018-03-30T08:41:35Z</time>
      </trkpt>
      <trkpt lat="38.4883490" lon="-0.6577560">
        <ele>615.0</ele>
        <time>2018-03-30T08:41:36Z</time>
      </trkpt>
      <trkpt lat="38.4883070" lon="-0.6578190">
        <ele>614.1</ele>
        <time>2018-03-30T08:41:37Z</time>
      </trkpt>
      <trkpt lat="38.4882680" lon="-0.6578830">
        <ele>612.9</ele>
        <time>2018-03-30T08:41:38Z</time>
      </trkpt>
      <trkpt lat="38.4882220" lon="-0.6579470">
        <ele>611.4</ele>
        <time>2018-03-30T08:41:39Z</time>
      </trkpt>
      <trkpt lat="38.4881530" lon="-0.6580000">
        <ele>609.7</ele>
        <time>2018-03-30T08:41:40Z</time>
      </trkpt>
      <trkpt lat="38.4880880" lon="-0.6580450">
        <ele>608.8</ele>
        <time>2018-03-30T08:41:41Z</time>
      </trkpt>
      <trkpt lat="38.4880180" lon="-0.6580910">
        <ele>608.1</ele>
        <time>2018-03-30T08:41:42Z</time>
      </trkpt>
      <trkpt lat="38.4879460" lon="-0.6581260">
        <ele>606.9</ele>
        <time>2018-03-30T08:41:43Z</time>
      </trkpt>
      <trkpt lat="38.4878770" lon="-0.6581590">
        <ele>606.1</ele>
        <time>2018-03-30T08:41:44Z</time>
      </trkpt>
      <trkpt lat="38.4878150" lon="-0.6581990">
        <ele>605.1</ele>
        <time>2018-03-30T08:41:45Z</time>
      </trkpt>
      <trkpt lat="38.4877520" lon="-0.6582210">
        <ele>604.1</ele>
        <time>2018-03-30T08:41:46Z</time>
      </trkpt>
      <trkpt lat="38.4876750" lon="-0.6582340">
        <ele>603.2</ele>
        <time>2018-03-30T08:41:47Z</time>
      </trkpt>
      <trkpt lat="38.4876070" lon="-0.6582330">
        <ele>602.3</ele>
        <time>2018-03-30T08:41:48Z</time>
      </trkpt>
      <trkpt lat="38.4875410" lon="-0.6582040">
        <ele>601.5</ele>
        <time>2018-03-30T08:41:49Z</time>
      </trkpt>
      <trkpt lat="38.4874720" lon="-0.6581880">
        <ele>600.6</ele>
        <time>2018-03-30T08:41:50Z</time>
      </trkpt>
      <trkpt lat="38.4874020" lon="-0.6581650">
        <ele>599.9</ele>
        <time>2018-03-30T08:41:51Z</time>
      </trkpt>
      <trkpt lat="38.4873350" lon="-0.6581390">
        <ele>599.4</ele>
        <time>2018-03-30T08:41:52Z</time>
      </trkpt>
      <trkpt lat="38.4872680" lon="-0.6581250">
        <ele>598.9</ele>
        <time>2018-03-30T08:41:53Z</time>
      </trkpt>
      <trkpt lat="38.4872040" lon="-0.6581150">
        <ele>598.4</ele>
        <time>2018-03-30T08:41:54Z</time>
      </trkpt>
      <trkpt lat="38.4871390" lon="-0.6581250">
        <ele>598.0</ele>
        <time>2018-03-30T08:41:55Z</time>
      </trkpt>
      <trkpt lat="38.4870780" lon="-0.6581520">
        <ele>597.6</ele>
        <time>2018-03-30T08:41:56Z</time>
      </trkpt>
      <trkpt lat="38.4870260" lon="-0.6582000">
        <ele>597.2</ele>
        <time>2018-03-30T08:41:57Z</time>
      </trkpt>
      <trkpt lat="38.4869730" lon="-0.6582450">
        <ele>596.7</ele>
        <time>2018-03-30T08:41:58Z</time>
      </trkpt>
      <trkpt lat="38.4869150" lon="-0.6582840">
        <ele>596.3</ele>
        <time>2018-03-30T08:41:59Z</time>
      </trkpt>
      <trkpt lat="38.4868520" lon="-0.6583110">
        <ele>595.9</ele>
        <time>2018-03-30T08:42:00Z</time>
      </trkpt>
      <trkpt lat="38.4867880" lon="-0.6583180">
        <ele>595.5</ele>
        <time>2018-03-30T08:42:01Z</time>
      </trkpt>
      <trkpt lat="38.4867180" lon="-0.6583120">
        <ele>594.9</ele>
        <time>2018-03-30T08:42:02Z</time>
      </trkpt>
      <trkpt lat="38.4866520" lon="-0.6582890">
        <ele>594.2</ele>
        <time>2018-03-30T08:42:03Z</time>
      </trkpt>
      <trkpt lat="38.4865840" lon="-0.6582690">
        <ele>593.6</ele>
        <time>2018-03-30T08:42:04Z</time>
      </trkpt>
      <trkpt lat="38.4865120" lon="-0.6582500">
        <ele>593.2</ele>
        <time>2018-03-30T08:42:05Z</time>
      </trkpt>
      <trkpt lat="38.4864390" lon="-0.6582340">
        <ele>592.7</ele>
        <time>2018-03-30T08:42:06Z</time>
      </trkpt>
      <trkpt lat="38.4863670" lon="-0.6582190">
        <ele>592.4</ele>
        <time>2018-03-30T08:42:07Z</time>
      </trkpt>
      <trkpt lat="38.4862920" lon="-0.6582040">
        <ele>592.2</ele>
        <time>2018-03-30T08:42:08Z</time>
      </trkpt>
      <trkpt lat="38.4862070" lon="-0.6581910">
        <ele>592.1</ele>
        <time>2018-03-30T08:42:09Z</time>
      </trkpt>
      <trkpt lat="38.4861280" lon="-0.6581770">
        <ele>591.9</ele>
        <time>2018-03-30T08:42:10Z</time>
      </trkpt>
      <trkpt lat="38.4860510" lon="-0.6581700">
        <ele>591.9</ele>
        <time>2018-03-30T08:42:11Z</time>
      </trkpt>
      <trkpt lat="38.4859770" lon="-0.6581690">
        <ele>591.9</ele>
        <time>2018-03-30T08:42:12Z</time>
      </trkpt>
      <trkpt lat="38.4859010" lon="-0.6581640">
        <ele>591.8</ele>
        <time>2018-03-30T08:42:13Z</time>
      </trkpt>
      <trkpt lat="38.4858270" lon="-0.6581600">
        <ele>591.9</ele>
        <time>2018-03-30T08:42:14Z</time>
      </trkpt>
      <trkpt lat="38.4857530" lon="-0.6581560">
        <ele>591.9</ele>
        <time>2018-03-30T08:42:15Z</time>
      </trkpt>
      <trkpt lat="38.4856830" lon="-0.6581470">
        <ele>592.0</ele>
        <time>2018-03-30T08:42:16Z</time>
      </trkpt>
      <trkpt lat="38.4856150" lon="-0.6581340">
        <ele>592.0</ele>
        <time>2018-03-30T08:42:17Z</time>
      </trkpt>
      <trkpt lat="38.4855450" lon="-0.6581210">
        <ele>592.1</ele>
        <time>2018-03-30T08:42:18Z</time>
      </trkpt>
      <trkpt lat="38.4854790" lon="-0.6581100">
        <ele>592.2</ele>
        <time>2018-03-30T08:42:19Z</time>
      </trkpt>
      <trkpt lat="38.4854140" lon="-0.6580990">
        <ele>592.2</ele>
        <time>2018-03-30T08:42:20Z</time>
      </trkpt>
      <trkpt lat="38.4853500" lon="-0.6580860">
        <ele>592.3</ele>
        <time>2018-03-30T08:42:21Z</time>
      </trkpt>
      <trkpt lat="38.4852890" lon="-0.6580740">
        <ele>592.4</ele>
        <time>2018-03-30T08:42:22Z</time>
      </trkpt>
      <trkpt lat="38.4852360" lon="-0.6580570">
        <ele>592.4</ele>
        <time>2018-03-30T08:42:23Z</time>
      </trkpt>
      <trkpt lat="38.4851870" lon="-0.6580340">
        <ele>592.4</ele>
        <time>2018-03-30T08:42:24Z</time>
      </trkpt>
      <trkpt lat="38.4851400" lon="-0.6580150">
        <ele>592.5</ele>
        <time>2018-03-30T08:42:25Z</time>
      </trkpt>
      <trkpt lat="38.4850950" lon="-0.6579900">
        <ele>592.4</ele>
        <time>2018-03-30T08:42:26Z</time>
      </trkpt>
      <trkpt lat="38.4850510" lon="-0.6579560">
        <ele>592.3</ele>
        <time>2018-03-30T08:42:27Z</time>
      </trkpt>
      <trkpt lat="38.4850190" lon="-0.6579120">
        <ele>592.3</ele>
        <time>2018-03-30T08:42:28Z</time>
      </trkpt>
      <trkpt lat="38.4849820" lon="-0.6578620">
        <ele>592.2</ele>
        <time>2018-03-30T08:42:29Z</time>
      </trkpt>
      <trkpt lat="38.4849550" lon="-0.6577990">
        <ele>592.1</ele>
        <time>2018-03-30T08:42:30Z</time>
      </trkpt>
      <trkpt lat="38.4849200" lon="-0.6577410">
        <ele>592.0</ele>
        <time>2018-03-30T08:42:31Z</time>
      </trkpt>
      <trkpt lat="38.4848800" lon="-0.6576850">
        <ele>591.9</ele>
        <time>2018-03-30T08:42:32Z</time>
      </trkpt>
      <trkpt lat="38.4848390" lon="-0.6576300">
        <ele>591.8</ele>
        <time>2018-03-30T08:42:33Z</time>
      </trkpt>
      <trkpt lat="38.4847970" lon="-0.6575740">
        <ele>591.6</ele>
        <time>2018-03-30T08:42:34Z</time>
      </trkpt>
      <trkpt lat="38.4847580" lon="-0.6575150">
        <ele>591.5</ele>
        <time>2018-03-30T08:42:35Z</time>
      </trkpt>
      <trkpt lat="38.4847190" lon="-0.6574560">
        <ele>591.3</ele>
        <time>2018-03-30T08:42:36Z</time>
      </trkpt>
      <trkpt lat="38.4846820" lon="-0.6573960">
        <ele>591.1</ele>
        <time>2018-03-30T08:42:37Z</time>
      </trkpt>
      <trkpt lat="38.4846430" lon="-0.6573370">
        <ele>590.9</ele>
        <time>2018-03-30T08:42:38Z</time>
      </trkpt>
      <trkpt lat="38.4846040" lon="-0.6572770">
        <ele>590.4</ele>
        <time>2018-03-30T08:42:39Z</time>
      </trkpt>
      <trkpt lat="38.4845640" lon="-0.6572210">
        <ele>590.0</ele>
        <time>2018-03-30T08:42:40Z</time>
      </trkpt>
      <trkpt lat="38.4845310" lon="-0.6571650">
        <ele>589.5</ele>
        <time>2018-03-30T08:42:41Z</time>
      </trkpt>
      <trkpt lat="38.4844810" lon="-0.6571250">
        <ele>589.0</ele>
        <time>2018-03-30T08:42:42Z</time>
      </trkpt>
      <trkpt lat="38.4844350" lon="-0.6570710">
        <ele>589.0</ele>
        <time>2018-03-30T08:42:43Z</time>
      </trkpt>
      <trkpt lat="38.4843560" lon="-0.6570440">
        <ele>589.0</ele>
        <time>2018-03-30T08:42:44Z</time>
      </trkpt>
      <trkpt lat="38.4842730" lon="-0.6570130">
        <ele>587.8</ele>
        <time>2018-03-30T08:42:45Z</time>
      </trkpt>
      <trkpt lat="38.4842030" lon="-0.6569870">
        <ele>586.6</ele>
        <time>2018-03-30T08:42:46Z</time>
      </trkpt>
      <trkpt lat="38.4841290" lon="-0.6569680">
        <ele>585.7</ele>
        <time>2018-03-30T08:42:47Z</time>
      </trkpt>
      <trkpt lat="38.4840560" lon="-0.6569730">
        <ele>585.1</ele>
        <time>2018-03-30T08:42:48Z</time>
      </trkpt>
      <trkpt lat="38.4839720" lon="-0.6570400">
        <ele>584.5</ele>
        <time>2018-03-30T08:42:49Z</time>
      </trkpt>
      <trkpt lat="38.4839170" lon="-0.6570750">
        <ele>584.2</ele>
        <time>2018-03-30T08:42:50Z</time>
      </trkpt>
      <trkpt lat="38.4838560" lon="-0.6571080">
        <ele>583.9</ele>
        <time>2018-03-30T08:42:51Z</time>
      </trkpt>
      <trkpt lat="38.4837970" lon="-0.6571300">
        <ele>583.6</ele>
        <time>2018-03-30T08:42:52Z</time>
      </trkpt>
      <trkpt lat="38.4837320" lon="-0.6571360">
        <ele>583.1</ele>
        <time>2018-03-30T08:42:53Z</time>
      </trkpt>
      <trkpt lat="38.4836670" lon="-0.6571450">
        <ele>582.4</ele>
        <time>2018-03-30T08:42:54Z</time>
      </trkpt>
      <trkpt lat="38.4836010" lon="-0.6571470">
        <ele>581.7</ele>
        <time>2018-03-30T08:42:55Z</time>
      </trkpt>
      <trkpt lat="38.4835300" lon="-0.6571470">
        <ele>581.0</ele>
        <time>2018-03-30T08:42:56Z</time>
      </trkpt>
      <trkpt lat="38.4834550" lon="-0.6571570">
        <ele>580.2</ele>
        <time>2018-03-30T08:42:57Z</time>
      </trkpt>
      <trkpt lat="38.4833820" lon="-0.6571880">
        <ele>579.4</ele>
        <time>2018-03-30T08:42:58Z</time>
      </trkpt>
      <trkpt lat="38.4833020" lon="-0.6572520">
        <ele>578.5</ele>
        <time>2018-03-30T08:42:59Z</time>
      </trkpt>
      <trkpt lat="38.4832260" lon="-0.6572920">
        <ele>577.6</ele>
        <time>2018-03-30T08:43:00Z</time>
      </trkpt>
      <trkpt lat="38.4831500" lon="-0.6573280">
        <ele>576.9</ele>
        <time>2018-03-30T08:43:01Z</time>
      </trkpt>
      <trkpt lat="38.4830710" lon="-0.6573640">
        <ele>576.4</ele>
        <time>2018-03-30T08:43:02Z</time>
      </trkpt>
      <trkpt lat="38.4829900" lon="-0.6574000">
        <ele>575.9</ele>
        <time>2018-03-30T08:43:03Z</time>
      </trkpt>
      <trkpt lat="38.4829110" lon="-0.6574370">
        <ele>575.3</ele>
        <time>2018-03-30T08:43:04Z</time>
      </trkpt>
      <trkpt lat="38.4828300" lon="-0.6574680">
        <ele>574.8</ele>
        <time>2018-03-30T08:43:05Z</time>
      </trkpt>
      <trkpt lat="38.4827460" lon="-0.6574950">
        <ele>574.1</ele>
        <time>2018-03-30T08:43:06Z</time>
      </trkpt>
      <trkpt lat="38.4826610" lon="-0.6575210">
        <ele>573.5</ele>
        <time>2018-03-30T08:43:07Z</time>
      </trkpt>
      <trkpt lat="38.4825680" lon="-0.6575540">
        <ele>572.9</ele>
        <time>2018-03-30T08:43:08Z</time>
      </trkpt>
      <trkpt lat="38.4824730" lon="-0.6575900">
        <ele>572.2</ele>
        <time>2018-03-30T08:43:09Z</time>
      </trkpt>
      <trkpt lat="38.4823800" lon="-0.6576260">
        <ele>571.2</ele>
        <time>2018-03-30T08:43:10Z</time>
      </trkpt>
      <trkpt lat="38.4822800" lon="-0.6576660">
        <ele>570.3</ele>
        <time>2018-03-30T08:43:11Z</time>
      </trkpt>
      <trkpt lat="38.4821740" lon="-0.6577140">
        <ele>569.3</ele>
        <time>2018-03-30T08:43:12Z</time>
      </trkpt>
      <trkpt lat="38.4820750" lon="-0.6577590">
        <ele>567.9</ele>
        <time>2018-03-30T08:43:13Z</time>
      </trkpt>
      <trkpt lat="38.4819740" lon="-0.6578090">
        <ele>566.5</ele>
        <time>2018-03-30T08:43:14Z</time>
      </trkpt>
      <trkpt lat="38.4818840" lon="-0.6578540">
        <ele>565.6</ele>
        <time>2018-03-30T08:43:15Z</time>
      </trkpt>
      <trkpt lat="38.4818070" lon="-0.6579060">
        <ele>564.9</ele>
        <time>2018-03-30T08:43:16Z</time>
      </trkpt>
      <trkpt lat="38.4817340" lon="-0.6579510">
        <ele>564.3</ele>
        <time>2018-03-30T08:43:17Z</time>
      </trkpt>
      <trkpt lat="38.4816620" lon="-0.6579980">
        <ele>563.7</ele>
        <time>2018-03-30T08:43:18Z</time>
      </trkpt>
      <trkpt lat="38.4815920" lon="-0.6580360">
        <ele>563.3</ele>
        <time>2018-03-30T08:43:19Z</time>
      </trkpt>
      <trkpt lat="38.4815190" lon="-0.6580620">
        <ele>562.8</ele>
        <time>2018-03-30T08:43:20Z</time>
      </trkpt>
      <trkpt lat="38.4814510" lon="-0.6580760">
        <ele>562.2</ele>
        <time>2018-03-30T08:43:21Z</time>
      </trkpt>
      <trkpt lat="38.4813860" lon="-0.6580900">
        <ele>561.5</ele>
        <time>2018-03-30T08:43:22Z</time>
      </trkpt>
      <trkpt lat="38.4813240" lon="-0.6581000">
        <ele>560.8</ele>
        <time>2018-03-30T08:43:23Z</time>
      </trkpt>
      <trkpt lat="38.4812590" lon="-0.6581140">
        <ele>560.0</ele>
        <time>2018-03-30T08:43:24Z</time>
      </trkpt>
      <trkpt lat="38.4811910" lon="-0.6581450">
        <ele>559.2</ele>
        <time>2018-03-30T08:43:25Z</time>
      </trkpt>
      <trkpt lat="38.4811020" lon="-0.6582030">
        <ele>558.1</ele>
        <time>2018-03-30T08:43:26Z</time>
      </trkpt>
      <trkpt lat="38.4810330" lon="-0.6582580">
        <ele>557.4</ele>
        <time>2018-03-30T08:43:27Z</time>
      </trkpt>
      <trkpt lat="38.4809630" lon="-0.6583180">
        <ele>556.9</ele>
        <time>2018-03-30T08:43:28Z</time>
      </trkpt>
      <trkpt lat="38.4808950" lon="-0.6583880">
        <ele>556.3</ele>
        <time>2018-03-30T08:43:29Z</time>
      </trkpt>
      <trkpt lat="38.4808320" lon="-0.6584610">
        <ele>555.6</ele>
        <time>2018-03-30T08:43:30Z</time>
      </trkpt>
      <trkpt lat="38.4807680" lon="-0.6585320">
        <ele>554.9</ele>
        <time>2018-03-30T08:43:31Z</time>
      </trkpt>
      <trkpt lat="38.4807040" lon="-0.6586030">
        <ele>554.2</ele>
        <time>2018-03-30T08:43:32Z</time>
      </trkpt>
      <trkpt lat="38.4806430" lon="-0.6586710">
        <ele>553.9</ele>
        <time>2018-03-30T08:43:33Z</time>
      </trkpt>
      <trkpt lat="38.4805810" lon="-0.6587310">
        <ele>553.6</ele>
        <time>2018-03-30T08:43:34Z</time>
      </trkpt>
      <trkpt lat="38.4805210" lon="-0.6587890">
        <ele>553.3</ele>
        <time>2018-03-30T08:43:35Z</time>
      </trkpt>
      <trkpt lat="38.4804640" lon="-0.6588490">
        <ele>553.0</ele>
        <time>2018-03-30T08:43:36Z</time>
      </trkpt>
      <trkpt lat="38.4804130" lon="-0.6589090">
        <ele>552.8</ele>
        <time>2018-03-30T08:43:37Z</time>
      </trkpt>
      <trkpt lat="38.4803560" lon="-0.6589660">
        <ele>552.4</ele>
        <time>2018-03-30T08:43:38Z</time>
      </trkpt>
      <trkpt lat="38.4802970" lon="-0.6590230">
        <ele>551.7</ele>
        <time>2018-03-30T08:43:39Z</time>
      </trkpt>
      <trkpt lat="38.4802390" lon="-0.6590820">
        <ele>551.0</ele>
        <time>2018-03-30T08:43:40Z</time>
      </trkpt>
      <trkpt lat="38.4801820" lon="-0.6591440">
        <ele>550.2</ele>
        <time>2018-03-30T08:43:41Z</time>
      </trkpt>
      <trkpt lat="38.4801240" lon="-0.6592080">
        <ele>549.4</ele>
        <time>2018-03-30T08:43:42Z</time>
      </trkpt>
      <trkpt lat="38.4800600" lon="-0.6592790">
        <ele>548.8</ele>
        <time>2018-03-30T08:43:43Z</time>
      </trkpt>
      <trkpt lat="38.4799960" lon="-0.6593560">
        <ele>548.2</ele>
        <time>2018-03-30T08:43:44Z</time>
      </trkpt>
      <trkpt lat="38.4799260" lon="-0.6594270">
        <ele>547.6</ele>
        <time>2018-03-30T08:43:45Z</time>
      </trkpt>
      <trkpt lat="38.4798600" lon="-0.6594960">
        <ele>546.8</ele>
        <time>2018-03-30T08:43:46Z</time>
      </trkpt>
      <trkpt lat="38.4798000" lon="-0.6595710">
        <ele>546.3</ele>
        <time>2018-03-30T08:43:47Z</time>
      </trkpt>
      <trkpt lat="38.4797460" lon="-0.6596430">
        <ele>545.9</ele>
        <time>2018-03-30T08:43:48Z</time>
      </trkpt>
      <trkpt lat="38.4796920" lon="-0.6597100">
        <ele>545.5</ele>
        <time>2018-03-30T08:43:49Z</time>
      </trkpt>
      <trkpt lat="38.4796360" lon="-0.6597770">
        <ele>545.1</ele>
        <time>2018-03-30T08:43:50Z</time>
      </trkpt>
      <trkpt lat="38.4795800" lon="-0.6598380">
        <ele>544.5</ele>
        <time>2018-03-30T08:43:51Z</time>
      </trkpt>
      <trkpt lat="38.4795190" lon="-0.6598870">
        <ele>543.9</ele>
        <time>2018-03-30T08:43:52Z</time>
      </trkpt>
      <trkpt lat="38.4794530" lon="-0.6599370">
        <ele>543.5</ele>
        <time>2018-03-30T08:43:53Z</time>
      </trkpt>
      <trkpt lat="38.4793910" lon="-0.6599820">
        <ele>543.2</ele>
        <time>2018-03-30T08:43:54Z</time>
      </trkpt>
      <trkpt lat="38.4793250" lon="-0.6600260">
        <ele>542.8</ele>
        <time>2018-03-30T08:43:55Z</time>
      </trkpt>
      <trkpt lat="38.4792620" lon="-0.6600720">
        <ele>542.5</ele>
        <time>2018-03-30T08:43:56Z</time>
      </trkpt>
      <trkpt lat="38.4791980" lon="-0.6601170">
        <ele>542.1</ele>
        <time>2018-03-30T08:43:57Z</time>
      </trkpt>
      <trkpt lat="38.4791320" lon="-0.6601640">
        <ele>541.7</ele>
        <time>2018-03-30T08:43:58Z</time>
      </trkpt>
      <trkpt lat="38.4790650" lon="-0.6602130">
        <ele>541.1</ele>
        <time>2018-03-30T08:43:59Z</time>
      </trkpt>
      <trkpt lat="38.4790000" lon="-0.6602690">
        <ele>540.6</ele>
        <time>2018-03-30T08:44:00Z</time>
      </trkpt>
      <trkpt lat="38.4789430" lon="-0.6603270">
        <ele>540.1</ele>
        <time>2018-03-30T08:44:01Z</time>
      </trkpt>
      <trkpt lat="38.4788830" lon="-0.6603840">
        <ele>539.6</ele>
        <time>2018-03-30T08:44:02Z</time>
      </trkpt>
      <trkpt lat="38.4788220" lon="-0.6604380">
        <ele>539.0</ele>
        <time>2018-03-30T08:44:03Z</time>
      </trkpt>
      <trkpt lat="38.4787580" lon="-0.6604830">
        <ele>538.2</ele>
        <time>2018-03-30T08:44:04Z</time>
      </trkpt>
      <trkpt lat="38.4786820" lon="-0.6605190">
        <ele>537.1</ele>
        <time>2018-03-30T08:44:05Z</time>
      </trkpt>
      <trkpt lat="38.4786080" lon="-0.6605600">
        <ele>535.9</ele>
        <time>2018-03-30T08:44:06Z</time>
      </trkpt>
      <trkpt lat="38.4785390" lon="-0.6605990">
        <ele>534.6</ele>
        <time>2018-03-30T08:44:07Z</time>
      </trkpt>
      <trkpt lat="38.4784990" lon="-0.6606340">
        <ele>533.8</ele>
        <time>2018-03-30T08:44:08Z</time>
      </trkpt>
      <trkpt lat="38.4784430" lon="-0.6606690">
        <ele>532.7</ele>
        <time>2018-03-30T08:44:09Z</time>
      </trkpt>
      <trkpt lat="38.4783830" lon="-0.6606950">
        <ele>531.6</ele>
        <time>2018-03-30T08:44:10Z</time>
      </trkpt>
      <trkpt lat="38.4783230" lon="-0.6607220">
        <ele>530.6</ele>
        <time>2018-03-30T08:44:11Z</time>
      </trkpt>
      <trkpt lat="38.4782550" lon="-0.6607430">
        <ele>529.5</ele>
        <time>2018-03-30T08:44:12Z</time>
      </trkpt>
      <trkpt lat="38.4781910" lon="-0.6607600">
        <ele>528.6</ele>
        <time>2018-03-30T08:44:13Z</time>
      </trkpt>
      <trkpt lat="38.4781220" lon="-0.6607760">
        <ele>527.8</ele>
        <time>2018-03-30T08:44:14Z</time>
      </trkpt>
      <trkpt lat="38.4780570" lon="-0.6607930">
        <ele>527.1</ele>
        <time>2018-03-30T08:44:15Z</time>
      </trkpt>
      <trkpt lat="38.4779890" lon="-0.6608120">
        <ele>526.4</ele>
        <time>2018-03-30T08:44:16Z</time>
      </trkpt>
      <trkpt lat="38.4779210" lon="-0.6608320">
        <ele>525.7</ele>
        <time>2018-03-30T08:44:17Z</time>
      </trkpt>
      <trkpt lat="38.4778480" lon="-0.6608440">
        <ele>525.1</ele>
        <time>2018-03-30T08:44:18Z</time>
      </trkpt>
      <trkpt lat="38.4777770" lon="-0.6608460">
        <ele>524.4</ele>
        <time>2018-03-30T08:44:19Z</time>
      </trkpt>
      <trkpt lat="38.4777020" lon="-0.6608370">
        <ele>523.5</ele>
        <time>2018-03-30T08:44:20Z</time>
      </trkpt>
      <trkpt lat="38.4776280" lon="-0.6608280">
        <ele>522.6</ele>
        <time>2018-03-30T08:44:21Z</time>
      </trkpt>
      <trkpt lat="38.4775600" lon="-0.6607960">
        <ele>521.9</ele>
        <time>2018-03-30T08:44:22Z</time>
      </trkpt>
      <trkpt lat="38.4774980" lon="-0.6607460">
        <ele>521.1</ele>
        <time>2018-03-30T08:44:23Z</time>
      </trkpt>
      <trkpt lat="38.4774340" lon="-0.6607020">
        <ele>520.6</ele>
        <time>2018-03-30T08:44:24Z</time>
      </trkpt>
      <trkpt lat="38.4773730" lon="-0.6606620">
        <ele>520.2</ele>
        <time>2018-03-30T08:44:25Z</time>
      </trkpt>
      <trkpt lat="38.4773130" lon="-0.6606300">
        <ele>519.8</ele>
        <time>2018-03-30T08:44:26Z</time>
      </trkpt>
      <trkpt lat="38.4772520" lon="-0.6606140">
        <ele>519.3</ele>
        <time>2018-03-30T08:44:27Z</time>
      </trkpt>
      <trkpt lat="38.4771820" lon="-0.6606020">
        <ele>518.9</ele>
        <time>2018-03-30T08:44:28Z</time>
      </trkpt>
      <trkpt lat="38.4771060" lon="-0.6605930">
        <ele>518.6</ele>
        <time>2018-03-30T08:44:29Z</time>
      </trkpt>
      <trkpt lat="38.4770140" lon="-0.6605840">
        <ele>518.2</ele>
        <time>2018-03-30T08:44:30Z</time>
      </trkpt>
      <trkpt lat="38.4769160" lon="-0.6605840">
        <ele>517.8</ele>
        <time>2018-03-30T08:44:31Z</time>
      </trkpt>
      <trkpt lat="38.4768170" lon="-0.6605950">
        <ele>517.2</ele>
        <time>2018-03-30T08:44:32Z</time>
      </trkpt>
      <trkpt lat="38.4767360" lon="-0.6605990">
        <ele>516.7</ele>
        <time>2018-03-30T08:44:33Z</time>
      </trkpt>
      <trkpt lat="38.4766610" lon="-0.6605980">
        <ele>516.4</ele>
        <time>2018-03-30T08:44:34Z</time>
      </trkpt>
      <trkpt lat="38.4765840" lon="-0.6605970">
        <ele>516.0</ele>
        <time>2018-03-30T08:44:35Z</time>
      </trkpt>
      <trkpt lat="38.4765100" lon="-0.6605950">
        <ele>515.5</ele>
        <time>2018-03-30T08:44:36Z</time>
      </trkpt>
      <trkpt lat="38.4764390" lon="-0.6605920">
        <ele>515.3</ele>
        <time>2018-03-30T08:44:37Z</time>
      </trkpt>
      <trkpt lat="38.4763650" lon="-0.6605860">
        <ele>515.2</ele>
        <time>2018-03-30T08:44:38Z</time>
      </trkpt>
      <trkpt lat="38.4762930" lon="-0.6605780">
        <ele>515.1</ele>
        <time>2018-03-30T08:44:39Z</time>
      </trkpt>
      <trkpt lat="38.4762210" lon="-0.6605720">
        <ele>514.9</ele>
        <time>2018-03-30T08:44:40Z</time>
      </trkpt>
      <trkpt lat="38.4761540" lon="-0.6605680">
        <ele>514.8</ele>
        <time>2018-03-30T08:44:41Z</time>
      </trkpt>
      <trkpt lat="38.4760870" lon="-0.6605630">
        <ele>514.7</ele>
        <time>2018-03-30T08:44:42Z</time>
      </trkpt>
      <trkpt lat="38.4760220" lon="-0.6605570">
        <ele>514.6</ele>
        <time>2018-03-30T08:44:43Z</time>
      </trkpt>
      <trkpt lat="38.4759600" lon="-0.6605490">
        <ele>514.5</ele>
        <time>2018-03-30T08:44:44Z</time>
      </trkpt>
      <trkpt lat="38.4758940" lon="-0.6605430">
        <ele>514.3</ele>
        <time>2018-03-30T08:44:45Z</time>
      </trkpt>
      <trkpt lat="38.4758300" lon="-0.6605350">
        <ele>514.1</ele>
        <time>2018-03-30T08:44:46Z</time>
      </trkpt>
      <trkpt lat="38.4757640" lon="-0.6605210">
        <ele>513.9</ele>
        <time>2018-03-30T08:44:47Z</time>
      </trkpt>
      <trkpt lat="38.4757010" lon="-0.6605160">
        <ele>513.7</ele>
        <time>2018-03-30T08:44:48Z</time>
      </trkpt>
      <trkpt lat="38.4756330" lon="-0.6605120">
        <ele>513.4</ele>
        <time>2018-03-30T08:44:49Z</time>
      </trkpt>
      <trkpt lat="38.4755620" lon="-0.6605130">
        <ele>513.1</ele>
        <time>2018-03-30T08:44:50Z</time>
      </trkpt>
      <trkpt lat="38.4754850" lon="-0.6605300">
        <ele>512.8</ele>
        <time>2018-03-30T08:44:51Z</time>
      </trkpt>
      <trkpt lat="38.4754100" lon="-0.6605440">
        <ele>512.5</ele>
        <time>2018-03-30T08:44:52Z</time>
      </trkpt>
      <trkpt lat="38.4753390" lon="-0.6605580">
        <ele>512.1</ele>
        <time>2018-03-30T08:44:53Z</time>
      </trkpt>
      <trkpt lat="38.4752650" lon="-0.6605750">
        <ele>511.7</ele>
        <time>2018-03-30T08:44:54Z</time>
      </trkpt>
      <trkpt lat="38.4751940" lon="-0.6606040">
        <ele>511.3</ele>
        <time>2018-03-30T08:44:55Z</time>
      </trkpt>
      <trkpt lat="38.4751230" lon="-0.6606350">
        <ele>511.0</ele>
        <time>2018-03-30T08:44:56Z</time>
      </trkpt>
      <trkpt lat="38.4750520" lon="-0.6606680">
        <ele>510.7</ele>
        <time>2018-03-30T08:44:57Z</time>
      </trkpt>
      <trkpt lat="38.4749790" lon="-0.6607080">
        <ele>510.2</ele>
        <time>2018-03-30T08:44:58Z</time>
      </trkpt>
      <trkpt lat="38.4749110" lon="-0.6607570">
        <ele>509.6</ele>
        <time>2018-03-30T08:44:59Z</time>
      </trkpt>
      <trkpt lat="38.4748420" lon="-0.6608150">
        <ele>508.8</ele>
        <time>2018-03-30T08:45:00Z</time>
      </trkpt>
      <trkpt lat="38.4747840" lon="-0.6608910">
        <ele>508.3</ele>
        <time>2018-03-30T08:45:01Z</time>
      </trkpt>
      <trkpt lat="38.4747280" lon="-0.6609660">
        <ele>507.7</ele>
        <time>2018-03-30T08:45:02Z</time>
      </trkpt>
      <trkpt lat="38.4746740" lon="-0.6610420">
        <ele>507.1</ele>
        <time>2018-03-30T08:45:03Z</time>
      </trkpt>
      <trkpt lat="38.4746240" lon="-0.6611120">
        <ele>506.8</ele>
        <time>2018-03-30T08:45:04Z</time>
      </trkpt>
      <trkpt lat="38.4745840" lon="-0.6611690">
        <ele>506.5</ele>
        <time>2018-03-30T08:45:05Z</time>
      </trkpt>
      <trkpt lat="38.4745560" lon="-0.6612120">
        <ele>506.2</ele>
        <time>2018-03-30T08:45:06Z</time>
      </trkpt>
      <trkpt lat="38.4745290" lon="-0.6612450">
        <ele>506.0</ele>
        <time>2018-03-30T08:45:07Z</time>
      </trkpt>
      <trkpt lat="38.4745000" lon="-0.6612710">
        <ele>505.7</ele>
        <time>2018-03-30T08:45:08Z</time>
      </trkpt>
      <trkpt lat="38.4744950" lon="-0.6612820">
        <ele>505.7</ele>
        <time>2018-03-30T08:45:09Z</time>
      </trkpt>
      <trkpt lat="38.4744950" lon="-0.6612820">
        <ele>505.7</ele>
        <time>2018-03-30T08:45:10Z</time>
      </trkpt>
      <trkpt lat="38.4744940" lon="-0.6612920">
        <ele>505.6</ele>
        <time>2018-03-30T08:45:11Z</time>
      </trkpt>
      <trkpt lat="38.4744880" lon="-0.6613070">
        <ele>505.5</ele>
        <time>2018-03-30T08:45:12Z</time>
      </trkpt>
      <trkpt lat="38.4744800" lon="-0.6613260">
        <ele>505.3</ele>
        <time>2018-03-30T08:45:13Z</time>
      </trkpt>
      <trkpt lat="38.4744670" lon="-0.6613360">
        <ele>505.2</ele>
        <time>2018-03-30T08:45:14Z</time>
      </trkpt>
      <trkpt lat="38.4744490" lon="-0.6613320">
        <ele>504.8</ele>
        <time>2018-03-30T08:45:15Z</time>
      </trkpt>
      <trkpt lat="38.4744210" lon="-0.6613110">
        <ele>504.3</ele>
        <time>2018-03-30T08:45:16Z</time>
      </trkpt>
      <trkpt lat="38.4743830" lon="-0.6612860">
        <ele>503.8</ele>
        <time>2018-03-30T08:45:17Z</time>
      </trkpt>
      <trkpt lat="38.4743470" lon="-0.6612580">
        <ele>503.4</ele>
        <time>2018-03-30T08:45:18Z</time>
      </trkpt>
      <trkpt lat="38.4743110" lon="-0.6612260">
        <ele>502.9</ele>
        <time>2018-03-30T08:45:19Z</time>
      </trkpt>
      <trkpt lat="38.4742690" lon="-0.6611930">
        <ele>502.5</ele>
        <time>2018-03-30T08:45:20Z</time>
      </trkpt>
      <trkpt lat="38.4742250" lon="-0.6611530">
        <ele>502.0</ele>
        <time>2018-03-30T08:45:21Z</time>
      </trkpt>
      <trkpt lat="38.4741750" lon="-0.6611010">
        <ele>501.3</ele>
        <time>2018-03-30T08:45:22Z</time>
      </trkpt>
      <trkpt lat="38.4741150" lon="-0.6610500">
        <ele>500.6</ele>
        <time>2018-03-30T08:45:23Z</time>
      </trkpt>
      <trkpt lat="38.4740560" lon="-0.6609990">
        <ele>500.0</ele>
        <time>2018-03-30T08:45:24Z</time>
      </trkpt>
      <trkpt lat="38.4740100" lon="-0.6609500">
        <ele>499.5</ele>
        <time>2018-03-30T08:45:25Z</time>
      </trkpt>
      <trkpt lat="38.4739740" lon="-0.6609080">
        <ele>499.1</ele>
        <time>2018-03-30T08:45:26Z</time>
      </trkpt>
      <trkpt lat="38.4739430" lon="-0.6608670">
        <ele>498.7</ele>
        <time>2018-03-30T08:45:27Z</time>
      </trkpt>
      <trkpt lat="38.4739200" lon="-0.6608400">
        <ele>498.5</ele>
        <time>2018-03-30T08:45:28Z</time>
      </trkpt>
      <trkpt lat="38.4739010" lon="-0.6608070">
        <ele>497.9</ele>
        <time>2018-03-30T08:45:29Z</time>
      </trkpt>
      <trkpt lat="38.4738820" lon="-0.6607690">
        <ele>497.7</ele>
        <time>2018-03-30T08:45:30Z</time>
      </trkpt>
      <trkpt lat="38.4738640" lon="-0.6607290">
        <ele>497.6</ele>
        <time>2018-03-30T08:45:31Z</time>
      </trkpt>
      <trkpt lat="38.4738590" lon="-0.6606770">
        <ele>497.4</ele>
        <time>2018-03-30T08:45:32Z</time>
      </trkpt>
      <trkpt lat="38.4738550" lon="-0.6606250">
        <ele>497.3</ele>
        <time>2018-03-30T08:45:33Z</time>
      </trkpt>
      <trkpt lat="38.4738510" lon="-0.6605720">
        <ele>497.1</ele>
        <time>2018-03-30T08:45:34Z</time>
      </trkpt>
      <trkpt lat="38.4738500" lon="-0.6605150">
        <ele>496.9</ele>
        <time>2018-03-30T08:45:35Z</time>
      </trkpt>
      <trkpt lat="38.4738470" lon="-0.6604600">
        <ele>496.8</ele>
        <time>2018-03-30T08:45:36Z</time>
      </trkpt>
      <trkpt lat="38.4738440" lon="-0.6604040">
        <ele>496.6</ele>
        <time>2018-03-30T08:45:37Z</time>
      </trkpt>
      <trkpt lat="38.4738420" lon="-0.6603490">
        <ele>496.4</ele>
        <time>2018-03-30T08:45:38Z</time>
      </trkpt>
      <trkpt lat="38.4738390" lon="-0.6602950">
        <ele>496.2</ele>
        <time>2018-03-30T08:45:39Z</time>
      </trkpt>
      <trkpt lat="38.4738350" lon="-0.6602410">
        <ele>495.9</ele>
        <time>2018-03-30T08:45:40Z</time>
      </trkpt>
      <trkpt lat="38.4738300" lon="-0.6601890">
        <ele>495.7</ele>
        <time>2018-03-30T08:45:41Z</time>
      </trkpt>
      <trkpt lat="38.4738250" lon="-0.6601390">
        <ele>495.5</ele>
        <time>2018-03-30T08:45:42Z</time>
      </trkpt>
      <trkpt lat="38.4738170" lon="-0.6600910">
        <ele>495.3</ele>
        <time>2018-03-30T08:45:43Z</time>
      </trkpt>
      <trkpt lat="38.4738050" lon="-0.6600450">
        <ele>495.1</ele>
        <time>2018-03-30T08:45:44Z</time>
      </trkpt>
      <trkpt lat="38.4737890" lon="-0.6599990">
        <ele>495.0</ele>
        <time>2018-03-30T08:45:45Z</time>
      </trkpt>
      <trkpt lat="38.4737700" lon="-0.6599570">
        <ele>495.0</ele>
        <time>2018-03-30T08:45:46Z</time>
      </trkpt>
      <trkpt lat="38.4737480" lon="-0.6599180">
        <ele>495.0</ele>
        <time>2018-03-30T08:45:47Z</time>
      </trkpt>
      <trkpt lat="38.4737170" lon="-0.6598870">
        <ele>495.0</ele>
        <time>2018-03-30T08:45:48Z</time>
      </trkpt>
      <trkpt lat="38.4736870" lon="-0.6598570">
        <ele>495.0</ele>
        <time>2018-03-30T08:45:49Z</time>
      </trkpt>
      <trkpt lat="38.4736470" lon="-0.6598310">
        <ele>495.0</ele>
        <time>2018-03-30T08:45:50Z</time>
      </trkpt>
      <trkpt lat="38.4736090" lon="-0.6598190">
        <ele>494.9</ele>
        <time>2018-03-30T08:45:51Z</time>
      </trkpt>
      <trkpt lat="38.4735620" lon="-0.6598100">
        <ele>494.9</ele>
        <time>2018-03-30T08:45:52Z</time>
      </trkpt>
      <trkpt lat="38.4735150" lon="-0.6597960">
        <ele>494.8</ele>
        <time>2018-03-30T08:45:53Z</time>
      </trkpt>
      <trkpt lat="38.4734690" lon="-0.6597810">
        <ele>494.8</ele>
        <time>2018-03-30T08:45:54Z</time>
      </trkpt>
      <trkpt lat="38.4734190" lon="-0.6597690">
        <ele>494.8</ele>
        <time>2018-03-30T08:45:55Z</time>
      </trkpt>
      <trkpt lat="38.4733670" lon="-0.6597600">
        <ele>494.7</ele>
        <time>2018-03-30T08:45:56Z</time>
      </trkpt>
      <trkpt lat="38.4733150" lon="-0.6597500">
        <ele>494.7</ele>
        <time>2018-03-30T08:45:57Z</time>
      </trkpt>
      <trkpt lat="38.4732620" lon="-0.6597450">
        <ele>494.6</ele>
        <time>2018-03-30T08:45:58Z</time>
      </trkpt>
      <trkpt lat="38.4732070" lon="-0.6597490">
        <ele>494.6</ele>
        <time>2018-03-30T08:45:59Z</time>
      </trkpt>
      <trkpt lat="38.4731510" lon="-0.6597500">
        <ele>494.4</ele>
        <time>2018-03-30T08:46:00Z</time>
      </trkpt>
      <trkpt lat="38.4730940" lon="-0.6597500">
        <ele>494.2</ele>
        <time>2018-03-30T08:46:01Z</time>
      </trkpt>
      <trkpt lat="38.4730350" lon="-0.6597510">
        <ele>494.1</ele>
        <time>2018-03-30T08:46:02Z</time>
      </trkpt>
      <trkpt lat="38.4729740" lon="-0.6597530">
        <ele>493.9</ele>
        <time>2018-03-30T08:46:03Z</time>
      </trkpt>
      <trkpt lat="38.4729110" lon="-0.6597540">
        <ele>493.7</ele>
        <time>2018-03-30T08:46:04Z</time>
      </trkpt>
      <trkpt lat="38.4728460" lon="-0.6597500">
        <ele>493.4</ele>
        <time>2018-03-30T08:46:05Z</time>
      </trkpt>
      <trkpt lat="38.4727770" lon="-0.6597420">
        <ele>493.0</ele>
        <time>2018-03-30T08:46:06Z</time>
      </trkpt>
      <trkpt lat="38.4727060" lon="-0.6597310">
        <ele>492.5</ele>
        <time>2018-03-30T08:46:07Z</time>
      </trkpt>
      <trkpt lat="38.4726320" lon="-0.6597160">
        <ele>492.1</ele>
        <time>2018-03-30T08:46:08Z</time>
      </trkpt>
      <trkpt lat="38.4725550" lon="-0.6596970">
        <ele>491.7</ele>
        <time>2018-03-30T08:46:09Z</time>
      </trkpt>
      <trkpt lat="38.4724740" lon="-0.6596740">
        <ele>491.2</ele>
        <time>2018-03-30T08:46:10Z</time>
      </trkpt>
      <trkpt lat="38.4723890" lon="-0.6596480">
        <ele>490.5</ele>
        <time>2018-03-30T08:46:11Z</time>
      </trkpt>
      <trkpt lat="38.4723020" lon="-0.6596170">
        <ele>489.8</ele>
        <time>2018-03-30T08:46:12Z</time>
      </trkpt>
      <trkpt lat="38.4722060" lon="-0.6595830">
        <ele>489.0</ele>
        <time>2018-03-30T08:46:13Z</time>
      </trkpt>
      <trkpt lat="38.4721000" lon="-0.6595530">
        <ele>488.1</ele>
        <time>2018-03-30T08:46:14Z</time>
      </trkpt>
      <trkpt lat="38.4719920" lon="-0.6595200">
        <ele>487.2</ele>
        <time>2018-03-30T08:46:15Z</time>
      </trkpt>
      <trkpt lat="38.4718860" lon="-0.6594830">
        <ele>486.5</ele>
        <time>2018-03-30T08:46:16Z</time>
      </trkpt>
      <trkpt lat="38.4717800" lon="-0.6594420">
        <ele>485.9</ele>
        <time>2018-03-30T08:46:17Z</time>
      </trkpt>
      <trkpt lat="38.4716730" lon="-0.6594010">
        <ele>485.4</ele>
        <time>2018-03-30T08:46:18Z</time>
      </trkpt>
      <trkpt lat="38.4715620" lon="-0.6593630">
        <ele>485.0</ele>
        <time>2018-03-30T08:46:19Z</time>
      </trkpt>
      <trkpt lat="38.4714510" lon="-0.6593300">
        <ele>484.6</ele>
        <time>2018-03-30T08:46:20Z</time>
      </trkpt>
      <trkpt lat="38.4713380" lon="-0.6592990">
        <ele>484.3</ele>
        <time>2018-03-30T08:46:21Z</time>
      </trkpt>
      <trkpt lat="38.4712270" lon="-0.6592630">
        <ele>483.8</ele>
        <time>2018-03-30T08:46:22Z</time>
      </trkpt>
      <trkpt lat="38.4711180" lon="-0.6592250">
        <ele>482.2</ele>
        <time>2018-03-30T08:46:23Z</time>
      </trkpt>
      <trkpt lat="38.4710050" lon="-0.6591890">
        <ele>480.6</ele>
        <time>2018-03-30T08:46:24Z</time>
      </trkpt>
      <trkpt lat="38.4708930" lon="-0.6591550">
        <ele>479.0</ele>
        <time>2018-03-30T08:46:25Z</time>
      </trkpt>
      <trkpt lat="38.4707790" lon="-0.6591230">
        <ele>477.5</ele>
        <time>2018-03-30T08:46:26Z</time>
      </trkpt>
      <trkpt lat="38.4706660" lon="-0.6590920">
        <ele>476.3</ele>
        <time>2018-03-30T08:46:27Z</time>
      </trkpt>
      <trkpt lat="38.4705520" lon="-0.6590600">
        <ele>475.4</ele>
        <time>2018-03-30T08:46:28Z</time>
      </trkpt>
      <trkpt lat="38.4704380" lon="-0.6590270">
        <ele>474.4</ele>
        <time>2018-03-30T08:46:29Z</time>
      </trkpt>
      <trkpt lat="38.4703250" lon="-0.6589930">
        <ele>473.4</ele>
        <time>2018-03-30T08:46:30Z</time>
      </trkpt>
      <trkpt lat="38.4702120" lon="-0.6589590">
        <ele>472.4</ele>
        <time>2018-03-30T08:46:31Z</time>
      </trkpt>
      <trkpt lat="38.4700980" lon="-0.6589250">
        <ele>471.6</ele>
        <time>2018-03-30T08:46:32Z</time>
      </trkpt>
      <trkpt lat="38.4699850" lon="-0.6588920">
        <ele>470.7</ele>
        <time>2018-03-30T08:46:33Z</time>
      </trkpt>
      <trkpt lat="38.4698720" lon="-0.6588620">
        <ele>469.9</ele>
        <time>2018-03-30T08:46:34Z</time>
      </trkpt>
      <trkpt lat="38.4697590" lon="-0.6588380">
        <ele>469.2</ele>
        <time>2018-03-30T08:46:35Z</time>
      </trkpt>
      <trkpt lat="38.4696460" lon="-0.6588200">
        <ele>468.7</ele>
        <time>2018-03-30T08:46:36Z</time>
      </trkpt>
      <trkpt lat="38.4695330" lon="-0.6588020">
        <ele>468.1</ele>
        <time>2018-03-30T08:46:37Z</time>
      </trkpt>
      <trkpt lat="38.4694200" lon="-0.6587830">
        <ele>467.4</ele>
        <time>2018-03-30T08:46:38Z</time>
      </trkpt>
      <trkpt lat="38.4693080" lon="-0.6587620">
        <ele>466.7</ele>
        <time>2018-03-30T08:46:39Z</time>
      </trkpt>
      <trkpt lat="38.4691970" lon="-0.6587380">
        <ele>465.8</ele>
        <time>2018-03-30T08:46:40Z</time>
      </trkpt>
      <trkpt lat="38.4690850" lon="-0.6587140">
        <ele>465.0</ele>
        <time>2018-03-30T08:46:41Z</time>
      </trkpt>
      <trkpt lat="38.4689740" lon="-0.6586910">
        <ele>464.4</ele>
        <time>2018-03-30T08:46:42Z</time>
      </trkpt>
      <trkpt lat="38.4688630" lon="-0.6586670">
        <ele>463.7</ele>
        <time>2018-03-30T08:46:43Z</time>
      </trkpt>
      <trkpt lat="38.4687540" lon="-0.6586410">
        <ele>463.1</ele>
        <time>2018-03-30T08:46:44Z</time>
      </trkpt>
      <trkpt lat="38.4686460" lon="-0.6586140">
        <ele>462.3</ele>
        <time>2018-03-30T08:46:45Z</time>
      </trkpt>
      <trkpt lat="38.4685370" lon="-0.6585860">
        <ele>461.5</ele>
        <time>2018-03-30T08:46:46Z</time>
      </trkpt>
      <trkpt lat="38.4684290" lon="-0.6585580">
        <ele>460.7</ele>
        <time>2018-03-30T08:46:47Z</time>
      </trkpt>
      <trkpt lat="38.4683220" lon="-0.6585300">
        <ele>459.9</ele>
        <time>2018-03-30T08:46:48Z</time>
      </trkpt>
      <trkpt lat="38.4682160" lon="-0.6585050">
        <ele>459.1</ele>
        <time>2018-03-30T08:46:49Z</time>
      </trkpt>
      <trkpt lat="38.4681110" lon="-0.6584850">
        <ele>458.3</ele>
        <time>2018-03-30T08:46:50Z</time>
      </trkpt>
      <trkpt lat="38.4680050" lon="-0.6584680">
        <ele>457.5</ele>
        <time>2018-03-30T08:46:51Z</time>
      </trkpt>
      <trkpt lat="38.4678980" lon="-0.6584560">
        <ele>456.8</ele>
        <time>2018-03-30T08:46:52Z</time>
      </trkpt>
      <trkpt lat="38.4677910" lon="-0.6584550">
        <ele>455.8</ele>
        <time>2018-03-30T08:46:53Z</time>
      </trkpt>
      <trkpt lat="38.4676830" lon="-0.6584580">
        <ele>454.7</ele>
        <time>2018-03-30T08:46:54Z</time>
      </trkpt>
      <trkpt lat="38.4675750" lon="-0.6584610">
        <ele>454.0</ele>
        <time>2018-03-30T08:46:55Z</time>
      </trkpt>
      <trkpt lat="38.4674680" lon="-0.6584590">
        <ele>453.2</ele>
        <time>2018-03-30T08:46:56Z</time>
      </trkpt>
      <trkpt lat="38.4673650" lon="-0.6584400">
        <ele>452.5</ele>
        <time>2018-03-30T08:46:57Z</time>
      </trkpt>
      <trkpt lat="38.4672620" lon="-0.6584050">
        <ele>451.8</ele>
        <time>2018-03-30T08:46:58Z</time>
      </trkpt>
      <trkpt lat="38.4671620" lon="-0.6583560">
        <ele>451.2</ele>
        <time>2018-03-30T08:46:59Z</time>
      </trkpt>
      <trkpt lat="38.4670590" lon="-0.6583080">
        <ele>450.5</ele>
        <time>2018-03-30T08:47:00Z</time>
      </trkpt>
      <trkpt lat="38.4669550" lon="-0.6582640">
        <ele>449.9</ele>
        <time>2018-03-30T08:47:01Z</time>
      </trkpt>
      <trkpt lat="38.4668470" lon="-0.6582280">
        <ele>448.9</ele>
        <time>2018-03-30T08:47:02Z</time>
      </trkpt>
      <trkpt lat="38.4667370" lon="-0.6581960">
        <ele>448.0</ele>
        <time>2018-03-30T08:47:03Z</time>
      </trkpt>
      <trkpt lat="38.4666250" lon="-0.6581690">
        <ele>447.1</ele>
        <time>2018-03-30T08:47:04Z</time>
      </trkpt>
      <trkpt lat="38.4665120" lon="-0.6581500">
        <ele>446.5</ele>
        <time>2018-03-30T08:47:05Z</time>
      </trkpt>
      <trkpt lat="38.4664000" lon="-0.6581340">
        <ele>445.9</ele>
        <time>2018-03-30T08:47:06Z</time>
      </trkpt>
      <trkpt lat="38.4662840" lon="-0.6581230">
        <ele>445.0</ele>
        <time>2018-03-30T08:47:07Z</time>
      </trkpt>
      <trkpt lat="38.4661700" lon="-0.6581150">
        <ele>444.3</ele>
        <time>2018-03-30T08:47:08Z</time>
      </trkpt>
      <trkpt lat="38.4660560" lon="-0.6581060">
        <ele>443.7</ele>
        <time>2018-03-30T08:47:09Z</time>
      </trkpt>
      <trkpt lat="38.4659440" lon="-0.6580950">
        <ele>442.9</ele>
        <time>2018-03-30T08:47:10Z</time>
      </trkpt>
      <trkpt lat="38.4658300" lon="-0.6580800">
        <ele>442.0</ele>
        <time>2018-03-30T08:47:11Z</time>
      </trkpt>
      <trkpt lat="38.4657190" lon="-0.6580570">
        <ele>441.2</ele>
        <time>2018-03-30T08:47:12Z</time>
      </trkpt>
      <trkpt lat="38.4656090" lon="-0.6580230">
        <ele>440.5</ele>
        <time>2018-03-30T08:47:13Z</time>
      </trkpt>
      <trkpt lat="38.4655000" lon="-0.6579790">
        <ele>439.5</ele>
        <time>2018-03-30T08:47:14Z</time>
      </trkpt>
      <trkpt lat="38.4653940" lon="-0.6579210">
        <ele>438.8</ele>
        <time>2018-03-30T08:47:15Z</time>
      </trkpt>
      <trkpt lat="38.4652910" lon="-0.6578570">
        <ele>438.1</ele>
        <time>2018-03-30T08:47:16Z</time>
      </trkpt>
      <trkpt lat="38.4651880" lon="-0.6577870">
        <ele>437.3</ele>
        <time>2018-03-30T08:47:17Z</time>
      </trkpt>
      <trkpt lat="38.4650840" lon="-0.6577130">
        <ele>436.4</ele>
        <time>2018-03-30T08:47:18Z</time>
      </trkpt>
      <trkpt lat="38.4649800" lon="-0.6576370">
        <ele>435.5</ele>
        <time>2018-03-30T08:47:19Z</time>
      </trkpt>
      <trkpt lat="38.4648750" lon="-0.6575630">
        <ele>434.6</ele>
        <time>2018-03-30T08:47:20Z</time>
      </trkpt>
      <trkpt lat="38.4647680" lon="-0.6574930">
        <ele>433.9</ele>
        <time>2018-03-30T08:47:21Z</time>
      </trkpt>
      <trkpt lat="38.4646570" lon="-0.6574310">
        <ele>433.3</ele>
        <time>2018-03-30T08:47:22Z</time>
      </trkpt>
      <trkpt lat="38.4645380" lon="-0.6573860">
        <ele>432.4</ele>
        <time>2018-03-30T08:47:23Z</time>
      </trkpt>
      <trkpt lat="38.4644160" lon="-0.6573480">
        <ele>431.8</ele>
        <time>2018-03-30T08:47:24Z</time>
      </trkpt>
      <trkpt lat="38.4642930" lon="-0.6573110">
        <ele>431.2</ele>
        <time>2018-03-30T08:47:25Z</time>
      </trkpt>
      <trkpt lat="38.4641670" lon="-0.6572780">
        <ele>430.5</ele>
        <time>2018-03-30T08:47:26Z</time>
      </trkpt>
      <trkpt lat="38.4640400" lon="-0.6572490">
        <ele>429.9</ele>
        <time>2018-03-30T08:47:27Z</time>
      </trkpt>
      <trkpt lat="38.4639100" lon="-0.6572260">
        <ele>429.4</ele>
        <time>2018-03-30T08:47:28Z</time>
      </trkpt>
      <trkpt lat="38.4637810" lon="-0.6572140">
        <ele>429.3</ele>
        <time>2018-03-30T08:47:29Z</time>
      </trkpt>
      <trkpt lat="38.4636530" lon="-0.6572080">
        <ele>429.1</ele>
        <time>2018-03-30T08:47:30Z</time>
      </trkpt>
      <trkpt lat="38.4635240" lon="-0.6572050">
        <ele>429.3</ele>
        <time>2018-03-30T08:47:31Z</time>
      </trkpt>
      <trkpt lat="38.4633950" lon="-0.6572070">
        <ele>429.8</ele>
        <time>2018-03-30T08:47:32Z</time>
      </trkpt>
      <trkpt lat="38.4632680" lon="-0.6572070">
        <ele>430.1</ele>
        <time>2018-03-30T08:47:33Z</time>
      </trkpt>
      <trkpt lat="38.4631430" lon="-0.6572060">
        <ele>430.1</ele>
        <time>2018-03-30T08:47:34Z</time>
      </trkpt>
      <trkpt lat="38.4630180" lon="-0.6572060">
        <ele>430.1</ele>
        <time>2018-03-30T08:47:35Z</time>
      </trkpt>
      <trkpt lat="38.4628950" lon="-0.6572060">
        <ele>430.1</ele>
        <time>2018-03-30T08:47:36Z</time>
      </trkpt>
      <trkpt lat="38.4627730" lon="-0.6571990">
        <ele>430.1</ele>
        <time>2018-03-30T08:47:37Z</time>
      </trkpt>
      <trkpt lat="38.4626530" lon="-0.6571850">
        <ele>429.9</ele>
        <time>2018-03-30T08:47:38Z</time>
      </trkpt>
      <trkpt lat="38.4625330" lon="-0.6571680">
        <ele>429.3</ele>
        <time>2018-03-30T08:47:39Z</time>
      </trkpt>
      <trkpt lat="38.4624160" lon="-0.6571480">
        <ele>428.2</ele>
        <time>2018-03-30T08:47:40Z</time>
      </trkpt>
      <trkpt lat="38.4622990" lon="-0.6571230">
        <ele>426.5</ele>
        <time>2018-03-30T08:47:41Z</time>
      </trkpt>
      <trkpt lat="38.4621810" lon="-0.6570930">
        <ele>424.5</ele>
        <time>2018-03-30T08:47:42Z</time>
      </trkpt>
      <trkpt lat="38.4620650" lon="-0.6570630">
        <ele>422.4</ele>
        <time>2018-03-30T08:47:43Z</time>
      </trkpt>
      <trkpt lat="38.4619500" lon="-0.6570270">
        <ele>420.4</ele>
        <time>2018-03-30T08:47:44Z</time>
      </trkpt>
      <trkpt lat="38.4618340" lon="-0.6569920">
        <ele>418.7</ele>
        <time>2018-03-30T08:47:45Z</time>
      </trkpt>
      <trkpt lat="38.4617180" lon="-0.6569560">
        <ele>417.4</ele>
        <time>2018-03-30T08:47:46Z</time>
      </trkpt>
      <trkpt lat="38.4616000" lon="-0.6569200">
        <ele>416.5</ele>
        <time>2018-03-30T08:47:47Z</time>
      </trkpt>
      <trkpt lat="38.4614810" lon="-0.6568890">
        <ele>415.9</ele>
        <time>2018-03-30T08:47:48Z</time>
      </trkpt>
      <trkpt lat="38.4613600" lon="-0.6568610">
        <ele>415.4</ele>
        <time>2018-03-30T08:47:49Z</time>
      </trkpt>
      <trkpt lat="38.4612420" lon="-0.6568340">
        <ele>414.8</ele>
        <time>2018-03-30T08:47:50Z</time>
      </trkpt>
      <trkpt lat="38.4611250" lon="-0.6568100">
        <ele>414.1</ele>
        <time>2018-03-30T08:47:51Z</time>
      </trkpt>
      <trkpt lat="38.4610120" lon="-0.6567870">
        <ele>413.5</ele>
        <time>2018-03-30T08:47:52Z</time>
      </trkpt>
      <trkpt lat="38.4609010" lon="-0.6567600">
        <ele>412.8</ele>
        <time>2018-03-30T08:47:53Z</time>
      </trkpt>
      <trkpt lat="38.4607910" lon="-0.6567350">
        <ele>412.2</ele>
        <time>2018-03-30T08:47:54Z</time>
      </trkpt>
      <trkpt lat="38.4606820" lon="-0.6567090">
        <ele>411.7</ele>
        <time>2018-03-30T08:47:55Z</time>
      </trkpt>
      <trkpt lat="38.4605770" lon="-0.6566730">
        <ele>411.0</ele>
        <time>2018-03-30T08:47:56Z</time>
      </trkpt>
      <trkpt lat="38.4604750" lon="-0.6566260">
        <ele>410.1</ele>
        <time>2018-03-30T08:47:57Z</time>
      </trkpt>
      <trkpt lat="38.4603750" lon="-0.6565710">
        <ele>409.1</ele>
        <time>2018-03-30T08:47:58Z</time>
      </trkpt>
      <trkpt lat="38.4602750" lon="-0.6565160">
        <ele>408.1</ele>
        <time>2018-03-30T08:47:59Z</time>
      </trkpt>
      <trkpt lat="38.4601750" lon="-0.6564610">
        <ele>407.1</ele>
        <time>2018-03-30T08:48:00Z</time>
      </trkpt>
      <trkpt lat="38.4600740" lon="-0.6564070">
        <ele>406.2</ele>
        <time>2018-03-30T08:48:01Z</time>
      </trkpt>
      <trkpt lat="38.4599720" lon="-0.6563570">
        <ele>405.4</ele>
        <time>2018-03-30T08:48:02Z</time>
      </trkpt>
      <trkpt lat="38.4598670" lon="-0.6563210">
        <ele>404.8</ele>
        <time>2018-03-30T08:48:03Z</time>
      </trkpt>
      <trkpt lat="38.4597590" lon="-0.6562970">
        <ele>404.3</ele>
        <time>2018-03-30T08:48:04Z</time>
      </trkpt>
      <trkpt lat="38.4596530" lon="-0.6562810">
        <ele>404.0</ele>
        <time>2018-03-30T08:48:05Z</time>
      </trkpt>
      <trkpt lat="38.4595470" lon="-0.6562690">
        <ele>403.7</ele>
        <time>2018-03-30T08:48:06Z</time>
      </trkpt>
      <trkpt lat="38.4594420" lon="-0.6562590">
        <ele>403.3</ele>
        <time>2018-03-30T08:48:07Z</time>
      </trkpt>
      <trkpt lat="38.4593360" lon="-0.6562530">
        <ele>402.9</ele>
        <time>2018-03-30T08:48:08Z</time>
      </trkpt>
      <trkpt lat="38.4592310" lon="-0.6562470">
        <ele>402.6</ele>
        <time>2018-03-30T08:48:09Z</time>
      </trkpt>
      <trkpt lat="38.4591260" lon="-0.6562400">
        <ele>402.3</ele>
        <time>2018-03-30T08:48:10Z</time>
      </trkpt>
      <trkpt lat="38.4590220" lon="-0.6562330">
        <ele>402.1</ele>
        <time>2018-03-30T08:48:11Z</time>
      </trkpt>
      <trkpt lat="38.4589200" lon="-0.6562260">
        <ele>401.9</ele>
        <time>2018-03-30T08:48:12Z</time>
      </trkpt>
      <trkpt lat="38.4588180" lon="-0.6562190">
        <ele>401.7</ele>
        <time>2018-03-30T08:48:13Z</time>
      </trkpt>
      <trkpt lat="38.4587180" lon="-0.6562170">
        <ele>401.5</ele>
        <time>2018-03-30T08:48:14Z</time>
      </trkpt>
      <trkpt lat="38.4586200" lon="-0.6562200">
        <ele>401.1</ele>
        <time>2018-03-30T08:48:15Z</time>
      </trkpt>
      <trkpt lat="38.4585230" lon="-0.6562300">
        <ele>400.6</ele>
        <time>2018-03-30T08:48:16Z</time>
      </trkpt>
      <trkpt lat="38.4584260" lon="-0.6562430">
        <ele>400.0</ele>
        <time>2018-03-30T08:48:17Z</time>
      </trkpt>
      <trkpt lat="38.4583310" lon="-0.6562580">
        <ele>399.4</ele>
        <time>2018-03-30T08:48:18Z</time>
      </trkpt>
      <trkpt lat="38.4582360" lon="-0.6562790">
        <ele>398.8</ele>
        <time>2018-03-30T08:48:19Z</time>
      </trkpt>
      <trkpt lat="38.4581410" lon="-0.6563000">
        <ele>398.2</ele>
        <time>2018-03-30T08:48:20Z</time>
      </trkpt>
      <trkpt lat="38.4580440" lon="-0.6563150">
        <ele>397.7</ele>
        <time>2018-03-30T08:48:21Z</time>
      </trkpt>
      <trkpt lat="38.4579480" lon="-0.6563280">
        <ele>397.2</ele>
        <time>2018-03-30T08:48:22Z</time>
      </trkpt>
      <trkpt lat="38.4578520" lon="-0.6563400">
        <ele>396.6</ele>
        <time>2018-03-30T08:48:23Z</time>
      </trkpt>
      <trkpt lat="38.4577550" lon="-0.6563430">
        <ele>396.0</ele>
        <time>2018-03-30T08:48:24Z</time>
      </trkpt>
      <trkpt lat="38.4576560" lon="-0.6563440">
        <ele>395.3</ele>
        <time>2018-03-30T08:48:25Z</time>
      </trkpt>
      <trkpt lat="38.4575580" lon="-0.6563420">
        <ele>394.7</ele>
        <time>2018-03-30T08:48:26Z</time>
      </trkpt>
      <trkpt lat="38.4574590" lon="-0.6563410">
        <ele>394.1</ele>
        <time>2018-03-30T08:48:27Z</time>
      </trkpt>
      <trkpt lat="38.4573620" lon="-0.6563420">
        <ele>393.9</ele>
        <time>2018-03-30T08:48:28Z</time>
      </trkpt>
      <trkpt lat="38.4572650" lon="-0.6563430">
        <ele>393.6</ele>
        <time>2018-03-30T08:48:29Z</time>
      </trkpt>
      <trkpt lat="38.4571680" lon="-0.6563450">
        <ele>393.4</ele>
        <time>2018-03-30T08:48:30Z</time>
      </trkpt>
      <trkpt lat="38.4570740" lon="-0.6563450">
        <ele>393.2</ele>
        <time>2018-03-30T08:48:31Z</time>
      </trkpt>
      <trkpt lat="38.4569800" lon="-0.6563420">
        <ele>393.0</ele>
        <time>2018-03-30T08:48:32Z</time>
      </trkpt>
      <trkpt lat="38.4568870" lon="-0.6563380">
        <ele>392.8</ele>
        <time>2018-03-30T08:48:33Z</time>
      </trkpt>
      <trkpt lat="38.4567930" lon="-0.6563370">
        <ele>392.3</ele>
        <time>2018-03-30T08:48:34Z</time>
      </trkpt>
      <trkpt lat="38.4566990" lon="-0.6563360">
        <ele>391.8</ele>
        <time>2018-03-30T08:48:35Z</time>
      </trkpt>
      <trkpt lat="38.4566060" lon="-0.6563320">
        <ele>391.3</ele>
        <time>2018-03-30T08:48:36Z</time>
      </trkpt>
      <trkpt lat="38.4565130" lon="-0.6563290">
        <ele>390.8</ele>
        <time>2018-03-30T08:48:37Z</time>
      </trkpt>
      <trkpt lat="38.4564200" lon="-0.6563270">
        <ele>390.3</ele>
        <time>2018-03-30T08:48:38Z</time>
      </trkpt>
      <trkpt lat="38.4563280" lon="-0.6563240">
        <ele>389.8</ele>
        <time>2018-03-30T08:48:39Z</time>
      </trkpt>
      <trkpt lat="38.4562360" lon="-0.6563230">
        <ele>389.2</ele>
        <time>2018-03-30T08:48:40Z</time>
      </trkpt>
      <trkpt lat="38.4561450" lon="-0.6563200">
        <ele>388.6</ele>
        <time>2018-03-30T08:48:41Z</time>
      </trkpt>
      <trkpt lat="38.4560550" lon="-0.6563160">
        <ele>387.8</ele>
        <time>2018-03-30T08:48:42Z</time>
      </trkpt>
      <trkpt lat="38.4559650" lon="-0.6563110">
        <ele>387.2</ele>
        <time>2018-03-30T08:48:43Z</time>
      </trkpt>
      <trkpt lat="38.4558750" lon="-0.6563050">
        <ele>386.6</ele>
        <time>2018-03-30T08:48:44Z</time>
      </trkpt>
      <trkpt lat="38.4557870" lon="-0.6562950">
        <ele>386.1</ele>
        <time>2018-03-30T08:48:45Z</time>
      </trkpt>
      <trkpt lat="38.4557020" lon="-0.6562690">
        <ele>385.3</ele>
        <time>2018-03-30T08:48:46Z</time>
      </trkpt>
      <trkpt lat="38.4556170" lon="-0.6562290">
        <ele>384.9</ele>
        <time>2018-03-30T08:48:47Z</time>
      </trkpt>
      <trkpt lat="38.4555360" lon="-0.6561740">
        <ele>384.8</ele>
        <time>2018-03-30T08:48:48Z</time>
      </trkpt>
      <trkpt lat="38.4554610" lon="-0.6561070">
        <ele>384.6</ele>
        <time>2018-03-30T08:48:49Z</time>
      </trkpt>
      <trkpt lat="38.4553900" lon="-0.6560340">
        <ele>384.5</ele>
        <time>2018-03-30T08:48:50Z</time>
      </trkpt>
      <trkpt lat="38.4553220" lon="-0.6559540">
        <ele>384.4</ele>
        <time>2018-03-30T08:48:51Z</time>
      </trkpt>
      <trkpt lat="38.4552580" lon="-0.6558670">
        <ele>384.2</ele>
        <time>2018-03-30T08:48:52Z</time>
      </trkpt>
      <trkpt lat="38.4552010" lon="-0.6557710">
        <ele>384.0</ele>
        <time>2018-03-30T08:48:53Z</time>
      </trkpt>
      <trkpt lat="38.4551370" lon="-0.6556770">
        <ele>383.8</ele>
        <time>2018-03-30T08:48:54Z</time>
      </trkpt>
      <trkpt lat="38.4550720" lon="-0.6555820">
        <ele>383.6</ele>
        <time>2018-03-30T08:48:55Z</time>
      </trkpt>
      <trkpt lat="38.4550060" lon="-0.6554850">
        <ele>383.5</ele>
        <time>2018-03-30T08:48:56Z</time>
      </trkpt>
      <trkpt lat="38.4549360" lon="-0.6553900">
        <ele>383.3</ele>
        <time>2018-03-30T08:48:57Z</time>
      </trkpt>
      <trkpt lat="38.4548640" lon="-0.6552940">
        <ele>383.2</ele>
        <time>2018-03-30T08:48:58Z</time>
      </trkpt>
      <trkpt lat="38.4547870" lon="-0.6551990">
        <ele>383.1</ele>
        <time>2018-03-30T08:48:59Z</time>
      </trkpt>
      <trkpt lat="38.4547080" lon="-0.6551070">
        <ele>383.0</ele>
        <time>2018-03-30T08:49:00Z</time>
      </trkpt>
      <trkpt lat="38.4546250" lon="-0.6550190">
        <ele>383.0</ele>
        <time>2018-03-30T08:49:01Z</time>
      </trkpt>
      <trkpt lat="38.4545380" lon="-0.6549340">
        <ele>383.0</ele>
        <time>2018-03-30T08:49:02Z</time>
      </trkpt>
      <trkpt lat="38.4544480" lon="-0.6548520">
        <ele>383.1</ele>
        <time>2018-03-30T08:49:03Z</time>
      </trkpt>
      <trkpt lat="38.4543600" lon="-0.6547680">
        <ele>383.3</ele>
        <time>2018-03-30T08:49:04Z</time>
      </trkpt>
      <trkpt lat="38.4542710" lon="-0.6546830">
        <ele>383.3</ele>
        <time>2018-03-30T08:49:05Z</time>
      </trkpt>
      <trkpt lat="38.4541790" lon="-0.6545950">
        <ele>383.3</ele>
        <time>2018-03-30T08:49:06Z</time>
      </trkpt>
      <trkpt lat="38.4540900" lon="-0.6545040">
        <ele>383.2</ele>
        <time>2018-03-30T08:49:07Z</time>
      </trkpt>
      <trkpt lat="38.4540030" lon="-0.6544140">
        <ele>383.0</ele>
        <time>2018-03-30T08:49:08Z</time>
      </trkpt>
      <trkpt lat="38.4539180" lon="-0.6543250">
        <ele>382.9</ele>
        <time>2018-03-30T08:49:09Z</time>
      </trkpt>
      <trkpt lat="38.4538340" lon="-0.6542380">
        <ele>382.6</ele>
        <time>2018-03-30T08:49:10Z</time>
      </trkpt>
      <trkpt lat="38.4537510" lon="-0.6541500">
        <ele>382.0</ele>
        <time>2018-03-30T08:49:11Z</time>
      </trkpt>
      <trkpt lat="38.4536700" lon="-0.6540640">
        <ele>381.3</ele>
        <time>2018-03-30T08:49:12Z</time>
      </trkpt>
      <trkpt lat="38.4535890" lon="-0.6539780">
        <ele>380.6</ele>
        <time>2018-03-30T08:49:13Z</time>
      </trkpt>
      <trkpt lat="38.4535070" lon="-0.6538940">
        <ele>379.8</ele>
        <time>2018-03-30T08:49:14Z</time>
      </trkpt>
      <trkpt lat="38.4534260" lon="-0.6538090">
        <ele>379.1</ele>
        <time>2018-03-30T08:49:15Z</time>
      </trkpt>
      <trkpt lat="38.4533440" lon="-0.6537240">
        <ele>378.4</ele>
        <time>2018-03-30T08:49:16Z</time>
      </trkpt>
      <trkpt lat="38.4532650" lon="-0.6536390">
        <ele>377.7</ele>
        <time>2018-03-30T08:49:17Z</time>
      </trkpt>
      <trkpt lat="38.4531860" lon="-0.6535560">
        <ele>377.0</ele>
        <time>2018-03-30T08:49:18Z</time>
      </trkpt>
      <trkpt lat="38.4531040" lon="-0.6534750">
        <ele>376.2</ele>
        <time>2018-03-30T08:49:19Z</time>
      </trkpt>
      <trkpt lat="38.4530180" lon="-0.6533970">
        <ele>374.5</ele>
        <time>2018-03-30T08:49:20Z</time>
      </trkpt>
      <trkpt lat="38.4529320" lon="-0.6533220">
        <ele>372.7</ele>
        <time>2018-03-30T08:49:21Z</time>
      </trkpt>
      <trkpt lat="38.4528420" lon="-0.6532490">
        <ele>370.9</ele>
        <time>2018-03-30T08:49:22Z</time>
      </trkpt>
      <trkpt lat="38.4527540" lon="-0.6531780">
        <ele>369.5</ele>
        <time>2018-03-30T08:49:23Z</time>
      </trkpt>
      <trkpt lat="38.4526620" lon="-0.6531060">
        <ele>368.2</ele>
        <time>2018-03-30T08:49:24Z</time>
      </trkpt>
      <trkpt lat="38.4525680" lon="-0.6530340">
        <ele>367.4</ele>
        <time>2018-03-30T08:49:25Z</time>
      </trkpt>
      <trkpt lat="38.4524740" lon="-0.6529620">
        <ele>366.6</ele>
        <time>2018-03-30T08:49:26Z</time>
      </trkpt>
      <trkpt lat="38.4523810" lon="-0.6528900">
        <ele>366.1</ele>
        <time>2018-03-30T08:49:27Z</time>
      </trkpt>
      <trkpt lat="38.4522880" lon="-0.6528180">
        <ele>365.6</ele>
        <time>2018-03-30T08:49:28Z</time>
      </trkpt>
      <trkpt lat="38.4521950" lon="-0.6527450">
        <ele>365.0</ele>
        <time>2018-03-30T08:49:29Z</time>
      </trkpt>
      <trkpt lat="38.4521020" lon="-0.6526720">
        <ele>364.5</ele>
        <time>2018-03-30T08:49:30Z</time>
      </trkpt>
      <trkpt lat="38.4520110" lon="-0.6525980">
        <ele>363.9</ele>
        <time>2018-03-30T08:49:31Z</time>
      </trkpt>
      <trkpt lat="38.4519200" lon="-0.6525260">
        <ele>363.3</ele>
        <time>2018-03-30T08:49:32Z</time>
      </trkpt>
      <trkpt lat="38.4518310" lon="-0.6524530">
        <ele>362.8</ele>
        <time>2018-03-30T08:49:33Z</time>
      </trkpt>
      <trkpt lat="38.4517430" lon="-0.6523810">
        <ele>362.2</ele>
        <time>2018-03-30T08:49:34Z</time>
      </trkpt>
      <trkpt lat="38.4516560" lon="-0.6523080">
        <ele>361.8</ele>
        <time>2018-03-30T08:49:35Z</time>
      </trkpt>
      <trkpt lat="38.4515710" lon="-0.6522330">
        <ele>361.3</ele>
        <time>2018-03-30T08:49:36Z</time>
      </trkpt>
      <trkpt lat="38.4514890" lon="-0.6521530">
        <ele>360.9</ele>
        <time>2018-03-30T08:49:37Z</time>
      </trkpt>
      <trkpt lat="38.4514130" lon="-0.6520650">
        <ele>360.4</ele>
        <time>2018-03-30T08:49:38Z</time>
      </trkpt>
      <trkpt lat="38.4513400" lon="-0.6519690">
        <ele>359.7</ele>
        <time>2018-03-30T08:49:39Z</time>
      </trkpt>
      <trkpt lat="38.4512750" lon="-0.6518680">
        <ele>359.2</ele>
        <time>2018-03-30T08:49:40Z</time>
      </trkpt>
      <trkpt lat="38.4512110" lon="-0.6517640">
        <ele>358.7</ele>
        <time>2018-03-30T08:49:41Z</time>
      </trkpt>
      <trkpt lat="38.4511500" lon="-0.6516570">
        <ele>358.1</ele>
        <time>2018-03-30T08:49:42Z</time>
      </trkpt>
      <trkpt lat="38.4510880" lon="-0.6515500">
        <ele>357.7</ele>
        <time>2018-03-30T08:49:43Z</time>
      </trkpt>
      <trkpt lat="38.4510280" lon="-0.6514420">
        <ele>357.3</ele>
        <time>2018-03-30T08:49:44Z</time>
      </trkpt>
      <trkpt lat="38.4509670" lon="-0.6513350">
        <ele>356.9</ele>
        <time>2018-03-30T08:49:45Z</time>
      </trkpt>
      <trkpt lat="38.4509030" lon="-0.6512310">
        <ele>356.6</ele>
        <time>2018-03-30T08:49:46Z</time>
      </trkpt>
      <trkpt lat="38.4508340" lon="-0.6511360">
        <ele>356.3</ele>
        <time>2018-03-30T08:49:47Z</time>
      </trkpt>
      <trkpt lat="38.4507590" lon="-0.6510510">
        <ele>356.1</ele>
        <time>2018-03-30T08:49:48Z</time>
      </trkpt>
      <trkpt lat="38.4506740" lon="-0.6509810">
        <ele>356.0</ele>
        <time>2018-03-30T08:49:49Z</time>
      </trkpt>
      <trkpt lat="38.4505840" lon="-0.6509430">
        <ele>355.9</ele>
        <time>2018-03-30T08:49:50Z</time>
      </trkpt>
      <trkpt lat="38.4504910" lon="-0.6509130">
        <ele>355.8</ele>
        <time>2018-03-30T08:49:51Z</time>
      </trkpt>
      <trkpt lat="38.4503960" lon="-0.6508880">
        <ele>355.9</ele>
        <time>2018-03-30T08:49:52Z</time>
      </trkpt>
      <trkpt lat="38.4503010" lon="-0.6508650">
        <ele>356.0</ele>
        <time>2018-03-30T08:49:53Z</time>
      </trkpt>
      <trkpt lat="38.4502040" lon="-0.6508410">
        <ele>356.2</ele>
        <time>2018-03-30T08:49:54Z</time>
      </trkpt>
      <trkpt lat="38.4501040" lon="-0.6508160">
        <ele>356.4</ele>
        <time>2018-03-30T08:49:55Z</time>
      </trkpt>
      <trkpt lat="38.4500030" lon="-0.6507910">
        <ele>356.5</ele>
        <time>2018-03-30T08:49:56Z</time>
      </trkpt>
      <trkpt lat="38.4499020" lon="-0.6507700">
        <ele>356.6</ele>
        <time>2018-03-30T08:49:57Z</time>
      </trkpt>
      <trkpt lat="38.4498010" lon="-0.6507550">
        <ele>356.5</ele>
        <time>2018-03-30T08:49:58Z</time>
      </trkpt>
      <trkpt lat="38.4497000" lon="-0.6507430">
        <ele>356.4</ele>
        <time>2018-03-30T08:49:59Z</time>
      </trkpt>
      <trkpt lat="38.4496020" lon="-0.6507310">
        <ele>356.3</ele>
        <time>2018-03-30T08:50:00Z</time>
      </trkpt>
      <trkpt lat="38.4495050" lon="-0.6507230">
        <ele>356.2</ele>
        <time>2018-03-30T08:50:01Z</time>
      </trkpt>
      <trkpt lat="38.4494080" lon="-0.6507160">
        <ele>355.9</ele>
        <time>2018-03-30T08:50:02Z</time>
      </trkpt>
      <trkpt lat="38.4493120" lon="-0.6507060">
        <ele>355.6</ele>
        <time>2018-03-30T08:50:03Z</time>
      </trkpt>
      <trkpt lat="38.4492170" lon="-0.6506930">
        <ele>355.3</ele>
        <time>2018-03-30T08:50:04Z</time>
      </trkpt>
      <trkpt lat="38.4491220" lon="-0.6506690">
        <ele>354.8</ele>
        <time>2018-03-30T08:50:05Z</time>
      </trkpt>
      <trkpt lat="38.4490280" lon="-0.6506410">
        <ele>354.2</ele>
        <time>2018-03-30T08:50:06Z</time>
      </trkpt>
      <trkpt lat="38.4489330" lon="-0.6506090">
        <ele>353.7</ele>
        <time>2018-03-30T08:50:07Z</time>
      </trkpt>
      <trkpt lat="38.4488400" lon="-0.6505650">
        <ele>353.1</ele>
        <time>2018-03-30T08:50:08Z</time>
      </trkpt>
      <trkpt lat="38.4487480" lon="-0.6505230">
        <ele>352.5</ele>
        <time>2018-03-30T08:50:09Z</time>
      </trkpt>
      <trkpt lat="38.4486540" lon="-0.6504820">
        <ele>351.9</ele>
        <time>2018-03-30T08:50:10Z</time>
      </trkpt>
      <trkpt lat="38.4485620" lon="-0.6504380">
        <ele>351.3</ele>
        <time>2018-03-30T08:50:11Z</time>
      </trkpt>
      <trkpt lat="38.4484690" lon="-0.6503980">
        <ele>350.7</ele>
        <time>2018-03-30T08:50:12Z</time>
      </trkpt>
      <trkpt lat="38.4483770" lon="-0.6503580">
        <ele>350.3</ele>
        <time>2018-03-30T08:50:13Z</time>
      </trkpt>
      <trkpt lat="38.4482870" lon="-0.6503160">
        <ele>350.0</ele>
        <time>2018-03-30T08:50:14Z</time>
      </trkpt>
      <trkpt lat="38.4481980" lon="-0.6502740">
        <ele>349.8</ele>
        <time>2018-03-30T08:50:15Z</time>
      </trkpt>
      <trkpt lat="38.4481110" lon="-0.6502300">
        <ele>349.5</ele>
        <time>2018-03-30T08:50:16Z</time>
      </trkpt>
      <trkpt lat="38.4480250" lon="-0.6501850">
        <ele>349.2</ele>
        <time>2018-03-30T08:50:17Z</time>
      </trkpt>
      <trkpt lat="38.4479390" lon="-0.6501390">
        <ele>349.0</ele>
        <time>2018-03-30T08:50:18Z</time>
      </trkpt>
      <trkpt lat="38.4478510" lon="-0.6500910">
        <ele>348.5</ele>
        <time>2018-03-30T08:50:19Z</time>
      </trkpt>
      <trkpt lat="38.4477630" lon="-0.6500410">
        <ele>347.9</ele>
        <time>2018-03-30T08:50:20Z</time>
      </trkpt>
      <trkpt lat="38.4476720" lon="-0.6499920">
        <ele>347.3</ele>
        <time>2018-03-30T08:50:21Z</time>
      </trkpt>
      <trkpt lat="38.4475800" lon="-0.6499410">
        <ele>346.7</ele>
        <time>2018-03-30T08:50:22Z</time>
      </trkpt>
      <trkpt lat="38.4474880" lon="-0.6498910">
        <ele>346.2</ele>
        <time>2018-03-30T08:50:23Z</time>
      </trkpt>
      <trkpt lat="38.4473960" lon="-0.6498430">
        <ele>345.7</ele>
        <time>2018-03-30T08:50:24Z</time>
      </trkpt>
      <trkpt lat="38.4473020" lon="-0.6497960">
        <ele>345.3</ele>
        <time>2018-03-30T08:50:25Z</time>
      </trkpt>
      <trkpt lat="38.4472050" lon="-0.6497490">
        <ele>344.8</ele>
        <time>2018-03-30T08:50:26Z</time>
      </trkpt>
      <trkpt lat="38.4471080" lon="-0.6497020">
        <ele>344.4</ele>
        <time>2018-03-30T08:50:27Z</time>
      </trkpt>
      <trkpt lat="38.4470130" lon="-0.6496510">
        <ele>344.0</ele>
        <time>2018-03-30T08:50:28Z</time>
      </trkpt>
      <trkpt lat="38.4469170" lon="-0.6495970">
        <ele>343.6</ele>
        <time>2018-03-30T08:50:29Z</time>
      </trkpt>
      <trkpt lat="38.4468230" lon="-0.6495400">
        <ele>343.1</ele>
        <time>2018-03-30T08:50:30Z</time>
      </trkpt>
      <trkpt lat="38.4467310" lon="-0.6494800">
        <ele>342.5</ele>
        <time>2018-03-30T08:50:31Z</time>
      </trkpt>
      <trkpt lat="38.4466370" lon="-0.6494200">
        <ele>342.0</ele>
        <time>2018-03-30T08:50:32Z</time>
      </trkpt>
      <trkpt lat="38.4465440" lon="-0.6493590">
        <ele>341.5</ele>
        <time>2018-03-30T08:50:33Z</time>
      </trkpt>
      <trkpt lat="38.4464510" lon="-0.6492990">
        <ele>340.9</ele>
        <time>2018-03-30T08:50:34Z</time>
      </trkpt>
      <trkpt lat="38.4463610" lon="-0.6492360">
        <ele>340.3</ele>
        <time>2018-03-30T08:50:35Z</time>
      </trkpt>
      <trkpt lat="38.4462730" lon="-0.6491710">
        <ele>339.8</ele>
        <time>2018-03-30T08:50:36Z</time>
      </trkpt>
      <trkpt lat="38.4461860" lon="-0.6491020">
        <ele>339.2</ele>
        <time>2018-03-30T08:50:37Z</time>
      </trkpt>
      <trkpt lat="38.4460990" lon="-0.6490310">
        <ele>338.6</ele>
        <time>2018-03-30T08:50:38Z</time>
      </trkpt>
      <trkpt lat="38.4460110" lon="-0.6489580">
        <ele>338.0</ele>
        <time>2018-03-30T08:50:39Z</time>
      </trkpt>
      <trkpt lat="38.4459250" lon="-0.6488850">
        <ele>337.4</ele>
        <time>2018-03-30T08:50:40Z</time>
      </trkpt>
      <trkpt lat="38.4458380" lon="-0.6488130">
        <ele>336.9</ele>
        <time>2018-03-30T08:50:41Z</time>
      </trkpt>
      <trkpt lat="38.4457520" lon="-0.6487390">
        <ele>336.3</ele>
        <time>2018-03-30T08:50:42Z</time>
      </trkpt>
      <trkpt lat="38.4456660" lon="-0.6486650">
        <ele>335.8</ele>
        <time>2018-03-30T08:50:43Z</time>
      </trkpt>
      <trkpt lat="38.4455820" lon="-0.6485880">
        <ele>335.1</ele>
        <time>2018-03-30T08:50:44Z</time>
      </trkpt>
      <trkpt lat="38.4455020" lon="-0.6485050">
        <ele>334.2</ele>
        <time>2018-03-30T08:50:45Z</time>
      </trkpt>
      <trkpt lat="38.4454210" lon="-0.6484200">
        <ele>333.3</ele>
        <time>2018-03-30T08:50:46Z</time>
      </trkpt>
      <trkpt lat="38.4453400" lon="-0.6483360">
        <ele>331.8</ele>
        <time>2018-03-30T08:50:47Z</time>
      </trkpt>
      <trkpt lat="38.4452590" lon="-0.6482480">
        <ele>330.2</ele>
        <time>2018-03-30T08:50:48Z</time>
      </trkpt>
      <trkpt lat="38.4451840" lon="-0.6481550">
        <ele>328.6</ele>
        <time>2018-03-30T08:50:49Z</time>
      </trkpt>
      <trkpt lat="38.4451110" lon="-0.6480580">
        <ele>327.3</ele>
        <time>2018-03-30T08:50:50Z</time>
      </trkpt>
      <trkpt lat="38.4450420" lon="-0.6479570">
        <ele>326.5</ele>
        <time>2018-03-30T08:50:51Z</time>
      </trkpt>
      <trkpt lat="38.4449810" lon="-0.6478480">
        <ele>325.7</ele>
        <time>2018-03-30T08:50:52Z</time>
      </trkpt>
      <trkpt lat="38.4449170" lon="-0.6477360">
        <ele>325.3</ele>
        <time>2018-03-30T08:50:53Z</time>
      </trkpt>
      <trkpt lat="38.4448610" lon="-0.6476190">
        <ele>325.0</ele>
        <time>2018-03-30T08:50:54Z</time>
      </trkpt>
      <trkpt lat="38.4448190" lon="-0.6475030">
        <ele>324.6</ele>
        <time>2018-03-30T08:50:55Z</time>
      </trkpt>
      <trkpt lat="38.4447750" lon="-0.6473870">
        <ele>324.4</ele>
        <time>2018-03-30T08:50:56Z</time>
      </trkpt>
      <trkpt lat="38.4447270" lon="-0.6472750">
        <ele>324.4</ele>
        <time>2018-03-30T08:50:57Z</time>
      </trkpt>
      <trkpt lat="38.4446820" lon="-0.6471640">
        <ele>324.7</ele>
        <time>2018-03-30T08:50:58Z</time>
      </trkpt>
      <trkpt lat="38.4446340" lon="-0.6470590">
        <ele>325.0</ele>
        <time>2018-03-30T08:50:59Z</time>
      </trkpt>
      <trkpt lat="38.4445860" lon="-0.6469610">
        <ele>325.4</ele>
        <time>2018-03-30T08:51:00Z</time>
      </trkpt>
      <trkpt lat="38.4445310" lon="-0.6468740">
        <ele>325.7</ele>
        <time>2018-03-30T08:51:01Z</time>
      </trkpt>
      <trkpt lat="38.4444840" lon="-0.6467810">
        <ele>326.0</ele>
        <time>2018-03-30T08:51:02Z</time>
      </trkpt>
      <trkpt lat="38.4444410" lon="-0.6466940">
        <ele>326.3</ele>
        <time>2018-03-30T08:51:03Z</time>
      </trkpt>
      <trkpt lat="38.4444010" lon="-0.6466040">
        <ele>326.5</ele>
        <time>2018-03-30T08:51:04Z</time>
      </trkpt>
      <trkpt lat="38.4443710" lon="-0.6465110">
        <ele>326.5</ele>
        <time>2018-03-30T08:51:05Z</time>
      </trkpt>
      <trkpt lat="38.4443500" lon="-0.6464130">
        <ele>326.3</ele>
        <time>2018-03-30T08:51:06Z</time>
      </trkpt>
      <trkpt lat="38.4443230" lon="-0.6463170">
        <ele>326.1</ele>
        <time>2018-03-30T08:51:07Z</time>
      </trkpt>
      <trkpt lat="38.4442970" lon="-0.6462220">
        <ele>325.9</ele>
        <time>2018-03-30T08:51:08Z</time>
      </trkpt>
      <trkpt lat="38.4442680" lon="-0.6461260">
        <ele>325.7</ele>
        <time>2018-03-30T08:51:09Z</time>
      </trkpt>
      <trkpt lat="38.4442400" lon="-0.6460320">
        <ele>325.3</ele>
        <time>2018-03-30T08:51:10Z</time>
      </trkpt>
      <trkpt lat="38.4442080" lon="-0.6459380">
        <ele>324.7</ele>
        <time>2018-03-30T08:51:11Z</time>
      </trkpt>
      <trkpt lat="38.4441680" lon="-0.6458520">
        <ele>324.1</ele>
        <time>2018-03-30T08:51:12Z</time>
      </trkpt>
      <trkpt lat="38.4441210" lon="-0.6457740">
        <ele>323.6</ele>
        <time>2018-03-30T08:51:13Z</time>
      </trkpt>
      <trkpt lat="38.4440740" lon="-0.6457000">
        <ele>323.2</ele>
        <time>2018-03-30T08:51:14Z</time>
      </trkpt>
      <trkpt lat="38.4440300" lon="-0.6456260">
        <ele>322.9</ele>
        <time>2018-03-30T08:51:15Z</time>
      </trkpt>
      <trkpt lat="38.4439830" lon="-0.6455570">
        <ele>322.6</ele>
        <time>2018-03-30T08:51:16Z</time>
      </trkpt>
      <trkpt lat="38.4439370" lon="-0.6454930">
        <ele>322.4</ele>
        <time>2018-03-30T08:51:17Z</time>
      </trkpt>
      <trkpt lat="38.4438900" lon="-0.6454320">
        <ele>322.4</ele>
        <time>2018-03-30T08:51:18Z</time>
      </trkpt>
      <trkpt lat="38.4438490" lon="-0.6453720">
        <ele>322.3</ele>
        <time>2018-03-30T08:51:19Z</time>
      </trkpt>
      <trkpt lat="38.4438080" lon="-0.6453160">
        <ele>322.3</ele>
        <time>2018-03-30T08:51:20Z</time>
      </trkpt>
      <trkpt lat="38.4437690" lon="-0.6452570">
        <ele>322.3</ele>
        <time>2018-03-30T08:51:21Z</time>
      </trkpt>
      <trkpt lat="38.4437330" lon="-0.6451970">
        <ele>322.3</ele>
        <time>2018-03-30T08:51:22Z</time>
      </trkpt>
      <trkpt lat="38.4436950" lon="-0.6451370">
        <ele>322.4</ele>
        <time>2018-03-30T08:51:23Z</time>
      </trkpt>
      <trkpt lat="38.4436610" lon="-0.6450750">
        <ele>322.4</ele>
        <time>2018-03-30T08:51:24Z</time>
      </trkpt>
      <trkpt lat="38.4436280" lon="-0.6450130">
        <ele>322.4</ele>
        <time>2018-03-30T08:51:25Z</time>
      </trkpt>
      <trkpt lat="38.4435960" lon="-0.6449520">
        <ele>322.5</ele>
        <time>2018-03-30T08:51:26Z</time>
      </trkpt>
      <trkpt lat="38.4435640" lon="-0.6448900">
        <ele>322.5</ele>
        <time>2018-03-30T08:51:27Z</time>
      </trkpt>
      <trkpt lat="38.4435340" lon="-0.6448260">
        <ele>322.5</ele>
        <time>2018-03-30T08:51:28Z</time>
      </trkpt>
      <trkpt lat="38.4434980" lon="-0.6447660">
        <ele>322.6</ele>
        <time>2018-03-30T08:51:29Z</time>
      </trkpt>
      <trkpt lat="38.4434620" lon="-0.6447070">
        <ele>322.6</ele>
        <time>2018-03-30T08:51:30Z</time>
      </trkpt>
      <trkpt lat="38.4434250" lon="-0.6446490">
        <ele>322.7</ele>
        <time>2018-03-30T08:51:31Z</time>
      </trkpt>
      <trkpt lat="38.4433870" lon="-0.6445910">
        <ele>322.7</ele>
        <time>2018-03-30T08:51:32Z</time>
      </trkpt>
      <trkpt lat="38.4433450" lon="-0.6445360">
        <ele>322.8</ele>
        <time>2018-03-30T08:51:33Z</time>
      </trkpt>
      <trkpt lat="38.4433010" lon="-0.6444850">
        <ele>322.9</ele>
        <time>2018-03-30T08:51:34Z</time>
      </trkpt>
      <trkpt lat="38.4432550" lon="-0.6444370">
        <ele>323.0</ele>
        <time>2018-03-30T08:51:35Z</time>
      </trkpt>
      <trkpt lat="38.4432130" lon="-0.6443880">
        <ele>323.1</ele>
        <time>2018-03-30T08:51:36Z</time>
      </trkpt>
      <trkpt lat="38.4431680" lon="-0.6443420">
        <ele>323.2</ele>
        <time>2018-03-30T08:51:37Z</time>
      </trkpt>
      <trkpt lat="38.4431280" lon="-0.6443010">
        <ele>323.3</ele>
        <time>2018-03-30T08:51:38Z</time>
      </trkpt>
      <trkpt lat="38.4430870" lon="-0.6442580">
        <ele>323.6</ele>
        <time>2018-03-30T08:51:39Z</time>
      </trkpt>
      <trkpt lat="38.4430450" lon="-0.6442170">
        <ele>323.8</ele>
        <time>2018-03-30T08:51:40Z</time>
      </trkpt>
      <trkpt lat="38.4430040" lon="-0.6441770">
        <ele>324.0</ele>
        <time>2018-03-30T08:51:41Z</time>
      </trkpt>
      <trkpt lat="38.4429630" lon="-0.6441370">
        <ele>324.2</ele>
        <time>2018-03-30T08:51:42Z</time>
      </trkpt>
      <trkpt lat="38.4429220" lon="-0.6440990">
        <ele>324.4</ele>
        <time>2018-03-30T08:51:43Z</time>
      </trkpt>
      <trkpt lat="38.4428800" lon="-0.6440580">
        <ele>324.5</ele>
        <time>2018-03-30T08:51:44Z</time>
      </trkpt>
      <trkpt lat="38.4428430" lon="-0.6440160">
        <ele>324.6</ele>
        <time>2018-03-30T08:51:45Z</time>
      </trkpt>
      <trkpt lat="38.4428030" lon="-0.6439780">
        <ele>324.8</ele>
        <time>2018-03-30T08:51:46Z</time>
      </trkpt>
      <trkpt lat="38.4427660" lon="-0.6439410">
        <ele>324.9</ele>
        <time>2018-03-30T08:51:47Z</time>
      </trkpt>
      <trkpt lat="38.4427320" lon="-0.6438970">
        <ele>325.0</ele>
        <time>2018-03-30T08:51:48Z</time>
      </trkpt>
      <trkpt lat="38.4426920" lon="-0.6438550">
        <ele>325.1</ele>
        <time>2018-03-30T08:51:49Z</time>
      </trkpt>
      <trkpt lat="38.4426600" lon="-0.6438120">
        <ele>325.1</ele>
        <time>2018-03-30T08:51:50Z</time>
      </trkpt>
      <trkpt lat="38.4426250" lon="-0.6437690">
        <ele>325.2</ele>
        <time>2018-03-30T08:51:51Z</time>
      </trkpt>
      <trkpt lat="38.4425930" lon="-0.6437240">
        <ele>325.2</ele>
        <time>2018-03-30T08:51:52Z</time>
      </trkpt>
      <trkpt lat="38.4425690" lon="-0.6436690">
        <ele>325.2</ele>
        <time>2018-03-30T08:51:53Z</time>
      </trkpt>
      <trkpt lat="38.4425360" lon="-0.6436190">
        <ele>325.1</ele>
        <time>2018-03-30T08:51:54Z</time>
      </trkpt>
      <trkpt lat="38.4425010" lon="-0.6435690">
        <ele>325.1</ele>
        <time>2018-03-30T08:51:55Z</time>
      </trkpt>
      <trkpt lat="38.4424630" lon="-0.6435150">
        <ele>325.1</ele>
        <time>2018-03-30T08:51:56Z</time>
      </trkpt>
      <trkpt lat="38.4424270" lon="-0.6434590">
        <ele>325.1</ele>
        <time>2018-03-30T08:51:57Z</time>
      </trkpt>
      <trkpt lat="38.4423910" lon="-0.6434040">
        <ele>325.0</ele>
        <time>2018-03-30T08:51:58Z</time>
      </trkpt>
      <trkpt lat="38.4423500" lon="-0.6433530">
        <ele>325.0</ele>
        <time>2018-03-30T08:51:59Z</time>
      </trkpt>
      <trkpt lat="38.4423110" lon="-0.6433000">
        <ele>325.0</ele>
        <time>2018-03-30T08:52:00Z</time>
      </trkpt>
      <trkpt lat="38.4422790" lon="-0.6432430">
        <ele>325.0</ele>
        <time>2018-03-30T08:52:01Z</time>
      </trkpt>
      <trkpt lat="38.4422440" lon="-0.6431890">
        <ele>325.0</ele>
        <time>2018-03-30T08:52:02Z</time>
      </trkpt>
      <trkpt lat="38.4422060" lon="-0.6431360">
        <ele>325.0</ele>
        <time>2018-03-30T08:52:03Z</time>
      </trkpt>
      <trkpt lat="38.4421690" lon="-0.6430850">
        <ele>325.0</ele>
        <time>2018-03-30T08:52:04Z</time>
      </trkpt>
      <trkpt lat="38.4421300" lon="-0.6430350">
        <ele>325.0</ele>
        <time>2018-03-30T08:52:05Z</time>
      </trkpt>
      <trkpt lat="38.4420890" lon="-0.6429890">
        <ele>324.9</ele>
        <time>2018-03-30T08:52:06Z</time>
      </trkpt>
      <trkpt lat="38.4420480" lon="-0.6429410">
        <ele>324.8</ele>
        <time>2018-03-30T08:52:07Z</time>
      </trkpt>
      <trkpt lat="38.4420070" lon="-0.6428960">
        <ele>324.6</ele>
        <time>2018-03-30T08:52:08Z</time>
      </trkpt>
      <trkpt lat="38.4419650" lon="-0.6428510">
        <ele>324.5</ele>
        <time>2018-03-30T08:52:09Z</time>
      </trkpt>
      <trkpt lat="38.4419190" lon="-0.6428060">
        <ele>324.3</ele>
        <time>2018-03-30T08:52:10Z</time>
      </trkpt>
      <trkpt lat="38.4418790" lon="-0.6427600">
        <ele>324.2</ele>
        <time>2018-03-30T08:52:11Z</time>
      </trkpt>
      <trkpt lat="38.4418300" lon="-0.6427090">
        <ele>324.0</ele>
        <time>2018-03-30T08:52:12Z</time>
      </trkpt>
      <trkpt lat="38.4417790" lon="-0.6426610">
        <ele>323.8</ele>
        <time>2018-03-30T08:52:13Z</time>
      </trkpt>
      <trkpt lat="38.4417240" lon="-0.6426070">
        <ele>323.5</ele>
        <time>2018-03-30T08:52:14Z</time>
      </trkpt>
      <trkpt lat="38.4416730" lon="-0.6425520">
        <ele>323.3</ele>
        <time>2018-03-30T08:52:15Z</time>
      </trkpt>
      <trkpt lat="38.4416200" lon="-0.6424950">
        <ele>323.2</ele>
        <time>2018-03-30T08:52:16Z</time>
      </trkpt>
      <trkpt lat="38.4415730" lon="-0.6424430">
        <ele>323.1</ele>
        <time>2018-03-30T08:52:17Z</time>
      </trkpt>
      <trkpt lat="38.4415630" lon="-0.6423790">
        <ele>323.0</ele>
        <time>2018-03-30T08:52:18Z</time>
      </trkpt>
      <trkpt lat="38.4415430" lon="-0.6423100">
        <ele>323.0</ele>
        <time>2018-03-30T08:52:19Z</time>
      </trkpt>
      <trkpt lat="38.4415490" lon="-0.6422350">
        <ele>323.0</ele>
        <time>2018-03-30T08:52:20Z</time>
      </trkpt>
      <trkpt lat="38.4415510" lon="-0.6421530">
        <ele>323.0</ele>
        <time>2018-03-30T08:52:21Z</time>
      </trkpt>
      <trkpt lat="38.4415530" lon="-0.6420640">
        <ele>323.0</ele>
        <time>2018-03-30T08:52:22Z</time>
      </trkpt>
      <trkpt lat="38.4415530" lon="-0.6419700">
        <ele>323.0</ele>
        <time>2018-03-30T08:52:23Z</time>
      </trkpt>
      <trkpt lat="38.4415600" lon="-0.6418720">
        <ele>323.0</ele>
        <time>2018-03-30T08:52:24Z</time>
      </trkpt>
      <trkpt lat="38.4415660" lon="-0.6417710">
        <ele>323.2</ele>
        <time>2018-03-30T08:52:25Z</time>
      </trkpt>
      <trkpt lat="38.4415700" lon="-0.6416710">
        <ele>323.4</ele>
        <time>2018-03-30T08:52:26Z</time>
      </trkpt>
      <trkpt lat="38.4415680" lon="-0.6415720">
        <ele>323.6</ele>
        <time>2018-03-30T08:52:27Z</time>
      </trkpt>
      <trkpt lat="38.4415580" lon="-0.6414770">
        <ele>323.8</ele>
        <time>2018-03-30T08:52:28Z</time>
      </trkpt>
      <trkpt lat="38.4415370" lon="-0.6413920">
        <ele>323.9</ele>
        <time>2018-03-30T08:52:29Z</time>
      </trkpt>
      <trkpt lat="38.4414910" lon="-0.6413260">
        <ele>323.9</ele>
        <time>2018-03-30T08:52:30Z</time>
      </trkpt>
      <trkpt lat="38.4414320" lon="-0.6412850">
        <ele>323.9</ele>
        <time>2018-03-30T08:52:31Z</time>
      </trkpt>
      <trkpt lat="38.4413610" lon="-0.6412490">
        <ele>323.8</ele>
        <time>2018-03-30T08:52:32Z</time>
      </trkpt>
      <trkpt lat="38.4412900" lon="-0.6412080">
        <ele>323.8</ele>
        <time>2018-03-30T08:52:33Z</time>
      </trkpt>
      <trkpt lat="38.4412170" lon="-0.6411650">
        <ele>323.8</ele>
        <time>2018-03-30T08:52:34Z</time>
      </trkpt>
      <trkpt lat="38.4411400" lon="-0.6411250">
        <ele>323.8</ele>
        <time>2018-03-30T08:52:35Z</time>
      </trkpt>
      <trkpt lat="38.4410630" lon="-0.6410800">
        <ele>323.8</ele>
        <time>2018-03-30T08:52:36Z</time>
      </trkpt>
      <trkpt lat="38.4409870" lon="-0.6410310">
        <ele>323.9</ele>
        <time>2018-03-30T08:52:37Z</time>
      </trkpt>
      <trkpt lat="38.4409110" lon="-0.6409820">
        <ele>323.9</ele>
        <time>2018-03-30T08:52:38Z</time>
      </trkpt>
      <trkpt lat="38.4408360" lon="-0.6409310">
        <ele>323.8</ele>
        <time>2018-03-30T08:52:39Z</time>
      </trkpt>
      <trkpt lat="38.4407580" lon="-0.6408810">
        <ele>323.3</ele>
        <time>2018-03-30T08:52:40Z</time>
      </trkpt>
      <trkpt lat="38.4406780" lon="-0.6408350">
        <ele>322.8</ele>
        <time>2018-03-30T08:52:41Z</time>
      </trkpt>
      <trkpt lat="38.4405970" lon="-0.6407930">
        <ele>321.8</ele>
        <time>2018-03-30T08:52:42Z</time>
      </trkpt>
      <trkpt lat="38.4405140" lon="-0.6407570">
        <ele>321.0</ele>
        <time>2018-03-30T08:52:43Z</time>
      </trkpt>
      <trkpt lat="38.4404320" lon="-0.6407280">
        <ele>319.7</ele>
        <time>2018-03-30T08:52:44Z</time>
      </trkpt>
      <trkpt lat="38.4403490" lon="-0.6407070">
        <ele>317.9</ele>
        <time>2018-03-30T08:52:45Z</time>
      </trkpt>
      <trkpt lat="38.4402680" lon="-0.6407080">
        <ele>316.6</ele>
        <time>2018-03-30T08:52:46Z</time>
      </trkpt>
      <trkpt lat="38.4401870" lon="-0.6407020">
        <ele>315.7</ele>
        <time>2018-03-30T08:52:47Z</time>
      </trkpt>
      <trkpt lat="38.4401050" lon="-0.6406970">
        <ele>315.0</ele>
        <time>2018-03-30T08:52:48Z</time>
      </trkpt>
      <trkpt lat="38.4400230" lon="-0.6406930">
        <ele>314.4</ele>
        <time>2018-03-30T08:52:49Z</time>
      </trkpt>
      <trkpt lat="38.4399400" lon="-0.6406910">
        <ele>314.0</ele>
        <time>2018-03-30T08:52:50Z</time>
      </trkpt>
      <trkpt lat="38.4398580" lon="-0.6406890">
        <ele>314.0</ele>
        <time>2018-03-30T08:52:51Z</time>
      </trkpt>
      <trkpt lat="38.4397770" lon="-0.6406890">
        <ele>314.0</ele>
        <time>2018-03-30T08:52:52Z</time>
      </trkpt>
      <trkpt lat="38.4396990" lon="-0.6406910">
        <ele>314.0</ele>
        <time>2018-03-30T08:52:53Z</time>
      </trkpt>
      <trkpt lat="38.4396180" lon="-0.6406960">
        <ele>313.9</ele>
        <time>2018-03-30T08:52:54Z</time>
      </trkpt>
      <trkpt lat="38.4395370" lon="-0.6406980">
        <ele>313.9</ele>
        <time>2018-03-30T08:52:55Z</time>
      </trkpt>
      <trkpt lat="38.4394550" lon="-0.6406810">
        <ele>313.9</ele>
        <time>2018-03-30T08:52:56Z</time>
      </trkpt>
      <trkpt lat="38.4393700" lon="-0.6406710">
        <ele>313.9</ele>
        <time>2018-03-30T08:52:57Z</time>
      </trkpt>
      <trkpt lat="38.4392870" lon="-0.6406610">
        <ele>313.9</ele>
        <time>2018-03-30T08:52:58Z</time>
      </trkpt>
      <trkpt lat="38.4392020" lon="-0.6406550">
        <ele>313.9</ele>
        <time>2018-03-30T08:52:59Z</time>
      </trkpt>
      <trkpt lat="38.4391180" lon="-0.6406460">
        <ele>314.0</ele>
        <time>2018-03-30T08:53:00Z</time>
      </trkpt>
      <trkpt lat="38.4390270" lon="-0.6406410">
        <ele>314.0</ele>
        <time>2018-03-30T08:53:01Z</time>
      </trkpt>
      <trkpt lat="38.4389380" lon="-0.6406360">
        <ele>313.3</ele>
        <time>2018-03-30T08:53:02Z</time>
      </trkpt>
      <trkpt lat="38.4388510" lon="-0.6406290">
        <ele>312.7</ele>
        <time>2018-03-30T08:53:03Z</time>
      </trkpt>
      <trkpt lat="38.4387670" lon="-0.6406230">
        <ele>312.4</ele>
        <time>2018-03-30T08:53:04Z</time>
      </trkpt>
      <trkpt lat="38.4386910" lon="-0.6406130">
        <ele>312.1</ele>
        <time>2018-03-30T08:53:05Z</time>
      </trkpt>
      <trkpt lat="38.4386130" lon="-0.6406060">
        <ele>311.9</ele>
        <time>2018-03-30T08:53:06Z</time>
      </trkpt>
      <trkpt lat="38.4385370" lon="-0.6405980">
        <ele>311.6</ele>
        <time>2018-03-30T08:53:07Z</time>
      </trkpt>
      <trkpt lat="38.4384610" lon="-0.6405920">
        <ele>311.3</ele>
        <time>2018-03-30T08:53:08Z</time>
      </trkpt>
      <trkpt lat="38.4383850" lon="-0.6405860">
        <ele>311.1</ele>
        <time>2018-03-30T08:53:09Z</time>
      </trkpt>
      <trkpt lat="38.4383130" lon="-0.6405930">
        <ele>310.8</ele>
        <time>2018-03-30T08:53:10Z</time>
      </trkpt>
      <trkpt lat="38.4382390" lon="-0.6405820">
        <ele>310.3</ele>
        <time>2018-03-30T08:53:11Z</time>
      </trkpt>
      <trkpt lat="38.4381670" lon="-0.6405740">
        <ele>309.8</ele>
        <time>2018-03-30T08:53:12Z</time>
      </trkpt>
      <trkpt lat="38.4380960" lon="-0.6405640">
        <ele>309.4</ele>
        <time>2018-03-30T08:53:13Z</time>
      </trkpt>
      <trkpt lat="38.4380260" lon="-0.6405520">
        <ele>308.9</ele>
        <time>2018-03-30T08:53:14Z</time>
      </trkpt>
      <trkpt lat="38.4379510" lon="-0.6405630">
        <ele>308.1</ele>
        <time>2018-03-30T08:53:15Z</time>
      </trkpt>
      <trkpt lat="38.4378760" lon="-0.6405600">
        <ele>307.6</ele>
        <time>2018-03-30T08:53:16Z</time>
      </trkpt>
      <trkpt lat="38.4377980" lon="-0.6405590">
        <ele>307.1</ele>
        <time>2018-03-30T08:53:17Z</time>
      </trkpt>
      <trkpt lat="38.4377200" lon="-0.6405620">
        <ele>306.9</ele>
        <time>2018-03-30T08:53:18Z</time>
      </trkpt>
      <trkpt lat="38.4376420" lon="-0.6405660">
        <ele>306.6</ele>
        <time>2018-03-30T08:53:19Z</time>
      </trkpt>
      <trkpt lat="38.4375620" lon="-0.6405730">
        <ele>306.5</ele>
        <time>2018-03-30T08:53:20Z</time>
      </trkpt>
      <trkpt lat="38.4374710" lon="-0.6406140">
        <ele>306.3</ele>
        <time>2018-03-30T08:53:21Z</time>
      </trkpt>
      <trkpt lat="38.4373720" lon="-0.6406130">
        <ele>306.1</ele>
        <time>2018-03-30T08:53:22Z</time>
      </trkpt>
      <trkpt lat="38.4372840" lon="-0.6406270">
        <ele>305.9</ele>
        <time>2018-03-30T08:53:23Z</time>
      </trkpt>
      <trkpt lat="38.4371980" lon="-0.6406380">
        <ele>305.7</ele>
        <time>2018-03-30T08:53:24Z</time>
      </trkpt>
      <trkpt lat="38.4371140" lon="-0.6406490">
        <ele>305.4</ele>
        <time>2018-03-30T08:53:25Z</time>
      </trkpt>
      <trkpt lat="38.4370300" lon="-0.6406580">
        <ele>305.1</ele>
        <time>2018-03-30T08:53:26Z</time>
      </trkpt>
      <trkpt lat="38.4369500" lon="-0.6406720">
        <ele>304.7</ele>
        <time>2018-03-30T08:53:27Z</time>
      </trkpt>
      <trkpt lat="38.4368800" lon="-0.6406800">
        <ele>304.3</ele>
        <time>2018-03-30T08:53:28Z</time>
      </trkpt>
      <trkpt lat="38.4368160" lon="-0.6407080">
        <ele>303.9</ele>
        <time>2018-03-30T08:53:29Z</time>
      </trkpt>
      <trkpt lat="38.4367580" lon="-0.6407650">
        <ele>303.3</ele>
        <time>2018-03-30T08:53:30Z</time>
      </trkpt>
      <trkpt lat="38.4367020" lon="-0.6408090">
        <ele>302.9</ele>
        <time>2018-03-30T08:53:31Z</time>
      </trkpt>
      <trkpt lat="38.4366830" lon="-0.6408950">
        <ele>302.4</ele>
        <time>2018-03-30T08:53:32Z</time>
      </trkpt>
      <trkpt lat="38.4366460" lon="-0.6409890">
        <ele>302.0</ele>
        <time>2018-03-30T08:53:33Z</time>
      </trkpt>
      <trkpt lat="38.4366030" lon="-0.6410650">
        <ele>301.7</ele>
        <time>2018-03-30T08:53:34Z</time>
      </trkpt>
      <trkpt lat="38.4365530" lon="-0.6411360">
        <ele>301.5</ele>
        <time>2018-03-30T08:53:35Z</time>
      </trkpt>
      <trkpt lat="38.4365030" lon="-0.6412100">
        <ele>301.2</ele>
        <time>2018-03-30T08:53:36Z</time>
      </trkpt>
      <trkpt lat="38.4364540" lon="-0.6412900">
        <ele>301.0</ele>
        <time>2018-03-30T08:53:37Z</time>
      </trkpt>
      <trkpt lat="38.4363960" lon="-0.6413510">
        <ele>301.0</ele>
        <time>2018-03-30T08:53:38Z</time>
      </trkpt>
      <trkpt lat="38.4363270" lon="-0.6413760">
        <ele>301.0</ele>
        <time>2018-03-30T08:53:39Z</time>
      </trkpt>
      <trkpt lat="38.4362710" lon="-0.6413680">
        <ele>301.0</ele>
        <time>2018-03-30T08:53:40Z</time>
      </trkpt>
      <trkpt lat="38.4362150" lon="-0.6413200">
        <ele>301.0</ele>
        <time>2018-03-30T08:53:41Z</time>
      </trkpt>
      <trkpt lat="38.4361580" lon="-0.6412800">
        <ele>301.0</ele>
        <time>2018-03-30T08:53:42Z</time>
      </trkpt>
      <trkpt lat="38.4360980" lon="-0.6412600">
        <ele>301.0</ele>
        <time>2018-03-30T08:53:43Z</time>
      </trkpt>
      <trkpt lat="38.4360360" lon="-0.6412530">
        <ele>301.0</ele>
        <time>2018-03-30T08:53:44Z</time>
      </trkpt>
      <trkpt lat="38.4359660" lon="-0.6412600">
        <ele>301.0</ele>
        <time>2018-03-30T08:53:45Z</time>
      </trkpt>
      <trkpt lat="38.4358960" lon="-0.6412790">
        <ele>301.0</ele>
        <time>2018-03-30T08:53:46Z</time>
      </trkpt>
      <trkpt lat="38.4358250" lon="-0.6413120">
        <ele>301.1</ele>
        <time>2018-03-30T08:53:47Z</time>
      </trkpt>
      <trkpt lat="38.4357550" lon="-0.6413530">
        <ele>301.2</ele>
        <time>2018-03-30T08:53:48Z</time>
      </trkpt>
      <trkpt lat="38.4356880" lon="-0.6413980">
        <ele>301.3</ele>
        <time>2018-03-30T08:53:49Z</time>
      </trkpt>
      <trkpt lat="38.4356210" lon="-0.6414400">
        <ele>301.4</ele>
        <time>2018-03-30T08:53:50Z</time>
      </trkpt>
      <trkpt lat="38.4355530" lon="-0.6414820">
        <ele>301.5</ele>
        <time>2018-03-30T08:53:51Z</time>
      </trkpt>
      <trkpt lat="38.4354840" lon="-0.6415230">
        <ele>301.6</ele>
        <time>2018-03-30T08:53:52Z</time>
      </trkpt>
      <trkpt lat="38.4354160" lon="-0.6415640">
        <ele>301.7</ele>
        <time>2018-03-30T08:53:53Z</time>
      </trkpt>
      <trkpt lat="38.4353480" lon="-0.6416060">
        <ele>301.8</ele>
        <time>2018-03-30T08:53:54Z</time>
      </trkpt>
      <trkpt lat="38.4352810" lon="-0.6416460">
        <ele>301.9</ele>
        <time>2018-03-30T08:53:55Z</time>
      </trkpt>
      <trkpt lat="38.4352160" lon="-0.6416840">
        <ele>301.9</ele>
        <time>2018-03-30T08:53:56Z</time>
      </trkpt>
      <trkpt lat="38.4351490" lon="-0.6417160">
        <ele>302.0</ele>
        <time>2018-03-30T08:53:57Z</time>
      </trkpt>
      <trkpt lat="38.4350800" lon="-0.6417410">
        <ele>302.1</ele>
        <time>2018-03-30T08:53:58Z</time>
      </trkpt>
      <trkpt lat="38.4350100" lon="-0.6417600">
        <ele>302.2</ele>
        <time>2018-03-30T08:53:59Z</time>
      </trkpt>
      <trkpt lat="38.4349380" lon="-0.6417740">
        <ele>302.3</ele>
        <time>2018-03-30T08:54:00Z</time>
      </trkpt>
      <trkpt lat="38.4348650" lon="-0.6417830">
        <ele>302.3</ele>
        <time>2018-03-30T08:54:01Z</time>
      </trkpt>
      <trkpt lat="38.4347910" lon="-0.6417910">
        <ele>302.4</ele>
        <time>2018-03-30T08:54:02Z</time>
      </trkpt>
      <trkpt lat="38.4347170" lon="-0.6417950">
        <ele>302.4</ele>
        <time>2018-03-30T08:54:03Z</time>
      </trkpt>
      <trkpt lat="38.4346430" lon="-0.6418000">
        <ele>302.5</ele>
        <time>2018-03-30T08:54:04Z</time>
      </trkpt>
      <trkpt lat="38.4345690" lon="-0.6418050">
        <ele>302.7</ele>
        <time>2018-03-30T08:54:05Z</time>
      </trkpt>
      <trkpt lat="38.4344950" lon="-0.6418090">
        <ele>302.8</ele>
        <time>2018-03-30T08:54:06Z</time>
      </trkpt>
      <trkpt lat="38.4344170" lon="-0.6418140">
        <ele>302.9</ele>
        <time>2018-03-30T08:54:07Z</time>
      </trkpt>
      <trkpt lat="38.4343390" lon="-0.6418200">
        <ele>302.9</ele>
        <time>2018-03-30T08:54:08Z</time>
      </trkpt>
      <trkpt lat="38.4342610" lon="-0.6418290">
        <ele>302.7</ele>
        <time>2018-03-30T08:54:09Z</time>
      </trkpt>
      <trkpt lat="38.4341830" lon="-0.6418420">
        <ele>302.5</ele>
        <time>2018-03-30T08:54:10Z</time>
      </trkpt>
      <trkpt lat="38.4341070" lon="-0.6418610">
        <ele>302.4</ele>
        <time>2018-03-30T08:54:11Z</time>
      </trkpt>
      <trkpt lat="38.4340290" lon="-0.6418820">
        <ele>302.3</ele>
        <time>2018-03-30T08:54:12Z</time>
      </trkpt>
      <trkpt lat="38.4339540" lon="-0.6419100">
        <ele>302.2</ele>
        <time>2018-03-30T08:54:13Z</time>
      </trkpt>
      <trkpt lat="38.4338850" lon="-0.6419380">
        <ele>302.1</ele>
        <time>2018-03-30T08:54:14Z</time>
      </trkpt>
      <trkpt lat="38.4338170" lon="-0.6419700">
        <ele>302.0</ele>
        <time>2018-03-30T08:54:15Z</time>
      </trkpt>
      <trkpt lat="38.4337500" lon="-0.6419980">
        <ele>301.9</ele>
        <time>2018-03-30T08:54:16Z</time>
      </trkpt>
      <trkpt lat="38.4336850" lon="-0.6420240">
        <ele>301.9</ele>
        <time>2018-03-30T08:54:17Z</time>
      </trkpt>
      <trkpt lat="38.4336200" lon="-0.6420450">
        <ele>301.9</ele>
        <time>2018-03-30T08:54:18Z</time>
      </trkpt>
      <trkpt lat="38.4335600" lon="-0.6420660">
        <ele>301.9</ele>
        <time>2018-03-30T08:54:19Z</time>
      </trkpt>
      <trkpt lat="38.4334990" lon="-0.6420890">
        <ele>301.9</ele>
        <time>2018-03-30T08:54:20Z</time>
      </trkpt>
      <trkpt lat="38.4334370" lon="-0.6421100">
        <ele>301.9</ele>
        <time>2018-03-30T08:54:21Z</time>
      </trkpt>
      <trkpt lat="38.4333760" lon="-0.6421330">
        <ele>301.9</ele>
        <time>2018-03-30T08:54:22Z</time>
      </trkpt>
      <trkpt lat="38.4333180" lon="-0.6421560">
        <ele>301.9</ele>
        <time>2018-03-30T08:54:23Z</time>
      </trkpt>
      <trkpt lat="38.4332620" lon="-0.6421820">
        <ele>302.0</ele>
        <time>2018-03-30T08:54:24Z</time>
      </trkpt>
      <trkpt lat="38.4332100" lon="-0.6422150">
        <ele>302.0</ele>
        <time>2018-03-30T08:54:25Z</time>
      </trkpt>
      <trkpt lat="38.4331590" lon="-0.6422500">
        <ele>302.0</ele>
        <time>2018-03-30T08:54:26Z</time>
      </trkpt>
      <trkpt lat="38.4331120" lon="-0.6422820">
        <ele>302.1</ele>
        <time>2018-03-30T08:54:27Z</time>
      </trkpt>
      <trkpt lat="38.4330620" lon="-0.6423170">
        <ele>302.1</ele>
        <time>2018-03-30T08:54:28Z</time>
      </trkpt>
      <trkpt lat="38.4330120" lon="-0.6423550">
        <ele>302.1</ele>
        <time>2018-03-30T08:54:29Z</time>
      </trkpt>
      <trkpt lat="38.4329620" lon="-0.6423940">
        <ele>302.1</ele>
        <time>2018-03-30T08:54:30Z</time>
      </trkpt>
      <trkpt lat="38.4329120" lon="-0.6424360">
        <ele>302.2</ele>
        <time>2018-03-30T08:54:31Z</time>
      </trkpt>
      <trkpt lat="38.4328610" lon="-0.6424820">
        <ele>302.2</ele>
        <time>2018-03-30T08:54:32Z</time>
      </trkpt>
      <trkpt lat="38.4328140" lon="-0.6425300">
        <ele>302.3</ele>
        <time>2018-03-30T08:54:33Z</time>
      </trkpt>
      <trkpt lat="38.4327670" lon="-0.6425780">
        <ele>302.3</ele>
        <time>2018-03-30T08:54:34Z</time>
      </trkpt>
      <trkpt lat="38.4327190" lon="-0.6426210">
        <ele>302.4</ele>
        <time>2018-03-30T08:54:35Z</time>
      </trkpt>
      <trkpt lat="38.4326710" lon="-0.6426610">
        <ele>302.4</ele>
        <time>2018-03-30T08:54:36Z</time>
      </trkpt>
      <trkpt lat="38.4326210" lon="-0.6427010">
        <ele>302.4</ele>
        <time>2018-03-30T08:54:37Z</time>
      </trkpt>
      <trkpt lat="38.4325720" lon="-0.6427400">
        <ele>302.4</ele>
        <time>2018-03-30T08:54:38Z</time>
      </trkpt>
      <trkpt lat="38.4325240" lon="-0.6427730">
        <ele>302.4</ele>
        <time>2018-03-30T08:54:39Z</time>
      </trkpt>
      <trkpt lat="38.4324710" lon="-0.6428050">
        <ele>302.4</ele>
        <time>2018-03-30T08:54:40Z</time>
      </trkpt>
      <trkpt lat="38.4324210" lon="-0.6428350">
        <ele>302.4</ele>
        <time>2018-03-30T08:54:41Z</time>
      </trkpt>
      <trkpt lat="38.4323680" lon="-0.6428650">
        <ele>302.5</ele>
        <time>2018-03-30T08:54:42Z</time>
      </trkpt>
      <trkpt lat="38.4323140" lon="-0.6428930">
        <ele>302.5</ele>
        <time>2018-03-30T08:54:43Z</time>
      </trkpt>
      <trkpt lat="38.4322590" lon="-0.6429180">
        <ele>302.5</ele>
        <time>2018-03-30T08:54:44Z</time>
      </trkpt>
      <trkpt lat="38.4322030" lon="-0.6429420">
        <ele>302.5</ele>
        <time>2018-03-30T08:54:45Z</time>
      </trkpt>
      <trkpt lat="38.4321430" lon="-0.6429670">
        <ele>302.5</ele>
        <time>2018-03-30T08:54:46Z</time>
      </trkpt>
      <trkpt lat="38.4320820" lon="-0.6429920">
        <ele>302.5</ele>
        <time>2018-03-30T08:54:47Z</time>
      </trkpt>
      <trkpt lat="38.4320200" lon="-0.6430180">
        <ele>302.5</ele>
        <time>2018-03-30T08:54:48Z</time>
      </trkpt>
      <trkpt lat="38.4319580" lon="-0.6430420">
        <ele>302.5</ele>
        <time>2018-03-30T08:54:49Z</time>
      </trkpt>
      <trkpt lat="38.4318940" lon="-0.6430640">
        <ele>302.5</ele>
        <time>2018-03-30T08:54:50Z</time>
      </trkpt>
      <trkpt lat="38.4318310" lon="-0.6430840">
        <ele>302.4</ele>
        <time>2018-03-30T08:54:51Z</time>
      </trkpt>
      <trkpt lat="38.4317660" lon="-0.6431050">
        <ele>302.4</ele>
        <time>2018-03-30T08:54:52Z</time>
      </trkpt>
      <trkpt lat="38.4317080" lon="-0.6431240">
        <ele>302.4</ele>
        <time>2018-03-30T08:54:53Z</time>
      </trkpt>
      <trkpt lat="38.4316530" lon="-0.6431490">
        <ele>302.3</ele>
        <time>2018-03-30T08:54:54Z</time>
      </trkpt>
      <trkpt lat="38.4316140" lon="-0.6431690">
        <ele>302.3</ele>
        <time>2018-03-30T08:54:55Z</time>
      </trkpt>
      <trkpt lat="38.4315900" lon="-0.6431750">
        <ele>302.3</ele>
        <time>2018-03-30T08:54:56Z</time>
      </trkpt>
      <trkpt lat="38.4316010" lon="-0.6431800">
        <ele>302.3</ele>
        <time>2018-03-30T08:54:57Z</time>
      </trkpt>
      <trkpt lat="38.4316040" lon="-0.6431800">
        <ele>302.3</ele>
        <time>2018-03-30T08:54:58Z</time>
      </trkpt>
      <trkpt lat="38.4315990" lon="-0.6431830">
        <ele>302.3</ele>
        <time>2018-03-30T08:54:59Z</time>
      </trkpt>
      <trkpt lat="38.4315930" lon="-0.6431850">
        <ele>302.3</ele>
        <time>2018-03-30T08:55:00Z</time>
      </trkpt>
      <trkpt lat="38.4315880" lon="-0.6431870">
        <ele>302.3</ele>
        <time>2018-03-30T08:55:01Z</time>
      </trkpt>
      <trkpt lat="38.4315820" lon="-0.6431870">
        <ele>302.3</ele>
        <time>2018-03-30T08:55:02Z</time>
      </trkpt>
      <trkpt lat="38.4315780" lon="-0.6431870">
        <ele>302.3</ele>
        <time>2018-03-30T08:55:03Z</time>
      </trkpt>
      <trkpt lat="38.4315760" lon="-0.6431880">
        <ele>302.3</ele>
        <time>2018-03-30T08:55:04Z</time>
      </trkpt>
      <trkpt lat="38.4315750" lon="-0.6431880">
        <ele>302.3</ele>
        <time>2018-03-30T08:55:05Z</time>
      </trkpt>
      <trkpt lat="38.4315750" lon="-0.6431880">
        <ele>302.3</ele>
        <time>2018-03-30T08:55:06Z</time>
      </trkpt>
      <trkpt lat="38.4315760" lon="-0.6431880">
        <ele>302.3</ele>
        <time>2018-03-30T08:55:07Z</time>
      </trkpt>
      <trkpt lat="38.4315760" lon="-0.6431890">
        <ele>302.3</ele>
        <time>2018-03-30T08:55:08Z</time>
      </trkpt>
      <trkpt lat="38.4315740" lon="-0.6431950">
        <ele>302.3</ele>
        <time>2018-03-30T08:55:20Z</time>
      </trkpt>
      <trkpt lat="38.4315690" lon="-0.6432030">
        <ele>302.3</ele>
        <time>2018-03-30T08:55:21Z</time>
      </trkpt>
      <trkpt lat="38.4315590" lon="-0.6432060">
        <ele>302.2</ele>
        <time>2018-03-30T08:55:22Z</time>
      </trkpt>
      <trkpt lat="38.4315450" lon="-0.6432080">
        <ele>302.2</ele>
        <time>2018-03-30T08:55:23Z</time>
      </trkpt>
      <trkpt lat="38.4315290" lon="-0.6432150">
        <ele>302.2</ele>
        <time>2018-03-30T08:55:24Z</time>
      </trkpt>
      <trkpt lat="38.4315020" lon="-0.6432180">
        <ele>302.2</ele>
        <time>2018-03-30T08:55:25Z</time>
      </trkpt>
      <trkpt lat="38.4314770" lon="-0.6432250">
        <ele>302.2</ele>
        <time>2018-03-30T08:55:26Z</time>
      </trkpt>
      <trkpt lat="38.4314510" lon="-0.6432340">
        <ele>302.2</ele>
        <time>2018-03-30T08:55:27Z</time>
      </trkpt>
      <trkpt lat="38.4314220" lon="-0.6432430">
        <ele>302.1</ele>
        <time>2018-03-30T08:55:28Z</time>
      </trkpt>
      <trkpt lat="38.4313900" lon="-0.6432530">
        <ele>302.1</ele>
        <time>2018-03-30T08:55:29Z</time>
      </trkpt>
      <trkpt lat="38.4313520" lon="-0.6432660">
        <ele>302.1</ele>
        <time>2018-03-30T08:55:30Z</time>
      </trkpt>
      <trkpt lat="38.4313130" lon="-0.6432790">
        <ele>302.1</ele>
        <time>2018-03-30T08:55:31Z</time>
      </trkpt>
      <trkpt lat="38.4312750" lon="-0.6432910">
        <ele>302.0</ele>
        <time>2018-03-30T08:55:32Z</time>
      </trkpt>
      <trkpt lat="38.4312340" lon="-0.6433030">
        <ele>302.0</ele>
        <time>2018-03-30T08:55:33Z</time>
      </trkpt>
      <trkpt lat="38.4311910" lon="-0.6433160">
        <ele>302.0</ele>
        <time>2018-03-30T08:55:34Z</time>
      </trkpt>
      <trkpt lat="38.4311470" lon="-0.6433350">
        <ele>301.9</ele>
        <time>2018-03-30T08:55:35Z</time>
      </trkpt>
      <trkpt lat="38.4311060" lon="-0.6433520">
        <ele>301.9</ele>
        <time>2018-03-30T08:55:36Z</time>
      </trkpt>
      <trkpt lat="38.4310640" lon="-0.6433690">
        <ele>301.9</ele>
        <time>2018-03-30T08:55:37Z</time>
      </trkpt>
      <trkpt lat="38.4310220" lon="-0.6433900">
        <ele>301.9</ele>
        <time>2018-03-30T08:55:38Z</time>
      </trkpt>
      <trkpt lat="38.4309780" lon="-0.6434140">
        <ele>301.8</ele>
        <time>2018-03-30T08:55:39Z</time>
      </trkpt>
      <trkpt lat="38.4309330" lon="-0.6434440">
        <ele>301.8</ele>
        <time>2018-03-30T08:55:40Z</time>
      </trkpt>
      <trkpt lat="38.4308890" lon="-0.6434800">
        <ele>301.8</ele>
        <time>2018-03-30T08:55:41Z</time>
      </trkpt>
      <trkpt lat="38.4308460" lon="-0.6435170">
        <ele>301.8</ele>
        <time>2018-03-30T08:55:42Z</time>
      </trkpt>
      <trkpt lat="38.4308050" lon="-0.6435530">
        <ele>301.7</ele>
        <time>2018-03-30T08:55:43Z</time>
      </trkpt>
      <trkpt lat="38.4307620" lon="-0.6435920">
        <ele>301.7</ele>
        <time>2018-03-30T08:55:44Z</time>
      </trkpt>
      <trkpt lat="38.4307210" lon="-0.6436320">
        <ele>301.7</ele>
        <time>2018-03-30T08:55:45Z</time>
      </trkpt>
      <trkpt lat="38.4306800" lon="-0.6436700">
        <ele>301.7</ele>
        <time>2018-03-30T08:55:46Z</time>
      </trkpt>
      <trkpt lat="38.4306370" lon="-0.6437100">
        <ele>301.7</ele>
        <time>2018-03-30T08:55:47Z</time>
      </trkpt>
      <trkpt lat="38.4305940" lon="-0.6437490">
        <ele>301.6</ele>
        <time>2018-03-30T08:55:48Z</time>
      </trkpt>
      <trkpt lat="38.4305480" lon="-0.6437890">
        <ele>301.6</ele>
        <time>2018-03-30T08:55:49Z</time>
      </trkpt>
      <trkpt lat="38.4305060" lon="-0.6438290">
        <ele>301.6</ele>
        <time>2018-03-30T08:55:50Z</time>
      </trkpt>
      <trkpt lat="38.4304630" lon="-0.6438710">
        <ele>301.6</ele>
        <time>2018-03-30T08:55:51Z</time>
      </trkpt>
      <trkpt lat="38.4304200" lon="-0.6439160">
        <ele>301.6</ele>
        <time>2018-03-30T08:55:52Z</time>
      </trkpt>
      <trkpt lat="38.4303780" lon="-0.6439600">
        <ele>301.6</ele>
        <time>2018-03-30T08:55:53Z</time>
      </trkpt>
      <trkpt lat="38.4303360" lon="-0.6440040">
        <ele>301.6</ele>
        <time>2018-03-30T08:55:54Z</time>
      </trkpt>
      <trkpt lat="38.4302910" lon="-0.6440460">
        <ele>301.5</ele>
        <time>2018-03-30T08:55:55Z</time>
      </trkpt>
      <trkpt lat="38.4302460" lon="-0.6440890">
        <ele>301.5</ele>
        <time>2018-03-30T08:55:56Z</time>
      </trkpt>
      <trkpt lat="38.4302000" lon="-0.6441290">
        <ele>301.5</ele>
        <time>2018-03-30T08:55:57Z</time>
      </trkpt>
      <trkpt lat="38.4301530" lon="-0.6441680">
        <ele>301.5</ele>
        <time>2018-03-30T08:55:58Z</time>
      </trkpt>
      <trkpt lat="38.4301030" lon="-0.6442060">
        <ele>301.4</ele>
        <time>2018-03-30T08:55:59Z</time>
      </trkpt>
      <trkpt lat="38.4300540" lon="-0.6442440">
        <ele>301.4</ele>
        <time>2018-03-30T08:56:00Z</time>
      </trkpt>
      <trkpt lat="38.4300060" lon="-0.6442790">
        <ele>301.3</ele>
        <time>2018-03-30T08:56:01Z</time>
      </trkpt>
      <trkpt lat="38.4299560" lon="-0.6443150">
        <ele>301.2</ele>
        <time>2018-03-30T08:56:02Z</time>
      </trkpt>
      <trkpt lat="38.4299080" lon="-0.6443530">
        <ele>301.1</ele>
        <time>2018-03-30T08:56:03Z</time>
      </trkpt>
      <trkpt lat="38.4298590" lon="-0.6443900">
        <ele>301.1</ele>
        <time>2018-03-30T08:56:04Z</time>
      </trkpt>
      <trkpt lat="38.4298120" lon="-0.6444290">
        <ele>301.0</ele>
        <time>2018-03-30T08:56:05Z</time>
      </trkpt>
      <trkpt lat="38.4297640" lon="-0.6444710">
        <ele>300.9</ele>
        <time>2018-03-30T08:56:06Z</time>
      </trkpt>
      <trkpt lat="38.4297170" lon="-0.6445130">
        <ele>300.8</ele>
        <time>2018-03-30T08:56:07Z</time>
      </trkpt>
      <trkpt lat="38.4296680" lon="-0.6445540">
        <ele>300.7</ele>
        <time>2018-03-30T08:56:08Z</time>
      </trkpt>
      <trkpt lat="38.4296190" lon="-0.6445970">
        <ele>300.6</ele>
        <time>2018-03-30T08:56:09Z</time>
      </trkpt>
      <trkpt lat="38.4295670" lon="-0.6446410">
        <ele>300.5</ele>
        <time>2018-03-30T08:56:10Z</time>
      </trkpt>
      <trkpt lat="38.4295150" lon="-0.6446840">
        <ele>300.4</ele>
        <time>2018-03-30T08:56:11Z</time>
      </trkpt>
      <trkpt lat="38.4294630" lon="-0.6447290">
        <ele>300.3</ele>
        <time>2018-03-30T08:56:12Z</time>
      </trkpt>
      <trkpt lat="38.4294120" lon="-0.6447740">
        <ele>300.2</ele>
        <time>2018-03-30T08:56:13Z</time>
      </trkpt>
      <trkpt lat="38.4293590" lon="-0.6448210">
        <ele>300.0</ele>
        <time>2018-03-30T08:56:14Z</time>
      </trkpt>
      <trkpt lat="38.4293070" lon="-0.6448670">
        <ele>299.9</ele>
        <time>2018-03-30T08:56:15Z</time>
      </trkpt>
      <trkpt lat="38.4292490" lon="-0.6449120">
        <ele>299.7</ele>
        <time>2018-03-30T08:56:16Z</time>
      </trkpt>
      <trkpt lat="38.4291920" lon="-0.6449560">
        <ele>299.6</ele>
        <time>2018-03-30T08:56:17Z</time>
      </trkpt>
      <trkpt lat="38.4291340" lon="-0.6450000">
        <ele>299.2</ele>
        <time>2018-03-30T08:56:18Z</time>
      </trkpt>
      <trkpt lat="38.4290750" lon="-0.6450380">
        <ele>299.0</ele>
        <time>2018-03-30T08:56:19Z</time>
      </trkpt>
      <trkpt lat="38.4290150" lon="-0.6450700">
        <ele>298.7</ele>
        <time>2018-03-30T08:56:20Z</time>
      </trkpt>
      <trkpt lat="38.4289470" lon="-0.6450930">
        <ele>298.4</ele>
        <time>2018-03-30T08:56:21Z</time>
      </trkpt>
      <trkpt lat="38.4288800" lon="-0.6451110">
        <ele>298.1</ele>
        <time>2018-03-30T08:56:22Z</time>
      </trkpt>
      <trkpt lat="38.4288100" lon="-0.6451170">
        <ele>297.9</ele>
        <time>2018-03-30T08:56:23Z</time>
      </trkpt>
      <trkpt lat="38.4287390" lon="-0.6451190">
        <ele>297.6</ele>
        <time>2018-03-30T08:56:24Z</time>
      </trkpt>
      <trkpt lat="38.4286710" lon="-0.6451200">
        <ele>297.3</ele>
        <time>2018-03-30T08:56:25Z</time>
      </trkpt>
      <trkpt lat="38.4286010" lon="-0.6451200">
        <ele>297.0</ele>
        <time>2018-03-30T08:56:26Z</time>
      </trkpt>
      <trkpt lat="38.4285290" lon="-0.6451180">
        <ele>296.8</ele>
        <time>2018-03-30T08:56:27Z</time>
      </trkpt>
      <trkpt lat="38.4284540" lon="-0.6451230">
        <ele>296.7</ele>
        <time>2018-03-30T08:56:28Z</time>
      </trkpt>
      <trkpt lat="38.4283800" lon="-0.6451350">
        <ele>296.5</ele>
        <time>2018-03-30T08:56:29Z</time>
      </trkpt>
      <trkpt lat="38.4283050" lon="-0.6451520">
        <ele>296.4</ele>
        <time>2018-03-30T08:56:30Z</time>
      </trkpt>
      <trkpt lat="38.4282280" lon="-0.6451780">
        <ele>296.2</ele>
        <time>2018-03-30T08:56:31Z</time>
      </trkpt>
      <trkpt lat="38.4281590" lon="-0.6452220">
        <ele>296.0</ele>
        <time>2018-03-30T08:56:32Z</time>
      </trkpt>
      <trkpt lat="38.4280870" lon="-0.6452600">
        <ele>295.8</ele>
        <time>2018-03-30T08:56:33Z</time>
      </trkpt>
      <trkpt lat="38.4280120" lon="-0.6452970">
        <ele>295.6</ele>
        <time>2018-03-30T08:56:34Z</time>
      </trkpt>
      <trkpt lat="38.4279390" lon="-0.6453350">
        <ele>295.4</ele>
        <time>2018-03-30T08:56:35Z</time>
      </trkpt>
      <trkpt lat="38.4278660" lon="-0.6453740">
        <ele>295.2</ele>
        <time>2018-03-30T08:56:36Z</time>
      </trkpt>
      <trkpt lat="38.4277940" lon="-0.6454110">
        <ele>295.0</ele>
        <time>2018-03-30T08:56:37Z</time>
      </trkpt>
      <trkpt lat="38.4277210" lon="-0.6454480">
        <ele>294.9</ele>
        <time>2018-03-30T08:56:38Z</time>
      </trkpt>
      <trkpt lat="38.4276470" lon="-0.6454860">
        <ele>294.7</ele>
        <time>2018-03-30T08:56:39Z</time>
      </trkpt>
      <trkpt lat="38.4275770" lon="-0.6455250">
        <ele>294.5</ele>
        <time>2018-03-30T08:56:40Z</time>
      </trkpt>
      <trkpt lat="38.4275060" lon="-0.6455610">
        <ele>294.2</ele>
        <time>2018-03-30T08:56:41Z</time>
      </trkpt>
      <trkpt lat="38.4274330" lon="-0.6455960">
        <ele>294.1</ele>
        <time>2018-03-30T08:56:42Z</time>
      </trkpt>
      <trkpt lat="38.4273600" lon="-0.6456290">
        <ele>293.9</ele>
        <time>2018-03-30T08:56:43Z</time>
      </trkpt>
      <trkpt lat="38.4272830" lon="-0.6456530">
        <ele>293.8</ele>
        <time>2018-03-30T08:56:44Z</time>
      </trkpt>
      <trkpt lat="38.4272060" lon="-0.6456770">
        <ele>293.6</ele>
        <time>2018-03-30T08:56:45Z</time>
      </trkpt>
      <trkpt lat="38.4271290" lon="-0.6456980">
        <ele>293.4</ele>
        <time>2018-03-30T08:56:46Z</time>
      </trkpt>
      <trkpt lat="38.4270510" lon="-0.6457150">
        <ele>293.2</ele>
        <time>2018-03-30T08:56:47Z</time>
      </trkpt>
      <trkpt lat="38.4269740" lon="-0.6457320">
        <ele>293.0</ele>
        <time>2018-03-30T08:56:48Z</time>
      </trkpt>
      <trkpt lat="38.4268960" lon="-0.6457490">
        <ele>292.9</ele>
        <time>2018-03-30T08:56:49Z</time>
      </trkpt>
      <trkpt lat="38.4268170" lon="-0.6457690">
        <ele>292.8</ele>
        <time>2018-03-30T08:56:50Z</time>
      </trkpt>
      <trkpt lat="38.4267380" lon="-0.6457900">
        <ele>292.6</ele>
        <time>2018-03-30T08:56:51Z</time>
      </trkpt>
      <trkpt lat="38.4266590" lon="-0.6458180">
        <ele>292.5</ele>
        <time>2018-03-30T08:56:52Z</time>
      </trkpt>
      <trkpt lat="38.4265840" lon="-0.6458480">
        <ele>292.2</ele>
        <time>2018-03-30T08:56:53Z</time>
      </trkpt>
      <trkpt lat="38.4265090" lon="-0.6458830">
        <ele>292.1</ele>
        <time>2018-03-30T08:56:54Z</time>
      </trkpt>
      <trkpt lat="38.4264340" lon="-0.6459180">
        <ele>291.9</ele>
        <time>2018-03-30T08:56:55Z</time>
      </trkpt>
      <trkpt lat="38.4263570" lon="-0.6459560">
        <ele>291.7</ele>
        <time>2018-03-30T08:56:56Z</time>
      </trkpt>
      <trkpt lat="38.4262840" lon="-0.6459970">
        <ele>291.6</ele>
        <time>2018-03-30T08:56:57Z</time>
      </trkpt>
      <trkpt lat="38.4262120" lon="-0.6460410">
        <ele>291.4</ele>
        <time>2018-03-30T08:56:58Z</time>
      </trkpt>
      <trkpt lat="38.4261440" lon="-0.6460870">
        <ele>291.3</ele>
        <time>2018-03-30T08:56:59Z</time>
      </trkpt>
      <trkpt lat="38.4260750" lon="-0.6461350">
        <ele>291.2</ele>
        <time>2018-03-30T08:57:00Z</time>
      </trkpt>
      <trkpt lat="38.4260090" lon="-0.6461830">
        <ele>291.2</ele>
        <time>2018-03-30T08:57:01Z</time>
      </trkpt>
      <trkpt lat="38.4259440" lon="-0.6462330">
        <ele>291.1</ele>
        <time>2018-03-30T08:57:02Z</time>
      </trkpt>
      <trkpt lat="38.4258810" lon="-0.6462830">
        <ele>291.0</ele>
        <time>2018-03-30T08:57:03Z</time>
      </trkpt>
      <trkpt lat="38.4258180" lon="-0.6463330">
        <ele>290.8</ele>
        <time>2018-03-30T08:57:04Z</time>
      </trkpt>
      <trkpt lat="38.4257580" lon="-0.6463820">
        <ele>290.7</ele>
        <time>2018-03-30T08:57:05Z</time>
      </trkpt>
      <trkpt lat="38.4256990" lon="-0.6464310">
        <ele>290.5</ele>
        <time>2018-03-30T08:57:06Z</time>
      </trkpt>
      <trkpt lat="38.4256420" lon="-0.6464810">
        <ele>290.4</ele>
        <time>2018-03-30T08:57:07Z</time>
      </trkpt>
      <trkpt lat="38.4255850" lon="-0.6465310">
        <ele>290.3</ele>
        <time>2018-03-30T08:57:08Z</time>
      </trkpt>
      <trkpt lat="38.4255270" lon="-0.6465790">
        <ele>290.1</ele>
        <time>2018-03-30T08:57:09Z</time>
      </trkpt>
      <trkpt lat="38.4254690" lon="-0.6466250">
        <ele>290.0</ele>
        <time>2018-03-30T08:57:10Z</time>
      </trkpt>
      <trkpt lat="38.4254110" lon="-0.6466730">
        <ele>289.9</ele>
        <time>2018-03-30T08:57:11Z</time>
      </trkpt>
      <trkpt lat="38.4253570" lon="-0.6467260">
        <ele>289.7</ele>
        <time>2018-03-30T08:57:12Z</time>
      </trkpt>
      <trkpt lat="38.4253010" lon="-0.6467760">
        <ele>289.6</ele>
        <time>2018-03-30T08:57:13Z</time>
      </trkpt>
      <trkpt lat="38.4252410" lon="-0.6468200">
        <ele>289.5</ele>
        <time>2018-03-30T08:57:14Z</time>
      </trkpt>
      <trkpt lat="38.4251790" lon="-0.6468630">
        <ele>289.4</ele>
        <time>2018-03-30T08:57:15Z</time>
      </trkpt>
      <trkpt lat="38.4251180" lon="-0.6469050">
        <ele>289.2</ele>
        <time>2018-03-30T08:57:16Z</time>
      </trkpt>
      <trkpt lat="38.4250570" lon="-0.6469480">
        <ele>289.1</ele>
        <time>2018-03-30T08:57:17Z</time>
      </trkpt>
      <trkpt lat="38.4249950" lon="-0.6469910">
        <ele>289.0</ele>
        <time>2018-03-30T08:57:18Z</time>
      </trkpt>
      <trkpt lat="38.4249330" lon="-0.6470330">
        <ele>288.9</ele>
        <time>2018-03-30T08:57:19Z</time>
      </trkpt>
      <trkpt lat="38.4248710" lon="-0.6470760">
        <ele>288.8</ele>
        <time>2018-03-30T08:57:20Z</time>
      </trkpt>
      <trkpt lat="38.4248110" lon="-0.6471170">
        <ele>288.6</ele>
        <time>2018-03-30T08:57:21Z</time>
      </trkpt>
      <trkpt lat="38.4247490" lon="-0.6471570">
        <ele>288.5</ele>
        <time>2018-03-30T08:57:22Z</time>
      </trkpt>
      <trkpt lat="38.4246880" lon="-0.6471980">
        <ele>288.3</ele>
        <time>2018-03-30T08:57:23Z</time>
      </trkpt>
      <trkpt lat="38.4246250" lon="-0.6472370">
        <ele>288.2</ele>
        <time>2018-03-30T08:57:24Z</time>
      </trkpt>
      <trkpt lat="38.4245640" lon="-0.6472770">
        <ele>288.1</ele>
        <time>2018-03-30T08:57:25Z</time>
      </trkpt>
      <trkpt lat="38.4245050" lon="-0.6473180">
        <ele>287.9</ele>
        <time>2018-03-30T08:57:26Z</time>
      </trkpt>
      <trkpt lat="38.4244450" lon="-0.6473590">
        <ele>287.8</ele>
        <time>2018-03-30T08:57:27Z</time>
      </trkpt>
      <trkpt lat="38.4243830" lon="-0.6474000">
        <ele>287.7</ele>
        <time>2018-03-30T08:57:28Z</time>
      </trkpt>
      <trkpt lat="38.4243210" lon="-0.6474420">
        <ele>287.5</ele>
        <time>2018-03-30T08:57:29Z</time>
      </trkpt>
      <trkpt lat="38.4242590" lon="-0.6474830">
        <ele>287.4</ele>
        <time>2018-03-30T08:57:30Z</time>
      </trkpt>
      <trkpt lat="38.4241960" lon="-0.6475240">
        <ele>287.3</ele>
        <time>2018-03-30T08:57:31Z</time>
      </trkpt>
      <trkpt lat="38.4241320" lon="-0.6475660">
        <ele>287.1</ele>
        <time>2018-03-30T08:57:32Z</time>
      </trkpt>
      <trkpt lat="38.4240710" lon="-0.6476080">
        <ele>286.9</ele>
        <time>2018-03-30T08:57:33Z</time>
      </trkpt>
      <trkpt lat="38.4240110" lon="-0.6476490">
        <ele>286.7</ele>
        <time>2018-03-30T08:57:34Z</time>
      </trkpt>
      <trkpt lat="38.4239500" lon="-0.6476910">
        <ele>286.6</ele>
        <time>2018-03-30T08:57:35Z</time>
      </trkpt>
      <trkpt lat="38.4238900" lon="-0.6477330">
        <ele>286.5</ele>
        <time>2018-03-30T08:57:36Z</time>
      </trkpt>
      <trkpt lat="38.4238300" lon="-0.6477750">
        <ele>286.3</ele>
        <time>2018-03-30T08:57:37Z</time>
      </trkpt>
      <trkpt lat="38.4237680" lon="-0.6478180">
        <ele>286.2</ele>
        <time>2018-03-30T08:57:38Z</time>
      </trkpt>
      <trkpt lat="38.4237080" lon="-0.6478630">
        <ele>286.1</ele>
        <time>2018-03-30T08:57:39Z</time>
      </trkpt>
      <trkpt lat="38.4236460" lon="-0.6479080">
        <ele>285.9</ele>
        <time>2018-03-30T08:57:40Z</time>
      </trkpt>
      <trkpt lat="38.4235860" lon="-0.6479540">
        <ele>285.8</ele>
        <time>2018-03-30T08:57:41Z</time>
      </trkpt>
      <trkpt lat="38.4235260" lon="-0.6480010">
        <ele>285.7</ele>
        <time>2018-03-30T08:57:42Z</time>
      </trkpt>
      <trkpt lat="38.4234670" lon="-0.6480500">
        <ele>285.6</ele>
        <time>2018-03-30T08:57:43Z</time>
      </trkpt>
      <trkpt lat="38.4234080" lon="-0.6480970">
        <ele>285.5</ele>
        <time>2018-03-30T08:57:44Z</time>
      </trkpt>
      <trkpt lat="38.4233500" lon="-0.6481440">
        <ele>285.4</ele>
        <time>2018-03-30T08:57:45Z</time>
      </trkpt>
      <trkpt lat="38.4232920" lon="-0.6481910">
        <ele>285.3</ele>
        <time>2018-03-30T08:57:46Z</time>
      </trkpt>
      <trkpt lat="38.4232350" lon="-0.6482380">
        <ele>285.2</ele>
        <time>2018-03-30T08:57:47Z</time>
      </trkpt>
      <trkpt lat="38.4231740" lon="-0.6482820">
        <ele>285.2</ele>
        <time>2018-03-30T08:57:48Z</time>
      </trkpt>
      <trkpt lat="38.4231110" lon="-0.6483250">
        <ele>285.1</ele>
        <time>2018-03-30T08:57:49Z</time>
      </trkpt>
      <trkpt lat="38.4230480" lon="-0.6483650">
        <ele>285.0</ele>
        <time>2018-03-30T08:57:50Z</time>
      </trkpt>
      <trkpt lat="38.4229850" lon="-0.6484050">
        <ele>284.9</ele>
        <time>2018-03-30T08:57:51Z</time>
      </trkpt>
      <trkpt lat="38.4229220" lon="-0.6484460">
        <ele>284.9</ele>
        <time>2018-03-30T08:57:52Z</time>
      </trkpt>
      <trkpt lat="38.4228590" lon="-0.6484860">
        <ele>284.8</ele>
        <time>2018-03-30T08:57:53Z</time>
      </trkpt>
      <trkpt lat="38.4227940" lon="-0.6485250">
        <ele>284.6</ele>
        <time>2018-03-30T08:57:54Z</time>
      </trkpt>
      <trkpt lat="38.4227300" lon="-0.6485640">
        <ele>284.5</ele>
        <time>2018-03-30T08:57:55Z</time>
      </trkpt>
      <trkpt lat="38.4226690" lon="-0.6486050">
        <ele>284.3</ele>
        <time>2018-03-30T08:57:56Z</time>
      </trkpt>
      <trkpt lat="38.4226090" lon="-0.6486470">
        <ele>284.2</ele>
        <time>2018-03-30T08:57:57Z</time>
      </trkpt>
      <trkpt lat="38.4225470" lon="-0.6486910">
        <ele>284.0</ele>
        <time>2018-03-30T08:57:58Z</time>
      </trkpt>
      <trkpt lat="38.4224850" lon="-0.6487370">
        <ele>283.9</ele>
        <time>2018-03-30T08:57:59Z</time>
      </trkpt>
      <trkpt lat="38.4224230" lon="-0.6487840">
        <ele>283.7</ele>
        <time>2018-03-30T08:58:00Z</time>
      </trkpt>
      <trkpt lat="38.4223620" lon="-0.6488300">
        <ele>283.6</ele>
        <time>2018-03-30T08:58:01Z</time>
      </trkpt>
      <trkpt lat="38.4223010" lon="-0.6488780">
        <ele>283.4</ele>
        <time>2018-03-30T08:58:02Z</time>
      </trkpt>
      <trkpt lat="38.4222410" lon="-0.6489260">
        <ele>283.3</ele>
        <time>2018-03-30T08:58:03Z</time>
      </trkpt>
      <trkpt lat="38.4221780" lon="-0.6489740">
        <ele>283.1</ele>
        <time>2018-03-30T08:58:04Z</time>
      </trkpt>
      <trkpt lat="38.4221150" lon="-0.6490210">
        <ele>282.9</ele>
        <time>2018-03-30T08:58:05Z</time>
      </trkpt>
      <trkpt lat="38.4220530" lon="-0.6490700">
        <ele>282.7</ele>
        <time>2018-03-30T08:58:06Z</time>
      </trkpt>
      <trkpt lat="38.4219910" lon="-0.6491180">
        <ele>282.6</ele>
        <time>2018-03-30T08:58:07Z</time>
      </trkpt>
      <trkpt lat="38.4219290" lon="-0.6491660">
        <ele>282.5</ele>
        <time>2018-03-30T08:58:08Z</time>
      </trkpt>
      <trkpt lat="38.4218670" lon="-0.6492130">
        <ele>282.4</ele>
        <time>2018-03-30T08:58:09Z</time>
      </trkpt>
      <trkpt lat="38.4218060" lon="-0.6492590">
        <ele>282.3</ele>
        <time>2018-03-30T08:58:10Z</time>
      </trkpt>
      <trkpt lat="38.4217450" lon="-0.6493050">
        <ele>282.2</ele>
        <time>2018-03-30T08:58:11Z</time>
      </trkpt>
      <trkpt lat="38.4216860" lon="-0.6493500">
        <ele>282.1</ele>
        <time>2018-03-30T08:58:12Z</time>
      </trkpt>
      <trkpt lat="38.4216240" lon="-0.6493950">
        <ele>282.0</ele>
        <time>2018-03-30T08:58:13Z</time>
      </trkpt>
      <trkpt lat="38.4215630" lon="-0.6494420">
        <ele>281.9</ele>
        <time>2018-03-30T08:58:14Z</time>
      </trkpt>
      <trkpt lat="38.4215020" lon="-0.6494920">
        <ele>281.8</ele>
        <time>2018-03-30T08:58:15Z</time>
      </trkpt>
      <trkpt lat="38.4214470" lon="-0.6495440">
        <ele>281.6</ele>
        <time>2018-03-30T08:58:16Z</time>
      </trkpt>
      <trkpt lat="38.4213940" lon="-0.6495990">
        <ele>281.5</ele>
        <time>2018-03-30T08:58:17Z</time>
      </trkpt>
      <trkpt lat="38.4213430" lon="-0.6496540">
        <ele>281.4</ele>
        <time>2018-03-30T08:58:18Z</time>
      </trkpt>
      <trkpt lat="38.4212930" lon="-0.6497100">
        <ele>281.3</ele>
        <time>2018-03-30T08:58:19Z</time>
      </trkpt>
      <trkpt lat="38.4212430" lon="-0.6497670">
        <ele>281.2</ele>
        <time>2018-03-30T08:58:20Z</time>
      </trkpt>
      <trkpt lat="38.4211930" lon="-0.6498230">
        <ele>281.1</ele>
        <time>2018-03-30T08:58:21Z</time>
      </trkpt>
      <trkpt lat="38.4211410" lon="-0.6498790">
        <ele>281.0</ele>
        <time>2018-03-30T08:58:22Z</time>
      </trkpt>
      <trkpt lat="38.4210870" lon="-0.6499330">
        <ele>280.8</ele>
        <time>2018-03-30T08:58:23Z</time>
      </trkpt>
      <trkpt lat="38.4210330" lon="-0.6499830">
        <ele>280.7</ele>
        <time>2018-03-30T08:58:24Z</time>
      </trkpt>
      <trkpt lat="38.4209760" lon="-0.6500260">
        <ele>280.6</ele>
        <time>2018-03-30T08:58:25Z</time>
      </trkpt>
      <trkpt lat="38.4209170" lon="-0.6500600">
        <ele>280.4</ele>
        <time>2018-03-30T08:58:26Z</time>
      </trkpt>
      <trkpt lat="38.4208540" lon="-0.6500880">
        <ele>280.3</ele>
        <time>2018-03-30T08:58:27Z</time>
      </trkpt>
      <trkpt lat="38.4207890" lon="-0.6501100">
        <ele>280.2</ele>
        <time>2018-03-30T08:58:28Z</time>
      </trkpt>
      <trkpt lat="38.4207250" lon="-0.6501320">
        <ele>280.1</ele>
        <time>2018-03-30T08:58:29Z</time>
      </trkpt>
      <trkpt lat="38.4206600" lon="-0.6501560">
        <ele>280.0</ele>
        <time>2018-03-30T08:58:30Z</time>
      </trkpt>
      <trkpt lat="38.4205960" lon="-0.6501820">
        <ele>280.0</ele>
        <time>2018-03-30T08:58:31Z</time>
      </trkpt>
      <trkpt lat="38.4205300" lon="-0.6502060">
        <ele>279.9</ele>
        <time>2018-03-30T08:58:32Z</time>
      </trkpt>
      <trkpt lat="38.4204670" lon="-0.6502300">
        <ele>279.8</ele>
        <time>2018-03-30T08:58:33Z</time>
      </trkpt>
      <trkpt lat="38.4204010" lon="-0.6502540">
        <ele>279.7</ele>
        <time>2018-03-30T08:58:34Z</time>
      </trkpt>
      <trkpt lat="38.4203360" lon="-0.6502810">
        <ele>279.6</ele>
        <time>2018-03-30T08:58:35Z</time>
      </trkpt>
      <trkpt lat="38.4202690" lon="-0.6503080">
        <ele>279.5</ele>
        <time>2018-03-30T08:58:36Z</time>
      </trkpt>
      <trkpt lat="38.4202020" lon="-0.6503380">
        <ele>279.4</ele>
        <time>2018-03-30T08:58:37Z</time>
      </trkpt>
      <trkpt lat="38.4201350" lon="-0.6503700">
        <ele>279.3</ele>
        <time>2018-03-30T08:58:38Z</time>
      </trkpt>
      <trkpt lat="38.4200700" lon="-0.6504060">
        <ele>279.2</ele>
        <time>2018-03-30T08:58:39Z</time>
      </trkpt>
      <trkpt lat="38.4200100" lon="-0.6504460">
        <ele>279.1</ele>
        <time>2018-03-30T08:58:40Z</time>
      </trkpt>
      <trkpt lat="38.4199480" lon="-0.6504880">
        <ele>278.8</ele>
        <time>2018-03-30T08:58:41Z</time>
      </trkpt>
      <trkpt lat="38.4198870" lon="-0.6505320">
        <ele>278.6</ele>
        <time>2018-03-30T08:58:42Z</time>
      </trkpt>
      <trkpt lat="38.4198270" lon="-0.6505790">
        <ele>278.4</ele>
        <time>2018-03-30T08:58:43Z</time>
      </trkpt>
      <trkpt lat="38.4197670" lon="-0.6506260">
        <ele>278.3</ele>
        <time>2018-03-30T08:58:44Z</time>
      </trkpt>
      <trkpt lat="38.4197110" lon="-0.6506750">
        <ele>278.1</ele>
        <time>2018-03-30T08:58:45Z</time>
      </trkpt>
      <trkpt lat="38.4196580" lon="-0.6507280">
        <ele>277.9</ele>
        <time>2018-03-30T08:58:46Z</time>
      </trkpt>
      <trkpt lat="38.4196060" lon="-0.6507810">
        <ele>277.8</ele>
        <time>2018-03-30T08:58:47Z</time>
      </trkpt>
      <trkpt lat="38.4195480" lon="-0.6508330">
        <ele>277.6</ele>
        <time>2018-03-30T08:58:48Z</time>
      </trkpt>
      <trkpt lat="38.4194930" lon="-0.6508850">
        <ele>277.4</ele>
        <time>2018-03-30T08:58:49Z</time>
      </trkpt>
      <trkpt lat="38.4194390" lon="-0.6509380">
        <ele>277.3</ele>
        <time>2018-03-30T08:58:50Z</time>
      </trkpt>
      <trkpt lat="38.4193860" lon="-0.6509900">
        <ele>277.1</ele>
        <time>2018-03-30T08:58:51Z</time>
      </trkpt>
      <trkpt lat="38.4193310" lon="-0.6510420">
        <ele>276.9</ele>
        <time>2018-03-30T08:58:52Z</time>
      </trkpt>
      <trkpt lat="38.4192760" lon="-0.6510930">
        <ele>276.7</ele>
        <time>2018-03-30T08:58:53Z</time>
      </trkpt>
      <trkpt lat="38.4192210" lon="-0.6511440">
        <ele>276.6</ele>
        <time>2018-03-30T08:58:54Z</time>
      </trkpt>
      <trkpt lat="38.4191660" lon="-0.6511950">
        <ele>276.4</ele>
        <time>2018-03-30T08:58:55Z</time>
      </trkpt>
      <trkpt lat="38.4191110" lon="-0.6512430">
        <ele>276.2</ele>
        <time>2018-03-30T08:58:56Z</time>
      </trkpt>
      <trkpt lat="38.4190560" lon="-0.6512920">
        <ele>276.1</ele>
        <time>2018-03-30T08:58:57Z</time>
      </trkpt>
      <trkpt lat="38.4189990" lon="-0.6513400">
        <ele>275.9</ele>
        <time>2018-03-30T08:58:58Z</time>
      </trkpt>
      <trkpt lat="38.4189420" lon="-0.6513870">
        <ele>275.7</ele>
        <time>2018-03-30T08:58:59Z</time>
      </trkpt>
      <trkpt lat="38.4188840" lon="-0.6514320">
        <ele>275.5</ele>
        <time>2018-03-30T08:59:00Z</time>
      </trkpt>
      <trkpt lat="38.4188240" lon="-0.6514750">
        <ele>275.3</ele>
        <time>2018-03-30T08:59:01Z</time>
      </trkpt>
      <trkpt lat="38.4187630" lon="-0.6515140">
        <ele>275.1</ele>
        <time>2018-03-30T08:59:02Z</time>
      </trkpt>
      <trkpt lat="38.4187020" lon="-0.6515510">
        <ele>274.9</ele>
        <time>2018-03-30T08:59:03Z</time>
      </trkpt>
      <trkpt lat="38.4186390" lon="-0.6515890">
        <ele>274.8</ele>
        <time>2018-03-30T08:59:04Z</time>
      </trkpt>
      <trkpt lat="38.4185750" lon="-0.6516260">
        <ele>274.6</ele>
        <time>2018-03-30T08:59:05Z</time>
      </trkpt>
      <trkpt lat="38.4185100" lon="-0.6516620">
        <ele>274.4</ele>
        <time>2018-03-30T08:59:06Z</time>
      </trkpt>
      <trkpt lat="38.4184430" lon="-0.6517020">
        <ele>274.3</ele>
        <time>2018-03-30T08:59:07Z</time>
      </trkpt>
      <trkpt lat="38.4183740" lon="-0.6517420">
        <ele>274.1</ele>
        <time>2018-03-30T08:59:08Z</time>
      </trkpt>
      <trkpt lat="38.4183060" lon="-0.6517840">
        <ele>273.9</ele>
        <time>2018-03-30T08:59:09Z</time>
      </trkpt>
      <trkpt lat="38.4182400" lon="-0.6518250">
        <ele>273.8</ele>
        <time>2018-03-30T08:59:10Z</time>
      </trkpt>
      <trkpt lat="38.4181740" lon="-0.6518670">
        <ele>273.6</ele>
        <time>2018-03-30T08:59:11Z</time>
      </trkpt>
      <trkpt lat="38.4181070" lon="-0.6519100">
        <ele>273.5</ele>
        <time>2018-03-30T08:59:12Z</time>
      </trkpt>
      <trkpt lat="38.4180420" lon="-0.6519540">
        <ele>273.4</ele>
        <time>2018-03-30T08:59:13Z</time>
      </trkpt>
      <trkpt lat="38.4179780" lon="-0.6519970">
        <ele>273.3</ele>
        <time>2018-03-30T08:59:14Z</time>
      </trkpt>
      <trkpt lat="38.4179150" lon="-0.6520410">
        <ele>273.2</ele>
        <time>2018-03-30T08:59:15Z</time>
      </trkpt>
      <trkpt lat="38.4178550" lon="-0.6520860">
        <ele>273.1</ele>
        <time>2018-03-30T08:59:16Z</time>
      </trkpt>
      <trkpt lat="38.4177940" lon="-0.6521330">
        <ele>273.0</ele>
        <time>2018-03-30T08:59:17Z</time>
      </trkpt>
      <trkpt lat="38.4177350" lon="-0.6521810">
        <ele>272.8</ele>
        <time>2018-03-30T08:59:18Z</time>
      </trkpt>
      <trkpt lat="38.4176760" lon="-0.6522300">
        <ele>272.7</ele>
        <time>2018-03-30T08:59:19Z</time>
      </trkpt>
      <trkpt lat="38.4176210" lon="-0.6522860">
        <ele>272.6</ele>
        <time>2018-03-30T08:59:20Z</time>
      </trkpt>
      <trkpt lat="38.4175760" lon="-0.6523530">
        <ele>272.6</ele>
        <time>2018-03-30T08:59:21Z</time>
      </trkpt>
      <trkpt lat="38.4175320" lon="-0.6524180">
        <ele>272.5</ele>
        <time>2018-03-30T08:59:22Z</time>
      </trkpt>
      <trkpt lat="38.4174880" lon="-0.6524840">
        <ele>272.5</ele>
        <time>2018-03-30T08:59:23Z</time>
      </trkpt>
      <trkpt lat="38.4174450" lon="-0.6525490">
        <ele>272.4</ele>
        <time>2018-03-30T08:59:24Z</time>
      </trkpt>
      <trkpt lat="38.4174090" lon="-0.6526210">
        <ele>272.3</ele>
        <time>2018-03-30T08:59:25Z</time>
      </trkpt>
      <trkpt lat="38.4173690" lon="-0.6526920">
        <ele>272.3</ele>
        <time>2018-03-30T08:59:26Z</time>
      </trkpt>
      <trkpt lat="38.4173260" lon="-0.6527620">
        <ele>272.2</ele>
        <time>2018-03-30T08:59:27Z</time>
      </trkpt>
      <trkpt lat="38.4172830" lon="-0.6528310">
        <ele>272.1</ele>
        <time>2018-03-30T08:59:28Z</time>
      </trkpt>
      <trkpt lat="38.4172400" lon="-0.6528960">
        <ele>271.9</ele>
        <time>2018-03-30T08:59:29Z</time>
      </trkpt>
      <trkpt lat="38.4171960" lon="-0.6529640">
        <ele>271.8</ele>
        <time>2018-03-30T08:59:30Z</time>
      </trkpt>
      <trkpt lat="38.4171540" lon="-0.6530320">
        <ele>271.7</ele>
        <time>2018-03-30T08:59:31Z</time>
      </trkpt>
      <trkpt lat="38.4171110" lon="-0.6530980">
        <ele>271.6</ele>
        <time>2018-03-30T08:59:32Z</time>
      </trkpt>
      <trkpt lat="38.4170710" lon="-0.6531660">
        <ele>271.5</ele>
        <time>2018-03-30T08:59:33Z</time>
      </trkpt>
      <trkpt lat="38.4170290" lon="-0.6532320">
        <ele>271.4</ele>
        <time>2018-03-30T08:59:34Z</time>
      </trkpt>
      <trkpt lat="38.4169870" lon="-0.6532970">
        <ele>271.3</ele>
        <time>2018-03-30T08:59:35Z</time>
      </trkpt>
      <trkpt lat="38.4169470" lon="-0.6533630">
        <ele>271.2</ele>
        <time>2018-03-30T08:59:36Z</time>
      </trkpt>
      <trkpt lat="38.4169050" lon="-0.6534290">
        <ele>271.1</ele>
        <time>2018-03-30T08:59:37Z</time>
      </trkpt>
      <trkpt lat="38.4168650" lon="-0.6534950">
        <ele>271.0</ele>
        <time>2018-03-30T08:59:38Z</time>
      </trkpt>
      <trkpt lat="38.4168230" lon="-0.6535600">
        <ele>270.8</ele>
        <time>2018-03-30T08:59:39Z</time>
      </trkpt>
      <trkpt lat="38.4167810" lon="-0.6536250">
        <ele>270.7</ele>
        <time>2018-03-30T08:59:40Z</time>
      </trkpt>
      <trkpt lat="38.4167390" lon="-0.6536910">
        <ele>270.6</ele>
        <time>2018-03-30T08:59:41Z</time>
      </trkpt>
      <trkpt lat="38.4167020" lon="-0.6537580">
        <ele>270.5</ele>
        <time>2018-03-30T08:59:42Z</time>
      </trkpt>
      <trkpt lat="38.4166660" lon="-0.6538270">
        <ele>270.3</ele>
        <time>2018-03-30T08:59:43Z</time>
      </trkpt>
      <trkpt lat="38.4166300" lon="-0.6538960">
        <ele>270.0</ele>
        <time>2018-03-30T08:59:44Z</time>
      </trkpt>
      <trkpt lat="38.4165900" lon="-0.6539570">
        <ele>269.8</ele>
        <time>2018-03-30T08:59:45Z</time>
      </trkpt>
      <trkpt lat="38.4165440" lon="-0.6540060">
        <ele>269.7</ele>
        <time>2018-03-30T08:59:46Z</time>
      </trkpt>
      <trkpt lat="38.4164960" lon="-0.6540390">
        <ele>269.5</ele>
        <time>2018-03-30T08:59:47Z</time>
      </trkpt>
      <trkpt lat="38.4164400" lon="-0.6540640">
        <ele>269.3</ele>
        <time>2018-03-30T08:59:48Z</time>
      </trkpt>
      <trkpt lat="38.4163760" lon="-0.6540890">
        <ele>269.0</ele>
        <time>2018-03-30T08:59:49Z</time>
      </trkpt>
      <trkpt lat="38.4163040" lon="-0.6541200">
        <ele>268.7</ele>
        <time>2018-03-30T08:59:50Z</time>
      </trkpt>
      <trkpt lat="38.4162380" lon="-0.6541510">
        <ele>268.5</ele>
        <time>2018-03-30T08:59:51Z</time>
      </trkpt>
      <trkpt lat="38.4161730" lon="-0.6541910">
        <ele>268.3</ele>
        <time>2018-03-30T08:59:52Z</time>
      </trkpt>
      <trkpt lat="38.4161150" lon="-0.6542370">
        <ele>268.2</ele>
        <time>2018-03-30T08:59:53Z</time>
      </trkpt>
      <trkpt lat="38.4160610" lon="-0.6542910">
        <ele>268.1</ele>
        <time>2018-03-30T08:59:54Z</time>
      </trkpt>
      <trkpt lat="38.4160060" lon="-0.6543460">
        <ele>268.0</ele>
        <time>2018-03-30T08:59:55Z</time>
      </trkpt>
      <trkpt lat="38.4159520" lon="-0.6544030">
        <ele>267.8</ele>
        <time>2018-03-30T08:59:56Z</time>
      </trkpt>
      <trkpt lat="38.4158980" lon="-0.6544550">
        <ele>267.7</ele>
        <time>2018-03-30T08:59:57Z</time>
      </trkpt>
      <trkpt lat="38.4158400" lon="-0.6545050">
        <ele>267.5</ele>
        <time>2018-03-30T08:59:58Z</time>
      </trkpt>
      <trkpt lat="38.4157830" lon="-0.6545510">
        <ele>267.4</ele>
        <time>2018-03-30T08:59:59Z</time>
      </trkpt>
      <trkpt lat="38.4157260" lon="-0.6545980">
        <ele>267.3</ele>
        <time>2018-03-30T09:00:00Z</time>
      </trkpt>
      <trkpt lat="38.4156670" lon="-0.6546440">
        <ele>267.2</ele>
        <time>2018-03-30T09:00:01Z</time>
      </trkpt>
      <trkpt lat="38.4156050" lon="-0.6546880">
        <ele>267.1</ele>
        <time>2018-03-30T09:00:02Z</time>
      </trkpt>
      <trkpt lat="38.4155430" lon="-0.6547320">
        <ele>267.0</ele>
        <time>2018-03-30T09:00:03Z</time>
      </trkpt>
      <trkpt lat="38.4154820" lon="-0.6547760">
        <ele>266.9</ele>
        <time>2018-03-30T09:00:04Z</time>
      </trkpt>
      <trkpt lat="38.4154200" lon="-0.6548190">
        <ele>266.7</ele>
        <time>2018-03-30T09:00:05Z</time>
      </trkpt>
      <trkpt lat="38.4153600" lon="-0.6548620">
        <ele>266.6</ele>
        <time>2018-03-30T09:00:06Z</time>
      </trkpt>
      <trkpt lat="38.4152970" lon="-0.6549050">
        <ele>266.5</ele>
        <time>2018-03-30T09:00:07Z</time>
      </trkpt>
      <trkpt lat="38.4152350" lon="-0.6549480">
        <ele>266.4</ele>
        <time>2018-03-30T09:00:08Z</time>
      </trkpt>
      <trkpt lat="38.4151710" lon="-0.6549910">
        <ele>266.3</ele>
        <time>2018-03-30T09:00:09Z</time>
      </trkpt>
      <trkpt lat="38.4151070" lon="-0.6550340">
        <ele>266.2</ele>
        <time>2018-03-30T09:00:10Z</time>
      </trkpt>
      <trkpt lat="38.4150440" lon="-0.6550770">
        <ele>266.1</ele>
        <time>2018-03-30T09:00:11Z</time>
      </trkpt>
      <trkpt lat="38.4149800" lon="-0.6551210">
        <ele>266.1</ele>
        <time>2018-03-30T09:00:12Z</time>
      </trkpt>
      <trkpt lat="38.4149180" lon="-0.6551680">
        <ele>266.0</ele>
        <time>2018-03-30T09:00:13Z</time>
      </trkpt>
      <trkpt lat="38.4148560" lon="-0.6552120">
        <ele>265.9</ele>
        <time>2018-03-30T09:00:14Z</time>
      </trkpt>
      <trkpt lat="38.4147940" lon="-0.6552560">
        <ele>265.7</ele>
        <time>2018-03-30T09:00:15Z</time>
      </trkpt>
      <trkpt lat="38.4147300" lon="-0.6553000">
        <ele>265.6</ele>
        <time>2018-03-30T09:00:16Z</time>
      </trkpt>
      <trkpt lat="38.4146670" lon="-0.6553470">
        <ele>265.5</ele>
        <time>2018-03-30T09:00:17Z</time>
      </trkpt>
      <trkpt lat="38.4146040" lon="-0.6553980">
        <ele>265.4</ele>
        <time>2018-03-30T09:00:18Z</time>
      </trkpt>
      <trkpt lat="38.4145460" lon="-0.6554560">
        <ele>265.3</ele>
        <time>2018-03-30T09:00:19Z</time>
      </trkpt>
      <trkpt lat="38.4144910" lon="-0.6555190">
        <ele>265.1</ele>
        <time>2018-03-30T09:00:20Z</time>
      </trkpt>
      <trkpt lat="38.4144390" lon="-0.6555860">
        <ele>265.0</ele>
        <time>2018-03-30T09:00:21Z</time>
      </trkpt>
      <trkpt lat="38.4143880" lon="-0.6556540">
        <ele>264.9</ele>
        <time>2018-03-30T09:00:22Z</time>
      </trkpt>
      <trkpt lat="38.4143440" lon="-0.6557260">
        <ele>264.8</ele>
        <time>2018-03-30T09:00:23Z</time>
      </trkpt>
      <trkpt lat="38.4142990" lon="-0.6557990">
        <ele>264.7</ele>
        <time>2018-03-30T09:00:24Z</time>
      </trkpt>
      <trkpt lat="38.4142550" lon="-0.6558720">
        <ele>264.7</ele>
        <time>2018-03-30T09:00:25Z</time>
      </trkpt>
      <trkpt lat="38.4142130" lon="-0.6559460">
        <ele>264.6</ele>
        <time>2018-03-30T09:00:26Z</time>
      </trkpt>
      <trkpt lat="38.4141730" lon="-0.6560210">
        <ele>264.5</ele>
        <time>2018-03-30T09:00:27Z</time>
      </trkpt>
      <trkpt lat="38.4141320" lon="-0.6560960">
        <ele>264.4</ele>
        <time>2018-03-30T09:00:28Z</time>
      </trkpt>
      <trkpt lat="38.4140910" lon="-0.6561710">
        <ele>264.4</ele>
        <time>2018-03-30T09:00:29Z</time>
      </trkpt>
      <trkpt lat="38.4140510" lon="-0.6562460">
        <ele>264.3</ele>
        <time>2018-03-30T09:00:30Z</time>
      </trkpt>
      <trkpt lat="38.4140100" lon="-0.6563190">
        <ele>264.2</ele>
        <time>2018-03-30T09:00:31Z</time>
      </trkpt>
      <trkpt lat="38.4139700" lon="-0.6563920">
        <ele>264.1</ele>
        <time>2018-03-30T09:00:32Z</time>
      </trkpt>
      <trkpt lat="38.4139270" lon="-0.6564610">
        <ele>264.1</ele>
        <time>2018-03-30T09:00:33Z</time>
      </trkpt>
      <trkpt lat="38.4138820" lon="-0.6565280">
        <ele>264.0</ele>
        <time>2018-03-30T09:00:34Z</time>
      </trkpt>
      <trkpt lat="38.4138360" lon="-0.6565930">
        <ele>263.9</ele>
        <time>2018-03-30T09:00:35Z</time>
      </trkpt>
      <trkpt lat="38.4137880" lon="-0.6566570">
        <ele>263.8</ele>
        <time>2018-03-30T09:00:36Z</time>
      </trkpt>
      <trkpt lat="38.4137410" lon="-0.6567200">
        <ele>263.8</ele>
        <time>2018-03-30T09:00:37Z</time>
      </trkpt>
      <trkpt lat="38.4136950" lon="-0.6567850">
        <ele>263.7</ele>
        <time>2018-03-30T09:00:38Z</time>
      </trkpt>
      <trkpt lat="38.4136500" lon="-0.6568510">
        <ele>263.7</ele>
        <time>2018-03-30T09:00:39Z</time>
      </trkpt>
      <trkpt lat="38.4136070" lon="-0.6569200">
        <ele>263.7</ele>
        <time>2018-03-30T09:00:40Z</time>
      </trkpt>
      <trkpt lat="38.4135650" lon="-0.6569900">
        <ele>263.6</ele>
        <time>2018-03-30T09:00:41Z</time>
      </trkpt>
      <trkpt lat="38.4135240" lon="-0.6570630">
        <ele>263.6</ele>
        <time>2018-03-30T09:00:42Z</time>
      </trkpt>
      <trkpt lat="38.4134830" lon="-0.6571380">
        <ele>263.6</ele>
        <time>2018-03-30T09:00:43Z</time>
      </trkpt>
      <trkpt lat="38.4134470" lon="-0.6572110">
        <ele>263.5</ele>
        <time>2018-03-30T09:00:44Z</time>
      </trkpt>
      <trkpt lat="38.4134110" lon="-0.6572860">
        <ele>263.5</ele>
        <time>2018-03-30T09:00:45Z</time>
      </trkpt>
      <trkpt lat="38.4133770" lon="-0.6573620">
        <ele>263.5</ele>
        <time>2018-03-30T09:00:46Z</time>
      </trkpt>
      <trkpt lat="38.4133440" lon="-0.6574380">
        <ele>263.4</ele>
        <time>2018-03-30T09:00:47Z</time>
      </trkpt>
      <trkpt lat="38.4133110" lon="-0.6575140">
        <ele>263.4</ele>
        <time>2018-03-30T09:00:48Z</time>
      </trkpt>
      <trkpt lat="38.4132770" lon="-0.6575900">
        <ele>263.3</ele>
        <time>2018-03-30T09:00:49Z</time>
      </trkpt>
      <trkpt lat="38.4132420" lon="-0.6576670">
        <ele>263.2</ele>
        <time>2018-03-30T09:00:50Z</time>
      </trkpt>
      <trkpt lat="38.4132060" lon="-0.6577430">
        <ele>263.2</ele>
        <time>2018-03-30T09:00:51Z</time>
      </trkpt>
      <trkpt lat="38.4131700" lon="-0.6578180">
        <ele>263.1</ele>
        <time>2018-03-30T09:00:52Z</time>
      </trkpt>
      <trkpt lat="38.4131310" lon="-0.6578910">
        <ele>263.0</ele>
        <time>2018-03-30T09:00:53Z</time>
      </trkpt>
      <trkpt lat="38.4130870" lon="-0.6579610">
        <ele>262.9</ele>
        <time>2018-03-30T09:00:54Z</time>
      </trkpt>
      <trkpt lat="38.4130410" lon="-0.6580240">
        <ele>262.8</ele>
        <time>2018-03-30T09:00:55Z</time>
      </trkpt>
      <trkpt lat="38.4129890" lon="-0.6580780">
        <ele>262.8</ele>
        <time>2018-03-30T09:00:56Z</time>
      </trkpt>
      <trkpt lat="38.4129320" lon="-0.6581180">
        <ele>262.7</ele>
        <time>2018-03-30T09:00:57Z</time>
      </trkpt>
      <trkpt lat="38.4128720" lon="-0.6581430">
        <ele>262.5</ele>
        <time>2018-03-30T09:00:58Z</time>
      </trkpt>
      <trkpt lat="38.4128070" lon="-0.6581660">
        <ele>262.4</ele>
        <time>2018-03-30T09:00:59Z</time>
      </trkpt>
      <trkpt lat="38.4127420" lon="-0.6581860">
        <ele>262.2</ele>
        <time>2018-03-30T09:01:00Z</time>
      </trkpt>
      <trkpt lat="38.4126710" lon="-0.6582060">
        <ele>262.0</ele>
        <time>2018-03-30T09:01:01Z</time>
      </trkpt>
      <trkpt lat="38.4126000" lon="-0.6582240">
        <ele>261.7</ele>
        <time>2018-03-30T09:01:02Z</time>
      </trkpt>
      <trkpt lat="38.4125270" lon="-0.6582410">
        <ele>261.5</ele>
        <time>2018-03-30T09:01:03Z</time>
      </trkpt>
      <trkpt lat="38.4124560" lon="-0.6582580">
        <ele>261.3</ele>
        <time>2018-03-30T09:01:04Z</time>
      </trkpt>
      <trkpt lat="38.4123870" lon="-0.6582720">
        <ele>261.2</ele>
        <time>2018-03-30T09:01:05Z</time>
      </trkpt>
      <trkpt lat="38.4123190" lon="-0.6582860">
        <ele>261.1</ele>
        <time>2018-03-30T09:01:06Z</time>
      </trkpt>
      <trkpt lat="38.4122490" lon="-0.6583030">
        <ele>260.9</ele>
        <time>2018-03-30T09:01:07Z</time>
      </trkpt>
      <trkpt lat="38.4121740" lon="-0.6583350">
        <ele>260.7</ele>
        <time>2018-03-30T09:01:08Z</time>
      </trkpt>
      <trkpt lat="38.4121000" lon="-0.6583780">
        <ele>260.5</ele>
        <time>2018-03-30T09:01:09Z</time>
      </trkpt>
      <trkpt lat="38.4120290" lon="-0.6584350">
        <ele>260.3</ele>
        <time>2018-03-30T09:01:10Z</time>
      </trkpt>
      <trkpt lat="38.4119630" lon="-0.6584910">
        <ele>260.2</ele>
        <time>2018-03-30T09:01:11Z</time>
      </trkpt>
      <trkpt lat="38.4119000" lon="-0.6585490">
        <ele>260.1</ele>
        <time>2018-03-30T09:01:12Z</time>
      </trkpt>
      <trkpt lat="38.4118380" lon="-0.6586050">
        <ele>260.0</ele>
        <time>2018-03-30T09:01:13Z</time>
      </trkpt>
      <trkpt lat="38.4117780" lon="-0.6586620">
        <ele>260.0</ele>
        <time>2018-03-30T09:01:14Z</time>
      </trkpt>
      <trkpt lat="38.4117220" lon="-0.6587210">
        <ele>259.9</ele>
        <time>2018-03-30T09:01:15Z</time>
      </trkpt>
      <trkpt lat="38.4116670" lon="-0.6587800">
        <ele>259.9</ele>
        <time>2018-03-30T09:01:16Z</time>
      </trkpt>
      <trkpt lat="38.4116140" lon="-0.6588390">
        <ele>259.8</ele>
        <time>2018-03-30T09:01:17Z</time>
      </trkpt>
      <trkpt lat="38.4115610" lon="-0.6588990">
        <ele>259.7</ele>
        <time>2018-03-30T09:01:18Z</time>
      </trkpt>
      <trkpt lat="38.4115080" lon="-0.6589580">
        <ele>259.7</ele>
        <time>2018-03-30T09:01:19Z</time>
      </trkpt>
      <trkpt lat="38.4114560" lon="-0.6590180">
        <ele>259.6</ele>
        <time>2018-03-30T09:01:20Z</time>
      </trkpt>
      <trkpt lat="38.4114060" lon="-0.6590780">
        <ele>259.6</ele>
        <time>2018-03-30T09:01:21Z</time>
      </trkpt>
      <trkpt lat="38.4113560" lon="-0.6591390">
        <ele>259.5</ele>
        <time>2018-03-30T09:01:22Z</time>
      </trkpt>
      <trkpt lat="38.4113060" lon="-0.6592010">
        <ele>259.5</ele>
        <time>2018-03-30T09:01:23Z</time>
      </trkpt>
      <trkpt lat="38.4112590" lon="-0.6592650">
        <ele>259.4</ele>
        <time>2018-03-30T09:01:24Z</time>
      </trkpt>
      <trkpt lat="38.4112100" lon="-0.6593270">
        <ele>259.4</ele>
        <time>2018-03-30T09:01:25Z</time>
      </trkpt>
      <trkpt lat="38.4111600" lon="-0.6593880">
        <ele>259.3</ele>
        <time>2018-03-30T09:01:26Z</time>
      </trkpt>
      <trkpt lat="38.4111090" lon="-0.6594470">
        <ele>259.2</ele>
        <time>2018-03-30T09:01:27Z</time>
      </trkpt>
      <trkpt lat="38.4110600" lon="-0.6595030">
        <ele>259.1</ele>
        <time>2018-03-30T09:01:28Z</time>
      </trkpt>
      <trkpt lat="38.4110090" lon="-0.6595560">
        <ele>258.9</ele>
        <time>2018-03-30T09:01:29Z</time>
      </trkpt>
      <trkpt lat="38.4109550" lon="-0.6596070">
        <ele>258.8</ele>
        <time>2018-03-30T09:01:30Z</time>
      </trkpt>
      <trkpt lat="38.4108990" lon="-0.6596570">
        <ele>258.7</ele>
        <time>2018-03-30T09:01:31Z</time>
      </trkpt>
      <trkpt lat="38.4108420" lon="-0.6597050">
        <ele>258.6</ele>
        <time>2018-03-30T09:01:32Z</time>
      </trkpt>
      <trkpt lat="38.4107840" lon="-0.6597540">
        <ele>258.5</ele>
        <time>2018-03-30T09:01:33Z</time>
      </trkpt>
      <trkpt lat="38.4107240" lon="-0.6597990">
        <ele>258.4</ele>
        <time>2018-03-30T09:01:34Z</time>
      </trkpt>
      <trkpt lat="38.4106640" lon="-0.6598450">
        <ele>258.3</ele>
        <time>2018-03-30T09:01:35Z</time>
      </trkpt>
      <trkpt lat="38.4106050" lon="-0.6598910">
        <ele>258.2</ele>
        <time>2018-03-30T09:01:36Z</time>
      </trkpt>
      <trkpt lat="38.4105440" lon="-0.6599380">
        <ele>258.0</ele>
        <time>2018-03-30T09:01:37Z</time>
      </trkpt>
      <trkpt lat="38.4104830" lon="-0.6599870">
        <ele>257.7</ele>
        <time>2018-03-30T09:01:38Z</time>
      </trkpt>
      <trkpt lat="38.4104220" lon="-0.6600340">
        <ele>257.6</ele>
        <time>2018-03-30T09:01:39Z</time>
      </trkpt>
      <trkpt lat="38.4103620" lon="-0.6600830">
        <ele>257.4</ele>
        <time>2018-03-30T09:01:40Z</time>
      </trkpt>
      <trkpt lat="38.4103010" lon="-0.6601320">
        <ele>257.3</ele>
        <time>2018-03-30T09:01:41Z</time>
      </trkpt>
      <trkpt lat="38.4102400" lon="-0.6601820">
        <ele>257.2</ele>
        <time>2018-03-30T09:01:42Z</time>
      </trkpt>
      <trkpt lat="38.4101770" lon="-0.6602320">
        <ele>257.1</ele>
        <time>2018-03-30T09:01:43Z</time>
      </trkpt>
      <trkpt lat="38.4101120" lon="-0.6602820">
        <ele>256.8</ele>
        <time>2018-03-30T09:01:44Z</time>
      </trkpt>
      <trkpt lat="38.4100480" lon="-0.6603300">
        <ele>256.6</ele>
        <time>2018-03-30T09:01:45Z</time>
      </trkpt>
      <trkpt lat="38.4099850" lon="-0.6603800">
        <ele>256.4</ele>
        <time>2018-03-30T09:01:46Z</time>
      </trkpt>
      <trkpt lat="38.4099230" lon="-0.6604270">
        <ele>256.3</ele>
        <time>2018-03-30T09:01:47Z</time>
      </trkpt>
      <trkpt lat="38.4098620" lon="-0.6604760">
        <ele>256.1</ele>
        <time>2018-03-30T09:01:48Z</time>
      </trkpt>
      <trkpt lat="38.4098020" lon="-0.6605250">
        <ele>255.9</ele>
        <time>2018-03-30T09:01:49Z</time>
      </trkpt>
      <trkpt lat="38.4097420" lon="-0.6605730">
        <ele>255.7</ele>
        <time>2018-03-30T09:01:50Z</time>
      </trkpt>
      <trkpt lat="38.4096830" lon="-0.6606220">
        <ele>255.5</ele>
        <time>2018-03-30T09:01:51Z</time>
      </trkpt>
      <trkpt lat="38.4096240" lon="-0.6606710">
        <ele>255.4</ele>
        <time>2018-03-30T09:01:52Z</time>
      </trkpt>
      <trkpt lat="38.4095650" lon="-0.6607200">
        <ele>255.3</ele>
        <time>2018-03-30T09:01:53Z</time>
      </trkpt>
      <trkpt lat="38.4095060" lon="-0.6607720">
        <ele>255.2</ele>
        <time>2018-03-30T09:01:54Z</time>
      </trkpt>
      <trkpt lat="38.4094470" lon="-0.6608240">
        <ele>255.2</ele>
        <time>2018-03-30T09:01:55Z</time>
      </trkpt>
      <trkpt lat="38.4093890" lon="-0.6608750">
        <ele>255.1</ele>
        <time>2018-03-30T09:01:56Z</time>
      </trkpt>
      <trkpt lat="38.4093300" lon="-0.6609260">
        <ele>255.1</ele>
        <time>2018-03-30T09:01:57Z</time>
      </trkpt>
      <trkpt lat="38.4092740" lon="-0.6609790">
        <ele>255.3</ele>
        <time>2018-03-30T09:01:58Z</time>
      </trkpt>
      <trkpt lat="38.4092180" lon="-0.6610330">
        <ele>255.5</ele>
        <time>2018-03-30T09:01:59Z</time>
      </trkpt>
      <trkpt lat="38.4091660" lon="-0.6610840">
        <ele>255.7</ele>
        <time>2018-03-30T09:02:00Z</time>
      </trkpt>
      <trkpt lat="38.4091210" lon="-0.6611340">
        <ele>255.9</ele>
        <time>2018-03-30T09:02:01Z</time>
      </trkpt>
      <trkpt lat="38.4090760" lon="-0.6611820">
        <ele>256.2</ele>
        <time>2018-03-30T09:02:02Z</time>
      </trkpt>
      <trkpt lat="38.4090340" lon="-0.6612320">
        <ele>256.5</ele>
        <time>2018-03-30T09:02:03Z</time>
      </trkpt>
      <trkpt lat="38.4089950" lon="-0.6612810">
        <ele>256.8</ele>
        <time>2018-03-30T09:02:04Z</time>
      </trkpt>
      <trkpt lat="38.4089560" lon="-0.6613300">
        <ele>257.1</ele>
        <time>2018-03-30T09:02:05Z</time>
      </trkpt>
      <trkpt lat="38.4089170" lon="-0.6613760">
        <ele>257.4</ele>
        <time>2018-03-30T09:02:06Z</time>
      </trkpt>
      <trkpt lat="38.4088790" lon="-0.6614220">
        <ele>257.7</ele>
        <time>2018-03-30T09:02:07Z</time>
      </trkpt>
      <trkpt lat="38.4088400" lon="-0.6614680">
        <ele>258.1</ele>
        <time>2018-03-30T09:02:08Z</time>
      </trkpt>
      <trkpt lat="38.4088030" lon="-0.6615150">
        <ele>258.3</ele>
        <time>2018-03-30T09:02:09Z</time>
      </trkpt>
      <trkpt lat="38.4087660" lon="-0.6615630">
        <ele>258.6</ele>
        <time>2018-03-30T09:02:10Z</time>
      </trkpt>
      <trkpt lat="38.4087290" lon="-0.6616080">
        <ele>258.9</ele>
        <time>2018-03-30T09:02:11Z</time>
      </trkpt>
      <trkpt lat="38.4086930" lon="-0.6616520">
        <ele>259.2</ele>
        <time>2018-03-30T09:02:12Z</time>
      </trkpt>
      <trkpt lat="38.4086570" lon="-0.6616950">
        <ele>259.4</ele>
        <time>2018-03-30T09:02:13Z</time>
      </trkpt>
      <trkpt lat="38.4086230" lon="-0.6617370">
        <ele>259.6</ele>
        <time>2018-03-30T09:02:14Z</time>
      </trkpt>
      <trkpt lat="38.4085880" lon="-0.6617790">
        <ele>259.8</ele>
        <time>2018-03-30T09:02:15Z</time>
      </trkpt>
      <trkpt lat="38.4085530" lon="-0.6618190">
        <ele>260.1</ele>
        <time>2018-03-30T09:02:16Z</time>
      </trkpt>
      <trkpt lat="38.4085190" lon="-0.6618600">
        <ele>260.3</ele>
        <time>2018-03-30T09:02:17Z</time>
      </trkpt>
      <trkpt lat="38.4084850" lon="-0.6619020">
        <ele>260.5</ele>
        <time>2018-03-30T09:02:18Z</time>
      </trkpt>
      <trkpt lat="38.4084520" lon="-0.6619460">
        <ele>260.7</ele>
        <time>2018-03-30T09:02:19Z</time>
      </trkpt>
      <trkpt lat="38.4084180" lon="-0.6619880">
        <ele>261.0</ele>
        <time>2018-03-30T09:02:20Z</time>
      </trkpt>
      <trkpt lat="38.4083850" lon="-0.6620280">
        <ele>261.2</ele>
        <time>2018-03-30T09:02:21Z</time>
      </trkpt>
      <trkpt lat="38.4083510" lon="-0.6620680">
        <ele>261.4</ele>
        <time>2018-03-30T09:02:22Z</time>
      </trkpt>
      <trkpt lat="38.4083180" lon="-0.6621080">
        <ele>261.6</ele>
        <time>2018-03-30T09:02:23Z</time>
      </trkpt>
      <trkpt lat="38.4082860" lon="-0.6621480">
        <ele>261.9</ele>
        <time>2018-03-30T09:02:24Z</time>
      </trkpt>
      <trkpt lat="38.4082550" lon="-0.6621880">
        <ele>262.2</ele>
        <time>2018-03-30T09:02:25Z</time>
      </trkpt>
      <trkpt lat="38.4082230" lon="-0.6622280">
        <ele>262.4</ele>
        <time>2018-03-30T09:02:26Z</time>
      </trkpt>
      <trkpt lat="38.4081910" lon="-0.6622660">
        <ele>262.7</ele>
        <time>2018-03-30T09:02:27Z</time>
      </trkpt>
      <trkpt lat="38.4081590" lon="-0.6623040">
        <ele>263.0</ele>
        <time>2018-03-30T09:02:28Z</time>
      </trkpt>
      <trkpt lat="38.4081260" lon="-0.6623420">
        <ele>263.2</ele>
        <time>2018-03-30T09:02:29Z</time>
      </trkpt>
      <trkpt lat="38.4080940" lon="-0.6623800">
        <ele>263.5</ele>
        <time>2018-03-30T09:02:30Z</time>
      </trkpt>
      <trkpt lat="38.4080620" lon="-0.6624170">
        <ele>263.7</ele>
        <time>2018-03-30T09:02:31Z</time>
      </trkpt>
      <trkpt lat="38.4080310" lon="-0.6624550">
        <ele>263.9</ele>
        <time>2018-03-30T09:02:32Z</time>
      </trkpt>
      <trkpt lat="38.4080000" lon="-0.6624930">
        <ele>264.0</ele>
        <time>2018-03-30T09:02:33Z</time>
      </trkpt>
      <trkpt lat="38.4079660" lon="-0.6625310">
        <ele>264.2</ele>
        <time>2018-03-30T09:02:34Z</time>
      </trkpt>
      <trkpt lat="38.4079340" lon="-0.6625680">
        <ele>264.4</ele>
        <time>2018-03-30T09:02:35Z</time>
      </trkpt>
      <trkpt lat="38.4079020" lon="-0.6626050">
        <ele>264.6</ele>
        <time>2018-03-30T09:02:36Z</time>
      </trkpt>
      <trkpt lat="38.4078710" lon="-0.6626390">
        <ele>264.7</ele>
        <time>2018-03-30T09:02:37Z</time>
      </trkpt>
      <trkpt lat="38.4078400" lon="-0.6626760">
        <ele>264.8</ele>
        <time>2018-03-30T09:02:38Z</time>
      </trkpt>
      <trkpt lat="38.4078090" lon="-0.6627110">
        <ele>265.0</ele>
        <time>2018-03-30T09:02:39Z</time>
      </trkpt>
      <trkpt lat="38.4077790" lon="-0.6627460">
        <ele>265.1</ele>
        <time>2018-03-30T09:02:40Z</time>
      </trkpt>
      <trkpt lat="38.4077470" lon="-0.6627790">
        <ele>265.2</ele>
        <time>2018-03-30T09:02:41Z</time>
      </trkpt>
      <trkpt lat="38.4077210" lon="-0.6628180">
        <ele>265.2</ele>
        <time>2018-03-30T09:02:42Z</time>
      </trkpt>
      <trkpt lat="38.4076910" lon="-0.6628550">
        <ele>265.2</ele>
        <time>2018-03-30T09:02:43Z</time>
      </trkpt>
      <trkpt lat="38.4076610" lon="-0.6628920">
        <ele>265.3</ele>
        <time>2018-03-30T09:02:44Z</time>
      </trkpt>
      <trkpt lat="38.4076310" lon="-0.6629280">
        <ele>265.3</ele>
        <time>2018-03-30T09:02:45Z</time>
      </trkpt>
      <trkpt lat="38.4076000" lon="-0.6629660">
        <ele>265.2</ele>
        <time>2018-03-30T09:02:46Z</time>
      </trkpt>
      <trkpt lat="38.4075700" lon="-0.6630070">
        <ele>265.1</ele>
        <time>2018-03-30T09:02:47Z</time>
      </trkpt>
      <trkpt lat="38.4075370" lon="-0.6630480">
        <ele>264.9</ele>
        <time>2018-03-30T09:02:48Z</time>
      </trkpt>
      <trkpt lat="38.4075020" lon="-0.6630920">
        <ele>264.7</ele>
        <time>2018-03-30T09:02:49Z</time>
      </trkpt>
      <trkpt lat="38.4074640" lon="-0.6631350">
        <ele>264.5</ele>
        <time>2018-03-30T09:02:50Z</time>
      </trkpt>
      <trkpt lat="38.4074250" lon="-0.6631820">
        <ele>264.1</ele>
        <time>2018-03-30T09:02:51Z</time>
      </trkpt>
      <trkpt lat="38.4073810" lon="-0.6632310">
        <ele>263.7</ele>
        <time>2018-03-30T09:02:52Z</time>
      </trkpt>
      <trkpt lat="38.4073370" lon="-0.6632820">
        <ele>263.4</ele>
        <time>2018-03-30T09:02:53Z</time>
      </trkpt>
      <trkpt lat="38.4072910" lon="-0.6633350">
        <ele>263.1</ele>
        <time>2018-03-30T09:02:54Z</time>
      </trkpt>
      <trkpt lat="38.4072440" lon="-0.6633890">
        <ele>262.7</ele>
        <time>2018-03-30T09:02:55Z</time>
      </trkpt>
      <trkpt lat="38.4071950" lon="-0.6634440">
        <ele>262.3</ele>
        <time>2018-03-30T09:02:56Z</time>
      </trkpt>
      <trkpt lat="38.4071430" lon="-0.6635010">
        <ele>261.7</ele>
        <time>2018-03-30T09:02:57Z</time>
      </trkpt>
      <trkpt lat="38.4070920" lon="-0.6635580">
        <ele>261.4</ele>
        <time>2018-03-30T09:02:58Z</time>
      </trkpt>
      <trkpt lat="38.4070370" lon="-0.6636180">
        <ele>261.0</ele>
        <time>2018-03-30T09:02:59Z</time>
      </trkpt>
      <trkpt lat="38.4069810" lon="-0.6636810">
        <ele>260.9</ele>
        <time>2018-03-30T09:03:00Z</time>
      </trkpt>
      <trkpt lat="38.4069230" lon="-0.6637460">
        <ele>260.8</ele>
        <time>2018-03-30T09:03:01Z</time>
      </trkpt>
      <trkpt lat="38.4068640" lon="-0.6638140">
        <ele>260.6</ele>
        <time>2018-03-30T09:03:02Z</time>
      </trkpt>
      <trkpt lat="38.4068020" lon="-0.6638840">
        <ele>260.5</ele>
        <time>2018-03-30T09:03:03Z</time>
      </trkpt>
      <trkpt lat="38.4067390" lon="-0.6639550">
        <ele>260.3</ele>
        <time>2018-03-30T09:03:04Z</time>
      </trkpt>
      <trkpt lat="38.4066770" lon="-0.6640300">
        <ele>260.2</ele>
        <time>2018-03-30T09:03:05Z</time>
      </trkpt>
      <trkpt lat="38.4066110" lon="-0.6641050">
        <ele>260.0</ele>
        <time>2018-03-30T09:03:06Z</time>
      </trkpt>
      <trkpt lat="38.4065430" lon="-0.6641800">
        <ele>260.0</ele>
        <time>2018-03-30T09:03:07Z</time>
      </trkpt>
      <trkpt lat="38.4064710" lon="-0.6642510">
        <ele>259.9</ele>
        <time>2018-03-30T09:03:08Z</time>
      </trkpt>
      <trkpt lat="38.4063970" lon="-0.6643220">
        <ele>259.9</ele>
        <time>2018-03-30T09:03:09Z</time>
      </trkpt>
      <trkpt lat="38.4063190" lon="-0.6643880">
        <ele>259.9</ele>
        <time>2018-03-30T09:03:10Z</time>
      </trkpt>
      <trkpt lat="38.4062370" lon="-0.6644510">
        <ele>259.8</ele>
        <time>2018-03-30T09:03:11Z</time>
      </trkpt>
      <trkpt lat="38.4061560" lon="-0.6645090">
        <ele>259.8</ele>
        <time>2018-03-30T09:03:12Z</time>
      </trkpt>
      <trkpt lat="38.4060790" lon="-0.6645650">
        <ele>259.8</ele>
        <time>2018-03-30T09:03:13Z</time>
      </trkpt>
      <trkpt lat="38.4060030" lon="-0.6646190">
        <ele>259.9</ele>
        <time>2018-03-30T09:03:14Z</time>
      </trkpt>
      <trkpt lat="38.4059310" lon="-0.6646700">
        <ele>260.0</ele>
        <time>2018-03-30T09:03:15Z</time>
      </trkpt>
      <trkpt lat="38.4058600" lon="-0.6647160">
        <ele>260.1</ele>
        <time>2018-03-30T09:03:16Z</time>
      </trkpt>
      <trkpt lat="38.4057880" lon="-0.6647500">
        <ele>260.2</ele>
        <time>2018-03-30T09:03:17Z</time>
      </trkpt>
      <trkpt lat="38.4057140" lon="-0.6647720">
        <ele>260.3</ele>
        <time>2018-03-30T09:03:18Z</time>
      </trkpt>
      <trkpt lat="38.4056400" lon="-0.6647840">
        <ele>260.4</ele>
        <time>2018-03-30T09:03:19Z</time>
      </trkpt>
      <trkpt lat="38.4055640" lon="-0.6647890">
        <ele>260.5</ele>
        <time>2018-03-30T09:03:20Z</time>
      </trkpt>
      <trkpt lat="38.4054910" lon="-0.6647850">
        <ele>260.6</ele>
        <time>2018-03-30T09:03:21Z</time>
      </trkpt>
      <trkpt lat="38.4054180" lon="-0.6647790">
        <ele>260.7</ele>
        <time>2018-03-30T09:03:22Z</time>
      </trkpt>
      <trkpt lat="38.4053460" lon="-0.6647740">
        <ele>260.8</ele>
        <time>2018-03-30T09:03:23Z</time>
      </trkpt>
      <trkpt lat="38.4052740" lon="-0.6647690">
        <ele>261.0</ele>
        <time>2018-03-30T09:03:24Z</time>
      </trkpt>
      <trkpt lat="38.4052000" lon="-0.6647650">
        <ele>261.2</ele>
        <time>2018-03-30T09:03:25Z</time>
      </trkpt>
      <trkpt lat="38.4051280" lon="-0.6647590">
        <ele>261.4</ele>
        <time>2018-03-30T09:03:26Z</time>
      </trkpt>
      <trkpt lat="38.4050550" lon="-0.6647540">
        <ele>261.7</ele>
        <time>2018-03-30T09:03:27Z</time>
      </trkpt>
      <trkpt lat="38.4049840" lon="-0.6647480">
        <ele>262.0</ele>
        <time>2018-03-30T09:03:28Z</time>
      </trkpt>
      <trkpt lat="38.4049100" lon="-0.6647440">
        <ele>262.2</ele>
        <time>2018-03-30T09:03:29Z</time>
      </trkpt>
      <trkpt lat="38.4048360" lon="-0.6647380">
        <ele>262.4</ele>
        <time>2018-03-30T09:03:30Z</time>
      </trkpt>
      <trkpt lat="38.4047620" lon="-0.6647320">
        <ele>262.6</ele>
        <time>2018-03-30T09:03:31Z</time>
      </trkpt>
      <trkpt lat="38.4046900" lon="-0.6647260">
        <ele>262.8</ele>
        <time>2018-03-30T09:03:32Z</time>
      </trkpt>
      <trkpt lat="38.4046170" lon="-0.6647210">
        <ele>263.1</ele>
        <time>2018-03-30T09:03:33Z</time>
      </trkpt>
      <trkpt lat="38.4045450" lon="-0.6647150">
        <ele>263.4</ele>
        <time>2018-03-30T09:03:34Z</time>
      </trkpt>
      <trkpt lat="38.4044740" lon="-0.6647090">
        <ele>263.6</ele>
        <time>2018-03-30T09:03:35Z</time>
      </trkpt>
      <trkpt lat="38.4044040" lon="-0.6647040">
        <ele>263.8</ele>
        <time>2018-03-30T09:03:36Z</time>
      </trkpt>
      <trkpt lat="38.4043340" lon="-0.6647010">
        <ele>264.1</ele>
        <time>2018-03-30T09:03:37Z</time>
      </trkpt>
      <trkpt lat="38.4042640" lon="-0.6646990">
        <ele>264.3</ele>
        <time>2018-03-30T09:03:38Z</time>
      </trkpt>
      <trkpt lat="38.4041940" lon="-0.6646960">
        <ele>264.5</ele>
        <time>2018-03-30T09:03:39Z</time>
      </trkpt>
      <trkpt lat="38.4041260" lon="-0.6646960">
        <ele>264.7</ele>
        <time>2018-03-30T09:03:40Z</time>
      </trkpt>
      <trkpt lat="38.4040580" lon="-0.6646980">
        <ele>264.9</ele>
        <time>2018-03-30T09:03:41Z</time>
      </trkpt>
      <trkpt lat="38.4039900" lon="-0.6646980">
        <ele>265.1</ele>
        <time>2018-03-30T09:03:42Z</time>
      </trkpt>
      <trkpt lat="38.4039240" lon="-0.6646980">
        <ele>265.3</ele>
        <time>2018-03-30T09:03:43Z</time>
      </trkpt>
      <trkpt lat="38.4038610" lon="-0.6646970">
        <ele>265.6</ele>
        <time>2018-03-30T09:03:44Z</time>
      </trkpt>
      <trkpt lat="38.4037980" lon="-0.6646970">
        <ele>265.8</ele>
        <time>2018-03-30T09:03:45Z</time>
      </trkpt>
      <trkpt lat="38.4037350" lon="-0.6646990">
        <ele>266.0</ele>
        <time>2018-03-30T09:03:46Z</time>
      </trkpt>
      <trkpt lat="38.4036720" lon="-0.6647030">
        <ele>266.2</ele>
        <time>2018-03-30T09:03:47Z</time>
      </trkpt>
      <trkpt lat="38.4036090" lon="-0.6647100">
        <ele>266.4</ele>
        <time>2018-03-30T09:03:48Z</time>
      </trkpt>
      <trkpt lat="38.4035460" lon="-0.6647210">
        <ele>266.6</ele>
        <time>2018-03-30T09:03:49Z</time>
      </trkpt>
      <trkpt lat="38.4034830" lon="-0.6647360">
        <ele>266.9</ele>
        <time>2018-03-30T09:03:50Z</time>
      </trkpt>
      <trkpt lat="38.4034220" lon="-0.6647540">
        <ele>267.1</ele>
        <time>2018-03-30T09:03:51Z</time>
      </trkpt>
      <trkpt lat="38.4033630" lon="-0.6647710">
        <ele>267.3</ele>
        <time>2018-03-30T09:03:52Z</time>
      </trkpt>
      <trkpt lat="38.4033020" lon="-0.6647880">
        <ele>267.6</ele>
        <time>2018-03-30T09:03:53Z</time>
      </trkpt>
      <trkpt lat="38.4032420" lon="-0.6648030">
        <ele>267.9</ele>
        <time>2018-03-30T09:03:54Z</time>
      </trkpt>
      <trkpt lat="38.4031830" lon="-0.6648200">
        <ele>268.1</ele>
        <time>2018-03-30T09:03:55Z</time>
      </trkpt>
      <trkpt lat="38.4031240" lon="-0.6648370">
        <ele>268.4</ele>
        <time>2018-03-30T09:03:56Z</time>
      </trkpt>
      <trkpt lat="38.4030660" lon="-0.6648520">
        <ele>268.6</ele>
        <time>2018-03-30T09:03:57Z</time>
      </trkpt>
      <trkpt lat="38.4030080" lon="-0.6648660">
        <ele>268.8</ele>
        <time>2018-03-30T09:03:58Z</time>
      </trkpt>
      <trkpt lat="38.4029510" lon="-0.6648810">
        <ele>269.0</ele>
        <time>2018-03-30T09:03:59Z</time>
      </trkpt>
      <trkpt lat="38.4028960" lon="-0.6648930">
        <ele>269.2</ele>
        <time>2018-03-30T09:04:00Z</time>
      </trkpt>
      <trkpt lat="38.4028400" lon="-0.6649050">
        <ele>269.4</ele>
        <time>2018-03-30T09:04:01Z</time>
      </trkpt>
      <trkpt lat="38.4027840" lon="-0.6649170">
        <ele>269.7</ele>
        <time>2018-03-30T09:04:02Z</time>
      </trkpt>
      <trkpt lat="38.4027280" lon="-0.6649260">
        <ele>269.9</ele>
        <time>2018-03-30T09:04:03Z</time>
      </trkpt>
      <trkpt lat="38.4026730" lon="-0.6649370">
        <ele>270.1</ele>
        <time>2018-03-30T09:04:04Z</time>
      </trkpt>
      <trkpt lat="38.4026180" lon="-0.6649490">
        <ele>270.2</ele>
        <time>2018-03-30T09:04:05Z</time>
      </trkpt>
      <trkpt lat="38.4025650" lon="-0.6649640">
        <ele>270.4</ele>
        <time>2018-03-30T09:04:06Z</time>
      </trkpt>
      <trkpt lat="38.4025090" lon="-0.6649810">
        <ele>270.7</ele>
        <time>2018-03-30T09:04:07Z</time>
      </trkpt>
      <trkpt lat="38.4024600" lon="-0.6650110">
        <ele>271.0</ele>
        <time>2018-03-30T09:04:08Z</time>
      </trkpt>
      <trkpt lat="38.4024140" lon="-0.6650440">
        <ele>271.3</ele>
        <time>2018-03-30T09:04:09Z</time>
      </trkpt>
      <trkpt lat="38.4023680" lon="-0.6650800">
        <ele>271.5</ele>
        <time>2018-03-30T09:04:10Z</time>
      </trkpt>
      <trkpt lat="38.4023220" lon="-0.6651160">
        <ele>271.7</ele>
        <time>2018-03-30T09:04:11Z</time>
      </trkpt>
      <trkpt lat="38.4022760" lon="-0.6651510">
        <ele>271.9</ele>
        <time>2018-03-30T09:04:12Z</time>
      </trkpt>
      <trkpt lat="38.4022280" lon="-0.6651840">
        <ele>272.2</ele>
        <time>2018-03-30T09:04:13Z</time>
      </trkpt>
      <trkpt lat="38.4021810" lon="-0.6652180">
        <ele>272.4</ele>
        <time>2018-03-30T09:04:14Z</time>
      </trkpt>
      <trkpt lat="38.4021340" lon="-0.6652510">
        <ele>272.6</ele>
        <time>2018-03-30T09:04:15Z</time>
      </trkpt>
      <trkpt lat="38.4020890" lon="-0.6652840">
        <ele>272.9</ele>
        <time>2018-03-30T09:04:16Z</time>
      </trkpt>
      <trkpt lat="38.4020420" lon="-0.6653140">
        <ele>273.2</ele>
        <time>2018-03-30T09:04:17Z</time>
      </trkpt>
      <trkpt lat="38.4019960" lon="-0.6653450">
        <ele>273.4</ele>
        <time>2018-03-30T09:04:18Z</time>
      </trkpt>
      <trkpt lat="38.4019500" lon="-0.6653780">
        <ele>273.7</ele>
        <time>2018-03-30T09:04:19Z</time>
      </trkpt>
      <trkpt lat="38.4019040" lon="-0.6654110">
        <ele>274.0</ele>
        <time>2018-03-30T09:04:20Z</time>
      </trkpt>
      <trkpt lat="38.4018570" lon="-0.6654440">
        <ele>274.2</ele>
        <time>2018-03-30T09:04:21Z</time>
      </trkpt>
      <trkpt lat="38.4018090" lon="-0.6654740">
        <ele>274.5</ele>
        <time>2018-03-30T09:04:22Z</time>
      </trkpt>
      <trkpt lat="38.4017600" lon="-0.6655020">
        <ele>274.8</ele>
        <time>2018-03-30T09:04:23Z</time>
      </trkpt>
      <trkpt lat="38.4017120" lon="-0.6655290">
        <ele>275.0</ele>
        <time>2018-03-30T09:04:24Z</time>
      </trkpt>
      <trkpt lat="38.4016640" lon="-0.6655560">
        <ele>275.3</ele>
        <time>2018-03-30T09:04:25Z</time>
      </trkpt>
      <trkpt lat="38.4016170" lon="-0.6655830">
        <ele>275.5</ele>
        <time>2018-03-30T09:04:26Z</time>
      </trkpt>
      <trkpt lat="38.4015700" lon="-0.6656110">
        <ele>275.8</ele>
        <time>2018-03-30T09:04:27Z</time>
      </trkpt>
      <trkpt lat="38.4015240" lon="-0.6656390">
        <ele>276.1</ele>
        <time>2018-03-30T09:04:28Z</time>
      </trkpt>
      <trkpt lat="38.4014780" lon="-0.6656670">
        <ele>276.3</ele>
        <time>2018-03-30T09:04:29Z</time>
      </trkpt>
      <trkpt lat="38.4014350" lon="-0.6656970">
        <ele>276.4</ele>
        <time>2018-03-30T09:04:30Z</time>
      </trkpt>
      <trkpt lat="38.4013910" lon="-0.6657250">
        <ele>276.5</ele>
        <time>2018-03-30T09:04:31Z</time>
      </trkpt>
      <trkpt lat="38.4013480" lon="-0.6657560">
        <ele>276.6</ele>
        <time>2018-03-30T09:04:32Z</time>
      </trkpt>
      <trkpt lat="38.4013050" lon="-0.6657880">
        <ele>276.7</ele>
        <time>2018-03-30T09:04:33Z</time>
      </trkpt>
      <trkpt lat="38.4012610" lon="-0.6658200">
        <ele>276.8</ele>
        <time>2018-03-30T09:04:34Z</time>
      </trkpt>
      <trkpt lat="38.4012170" lon="-0.6658500">
        <ele>276.9</ele>
        <time>2018-03-30T09:04:35Z</time>
      </trkpt>
      <trkpt lat="38.4011690" lon="-0.6658760">
        <ele>276.9</ele>
        <time>2018-03-30T09:04:36Z</time>
      </trkpt>
      <trkpt lat="38.4011180" lon="-0.6658970">
        <ele>277.0</ele>
        <time>2018-03-30T09:04:37Z</time>
      </trkpt>
      <trkpt lat="38.4010650" lon="-0.6659160">
        <ele>277.0</ele>
        <time>2018-03-30T09:04:38Z</time>
      </trkpt>
      <trkpt lat="38.4010130" lon="-0.6659310">
        <ele>276.9</ele>
        <time>2018-03-30T09:04:39Z</time>
      </trkpt>
      <trkpt lat="38.4009570" lon="-0.6659400">
        <ele>276.9</ele>
        <time>2018-03-30T09:04:40Z</time>
      </trkpt>
      <trkpt lat="38.4009000" lon="-0.6659460">
        <ele>276.9</ele>
        <time>2018-03-30T09:04:41Z</time>
      </trkpt>
      <trkpt lat="38.4008420" lon="-0.6659490">
        <ele>276.9</ele>
        <time>2018-03-30T09:04:42Z</time>
      </trkpt>
      <trkpt lat="38.4007840" lon="-0.6659490">
        <ele>276.9</ele>
        <time>2018-03-30T09:04:43Z</time>
      </trkpt>
      <trkpt lat="38.4007270" lon="-0.6659480">
        <ele>276.9</ele>
        <time>2018-03-30T09:04:44Z</time>
      </trkpt>
      <trkpt lat="38.4006710" lon="-0.6659470">
        <ele>276.9</ele>
        <time>2018-03-30T09:04:45Z</time>
      </trkpt>
      <trkpt lat="38.4006140" lon="-0.6659470">
        <ele>276.9</ele>
        <time>2018-03-30T09:04:46Z</time>
      </trkpt>
      <trkpt lat="38.4005570" lon="-0.6659470">
        <ele>277.0</ele>
        <time>2018-03-30T09:04:47Z</time>
      </trkpt>
      <trkpt lat="38.4005020" lon="-0.6659460">
        <ele>277.0</ele>
        <time>2018-03-30T09:04:48Z</time>
      </trkpt>
      <trkpt lat="38.4004450" lon="-0.6659470">
        <ele>277.0</ele>
        <time>2018-03-30T09:04:49Z</time>
      </trkpt>
      <trkpt lat="38.4003900" lon="-0.6659470">
        <ele>277.1</ele>
        <time>2018-03-30T09:04:50Z</time>
      </trkpt>
      <trkpt lat="38.4003340" lon="-0.6659470">
        <ele>277.1</ele>
        <time>2018-03-30T09:04:51Z</time>
      </trkpt>
      <trkpt lat="38.4002780" lon="-0.6659470">
        <ele>277.1</ele>
        <time>2018-03-30T09:04:52Z</time>
      </trkpt>
      <trkpt lat="38.4002210" lon="-0.6659480">
        <ele>277.2</ele>
        <time>2018-03-30T09:04:53Z</time>
      </trkpt>
      <trkpt lat="38.4001650" lon="-0.6659480">
        <ele>277.2</ele>
        <time>2018-03-30T09:04:54Z</time>
      </trkpt>
      <trkpt lat="38.4001080" lon="-0.6659450">
        <ele>277.3</ele>
        <time>2018-03-30T09:04:55Z</time>
      </trkpt>
      <trkpt lat="38.4000520" lon="-0.6659440">
        <ele>277.3</ele>
        <time>2018-03-30T09:04:56Z</time>
      </trkpt>
      <trkpt lat="38.3999950" lon="-0.6659420">
        <ele>277.4</ele>
        <time>2018-03-30T09:04:57Z</time>
      </trkpt>
      <trkpt lat="38.3999370" lon="-0.6659410">
        <ele>277.4</ele>
        <time>2018-03-30T09:04:58Z</time>
      </trkpt>
      <trkpt lat="38.3998800" lon="-0.6659400">
        <ele>277.5</ele>
        <time>2018-03-30T09:04:59Z</time>
      </trkpt>
      <trkpt lat="38.3998220" lon="-0.6659400">
        <ele>277.5</ele>
        <time>2018-03-30T09:05:00Z</time>
      </trkpt>
      <trkpt lat="38.3997640" lon="-0.6659420">
        <ele>277.5</ele>
        <time>2018-03-30T09:05:01Z</time>
      </trkpt>
      <trkpt lat="38.3997060" lon="-0.6659450">
        <ele>277.6</ele>
        <time>2018-03-30T09:05:02Z</time>
      </trkpt>
      <trkpt lat="38.3996490" lon="-0.6659470">
        <ele>277.6</ele>
        <time>2018-03-30T09:05:03Z</time>
      </trkpt>
      <trkpt lat="38.3995920" lon="-0.6659520">
        <ele>277.7</ele>
        <time>2018-03-30T09:05:04Z</time>
      </trkpt>
      <trkpt lat="38.3995350" lon="-0.6659590">
        <ele>277.7</ele>
        <time>2018-03-30T09:05:05Z</time>
      </trkpt>
      <trkpt lat="38.3994800" lon="-0.6659710">
        <ele>277.8</ele>
        <time>2018-03-30T09:05:06Z</time>
      </trkpt>
      <trkpt lat="38.3994250" lon="-0.6659870">
        <ele>277.9</ele>
        <time>2018-03-30T09:05:07Z</time>
      </trkpt>
      <trkpt lat="38.3993710" lon="-0.6660060">
        <ele>278.0</ele>
        <time>2018-03-30T09:05:08Z</time>
      </trkpt>
      <trkpt lat="38.3993180" lon="-0.6660280">
        <ele>278.1</ele>
        <time>2018-03-30T09:05:09Z</time>
      </trkpt>
      <trkpt lat="38.3992680" lon="-0.6660560">
        <ele>278.2</ele>
        <time>2018-03-30T09:05:10Z</time>
      </trkpt>
      <trkpt lat="38.3992190" lon="-0.6660840">
        <ele>278.3</ele>
        <time>2018-03-30T09:05:11Z</time>
      </trkpt>
      <trkpt lat="38.3991700" lon="-0.6661130">
        <ele>278.4</ele>
        <time>2018-03-30T09:05:12Z</time>
      </trkpt>
      <trkpt lat="38.3991220" lon="-0.6661400">
        <ele>278.5</ele>
        <time>2018-03-30T09:05:13Z</time>
      </trkpt>
      <trkpt lat="38.3990740" lon="-0.6661680">
        <ele>278.6</ele>
        <time>2018-03-30T09:05:14Z</time>
      </trkpt>
      <trkpt lat="38.3990290" lon="-0.6661970">
        <ele>278.8</ele>
        <time>2018-03-30T09:05:15Z</time>
      </trkpt>
      <trkpt lat="38.3989830" lon="-0.6662260">
        <ele>278.9</ele>
        <time>2018-03-30T09:05:16Z</time>
      </trkpt>
      <trkpt lat="38.3989400" lon="-0.6662600">
        <ele>279.1</ele>
        <time>2018-03-30T09:05:17Z</time>
      </trkpt>
      <trkpt lat="38.3988990" lon="-0.6662970">
        <ele>279.4</ele>
        <time>2018-03-30T09:05:18Z</time>
      </trkpt>
      <trkpt lat="38.3988600" lon="-0.6663350">
        <ele>279.7</ele>
        <time>2018-03-30T09:05:19Z</time>
      </trkpt>
      <trkpt lat="38.3988200" lon="-0.6663770">
        <ele>279.9</ele>
        <time>2018-03-30T09:05:20Z</time>
      </trkpt>
      <trkpt lat="38.3987820" lon="-0.6664180">
        <ele>280.2</ele>
        <time>2018-03-30T09:05:21Z</time>
      </trkpt>
      <trkpt lat="38.3987440" lon="-0.6664610">
        <ele>280.5</ele>
        <time>2018-03-30T09:05:22Z</time>
      </trkpt>
      <trkpt lat="38.3987060" lon="-0.6665030">
        <ele>280.7</ele>
        <time>2018-03-30T09:05:23Z</time>
      </trkpt>
      <trkpt lat="38.3986700" lon="-0.6665440">
        <ele>281.0</ele>
        <time>2018-03-30T09:05:24Z</time>
      </trkpt>
      <trkpt lat="38.3986350" lon="-0.6665820">
        <ele>281.3</ele>
        <time>2018-03-30T09:05:25Z</time>
      </trkpt>
      <trkpt lat="38.3985980" lon="-0.6666210">
        <ele>281.6</ele>
        <time>2018-03-30T09:05:26Z</time>
      </trkpt>
      <trkpt lat="38.3985630" lon="-0.6666590">
        <ele>281.9</ele>
        <time>2018-03-30T09:05:27Z</time>
      </trkpt>
      <trkpt lat="38.3985290" lon="-0.6666980">
        <ele>282.1</ele>
        <time>2018-03-30T09:05:28Z</time>
      </trkpt>
      <trkpt lat="38.3984940" lon="-0.6667370">
        <ele>282.4</ele>
        <time>2018-03-30T09:05:29Z</time>
      </trkpt>
      <trkpt lat="38.3984600" lon="-0.6667740">
        <ele>282.6</ele>
        <time>2018-03-30T09:05:30Z</time>
      </trkpt>
      <trkpt lat="38.3984290" lon="-0.6668150">
        <ele>282.9</ele>
        <time>2018-03-30T09:05:31Z</time>
      </trkpt>
      <trkpt lat="38.3983990" lon="-0.6668570">
        <ele>283.1</ele>
        <time>2018-03-30T09:05:32Z</time>
      </trkpt>
      <trkpt lat="38.3983680" lon="-0.6668960">
        <ele>283.4</ele>
        <time>2018-03-30T09:05:33Z</time>
      </trkpt>
      <trkpt lat="38.3983330" lon="-0.6669340">
        <ele>283.7</ele>
        <time>2018-03-30T09:05:34Z</time>
      </trkpt>
      <trkpt lat="38.3983010" lon="-0.6669730">
        <ele>283.8</ele>
        <time>2018-03-30T09:05:35Z</time>
      </trkpt>
      <trkpt lat="38.3982670" lon="-0.6670130">
        <ele>284.0</ele>
        <time>2018-03-30T09:05:36Z</time>
      </trkpt>
      <trkpt lat="38.3982330" lon="-0.6670480">
        <ele>284.1</ele>
        <time>2018-03-30T09:05:37Z</time>
      </trkpt>
      <trkpt lat="38.3982020" lon="-0.6670880">
        <ele>284.3</ele>
        <time>2018-03-30T09:05:38Z</time>
      </trkpt>
      <trkpt lat="38.3981700" lon="-0.6671300">
        <ele>284.5</ele>
        <time>2018-03-30T09:05:39Z</time>
      </trkpt>
      <trkpt lat="38.3981360" lon="-0.6671700">
        <ele>284.7</ele>
        <time>2018-03-30T09:05:40Z</time>
      </trkpt>
      <trkpt lat="38.3981050" lon="-0.6672110">
        <ele>284.9</ele>
        <time>2018-03-30T09:05:41Z</time>
      </trkpt>
      <trkpt lat="38.3980730" lon="-0.6672480">
        <ele>285.0</ele>
        <time>2018-03-30T09:05:42Z</time>
      </trkpt>
      <trkpt lat="38.3980380" lon="-0.6672860">
        <ele>285.1</ele>
        <time>2018-03-30T09:05:43Z</time>
      </trkpt>
      <trkpt lat="38.3980070" lon="-0.6673280">
        <ele>285.2</ele>
        <time>2018-03-30T09:05:44Z</time>
      </trkpt>
      <trkpt lat="38.3979740" lon="-0.6673680">
        <ele>285.3</ele>
        <time>2018-03-30T09:05:45Z</time>
      </trkpt>
      <trkpt lat="38.3979400" lon="-0.6674080">
        <ele>285.5</ele>
        <time>2018-03-30T09:05:46Z</time>
      </trkpt>
      <trkpt lat="38.3979070" lon="-0.6674480">
        <ele>285.7</ele>
        <time>2018-03-30T09:05:47Z</time>
      </trkpt>
      <trkpt lat="38.3978730" lon="-0.6674890">
        <ele>285.8</ele>
        <time>2018-03-30T09:05:48Z</time>
      </trkpt>
      <trkpt lat="38.3978390" lon="-0.6675290">
        <ele>286.0</ele>
        <time>2018-03-30T09:05:49Z</time>
      </trkpt>
      <trkpt lat="38.3978060" lon="-0.6675690">
        <ele>286.2</ele>
        <time>2018-03-30T09:05:50Z</time>
      </trkpt>
      <trkpt lat="38.3977720" lon="-0.6676090">
        <ele>286.4</ele>
        <time>2018-03-30T09:05:51Z</time>
      </trkpt>
      <trkpt lat="38.3977370" lon="-0.6676490">
        <ele>286.6</ele>
        <time>2018-03-30T09:05:52Z</time>
      </trkpt>
      <trkpt lat="38.3977020" lon="-0.6676900">
        <ele>286.8</ele>
        <time>2018-03-30T09:05:53Z</time>
      </trkpt>
      <trkpt lat="38.3976670" lon="-0.6677310">
        <ele>287.0</ele>
        <time>2018-03-30T09:05:54Z</time>
      </trkpt>
      <trkpt lat="38.3976310" lon="-0.6677720">
        <ele>287.1</ele>
        <time>2018-03-30T09:05:55Z</time>
      </trkpt>
      <trkpt lat="38.3975960" lon="-0.6678140">
        <ele>287.2</ele>
        <time>2018-03-30T09:05:56Z</time>
      </trkpt>
      <trkpt lat="38.3975600" lon="-0.6678560">
        <ele>287.3</ele>
        <time>2018-03-30T09:05:57Z</time>
      </trkpt>
      <trkpt lat="38.3975250" lon="-0.6678960">
        <ele>287.5</ele>
        <time>2018-03-30T09:05:58Z</time>
      </trkpt>
      <trkpt lat="38.3974890" lon="-0.6679350">
        <ele>287.6</ele>
        <time>2018-03-30T09:05:59Z</time>
      </trkpt>
      <trkpt lat="38.3974510" lon="-0.6679730">
        <ele>287.7</ele>
        <time>2018-03-30T09:06:00Z</time>
      </trkpt>
      <trkpt lat="38.3974140" lon="-0.6680090">
        <ele>287.8</ele>
        <time>2018-03-30T09:06:01Z</time>
      </trkpt>
      <trkpt lat="38.3973750" lon="-0.6680450">
        <ele>287.9</ele>
        <time>2018-03-30T09:06:02Z</time>
      </trkpt>
      <trkpt lat="38.3973350" lon="-0.6680770">
        <ele>288.0</ele>
        <time>2018-03-30T09:06:03Z</time>
      </trkpt>
      <trkpt lat="38.3972930" lon="-0.6681050">
        <ele>288.1</ele>
        <time>2018-03-30T09:06:04Z</time>
      </trkpt>
      <trkpt lat="38.3972510" lon="-0.6681310">
        <ele>288.2</ele>
        <time>2018-03-30T09:06:05Z</time>
      </trkpt>
      <trkpt lat="38.3972050" lon="-0.6681520">
        <ele>288.4</ele>
        <time>2018-03-30T09:06:06Z</time>
      </trkpt>
      <trkpt lat="38.3971570" lon="-0.6681700">
        <ele>288.4</ele>
        <time>2018-03-30T09:06:07Z</time>
      </trkpt>
      <trkpt lat="38.3971080" lon="-0.6681840">
        <ele>288.4</ele>
        <time>2018-03-30T09:06:08Z</time>
      </trkpt>
      <trkpt lat="38.3970580" lon="-0.6681970">
        <ele>288.4</ele>
        <time>2018-03-30T09:06:09Z</time>
      </trkpt>
      <trkpt lat="38.3970080" lon="-0.6682080">
        <ele>288.4</ele>
        <time>2018-03-30T09:06:10Z</time>
      </trkpt>
      <trkpt lat="38.3969560" lon="-0.6682180">
        <ele>288.4</ele>
        <time>2018-03-30T09:06:11Z</time>
      </trkpt>
      <trkpt lat="38.3969020" lon="-0.6682280">
        <ele>288.4</ele>
        <time>2018-03-30T09:06:12Z</time>
      </trkpt>
      <trkpt lat="38.3968480" lon="-0.6682390">
        <ele>288.4</ele>
        <time>2018-03-30T09:06:13Z</time>
      </trkpt>
      <trkpt lat="38.3967920" lon="-0.6682510">
        <ele>288.3</ele>
        <time>2018-03-30T09:06:14Z</time>
      </trkpt>
      <trkpt lat="38.3967370" lon="-0.6682650">
        <ele>288.3</ele>
        <time>2018-03-30T09:06:15Z</time>
      </trkpt>
      <trkpt lat="38.3966820" lon="-0.6682790">
        <ele>288.3</ele>
        <time>2018-03-30T09:06:16Z</time>
      </trkpt>
      <trkpt lat="38.3966250" lon="-0.6682940">
        <ele>288.3</ele>
        <time>2018-03-30T09:06:17Z</time>
      </trkpt>
      <trkpt lat="38.3965670" lon="-0.6683100">
        <ele>288.2</ele>
        <time>2018-03-30T09:06:18Z</time>
      </trkpt>
      <trkpt lat="38.3965080" lon="-0.6683280">
        <ele>288.2</ele>
        <time>2018-03-30T09:06:19Z</time>
      </trkpt>
      <trkpt lat="38.3964480" lon="-0.6683460">
        <ele>288.1</ele>
        <time>2018-03-30T09:06:20Z</time>
      </trkpt>
      <trkpt lat="38.3963870" lon="-0.6683640">
        <ele>288.1</ele>
        <time>2018-03-30T09:06:21Z</time>
      </trkpt>
      <trkpt lat="38.3963270" lon="-0.6683830">
        <ele>288.1</ele>
        <time>2018-03-30T09:06:22Z</time>
      </trkpt>
      <trkpt lat="38.3962680" lon="-0.6684070">
        <ele>288.0</ele>
        <time>2018-03-30T09:06:23Z</time>
      </trkpt>
      <trkpt lat="38.3962070" lon="-0.6684300">
        <ele>288.0</ele>
        <time>2018-03-30T09:06:24Z</time>
      </trkpt>
      <trkpt lat="38.3961460" lon="-0.6684580">
        <ele>287.9</ele>
        <time>2018-03-30T09:06:25Z</time>
      </trkpt>
      <trkpt lat="38.3960860" lon="-0.6684930">
        <ele>287.7</ele>
        <time>2018-03-30T09:06:26Z</time>
      </trkpt>
      <trkpt lat="38.3960290" lon="-0.6685300">
        <ele>287.6</ele>
        <time>2018-03-30T09:06:27Z</time>
      </trkpt>
      <trkpt lat="38.3959740" lon="-0.6685720">
        <ele>287.5</ele>
        <time>2018-03-30T09:06:28Z</time>
      </trkpt>
      <trkpt lat="38.3959190" lon="-0.6686150">
        <ele>287.4</ele>
        <time>2018-03-30T09:06:29Z</time>
      </trkpt>
      <trkpt lat="38.3958640" lon="-0.6686570">
        <ele>287.3</ele>
        <time>2018-03-30T09:06:30Z</time>
      </trkpt>
      <trkpt lat="38.3958100" lon="-0.6687020">
        <ele>287.2</ele>
        <time>2018-03-30T09:06:31Z</time>
      </trkpt>
      <trkpt lat="38.3957570" lon="-0.6687450">
        <ele>287.1</ele>
        <time>2018-03-30T09:06:32Z</time>
      </trkpt>
      <trkpt lat="38.3957030" lon="-0.6687880">
        <ele>287.1</ele>
        <time>2018-03-30T09:06:33Z</time>
      </trkpt>
      <trkpt lat="38.3956470" lon="-0.6688290">
        <ele>287.0</ele>
        <time>2018-03-30T09:06:34Z</time>
      </trkpt>
      <trkpt lat="38.3955910" lon="-0.6688670">
        <ele>286.9</ele>
        <time>2018-03-30T09:06:35Z</time>
      </trkpt>
      <trkpt lat="38.3955330" lon="-0.6689030">
        <ele>286.8</ele>
        <time>2018-03-30T09:06:36Z</time>
      </trkpt>
      <trkpt lat="38.3954740" lon="-0.6689380">
        <ele>286.7</ele>
        <time>2018-03-30T09:06:37Z</time>
      </trkpt>
      <trkpt lat="38.3954160" lon="-0.6689720">
        <ele>286.7</ele>
        <time>2018-03-30T09:06:38Z</time>
      </trkpt>
      <trkpt lat="38.3953570" lon="-0.6690030">
        <ele>286.6</ele>
        <time>2018-03-30T09:06:39Z</time>
      </trkpt>
      <trkpt lat="38.3952980" lon="-0.6690330">
        <ele>286.5</ele>
        <time>2018-03-30T09:06:40Z</time>
      </trkpt>
      <trkpt lat="38.3952380" lon="-0.6690630">
        <ele>286.4</ele>
        <time>2018-03-30T09:06:41Z</time>
      </trkpt>
      <trkpt lat="38.3951780" lon="-0.6690930">
        <ele>286.4</ele>
        <time>2018-03-30T09:06:42Z</time>
      </trkpt>
      <trkpt lat="38.3951190" lon="-0.6691230">
        <ele>286.3</ele>
        <time>2018-03-30T09:06:43Z</time>
      </trkpt>
      <trkpt lat="38.3950570" lon="-0.6691550">
        <ele>286.2</ele>
        <time>2018-03-30T09:06:44Z</time>
      </trkpt>
      <trkpt lat="38.3949970" lon="-0.6691890">
        <ele>286.2</ele>
        <time>2018-03-30T09:06:45Z</time>
      </trkpt>
      <trkpt lat="38.3949390" lon="-0.6692250">
        <ele>286.1</ele>
        <time>2018-03-30T09:06:46Z</time>
      </trkpt>
      <trkpt lat="38.3948810" lon="-0.6692600">
        <ele>286.1</ele>
        <time>2018-03-30T09:06:47Z</time>
      </trkpt>
      <trkpt lat="38.3948240" lon="-0.6692970">
        <ele>286.1</ele>
        <time>2018-03-30T09:06:48Z</time>
      </trkpt>
      <trkpt lat="38.3947650" lon="-0.6693330">
        <ele>286.0</ele>
        <time>2018-03-30T09:06:49Z</time>
      </trkpt>
      <trkpt lat="38.3947080" lon="-0.6693710">
        <ele>286.0</ele>
        <time>2018-03-30T09:06:50Z</time>
      </trkpt>
      <trkpt lat="38.3946500" lon="-0.6694080">
        <ele>285.9</ele>
        <time>2018-03-30T09:06:51Z</time>
      </trkpt>
      <trkpt lat="38.3945930" lon="-0.6694450">
        <ele>285.9</ele>
        <time>2018-03-30T09:06:52Z</time>
      </trkpt>
      <trkpt lat="38.3945370" lon="-0.6694820">
        <ele>285.8</ele>
        <time>2018-03-30T09:06:53Z</time>
      </trkpt>
      <trkpt lat="38.3944800" lon="-0.6695200">
        <ele>285.7</ele>
        <time>2018-03-30T09:06:54Z</time>
      </trkpt>
      <trkpt lat="38.3944220" lon="-0.6695550">
        <ele>285.7</ele>
        <time>2018-03-30T09:06:55Z</time>
      </trkpt>
      <trkpt lat="38.3943650" lon="-0.6695910">
        <ele>285.6</ele>
        <time>2018-03-30T09:06:56Z</time>
      </trkpt>
      <trkpt lat="38.3943080" lon="-0.6696300">
        <ele>285.6</ele>
        <time>2018-03-30T09:06:57Z</time>
      </trkpt>
      <trkpt lat="38.3942520" lon="-0.6696680">
        <ele>285.5</ele>
        <time>2018-03-30T09:06:58Z</time>
      </trkpt>
      <trkpt lat="38.3941960" lon="-0.6697050">
        <ele>285.5</ele>
        <time>2018-03-30T09:06:59Z</time>
      </trkpt>
      <trkpt lat="38.3941410" lon="-0.6697410">
        <ele>285.5</ele>
        <time>2018-03-30T09:07:00Z</time>
      </trkpt>
      <trkpt lat="38.3940860" lon="-0.6697770">
        <ele>285.4</ele>
        <time>2018-03-30T09:07:01Z</time>
      </trkpt>
      <trkpt lat="38.3940330" lon="-0.6698150">
        <ele>285.4</ele>
        <time>2018-03-30T09:07:02Z</time>
      </trkpt>
      <trkpt lat="38.3939810" lon="-0.6698530">
        <ele>285.3</ele>
        <time>2018-03-30T09:07:03Z</time>
      </trkpt>
      <trkpt lat="38.3939280" lon="-0.6698900">
        <ele>285.3</ele>
        <time>2018-03-30T09:07:04Z</time>
      </trkpt>
      <trkpt lat="38.3938760" lon="-0.6699260">
        <ele>285.2</ele>
        <time>2018-03-30T09:07:05Z</time>
      </trkpt>
      <trkpt lat="38.3938230" lon="-0.6699620">
        <ele>285.1</ele>
        <time>2018-03-30T09:07:06Z</time>
      </trkpt>
      <trkpt lat="38.3937710" lon="-0.6699960">
        <ele>285.0</ele>
        <time>2018-03-30T09:07:07Z</time>
      </trkpt>
      <trkpt lat="38.3937190" lon="-0.6700310">
        <ele>285.0</ele>
        <time>2018-03-30T09:07:08Z</time>
      </trkpt>
      <trkpt lat="38.3936660" lon="-0.6700640">
        <ele>284.9</ele>
        <time>2018-03-30T09:07:09Z</time>
      </trkpt>
      <trkpt lat="38.3936140" lon="-0.6700970">
        <ele>284.9</ele>
        <time>2018-03-30T09:07:10Z</time>
      </trkpt>
      <trkpt lat="38.3935620" lon="-0.6701310">
        <ele>284.9</ele>
        <time>2018-03-30T09:07:11Z</time>
      </trkpt>
      <trkpt lat="38.3935110" lon="-0.6701660">
        <ele>284.9</ele>
        <time>2018-03-30T09:07:12Z</time>
      </trkpt>
      <trkpt lat="38.3934620" lon="-0.6702030">
        <ele>284.9</ele>
        <time>2018-03-30T09:07:13Z</time>
      </trkpt>
      <trkpt lat="38.3934120" lon="-0.6702400">
        <ele>284.9</ele>
        <time>2018-03-30T09:07:14Z</time>
      </trkpt>
      <trkpt lat="38.3933630" lon="-0.6702760">
        <ele>284.9</ele>
        <time>2018-03-30T09:07:15Z</time>
      </trkpt>
      <trkpt lat="38.3933130" lon="-0.6703120">
        <ele>284.9</ele>
        <time>2018-03-30T09:07:16Z</time>
      </trkpt>
      <trkpt lat="38.3932640" lon="-0.6703490">
        <ele>284.9</ele>
        <time>2018-03-30T09:07:17Z</time>
      </trkpt>
      <trkpt lat="38.3932140" lon="-0.6703850">
        <ele>285.0</ele>
        <time>2018-03-30T09:07:18Z</time>
      </trkpt>
      <trkpt lat="38.3931640" lon="-0.6704190">
        <ele>285.1</ele>
        <time>2018-03-30T09:07:19Z</time>
      </trkpt>
      <trkpt lat="38.3931140" lon="-0.6704510">
        <ele>285.2</ele>
        <time>2018-03-30T09:07:20Z</time>
      </trkpt>
      <trkpt lat="38.3930630" lon="-0.6704820">
        <ele>285.3</ele>
        <time>2018-03-30T09:07:21Z</time>
      </trkpt>
      <trkpt lat="38.3930150" lon="-0.6705130">
        <ele>285.3</ele>
        <time>2018-03-30T09:07:22Z</time>
      </trkpt>
      <trkpt lat="38.3929660" lon="-0.6705500">
        <ele>285.4</ele>
        <time>2018-03-30T09:07:23Z</time>
      </trkpt>
      <trkpt lat="38.3929180" lon="-0.6705870">
        <ele>285.5</ele>
        <time>2018-03-30T09:07:24Z</time>
      </trkpt>
      <trkpt lat="38.3928700" lon="-0.6706230">
        <ele>285.6</ele>
        <time>2018-03-30T09:07:25Z</time>
      </trkpt>
      <trkpt lat="38.3928230" lon="-0.6706580">
        <ele>285.7</ele>
        <time>2018-03-30T09:07:26Z</time>
      </trkpt>
      <trkpt lat="38.3927750" lon="-0.6706920">
        <ele>286.0</ele>
        <time>2018-03-30T09:07:27Z</time>
      </trkpt>
      <trkpt lat="38.3927270" lon="-0.6707230">
        <ele>286.3</ele>
        <time>2018-03-30T09:07:28Z</time>
      </trkpt>
      <trkpt lat="38.3926790" lon="-0.6707520">
        <ele>286.5</ele>
        <time>2018-03-30T09:07:29Z</time>
      </trkpt>
      <trkpt lat="38.3926300" lon="-0.6707790">
        <ele>286.7</ele>
        <time>2018-03-30T09:07:30Z</time>
      </trkpt>
      <trkpt lat="38.3925800" lon="-0.6708060">
        <ele>286.9</ele>
        <time>2018-03-30T09:07:31Z</time>
      </trkpt>
      <trkpt lat="38.3925320" lon="-0.6708280">
        <ele>287.1</ele>
        <time>2018-03-30T09:07:32Z</time>
      </trkpt>
      <trkpt lat="38.3924810" lon="-0.6708480">
        <ele>287.2</ele>
        <time>2018-03-30T09:07:33Z</time>
      </trkpt>
      <trkpt lat="38.3924300" lon="-0.6708640">
        <ele>287.4</ele>
        <time>2018-03-30T09:07:34Z</time>
      </trkpt>
      <trkpt lat="38.3923790" lon="-0.6708810">
        <ele>287.6</ele>
        <time>2018-03-30T09:07:35Z</time>
      </trkpt>
      <trkpt lat="38.3923260" lon="-0.6708960">
        <ele>287.9</ele>
        <time>2018-03-30T09:07:36Z</time>
      </trkpt>
      <trkpt lat="38.3922730" lon="-0.6709080">
        <ele>288.2</ele>
        <time>2018-03-30T09:07:37Z</time>
      </trkpt>
      <trkpt lat="38.3922180" lon="-0.6709180">
        <ele>288.4</ele>
        <time>2018-03-30T09:07:38Z</time>
      </trkpt>
      <trkpt lat="38.3921630" lon="-0.6709260">
        <ele>288.6</ele>
        <time>2018-03-30T09:07:39Z</time>
      </trkpt>
      <trkpt lat="38.3921080" lon="-0.6709310">
        <ele>288.7</ele>
        <time>2018-03-30T09:07:40Z</time>
      </trkpt>
      <trkpt lat="38.3920530" lon="-0.6709270">
        <ele>288.8</ele>
        <time>2018-03-30T09:07:41Z</time>
      </trkpt>
      <trkpt lat="38.3920020" lon="-0.6709180">
        <ele>289.0</ele>
        <time>2018-03-30T09:07:42Z</time>
      </trkpt>
      <trkpt lat="38.3919510" lon="-0.6709040">
        <ele>289.1</ele>
        <time>2018-03-30T09:07:43Z</time>
      </trkpt>
      <trkpt lat="38.3919000" lon="-0.6708920">
        <ele>289.1</ele>
        <time>2018-03-30T09:07:44Z</time>
      </trkpt>
      <trkpt lat="38.3918490" lon="-0.6708820">
        <ele>289.2</ele>
        <time>2018-03-30T09:07:45Z</time>
      </trkpt>
      <trkpt lat="38.3917980" lon="-0.6708730">
        <ele>289.2</ele>
        <time>2018-03-30T09:07:46Z</time>
      </trkpt>
      <trkpt lat="38.3917480" lon="-0.6708640">
        <ele>289.3</ele>
        <time>2018-03-30T09:07:47Z</time>
      </trkpt>
      <trkpt lat="38.3917000" lon="-0.6708570">
        <ele>289.3</ele>
        <time>2018-03-30T09:07:48Z</time>
      </trkpt>
      <trkpt lat="38.3916530" lon="-0.6708530">
        <ele>289.3</ele>
        <time>2018-03-30T09:07:49Z</time>
      </trkpt>
      <trkpt lat="38.3916060" lon="-0.6708520">
        <ele>289.4</ele>
        <time>2018-03-30T09:07:50Z</time>
      </trkpt>
      <trkpt lat="38.3915570" lon="-0.6708510">
        <ele>289.4</ele>
        <time>2018-03-30T09:07:51Z</time>
      </trkpt>
      <trkpt lat="38.3915060" lon="-0.6708530">
        <ele>289.5</ele>
        <time>2018-03-30T09:07:52Z</time>
      </trkpt>
      <trkpt lat="38.3914550" lon="-0.6708590">
        <ele>289.5</ele>
        <time>2018-03-30T09:07:53Z</time>
      </trkpt>
      <trkpt lat="38.3914030" lon="-0.6708670">
        <ele>289.6</ele>
        <time>2018-03-30T09:07:54Z</time>
      </trkpt>
      <trkpt lat="38.3913500" lon="-0.6708730">
        <ele>289.7</ele>
        <time>2018-03-30T09:07:55Z</time>
      </trkpt>
      <trkpt lat="38.3912980" lon="-0.6708730">
        <ele>289.8</ele>
        <time>2018-03-30T09:07:56Z</time>
      </trkpt>
      <trkpt lat="38.3912440" lon="-0.6708750">
        <ele>289.9</ele>
        <time>2018-03-30T09:07:57Z</time>
      </trkpt>
      <trkpt lat="38.3911910" lon="-0.6708820">
        <ele>290.0</ele>
        <time>2018-03-30T09:07:58Z</time>
      </trkpt>
      <trkpt lat="38.3911370" lon="-0.6708870">
        <ele>290.2</ele>
        <time>2018-03-30T09:07:59Z</time>
      </trkpt>
      <trkpt lat="38.3910840" lon="-0.6708890">
        <ele>290.4</ele>
        <time>2018-03-30T09:08:00Z</time>
      </trkpt>
      <trkpt lat="38.3910320" lon="-0.6708830">
        <ele>290.6</ele>
        <time>2018-03-30T09:08:01Z</time>
      </trkpt>
      <trkpt lat="38.3909800" lon="-0.6708720">
        <ele>290.7</ele>
        <time>2018-03-30T09:08:02Z</time>
      </trkpt>
      <trkpt lat="38.3909290" lon="-0.6708570">
        <ele>290.8</ele>
        <time>2018-03-30T09:08:03Z</time>
      </trkpt>
      <trkpt lat="38.3908800" lon="-0.6708360">
        <ele>291.0</ele>
        <time>2018-03-30T09:08:04Z</time>
      </trkpt>
      <trkpt lat="38.3908330" lon="-0.6708130">
        <ele>291.2</ele>
        <time>2018-03-30T09:08:05Z</time>
      </trkpt>
      <trkpt lat="38.3907870" lon="-0.6707880">
        <ele>291.3</ele>
        <time>2018-03-30T09:08:06Z</time>
      </trkpt>
      <trkpt lat="38.3907420" lon="-0.6707650">
        <ele>291.4</ele>
        <time>2018-03-30T09:08:07Z</time>
      </trkpt>
      <trkpt lat="38.3906950" lon="-0.6707460">
        <ele>291.5</ele>
        <time>2018-03-30T09:08:08Z</time>
      </trkpt>
      <trkpt lat="38.3906510" lon="-0.6707260">
        <ele>291.6</ele>
        <time>2018-03-30T09:08:09Z</time>
      </trkpt>
      <trkpt lat="38.3906080" lon="-0.6707120">
        <ele>291.6</ele>
        <time>2018-03-30T09:08:10Z</time>
      </trkpt>
      <trkpt lat="38.3905650" lon="-0.6707040">
        <ele>291.6</ele>
        <time>2018-03-30T09:08:11Z</time>
      </trkpt>
      <trkpt lat="38.3905210" lon="-0.6707030">
        <ele>291.6</ele>
        <time>2018-03-30T09:08:12Z</time>
      </trkpt>
      <trkpt lat="38.3904790" lon="-0.6707090">
        <ele>291.6</ele>
        <time>2018-03-30T09:08:13Z</time>
      </trkpt>
      <trkpt lat="38.3904420" lon="-0.6707230">
        <ele>291.6</ele>
        <time>2018-03-30T09:08:14Z</time>
      </trkpt>
      <trkpt lat="38.3904000" lon="-0.6707440">
        <ele>291.6</ele>
        <time>2018-03-30T09:08:15Z</time>
      </trkpt>
      <trkpt lat="38.3903590" lon="-0.6707720">
        <ele>291.6</ele>
        <time>2018-03-30T09:08:16Z</time>
      </trkpt>
      <trkpt lat="38.3903180" lon="-0.6708020">
        <ele>291.6</ele>
        <time>2018-03-30T09:08:17Z</time>
      </trkpt>
      <trkpt lat="38.3902750" lon="-0.6708330">
        <ele>291.6</ele>
        <time>2018-03-30T09:08:18Z</time>
      </trkpt>
      <trkpt lat="38.3902310" lon="-0.6708680">
        <ele>291.6</ele>
        <time>2018-03-30T09:08:19Z</time>
      </trkpt>
      <trkpt lat="38.3901890" lon="-0.6709070">
        <ele>291.6</ele>
        <time>2018-03-30T09:08:20Z</time>
      </trkpt>
      <trkpt lat="38.3901450" lon="-0.6709460">
        <ele>291.6</ele>
        <time>2018-03-30T09:08:21Z</time>
      </trkpt>
      <trkpt lat="38.3901020" lon="-0.6709860">
        <ele>291.6</ele>
        <time>2018-03-30T09:08:22Z</time>
      </trkpt>
      <trkpt lat="38.3900590" lon="-0.6710290">
        <ele>291.6</ele>
        <time>2018-03-30T09:08:23Z</time>
      </trkpt>
      <trkpt lat="38.3900170" lon="-0.6710730">
        <ele>291.6</ele>
        <time>2018-03-30T09:08:24Z</time>
      </trkpt>
      <trkpt lat="38.3899760" lon="-0.6711160">
        <ele>291.6</ele>
        <time>2018-03-30T09:08:25Z</time>
      </trkpt>
      <trkpt lat="38.3899340" lon="-0.6711590">
        <ele>291.6</ele>
        <time>2018-03-30T09:08:26Z</time>
      </trkpt>
      <trkpt lat="38.3898920" lon="-0.6712030">
        <ele>291.6</ele>
        <time>2018-03-30T09:08:27Z</time>
      </trkpt>
      <trkpt lat="38.3898510" lon="-0.6712460">
        <ele>291.6</ele>
        <time>2018-03-30T09:08:28Z</time>
      </trkpt>
      <trkpt lat="38.3898100" lon="-0.6712890">
        <ele>291.6</ele>
        <time>2018-03-30T09:08:29Z</time>
      </trkpt>
      <trkpt lat="38.3897690" lon="-0.6713350">
        <ele>291.6</ele>
        <time>2018-03-30T09:08:30Z</time>
      </trkpt>
      <trkpt lat="38.3897270" lon="-0.6713810">
        <ele>291.6</ele>
        <time>2018-03-30T09:08:31Z</time>
      </trkpt>
      <trkpt lat="38.3896860" lon="-0.6714290">
        <ele>291.6</ele>
        <time>2018-03-30T09:08:32Z</time>
      </trkpt>
      <trkpt lat="38.3896460" lon="-0.6714780">
        <ele>291.6</ele>
        <time>2018-03-30T09:08:33Z</time>
      </trkpt>
      <trkpt lat="38.3896050" lon="-0.6715250">
        <ele>291.6</ele>
        <time>2018-03-30T09:08:34Z</time>
      </trkpt>
      <trkpt lat="38.3895640" lon="-0.6715710">
        <ele>291.6</ele>
        <time>2018-03-30T09:08:35Z</time>
      </trkpt>
      <trkpt lat="38.3895240" lon="-0.6716190">
        <ele>291.6</ele>
        <time>2018-03-30T09:08:36Z</time>
      </trkpt>
      <trkpt lat="38.3894830" lon="-0.6716680">
        <ele>291.6</ele>
        <time>2018-03-30T09:08:37Z</time>
      </trkpt>
      <trkpt lat="38.3894430" lon="-0.6717160">
        <ele>291.6</ele>
        <time>2018-03-30T09:08:38Z</time>
      </trkpt>
      <trkpt lat="38.3894020" lon="-0.6717640">
        <ele>291.6</ele>
        <time>2018-03-30T09:08:39Z</time>
      </trkpt>
      <trkpt lat="38.3893600" lon="-0.6718120">
        <ele>291.6</ele>
        <time>2018-03-30T09:08:40Z</time>
      </trkpt>
      <trkpt lat="38.3893180" lon="-0.6718580">
        <ele>291.6</ele>
        <time>2018-03-30T09:08:41Z</time>
      </trkpt>
      <trkpt lat="38.3892750" lon="-0.6719050">
        <ele>291.6</ele>
        <time>2018-03-30T09:08:42Z</time>
      </trkpt>
      <trkpt lat="38.3892330" lon="-0.6719510">
        <ele>291.6</ele>
        <time>2018-03-30T09:08:43Z</time>
      </trkpt>
      <trkpt lat="38.3891910" lon="-0.6719990">
        <ele>291.7</ele>
        <time>2018-03-30T09:08:44Z</time>
      </trkpt>
      <trkpt lat="38.3891490" lon="-0.6720470">
        <ele>291.7</ele>
        <time>2018-03-30T09:08:45Z</time>
      </trkpt>
      <trkpt lat="38.3891060" lon="-0.6720950">
        <ele>291.7</ele>
        <time>2018-03-30T09:08:46Z</time>
      </trkpt>
      <trkpt lat="38.3890630" lon="-0.6721410">
        <ele>291.7</ele>
        <time>2018-03-30T09:08:47Z</time>
      </trkpt>
      <trkpt lat="38.3890200" lon="-0.6721880">
        <ele>291.7</ele>
        <time>2018-03-30T09:08:48Z</time>
      </trkpt>
      <trkpt lat="38.3889780" lon="-0.6722350">
        <ele>291.7</ele>
        <time>2018-03-30T09:08:49Z</time>
      </trkpt>
      <trkpt lat="38.3889360" lon="-0.6722830">
        <ele>291.7</ele>
        <time>2018-03-30T09:08:50Z</time>
      </trkpt>
      <trkpt lat="38.3888930" lon="-0.6723320">
        <ele>291.7</ele>
        <time>2018-03-30T09:08:51Z</time>
      </trkpt>
      <trkpt lat="38.3888490" lon="-0.6723810">
        <ele>291.7</ele>
        <time>2018-03-30T09:08:52Z</time>
      </trkpt>
      <trkpt lat="38.3888060" lon="-0.6724290">
        <ele>291.7</ele>
        <time>2018-03-30T09:08:53Z</time>
      </trkpt>
      <trkpt lat="38.3887650" lon="-0.6724790">
        <ele>291.7</ele>
        <time>2018-03-30T09:08:54Z</time>
      </trkpt>
      <trkpt lat="38.3887260" lon="-0.6725300">
        <ele>291.7</ele>
        <time>2018-03-30T09:08:55Z</time>
      </trkpt>
      <trkpt lat="38.3886870" lon="-0.6725810">
        <ele>291.7</ele>
        <time>2018-03-30T09:08:56Z</time>
      </trkpt>
      <trkpt lat="38.3886470" lon="-0.6726310">
        <ele>291.7</ele>
        <time>2018-03-30T09:08:57Z</time>
      </trkpt>
      <trkpt lat="38.3886100" lon="-0.6726830">
        <ele>291.8</ele>
        <time>2018-03-30T09:08:58Z</time>
      </trkpt>
      <trkpt lat="38.3885740" lon="-0.6727380">
        <ele>291.8</ele>
        <time>2018-03-30T09:08:59Z</time>
      </trkpt>
      <trkpt lat="38.3885390" lon="-0.6727930">
        <ele>291.8</ele>
        <time>2018-03-30T09:09:00Z</time>
      </trkpt>
      <trkpt lat="38.3885070" lon="-0.6728490">
        <ele>291.9</ele>
        <time>2018-03-30T09:09:01Z</time>
      </trkpt>
      <trkpt lat="38.3884740" lon="-0.6729050">
        <ele>291.9</ele>
        <time>2018-03-30T09:09:02Z</time>
      </trkpt>
      <trkpt lat="38.3884430" lon="-0.6729620">
        <ele>292.0</ele>
        <time>2018-03-30T09:09:03Z</time>
      </trkpt>
      <trkpt lat="38.3884120" lon="-0.6730180">
        <ele>292.0</ele>
        <time>2018-03-30T09:09:04Z</time>
      </trkpt>
      <trkpt lat="38.3883820" lon="-0.6730720">
        <ele>292.1</ele>
        <time>2018-03-30T09:09:05Z</time>
      </trkpt>
      <trkpt lat="38.3883500" lon="-0.6731250">
        <ele>292.2</ele>
        <time>2018-03-30T09:09:06Z</time>
      </trkpt>
      <trkpt lat="38.3883220" lon="-0.6731770">
        <ele>292.2</ele>
        <time>2018-03-30T09:09:07Z</time>
      </trkpt>
      <trkpt lat="38.3882910" lon="-0.6732310">
        <ele>292.2</ele>
        <time>2018-03-30T09:09:08Z</time>
      </trkpt>
      <trkpt lat="38.3882600" lon="-0.6732850">
        <ele>292.3</ele>
        <time>2018-03-30T09:09:09Z</time>
      </trkpt>
      <trkpt lat="38.3882290" lon="-0.6733410">
        <ele>292.3</ele>
        <time>2018-03-30T09:09:10Z</time>
      </trkpt>
      <trkpt lat="38.3881990" lon="-0.6733960">
        <ele>292.3</ele>
        <time>2018-03-30T09:09:11Z</time>
      </trkpt>
      <trkpt lat="38.3881690" lon="-0.6734520">
        <ele>292.4</ele>
        <time>2018-03-30T09:09:12Z</time>
      </trkpt>
      <trkpt lat="38.3881380" lon="-0.6735070">
        <ele>292.4</ele>
        <time>2018-03-30T09:09:13Z</time>
      </trkpt>
      <trkpt lat="38.3881070" lon="-0.6735640">
        <ele>292.4</ele>
        <time>2018-03-30T09:09:14Z</time>
      </trkpt>
      <trkpt lat="38.3880750" lon="-0.6736180">
        <ele>292.5</ele>
        <time>2018-03-30T09:09:15Z</time>
      </trkpt>
      <trkpt lat="38.3880440" lon="-0.6736740">
        <ele>292.5</ele>
        <time>2018-03-30T09:09:16Z</time>
      </trkpt>
      <trkpt lat="38.3880130" lon="-0.6737290">
        <ele>292.5</ele>
        <time>2018-03-30T09:09:17Z</time>
      </trkpt>
      <trkpt lat="38.3879840" lon="-0.6737850">
        <ele>292.5</ele>
        <time>2018-03-30T09:09:18Z</time>
      </trkpt>
      <trkpt lat="38.3879530" lon="-0.6738420">
        <ele>292.5</ele>
        <time>2018-03-30T09:09:19Z</time>
      </trkpt>
      <trkpt lat="38.3879230" lon="-0.6738970">
        <ele>292.5</ele>
        <time>2018-03-30T09:09:20Z</time>
      </trkpt>
      <trkpt lat="38.3878900" lon="-0.6739520">
        <ele>292.5</ele>
        <time>2018-03-30T09:09:21Z</time>
      </trkpt>
      <trkpt lat="38.3878570" lon="-0.6740090">
        <ele>292.5</ele>
        <time>2018-03-30T09:09:22Z</time>
      </trkpt>
      <trkpt lat="38.3878280" lon="-0.6740680">
        <ele>292.5</ele>
        <time>2018-03-30T09:09:23Z</time>
      </trkpt>
      <trkpt lat="38.3877980" lon="-0.6741250">
        <ele>292.5</ele>
        <time>2018-03-30T09:09:24Z</time>
      </trkpt>
      <trkpt lat="38.3877660" lon="-0.6741830">
        <ele>292.4</ele>
        <time>2018-03-30T09:09:25Z</time>
      </trkpt>
      <trkpt lat="38.3877340" lon="-0.6742410">
        <ele>292.4</ele>
        <time>2018-03-30T09:09:26Z</time>
      </trkpt>
      <trkpt lat="38.3877020" lon="-0.6743020">
        <ele>292.4</ele>
        <time>2018-03-30T09:09:27Z</time>
      </trkpt>
      <trkpt lat="38.3876700" lon="-0.6743610">
        <ele>292.3</ele>
        <time>2018-03-30T09:09:28Z</time>
      </trkpt>
      <trkpt lat="38.3876390" lon="-0.6744230">
        <ele>292.3</ele>
        <time>2018-03-30T09:09:29Z</time>
      </trkpt>
      <trkpt lat="38.3876090" lon="-0.6744850">
        <ele>292.3</ele>
        <time>2018-03-30T09:09:30Z</time>
      </trkpt>
      <trkpt lat="38.3875800" lon="-0.6745450">
        <ele>292.2</ele>
        <time>2018-03-30T09:09:31Z</time>
      </trkpt>
      <trkpt lat="38.3875500" lon="-0.6746050">
        <ele>292.2</ele>
        <time>2018-03-30T09:09:32Z</time>
      </trkpt>
      <trkpt lat="38.3875190" lon="-0.6746630">
        <ele>292.1</ele>
        <time>2018-03-30T09:09:33Z</time>
      </trkpt>
      <trkpt lat="38.3874910" lon="-0.6747210">
        <ele>292.1</ele>
        <time>2018-03-30T09:09:34Z</time>
      </trkpt>
      <trkpt lat="38.3874630" lon="-0.6747820">
        <ele>292.0</ele>
        <time>2018-03-30T09:09:35Z</time>
      </trkpt>
      <trkpt lat="38.3874340" lon="-0.6748470">
        <ele>291.9</ele>
        <time>2018-03-30T09:09:36Z</time>
      </trkpt>
      <trkpt lat="38.3874080" lon="-0.6749110">
        <ele>291.8</ele>
        <time>2018-03-30T09:09:37Z</time>
      </trkpt>
      <trkpt lat="38.3873870" lon="-0.6749770">
        <ele>291.8</ele>
        <time>2018-03-30T09:09:38Z</time>
      </trkpt>
      <trkpt lat="38.3873700" lon="-0.6750470">
        <ele>291.7</ele>
        <time>2018-03-30T09:09:39Z</time>
      </trkpt>
      <trkpt lat="38.3873560" lon="-0.6751140">
        <ele>291.6</ele>
        <time>2018-03-30T09:09:40Z</time>
      </trkpt>
      <trkpt lat="38.3873500" lon="-0.6751860">
        <ele>291.5</ele>
        <time>2018-03-30T09:09:41Z</time>
      </trkpt>
      <trkpt lat="38.3873480" lon="-0.6752590">
        <ele>291.5</ele>
        <time>2018-03-30T09:09:42Z</time>
      </trkpt>
      <trkpt lat="38.3873460" lon="-0.6753290">
        <ele>291.4</ele>
        <time>2018-03-30T09:09:43Z</time>
      </trkpt>
      <trkpt lat="38.3873400" lon="-0.6754040">
        <ele>291.4</ele>
        <time>2018-03-30T09:09:44Z</time>
      </trkpt>
      <trkpt lat="38.3873300" lon="-0.6754740">
        <ele>291.3</ele>
        <time>2018-03-30T09:09:45Z</time>
      </trkpt>
      <trkpt lat="38.3873170" lon="-0.6755440">
        <ele>291.3</ele>
        <time>2018-03-30T09:09:46Z</time>
      </trkpt>
      <trkpt lat="38.3873030" lon="-0.6756140">
        <ele>291.3</ele>
        <time>2018-03-30T09:09:47Z</time>
      </trkpt>
      <trkpt lat="38.3872890" lon="-0.6756840">
        <ele>291.3</ele>
        <time>2018-03-30T09:09:48Z</time>
      </trkpt>
      <trkpt lat="38.3872730" lon="-0.6757540">
        <ele>291.2</ele>
        <time>2018-03-30T09:09:49Z</time>
      </trkpt>
      <trkpt lat="38.3872560" lon="-0.6758230">
        <ele>291.2</ele>
        <time>2018-03-30T09:09:50Z</time>
      </trkpt>
      <trkpt lat="38.3872400" lon="-0.6758910">
        <ele>291.2</ele>
        <time>2018-03-30T09:09:51Z</time>
      </trkpt>
      <trkpt lat="38.3872230" lon="-0.6759590">
        <ele>291.2</ele>
        <time>2018-03-30T09:09:52Z</time>
      </trkpt>
      <trkpt lat="38.3872040" lon="-0.6760240">
        <ele>291.2</ele>
        <time>2018-03-30T09:09:53Z</time>
      </trkpt>
      <trkpt lat="38.3871850" lon="-0.6760900">
        <ele>291.2</ele>
        <time>2018-03-30T09:09:54Z</time>
      </trkpt>
      <trkpt lat="38.3871650" lon="-0.6761540">
        <ele>291.2</ele>
        <time>2018-03-30T09:09:55Z</time>
      </trkpt>
      <trkpt lat="38.3871440" lon="-0.6762190">
        <ele>291.2</ele>
        <time>2018-03-30T09:09:56Z</time>
      </trkpt>
      <trkpt lat="38.3871220" lon="-0.6762830">
        <ele>291.2</ele>
        <time>2018-03-30T09:09:57Z</time>
      </trkpt>
      <trkpt lat="38.3871000" lon="-0.6763470">
        <ele>291.2</ele>
        <time>2018-03-30T09:09:58Z</time>
      </trkpt>
      <trkpt lat="38.3870770" lon="-0.6764060">
        <ele>291.2</ele>
        <time>2018-03-30T09:09:59Z</time>
      </trkpt>
      <trkpt lat="38.3870530" lon="-0.6764670">
        <ele>291.2</ele>
        <time>2018-03-30T09:10:00Z</time>
      </trkpt>
      <trkpt lat="38.3870310" lon="-0.6765270">
        <ele>291.2</ele>
        <time>2018-03-30T09:10:01Z</time>
      </trkpt>
      <trkpt lat="38.3870090" lon="-0.6765880">
        <ele>291.2</ele>
        <time>2018-03-30T09:10:02Z</time>
      </trkpt>
      <trkpt lat="38.3869880" lon="-0.6766490">
        <ele>291.3</ele>
        <time>2018-03-30T09:10:03Z</time>
      </trkpt>
      <trkpt lat="38.3869670" lon="-0.6767100">
        <ele>291.3</ele>
        <time>2018-03-30T09:10:04Z</time>
      </trkpt>
      <trkpt lat="38.3869460" lon="-0.6767720">
        <ele>291.3</ele>
        <time>2018-03-30T09:10:05Z</time>
      </trkpt>
      <trkpt lat="38.3869250" lon="-0.6768320">
        <ele>291.3</ele>
        <time>2018-03-30T09:10:06Z</time>
      </trkpt>
      <trkpt lat="38.3869040" lon="-0.6768930">
        <ele>291.3</ele>
        <time>2018-03-30T09:10:07Z</time>
      </trkpt>
      <trkpt lat="38.3868830" lon="-0.6769530">
        <ele>291.4</ele>
        <time>2018-03-30T09:10:08Z</time>
      </trkpt>
      <trkpt lat="38.3868650" lon="-0.6770110">
        <ele>291.4</ele>
        <time>2018-03-30T09:10:09Z</time>
      </trkpt>
      <trkpt lat="38.3868470" lon="-0.6770700">
        <ele>291.5</ele>
        <time>2018-03-30T09:10:10Z</time>
      </trkpt>
      <trkpt lat="38.3868290" lon="-0.6771270">
        <ele>291.5</ele>
        <time>2018-03-30T09:10:11Z</time>
      </trkpt>
      <trkpt lat="38.3868120" lon="-0.6771810">
        <ele>291.5</ele>
        <time>2018-03-30T09:10:12Z</time>
      </trkpt>
      <trkpt lat="38.3867960" lon="-0.6772320">
        <ele>291.5</ele>
        <time>2018-03-30T09:10:13Z</time>
      </trkpt>
      <trkpt lat="38.3867820" lon="-0.6772810">
        <ele>291.6</ele>
        <time>2018-03-30T09:10:14Z</time>
      </trkpt>
      <trkpt lat="38.3867680" lon="-0.6773290">
        <ele>291.6</ele>
        <time>2018-03-30T09:10:15Z</time>
      </trkpt>
      <trkpt lat="38.3867530" lon="-0.6773750">
        <ele>291.6</ele>
        <time>2018-03-30T09:10:16Z</time>
      </trkpt>
      <trkpt lat="38.3867380" lon="-0.6774160">
        <ele>291.7</ele>
        <time>2018-03-30T09:10:17Z</time>
      </trkpt>
      <trkpt lat="38.3867250" lon="-0.6774580">
        <ele>291.7</ele>
        <time>2018-03-30T09:10:18Z</time>
      </trkpt>
      <trkpt lat="38.3867140" lon="-0.6774960">
        <ele>291.7</ele>
        <time>2018-03-30T09:10:19Z</time>
      </trkpt>
      <trkpt lat="38.3867030" lon="-0.6775310">
        <ele>291.7</ele>
        <time>2018-03-30T09:10:20Z</time>
      </trkpt>
      <trkpt lat="38.3866920" lon="-0.6775640">
        <ele>291.7</ele>
        <time>2018-03-30T09:10:21Z</time>
      </trkpt>
      <trkpt lat="38.3866830" lon="-0.6775940">
        <ele>291.8</ele>
        <time>2018-03-30T09:10:22Z</time>
      </trkpt>
      <trkpt lat="38.3866750" lon="-0.6776250">
        <ele>291.8</ele>
        <time>2018-03-30T09:10:23Z</time>
      </trkpt>
      <trkpt lat="38.3866680" lon="-0.6776540">
        <ele>291.8</ele>
        <time>2018-03-30T09:10:24Z</time>
      </trkpt>
      <trkpt lat="38.3866630" lon="-0.6776800">
        <ele>291.8</ele>
        <time>2018-03-30T09:10:25Z</time>
      </trkpt>
      <trkpt lat="38.3866630" lon="-0.6776990">
        <ele>291.8</ele>
        <time>2018-03-30T09:10:26Z</time>
      </trkpt>
      <trkpt lat="38.3866590" lon="-0.6777190">
        <ele>291.8</ele>
        <time>2018-03-30T09:10:27Z</time>
      </trkpt>
      <trkpt lat="38.3866530" lon="-0.6777330">
        <ele>291.8</ele>
        <time>2018-03-30T09:10:28Z</time>
      </trkpt>
      <trkpt lat="38.3866400" lon="-0.6777390">
        <ele>291.8</ele>
        <time>2018-03-30T09:10:29Z</time>
      </trkpt>
      <trkpt lat="38.3866260" lon="-0.6777430">
        <ele>291.9</ele>
        <time>2018-03-30T09:10:30Z</time>
      </trkpt>
      <trkpt lat="38.3866090" lon="-0.6777530">
        <ele>291.9</ele>
        <time>2018-03-30T09:10:31Z</time>
      </trkpt>
      <trkpt lat="38.3865910" lon="-0.6777610">
        <ele>292.0</ele>
        <time>2018-03-30T09:10:32Z</time>
      </trkpt>
      <trkpt lat="38.3865710" lon="-0.6777650">
        <ele>292.1</ele>
        <time>2018-03-30T09:10:33Z</time>
      </trkpt>
      <trkpt lat="38.3865500" lon="-0.6777560">
        <ele>292.1</ele>
        <time>2018-03-30T09:10:34Z</time>
      </trkpt>
      <trkpt lat="38.3865350" lon="-0.6777350">
        <ele>292.1</ele>
        <time>2018-03-30T09:10:35Z</time>
      </trkpt>
      <trkpt lat="38.3865230" lon="-0.6777100">
        <ele>292.1</ele>
        <time>2018-03-30T09:10:36Z</time>
      </trkpt>
      <trkpt lat="38.3865040" lon="-0.6776820">
        <ele>292.1</ele>
        <time>2018-03-30T09:10:37Z</time>
      </trkpt>
      <trkpt lat="38.3864810" lon="-0.6776470">
        <ele>292.2</ele>
        <time>2018-03-30T09:10:38Z</time>
      </trkpt>
      <trkpt lat="38.3864580" lon="-0.6776040">
        <ele>292.2</ele>
        <time>2018-03-30T09:10:39Z</time>
      </trkpt>
      <trkpt lat="38.3864340" lon="-0.6775580">
        <ele>292.3</ele>
        <time>2018-03-30T09:10:40Z</time>
      </trkpt>
      <trkpt lat="38.3864070" lon="-0.6775030">
        <ele>292.3</ele>
        <time>2018-03-30T09:10:41Z</time>
      </trkpt>
      <trkpt lat="38.3863770" lon="-0.6774360">
        <ele>292.4</ele>
        <time>2018-03-30T09:10:42Z</time>
      </trkpt>
      <trkpt lat="38.3863370" lon="-0.6773670">
        <ele>292.4</ele>
        <time>2018-03-30T09:10:43Z</time>
      </trkpt>
      <trkpt lat="38.3863020" lon="-0.6773030">
        <ele>292.4</ele>
        <time>2018-03-30T09:10:44Z</time>
      </trkpt>
      <trkpt lat="38.3862740" lon="-0.6772440">
        <ele>292.5</ele>
        <time>2018-03-30T09:10:45Z</time>
      </trkpt>
      <trkpt lat="38.3862450" lon="-0.6771850">
        <ele>292.6</ele>
        <time>2018-03-30T09:10:46Z</time>
      </trkpt>
      <trkpt lat="38.3862150" lon="-0.6771260">
        <ele>292.7</ele>
        <time>2018-03-30T09:10:47Z</time>
      </trkpt>
      <trkpt lat="38.3861840" lon="-0.6770690">
        <ele>292.9</ele>
        <time>2018-03-30T09:10:48Z</time>
      </trkpt>
      <trkpt lat="38.3861550" lon="-0.6770130">
        <ele>293.1</ele>
        <time>2018-03-30T09:10:49Z</time>
      </trkpt>
      <trkpt lat="38.3861260" lon="-0.6769550">
        <ele>293.2</ele>
        <time>2018-03-30T09:10:50Z</time>
      </trkpt>
      <trkpt lat="38.3860970" lon="-0.6768950">
        <ele>293.4</ele>
        <time>2018-03-30T09:10:51Z</time>
      </trkpt>
      <trkpt lat="38.3860680" lon="-0.6768360">
        <ele>293.6</ele>
        <time>2018-03-30T09:10:52Z</time>
      </trkpt>
      <trkpt lat="38.3860400" lon="-0.6767780">
        <ele>293.8</ele>
        <time>2018-03-30T09:10:53Z</time>
      </trkpt>
      <trkpt lat="38.3860110" lon="-0.6767210">
        <ele>293.9</ele>
        <time>2018-03-30T09:10:54Z</time>
      </trkpt>
      <trkpt lat="38.3859790" lon="-0.6766660">
        <ele>294.1</ele>
        <time>2018-03-30T09:10:55Z</time>
      </trkpt>
      <trkpt lat="38.3859450" lon="-0.6766150">
        <ele>294.4</ele>
        <time>2018-03-30T09:10:56Z</time>
      </trkpt>
      <trkpt lat="38.3859080" lon="-0.6765700">
        <ele>294.6</ele>
        <time>2018-03-30T09:10:57Z</time>
      </trkpt>
      <trkpt lat="38.3858690" lon="-0.6765270">
        <ele>294.9</ele>
        <time>2018-03-30T09:10:58Z</time>
      </trkpt>
      <trkpt lat="38.3858260" lon="-0.6764880">
        <ele>295.3</ele>
        <time>2018-03-30T09:10:59Z</time>
      </trkpt>
      <trkpt lat="38.3857800" lon="-0.6764710">
        <ele>295.8</ele>
        <time>2018-03-30T09:11:00Z</time>
      </trkpt>
      <trkpt lat="38.3857370" lon="-0.6764750">
        <ele>296.2</ele>
        <time>2018-03-30T09:11:01Z</time>
      </trkpt>
      <trkpt lat="38.3856900" lon="-0.6764930">
        <ele>296.5</ele>
        <time>2018-03-30T09:11:02Z</time>
      </trkpt>
      <trkpt lat="38.3856410" lon="-0.6765180">
        <ele>296.9</ele>
        <time>2018-03-30T09:11:03Z</time>
      </trkpt>
      <trkpt lat="38.3855940" lon="-0.6765510">
        <ele>297.4</ele>
        <time>2018-03-30T09:11:04Z</time>
      </trkpt>
      <trkpt lat="38.3855490" lon="-0.6765900">
        <ele>297.6</ele>
        <time>2018-03-30T09:11:05Z</time>
      </trkpt>
      <trkpt lat="38.3855030" lon="-0.6766330">
        <ele>297.9</ele>
        <time>2018-03-30T09:11:06Z</time>
      </trkpt>
      <trkpt lat="38.3854590" lon="-0.6766780">
        <ele>298.2</ele>
        <time>2018-03-30T09:11:07Z</time>
      </trkpt>
      <trkpt lat="38.3854130" lon="-0.6767240">
        <ele>298.3</ele>
        <time>2018-03-30T09:11:08Z</time>
      </trkpt>
      <trkpt lat="38.3853670" lon="-0.6767690">
        <ele>298.5</ele>
        <time>2018-03-30T09:11:09Z</time>
      </trkpt>
      <trkpt lat="38.3853200" lon="-0.6768180">
        <ele>298.7</ele>
        <time>2018-03-30T09:11:10Z</time>
      </trkpt>
      <trkpt lat="38.3852730" lon="-0.6768680">
        <ele>299.0</ele>
        <time>2018-03-30T09:11:11Z</time>
      </trkpt>
      <trkpt lat="38.3852250" lon="-0.6769210">
        <ele>299.3</ele>
        <time>2018-03-30T09:11:12Z</time>
      </trkpt>
      <trkpt lat="38.3851750" lon="-0.6769740">
        <ele>299.5</ele>
        <time>2018-03-30T09:11:13Z</time>
      </trkpt>
      <trkpt lat="38.3851240" lon="-0.6770210">
        <ele>299.8</ele>
        <time>2018-03-30T09:11:14Z</time>
      </trkpt>
      <trkpt lat="38.3850700" lon="-0.6770570">
        <ele>300.1</ele>
        <time>2018-03-30T09:11:15Z</time>
      </trkpt>
      <trkpt lat="38.3850140" lon="-0.6770800">
        <ele>300.5</ele>
        <time>2018-03-30T09:11:16Z</time>
      </trkpt>
      <trkpt lat="38.3849580" lon="-0.6770920">
        <ele>300.9</ele>
        <time>2018-03-30T09:11:17Z</time>
      </trkpt>
      <trkpt lat="38.3849030" lon="-0.6770930">
        <ele>301.3</ele>
        <time>2018-03-30T09:11:18Z</time>
      </trkpt>
      <trkpt lat="38.3848550" lon="-0.6770880">
        <ele>301.8</ele>
        <time>2018-03-30T09:11:19Z</time>
      </trkpt>
      <trkpt lat="38.3848050" lon="-0.6770790">
        <ele>302.2</ele>
        <time>2018-03-30T09:11:20Z</time>
      </trkpt>
      <trkpt lat="38.3847550" lon="-0.6770650">
        <ele>302.6</ele>
        <time>2018-03-30T09:11:21Z</time>
      </trkpt>
      <trkpt lat="38.3847070" lon="-0.6770490">
        <ele>303.0</ele>
        <time>2018-03-30T09:11:22Z</time>
      </trkpt>
      <trkpt lat="38.3846610" lon="-0.6770290">
        <ele>303.2</ele>
        <time>2018-03-30T09:11:23Z</time>
      </trkpt>
      <trkpt lat="38.3846130" lon="-0.6770090">
        <ele>303.4</ele>
        <time>2018-03-30T09:11:24Z</time>
      </trkpt>
      <trkpt lat="38.3845680" lon="-0.6769910">
        <ele>303.6</ele>
        <time>2018-03-30T09:11:25Z</time>
      </trkpt>
      <trkpt lat="38.3845220" lon="-0.6769690">
        <ele>303.8</ele>
        <time>2018-03-30T09:11:26Z</time>
      </trkpt>
      <trkpt lat="38.3844770" lon="-0.6769430">
        <ele>303.9</ele>
        <time>2018-03-30T09:11:27Z</time>
      </trkpt>
      <trkpt lat="38.3844340" lon="-0.6769160">
        <ele>304.1</ele>
        <time>2018-03-30T09:11:28Z</time>
      </trkpt>
      <trkpt lat="38.3843930" lon="-0.6768790">
        <ele>304.2</ele>
        <time>2018-03-30T09:11:29Z</time>
      </trkpt>
      <trkpt lat="38.3843500" lon="-0.6768440">
        <ele>304.4</ele>
        <time>2018-03-30T09:11:30Z</time>
      </trkpt>
      <trkpt lat="38.3843010" lon="-0.6768130">
        <ele>304.5</ele>
        <time>2018-03-30T09:11:31Z</time>
      </trkpt>
      <trkpt lat="38.3842510" lon="-0.6767840">
        <ele>304.7</ele>
        <time>2018-03-30T09:11:32Z</time>
      </trkpt>
      <trkpt lat="38.3842010" lon="-0.6767530">
        <ele>304.9</ele>
        <time>2018-03-30T09:11:33Z</time>
      </trkpt>
      <trkpt lat="38.3841490" lon="-0.6767240">
        <ele>305.2</ele>
        <time>2018-03-30T09:11:34Z</time>
      </trkpt>
      <trkpt lat="38.3840970" lon="-0.6766960">
        <ele>305.6</ele>
        <time>2018-03-30T09:11:35Z</time>
      </trkpt>
      <trkpt lat="38.3840450" lon="-0.6766730">
        <ele>306.0</ele>
        <time>2018-03-30T09:11:36Z</time>
      </trkpt>
      <trkpt lat="38.3839930" lon="-0.6766520">
        <ele>306.3</ele>
        <time>2018-03-30T09:11:37Z</time>
      </trkpt>
      <trkpt lat="38.3839420" lon="-0.6766310">
        <ele>306.7</ele>
        <time>2018-03-30T09:11:38Z</time>
      </trkpt>
      <trkpt lat="38.3838930" lon="-0.6766070">
        <ele>307.0</ele>
        <time>2018-03-30T09:11:39Z</time>
      </trkpt>
      <trkpt lat="38.3838470" lon="-0.6765860">
        <ele>307.3</ele>
        <time>2018-03-30T09:11:40Z</time>
      </trkpt>
      <trkpt lat="38.3838010" lon="-0.6765650">
        <ele>307.6</ele>
        <time>2018-03-30T09:11:41Z</time>
      </trkpt>
      <trkpt lat="38.3837560" lon="-0.6765440">
        <ele>308.0</ele>
        <time>2018-03-30T09:11:42Z</time>
      </trkpt>
      <trkpt lat="38.3837100" lon="-0.6765240">
        <ele>308.3</ele>
        <time>2018-03-30T09:11:43Z</time>
      </trkpt>
      <trkpt lat="38.3836640" lon="-0.6765030">
        <ele>308.7</ele>
        <time>2018-03-30T09:11:44Z</time>
      </trkpt>
      <trkpt lat="38.3836190" lon="-0.6764830">
        <ele>309.0</ele>
        <time>2018-03-30T09:11:45Z</time>
      </trkpt>
      <trkpt lat="38.3835750" lon="-0.6764620">
        <ele>309.4</ele>
        <time>2018-03-30T09:11:46Z</time>
      </trkpt>
      <trkpt lat="38.3835300" lon="-0.6764420">
        <ele>309.7</ele>
        <time>2018-03-30T09:11:47Z</time>
      </trkpt>
      <trkpt lat="38.3834870" lon="-0.6764230">
        <ele>310.0</ele>
        <time>2018-03-30T09:11:48Z</time>
      </trkpt>
      <trkpt lat="38.3834430" lon="-0.6764020">
        <ele>310.2</ele>
        <time>2018-03-30T09:11:49Z</time>
      </trkpt>
      <trkpt lat="38.3834010" lon="-0.6763790">
        <ele>310.4</ele>
        <time>2018-03-30T09:11:50Z</time>
      </trkpt>
      <trkpt lat="38.3833560" lon="-0.6763590">
        <ele>310.8</ele>
        <time>2018-03-30T09:11:51Z</time>
      </trkpt>
      <trkpt lat="38.3833120" lon="-0.6763410">
        <ele>311.2</ele>
        <time>2018-03-30T09:11:52Z</time>
      </trkpt>
      <trkpt lat="38.3832680" lon="-0.6763220">
        <ele>311.6</ele>
        <time>2018-03-30T09:11:53Z</time>
      </trkpt>
      <trkpt lat="38.3832260" lon="-0.6763010">
        <ele>312.0</ele>
        <time>2018-03-30T09:11:54Z</time>
      </trkpt>
      <trkpt lat="38.3831830" lon="-0.6762790">
        <ele>312.4</ele>
        <time>2018-03-30T09:11:55Z</time>
      </trkpt>
      <trkpt lat="38.3831410" lon="-0.6762600">
        <ele>312.7</ele>
        <time>2018-03-30T09:11:56Z</time>
      </trkpt>
      <trkpt lat="38.3830970" lon="-0.6762440">
        <ele>312.8</ele>
        <time>2018-03-30T09:11:57Z</time>
      </trkpt>
      <trkpt lat="38.3830550" lon="-0.6762330">
        <ele>313.1</ele>
        <time>2018-03-30T09:11:58Z</time>
      </trkpt>
      <trkpt lat="38.3830120" lon="-0.6762190">
        <ele>313.4</ele>
        <time>2018-03-30T09:11:59Z</time>
      </trkpt>
      <trkpt lat="38.3829670" lon="-0.6762080">
        <ele>313.7</ele>
        <time>2018-03-30T09:12:00Z</time>
      </trkpt>
      <trkpt lat="38.3829250" lon="-0.6761970">
        <ele>314.0</ele>
        <time>2018-03-30T09:12:01Z</time>
      </trkpt>
      <trkpt lat="38.3828870" lon="-0.6761830">
        <ele>314.3</ele>
        <time>2018-03-30T09:12:02Z</time>
      </trkpt>
      <trkpt lat="38.3828480" lon="-0.6761660">
        <ele>314.7</ele>
        <time>2018-03-30T09:12:03Z</time>
      </trkpt>
      <trkpt lat="38.3828090" lon="-0.6761480">
        <ele>315.1</ele>
        <time>2018-03-30T09:12:04Z</time>
      </trkpt>
      <trkpt lat="38.3827690" lon="-0.6761290">
        <ele>315.6</ele>
        <time>2018-03-30T09:12:05Z</time>
      </trkpt>
      <trkpt lat="38.3827280" lon="-0.6761120">
        <ele>315.8</ele>
        <time>2018-03-30T09:12:06Z</time>
      </trkpt>
      <trkpt lat="38.3826850" lon="-0.6760960">
        <ele>316.0</ele>
        <time>2018-03-30T09:12:07Z</time>
      </trkpt>
      <trkpt lat="38.3826410" lon="-0.6760780">
        <ele>316.4</ele>
        <time>2018-03-30T09:12:08Z</time>
      </trkpt>
      <trkpt lat="38.3825980" lon="-0.6760590">
        <ele>316.9</ele>
        <time>2018-03-30T09:12:09Z</time>
      </trkpt>
      <trkpt lat="38.3825530" lon="-0.6760390">
        <ele>317.3</ele>
        <time>2018-03-30T09:12:10Z</time>
      </trkpt>
      <trkpt lat="38.3825050" lon="-0.6760140">
        <ele>317.7</ele>
        <time>2018-03-30T09:12:11Z</time>
      </trkpt>
      <trkpt lat="38.3824560" lon="-0.6759950">
        <ele>318.1</ele>
        <time>2018-03-30T09:12:12Z</time>
      </trkpt>
      <trkpt lat="38.3824110" lon="-0.6759770">
        <ele>318.3</ele>
        <time>2018-03-30T09:12:13Z</time>
      </trkpt>
      <trkpt lat="38.3823630" lon="-0.6759630">
        <ele>318.5</ele>
        <time>2018-03-30T09:12:14Z</time>
      </trkpt>
      <trkpt lat="38.3823110" lon="-0.6759490">
        <ele>318.9</ele>
        <time>2018-03-30T09:12:15Z</time>
      </trkpt>
      <trkpt lat="38.3822630" lon="-0.6759330">
        <ele>319.4</ele>
        <time>2018-03-30T09:12:16Z</time>
      </trkpt>
      <trkpt lat="38.3822130" lon="-0.6759150">
        <ele>319.7</ele>
        <time>2018-03-30T09:12:17Z</time>
      </trkpt>
      <trkpt lat="38.3821650" lon="-0.6758990">
        <ele>320.1</ele>
        <time>2018-03-30T09:12:18Z</time>
      </trkpt>
      <trkpt lat="38.3821170" lon="-0.6758870">
        <ele>320.7</ele>
        <time>2018-03-30T09:12:19Z</time>
      </trkpt>
      <trkpt lat="38.3820700" lon="-0.6758750">
        <ele>321.2</ele>
        <time>2018-03-30T09:12:20Z</time>
      </trkpt>
      <trkpt lat="38.3820260" lon="-0.6758720">
        <ele>321.8</ele>
        <time>2018-03-30T09:12:21Z</time>
      </trkpt>
      <trkpt lat="38.3819840" lon="-0.6758630">
        <ele>322.0</ele>
        <time>2018-03-30T09:12:22Z</time>
      </trkpt>
      <trkpt lat="38.3819450" lon="-0.6758570">
        <ele>322.1</ele>
        <time>2018-03-30T09:12:23Z</time>
      </trkpt>
      <trkpt lat="38.3819070" lon="-0.6758520">
        <ele>322.2</ele>
        <time>2018-03-30T09:12:24Z</time>
      </trkpt>
      <trkpt lat="38.3818730" lon="-0.6758480">
        <ele>322.3</ele>
        <time>2018-03-30T09:12:25Z</time>
      </trkpt>
      <trkpt lat="38.3818430" lon="-0.6758470">
        <ele>322.4</ele>
        <time>2018-03-30T09:12:26Z</time>
      </trkpt>
      <trkpt lat="38.3818130" lon="-0.6758490">
        <ele>322.5</ele>
        <time>2018-03-30T09:12:27Z</time>
      </trkpt>
      <trkpt lat="38.3817840" lon="-0.6758480">
        <ele>322.5</ele>
        <time>2018-03-30T09:12:28Z</time>
      </trkpt>
      <trkpt lat="38.3817550" lon="-0.6758460">
        <ele>322.7</ele>
        <time>2018-03-30T09:12:29Z</time>
      </trkpt>
      <trkpt lat="38.3817250" lon="-0.6758410">
        <ele>323.0</ele>
        <time>2018-03-30T09:12:30Z</time>
      </trkpt>
      <trkpt lat="38.3816950" lon="-0.6758360">
        <ele>323.2</ele>
        <time>2018-03-30T09:12:31Z</time>
      </trkpt>
      <trkpt lat="38.3816650" lon="-0.6758330">
        <ele>323.3</ele>
        <time>2018-03-30T09:12:32Z</time>
      </trkpt>
      <trkpt lat="38.3816350" lon="-0.6758300">
        <ele>323.3</ele>
        <time>2018-03-30T09:12:33Z</time>
      </trkpt>
      <trkpt lat="38.3816070" lon="-0.6758280">
        <ele>323.3</ele>
        <time>2018-03-30T09:12:34Z</time>
      </trkpt>
      <trkpt lat="38.3815790" lon="-0.6758250">
        <ele>323.3</ele>
        <time>2018-03-30T09:12:35Z</time>
      </trkpt>
      <trkpt lat="38.3815500" lon="-0.6758220">
        <ele>323.3</ele>
        <time>2018-03-30T09:12:36Z</time>
      </trkpt>
      <trkpt lat="38.3815230" lon="-0.6758190">
        <ele>323.3</ele>
        <time>2018-03-30T09:12:37Z</time>
      </trkpt>
      <trkpt lat="38.3814970" lon="-0.6758130">
        <ele>323.3</ele>
        <time>2018-03-30T09:12:38Z</time>
      </trkpt>
      <trkpt lat="38.3814730" lon="-0.6758080">
        <ele>323.3</ele>
        <time>2018-03-30T09:12:39Z</time>
      </trkpt>
      <trkpt lat="38.3814490" lon="-0.6758020">
        <ele>323.2</ele>
        <time>2018-03-30T09:12:40Z</time>
      </trkpt>
      <trkpt lat="38.3814240" lon="-0.6757960">
        <ele>323.3</ele>
        <time>2018-03-30T09:12:41Z</time>
      </trkpt>
      <trkpt lat="38.3813990" lon="-0.6757880">
        <ele>323.4</ele>
        <time>2018-03-30T09:12:42Z</time>
      </trkpt>
      <trkpt lat="38.3813750" lon="-0.6757760">
        <ele>323.5</ele>
        <time>2018-03-30T09:12:43Z</time>
      </trkpt>
      <trkpt lat="38.3813500" lon="-0.6757690">
        <ele>323.5</ele>
        <time>2018-03-30T09:12:44Z</time>
      </trkpt>
      <trkpt lat="38.3813270" lon="-0.6757600">
        <ele>323.5</ele>
        <time>2018-03-30T09:12:45Z</time>
      </trkpt>
      <trkpt lat="38.3813020" lon="-0.6757510">
        <ele>323.4</ele>
        <time>2018-03-30T09:12:46Z</time>
      </trkpt>
      <trkpt lat="38.3812740" lon="-0.6757420">
        <ele>323.4</ele>
        <time>2018-03-30T09:12:47Z</time>
      </trkpt>
      <trkpt lat="38.3812400" lon="-0.6757320">
        <ele>323.5</ele>
        <time>2018-03-30T09:12:48Z</time>
      </trkpt>
      <trkpt lat="38.3812060" lon="-0.6757210">
        <ele>323.7</ele>
        <time>2018-03-30T09:12:49Z</time>
      </trkpt>
      <trkpt lat="38.3811720" lon="-0.6757130">
        <ele>323.7</ele>
        <time>2018-03-30T09:12:50Z</time>
      </trkpt>
      <trkpt lat="38.3811370" lon="-0.6757070">
        <ele>323.8</ele>
        <time>2018-03-30T09:12:51Z</time>
      </trkpt>
      <trkpt lat="38.3810950" lon="-0.6757050">
        <ele>323.8</ele>
        <time>2018-03-30T09:12:52Z</time>
      </trkpt>
      <trkpt lat="38.3810470" lon="-0.6757060">
        <ele>323.9</ele>
        <time>2018-03-30T09:12:53Z</time>
      </trkpt>
      <trkpt lat="38.3809970" lon="-0.6757060">
        <ele>323.9</ele>
        <time>2018-03-30T09:12:54Z</time>
      </trkpt>
      <trkpt lat="38.3809470" lon="-0.6757040">
        <ele>324.0</ele>
        <time>2018-03-30T09:12:55Z</time>
      </trkpt>
      <trkpt lat="38.3808720" lon="-0.6757090">
        <ele>323.7</ele>
        <time>2018-03-30T09:12:56Z</time>
      </trkpt>
      <trkpt lat="38.3808030" lon="-0.6757200">
        <ele>323.3</ele>
        <time>2018-03-30T09:12:57Z</time>
      </trkpt>
      <trkpt lat="38.3807290" lon="-0.6757310">
        <ele>322.8</ele>
        <time>2018-03-30T09:12:58Z</time>
      </trkpt>
      <trkpt lat="38.3806540" lon="-0.6757450">
        <ele>322.4</ele>
        <time>2018-03-30T09:12:59Z</time>
      </trkpt>
      <trkpt lat="38.3805770" lon="-0.6757630">
        <ele>322.0</ele>
        <time>2018-03-30T09:13:00Z</time>
      </trkpt>
      <trkpt lat="38.3805000" lon="-0.6757780">
        <ele>321.6</ele>
        <time>2018-03-30T09:13:01Z</time>
      </trkpt>
      <trkpt lat="38.3804210" lon="-0.6757890">
        <ele>321.0</ele>
        <time>2018-03-30T09:13:02Z</time>
      </trkpt>
      <trkpt lat="38.3803430" lon="-0.6757970">
        <ele>320.5</ele>
        <time>2018-03-30T09:13:03Z</time>
      </trkpt>
      <trkpt lat="38.3802620" lon="-0.6758060">
        <ele>319.9</ele>
        <time>2018-03-30T09:13:04Z</time>
      </trkpt>
      <trkpt lat="38.3801820" lon="-0.6758140">
        <ele>319.3</ele>
        <time>2018-03-30T09:13:05Z</time>
      </trkpt>
      <trkpt lat="38.3800990" lon="-0.6758220">
        <ele>318.7</ele>
        <time>2018-03-30T09:13:06Z</time>
      </trkpt>
      <trkpt lat="38.3800140" lon="-0.6758290">
        <ele>317.8</ele>
        <time>2018-03-30T09:13:07Z</time>
      </trkpt>
      <trkpt lat="38.3799280" lon="-0.6758360">
        <ele>317.0</ele>
        <time>2018-03-30T09:13:08Z</time>
      </trkpt>
      <trkpt lat="38.3798400" lon="-0.6758440">
        <ele>316.2</ele>
        <time>2018-03-30T09:13:09Z</time>
      </trkpt>
      <trkpt lat="38.3797470" lon="-0.6758500">
        <ele>315.2</ele>
        <time>2018-03-30T09:13:10Z</time>
      </trkpt>
      <trkpt lat="38.3796520" lon="-0.6758570">
        <ele>314.2</ele>
        <time>2018-03-30T09:13:11Z</time>
      </trkpt>
      <trkpt lat="38.3795510" lon="-0.6758640">
        <ele>313.1</ele>
        <time>2018-03-30T09:13:12Z</time>
      </trkpt>
      <trkpt lat="38.3794460" lon="-0.6758740">
        <ele>311.6</ele>
        <time>2018-03-30T09:13:13Z</time>
      </trkpt>
      <trkpt lat="38.3793350" lon="-0.6758910">
        <ele>310.4</ele>
        <time>2018-03-30T09:13:14Z</time>
      </trkpt>
      <trkpt lat="38.3792220" lon="-0.6759070">
        <ele>309.5</ele>
        <time>2018-03-30T09:13:15Z</time>
      </trkpt>
      <trkpt lat="38.3791140" lon="-0.6759300">
        <ele>308.4</ele>
        <time>2018-03-30T09:13:16Z</time>
      </trkpt>
      <trkpt lat="38.3790070" lon="-0.6759650">
        <ele>307.5</ele>
        <time>2018-03-30T09:13:17Z</time>
      </trkpt>
      <trkpt lat="38.3788980" lon="-0.6759980">
        <ele>306.9</ele>
        <time>2018-03-30T09:13:18Z</time>
      </trkpt>
      <trkpt lat="38.3787880" lon="-0.6760290">
        <ele>306.0</ele>
        <time>2018-03-30T09:13:19Z</time>
      </trkpt>
      <trkpt lat="38.3786790" lon="-0.6760620">
        <ele>305.0</ele>
        <time>2018-03-30T09:13:20Z</time>
      </trkpt>
      <trkpt lat="38.3785730" lon="-0.6760990">
        <ele>304.4</ele>
        <time>2018-03-30T09:13:21Z</time>
      </trkpt>
      <trkpt lat="38.3784770" lon="-0.6761200">
        <ele>303.7</ele>
        <time>2018-03-30T09:13:22Z</time>
      </trkpt>
      <trkpt lat="38.3783830" lon="-0.6761280">
        <ele>302.8</ele>
        <time>2018-03-30T09:13:23Z</time>
      </trkpt>
      <trkpt lat="38.3782840" lon="-0.6761110">
        <ele>301.9</ele>
        <time>2018-03-30T09:13:24Z</time>
      </trkpt>
      <trkpt lat="38.3781890" lon="-0.6760650">
        <ele>300.9</ele>
        <time>2018-03-30T09:13:25Z</time>
      </trkpt>
      <trkpt lat="38.3781010" lon="-0.6759950">
        <ele>299.3</ele>
        <time>2018-03-30T09:13:26Z</time>
      </trkpt>
      <trkpt lat="38.3780210" lon="-0.6759060">
        <ele>298.8</ele>
        <time>2018-03-30T09:13:27Z</time>
      </trkpt>
      <trkpt lat="38.3779390" lon="-0.6758110">
        <ele>298.6</ele>
        <time>2018-03-30T09:13:28Z</time>
      </trkpt>
      <trkpt lat="38.3778550" lon="-0.6757170">
        <ele>298.5</ele>
        <time>2018-03-30T09:13:29Z</time>
      </trkpt>
      <trkpt lat="38.3777750" lon="-0.6756390">
        <ele>298.5</ele>
        <time>2018-03-30T09:13:30Z</time>
      </trkpt>
      <trkpt lat="38.3776990" lon="-0.6755680">
        <ele>298.5</ele>
        <time>2018-03-30T09:13:31Z</time>
      </trkpt>
      <trkpt lat="38.3776200" lon="-0.6755150">
        <ele>298.5</ele>
        <time>2018-03-30T09:13:32Z</time>
      </trkpt>
      <trkpt lat="38.3775370" lon="-0.6754760">
        <ele>298.5</ele>
        <time>2018-03-30T09:13:33Z</time>
      </trkpt>
      <trkpt lat="38.3774560" lon="-0.6754510">
        <ele>298.6</ele>
        <time>2018-03-30T09:13:34Z</time>
      </trkpt>
      <trkpt lat="38.3773740" lon="-0.6754240">
        <ele>298.7</ele>
        <time>2018-03-30T09:13:35Z</time>
      </trkpt>
      <trkpt lat="38.3772950" lon="-0.6753910">
        <ele>298.8</ele>
        <time>2018-03-30T09:13:36Z</time>
      </trkpt>
      <trkpt lat="38.3772170" lon="-0.6753590">
        <ele>299.0</ele>
        <time>2018-03-30T09:13:37Z</time>
      </trkpt>
      <trkpt lat="38.3771420" lon="-0.6753290">
        <ele>299.1</ele>
        <time>2018-03-30T09:13:38Z</time>
      </trkpt>
      <trkpt lat="38.3770670" lon="-0.6752980">
        <ele>299.3</ele>
        <time>2018-03-30T09:13:39Z</time>
      </trkpt>
      <trkpt lat="38.3769950" lon="-0.6752660">
        <ele>299.5</ele>
        <time>2018-03-30T09:13:40Z</time>
      </trkpt>
      <trkpt lat="38.3769250" lon="-0.6752360">
        <ele>299.6</ele>
        <time>2018-03-30T09:13:41Z</time>
      </trkpt>
      <trkpt lat="38.3768590" lon="-0.6752090">
        <ele>299.8</ele>
        <time>2018-03-30T09:13:42Z</time>
      </trkpt>
      <trkpt lat="38.3767950" lon="-0.6751910">
        <ele>299.9</ele>
        <time>2018-03-30T09:13:43Z</time>
      </trkpt>
      <trkpt lat="38.3767330" lon="-0.6751930">
        <ele>300.0</ele>
        <time>2018-03-30T09:13:44Z</time>
      </trkpt>
      <trkpt lat="38.3766780" lon="-0.6752180">
        <ele>300.0</ele>
        <time>2018-03-30T09:13:45Z</time>
      </trkpt>
      <trkpt lat="38.3766250" lon="-0.6752520">
        <ele>299.9</ele>
        <time>2018-03-30T09:13:46Z</time>
      </trkpt>
      <trkpt lat="38.3765670" lon="-0.6752880">
        <ele>299.9</ele>
        <time>2018-03-30T09:13:47Z</time>
      </trkpt>
      <trkpt lat="38.3765090" lon="-0.6753250">
        <ele>299.8</ele>
        <time>2018-03-30T09:13:48Z</time>
      </trkpt>
      <trkpt lat="38.3764510" lon="-0.6753640">
        <ele>299.8</ele>
        <time>2018-03-30T09:13:49Z</time>
      </trkpt>
      <trkpt lat="38.3763940" lon="-0.6754030">
        <ele>299.8</ele>
        <time>2018-03-30T09:13:50Z</time>
      </trkpt>
      <trkpt lat="38.3763350" lon="-0.6754450">
        <ele>299.7</ele>
        <time>2018-03-30T09:13:51Z</time>
      </trkpt>
      <trkpt lat="38.3762770" lon="-0.6754850">
        <ele>299.7</ele>
        <time>2018-03-30T09:13:52Z</time>
      </trkpt>
      <trkpt lat="38.3762190" lon="-0.6755280">
        <ele>299.5</ele>
        <time>2018-03-30T09:13:53Z</time>
      </trkpt>
      <trkpt lat="38.3761570" lon="-0.6755700">
        <ele>299.4</ele>
        <time>2018-03-30T09:13:54Z</time>
      </trkpt>
      <trkpt lat="38.3760940" lon="-0.6756140">
        <ele>299.3</ele>
        <time>2018-03-30T09:13:55Z</time>
      </trkpt>
      <trkpt lat="38.3760310" lon="-0.6756630">
        <ele>299.0</ele>
        <time>2018-03-30T09:13:56Z</time>
      </trkpt>
      <trkpt lat="38.3759600" lon="-0.6756900">
        <ele>298.8</ele>
        <time>2018-03-30T09:13:57Z</time>
      </trkpt>
      <trkpt lat="38.3758820" lon="-0.6757040">
        <ele>298.5</ele>
        <time>2018-03-30T09:13:58Z</time>
      </trkpt>
      <trkpt lat="38.3757950" lon="-0.6757030">
        <ele>298.0</ele>
        <time>2018-03-30T09:13:59Z</time>
      </trkpt>
      <trkpt lat="38.3757040" lon="-0.6756990">
        <ele>297.7</ele>
        <time>2018-03-30T09:14:00Z</time>
      </trkpt>
      <trkpt lat="38.3756110" lon="-0.6756870">
        <ele>297.3</ele>
        <time>2018-03-30T09:14:01Z</time>
      </trkpt>
      <trkpt lat="38.3755160" lon="-0.6756650">
        <ele>296.9</ele>
        <time>2018-03-30T09:14:02Z</time>
      </trkpt>
      <trkpt lat="38.3754230" lon="-0.6756320">
        <ele>296.6</ele>
        <time>2018-03-30T09:14:03Z</time>
      </trkpt>
      <trkpt lat="38.3753300" lon="-0.6755930">
        <ele>296.4</ele>
        <time>2018-03-30T09:14:04Z</time>
      </trkpt>
      <trkpt lat="38.3752400" lon="-0.6755510">
        <ele>296.3</ele>
        <time>2018-03-30T09:14:05Z</time>
      </trkpt>
      <trkpt lat="38.3751500" lon="-0.6755110">
        <ele>296.1</ele>
        <time>2018-03-30T09:14:06Z</time>
      </trkpt>
      <trkpt lat="38.3750590" lon="-0.6754720">
        <ele>295.9</ele>
        <time>2018-03-30T09:14:07Z</time>
      </trkpt>
      <trkpt lat="38.3749690" lon="-0.6754330">
        <ele>295.8</ele>
        <time>2018-03-30T09:14:08Z</time>
      </trkpt>
      <trkpt lat="38.3748800" lon="-0.6753930">
        <ele>295.7</ele>
        <time>2018-03-30T09:14:09Z</time>
      </trkpt>
      <trkpt lat="38.3747930" lon="-0.6753540">
        <ele>295.6</ele>
        <time>2018-03-30T09:14:10Z</time>
      </trkpt>
      <trkpt lat="38.3747080" lon="-0.6753170">
        <ele>295.6</ele>
        <time>2018-03-30T09:14:11Z</time>
      </trkpt>
      <trkpt lat="38.3746240" lon="-0.6752840">
        <ele>295.6</ele>
        <time>2018-03-30T09:14:12Z</time>
      </trkpt>
      <trkpt lat="38.3745410" lon="-0.6752550">
        <ele>295.6</ele>
        <time>2018-03-30T09:14:13Z</time>
      </trkpt>
      <trkpt lat="38.3744580" lon="-0.6752280">
        <ele>295.7</ele>
        <time>2018-03-30T09:14:14Z</time>
      </trkpt>
      <trkpt lat="38.3743760" lon="-0.6752120">
        <ele>295.8</ele>
        <time>2018-03-30T09:14:15Z</time>
      </trkpt>
      <trkpt lat="38.3742940" lon="-0.6752070">
        <ele>296.0</ele>
        <time>2018-03-30T09:14:16Z</time>
      </trkpt>
      <trkpt lat="38.3742140" lon="-0.6752110">
        <ele>296.2</ele>
        <time>2018-03-30T09:14:17Z</time>
      </trkpt>
      <trkpt lat="38.3741350" lon="-0.6752260">
        <ele>296.5</ele>
        <time>2018-03-30T09:14:18Z</time>
      </trkpt>
      <trkpt lat="38.3740610" lon="-0.6752470">
        <ele>296.8</ele>
        <time>2018-03-30T09:14:19Z</time>
      </trkpt>
      <trkpt lat="38.3739900" lon="-0.6752660">
        <ele>297.3</ele>
        <time>2018-03-30T09:14:20Z</time>
      </trkpt>
      <trkpt lat="38.3739250" lon="-0.6752770">
        <ele>297.7</ele>
        <time>2018-03-30T09:14:21Z</time>
      </trkpt>
      <trkpt lat="38.3738700" lon="-0.6752730">
        <ele>298.8</ele>
        <time>2018-03-30T09:14:22Z</time>
      </trkpt>
      <trkpt lat="38.3738230" lon="-0.6752550">
        <ele>299.5</ele>
        <time>2018-03-30T09:14:23Z</time>
      </trkpt>
      <trkpt lat="38.3737870" lon="-0.6752270">
        <ele>300.0</ele>
        <time>2018-03-30T09:14:24Z</time>
      </trkpt>
      <trkpt lat="38.3737570" lon="-0.6751940">
        <ele>300.4</ele>
        <time>2018-03-30T09:14:25Z</time>
      </trkpt>
      <trkpt lat="38.3737280" lon="-0.6751630">
        <ele>300.6</ele>
        <time>2018-03-30T09:14:26Z</time>
      </trkpt>
      <trkpt lat="38.3737080" lon="-0.6751310">
        <ele>300.8</ele>
        <time>2018-03-30T09:14:27Z</time>
      </trkpt>
      <trkpt lat="38.3736870" lon="-0.6751010">
        <ele>301.1</ele>
        <time>2018-03-30T09:14:28Z</time>
      </trkpt>
      <trkpt lat="38.3736660" lon="-0.6750700">
        <ele>301.3</ele>
        <time>2018-03-30T09:14:29Z</time>
      </trkpt>
      <trkpt lat="38.3736460" lon="-0.6750400">
        <ele>301.5</ele>
        <time>2018-03-30T09:14:30Z</time>
      </trkpt>
      <trkpt lat="38.3736280" lon="-0.6750130">
        <ele>301.7</ele>
        <time>2018-03-30T09:14:31Z</time>
      </trkpt>
      <trkpt lat="38.3736100" lon="-0.6749890">
        <ele>301.9</ele>
        <time>2018-03-30T09:14:32Z</time>
      </trkpt>
      <trkpt lat="38.3735930" lon="-0.6749620">
        <ele>302.0</ele>
        <time>2018-03-30T09:14:33Z</time>
      </trkpt>
      <trkpt lat="38.3735770" lon="-0.6749340">
        <ele>302.2</ele>
        <time>2018-03-30T09:14:34Z</time>
      </trkpt>
      <trkpt lat="38.3735580" lon="-0.6749060">
        <ele>302.3</ele>
        <time>2018-03-30T09:14:35Z</time>
      </trkpt>
      <trkpt lat="38.3735370" lon="-0.6748770">
        <ele>302.5</ele>
        <time>2018-03-30T09:14:36Z</time>
      </trkpt>
      <trkpt lat="38.3735170" lon="-0.6748480">
        <ele>302.5</ele>
        <time>2018-03-30T09:14:37Z</time>
      </trkpt>
      <trkpt lat="38.3734980" lon="-0.6748170">
        <ele>302.6</ele>
        <time>2018-03-30T09:14:38Z</time>
      </trkpt>
      <trkpt lat="38.3734810" lon="-0.6747840">
        <ele>302.7</ele>
        <time>2018-03-30T09:14:39Z</time>
      </trkpt>
      <trkpt lat="38.3734620" lon="-0.6747510">
        <ele>302.8</ele>
        <time>2018-03-30T09:14:40Z</time>
      </trkpt>
      <trkpt lat="38.3734440" lon="-0.6747170">
        <ele>302.8</ele>
        <time>2018-03-30T09:14:41Z</time>
      </trkpt>
      <trkpt lat="38.3734260" lon="-0.6746830">
        <ele>302.9</ele>
        <time>2018-03-30T09:14:42Z</time>
      </trkpt>
      <trkpt lat="38.3734070" lon="-0.6746500">
        <ele>303.0</ele>
        <time>2018-03-30T09:14:43Z</time>
      </trkpt>
      <trkpt lat="38.3733880" lon="-0.6746150">
        <ele>303.1</ele>
        <time>2018-03-30T09:14:44Z</time>
      </trkpt>
      <trkpt lat="38.3733700" lon="-0.6745790">
        <ele>303.2</ele>
        <time>2018-03-30T09:14:45Z</time>
      </trkpt>
      <trkpt lat="38.3733560" lon="-0.6745400">
        <ele>303.2</ele>
        <time>2018-03-30T09:14:46Z</time>
      </trkpt>
      <trkpt lat="38.3733430" lon="-0.6745000">
        <ele>303.3</ele>
        <time>2018-03-30T09:14:47Z</time>
      </trkpt>
      <trkpt lat="38.3733300" lon="-0.6744590">
        <ele>303.4</ele>
        <time>2018-03-30T09:14:48Z</time>
      </trkpt>
      <trkpt lat="38.3733180" lon="-0.6744170">
        <ele>303.5</ele>
        <time>2018-03-30T09:14:49Z</time>
      </trkpt>
      <trkpt lat="38.3733070" lon="-0.6743740">
        <ele>303.6</ele>
        <time>2018-03-30T09:14:50Z</time>
      </trkpt>
      <trkpt lat="38.3732960" lon="-0.6743310">
        <ele>303.7</ele>
        <time>2018-03-30T09:14:51Z</time>
      </trkpt>
      <trkpt lat="38.3732840" lon="-0.6742860">
        <ele>303.8</ele>
        <time>2018-03-30T09:14:52Z</time>
      </trkpt>
      <trkpt lat="38.3732740" lon="-0.6742400">
        <ele>303.9</ele>
        <time>2018-03-30T09:14:53Z</time>
      </trkpt>
      <trkpt lat="38.3732640" lon="-0.6741930">
        <ele>304.0</ele>
        <time>2018-03-30T09:14:54Z</time>
      </trkpt>
      <trkpt lat="38.3732580" lon="-0.6741450">
        <ele>304.1</ele>
        <time>2018-03-30T09:14:55Z</time>
      </trkpt>
      <trkpt lat="38.3732490" lon="-0.6740980">
        <ele>304.2</ele>
        <time>2018-03-30T09:14:56Z</time>
      </trkpt>
      <trkpt lat="38.3732410" lon="-0.6740510">
        <ele>304.3</ele>
        <time>2018-03-30T09:14:57Z</time>
      </trkpt>
      <trkpt lat="38.3732340" lon="-0.6740050">
        <ele>304.4</ele>
        <time>2018-03-30T09:14:58Z</time>
      </trkpt>
      <trkpt lat="38.3732270" lon="-0.6739580">
        <ele>304.6</ele>
        <time>2018-03-30T09:14:59Z</time>
      </trkpt>
      <trkpt lat="38.3732210" lon="-0.6739110">
        <ele>304.7</ele>
        <time>2018-03-30T09:15:00Z</time>
      </trkpt>
      <trkpt lat="38.3732150" lon="-0.6738650">
        <ele>304.9</ele>
        <time>2018-03-30T09:15:01Z</time>
      </trkpt>
      <trkpt lat="38.3732090" lon="-0.6738190">
        <ele>305.1</ele>
        <time>2018-03-30T09:15:02Z</time>
      </trkpt>
      <trkpt lat="38.3732000" lon="-0.6737740">
        <ele>305.3</ele>
        <time>2018-03-30T09:15:03Z</time>
      </trkpt>
      <trkpt lat="38.3731910" lon="-0.6737290">
        <ele>305.5</ele>
        <time>2018-03-30T09:15:04Z</time>
      </trkpt>
      <trkpt lat="38.3731810" lon="-0.6736850">
        <ele>305.6</ele>
        <time>2018-03-30T09:15:05Z</time>
      </trkpt>
      <trkpt lat="38.3731690" lon="-0.6736420">
        <ele>305.8</ele>
        <time>2018-03-30T09:15:06Z</time>
      </trkpt>
      <trkpt lat="38.3731580" lon="-0.6735990">
        <ele>305.9</ele>
        <time>2018-03-30T09:15:07Z</time>
      </trkpt>
      <trkpt lat="38.3731440" lon="-0.6735570">
        <ele>306.1</ele>
        <time>2018-03-30T09:15:08Z</time>
      </trkpt>
      <trkpt lat="38.3731300" lon="-0.6735160">
        <ele>306.3</ele>
        <time>2018-03-30T09:15:09Z</time>
      </trkpt>
      <trkpt lat="38.3731160" lon="-0.6734760">
        <ele>306.4</ele>
        <time>2018-03-30T09:15:10Z</time>
      </trkpt>
      <trkpt lat="38.3731000" lon="-0.6734390">
        <ele>306.6</ele>
        <time>2018-03-30T09:15:11Z</time>
      </trkpt>
      <trkpt lat="38.3730820" lon="-0.6734030">
        <ele>306.7</ele>
        <time>2018-03-30T09:15:12Z</time>
      </trkpt>
      <trkpt lat="38.3730640" lon="-0.6733690">
        <ele>306.9</ele>
        <time>2018-03-30T09:15:13Z</time>
      </trkpt>
      <trkpt lat="38.3730460" lon="-0.6733380">
        <ele>307.0</ele>
        <time>2018-03-30T09:15:14Z</time>
      </trkpt>
      <trkpt lat="38.3730280" lon="-0.6733080">
        <ele>307.1</ele>
        <time>2018-03-30T09:15:15Z</time>
      </trkpt>
      <trkpt lat="38.3730100" lon="-0.6732780">
        <ele>307.2</ele>
        <time>2018-03-30T09:15:16Z</time>
      </trkpt>
      <trkpt lat="38.3729920" lon="-0.6732460">
        <ele>307.4</ele>
        <time>2018-03-30T09:15:17Z</time>
      </trkpt>
      <trkpt lat="38.3729740" lon="-0.6732160">
        <ele>307.5</ele>
        <time>2018-03-30T09:15:18Z</time>
      </trkpt>
      <trkpt lat="38.3729560" lon="-0.6731860">
        <ele>307.6</ele>
        <time>2018-03-30T09:15:19Z</time>
      </trkpt>
      <trkpt lat="38.3729370" lon="-0.6731570">
        <ele>307.8</ele>
        <time>2018-03-30T09:15:20Z</time>
      </trkpt>
      <trkpt lat="38.3729210" lon="-0.6731260">
        <ele>307.9</ele>
        <time>2018-03-30T09:15:21Z</time>
      </trkpt>
      <trkpt lat="38.3729030" lon="-0.6730960">
        <ele>308.1</ele>
        <time>2018-03-30T09:15:22Z</time>
      </trkpt>
      <trkpt lat="38.3728850" lon="-0.6730680">
        <ele>308.3</ele>
        <time>2018-03-30T09:15:23Z</time>
      </trkpt>
      <trkpt lat="38.3728650" lon="-0.6730420">
        <ele>308.4</ele>
        <time>2018-03-30T09:15:24Z</time>
      </trkpt>
      <trkpt lat="38.3728450" lon="-0.6730140">
        <ele>308.6</ele>
        <time>2018-03-30T09:15:25Z</time>
      </trkpt>
      <trkpt lat="38.3728270" lon="-0.6729860">
        <ele>308.8</ele>
        <time>2018-03-30T09:15:26Z</time>
      </trkpt>
      <trkpt lat="38.3728110" lon="-0.6729590">
        <ele>308.9</ele>
        <time>2018-03-30T09:15:27Z</time>
      </trkpt>
      <trkpt lat="38.3727960" lon="-0.6729300">
        <ele>309.1</ele>
        <time>2018-03-30T09:15:28Z</time>
      </trkpt>
      <trkpt lat="38.3727800" lon="-0.6729030">
        <ele>309.4</ele>
        <time>2018-03-30T09:15:29Z</time>
      </trkpt>
      <trkpt lat="38.3727640" lon="-0.6728770">
        <ele>309.6</ele>
        <time>2018-03-30T09:15:30Z</time>
      </trkpt>
      <trkpt lat="38.3727480" lon="-0.6728520">
        <ele>309.8</ele>
        <time>2018-03-30T09:15:31Z</time>
      </trkpt>
      <trkpt lat="38.3727330" lon="-0.6728250">
        <ele>310.1</ele>
        <time>2018-03-30T09:15:32Z</time>
      </trkpt>
      <trkpt lat="38.3727220" lon="-0.6728030">
        <ele>310.3</ele>
        <time>2018-03-30T09:15:33Z</time>
      </trkpt>
      <trkpt lat="38.3727110" lon="-0.6727830">
        <ele>310.5</ele>
        <time>2018-03-30T09:15:34Z</time>
      </trkpt>
      <trkpt lat="38.3727000" lon="-0.6727650">
        <ele>310.6</ele>
        <time>2018-03-30T09:15:35Z</time>
      </trkpt>
      <trkpt lat="38.3726890" lon="-0.6727450">
        <ele>310.8</ele>
        <time>2018-03-30T09:15:36Z</time>
      </trkpt>
      <trkpt lat="38.3726770" lon="-0.6727240">
        <ele>311.0</ele>
        <time>2018-03-30T09:15:37Z</time>
      </trkpt>
      <trkpt lat="38.3726660" lon="-0.6727030">
        <ele>311.2</ele>
        <time>2018-03-30T09:15:38Z</time>
      </trkpt>
      <trkpt lat="38.3726550" lon="-0.6726830">
        <ele>311.4</ele>
        <time>2018-03-30T09:15:39Z</time>
      </trkpt>
      <trkpt lat="38.3726450" lon="-0.6726640">
        <ele>311.6</ele>
        <time>2018-03-30T09:15:40Z</time>
      </trkpt>
      <trkpt lat="38.3726360" lon="-0.6726420">
        <ele>311.8</ele>
        <time>2018-03-30T09:15:41Z</time>
      </trkpt>
      <trkpt lat="38.3726290" lon="-0.6726190">
        <ele>312.0</ele>
        <time>2018-03-30T09:15:42Z</time>
      </trkpt>
      <trkpt lat="38.3726250" lon="-0.6725950">
        <ele>312.2</ele>
        <time>2018-03-30T09:15:43Z</time>
      </trkpt>
      <trkpt lat="38.3726230" lon="-0.6725700">
        <ele>312.3</ele>
        <time>2018-03-30T09:15:44Z</time>
      </trkpt>
      <trkpt lat="38.3726220" lon="-0.6725460">
        <ele>312.5</ele>
        <time>2018-03-30T09:15:45Z</time>
      </trkpt>
      <trkpt lat="38.3726220" lon="-0.6725240">
        <ele>312.7</ele>
        <time>2018-03-30T09:15:46Z</time>
      </trkpt>
      <trkpt lat="38.3726270" lon="-0.6725030">
        <ele>312.8</ele>
        <time>2018-03-30T09:15:47Z</time>
      </trkpt>
      <trkpt lat="38.3726320" lon="-0.6724820">
        <ele>312.9</ele>
        <time>2018-03-30T09:15:48Z</time>
      </trkpt>
      <trkpt lat="38.3726340" lon="-0.6724620">
        <ele>313.1</ele>
        <time>2018-03-30T09:15:49Z</time>
      </trkpt>
      <trkpt lat="38.3726390" lon="-0.6724410">
        <ele>313.2</ele>
        <time>2018-03-30T09:15:50Z</time>
      </trkpt>
      <trkpt lat="38.3726430" lon="-0.6724210">
        <ele>313.4</ele>
        <time>2018-03-30T09:15:51Z</time>
      </trkpt>
      <trkpt lat="38.3726470" lon="-0.6724010">
        <ele>313.6</ele>
        <time>2018-03-30T09:15:52Z</time>
      </trkpt>
      <trkpt lat="38.3726530" lon="-0.6723810">
        <ele>313.9</ele>
        <time>2018-03-30T09:15:53Z</time>
      </trkpt>
      <trkpt lat="38.3726560" lon="-0.6723600">
        <ele>314.1</ele>
        <time>2018-03-30T09:15:54Z</time>
      </trkpt>
      <trkpt lat="38.3726590" lon="-0.6723390">
        <ele>314.3</ele>
        <time>2018-03-30T09:15:55Z</time>
      </trkpt>
      <trkpt lat="38.3726640" lon="-0.6723190">
        <ele>314.6</ele>
        <time>2018-03-30T09:15:56Z</time>
      </trkpt>
      <trkpt lat="38.3726680" lon="-0.6722990">
        <ele>314.8</ele>
        <time>2018-03-30T09:15:57Z</time>
      </trkpt>
      <trkpt lat="38.3726760" lon="-0.6722790">
        <ele>315.1</ele>
        <time>2018-03-30T09:15:58Z</time>
      </trkpt>
      <trkpt lat="38.3726830" lon="-0.6722610">
        <ele>315.4</ele>
        <time>2018-03-30T09:15:59Z</time>
      </trkpt>
      <trkpt lat="38.3726920" lon="-0.6722410">
        <ele>315.6</ele>
        <time>2018-03-30T09:16:00Z</time>
      </trkpt>
      <trkpt lat="38.3726980" lon="-0.6722230">
        <ele>315.9</ele>
        <time>2018-03-30T09:16:01Z</time>
      </trkpt>
      <trkpt lat="38.3727040" lon="-0.6722030">
        <ele>316.1</ele>
        <time>2018-03-30T09:16:02Z</time>
      </trkpt>
      <trkpt lat="38.3727120" lon="-0.6721810">
        <ele>316.5</ele>
        <time>2018-03-30T09:16:03Z</time>
      </trkpt>
      <trkpt lat="38.3727190" lon="-0.6721620">
        <ele>316.7</ele>
        <time>2018-03-30T09:16:04Z</time>
      </trkpt>
      <trkpt lat="38.3727280" lon="-0.6721430">
        <ele>317.0</ele>
        <time>2018-03-30T09:16:05Z</time>
      </trkpt>
      <trkpt lat="38.3727370" lon="-0.6721230">
        <ele>317.3</ele>
        <time>2018-03-30T09:16:06Z</time>
      </trkpt>
      <trkpt lat="38.3727450" lon="-0.6721030">
        <ele>317.6</ele>
        <time>2018-03-30T09:16:07Z</time>
      </trkpt>
      <trkpt lat="38.3727520" lon="-0.6720830">
        <ele>317.9</ele>
        <time>2018-03-30T09:16:08Z</time>
      </trkpt>
      <trkpt lat="38.3727590" lon="-0.6720640">
        <ele>318.1</ele>
        <time>2018-03-30T09:16:09Z</time>
      </trkpt>
      <trkpt lat="38.3727670" lon="-0.6720460">
        <ele>318.4</ele>
        <time>2018-03-30T09:16:10Z</time>
      </trkpt>
      <trkpt lat="38.3727750" lon="-0.6720290">
        <ele>318.7</ele>
        <time>2018-03-30T09:16:11Z</time>
      </trkpt>
      <trkpt lat="38.3727830" lon="-0.6720110">
        <ele>318.9</ele>
        <time>2018-03-30T09:16:12Z</time>
      </trkpt>
      <trkpt lat="38.3727910" lon="-0.6719920">
        <ele>319.2</ele>
        <time>2018-03-30T09:16:13Z</time>
      </trkpt>
      <trkpt lat="38.3728000" lon="-0.6719750">
        <ele>319.5</ele>
        <time>2018-03-30T09:16:14Z</time>
      </trkpt>
      <trkpt lat="38.3728060" lon="-0.6719550">
        <ele>319.7</ele>
        <time>2018-03-30T09:16:15Z</time>
      </trkpt>
      <trkpt lat="38.3728150" lon="-0.6719390">
        <ele>320.0</ele>
        <time>2018-03-30T09:16:16Z</time>
      </trkpt>
      <trkpt lat="38.3728240" lon="-0.6719190">
        <ele>320.3</ele>
        <time>2018-03-30T09:16:17Z</time>
      </trkpt>
      <trkpt lat="38.3728300" lon="-0.6719010">
        <ele>320.5</ele>
        <time>2018-03-30T09:16:18Z</time>
      </trkpt>
      <trkpt lat="38.3728390" lon="-0.6718830">
        <ele>320.8</ele>
        <time>2018-03-30T09:16:19Z</time>
      </trkpt>
      <trkpt lat="38.3728460" lon="-0.6718650">
        <ele>321.0</ele>
        <time>2018-03-30T09:16:20Z</time>
      </trkpt>
      <trkpt lat="38.3728510" lon="-0.6718470">
        <ele>321.3</ele>
        <time>2018-03-30T09:16:21Z</time>
      </trkpt>
      <trkpt lat="38.3728580" lon="-0.6718310">
        <ele>321.5</ele>
        <time>2018-03-30T09:16:22Z</time>
      </trkpt>
      <trkpt lat="38.3728640" lon="-0.6718130">
        <ele>321.8</ele>
        <time>2018-03-30T09:16:23Z</time>
      </trkpt>
      <trkpt lat="38.3728780" lon="-0.6718060">
        <ele>322.0</ele>
        <time>2018-03-30T09:16:24Z</time>
      </trkpt>
      <trkpt lat="38.3728850" lon="-0.6717920">
        <ele>322.2</ele>
        <time>2018-03-30T09:16:25Z</time>
      </trkpt>
      <trkpt lat="38.3728920" lon="-0.6717740">
        <ele>322.5</ele>
        <time>2018-03-30T09:16:26Z</time>
      </trkpt>
      <trkpt lat="38.3728990" lon="-0.6717560">
        <ele>322.7</ele>
        <time>2018-03-30T09:16:27Z</time>
      </trkpt>
      <trkpt lat="38.3729050" lon="-0.6717360">
        <ele>323.0</ele>
        <time>2018-03-30T09:16:28Z</time>
      </trkpt>
      <trkpt lat="38.3729130" lon="-0.6717200">
        <ele>323.2</ele>
        <time>2018-03-30T09:16:29Z</time>
      </trkpt>
      <trkpt lat="38.3729200" lon="-0.6717040">
        <ele>323.5</ele>
        <time>2018-03-30T09:16:30Z</time>
      </trkpt>
      <trkpt lat="38.3729280" lon="-0.6716890">
        <ele>323.7</ele>
        <time>2018-03-30T09:16:31Z</time>
      </trkpt>
      <trkpt lat="38.3729360" lon="-0.6716720">
        <ele>324.0</ele>
        <time>2018-03-30T09:16:32Z</time>
      </trkpt>
      <trkpt lat="38.3729430" lon="-0.6716560">
        <ele>324.2</ele>
        <time>2018-03-30T09:16:33Z</time>
      </trkpt>
      <trkpt lat="38.3729500" lon="-0.6716400">
        <ele>324.4</ele>
        <time>2018-03-30T09:16:34Z</time>
      </trkpt>
      <trkpt lat="38.3729580" lon="-0.6716270">
        <ele>324.6</ele>
        <time>2018-03-30T09:16:35Z</time>
      </trkpt>
      <trkpt lat="38.3729640" lon="-0.6716120">
        <ele>324.8</ele>
        <time>2018-03-30T09:16:36Z</time>
      </trkpt>
      <trkpt lat="38.3729690" lon="-0.6715990">
        <ele>325.0</ele>
        <time>2018-03-30T09:16:37Z</time>
      </trkpt>
      <trkpt lat="38.3729750" lon="-0.6715850">
        <ele>325.2</ele>
        <time>2018-03-30T09:16:38Z</time>
      </trkpt>
      <trkpt lat="38.3729790" lon="-0.6715680">
        <ele>325.4</ele>
        <time>2018-03-30T09:16:39Z</time>
      </trkpt>
      <trkpt lat="38.3729840" lon="-0.6715540">
        <ele>325.6</ele>
        <time>2018-03-30T09:16:40Z</time>
      </trkpt>
      <trkpt lat="38.3729900" lon="-0.6715380">
        <ele>325.8</ele>
        <time>2018-03-30T09:16:41Z</time>
      </trkpt>
      <trkpt lat="38.3729970" lon="-0.6715260">
        <ele>326.0</ele>
        <time>2018-03-30T09:16:42Z</time>
      </trkpt>
      <trkpt lat="38.3730050" lon="-0.6715140">
        <ele>326.2</ele>
        <time>2018-03-30T09:16:43Z</time>
      </trkpt>
      <trkpt lat="38.3730140" lon="-0.6715010">
        <ele>326.4</ele>
        <time>2018-03-30T09:16:44Z</time>
      </trkpt>
      <trkpt lat="38.3730200" lon="-0.6714840">
        <ele>326.6</ele>
        <time>2018-03-30T09:16:45Z</time>
      </trkpt>
      <trkpt lat="38.3730270" lon="-0.6714700">
        <ele>326.8</ele>
        <time>2018-03-30T09:16:46Z</time>
      </trkpt>
      <trkpt lat="38.3730340" lon="-0.6714550">
        <ele>327.0</ele>
        <time>2018-03-30T09:16:47Z</time>
      </trkpt>
      <trkpt lat="38.3730430" lon="-0.6714400">
        <ele>327.3</ele>
        <time>2018-03-30T09:16:48Z</time>
      </trkpt>
      <trkpt lat="38.3730540" lon="-0.6714230">
        <ele>327.5</ele>
        <time>2018-03-30T09:16:49Z</time>
      </trkpt>
      <trkpt lat="38.3730640" lon="-0.6714070">
        <ele>327.8</ele>
        <time>2018-03-30T09:16:50Z</time>
      </trkpt>
      <trkpt lat="38.3730730" lon="-0.6713890">
        <ele>328.0</ele>
        <time>2018-03-30T09:16:51Z</time>
      </trkpt>
      <trkpt lat="38.3730810" lon="-0.6713730">
        <ele>328.3</ele>
        <time>2018-03-30T09:16:52Z</time>
      </trkpt>
      <trkpt lat="38.3730900" lon="-0.6713580">
        <ele>328.5</ele>
        <time>2018-03-30T09:16:53Z</time>
      </trkpt>
      <trkpt lat="38.3731000" lon="-0.6713430">
        <ele>328.7</ele>
        <time>2018-03-30T09:16:54Z</time>
      </trkpt>
      <trkpt lat="38.3731090" lon="-0.6713250">
        <ele>329.0</ele>
        <time>2018-03-30T09:16:55Z</time>
      </trkpt>
      <trkpt lat="38.3731180" lon="-0.6713090">
        <ele>329.2</ele>
        <time>2018-03-30T09:16:56Z</time>
      </trkpt>
      <trkpt lat="38.3731250" lon="-0.6712950">
        <ele>329.4</ele>
        <time>2018-03-30T09:16:57Z</time>
      </trkpt>
      <trkpt lat="38.3731330" lon="-0.6712790">
        <ele>329.7</ele>
        <time>2018-03-30T09:16:58Z</time>
      </trkpt>
      <trkpt lat="38.3731400" lon="-0.6712620">
        <ele>329.9</ele>
        <time>2018-03-30T09:16:59Z</time>
      </trkpt>
      <trkpt lat="38.3731480" lon="-0.6712470">
        <ele>330.1</ele>
        <time>2018-03-30T09:17:00Z</time>
      </trkpt>
      <trkpt lat="38.3731570" lon="-0.6712310">
        <ele>330.3</ele>
        <time>2018-03-30T09:17:01Z</time>
      </trkpt>
      <trkpt lat="38.3731660" lon="-0.6712160">
        <ele>330.6</ele>
        <time>2018-03-30T09:17:02Z</time>
      </trkpt>
      <trkpt lat="38.3731750" lon="-0.6712010">
        <ele>330.8</ele>
        <time>2018-03-30T09:17:03Z</time>
      </trkpt>
      <trkpt lat="38.3731840" lon="-0.6711850">
        <ele>331.0</ele>
        <time>2018-03-30T09:17:04Z</time>
      </trkpt>
      <trkpt lat="38.3731930" lon="-0.6711680">
        <ele>331.2</ele>
        <time>2018-03-30T09:17:05Z</time>
      </trkpt>
      <trkpt lat="38.3732020" lon="-0.6711500">
        <ele>331.5</ele>
        <time>2018-03-30T09:17:06Z</time>
      </trkpt>
      <trkpt lat="38.3732090" lon="-0.6711370">
        <ele>331.7</ele>
        <time>2018-03-30T09:17:07Z</time>
      </trkpt>
      <trkpt lat="38.3732170" lon="-0.6711240">
        <ele>331.9</ele>
        <time>2018-03-30T09:17:08Z</time>
      </trkpt>
      <trkpt lat="38.3732260" lon="-0.6711090">
        <ele>332.1</ele>
        <time>2018-03-30T09:17:09Z</time>
      </trkpt>
      <trkpt lat="38.3732320" lon="-0.6710940">
        <ele>332.3</ele>
        <time>2018-03-30T09:17:10Z</time>
      </trkpt>
      <trkpt lat="38.3732400" lon="-0.6710800">
        <ele>332.5</ele>
        <time>2018-03-30T09:17:11Z</time>
      </trkpt>
      <trkpt lat="38.3732490" lon="-0.6710650">
        <ele>332.7</ele>
        <time>2018-03-30T09:17:12Z</time>
      </trkpt>
      <trkpt lat="38.3732600" lon="-0.6710560">
        <ele>332.9</ele>
        <time>2018-03-30T09:17:13Z</time>
      </trkpt>
      <trkpt lat="38.3732690" lon="-0.6710430">
        <ele>333.1</ele>
        <time>2018-03-30T09:17:14Z</time>
      </trkpt>
      <trkpt lat="38.3732790" lon="-0.6710320">
        <ele>333.2</ele>
        <time>2018-03-30T09:17:15Z</time>
      </trkpt>
      <trkpt lat="38.3732880" lon="-0.6710220">
        <ele>333.4</ele>
        <time>2018-03-30T09:17:16Z</time>
      </trkpt>
      <trkpt lat="38.3732950" lon="-0.6710100">
        <ele>333.6</ele>
        <time>2018-03-30T09:17:17Z</time>
      </trkpt>
      <trkpt lat="38.3733040" lon="-0.6710020">
        <ele>333.7</ele>
        <time>2018-03-30T09:17:18Z</time>
      </trkpt>
      <trkpt lat="38.3733120" lon="-0.6709920">
        <ele>333.9</ele>
        <time>2018-03-30T09:17:19Z</time>
      </trkpt>
      <trkpt lat="38.3733210" lon="-0.6709800">
        <ele>334.1</ele>
        <time>2018-03-30T09:17:20Z</time>
      </trkpt>
      <trkpt lat="38.3733280" lon="-0.6709690">
        <ele>334.2</ele>
        <time>2018-03-30T09:17:21Z</time>
      </trkpt>
      <trkpt lat="38.3733340" lon="-0.6709570">
        <ele>334.4</ele>
        <time>2018-03-30T09:17:22Z</time>
      </trkpt>
      <trkpt lat="38.3733410" lon="-0.6709460">
        <ele>334.5</ele>
        <time>2018-03-30T09:17:23Z</time>
      </trkpt>
      <trkpt lat="38.3733460" lon="-0.6709320">
        <ele>334.7</ele>
        <time>2018-03-30T09:17:24Z</time>
      </trkpt>
      <trkpt lat="38.3733490" lon="-0.6709190">
        <ele>334.8</ele>
        <time>2018-03-30T09:17:25Z</time>
      </trkpt>
      <trkpt lat="38.3733540" lon="-0.6709060">
        <ele>335.0</ele>
        <time>2018-03-30T09:17:26Z</time>
      </trkpt>
      <trkpt lat="38.3733610" lon="-0.6708950">
        <ele>335.1</ele>
        <time>2018-03-30T09:17:27Z</time>
      </trkpt>
      <trkpt lat="38.3733650" lon="-0.6708840">
        <ele>335.3</ele>
        <time>2018-03-30T09:17:28Z</time>
      </trkpt>
      <trkpt lat="38.3733700" lon="-0.6708700">
        <ele>335.4</ele>
        <time>2018-03-30T09:17:29Z</time>
      </trkpt>
      <trkpt lat="38.3733740" lon="-0.6708570">
        <ele>335.5</ele>
        <time>2018-03-30T09:17:30Z</time>
      </trkpt>
      <trkpt lat="38.3733780" lon="-0.6708430">
        <ele>335.7</ele>
        <time>2018-03-30T09:17:31Z</time>
      </trkpt>
      <trkpt lat="38.3733830" lon="-0.6708310">
        <ele>335.8</ele>
        <time>2018-03-30T09:17:32Z</time>
      </trkpt>
      <trkpt lat="38.3733880" lon="-0.6708180">
        <ele>336.0</ele>
        <time>2018-03-30T09:17:33Z</time>
      </trkpt>
      <trkpt lat="38.3733940" lon="-0.6708060">
        <ele>336.1</ele>
        <time>2018-03-30T09:17:34Z</time>
      </trkpt>
      <trkpt lat="38.3733990" lon="-0.6707960">
        <ele>336.2</ele>
        <time>2018-03-30T09:17:35Z</time>
      </trkpt>
      <trkpt lat="38.3734060" lon="-0.6707840">
        <ele>336.4</ele>
        <time>2018-03-30T09:17:36Z</time>
      </trkpt>
      <trkpt lat="38.3734130" lon="-0.6707740">
        <ele>336.5</ele>
        <time>2018-03-30T09:17:37Z</time>
      </trkpt>
      <trkpt lat="38.3734200" lon="-0.6707620">
        <ele>336.7</ele>
        <time>2018-03-30T09:17:38Z</time>
      </trkpt>
      <trkpt lat="38.3734270" lon="-0.6707520">
        <ele>336.8</ele>
        <time>2018-03-30T09:17:39Z</time>
      </trkpt>
      <trkpt lat="38.3734360" lon="-0.6707410">
        <ele>337.0</ele>
        <time>2018-03-30T09:17:40Z</time>
      </trkpt>
      <trkpt lat="38.3734420" lon="-0.6707290">
        <ele>337.1</ele>
        <time>2018-03-30T09:17:41Z</time>
      </trkpt>
      <trkpt lat="38.3734470" lon="-0.6707180">
        <ele>337.2</ele>
        <time>2018-03-30T09:17:42Z</time>
      </trkpt>
      <trkpt lat="38.3734510" lon="-0.6707050">
        <ele>337.4</ele>
        <time>2018-03-30T09:17:43Z</time>
      </trkpt>
      <trkpt lat="38.3734540" lon="-0.6706930">
        <ele>337.5</ele>
        <time>2018-03-30T09:17:44Z</time>
      </trkpt>
      <trkpt lat="38.3734580" lon="-0.6706790">
        <ele>337.6</ele>
        <time>2018-03-30T09:17:45Z</time>
      </trkpt>
      <trkpt lat="38.3734620" lon="-0.6706650">
        <ele>337.7</ele>
        <time>2018-03-30T09:17:46Z</time>
      </trkpt>
      <trkpt lat="38.3734680" lon="-0.6706550">
        <ele>337.9</ele>
        <time>2018-03-30T09:17:47Z</time>
      </trkpt>
      <trkpt lat="38.3734750" lon="-0.6706450">
        <ele>338.0</ele>
        <time>2018-03-30T09:17:48Z</time>
      </trkpt>
      <trkpt lat="38.3734820" lon="-0.6706340">
        <ele>338.1</ele>
        <time>2018-03-30T09:17:49Z</time>
      </trkpt>
      <trkpt lat="38.3734870" lon="-0.6706240">
        <ele>338.2</ele>
        <time>2018-03-30T09:17:50Z</time>
      </trkpt>
      <trkpt lat="38.3734910" lon="-0.6706120">
        <ele>338.4</ele>
        <time>2018-03-30T09:17:51Z</time>
      </trkpt>
      <trkpt lat="38.3734950" lon="-0.6705990">
        <ele>338.5</ele>
        <time>2018-03-30T09:17:52Z</time>
      </trkpt>
      <trkpt lat="38.3735000" lon="-0.6705880">
        <ele>338.6</ele>
        <time>2018-03-30T09:17:53Z</time>
      </trkpt>
      <trkpt lat="38.3735060" lon="-0.6705760">
        <ele>338.7</ele>
        <time>2018-03-30T09:17:54Z</time>
      </trkpt>
      <trkpt lat="38.3735120" lon="-0.6705650">
        <ele>338.8</ele>
        <time>2018-03-30T09:17:55Z</time>
      </trkpt>
      <trkpt lat="38.3735170" lon="-0.6705550">
        <ele>338.9</ele>
        <time>2018-03-30T09:17:56Z</time>
      </trkpt>
      <trkpt lat="38.3735230" lon="-0.6705450">
        <ele>339.0</ele>
        <time>2018-03-30T09:17:57Z</time>
      </trkpt>
      <trkpt lat="38.3735280" lon="-0.6705330">
        <ele>339.1</ele>
        <time>2018-03-30T09:17:58Z</time>
      </trkpt>
      <trkpt lat="38.3735330" lon="-0.6705210">
        <ele>339.2</ele>
        <time>2018-03-30T09:17:59Z</time>
      </trkpt>
      <trkpt lat="38.3735390" lon="-0.6705100">
        <ele>339.3</ele>
        <time>2018-03-30T09:18:00Z</time>
      </trkpt>
      <trkpt lat="38.3735450" lon="-0.6705020">
        <ele>339.4</ele>
        <time>2018-03-30T09:18:01Z</time>
      </trkpt>
      <trkpt lat="38.3735520" lon="-0.6704900">
        <ele>339.5</ele>
        <time>2018-03-30T09:18:02Z</time>
      </trkpt>
      <trkpt lat="38.3735610" lon="-0.6704760">
        <ele>339.7</ele>
        <time>2018-03-30T09:18:03Z</time>
      </trkpt>
      <trkpt lat="38.3735680" lon="-0.6704600">
        <ele>339.8</ele>
        <time>2018-03-30T09:18:04Z</time>
      </trkpt>
      <trkpt lat="38.3735720" lon="-0.6704420">
        <ele>339.9</ele>
        <time>2018-03-30T09:18:05Z</time>
      </trkpt>
      <trkpt lat="38.3735780" lon="-0.6704260">
        <ele>340.1</ele>
        <time>2018-03-30T09:18:06Z</time>
      </trkpt>
      <trkpt lat="38.3735790" lon="-0.6704070">
        <ele>340.2</ele>
        <time>2018-03-30T09:18:07Z</time>
      </trkpt>
      <trkpt lat="38.3735830" lon="-0.6703880">
        <ele>340.3</ele>
        <time>2018-03-30T09:18:08Z</time>
      </trkpt>
      <trkpt lat="38.3735870" lon="-0.6703670">
        <ele>340.5</ele>
        <time>2018-03-30T09:18:09Z</time>
      </trkpt>
      <trkpt lat="38.3735870" lon="-0.6703490">
        <ele>340.6</ele>
        <time>2018-03-30T09:18:10Z</time>
      </trkpt>
      <trkpt lat="38.3735910" lon="-0.6703320">
        <ele>340.7</ele>
        <time>2018-03-30T09:18:11Z</time>
      </trkpt>
      <trkpt lat="38.3735920" lon="-0.6703160">
        <ele>340.8</ele>
        <time>2018-03-30T09:18:12Z</time>
      </trkpt>
      <trkpt lat="38.3735930" lon="-0.6702970">
        <ele>341.0</ele>
        <time>2018-03-30T09:18:13Z</time>
      </trkpt>
      <trkpt lat="38.3735930" lon="-0.6702760">
        <ele>341.1</ele>
        <time>2018-03-30T09:18:14Z</time>
      </trkpt>
      <trkpt lat="38.3735920" lon="-0.6702560">
        <ele>341.3</ele>
        <time>2018-03-30T09:18:15Z</time>
      </trkpt>
      <trkpt lat="38.3735880" lon="-0.6702350">
        <ele>341.5</ele>
        <time>2018-03-30T09:18:16Z</time>
      </trkpt>
      <trkpt lat="38.3735820" lon="-0.6702180">
        <ele>341.7</ele>
        <time>2018-03-30T09:18:17Z</time>
      </trkpt>
      <trkpt lat="38.3735750" lon="-0.6701970">
        <ele>341.9</ele>
        <time>2018-03-30T09:18:18Z</time>
      </trkpt>
      <trkpt lat="38.3735690" lon="-0.6701730">
        <ele>342.2</ele>
        <time>2018-03-30T09:18:19Z</time>
      </trkpt>
      <trkpt lat="38.3735580" lon="-0.6701230">
        <ele>342.7</ele>
        <time>2018-03-30T09:18:20Z</time>
      </trkpt>
      <trkpt lat="38.3735450" lon="-0.6700430">
        <ele>343.5</ele>
        <time>2018-03-30T09:18:21Z</time>
      </trkpt>
      <trkpt lat="38.3735430" lon="-0.6699760">
        <ele>344.1</ele>
        <time>2018-03-30T09:18:22Z</time>
      </trkpt>
      <trkpt lat="38.3735440" lon="-0.6699260">
        <ele>344.6</ele>
        <time>2018-03-30T09:18:23Z</time>
      </trkpt>
      <trkpt lat="38.3735350" lon="-0.6698940">
        <ele>344.9</ele>
        <time>2018-03-30T09:18:24Z</time>
      </trkpt>
      <trkpt lat="38.3735290" lon="-0.6698740">
        <ele>345.0</ele>
        <time>2018-03-30T09:18:25Z</time>
      </trkpt>
      <trkpt lat="38.3735160" lon="-0.6698600">
        <ele>345.0</ele>
        <time>2018-03-30T09:18:26Z</time>
      </trkpt>
      <trkpt lat="38.3735040" lon="-0.6698720">
        <ele>344.9</ele>
        <time>2018-03-30T09:18:27Z</time>
      </trkpt>
      <trkpt lat="38.3734950" lon="-0.6698780">
        <ele>344.9</ele>
        <time>2018-03-30T09:18:28Z</time>
      </trkpt>
      <trkpt lat="38.3734880" lon="-0.6698830">
        <ele>344.9</ele>
        <time>2018-03-30T09:18:29Z</time>
      </trkpt>
      <trkpt lat="38.3734790" lon="-0.6699000">
        <ele>344.9</ele>
        <time>2018-03-30T09:18:30Z</time>
      </trkpt>
      <trkpt lat="38.3734610" lon="-0.6699060">
        <ele>344.9</ele>
        <time>2018-03-30T09:18:31Z</time>
      </trkpt>
      <trkpt lat="38.3734430" lon="-0.6699150">
        <ele>344.8</ele>
        <time>2018-03-30T09:18:32Z</time>
      </trkpt>
      <trkpt lat="38.3734260" lon="-0.6699340">
        <ele>344.8</ele>
        <time>2018-03-30T09:18:33Z</time>
      </trkpt>
      <trkpt lat="38.3733920" lon="-0.6699640">
        <ele>344.7</ele>
        <time>2018-03-30T09:18:34Z</time>
      </trkpt>
      <trkpt lat="38.3733540" lon="-0.6699940">
        <ele>344.7</ele>
        <time>2018-03-30T09:18:35Z</time>
      </trkpt>
      <trkpt lat="38.3733150" lon="-0.6700230">
        <ele>344.6</ele>
        <time>2018-03-30T09:18:36Z</time>
      </trkpt>
      <trkpt lat="38.3732790" lon="-0.6700530">
        <ele>344.5</ele>
        <time>2018-03-30T09:18:37Z</time>
      </trkpt>
      <trkpt lat="38.3732420" lon="-0.6700820">
        <ele>344.4</ele>
        <time>2018-03-30T09:18:38Z</time>
      </trkpt>
      <trkpt lat="38.3732050" lon="-0.6701160">
        <ele>344.3</ele>
        <time>2018-03-30T09:18:39Z</time>
      </trkpt>
      <trkpt lat="38.3731700" lon="-0.6701490">
        <ele>344.3</ele>
        <time>2018-03-30T09:18:40Z</time>
      </trkpt>
      <trkpt lat="38.3731370" lon="-0.6701840">
        <ele>344.2</ele>
        <time>2018-03-30T09:18:41Z</time>
      </trkpt>
      <trkpt lat="38.3731000" lon="-0.6702210">
        <ele>344.1</ele>
        <time>2018-03-30T09:18:42Z</time>
      </trkpt>
      <trkpt lat="38.3730600" lon="-0.6702610">
        <ele>344.0</ele>
        <time>2018-03-30T09:18:43Z</time>
      </trkpt>
      <trkpt lat="38.3730210" lon="-0.6703040">
        <ele>343.9</ele>
        <time>2018-03-30T09:18:44Z</time>
      </trkpt>
      <trkpt lat="38.3729790" lon="-0.6703480">
        <ele>343.9</ele>
        <time>2018-03-30T09:18:45Z</time>
      </trkpt>
      <trkpt lat="38.3729310" lon="-0.6703900">
        <ele>343.8</ele>
        <time>2018-03-30T09:18:46Z</time>
      </trkpt>
      <trkpt lat="38.3728850" lon="-0.6704110">
        <ele>343.8</ele>
        <time>2018-03-30T09:18:47Z</time>
      </trkpt>
      <trkpt lat="38.3728370" lon="-0.6704240">
        <ele>343.8</ele>
        <time>2018-03-30T09:18:48Z</time>
      </trkpt>
      <trkpt lat="38.3727840" lon="-0.6704380">
        <ele>343.9</ele>
        <time>2018-03-30T09:18:49Z</time>
      </trkpt>
      <trkpt lat="38.3727220" lon="-0.6704570">
        <ele>344.0</ele>
        <time>2018-03-30T09:18:50Z</time>
      </trkpt>
      <trkpt lat="38.3726680" lon="-0.6704740">
        <ele>344.1</ele>
        <time>2018-03-30T09:18:51Z</time>
      </trkpt>
      <trkpt lat="38.3726210" lon="-0.6704900">
        <ele>344.2</ele>
        <time>2018-03-30T09:18:52Z</time>
      </trkpt>
      <trkpt lat="38.3725760" lon="-0.6705060">
        <ele>344.3</ele>
        <time>2018-03-30T09:18:53Z</time>
      </trkpt>
      <trkpt lat="38.3725370" lon="-0.6705230">
        <ele>344.3</ele>
        <time>2018-03-30T09:18:54Z</time>
      </trkpt>
      <trkpt lat="38.3725060" lon="-0.6705500">
        <ele>344.4</ele>
        <time>2018-03-30T09:18:55Z</time>
      </trkpt>
      <trkpt lat="38.3724810" lon="-0.6705830">
        <ele>344.4</ele>
        <time>2018-03-30T09:18:56Z</time>
      </trkpt>
      <trkpt lat="38.3724650" lon="-0.6706220">
        <ele>344.4</ele>
        <time>2018-03-30T09:18:57Z</time>
      </trkpt>
      <trkpt lat="38.3724580" lon="-0.6706690">
        <ele>344.4</ele>
        <time>2018-03-30T09:18:58Z</time>
      </trkpt>
      <trkpt lat="38.3724530" lon="-0.6707200">
        <ele>344.4</ele>
        <time>2018-03-30T09:18:59Z</time>
      </trkpt>
      <trkpt lat="38.3724460" lon="-0.6707700">
        <ele>344.3</ele>
        <time>2018-03-30T09:19:00Z</time>
      </trkpt>
      <trkpt lat="38.3724350" lon="-0.6708180">
        <ele>344.3</ele>
        <time>2018-03-30T09:19:01Z</time>
      </trkpt>
      <trkpt lat="38.3724190" lon="-0.6708630">
        <ele>344.2</ele>
        <time>2018-03-30T09:19:02Z</time>
      </trkpt>
      <trkpt lat="38.3723960" lon="-0.6709010">
        <ele>344.2</ele>
        <time>2018-03-30T09:19:03Z</time>
      </trkpt>
      <trkpt lat="38.3723700" lon="-0.6709410">
        <ele>344.1</ele>
        <time>2018-03-30T09:19:04Z</time>
      </trkpt>
      <trkpt lat="38.3723390" lon="-0.6709790">
        <ele>343.9</ele>
        <time>2018-03-30T09:19:05Z</time>
      </trkpt>
      <trkpt lat="38.3723030" lon="-0.6710140">
        <ele>343.7</ele>
        <time>2018-03-30T09:19:06Z</time>
      </trkpt>
      <trkpt lat="38.3722610" lon="-0.6710470">
        <ele>343.3</ele>
        <time>2018-03-30T09:19:07Z</time>
      </trkpt>
      <trkpt lat="38.3722150" lon="-0.6710700">
        <ele>342.9</ele>
        <time>2018-03-30T09:19:08Z</time>
      </trkpt>
      <trkpt lat="38.3721630" lon="-0.6710900">
        <ele>342.5</ele>
        <time>2018-03-30T09:19:09Z</time>
      </trkpt>
      <trkpt lat="38.3721120" lon="-0.6711020">
        <ele>342.0</ele>
        <time>2018-03-30T09:19:10Z</time>
      </trkpt>
      <trkpt lat="38.3720550" lon="-0.6711060">
        <ele>341.2</ele>
        <time>2018-03-30T09:19:11Z</time>
      </trkpt>
      <trkpt lat="38.3719730" lon="-0.6711130">
        <ele>340.6</ele>
        <time>2018-03-30T09:19:12Z</time>
      </trkpt>
      <trkpt lat="38.3719020" lon="-0.6711290">
        <ele>339.9</ele>
        <time>2018-03-30T09:19:13Z</time>
      </trkpt>
      <trkpt lat="38.3718280" lon="-0.6711430">
        <ele>339.4</ele>
        <time>2018-03-30T09:19:14Z</time>
      </trkpt>
      <trkpt lat="38.3717600" lon="-0.6711550">
        <ele>339.0</ele>
        <time>2018-03-30T09:19:15Z</time>
      </trkpt>
      <trkpt lat="38.3716990" lon="-0.6711680">
        <ele>338.6</ele>
        <time>2018-03-30T09:19:16Z</time>
      </trkpt>
      <trkpt lat="38.3716560" lon="-0.6712210">
        <ele>338.4</ele>
        <time>2018-03-30T09:19:17Z</time>
      </trkpt>
      <trkpt lat="38.3716370" lon="-0.6713110">
        <ele>338.2</ele>
        <time>2018-03-30T09:19:18Z</time>
      </trkpt>
      <trkpt lat="38.3716130" lon="-0.6713830">
        <ele>338.0</ele>
        <time>2018-03-30T09:19:19Z</time>
      </trkpt>
      <trkpt lat="38.3715860" lon="-0.6714550">
        <ele>337.8</ele>
        <time>2018-03-30T09:19:20Z</time>
      </trkpt>
      <trkpt lat="38.3715590" lon="-0.6715250">
        <ele>337.6</ele>
        <time>2018-03-30T09:19:21Z</time>
      </trkpt>
      <trkpt lat="38.3715250" lon="-0.6715930">
        <ele>337.1</ele>
        <time>2018-03-30T09:19:22Z</time>
      </trkpt>
      <trkpt lat="38.3714880" lon="-0.6716590">
        <ele>336.8</ele>
        <time>2018-03-30T09:19:23Z</time>
      </trkpt>
      <trkpt lat="38.3714460" lon="-0.6717170">
        <ele>336.5</ele>
        <time>2018-03-30T09:19:24Z</time>
      </trkpt>
      <trkpt lat="38.3714020" lon="-0.6717720">
        <ele>336.2</ele>
        <time>2018-03-30T09:19:25Z</time>
      </trkpt>
      <trkpt lat="38.3713630" lon="-0.6718300">
        <ele>335.9</ele>
        <time>2018-03-30T09:19:26Z</time>
      </trkpt>
      <trkpt lat="38.3713240" lon="-0.6718930">
        <ele>335.5</ele>
        <time>2018-03-30T09:19:27Z</time>
      </trkpt>
      <trkpt lat="38.3712750" lon="-0.6719630">
        <ele>335.0</ele>
        <time>2018-03-30T09:19:28Z</time>
      </trkpt>
      <trkpt lat="38.3712210" lon="-0.6720260">
        <ele>334.5</ele>
        <time>2018-03-30T09:19:29Z</time>
      </trkpt>
      <trkpt lat="38.3711590" lon="-0.6720750">
        <ele>334.1</ele>
        <time>2018-03-30T09:19:30Z</time>
      </trkpt>
      <trkpt lat="38.3710970" lon="-0.6721190">
        <ele>333.7</ele>
        <time>2018-03-30T09:19:31Z</time>
      </trkpt>
      <trkpt lat="38.3710390" lon="-0.6721720">
        <ele>333.4</ele>
        <time>2018-03-30T09:19:32Z</time>
      </trkpt>
      <trkpt lat="38.3709950" lon="-0.6722410">
        <ele>333.0</ele>
        <time>2018-03-30T09:19:33Z</time>
      </trkpt>
      <trkpt lat="38.3709500" lon="-0.6722990">
        <ele>332.7</ele>
        <time>2018-03-30T09:19:34Z</time>
      </trkpt>
      <trkpt lat="38.3709000" lon="-0.6723540">
        <ele>332.4</ele>
        <time>2018-03-30T09:19:35Z</time>
      </trkpt>
      <trkpt lat="38.3708510" lon="-0.6724050">
        <ele>332.1</ele>
        <time>2018-03-30T09:19:36Z</time>
      </trkpt>
      <trkpt lat="38.3708000" lon="-0.6724630">
        <ele>331.8</ele>
        <time>2018-03-30T09:19:37Z</time>
      </trkpt>
      <trkpt lat="38.3707520" lon="-0.6725280">
        <ele>331.3</ele>
        <time>2018-03-30T09:19:38Z</time>
      </trkpt>
      <trkpt lat="38.3707050" lon="-0.6725940">
        <ele>330.9</ele>
        <time>2018-03-30T09:19:39Z</time>
      </trkpt>
      <trkpt lat="38.3706640" lon="-0.6726670">
        <ele>330.5</ele>
        <time>2018-03-30T09:19:40Z</time>
      </trkpt>
      <trkpt lat="38.3706220" lon="-0.6727360">
        <ele>330.4</ele>
        <time>2018-03-30T09:19:41Z</time>
      </trkpt>
      <trkpt lat="38.3705790" lon="-0.6727930">
        <ele>330.3</ele>
        <time>2018-03-30T09:19:42Z</time>
      </trkpt>
      <trkpt lat="38.3705330" lon="-0.6728510">
        <ele>330.3</ele>
        <time>2018-03-30T09:19:43Z</time>
      </trkpt>
      <trkpt lat="38.3704880" lon="-0.6729060">
        <ele>330.2</ele>
        <time>2018-03-30T09:19:44Z</time>
      </trkpt>
      <trkpt lat="38.3704380" lon="-0.6729610">
        <ele>330.1</ele>
        <time>2018-03-30T09:19:45Z</time>
      </trkpt>
      <trkpt lat="38.3703860" lon="-0.6730160">
        <ele>330.1</ele>
        <time>2018-03-30T09:19:46Z</time>
      </trkpt>
      <trkpt lat="38.3703380" lon="-0.6730680">
        <ele>330.0</ele>
        <time>2018-03-30T09:19:47Z</time>
      </trkpt>
      <trkpt lat="38.3702910" lon="-0.6731140">
        <ele>329.9</ele>
        <time>2018-03-30T09:19:48Z</time>
      </trkpt>
      <trkpt lat="38.3702410" lon="-0.6731570">
        <ele>329.8</ele>
        <time>2018-03-30T09:19:49Z</time>
      </trkpt>
      <trkpt lat="38.3701890" lon="-0.6731970">
        <ele>329.7</ele>
        <time>2018-03-30T09:19:50Z</time>
      </trkpt>
      <trkpt lat="38.3701350" lon="-0.6732430">
        <ele>329.6</ele>
        <time>2018-03-30T09:19:51Z</time>
      </trkpt>
      <trkpt lat="38.3700840" lon="-0.6732900">
        <ele>329.5</ele>
        <time>2018-03-30T09:19:52Z</time>
      </trkpt>
      <trkpt lat="38.3700400" lon="-0.6733410">
        <ele>329.4</ele>
        <time>2018-03-30T09:19:53Z</time>
      </trkpt>
      <trkpt lat="38.3699900" lon="-0.6733940">
        <ele>329.3</ele>
        <time>2018-03-30T09:19:54Z</time>
      </trkpt>
      <trkpt lat="38.3699380" lon="-0.6734430">
        <ele>329.2</ele>
        <time>2018-03-30T09:19:55Z</time>
      </trkpt>
      <trkpt lat="38.3698890" lon="-0.6734980">
        <ele>329.1</ele>
        <time>2018-03-30T09:19:56Z</time>
      </trkpt>
      <trkpt lat="38.3698470" lon="-0.6735540">
        <ele>328.9</ele>
        <time>2018-03-30T09:19:57Z</time>
      </trkpt>
      <trkpt lat="38.3698040" lon="-0.6736130">
        <ele>328.8</ele>
        <time>2018-03-30T09:19:58Z</time>
      </trkpt>
      <trkpt lat="38.3697620" lon="-0.6736700">
        <ele>328.6</ele>
        <time>2018-03-30T09:19:59Z</time>
      </trkpt>
      <trkpt lat="38.3697190" lon="-0.6737270">
        <ele>328.4</ele>
        <time>2018-03-30T09:20:00Z</time>
      </trkpt>
      <trkpt lat="38.3696770" lon="-0.6737840">
        <ele>328.2</ele>
        <time>2018-03-30T09:20:01Z</time>
      </trkpt>
      <trkpt lat="38.3696330" lon="-0.6738420">
        <ele>328.0</ele>
        <time>2018-03-30T09:20:02Z</time>
      </trkpt>
      <trkpt lat="38.3695870" lon="-0.6739040">
        <ele>327.4</ele>
        <time>2018-03-30T09:20:03Z</time>
      </trkpt>
      <trkpt lat="38.3695400" lon="-0.6739610">
        <ele>327.0</ele>
        <time>2018-03-30T09:20:04Z</time>
      </trkpt>
      <trkpt lat="38.3694870" lon="-0.6740140">
        <ele>326.4</ele>
        <time>2018-03-30T09:20:05Z</time>
      </trkpt>
      <trkpt lat="38.3694310" lon="-0.6740700">
        <ele>325.7</ele>
        <time>2018-03-30T09:20:06Z</time>
      </trkpt>
      <trkpt lat="38.3693720" lon="-0.6741400">
        <ele>324.6</ele>
        <time>2018-03-30T09:20:07Z</time>
      </trkpt>
      <trkpt lat="38.3693130" lon="-0.6742130">
        <ele>323.5</ele>
        <time>2018-03-30T09:20:08Z</time>
      </trkpt>
      <trkpt lat="38.3692540" lon="-0.6742910">
        <ele>322.4</ele>
        <time>2018-03-30T09:20:09Z</time>
      </trkpt>
      <trkpt lat="38.3691940" lon="-0.6743680">
        <ele>321.5</ele>
        <time>2018-03-30T09:20:10Z</time>
      </trkpt>
      <trkpt lat="38.3691300" lon="-0.6744410">
        <ele>320.5</ele>
        <time>2018-03-30T09:20:11Z</time>
      </trkpt>
      <trkpt lat="38.3690410" lon="-0.6745220">
        <ele>319.1</ele>
        <time>2018-03-30T09:20:12Z</time>
      </trkpt>
      <trkpt lat="38.3689650" lon="-0.6745980">
        <ele>317.6</ele>
        <time>2018-03-30T09:20:13Z</time>
      </trkpt>
      <trkpt lat="38.3688970" lon="-0.6746790">
        <ele>316.3</ele>
        <time>2018-03-30T09:20:14Z</time>
      </trkpt>
      <trkpt lat="38.3688340" lon="-0.6747620">
        <ele>315.6</ele>
        <time>2018-03-30T09:20:15Z</time>
      </trkpt>
      <trkpt lat="38.3687800" lon="-0.6748610">
        <ele>314.7</ele>
        <time>2018-03-30T09:20:16Z</time>
      </trkpt>
      <trkpt lat="38.3687270" lon="-0.6749680">
        <ele>314.1</ele>
        <time>2018-03-30T09:20:17Z</time>
      </trkpt>
      <trkpt lat="38.3686700" lon="-0.6750690">
        <ele>313.6</ele>
        <time>2018-03-30T09:20:18Z</time>
      </trkpt>
      <trkpt lat="38.3686110" lon="-0.6751580">
        <ele>312.9</ele>
        <time>2018-03-30T09:20:19Z</time>
      </trkpt>
      <trkpt lat="38.3685520" lon="-0.6752470">
        <ele>312.4</ele>
        <time>2018-03-30T09:20:20Z</time>
      </trkpt>
      <trkpt lat="38.3684830" lon="-0.6753280">
        <ele>311.7</ele>
        <time>2018-03-30T09:20:21Z</time>
      </trkpt>
      <trkpt lat="38.3684160" lon="-0.6754130">
        <ele>311.2</ele>
        <time>2018-03-30T09:20:22Z</time>
      </trkpt>
      <trkpt lat="38.3683450" lon="-0.6754840">
        <ele>310.9</ele>
        <time>2018-03-30T09:20:23Z</time>
      </trkpt>
      <trkpt lat="38.3682750" lon="-0.6755600">
        <ele>310.6</ele>
        <time>2018-03-30T09:20:24Z</time>
      </trkpt>
      <trkpt lat="38.3682000" lon="-0.6756360">
        <ele>310.4</ele>
        <time>2018-03-30T09:20:25Z</time>
      </trkpt>
      <trkpt lat="38.3681270" lon="-0.6757160">
        <ele>310.1</ele>
        <time>2018-03-30T09:20:26Z</time>
      </trkpt>
      <trkpt lat="38.3680580" lon="-0.6757900">
        <ele>309.9</ele>
        <time>2018-03-30T09:20:27Z</time>
      </trkpt>
      <trkpt lat="38.3679870" lon="-0.6758590">
        <ele>309.9</ele>
        <time>2018-03-30T09:20:28Z</time>
      </trkpt>
      <trkpt lat="38.3679170" lon="-0.6759180">
        <ele>309.9</ele>
        <time>2018-03-30T09:20:29Z</time>
      </trkpt>
      <trkpt lat="38.3678400" lon="-0.6759320">
        <ele>310.0</ele>
        <time>2018-03-30T09:20:30Z</time>
      </trkpt>
      <trkpt lat="38.3677620" lon="-0.6759380">
        <ele>310.2</ele>
        <time>2018-03-30T09:20:31Z</time>
      </trkpt>
      <trkpt lat="38.3676820" lon="-0.6759510">
        <ele>310.4</ele>
        <time>2018-03-30T09:20:32Z</time>
      </trkpt>
      <trkpt lat="38.3676160" lon="-0.6759720">
        <ele>310.5</ele>
        <time>2018-03-30T09:20:33Z</time>
      </trkpt>
      <trkpt lat="38.3675470" lon="-0.6759970">
        <ele>310.7</ele>
        <time>2018-03-30T09:20:34Z</time>
      </trkpt>
      <trkpt lat="38.3674870" lon="-0.6760270">
        <ele>310.8</ele>
        <time>2018-03-30T09:20:35Z</time>
      </trkpt>
      <trkpt lat="38.3674290" lon="-0.6760530">
        <ele>311.1</ele>
        <time>2018-03-30T09:20:36Z</time>
      </trkpt>
      <trkpt lat="38.3673750" lon="-0.6760840">
        <ele>311.3</ele>
        <time>2018-03-30T09:20:37Z</time>
      </trkpt>
      <trkpt lat="38.3673260" lon="-0.6761160">
        <ele>311.5</ele>
        <time>2018-03-30T09:20:38Z</time>
      </trkpt>
      <trkpt lat="38.3672780" lon="-0.6761520">
        <ele>311.6</ele>
        <time>2018-03-30T09:20:39Z</time>
      </trkpt>
      <trkpt lat="38.3672300" lon="-0.6761840">
        <ele>311.7</ele>
        <time>2018-03-30T09:20:40Z</time>
      </trkpt>
      <trkpt lat="38.3671820" lon="-0.6762170">
        <ele>311.8</ele>
        <time>2018-03-30T09:20:41Z</time>
      </trkpt>
      <trkpt lat="38.3671360" lon="-0.6762540">
        <ele>311.9</ele>
        <time>2018-03-30T09:20:42Z</time>
      </trkpt>
      <trkpt lat="38.3670920" lon="-0.6762950">
        <ele>311.9</ele>
        <time>2018-03-30T09:20:43Z</time>
      </trkpt>
      <trkpt lat="38.3670470" lon="-0.6763380">
        <ele>312.0</ele>
        <time>2018-03-30T09:20:44Z</time>
      </trkpt>
      <trkpt lat="38.3669990" lon="-0.6763800">
        <ele>312.0</ele>
        <time>2018-03-30T09:20:45Z</time>
      </trkpt>
      <trkpt lat="38.3669500" lon="-0.6764220">
        <ele>312.0</ele>
        <time>2018-03-30T09:20:46Z</time>
      </trkpt>
      <trkpt lat="38.3669020" lon="-0.6764650">
        <ele>312.0</ele>
        <time>2018-03-30T09:20:47Z</time>
      </trkpt>
      <trkpt lat="38.3668530" lon="-0.6765050">
        <ele>312.0</ele>
        <time>2018-03-30T09:20:48Z</time>
      </trkpt>
      <trkpt lat="38.3668030" lon="-0.6765440">
        <ele>312.0</ele>
        <time>2018-03-30T09:20:49Z</time>
      </trkpt>
      <trkpt lat="38.3667490" lon="-0.6765810">
        <ele>312.0</ele>
        <time>2018-03-30T09:20:50Z</time>
      </trkpt>
      <trkpt lat="38.3666970" lon="-0.6766210">
        <ele>312.0</ele>
        <time>2018-03-30T09:20:51Z</time>
      </trkpt>
      <trkpt lat="38.3666440" lon="-0.6766630">
        <ele>312.1</ele>
        <time>2018-03-30T09:20:52Z</time>
      </trkpt>
      <trkpt lat="38.3665910" lon="-0.6767090">
        <ele>312.1</ele>
        <time>2018-03-30T09:20:53Z</time>
      </trkpt>
      <trkpt lat="38.3665430" lon="-0.6767610">
        <ele>312.1</ele>
        <time>2018-03-30T09:20:54Z</time>
      </trkpt>
      <trkpt lat="38.3664960" lon="-0.6768120">
        <ele>312.1</ele>
        <time>2018-03-30T09:20:55Z</time>
      </trkpt>
      <trkpt lat="38.3664510" lon="-0.6768650">
        <ele>312.1</ele>
        <time>2018-03-30T09:20:56Z</time>
      </trkpt>
      <trkpt lat="38.3664090" lon="-0.6769200">
        <ele>312.0</ele>
        <time>2018-03-30T09:20:57Z</time>
      </trkpt>
      <trkpt lat="38.3663670" lon="-0.6769760">
        <ele>312.0</ele>
        <time>2018-03-30T09:20:58Z</time>
      </trkpt>
      <trkpt lat="38.3663230" lon="-0.6770310">
        <ele>312.0</ele>
        <time>2018-03-30T09:20:59Z</time>
      </trkpt>
      <trkpt lat="38.3662760" lon="-0.6770840">
        <ele>311.9</ele>
        <time>2018-03-30T09:21:00Z</time>
      </trkpt>
      <trkpt lat="38.3662310" lon="-0.6771340">
        <ele>311.9</ele>
        <time>2018-03-30T09:21:01Z</time>
      </trkpt>
      <trkpt lat="38.3661880" lon="-0.6771780">
        <ele>311.8</ele>
        <time>2018-03-30T09:21:02Z</time>
      </trkpt>
      <trkpt lat="38.3661440" lon="-0.6772080">
        <ele>311.8</ele>
        <time>2018-03-30T09:21:03Z</time>
      </trkpt>
      <trkpt lat="38.3660970" lon="-0.6772370">
        <ele>311.7</ele>
        <time>2018-03-30T09:21:04Z</time>
      </trkpt>
      <trkpt lat="38.3660460" lon="-0.6772680">
        <ele>311.5</ele>
        <time>2018-03-30T09:21:05Z</time>
      </trkpt>
      <trkpt lat="38.3659940" lon="-0.6773080">
        <ele>311.3</ele>
        <time>2018-03-30T09:21:06Z</time>
      </trkpt>
      <trkpt lat="38.3659360" lon="-0.6773600">
        <ele>310.9</ele>
        <time>2018-03-30T09:21:07Z</time>
      </trkpt>
      <trkpt lat="38.3658770" lon="-0.6774180">
        <ele>310.0</ele>
        <time>2018-03-30T09:21:08Z</time>
      </trkpt>
      <trkpt lat="38.3658180" lon="-0.6774770">
        <ele>309.1</ele>
        <time>2018-03-30T09:21:09Z</time>
      </trkpt>
      <trkpt lat="38.3657600" lon="-0.6775340">
        <ele>308.2</ele>
        <time>2018-03-30T09:21:10Z</time>
      </trkpt>
      <trkpt lat="38.3657040" lon="-0.6775880">
        <ele>307.3</ele>
        <time>2018-03-30T09:21:11Z</time>
      </trkpt>
      <trkpt lat="38.3656630" lon="-0.6776190">
        <ele>306.7</ele>
        <time>2018-03-30T09:21:12Z</time>
      </trkpt>
      <trkpt lat="38.3656300" lon="-0.6775610">
        <ele>306.0</ele>
        <time>2018-03-30T09:21:13Z</time>
      </trkpt>
      <trkpt lat="38.3656020" lon="-0.6775460">
        <ele>306.1</ele>
        <time>2018-03-30T09:21:14Z</time>
      </trkpt>
      <trkpt lat="38.3655680" lon="-0.6775380">
        <ele>306.1</ele>
        <time>2018-03-30T09:21:15Z</time>
      </trkpt>
      <trkpt lat="38.3655420" lon="-0.6775470">
        <ele>306.2</ele>
        <time>2018-03-30T09:21:16Z</time>
      </trkpt>
      <trkpt lat="38.3655180" lon="-0.6775660">
        <ele>306.2</ele>
        <time>2018-03-30T09:21:17Z</time>
      </trkpt>
      <trkpt lat="38.3654950" lon="-0.6775950">
        <ele>306.3</ele>
        <time>2018-03-30T09:21:18Z</time>
      </trkpt>
      <trkpt lat="38.3654760" lon="-0.6776220">
        <ele>306.3</ele>
        <time>2018-03-30T09:21:19Z</time>
      </trkpt>
      <trkpt lat="38.3654550" lon="-0.6776520">
        <ele>306.4</ele>
        <time>2018-03-30T09:21:20Z</time>
      </trkpt>
      <trkpt lat="38.3654300" lon="-0.6776820">
        <ele>306.4</ele>
        <time>2018-03-30T09:21:21Z</time>
      </trkpt>
      <trkpt lat="38.3654020" lon="-0.6777190">
        <ele>306.5</ele>
        <time>2018-03-30T09:21:22Z</time>
      </trkpt>
      <trkpt lat="38.3653730" lon="-0.6777700">
        <ele>306.5</ele>
        <time>2018-03-30T09:21:23Z</time>
      </trkpt>
      <trkpt lat="38.3653430" lon="-0.6778200">
        <ele>306.5</ele>
        <time>2018-03-30T09:21:24Z</time>
      </trkpt>
      <trkpt lat="38.3653070" lon="-0.6778590">
        <ele>306.4</ele>
        <time>2018-03-30T09:21:25Z</time>
      </trkpt>
      <trkpt lat="38.3652640" lon="-0.6779010">
        <ele>306.4</ele>
        <time>2018-03-30T09:21:26Z</time>
      </trkpt>
      <trkpt lat="38.3652180" lon="-0.6779440">
        <ele>306.3</ele>
        <time>2018-03-30T09:21:27Z</time>
      </trkpt>
      <trkpt lat="38.3651660" lon="-0.6779970">
        <ele>306.2</ele>
        <time>2018-03-30T09:21:28Z</time>
      </trkpt>
      <trkpt lat="38.3651150" lon="-0.6780610">
        <ele>306.0</ele>
        <time>2018-03-30T09:21:29Z</time>
      </trkpt>
      <trkpt lat="38.3650630" lon="-0.6781310">
        <ele>305.8</ele>
        <time>2018-03-30T09:21:30Z</time>
      </trkpt>
      <trkpt lat="38.3650120" lon="-0.6781980">
        <ele>305.6</ele>
        <time>2018-03-30T09:21:31Z</time>
      </trkpt>
      <trkpt lat="38.3649680" lon="-0.6782580">
        <ele>305.3</ele>
        <time>2018-03-30T09:21:32Z</time>
      </trkpt>
      <trkpt lat="38.3649410" lon="-0.6783010">
        <ele>305.3</ele>
        <time>2018-03-30T09:21:33Z</time>
      </trkpt>
      <trkpt lat="38.3649110" lon="-0.6783400">
        <ele>305.2</ele>
        <time>2018-03-30T09:21:34Z</time>
      </trkpt>
      <trkpt lat="38.3648680" lon="-0.6783490">
        <ele>305.1</ele>
        <time>2018-03-30T09:21:35Z</time>
      </trkpt>
      <trkpt lat="38.3648110" lon="-0.6783700">
        <ele>305.0</ele>
        <time>2018-03-30T09:21:36Z</time>
      </trkpt>
      <trkpt lat="38.3647530" lon="-0.6783930">
        <ele>305.0</ele>
        <time>2018-03-30T09:21:37Z</time>
      </trkpt>
      <trkpt lat="38.3646880" lon="-0.6784130">
        <ele>305.0</ele>
        <time>2018-03-30T09:21:38Z</time>
      </trkpt>
      <trkpt lat="38.3646200" lon="-0.6784210">
        <ele>305.0</ele>
        <time>2018-03-30T09:21:39Z</time>
      </trkpt>
      <trkpt lat="38.3645430" lon="-0.6784100">
        <ele>305.0</ele>
        <time>2018-03-30T09:21:40Z</time>
      </trkpt>
      <trkpt lat="38.3644640" lon="-0.6783850">
        <ele>304.5</ele>
        <time>2018-03-30T09:21:41Z</time>
      </trkpt>
      <trkpt lat="38.3643820" lon="-0.6783560">
        <ele>303.9</ele>
        <time>2018-03-30T09:21:42Z</time>
      </trkpt>
      <trkpt lat="38.3642960" lon="-0.6783230">
        <ele>303.3</ele>
        <time>2018-03-30T09:21:43Z</time>
      </trkpt>
      <trkpt lat="38.3642060" lon="-0.6782900">
        <ele>302.7</ele>
        <time>2018-03-30T09:21:44Z</time>
      </trkpt>
      <trkpt lat="38.3641160" lon="-0.6782560">
        <ele>302.3</ele>
        <time>2018-03-30T09:21:45Z</time>
      </trkpt>
      <trkpt lat="38.3640250" lon="-0.6782170">
        <ele>301.9</ele>
        <time>2018-03-30T09:21:46Z</time>
      </trkpt>
      <trkpt lat="38.3639330" lon="-0.6781820">
        <ele>301.6</ele>
        <time>2018-03-30T09:21:47Z</time>
      </trkpt>
      <trkpt lat="38.3638450" lon="-0.6781470">
        <ele>301.4</ele>
        <time>2018-03-30T09:21:48Z</time>
      </trkpt>
      <trkpt lat="38.3637640" lon="-0.6781180">
        <ele>301.3</ele>
        <time>2018-03-30T09:21:49Z</time>
      </trkpt>
      <trkpt lat="38.3636880" lon="-0.6780980">
        <ele>301.1</ele>
        <time>2018-03-30T09:21:50Z</time>
      </trkpt>
      <trkpt lat="38.3636350" lon="-0.6781080">
        <ele>301.1</ele>
        <time>2018-03-30T09:21:51Z</time>
      </trkpt>
      <trkpt lat="38.3635780" lon="-0.6781620">
        <ele>301.4</ele>
        <time>2018-03-30T09:21:52Z</time>
      </trkpt>
      <trkpt lat="38.3635510" lon="-0.6782140">
        <ele>301.7</ele>
        <time>2018-03-30T09:21:53Z</time>
      </trkpt>
      <trkpt lat="38.3635310" lon="-0.6782620">
        <ele>302.0</ele>
        <time>2018-03-30T09:21:54Z</time>
      </trkpt>
      <trkpt lat="38.3635120" lon="-0.6783020">
        <ele>302.3</ele>
        <time>2018-03-30T09:21:55Z</time>
      </trkpt>
      <trkpt lat="38.3634930" lon="-0.6783430">
        <ele>302.7</ele>
        <time>2018-03-30T09:21:56Z</time>
      </trkpt>
      <trkpt lat="38.3634770" lon="-0.6783760">
        <ele>303.0</ele>
        <time>2018-03-30T09:21:57Z</time>
      </trkpt>
      <trkpt lat="38.3634590" lon="-0.6784110">
        <ele>303.4</ele>
        <time>2018-03-30T09:21:58Z</time>
      </trkpt>
      <trkpt lat="38.3634400" lon="-0.6784470">
        <ele>303.8</ele>
        <time>2018-03-30T09:21:59Z</time>
      </trkpt>
      <trkpt lat="38.3634210" lon="-0.6784780">
        <ele>304.2</ele>
        <time>2018-03-30T09:22:00Z</time>
      </trkpt>
      <trkpt lat="38.3634010" lon="-0.6785150">
        <ele>304.6</ele>
        <time>2018-03-30T09:22:01Z</time>
      </trkpt>
      <trkpt lat="38.3633820" lon="-0.6785490">
        <ele>304.9</ele>
        <time>2018-03-30T09:22:02Z</time>
      </trkpt>
      <trkpt lat="38.3633600" lon="-0.6785860">
        <ele>305.3</ele>
        <time>2018-03-30T09:22:03Z</time>
      </trkpt>
      <trkpt lat="38.3633400" lon="-0.6786170">
        <ele>305.6</ele>
        <time>2018-03-30T09:22:04Z</time>
      </trkpt>
      <trkpt lat="38.3633180" lon="-0.6786480">
        <ele>305.9</ele>
        <time>2018-03-30T09:22:05Z</time>
      </trkpt>
      <trkpt lat="38.3632980" lon="-0.6786820">
        <ele>306.2</ele>
        <time>2018-03-30T09:22:06Z</time>
      </trkpt>
      <trkpt lat="38.3632770" lon="-0.6787140">
        <ele>306.5</ele>
        <time>2018-03-30T09:22:07Z</time>
      </trkpt>
      <trkpt lat="38.3632550" lon="-0.6787510">
        <ele>306.9</ele>
        <time>2018-03-30T09:22:08Z</time>
      </trkpt>
      <trkpt lat="38.3632300" lon="-0.6787890">
        <ele>307.2</ele>
        <time>2018-03-30T09:22:09Z</time>
      </trkpt>
      <trkpt lat="38.3632090" lon="-0.6788130">
        <ele>307.5</ele>
        <time>2018-03-30T09:22:10Z</time>
      </trkpt>
      <trkpt lat="38.3631840" lon="-0.6788520">
        <ele>307.8</ele>
        <time>2018-03-30T09:22:11Z</time>
      </trkpt>
      <trkpt lat="38.3631630" lon="-0.6788800">
        <ele>307.9</ele>
        <time>2018-03-30T09:22:12Z</time>
      </trkpt>
      <trkpt lat="38.3631370" lon="-0.6789130">
        <ele>308.2</ele>
        <time>2018-03-30T09:22:13Z</time>
      </trkpt>
      <trkpt lat="38.3631090" lon="-0.6789520">
        <ele>308.4</ele>
        <time>2018-03-30T09:22:14Z</time>
      </trkpt>
      <trkpt lat="38.3630830" lon="-0.6789720">
        <ele>308.6</ele>
        <time>2018-03-30T09:22:15Z</time>
      </trkpt>
      <trkpt lat="38.3630570" lon="-0.6789920">
        <ele>308.9</ele>
        <time>2018-03-30T09:22:16Z</time>
      </trkpt>
      <trkpt lat="38.3630300" lon="-0.6790150">
        <ele>309.2</ele>
        <time>2018-03-30T09:22:17Z</time>
      </trkpt>
      <trkpt lat="38.3630050" lon="-0.6790410">
        <ele>309.4</ele>
        <time>2018-03-30T09:22:18Z</time>
      </trkpt>
      <trkpt lat="38.3629800" lon="-0.6790660">
        <ele>309.6</ele>
        <time>2018-03-30T09:22:19Z</time>
      </trkpt>
      <trkpt lat="38.3629550" lon="-0.6790920">
        <ele>309.8</ele>
        <time>2018-03-30T09:22:20Z</time>
      </trkpt>
      <trkpt lat="38.3629290" lon="-0.6791170">
        <ele>310.0</ele>
        <time>2018-03-30T09:22:21Z</time>
      </trkpt>
      <trkpt lat="38.3629030" lon="-0.6791500">
        <ele>309.8</ele>
        <time>2018-03-30T09:22:22Z</time>
      </trkpt>
      <trkpt lat="38.3628800" lon="-0.6791770">
        <ele>309.7</ele>
        <time>2018-03-30T09:22:23Z</time>
      </trkpt>
      <trkpt lat="38.3628580" lon="-0.6792070">
        <ele>309.5</ele>
        <time>2018-03-30T09:22:24Z</time>
      </trkpt>
      <trkpt lat="38.3628340" lon="-0.6792340">
        <ele>309.4</ele>
        <time>2018-03-30T09:22:25Z</time>
      </trkpt>
      <trkpt lat="38.3628130" lon="-0.6792550">
        <ele>309.3</ele>
        <time>2018-03-30T09:22:26Z</time>
      </trkpt>
      <trkpt lat="38.3627900" lon="-0.6792740">
        <ele>309.0</ele>
        <time>2018-03-30T09:22:27Z</time>
      </trkpt>
      <trkpt lat="38.3627660" lon="-0.6792910">
        <ele>308.9</ele>
        <time>2018-03-30T09:22:28Z</time>
      </trkpt>
      <trkpt lat="38.3627410" lon="-0.6793090">
        <ele>308.8</ele>
        <time>2018-03-30T09:22:29Z</time>
      </trkpt>
      <trkpt lat="38.3627160" lon="-0.6793250">
        <ele>308.7</ele>
        <time>2018-03-30T09:22:30Z</time>
      </trkpt>
      <trkpt lat="38.3626900" lon="-0.6793410">
        <ele>308.6</ele>
        <time>2018-03-30T09:22:31Z</time>
      </trkpt>
      <trkpt lat="38.3626650" lon="-0.6793600">
        <ele>308.5</ele>
        <time>2018-03-30T09:22:32Z</time>
      </trkpt>
      <trkpt lat="38.3626390" lon="-0.6793790">
        <ele>308.4</ele>
        <time>2018-03-30T09:22:33Z</time>
      </trkpt>
      <trkpt lat="38.3626110" lon="-0.6793960">
        <ele>308.3</ele>
        <time>2018-03-30T09:22:34Z</time>
      </trkpt>
      <trkpt lat="38.3625810" lon="-0.6794130">
        <ele>308.2</ele>
        <time>2018-03-30T09:22:35Z</time>
      </trkpt>
      <trkpt lat="38.3625510" lon="-0.6794300">
        <ele>308.1</ele>
        <time>2018-03-30T09:22:36Z</time>
      </trkpt>
      <trkpt lat="38.3625210" lon="-0.6794450">
        <ele>307.9</ele>
        <time>2018-03-30T09:22:37Z</time>
      </trkpt>
      <trkpt lat="38.3624890" lon="-0.6794610">
        <ele>307.7</ele>
        <time>2018-03-30T09:22:38Z</time>
      </trkpt>
      <trkpt lat="38.3624580" lon="-0.6794770">
        <ele>307.6</ele>
        <time>2018-03-30T09:22:39Z</time>
      </trkpt>
      <trkpt lat="38.3624270" lon="-0.6794900">
        <ele>307.4</ele>
        <time>2018-03-30T09:22:40Z</time>
      </trkpt>
      <trkpt lat="38.3623960" lon="-0.6795020">
        <ele>307.3</ele>
        <time>2018-03-30T09:22:41Z</time>
      </trkpt>
      <trkpt lat="38.3623650" lon="-0.6795130">
        <ele>307.1</ele>
        <time>2018-03-30T09:22:42Z</time>
      </trkpt>
      <trkpt lat="38.3623170" lon="-0.6795250">
        <ele>306.8</ele>
        <time>2018-03-30T09:22:43Z</time>
      </trkpt>
      <trkpt lat="38.3622720" lon="-0.6795350">
        <ele>306.5</ele>
        <time>2018-03-30T09:22:44Z</time>
      </trkpt>
      <trkpt lat="38.3622300" lon="-0.6795460">
        <ele>306.2</ele>
        <time>2018-03-30T09:22:45Z</time>
      </trkpt>
      <trkpt lat="38.3621840" lon="-0.6795530">
        <ele>306.0</ele>
        <time>2018-03-30T09:22:46Z</time>
      </trkpt>
      <trkpt lat="38.3621380" lon="-0.6795560">
        <ele>305.8</ele>
        <time>2018-03-30T09:22:47Z</time>
      </trkpt>
      <trkpt lat="38.3620840" lon="-0.6795600">
        <ele>305.6</ele>
        <time>2018-03-30T09:22:48Z</time>
      </trkpt>
      <trkpt lat="38.3619940" lon="-0.6795700">
        <ele>305.2</ele>
        <time>2018-03-30T09:22:49Z</time>
      </trkpt>
      <trkpt lat="38.3619300" lon="-0.6795730">
        <ele>305.0</ele>
        <time>2018-03-30T09:22:50Z</time>
      </trkpt>
      <trkpt lat="38.3618690" lon="-0.6795730">
        <ele>304.6</ele>
        <time>2018-03-30T09:22:51Z</time>
      </trkpt>
      <trkpt lat="38.3618130" lon="-0.6795700">
        <ele>304.3</ele>
        <time>2018-03-30T09:22:52Z</time>
      </trkpt>
      <trkpt lat="38.3617340" lon="-0.6795680">
        <ele>303.9</ele>
        <time>2018-03-30T09:22:53Z</time>
      </trkpt>
      <trkpt lat="38.3616590" lon="-0.6795570">
        <ele>303.3</ele>
        <time>2018-03-30T09:22:54Z</time>
      </trkpt>
      <trkpt lat="38.3615840" lon="-0.6795420">
        <ele>302.8</ele>
        <time>2018-03-30T09:22:55Z</time>
      </trkpt>
      <trkpt lat="38.3615050" lon="-0.6795240">
        <ele>302.4</ele>
        <time>2018-03-30T09:22:56Z</time>
      </trkpt>
      <trkpt lat="38.3614200" lon="-0.6795020">
        <ele>301.9</ele>
        <time>2018-03-30T09:22:57Z</time>
      </trkpt>
      <trkpt lat="38.3613380" lon="-0.6794700">
        <ele>301.5</ele>
        <time>2018-03-30T09:22:58Z</time>
      </trkpt>
      <trkpt lat="38.3612540" lon="-0.6794320">
        <ele>300.9</ele>
        <time>2018-03-30T09:22:59Z</time>
      </trkpt>
      <trkpt lat="38.3611670" lon="-0.6793880">
        <ele>300.3</ele>
        <time>2018-03-30T09:23:00Z</time>
      </trkpt>
      <trkpt lat="38.3610790" lon="-0.6793350">
        <ele>299.4</ele>
        <time>2018-03-30T09:23:01Z</time>
      </trkpt>
      <trkpt lat="38.3609920" lon="-0.6792750">
        <ele>298.6</ele>
        <time>2018-03-30T09:23:02Z</time>
      </trkpt>
      <trkpt lat="38.3608980" lon="-0.6792120">
        <ele>297.9</ele>
        <time>2018-03-30T09:23:03Z</time>
      </trkpt>
      <trkpt lat="38.3608060" lon="-0.6791440">
        <ele>297.2</ele>
        <time>2018-03-30T09:23:04Z</time>
      </trkpt>
      <trkpt lat="38.3607140" lon="-0.6790650">
        <ele>296.4</ele>
        <time>2018-03-30T09:23:05Z</time>
      </trkpt>
      <trkpt lat="38.3606300" lon="-0.6789730">
        <ele>295.7</ele>
        <time>2018-03-30T09:23:06Z</time>
      </trkpt>
      <trkpt lat="38.3605470" lon="-0.6788770">
        <ele>295.0</ele>
        <time>2018-03-30T09:23:07Z</time>
      </trkpt>
      <trkpt lat="38.3604660" lon="-0.6787670">
        <ele>294.3</ele>
        <time>2018-03-30T09:23:08Z</time>
      </trkpt>
      <trkpt lat="38.3604170" lon="-0.6786540">
        <ele>293.9</ele>
        <time>2018-03-30T09:23:09Z</time>
      </trkpt>
      <trkpt lat="38.3603660" lon="-0.6785330">
        <ele>293.4</ele>
        <time>2018-03-30T09:23:10Z</time>
      </trkpt>
      <trkpt lat="38.3603120" lon="-0.6784060">
        <ele>292.9</ele>
        <time>2018-03-30T09:23:11Z</time>
      </trkpt>
      <trkpt lat="38.3602600" lon="-0.6782760">
        <ele>292.4</ele>
        <time>2018-03-30T09:23:12Z</time>
      </trkpt>
      <trkpt lat="38.3602130" lon="-0.6781420">
        <ele>291.9</ele>
        <time>2018-03-30T09:23:13Z</time>
      </trkpt>
      <trkpt lat="38.3601710" lon="-0.6780050">
        <ele>291.3</ele>
        <time>2018-03-30T09:23:14Z</time>
      </trkpt>
      <trkpt lat="38.3601340" lon="-0.6778620">
        <ele>290.7</ele>
        <time>2018-03-30T09:23:15Z</time>
      </trkpt>
      <trkpt lat="38.3600970" lon="-0.6777210">
        <ele>290.2</ele>
        <time>2018-03-30T09:23:16Z</time>
      </trkpt>
      <trkpt lat="38.3600640" lon="-0.6775840">
        <ele>289.7</ele>
        <time>2018-03-30T09:23:17Z</time>
      </trkpt>
      <trkpt lat="38.3600290" lon="-0.6774480">
        <ele>289.3</ele>
        <time>2018-03-30T09:23:18Z</time>
      </trkpt>
      <trkpt lat="38.3599940" lon="-0.6773120">
        <ele>288.9</ele>
        <time>2018-03-30T09:23:19Z</time>
      </trkpt>
      <trkpt lat="38.3599600" lon="-0.6771790">
        <ele>288.5</ele>
        <time>2018-03-30T09:23:20Z</time>
      </trkpt>
      <trkpt lat="38.3599250" lon="-0.6770470">
        <ele>287.9</ele>
        <time>2018-03-30T09:23:21Z</time>
      </trkpt>
      <trkpt lat="38.3598900" lon="-0.6769150">
        <ele>287.5</ele>
        <time>2018-03-30T09:23:22Z</time>
      </trkpt>
      <trkpt lat="38.3598570" lon="-0.6767840">
        <ele>287.3</ele>
        <time>2018-03-30T09:23:23Z</time>
      </trkpt>
      <trkpt lat="38.3598240" lon="-0.6766540">
        <ele>287.1</ele>
        <time>2018-03-30T09:23:24Z</time>
      </trkpt>
      <trkpt lat="38.3597910" lon="-0.6765260">
        <ele>286.9</ele>
        <time>2018-03-30T09:23:25Z</time>
      </trkpt>
      <trkpt lat="38.3597600" lon="-0.6763980">
        <ele>286.7</ele>
        <time>2018-03-30T09:23:26Z</time>
      </trkpt>
      <trkpt lat="38.3597280" lon="-0.6762720">
        <ele>286.3</ele>
        <time>2018-03-30T09:23:27Z</time>
      </trkpt>
      <trkpt lat="38.3596960" lon="-0.6761460">
        <ele>286.1</ele>
        <time>2018-03-30T09:23:28Z</time>
      </trkpt>
      <trkpt lat="38.3596640" lon="-0.6760230">
        <ele>286.0</ele>
        <time>2018-03-30T09:23:29Z</time>
      </trkpt>
      <trkpt lat="38.3596330" lon="-0.6759010">
        <ele>285.8</ele>
        <time>2018-03-30T09:23:30Z</time>
      </trkpt>
      <trkpt lat="38.3596020" lon="-0.6757820">
        <ele>285.7</ele>
        <time>2018-03-30T09:23:31Z</time>
      </trkpt>
      <trkpt lat="38.3595720" lon="-0.6756640">
        <ele>285.6</ele>
        <time>2018-03-30T09:23:32Z</time>
      </trkpt>
      <trkpt lat="38.3595440" lon="-0.6755480">
        <ele>285.5</ele>
        <time>2018-03-30T09:23:33Z</time>
      </trkpt>
      <trkpt lat="38.3595160" lon="-0.6754350">
        <ele>285.3</ele>
        <time>2018-03-30T09:23:34Z</time>
      </trkpt>
      <trkpt lat="38.3594880" lon="-0.6753230">
        <ele>285.2</ele>
        <time>2018-03-30T09:23:35Z</time>
      </trkpt>
      <trkpt lat="38.3594610" lon="-0.6752120">
        <ele>285.1</ele>
        <time>2018-03-30T09:23:36Z</time>
      </trkpt>
      <trkpt lat="38.3594380" lon="-0.6751040">
        <ele>285.0</ele>
        <time>2018-03-30T09:23:37Z</time>
      </trkpt>
      <trkpt lat="38.3594150" lon="-0.6749960">
        <ele>284.9</ele>
        <time>2018-03-30T09:23:38Z</time>
      </trkpt>
      <trkpt lat="38.3593970" lon="-0.6748900">
        <ele>284.8</ele>
        <time>2018-03-30T09:23:39Z</time>
      </trkpt>
      <trkpt lat="38.3593820" lon="-0.6747850">
        <ele>284.7</ele>
        <time>2018-03-30T09:23:40Z</time>
      </trkpt>
      <trkpt lat="38.3593700" lon="-0.6746820">
        <ele>284.6</ele>
        <time>2018-03-30T09:23:41Z</time>
      </trkpt>
      <trkpt lat="38.3593580" lon="-0.6745800">
        <ele>284.5</ele>
        <time>2018-03-30T09:23:42Z</time>
      </trkpt>
      <trkpt lat="38.3593490" lon="-0.6744790">
        <ele>284.4</ele>
        <time>2018-03-30T09:23:43Z</time>
      </trkpt>
      <trkpt lat="38.3593520" lon="-0.6743820">
        <ele>284.3</ele>
        <time>2018-03-30T09:23:44Z</time>
      </trkpt>
      <trkpt lat="38.3593520" lon="-0.6742870">
        <ele>284.2</ele>
        <time>2018-03-30T09:23:45Z</time>
      </trkpt>
      <trkpt lat="38.3593480" lon="-0.6741920">
        <ele>284.1</ele>
        <time>2018-03-30T09:23:46Z</time>
      </trkpt>
      <trkpt lat="38.3593450" lon="-0.6740980">
        <ele>284.0</ele>
        <time>2018-03-30T09:23:47Z</time>
      </trkpt>
      <trkpt lat="38.3593410" lon="-0.6740010">
        <ele>283.9</ele>
        <time>2018-03-30T09:23:48Z</time>
      </trkpt>
      <trkpt lat="38.3593380" lon="-0.6739050">
        <ele>283.8</ele>
        <time>2018-03-30T09:23:49Z</time>
      </trkpt>
      <trkpt lat="38.3593360" lon="-0.6738090">
        <ele>283.7</ele>
        <time>2018-03-30T09:23:50Z</time>
      </trkpt>
      <trkpt lat="38.3593340" lon="-0.6737120">
        <ele>283.7</ele>
        <time>2018-03-30T09:23:51Z</time>
      </trkpt>
      <trkpt lat="38.3593330" lon="-0.6736150">
        <ele>283.6</ele>
        <time>2018-03-30T09:23:52Z</time>
      </trkpt>
      <trkpt lat="38.3593340" lon="-0.6735180">
        <ele>283.5</ele>
        <time>2018-03-30T09:23:53Z</time>
      </trkpt>
      <trkpt lat="38.3593400" lon="-0.6734210">
        <ele>283.5</ele>
        <time>2018-03-30T09:23:54Z</time>
      </trkpt>
      <trkpt lat="38.3593540" lon="-0.6733250">
        <ele>283.4</ele>
        <time>2018-03-30T09:23:55Z</time>
      </trkpt>
      <trkpt lat="38.3593800" lon="-0.6732380">
        <ele>283.3</ele>
        <time>2018-03-30T09:23:56Z</time>
      </trkpt>
      <trkpt lat="38.3594170" lon="-0.6731570">
        <ele>283.2</ele>
        <time>2018-03-30T09:23:57Z</time>
      </trkpt>
      <trkpt lat="38.3594610" lon="-0.6730820">
        <ele>283.1</ele>
        <time>2018-03-30T09:23:58Z</time>
      </trkpt>
      <trkpt lat="38.3595050" lon="-0.6730100">
        <ele>283.1</ele>
        <time>2018-03-30T09:23:59Z</time>
      </trkpt>
      <trkpt lat="38.3595370" lon="-0.6729330">
        <ele>283.0</ele>
        <time>2018-03-30T09:24:00Z</time>
      </trkpt>
      <trkpt lat="38.3595550" lon="-0.6728580">
        <ele>282.9</ele>
        <time>2018-03-30T09:24:01Z</time>
      </trkpt>
      <trkpt lat="38.3595530" lon="-0.6727770">
        <ele>282.8</ele>
        <time>2018-03-30T09:24:02Z</time>
      </trkpt>
      <trkpt lat="38.3595190" lon="-0.6726890">
        <ele>282.7</ele>
        <time>2018-03-30T09:24:03Z</time>
      </trkpt>
      <trkpt lat="38.3594750" lon="-0.6726020">
        <ele>282.3</ele>
        <time>2018-03-30T09:24:04Z</time>
      </trkpt>
      <trkpt lat="38.3594310" lon="-0.6725160">
        <ele>281.8</ele>
        <time>2018-03-30T09:24:05Z</time>
      </trkpt>
      <trkpt lat="38.3593820" lon="-0.6724250">
        <ele>281.6</ele>
        <time>2018-03-30T09:24:06Z</time>
      </trkpt>
      <trkpt lat="38.3593320" lon="-0.6723370">
        <ele>281.4</ele>
        <time>2018-03-30T09:24:07Z</time>
      </trkpt>
      <trkpt lat="38.3592670" lon="-0.6722510">
        <ele>281.1</ele>
        <time>2018-03-30T09:24:08Z</time>
      </trkpt>
      <trkpt lat="38.3592040" lon="-0.6721610">
        <ele>280.4</ele>
        <time>2018-03-30T09:24:09Z</time>
      </trkpt>
      <trkpt lat="38.3591320" lon="-0.6720760">
        <ele>279.4</ele>
        <time>2018-03-30T09:24:10Z</time>
      </trkpt>
      <trkpt lat="38.3590610" lon="-0.6719920">
        <ele>278.9</ele>
        <time>2018-03-30T09:24:11Z</time>
      </trkpt>
      <trkpt lat="38.3589830" lon="-0.6719080">
        <ele>278.5</ele>
        <time>2018-03-30T09:24:12Z</time>
      </trkpt>
      <trkpt lat="38.3588710" lon="-0.6718320">
        <ele>277.8</ele>
        <time>2018-03-30T09:24:13Z</time>
      </trkpt>
      <trkpt lat="38.3587720" lon="-0.6717570">
        <ele>276.9</ele>
        <time>2018-03-30T09:24:14Z</time>
      </trkpt>
      <trkpt lat="38.3586720" lon="-0.6716880">
        <ele>276.2</ele>
        <time>2018-03-30T09:24:15Z</time>
      </trkpt>
      <trkpt lat="38.3585690" lon="-0.6716200">
        <ele>275.8</ele>
        <time>2018-03-30T09:24:16Z</time>
      </trkpt>
      <trkpt lat="38.3584610" lon="-0.6715550">
        <ele>275.4</ele>
        <time>2018-03-30T09:24:17Z</time>
      </trkpt>
      <trkpt lat="38.3583500" lon="-0.6714990">
        <ele>273.7</ele>
        <time>2018-03-30T09:24:18Z</time>
      </trkpt>
      <trkpt lat="38.3582350" lon="-0.6714520">
        <ele>269.2</ele>
        <time>2018-03-30T09:24:19Z</time>
      </trkpt>
      <trkpt lat="38.3581180" lon="-0.6714170">
        <ele>265.0</ele>
        <time>2018-03-30T09:24:20Z</time>
      </trkpt>
      <trkpt lat="38.3579960" lon="-0.6713850">
        <ele>264.7</ele>
        <time>2018-03-30T09:24:21Z</time>
      </trkpt>
      <trkpt lat="38.3578720" lon="-0.6713610">
        <ele>264.3</ele>
        <time>2018-03-30T09:24:22Z</time>
      </trkpt>
      <trkpt lat="38.3577470" lon="-0.6713480">
        <ele>263.2</ele>
        <time>2018-03-30T09:24:23Z</time>
      </trkpt>
      <trkpt lat="38.3576220" lon="-0.6713440">
        <ele>261.9</ele>
        <time>2018-03-30T09:24:24Z</time>
      </trkpt>
      <trkpt lat="38.3574970" lon="-0.6713460">
        <ele>260.2</ele>
        <time>2018-03-30T09:24:25Z</time>
      </trkpt>
      <trkpt lat="38.3573690" lon="-0.6713550">
        <ele>259.0</ele>
        <time>2018-03-30T09:24:26Z</time>
      </trkpt>
      <trkpt lat="38.3572410" lon="-0.6713680">
        <ele>258.4</ele>
        <time>2018-03-30T09:24:27Z</time>
      </trkpt>
      <trkpt lat="38.3571130" lon="-0.6713770">
        <ele>257.7</ele>
        <time>2018-03-30T09:24:28Z</time>
      </trkpt>
      <trkpt lat="38.3569810" lon="-0.6713730">
        <ele>256.3</ele>
        <time>2018-03-30T09:24:29Z</time>
      </trkpt>
      <trkpt lat="38.3568500" lon="-0.6713560">
        <ele>255.0</ele>
        <time>2018-03-30T09:24:30Z</time>
      </trkpt>
      <trkpt lat="38.3567200" lon="-0.6713300">
        <ele>254.0</ele>
        <time>2018-03-30T09:24:31Z</time>
      </trkpt>
      <trkpt lat="38.3565890" lon="-0.6712940">
        <ele>252.9</ele>
        <time>2018-03-30T09:24:32Z</time>
      </trkpt>
      <trkpt lat="38.3564590" lon="-0.6712460">
        <ele>252.0</ele>
        <time>2018-03-30T09:24:33Z</time>
      </trkpt>
      <trkpt lat="38.3563350" lon="-0.6711870">
        <ele>251.4</ele>
        <time>2018-03-30T09:24:34Z</time>
      </trkpt>
      <trkpt lat="38.3562140" lon="-0.6711150">
        <ele>250.1</ele>
        <time>2018-03-30T09:24:35Z</time>
      </trkpt>
      <trkpt lat="38.3560990" lon="-0.6710330">
        <ele>248.8</ele>
        <time>2018-03-30T09:24:36Z</time>
      </trkpt>
      <trkpt lat="38.3559860" lon="-0.6709420">
        <ele>247.6</ele>
        <time>2018-03-30T09:24:37Z</time>
      </trkpt>
      <trkpt lat="38.3558860" lon="-0.6708420">
        <ele>246.4</ele>
        <time>2018-03-30T09:24:38Z</time>
      </trkpt>
      <trkpt lat="38.3557900" lon="-0.6707330">
        <ele>246.0</ele>
        <time>2018-03-30T09:24:39Z</time>
      </trkpt>
      <trkpt lat="38.3556990" lon="-0.6706120">
        <ele>245.3</ele>
        <time>2018-03-30T09:24:40Z</time>
      </trkpt>
      <trkpt lat="38.3556210" lon="-0.6704820">
        <ele>244.5</ele>
        <time>2018-03-30T09:24:41Z</time>
      </trkpt>
      <trkpt lat="38.3555470" lon="-0.6703520">
        <ele>244.3</ele>
        <time>2018-03-30T09:24:42Z</time>
      </trkpt>
      <trkpt lat="38.3554790" lon="-0.6702200">
        <ele>244.1</ele>
        <time>2018-03-30T09:24:43Z</time>
      </trkpt>
      <trkpt lat="38.3554130" lon="-0.6700880">
        <ele>244.0</ele>
        <time>2018-03-30T09:24:44Z</time>
      </trkpt>
      <trkpt lat="38.3553480" lon="-0.6699600">
        <ele>244.0</ele>
        <time>2018-03-30T09:24:45Z</time>
      </trkpt>
      <trkpt lat="38.3552840" lon="-0.6698350">
        <ele>243.9</ele>
        <time>2018-03-30T09:24:46Z</time>
      </trkpt>
      <trkpt lat="38.3552230" lon="-0.6697120">
        <ele>243.9</ele>
        <time>2018-03-30T09:24:47Z</time>
      </trkpt>
      <trkpt lat="38.3551630" lon="-0.6695920">
        <ele>243.8</ele>
        <time>2018-03-30T09:24:48Z</time>
      </trkpt>
      <trkpt lat="38.3551050" lon="-0.6694730">
        <ele>243.8</ele>
        <time>2018-03-30T09:24:49Z</time>
      </trkpt>
      <trkpt lat="38.3550490" lon="-0.6693570">
        <ele>243.8</ele>
        <time>2018-03-30T09:24:50Z</time>
      </trkpt>
      <trkpt lat="38.3549910" lon="-0.6692450">
        <ele>243.8</ele>
        <time>2018-03-30T09:24:51Z</time>
      </trkpt>
      <trkpt lat="38.3549340" lon="-0.6691370">
        <ele>243.8</ele>
        <time>2018-03-30T09:24:52Z</time>
      </trkpt>
      <trkpt lat="38.3548790" lon="-0.6690290">
        <ele>243.8</ele>
        <time>2018-03-30T09:24:53Z</time>
      </trkpt>
      <trkpt lat="38.3548250" lon="-0.6689220">
        <ele>243.8</ele>
        <time>2018-03-30T09:24:54Z</time>
      </trkpt>
      <trkpt lat="38.3547730" lon="-0.6688160">
        <ele>243.7</ele>
        <time>2018-03-30T09:24:55Z</time>
      </trkpt>
      <trkpt lat="38.3547210" lon="-0.6687130">
        <ele>243.7</ele>
        <time>2018-03-30T09:24:56Z</time>
      </trkpt>
      <trkpt lat="38.3546710" lon="-0.6686100">
        <ele>243.6</ele>
        <time>2018-03-30T09:24:57Z</time>
      </trkpt>
      <trkpt lat="38.3546220" lon="-0.6685080">
        <ele>243.4</ele>
        <time>2018-03-30T09:24:58Z</time>
      </trkpt>
      <trkpt lat="38.3545710" lon="-0.6684080">
        <ele>243.3</ele>
        <time>2018-03-30T09:24:59Z</time>
      </trkpt>
      <trkpt lat="38.3545200" lon="-0.6683190">
        <ele>243.2</ele>
        <time>2018-03-30T09:25:00Z</time>
      </trkpt>
      <trkpt lat="38.3544650" lon="-0.6682410">
        <ele>242.7</ele>
        <time>2018-03-30T09:25:01Z</time>
      </trkpt>
      <trkpt lat="38.3544000" lon="-0.6682030">
        <ele>242.0</ele>
        <time>2018-03-30T09:25:02Z</time>
      </trkpt>
      <trkpt lat="38.3543300" lon="-0.6681940">
        <ele>242.0</ele>
        <time>2018-03-30T09:25:03Z</time>
      </trkpt>
      <trkpt lat="38.3542700" lon="-0.6682060">
        <ele>242.0</ele>
        <time>2018-03-30T09:25:04Z</time>
      </trkpt>
      <trkpt lat="38.3542060" lon="-0.6682470">
        <ele>241.4</ele>
        <time>2018-03-30T09:25:05Z</time>
      </trkpt>
      <trkpt lat="38.3541490" lon="-0.6683050">
        <ele>241.0</ele>
        <time>2018-03-30T09:25:06Z</time>
      </trkpt>
      <trkpt lat="38.3540890" lon="-0.6683610">
        <ele>240.6</ele>
        <time>2018-03-30T09:25:07Z</time>
      </trkpt>
      <trkpt lat="38.3540270" lon="-0.6684190">
        <ele>240.3</ele>
        <time>2018-03-30T09:25:08Z</time>
      </trkpt>
      <trkpt lat="38.3539630" lon="-0.6684750">
        <ele>240.0</ele>
        <time>2018-03-30T09:25:09Z</time>
      </trkpt>
      <trkpt lat="38.3538950" lon="-0.6685300">
        <ele>239.7</ele>
        <time>2018-03-30T09:25:10Z</time>
      </trkpt>
      <trkpt lat="38.3538240" lon="-0.6685820">
        <ele>239.2</ele>
        <time>2018-03-30T09:25:11Z</time>
      </trkpt>
      <trkpt lat="38.3537510" lon="-0.6686330">
        <ele>238.8</ele>
        <time>2018-03-30T09:25:12Z</time>
      </trkpt>
      <trkpt lat="38.3536740" lon="-0.6686800">
        <ele>238.4</ele>
        <time>2018-03-30T09:25:13Z</time>
      </trkpt>
      <trkpt lat="38.3535840" lon="-0.6687160">
        <ele>238.2</ele>
        <time>2018-03-30T09:25:14Z</time>
      </trkpt>
      <trkpt lat="38.3534920" lon="-0.6687510">
        <ele>238.1</ele>
        <time>2018-03-30T09:25:15Z</time>
      </trkpt>
      <trkpt lat="38.3534010" lon="-0.6687860">
        <ele>237.7</ele>
        <time>2018-03-30T09:25:16Z</time>
      </trkpt>
      <trkpt lat="38.3533190" lon="-0.6688300">
        <ele>236.6</ele>
        <time>2018-03-30T09:25:17Z</time>
      </trkpt>
      <trkpt lat="38.3532400" lon="-0.6689010">
        <ele>235.3</ele>
        <time>2018-03-30T09:25:18Z</time>
      </trkpt>
      <trkpt lat="38.3531680" lon="-0.6689980">
        <ele>234.0</ele>
        <time>2018-03-30T09:25:19Z</time>
      </trkpt>
      <trkpt lat="38.3530940" lon="-0.6690730">
        <ele>234.0</ele>
        <time>2018-03-30T09:25:20Z</time>
      </trkpt>
      <trkpt lat="38.3530050" lon="-0.6691130">
        <ele>233.9</ele>
        <time>2018-03-30T09:25:21Z</time>
      </trkpt>
      <trkpt lat="38.3529120" lon="-0.6691070">
        <ele>234.0</ele>
        <time>2018-03-30T09:25:22Z</time>
      </trkpt>
      <trkpt lat="38.3528210" lon="-0.6690800">
        <ele>234.0</ele>
        <time>2018-03-30T09:25:23Z</time>
      </trkpt>
      <trkpt lat="38.3527390" lon="-0.6690260">
        <ele>233.9</ele>
        <time>2018-03-30T09:25:24Z</time>
      </trkpt>
      <trkpt lat="38.3526600" lon="-0.6689620">
        <ele>234.0</ele>
        <time>2018-03-30T09:25:25Z</time>
      </trkpt>
      <trkpt lat="38.3525800" lon="-0.6689050">
        <ele>232.9</ele>
        <time>2018-03-30T09:25:26Z</time>
      </trkpt>
      <trkpt lat="38.3524930" lon="-0.6688680">
        <ele>231.5</ele>
        <time>2018-03-30T09:25:27Z</time>
      </trkpt>
      <trkpt lat="38.3524070" lon="-0.6688520">
        <ele>231.0</ele>
        <time>2018-03-30T09:25:28Z</time>
      </trkpt>
      <trkpt lat="38.3523280" lon="-0.6688580">
        <ele>231.0</ele>
        <time>2018-03-30T09:25:29Z</time>
      </trkpt>
      <trkpt lat="38.3522530" lon="-0.6688840">
        <ele>231.1</ele>
        <time>2018-03-30T09:25:30Z</time>
      </trkpt>
      <trkpt lat="38.3521820" lon="-0.6689120">
        <ele>231.3</ele>
        <time>2018-03-30T09:25:31Z</time>
      </trkpt>
      <trkpt lat="38.3521120" lon="-0.6689390">
        <ele>231.6</ele>
        <time>2018-03-30T09:25:32Z</time>
      </trkpt>
      <trkpt lat="38.3520440" lon="-0.6689650">
        <ele>231.9</ele>
        <time>2018-03-30T09:25:33Z</time>
      </trkpt>
      <trkpt lat="38.3519770" lon="-0.6689910">
        <ele>232.1</ele>
        <time>2018-03-30T09:25:34Z</time>
      </trkpt>
      <trkpt lat="38.3519100" lon="-0.6690150">
        <ele>232.4</ele>
        <time>2018-03-30T09:25:35Z</time>
      </trkpt>
      <trkpt lat="38.3518420" lon="-0.6690390">
        <ele>232.7</ele>
        <time>2018-03-30T09:25:36Z</time>
      </trkpt>
      <trkpt lat="38.3517730" lon="-0.6690630">
        <ele>233.0</ele>
        <time>2018-03-30T09:25:37Z</time>
      </trkpt>
      <trkpt lat="38.3517040" lon="-0.6690880">
        <ele>233.3</ele>
        <time>2018-03-30T09:25:38Z</time>
      </trkpt>
      <trkpt lat="38.3516350" lon="-0.6691110">
        <ele>233.6</ele>
        <time>2018-03-30T09:25:39Z</time>
      </trkpt>
      <trkpt lat="38.3515640" lon="-0.6691320">
        <ele>233.9</ele>
        <time>2018-03-30T09:25:40Z</time>
      </trkpt>
      <trkpt lat="38.3514940" lon="-0.6691530">
        <ele>234.2</ele>
        <time>2018-03-30T09:25:41Z</time>
      </trkpt>
      <trkpt lat="38.3514210" lon="-0.6691710">
        <ele>234.4</ele>
        <time>2018-03-30T09:25:42Z</time>
      </trkpt>
      <trkpt lat="38.3513450" lon="-0.6691860">
        <ele>234.6</ele>
        <time>2018-03-30T09:25:43Z</time>
      </trkpt>
      <trkpt lat="38.3512710" lon="-0.6692000">
        <ele>234.8</ele>
        <time>2018-03-30T09:25:44Z</time>
      </trkpt>
      <trkpt lat="38.3511920" lon="-0.6692110">
        <ele>235.1</ele>
        <time>2018-03-30T09:25:45Z</time>
      </trkpt>
      <trkpt lat="38.3511060" lon="-0.6692190">
        <ele>235.3</ele>
        <time>2018-03-30T09:25:46Z</time>
      </trkpt>
      <trkpt lat="38.3510230" lon="-0.6692220">
        <ele>235.9</ele>
        <time>2018-03-30T09:25:47Z</time>
      </trkpt>
      <trkpt lat="38.3509400" lon="-0.6692250">
        <ele>236.4</ele>
        <time>2018-03-30T09:25:48Z</time>
      </trkpt>
      <trkpt lat="38.3508580" lon="-0.6692280">
        <ele>236.8</ele>
        <time>2018-03-30T09:25:49Z</time>
      </trkpt>
      <trkpt lat="38.3507740" lon="-0.6692320">
        <ele>237.4</ele>
        <time>2018-03-30T09:25:50Z</time>
      </trkpt>
      <trkpt lat="38.3506880" lon="-0.6692340">
        <ele>238.2</ele>
        <time>2018-03-30T09:25:51Z</time>
      </trkpt>
      <trkpt lat="38.3506020" lon="-0.6692370">
        <ele>239.0</ele>
        <time>2018-03-30T09:25:52Z</time>
      </trkpt>
      <trkpt lat="38.3505100" lon="-0.6692470">
        <ele>239.0</ele>
        <time>2018-03-30T09:25:53Z</time>
      </trkpt>
      <trkpt lat="38.3504200" lon="-0.6692750">
        <ele>239.0</ele>
        <time>2018-03-30T09:25:54Z</time>
      </trkpt>
      <trkpt lat="38.3503500" lon="-0.6693150">
        <ele>239.0</ele>
        <time>2018-03-30T09:25:55Z</time>
      </trkpt>
      <trkpt lat="38.3502830" lon="-0.6693550">
        <ele>239.0</ele>
        <time>2018-03-30T09:25:56Z</time>
      </trkpt>
      <trkpt lat="38.3502130" lon="-0.6694080">
        <ele>239.0</ele>
        <time>2018-03-30T09:25:57Z</time>
      </trkpt>
      <trkpt lat="38.3501420" lon="-0.6694710">
        <ele>239.0</ele>
        <time>2018-03-30T09:25:58Z</time>
      </trkpt>
      <trkpt lat="38.3500740" lon="-0.6695320">
        <ele>239.0</ele>
        <time>2018-03-30T09:25:59Z</time>
      </trkpt>
      <trkpt lat="38.3500570" lon="-0.6696240">
        <ele>239.0</ele>
        <time>2018-03-30T09:26:00Z</time>
      </trkpt>
      <trkpt lat="38.3500080" lon="-0.6697060">
        <ele>239.0</ele>
        <time>2018-03-30T09:26:01Z</time>
      </trkpt>
      <trkpt lat="38.3499480" lon="-0.6697740">
        <ele>238.8</ele>
        <time>2018-03-30T09:26:02Z</time>
      </trkpt>
      <trkpt lat="38.3498870" lon="-0.6698180">
        <ele>238.2</ele>
        <time>2018-03-30T09:26:03Z</time>
      </trkpt>
      <trkpt lat="38.3498230" lon="-0.6698620">
        <ele>237.6</ele>
        <time>2018-03-30T09:26:04Z</time>
      </trkpt>
      <trkpt lat="38.3497580" lon="-0.6698920">
        <ele>237.1</ele>
        <time>2018-03-30T09:26:05Z</time>
      </trkpt>
      <trkpt lat="38.3496870" lon="-0.6699040">
        <ele>236.2</ele>
        <time>2018-03-30T09:26:06Z</time>
      </trkpt>
      <trkpt lat="38.3496180" lon="-0.6699040">
        <ele>235.4</ele>
        <time>2018-03-30T09:26:07Z</time>
      </trkpt>
      <trkpt lat="38.3495460" lon="-0.6698880">
        <ele>234.6</ele>
        <time>2018-03-30T09:26:08Z</time>
      </trkpt>
      <trkpt lat="38.3494780" lon="-0.6698570">
        <ele>234.0</ele>
        <time>2018-03-30T09:26:09Z</time>
      </trkpt>
      <trkpt lat="38.3494080" lon="-0.6698090">
        <ele>234.0</ele>
        <time>2018-03-30T09:26:10Z</time>
      </trkpt>
      <trkpt lat="38.3493320" lon="-0.6697680">
        <ele>233.8</ele>
        <time>2018-03-30T09:26:11Z</time>
      </trkpt>
      <trkpt lat="38.3492600" lon="-0.6697450">
        <ele>233.6</ele>
        <time>2018-03-30T09:26:12Z</time>
      </trkpt>
      <trkpt lat="38.3491870" lon="-0.6697660">
        <ele>233.3</ele>
        <time>2018-03-30T09:26:13Z</time>
      </trkpt>
      <trkpt lat="38.3491220" lon="-0.6697640">
        <ele>233.1</ele>
        <time>2018-03-30T09:26:14Z</time>
      </trkpt>
      <trkpt lat="38.3490690" lon="-0.6697340">
        <ele>232.9</ele>
        <time>2018-03-30T09:26:15Z</time>
      </trkpt>
      <trkpt lat="38.3490330" lon="-0.6696790">
        <ele>232.8</ele>
        <time>2018-03-30T09:26:16Z</time>
      </trkpt>
      <trkpt lat="38.3489980" lon="-0.6696140">
        <ele>232.6</ele>
        <time>2018-03-30T09:26:17Z</time>
      </trkpt>
      <trkpt lat="38.3489580" lon="-0.6695500">
        <ele>232.4</ele>
        <time>2018-03-30T09:26:18Z</time>
      </trkpt>
      <trkpt lat="38.3489150" lon="-0.6694890">
        <ele>232.1</ele>
        <time>2018-03-30T09:26:19Z</time>
      </trkpt>
      <trkpt lat="38.3488680" lon="-0.6694260">
        <ele>231.9</ele>
        <time>2018-03-30T09:26:20Z</time>
      </trkpt>
      <trkpt lat="38.3488170" lon="-0.6693600">
        <ele>231.6</ele>
        <time>2018-03-30T09:26:21Z</time>
      </trkpt>
      <trkpt lat="38.3487610" lon="-0.6692950">
        <ele>231.3</ele>
        <time>2018-03-30T09:26:22Z</time>
      </trkpt>
      <trkpt lat="38.3487010" lon="-0.6692380">
        <ele>231.1</ele>
        <time>2018-03-30T09:26:23Z</time>
      </trkpt>
      <trkpt lat="38.3486390" lon="-0.6691860">
        <ele>230.7</ele>
        <time>2018-03-30T09:26:24Z</time>
      </trkpt>
      <trkpt lat="38.3485720" lon="-0.6691360">
        <ele>230.1</ele>
        <time>2018-03-30T09:26:25Z</time>
      </trkpt>
      <trkpt lat="38.3485000" lon="-0.6690890">
        <ele>229.6</ele>
        <time>2018-03-30T09:26:26Z</time>
      </trkpt>
      <trkpt lat="38.3484210" lon="-0.6690430">
        <ele>229.0</ele>
        <time>2018-03-30T09:26:27Z</time>
      </trkpt>
      <trkpt lat="38.3483390" lon="-0.6689950">
        <ele>228.3</ele>
        <time>2018-03-30T09:26:28Z</time>
      </trkpt>
      <trkpt lat="38.3482540" lon="-0.6689470">
        <ele>227.9</ele>
        <time>2018-03-30T09:26:29Z</time>
      </trkpt>
      <trkpt lat="38.3481560" lon="-0.6688970">
        <ele>227.6</ele>
        <time>2018-03-30T09:26:30Z</time>
      </trkpt>
      <trkpt lat="38.3480600" lon="-0.6688460">
        <ele>227.3</ele>
        <time>2018-03-30T09:26:31Z</time>
      </trkpt>
      <trkpt lat="38.3479650" lon="-0.6687900">
        <ele>227.0</ele>
        <time>2018-03-30T09:26:32Z</time>
      </trkpt>
      <trkpt lat="38.3478650" lon="-0.6687340">
        <ele>226.9</ele>
        <time>2018-03-30T09:26:33Z</time>
      </trkpt>
      <trkpt lat="38.3477690" lon="-0.6686790">
        <ele>226.7</ele>
        <time>2018-03-30T09:26:34Z</time>
      </trkpt>
      <trkpt lat="38.3476730" lon="-0.6686280">
        <ele>226.5</ele>
        <time>2018-03-30T09:26:35Z</time>
      </trkpt>
      <trkpt lat="38.3475770" lon="-0.6685770">
        <ele>226.3</ele>
        <time>2018-03-30T09:26:36Z</time>
      </trkpt>
      <trkpt lat="38.3474820" lon="-0.6685260">
        <ele>226.2</ele>
        <time>2018-03-30T09:26:37Z</time>
      </trkpt>
      <trkpt lat="38.3473870" lon="-0.6684740">
        <ele>226.0</ele>
        <time>2018-03-30T09:26:38Z</time>
      </trkpt>
      <trkpt lat="38.3472920" lon="-0.6684230">
        <ele>225.9</ele>
        <time>2018-03-30T09:26:39Z</time>
      </trkpt>
      <trkpt lat="38.3471960" lon="-0.6683700">
        <ele>225.8</ele>
        <time>2018-03-30T09:26:40Z</time>
      </trkpt>
      <trkpt lat="38.3471030" lon="-0.6683190">
        <ele>225.7</ele>
        <time>2018-03-30T09:26:41Z</time>
      </trkpt>
      <trkpt lat="38.3470100" lon="-0.6682680">
        <ele>225.5</ele>
        <time>2018-03-30T09:26:42Z</time>
      </trkpt>
      <trkpt lat="38.3469190" lon="-0.6682190">
        <ele>225.2</ele>
        <time>2018-03-30T09:26:43Z</time>
      </trkpt>
      <trkpt lat="38.3468260" lon="-0.6681710">
        <ele>224.8</ele>
        <time>2018-03-30T09:26:44Z</time>
      </trkpt>
      <trkpt lat="38.3467320" lon="-0.6681200">
        <ele>224.4</ele>
        <time>2018-03-30T09:26:45Z</time>
      </trkpt>
      <trkpt lat="38.3466360" lon="-0.6680640">
        <ele>224.1</ele>
        <time>2018-03-30T09:26:46Z</time>
      </trkpt>
      <trkpt lat="38.3465360" lon="-0.6680050">
        <ele>224.2</ele>
        <time>2018-03-30T09:26:47Z</time>
      </trkpt>
      <trkpt lat="38.3464330" lon="-0.6679450">
        <ele>224.2</ele>
        <time>2018-03-30T09:26:48Z</time>
      </trkpt>
      <trkpt lat="38.3463450" lon="-0.6678890">
        <ele>224.2</ele>
        <time>2018-03-30T09:26:49Z</time>
      </trkpt>
      <trkpt lat="38.3462570" lon="-0.6678400">
        <ele>224.2</ele>
        <time>2018-03-30T09:26:50Z</time>
      </trkpt>
      <trkpt lat="38.3461690" lon="-0.6677950">
        <ele>224.2</ele>
        <time>2018-03-30T09:26:51Z</time>
      </trkpt>
      <trkpt lat="38.3460790" lon="-0.6677490">
        <ele>223.9</ele>
        <time>2018-03-30T09:26:52Z</time>
      </trkpt>
      <trkpt lat="38.3459860" lon="-0.6676990">
        <ele>223.4</ele>
        <time>2018-03-30T09:26:53Z</time>
      </trkpt>
      <trkpt lat="38.3458900" lon="-0.6676470">
        <ele>222.8</ele>
        <time>2018-03-30T09:26:54Z</time>
      </trkpt>
      <trkpt lat="38.3457930" lon="-0.6675910">
        <ele>222.1</ele>
        <time>2018-03-30T09:26:55Z</time>
      </trkpt>
      <trkpt lat="38.3456920" lon="-0.6675350">
        <ele>221.3</ele>
        <time>2018-03-30T09:26:56Z</time>
      </trkpt>
      <trkpt lat="38.3455860" lon="-0.6674800">
        <ele>220.4</ele>
        <time>2018-03-30T09:26:57Z</time>
      </trkpt>
      <trkpt lat="38.3454800" lon="-0.6674230">
        <ele>219.5</ele>
        <time>2018-03-30T09:26:58Z</time>
      </trkpt>
      <trkpt lat="38.3453730" lon="-0.6673670">
        <ele>218.7</ele>
        <time>2018-03-30T09:26:59Z</time>
      </trkpt>
      <trkpt lat="38.3452650" lon="-0.6673110">
        <ele>218.0</ele>
        <time>2018-03-30T09:27:00Z</time>
      </trkpt>
      <trkpt lat="38.3451570" lon="-0.6672560">
        <ele>217.4</ele>
        <time>2018-03-30T09:27:01Z</time>
      </trkpt>
      <trkpt lat="38.3450500" lon="-0.6672020">
        <ele>216.8</ele>
        <time>2018-03-30T09:27:02Z</time>
      </trkpt>
      <trkpt lat="38.3449430" lon="-0.6671490">
        <ele>216.6</ele>
        <time>2018-03-30T09:27:03Z</time>
      </trkpt>
      <trkpt lat="38.3448390" lon="-0.6670960">
        <ele>216.5</ele>
        <time>2018-03-30T09:27:04Z</time>
      </trkpt>
      <trkpt lat="38.3447420" lon="-0.6670490">
        <ele>216.8</ele>
        <time>2018-03-30T09:27:05Z</time>
      </trkpt>
      <trkpt lat="38.3446460" lon="-0.6670090">
        <ele>217.2</ele>
        <time>2018-03-30T09:27:06Z</time>
      </trkpt>
      <trkpt lat="38.3445560" lon="-0.6669790">
        <ele>217.8</ele>
        <time>2018-03-30T09:27:07Z</time>
      </trkpt>
      <trkpt lat="38.3444700" lon="-0.6669560">
        <ele>218.4</ele>
        <time>2018-03-30T09:27:08Z</time>
      </trkpt>
      <trkpt lat="38.3443850" lon="-0.6669360">
        <ele>219.2</ele>
        <time>2018-03-30T09:27:09Z</time>
      </trkpt>
      <trkpt lat="38.3443020" lon="-0.6669160">
        <ele>220.0</ele>
        <time>2018-03-30T09:27:10Z</time>
      </trkpt>
      <trkpt lat="38.3442190" lon="-0.6668960">
        <ele>221.0</ele>
        <time>2018-03-30T09:27:11Z</time>
      </trkpt>
      <trkpt lat="38.3441420" lon="-0.6668850">
        <ele>221.8</ele>
        <time>2018-03-30T09:27:12Z</time>
      </trkpt>
      <trkpt lat="38.3440810" lon="-0.6668700">
        <ele>221.9</ele>
        <time>2018-03-30T09:27:13Z</time>
      </trkpt>
      <trkpt lat="38.3440210" lon="-0.6668550">
        <ele>221.9</ele>
        <time>2018-03-30T09:27:14Z</time>
      </trkpt>
      <trkpt lat="38.3439550" lon="-0.6668370">
        <ele>221.8</ele>
        <time>2018-03-30T09:27:15Z</time>
      </trkpt>
      <trkpt lat="38.3438860" lon="-0.6668220">
        <ele>221.7</ele>
        <time>2018-03-30T09:27:16Z</time>
      </trkpt>
      <trkpt lat="38.3438190" lon="-0.6668030">
        <ele>221.6</ele>
        <time>2018-03-30T09:27:17Z</time>
      </trkpt>
      <trkpt lat="38.3437520" lon="-0.6667830">
        <ele>221.4</ele>
        <time>2018-03-30T09:27:18Z</time>
      </trkpt>
      <trkpt lat="38.3436820" lon="-0.6667600">
        <ele>221.2</ele>
        <time>2018-03-30T09:27:19Z</time>
      </trkpt>
      <trkpt lat="38.3436130" lon="-0.6667350">
        <ele>221.0</ele>
        <time>2018-03-30T09:27:20Z</time>
      </trkpt>
      <trkpt lat="38.3435450" lon="-0.6667080">
        <ele>220.7</ele>
        <time>2018-03-30T09:27:21Z</time>
      </trkpt>
      <trkpt lat="38.3434750" lon="-0.6666800">
        <ele>220.3</ele>
        <time>2018-03-30T09:27:22Z</time>
      </trkpt>
      <trkpt lat="38.3434040" lon="-0.6666510">
        <ele>219.8</ele>
        <time>2018-03-30T09:27:23Z</time>
      </trkpt>
      <trkpt lat="38.3433300" lon="-0.6666220">
        <ele>219.0</ele>
        <time>2018-03-30T09:27:24Z</time>
      </trkpt>
      <trkpt lat="38.3432540" lon="-0.6665900">
        <ele>218.1</ele>
        <time>2018-03-30T09:27:25Z</time>
      </trkpt>
      <trkpt lat="38.3431740" lon="-0.6665550">
        <ele>217.2</ele>
        <time>2018-03-30T09:27:26Z</time>
      </trkpt>
      <trkpt lat="38.3430920" lon="-0.6665210">
        <ele>216.8</ele>
        <time>2018-03-30T09:27:27Z</time>
      </trkpt>
      <trkpt lat="38.3430070" lon="-0.6664860">
        <ele>216.6</ele>
        <time>2018-03-30T09:27:28Z</time>
      </trkpt>
      <trkpt lat="38.3429190" lon="-0.6664510">
        <ele>216.3</ele>
        <time>2018-03-30T09:27:29Z</time>
      </trkpt>
      <trkpt lat="38.3428280" lon="-0.6664220">
        <ele>215.9</ele>
        <time>2018-03-30T09:27:30Z</time>
      </trkpt>
      <trkpt lat="38.3427340" lon="-0.6664010">
        <ele>215.6</ele>
        <time>2018-03-30T09:27:31Z</time>
      </trkpt>
      <trkpt lat="38.3426370" lon="-0.6663930">
        <ele>215.3</ele>
        <time>2018-03-30T09:27:32Z</time>
      </trkpt>
      <trkpt lat="38.3425390" lon="-0.6663960">
        <ele>214.9</ele>
        <time>2018-03-30T09:27:33Z</time>
      </trkpt>
      <trkpt lat="38.3424410" lon="-0.6664050">
        <ele>214.5</ele>
        <time>2018-03-30T09:27:34Z</time>
      </trkpt>
      <trkpt lat="38.3423430" lon="-0.6664230">
        <ele>214.2</ele>
        <time>2018-03-30T09:27:35Z</time>
      </trkpt>
      <trkpt lat="38.3422450" lon="-0.6664430">
        <ele>213.8</ele>
        <time>2018-03-30T09:27:36Z</time>
      </trkpt>
      <trkpt lat="38.3421460" lon="-0.6664650">
        <ele>213.5</ele>
        <time>2018-03-30T09:27:37Z</time>
      </trkpt>
      <trkpt lat="38.3420470" lon="-0.6664850">
        <ele>213.1</ele>
        <time>2018-03-30T09:27:38Z</time>
      </trkpt>
      <trkpt lat="38.3419470" lon="-0.6664990">
        <ele>212.7</ele>
        <time>2018-03-30T09:27:39Z</time>
      </trkpt>
      <trkpt lat="38.3418470" lon="-0.6665100">
        <ele>212.3</ele>
        <time>2018-03-30T09:27:40Z</time>
      </trkpt>
      <trkpt lat="38.3417460" lon="-0.6665150">
        <ele>211.8</ele>
        <time>2018-03-30T09:27:41Z</time>
      </trkpt>
      <trkpt lat="38.3416460" lon="-0.6665170">
        <ele>211.3</ele>
        <time>2018-03-30T09:27:42Z</time>
      </trkpt>
      <trkpt lat="38.3415460" lon="-0.6665190">
        <ele>210.9</ele>
        <time>2018-03-30T09:27:43Z</time>
      </trkpt>
      <trkpt lat="38.3414450" lon="-0.6665160">
        <ele>210.5</ele>
        <time>2018-03-30T09:27:44Z</time>
      </trkpt>
      <trkpt lat="38.3413450" lon="-0.6665130">
        <ele>210.1</ele>
        <time>2018-03-30T09:27:45Z</time>
      </trkpt>
      <trkpt lat="38.3412440" lon="-0.6665080">
        <ele>209.6</ele>
        <time>2018-03-30T09:27:46Z</time>
      </trkpt>
      <trkpt lat="38.3411430" lon="-0.6664980">
        <ele>209.2</ele>
        <time>2018-03-30T09:27:47Z</time>
      </trkpt>
      <trkpt lat="38.3410410" lon="-0.6664840">
        <ele>208.7</ele>
        <time>2018-03-30T09:27:48Z</time>
      </trkpt>
      <trkpt lat="38.3409400" lon="-0.6664680">
        <ele>208.4</ele>
        <time>2018-03-30T09:27:49Z</time>
      </trkpt>
      <trkpt lat="38.3408410" lon="-0.6664470">
        <ele>208.0</ele>
        <time>2018-03-30T09:27:50Z</time>
      </trkpt>
      <trkpt lat="38.3407420" lon="-0.6664250">
        <ele>207.5</ele>
        <time>2018-03-30T09:27:51Z</time>
      </trkpt>
      <trkpt lat="38.3406420" lon="-0.6664020">
        <ele>207.1</ele>
        <time>2018-03-30T09:27:52Z</time>
      </trkpt>
      <trkpt lat="38.3405400" lon="-0.6663760">
        <ele>206.8</ele>
        <time>2018-03-30T09:27:53Z</time>
      </trkpt>
      <trkpt lat="38.3404390" lon="-0.6663470">
        <ele>206.3</ele>
        <time>2018-03-30T09:27:54Z</time>
      </trkpt>
      <trkpt lat="38.3403390" lon="-0.6663160">
        <ele>205.9</ele>
        <time>2018-03-30T09:27:55Z</time>
      </trkpt>
      <trkpt lat="38.3402420" lon="-0.6662790">
        <ele>205.6</ele>
        <time>2018-03-30T09:27:56Z</time>
      </trkpt>
      <trkpt lat="38.3401450" lon="-0.6662370">
        <ele>205.2</ele>
        <time>2018-03-30T09:27:57Z</time>
      </trkpt>
      <trkpt lat="38.3400510" lon="-0.6661930">
        <ele>204.8</ele>
        <time>2018-03-30T09:27:58Z</time>
      </trkpt>
      <trkpt lat="38.3399580" lon="-0.6661480">
        <ele>204.5</ele>
        <time>2018-03-30T09:27:59Z</time>
      </trkpt>
      <trkpt lat="38.3398660" lon="-0.6661010">
        <ele>204.1</ele>
        <time>2018-03-30T09:28:00Z</time>
      </trkpt>
      <trkpt lat="38.3397760" lon="-0.6660490">
        <ele>203.7</ele>
        <time>2018-03-30T09:28:01Z</time>
      </trkpt>
      <trkpt lat="38.3396830" lon="-0.6659960">
        <ele>203.2</ele>
        <time>2018-03-30T09:28:02Z</time>
      </trkpt>
      <trkpt lat="38.3395930" lon="-0.6659430">
        <ele>202.7</ele>
        <time>2018-03-30T09:28:03Z</time>
      </trkpt>
      <trkpt lat="38.3395060" lon="-0.6658800">
        <ele>202.4</ele>
        <time>2018-03-30T09:28:04Z</time>
      </trkpt>
      <trkpt lat="38.3394200" lon="-0.6658150">
        <ele>202.1</ele>
        <time>2018-03-30T09:28:05Z</time>
      </trkpt>
      <trkpt lat="38.3393340" lon="-0.6657520">
        <ele>201.5</ele>
        <time>2018-03-30T09:28:06Z</time>
      </trkpt>
      <trkpt lat="38.3392490" lon="-0.6656880">
        <ele>201.2</ele>
        <time>2018-03-30T09:28:07Z</time>
      </trkpt>
      <trkpt lat="38.3391640" lon="-0.6656250">
        <ele>200.9</ele>
        <time>2018-03-30T09:28:08Z</time>
      </trkpt>
      <trkpt lat="38.3390790" lon="-0.6655600">
        <ele>200.5</ele>
        <time>2018-03-30T09:28:09Z</time>
      </trkpt>
      <trkpt lat="38.3389950" lon="-0.6654950">
        <ele>200.0</ele>
        <time>2018-03-30T09:28:10Z</time>
      </trkpt>
      <trkpt lat="38.3389110" lon="-0.6654300">
        <ele>199.9</ele>
        <time>2018-03-30T09:28:11Z</time>
      </trkpt>
      <trkpt lat="38.3388280" lon="-0.6653640">
        <ele>199.7</ele>
        <time>2018-03-30T09:28:12Z</time>
      </trkpt>
      <trkpt lat="38.3387460" lon="-0.6652990">
        <ele>199.6</ele>
        <time>2018-03-30T09:28:13Z</time>
      </trkpt>
      <trkpt lat="38.3386620" lon="-0.6652360">
        <ele>199.4</ele>
        <time>2018-03-30T09:28:14Z</time>
      </trkpt>
      <trkpt lat="38.3385790" lon="-0.6651730">
        <ele>199.3</ele>
        <time>2018-03-30T09:28:15Z</time>
      </trkpt>
      <trkpt lat="38.3384950" lon="-0.6651110">
        <ele>199.1</ele>
        <time>2018-03-30T09:28:16Z</time>
      </trkpt>
      <trkpt lat="38.3384100" lon="-0.6650510">
        <ele>198.9</ele>
        <time>2018-03-30T09:28:17Z</time>
      </trkpt>
      <trkpt lat="38.3383250" lon="-0.6649900">
        <ele>198.7</ele>
        <time>2018-03-30T09:28:18Z</time>
      </trkpt>
      <trkpt lat="38.3382390" lon="-0.6649320">
        <ele>198.5</ele>
        <time>2018-03-30T09:28:19Z</time>
      </trkpt>
      <trkpt lat="38.3381530" lon="-0.6648760">
        <ele>198.3</ele>
        <time>2018-03-30T09:28:20Z</time>
      </trkpt>
      <trkpt lat="38.3380640" lon="-0.6648240">
        <ele>198.0</ele>
        <time>2018-03-30T09:28:21Z</time>
      </trkpt>
      <trkpt lat="38.3379750" lon="-0.6647760">
        <ele>197.8</ele>
        <time>2018-03-30T09:28:22Z</time>
      </trkpt>
      <trkpt lat="38.3378850" lon="-0.6647320">
        <ele>197.6</ele>
        <time>2018-03-30T09:28:23Z</time>
      </trkpt>
      <trkpt lat="38.3377960" lon="-0.6646890">
        <ele>197.4</ele>
        <time>2018-03-30T09:28:24Z</time>
      </trkpt>
      <trkpt lat="38.3377060" lon="-0.6646460">
        <ele>197.1</ele>
        <time>2018-03-30T09:28:25Z</time>
      </trkpt>
      <trkpt lat="38.3376150" lon="-0.6646080">
        <ele>196.9</ele>
        <time>2018-03-30T09:28:26Z</time>
      </trkpt>
      <trkpt lat="38.3375220" lon="-0.6645740">
        <ele>196.7</ele>
        <time>2018-03-30T09:28:27Z</time>
      </trkpt>
      <trkpt lat="38.3374290" lon="-0.6645420">
        <ele>196.5</ele>
        <time>2018-03-30T09:28:28Z</time>
      </trkpt>
      <trkpt lat="38.3373350" lon="-0.6645140">
        <ele>196.3</ele>
        <time>2018-03-30T09:28:29Z</time>
      </trkpt>
      <trkpt lat="38.3372420" lon="-0.6644890">
        <ele>196.2</ele>
        <time>2018-03-30T09:28:30Z</time>
      </trkpt>
      <trkpt lat="38.3371480" lon="-0.6644680">
        <ele>196.1</ele>
        <time>2018-03-30T09:28:31Z</time>
      </trkpt>
      <trkpt lat="38.3370550" lon="-0.6644480">
        <ele>196.0</ele>
        <time>2018-03-30T09:28:32Z</time>
      </trkpt>
      <trkpt lat="38.3369630" lon="-0.6644290">
        <ele>195.9</ele>
        <time>2018-03-30T09:28:33Z</time>
      </trkpt>
      <trkpt lat="38.3368720" lon="-0.6644110">
        <ele>195.9</ele>
        <time>2018-03-30T09:28:34Z</time>
      </trkpt>
      <trkpt lat="38.3367830" lon="-0.6643960">
        <ele>195.9</ele>
        <time>2018-03-30T09:28:35Z</time>
      </trkpt>
      <trkpt lat="38.3366940" lon="-0.6643850">
        <ele>196.0</ele>
        <time>2018-03-30T09:28:36Z</time>
      </trkpt>
      <trkpt lat="38.3366080" lon="-0.6643760">
        <ele>196.0</ele>
        <time>2018-03-30T09:28:37Z</time>
      </trkpt>
      <trkpt lat="38.3365230" lon="-0.6643690">
        <ele>196.0</ele>
        <time>2018-03-30T09:28:38Z</time>
      </trkpt>
      <trkpt lat="38.3364400" lon="-0.6643630">
        <ele>196.0</ele>
        <time>2018-03-30T09:28:39Z</time>
      </trkpt>
      <trkpt lat="38.3363580" lon="-0.6643560">
        <ele>196.1</ele>
        <time>2018-03-30T09:28:40Z</time>
      </trkpt>
      <trkpt lat="38.3362760" lon="-0.6643500">
        <ele>196.1</ele>
        <time>2018-03-30T09:28:41Z</time>
      </trkpt>
      <trkpt lat="38.3361960" lon="-0.6643440">
        <ele>196.1</ele>
        <time>2018-03-30T09:28:42Z</time>
      </trkpt>
      <trkpt lat="38.3361150" lon="-0.6643380">
        <ele>196.1</ele>
        <time>2018-03-30T09:28:43Z</time>
      </trkpt>
      <trkpt lat="38.3360350" lon="-0.6643330">
        <ele>196.0</ele>
        <time>2018-03-30T09:28:44Z</time>
      </trkpt>
      <trkpt lat="38.3359540" lon="-0.6643300">
        <ele>195.8</ele>
        <time>2018-03-30T09:28:45Z</time>
      </trkpt>
      <trkpt lat="38.3358740" lon="-0.6643270">
        <ele>195.7</ele>
        <time>2018-03-30T09:28:46Z</time>
      </trkpt>
      <trkpt lat="38.3357930" lon="-0.6643250">
        <ele>195.5</ele>
        <time>2018-03-30T09:28:47Z</time>
      </trkpt>
      <trkpt lat="38.3357110" lon="-0.6643210">
        <ele>195.1</ele>
        <time>2018-03-30T09:28:48Z</time>
      </trkpt>
      <trkpt lat="38.3356290" lon="-0.6643150">
        <ele>194.8</ele>
        <time>2018-03-30T09:28:49Z</time>
      </trkpt>
      <trkpt lat="38.3355450" lon="-0.6643070">
        <ele>194.5</ele>
        <time>2018-03-30T09:28:50Z</time>
      </trkpt>
      <trkpt lat="38.3354590" lon="-0.6642980">
        <ele>194.0</ele>
        <time>2018-03-30T09:28:51Z</time>
      </trkpt>
      <trkpt lat="38.3353700" lon="-0.6642870">
        <ele>193.4</ele>
        <time>2018-03-30T09:28:52Z</time>
      </trkpt>
      <trkpt lat="38.3352780" lon="-0.6642740">
        <ele>192.8</ele>
        <time>2018-03-30T09:28:53Z</time>
      </trkpt>
      <trkpt lat="38.3351840" lon="-0.6642590">
        <ele>192.4</ele>
        <time>2018-03-30T09:28:54Z</time>
      </trkpt>
      <trkpt lat="38.3350890" lon="-0.6642430">
        <ele>192.0</ele>
        <time>2018-03-30T09:28:55Z</time>
      </trkpt>
      <trkpt lat="38.3349930" lon="-0.6642350">
        <ele>191.8</ele>
        <time>2018-03-30T09:28:56Z</time>
      </trkpt>
      <trkpt lat="38.3348990" lon="-0.6642270">
        <ele>191.6</ele>
        <time>2018-03-30T09:28:57Z</time>
      </trkpt>
      <trkpt lat="38.3348050" lon="-0.6642200">
        <ele>191.4</ele>
        <time>2018-03-30T09:28:58Z</time>
      </trkpt>
      <trkpt lat="38.3347100" lon="-0.6642130">
        <ele>191.2</ele>
        <time>2018-03-30T09:28:59Z</time>
      </trkpt>
      <trkpt lat="38.3346170" lon="-0.6642030">
        <ele>191.0</ele>
        <time>2018-03-30T09:29:00Z</time>
      </trkpt>
      <trkpt lat="38.3345240" lon="-0.6641890">
        <ele>190.9</ele>
        <time>2018-03-30T09:29:01Z</time>
      </trkpt>
      <trkpt lat="38.3344320" lon="-0.6641720">
        <ele>190.8</ele>
        <time>2018-03-30T09:29:02Z</time>
      </trkpt>
      <trkpt lat="38.3343390" lon="-0.6641580">
        <ele>190.7</ele>
        <time>2018-03-30T09:29:03Z</time>
      </trkpt>
      <trkpt lat="38.3342470" lon="-0.6641430">
        <ele>190.6</ele>
        <time>2018-03-30T09:29:04Z</time>
      </trkpt>
      <trkpt lat="38.3341540" lon="-0.6641270">
        <ele>190.5</ele>
        <time>2018-03-30T09:29:05Z</time>
      </trkpt>
      <trkpt lat="38.3341540" lon="-0.6641270">
        <ele>190.5</ele>
        <time>2018-03-30T09:29:06Z</time>
      </trkpt>
      <trkpt lat="38.3341540" lon="-0.6641270">
        <ele>190.5</ele>
        <time>2018-03-30T09:29:07Z</time>
      </trkpt>
      <trkpt lat="38.3341540" lon="-0.6641270">
        <ele>190.5</ele>
        <time>2018-03-30T09:29:08Z</time>
      </trkpt>
      <trkpt lat="38.3340620" lon="-0.6641110">
        <ele>190.5</ele>
        <time>2018-03-30T09:29:09Z</time>
      </trkpt>
      <trkpt lat="38.3339710" lon="-0.6640930">
        <ele>190.4</ele>
        <time>2018-03-30T09:29:10Z</time>
      </trkpt>
      <trkpt lat="38.3338830" lon="-0.6640700">
        <ele>190.4</ele>
        <time>2018-03-30T09:29:11Z</time>
      </trkpt>
      <trkpt lat="38.3337970" lon="-0.6640440">
        <ele>190.4</ele>
        <time>2018-03-30T09:29:12Z</time>
      </trkpt>
      <trkpt lat="38.3337120" lon="-0.6640180">
        <ele>190.4</ele>
        <time>2018-03-30T09:29:13Z</time>
      </trkpt>
      <trkpt lat="38.3336270" lon="-0.6639940">
        <ele>190.3</ele>
        <time>2018-03-30T09:29:14Z</time>
      </trkpt>
      <trkpt lat="38.3335440" lon="-0.6639720">
        <ele>190.3</ele>
        <time>2018-03-30T09:29:15Z</time>
      </trkpt>
      <trkpt lat="38.3334620" lon="-0.6639490">
        <ele>190.2</ele>
        <time>2018-03-30T09:29:16Z</time>
      </trkpt>
      <trkpt lat="38.3333790" lon="-0.6639240">
        <ele>190.2</ele>
        <time>2018-03-30T09:29:17Z</time>
      </trkpt>
      <trkpt lat="38.3332980" lon="-0.6638960">
        <ele>190.0</ele>
        <time>2018-03-30T09:29:18Z</time>
      </trkpt>
      <trkpt lat="38.3332160" lon="-0.6638680">
        <ele>189.9</ele>
        <time>2018-03-30T09:29:19Z</time>
      </trkpt>
      <trkpt lat="38.3331350" lon="-0.6638390">
        <ele>189.8</ele>
        <time>2018-03-30T09:29:20Z</time>
      </trkpt>
      <trkpt lat="38.3330530" lon="-0.6638120">
        <ele>189.7</ele>
        <time>2018-03-30T09:29:21Z</time>
      </trkpt>
      <trkpt lat="38.3329710" lon="-0.6637830">
        <ele>189.5</ele>
        <time>2018-03-30T09:29:22Z</time>
      </trkpt>
      <trkpt lat="38.3328890" lon="-0.6637570">
        <ele>189.4</ele>
        <time>2018-03-30T09:29:23Z</time>
      </trkpt>
      <trkpt lat="38.3328070" lon="-0.6637320">
        <ele>189.2</ele>
        <time>2018-03-30T09:29:24Z</time>
      </trkpt>
      <trkpt lat="38.3327260" lon="-0.6637010">
        <ele>188.9</ele>
        <time>2018-03-30T09:29:25Z</time>
      </trkpt>
      <trkpt lat="38.3326500" lon="-0.6636570">
        <ele>188.5</ele>
        <time>2018-03-30T09:29:26Z</time>
      </trkpt>
      <trkpt lat="38.3325910" lon="-0.6635990">
        <ele>188.0</ele>
        <time>2018-03-30T09:29:27Z</time>
      </trkpt>
      <trkpt lat="38.3325750" lon="-0.6634350">
        <ele>187.1</ele>
        <time>2018-03-30T09:29:28Z</time>
      </trkpt>
      <trkpt lat="38.3325500" lon="-0.6633290">
        <ele>186.3</ele>
        <time>2018-03-30T09:29:29Z</time>
      </trkpt>
      <trkpt lat="38.3325250" lon="-0.6632230">
        <ele>185.5</ele>
        <time>2018-03-30T09:29:30Z</time>
      </trkpt>
      <trkpt lat="38.3325000" lon="-0.6631180">
        <ele>184.6</ele>
        <time>2018-03-30T09:29:31Z</time>
      </trkpt>
      <trkpt lat="38.3324750" lon="-0.6630120">
        <ele>183.6</ele>
        <time>2018-03-30T09:29:32Z</time>
      </trkpt>
      <trkpt lat="38.3324500" lon="-0.6629060">
        <ele>183.5</ele>
        <time>2018-03-30T09:29:33Z</time>
      </trkpt>
      <trkpt lat="38.3324490" lon="-0.6627820">
        <ele>183.3</ele>
        <time>2018-03-30T09:29:34Z</time>
      </trkpt>
      <trkpt lat="38.3324310" lon="-0.6626840">
        <ele>183.2</ele>
        <time>2018-03-30T09:29:35Z</time>
      </trkpt>
      <trkpt lat="38.3324040" lon="-0.6625980">
        <ele>183.1</ele>
        <time>2018-03-30T09:29:36Z</time>
      </trkpt>
      <trkpt lat="38.3323730" lon="-0.6625220">
        <ele>183.1</ele>
        <time>2018-03-30T09:29:37Z</time>
      </trkpt>
      <trkpt lat="38.3323410" lon="-0.6624660">
        <ele>183.0</ele>
        <time>2018-03-30T09:29:38Z</time>
      </trkpt>
      <trkpt lat="38.3323050" lon="-0.6624030">
        <ele>183.0</ele>
        <time>2018-03-30T09:29:39Z</time>
      </trkpt>
      <trkpt lat="38.3322650" lon="-0.6623380">
        <ele>183.0</ele>
        <time>2018-03-30T09:29:40Z</time>
      </trkpt>
      <trkpt lat="38.3322230" lon="-0.6622720">
        <ele>183.0</ele>
        <time>2018-03-30T09:29:41Z</time>
      </trkpt>
      <trkpt lat="38.3321860" lon="-0.6622060">
        <ele>183.0</ele>
        <time>2018-03-30T09:29:42Z</time>
      </trkpt>
      <trkpt lat="38.3322660" lon="-0.6621500">
        <ele>182.8</ele>
        <time>2018-03-30T09:29:43Z</time>
      </trkpt>
      <trkpt lat="38.3323050" lon="-0.6620760">
        <ele>182.7</ele>
        <time>2018-03-30T09:29:44Z</time>
      </trkpt>
      <trkpt lat="38.3323090" lon="-0.6620070">
        <ele>182.7</ele>
        <time>2018-03-30T09:29:45Z</time>
      </trkpt>
      <trkpt lat="38.3323090" lon="-0.6619340">
        <ele>182.7</ele>
        <time>2018-03-30T09:29:46Z</time>
      </trkpt>
      <trkpt lat="38.3323060" lon="-0.6618570">
        <ele>182.7</ele>
        <time>2018-03-30T09:29:47Z</time>
      </trkpt>
      <trkpt lat="38.3323010" lon="-0.6617790">
        <ele>182.7</ele>
        <time>2018-03-30T09:29:48Z</time>
      </trkpt>
      <trkpt lat="38.3322970" lon="-0.6616970">
        <ele>182.7</ele>
        <time>2018-03-30T09:29:49Z</time>
      </trkpt>
      <trkpt lat="38.3323150" lon="-0.6616140">
        <ele>182.7</ele>
        <time>2018-03-30T09:29:50Z</time>
      </trkpt>
      <trkpt lat="38.3323190" lon="-0.6615260">
        <ele>182.7</ele>
        <time>2018-03-30T09:29:51Z</time>
      </trkpt>
      <trkpt lat="38.3323220" lon="-0.6614370">
        <ele>182.7</ele>
        <time>2018-03-30T09:29:52Z</time>
      </trkpt>
      <trkpt lat="38.3323250" lon="-0.6613470">
        <ele>182.7</ele>
        <time>2018-03-30T09:29:53Z</time>
      </trkpt>
      <trkpt lat="38.3323280" lon="-0.6612570">
        <ele>182.7</ele>
        <time>2018-03-30T09:29:54Z</time>
      </trkpt>
      <trkpt lat="38.3323300" lon="-0.6611660">
        <ele>182.7</ele>
        <time>2018-03-30T09:29:55Z</time>
      </trkpt>
      <trkpt lat="38.3323280" lon="-0.6610750">
        <ele>182.8</ele>
        <time>2018-03-30T09:29:56Z</time>
      </trkpt>
      <trkpt lat="38.3323220" lon="-0.6609840">
        <ele>182.8</ele>
        <time>2018-03-30T09:29:57Z</time>
      </trkpt>
      <trkpt lat="38.3323190" lon="-0.6608910">
        <ele>182.8</ele>
        <time>2018-03-30T09:29:58Z</time>
      </trkpt>
      <trkpt lat="38.3323120" lon="-0.6607990">
        <ele>182.8</ele>
        <time>2018-03-30T09:29:59Z</time>
      </trkpt>
      <trkpt lat="38.3323040" lon="-0.6607080">
        <ele>182.8</ele>
        <time>2018-03-30T09:30:00Z</time>
      </trkpt>
      <trkpt lat="38.3322940" lon="-0.6606180">
        <ele>182.9</ele>
        <time>2018-03-30T09:30:01Z</time>
      </trkpt>
      <trkpt lat="38.3322880" lon="-0.6605260">
        <ele>182.9</ele>
        <time>2018-03-30T09:30:02Z</time>
      </trkpt>
      <trkpt lat="38.3322970" lon="-0.6604350">
        <ele>182.9</ele>
        <time>2018-03-30T09:30:03Z</time>
      </trkpt>
      <trkpt lat="38.3322900" lon="-0.6603480">
        <ele>182.9</ele>
        <time>2018-03-30T09:30:04Z</time>
      </trkpt>
      <trkpt lat="38.3322890" lon="-0.6602640">
        <ele>182.9</ele>
        <time>2018-03-30T09:30:05Z</time>
      </trkpt>
      <trkpt lat="38.3322950" lon="-0.6601830">
        <ele>182.9</ele>
        <time>2018-03-30T09:30:06Z</time>
      </trkpt>
      <trkpt lat="38.3322950" lon="-0.6601020">
        <ele>183.0</ele>
        <time>2018-03-30T09:30:07Z</time>
      </trkpt>
      <trkpt lat="38.3322920" lon="-0.6600220">
        <ele>183.0</ele>
        <time>2018-03-30T09:30:08Z</time>
      </trkpt>
      <trkpt lat="38.3322810" lon="-0.6599440">
        <ele>183.0</ele>
        <time>2018-03-30T09:30:09Z</time>
      </trkpt>
      <trkpt lat="38.3322650" lon="-0.6598820">
        <ele>183.0</ele>
        <time>2018-03-30T09:30:10Z</time>
      </trkpt>
      <trkpt lat="38.3322300" lon="-0.6598460">
        <ele>182.9</ele>
        <time>2018-03-30T09:30:11Z</time>
      </trkpt>
      <trkpt lat="38.3321860" lon="-0.6598270">
        <ele>182.6</ele>
        <time>2018-03-30T09:30:12Z</time>
      </trkpt>
      <trkpt lat="38.3321390" lon="-0.6598280">
        <ele>182.4</ele>
        <time>2018-03-30T09:30:13Z</time>
      </trkpt>
      <trkpt lat="38.3320840" lon="-0.6598610">
        <ele>182.1</ele>
        <time>2018-03-30T09:30:14Z</time>
      </trkpt>
      <trkpt lat="38.3320350" lon="-0.6598970">
        <ele>181.8</ele>
        <time>2018-03-30T09:30:15Z</time>
      </trkpt>
      <trkpt lat="38.3319870" lon="-0.6599340">
        <ele>181.5</ele>
        <time>2018-03-30T09:30:16Z</time>
      </trkpt>
      <trkpt lat="38.3319410" lon="-0.6599750">
        <ele>181.1</ele>
        <time>2018-03-30T09:30:17Z</time>
      </trkpt>
      <trkpt lat="38.3318990" lon="-0.6600330">
        <ele>180.7</ele>
        <time>2018-03-30T09:30:18Z</time>
      </trkpt>
      <trkpt lat="38.3318540" lon="-0.6600930">
        <ele>180.1</ele>
        <time>2018-03-30T09:30:19Z</time>
      </trkpt>
      <trkpt lat="38.3318050" lon="-0.6601420">
        <ele>179.5</ele>
        <time>2018-03-30T09:30:20Z</time>
      </trkpt>
      <trkpt lat="38.3317510" lon="-0.6601880">
        <ele>179.1</ele>
        <time>2018-03-30T09:30:21Z</time>
      </trkpt>
      <trkpt lat="38.3316900" lon="-0.6602200">
        <ele>178.8</ele>
        <time>2018-03-30T09:30:22Z</time>
      </trkpt>
      <trkpt lat="38.3316260" lon="-0.6602550">
        <ele>178.4</ele>
        <time>2018-03-30T09:30:23Z</time>
      </trkpt>
      <trkpt lat="38.3315630" lon="-0.6602930">
        <ele>178.0</ele>
        <time>2018-03-30T09:30:24Z</time>
      </trkpt>
      <trkpt lat="38.3315010" lon="-0.6603250">
        <ele>177.6</ele>
        <time>2018-03-30T09:30:25Z</time>
      </trkpt>
      <trkpt lat="38.3314390" lon="-0.6603420">
        <ele>177.4</ele>
        <time>2018-03-30T09:30:26Z</time>
      </trkpt>
      <trkpt lat="38.3313760" lon="-0.6603380">
        <ele>177.1</ele>
        <time>2018-03-30T09:30:27Z</time>
      </trkpt>
      <trkpt lat="38.3313130" lon="-0.6603240">
        <ele>176.9</ele>
        <time>2018-03-30T09:30:28Z</time>
      </trkpt>
      <trkpt lat="38.3312480" lon="-0.6603150">
        <ele>176.6</ele>
        <time>2018-03-30T09:30:29Z</time>
      </trkpt>
      <trkpt lat="38.3311810" lon="-0.6603080">
        <ele>176.2</ele>
        <time>2018-03-30T09:30:30Z</time>
      </trkpt>
      <trkpt lat="38.3311160" lon="-0.6603020">
        <ele>175.8</ele>
        <time>2018-03-30T09:30:31Z</time>
      </trkpt>
      <trkpt lat="38.3310520" lon="-0.6602970">
        <ele>175.5</ele>
        <time>2018-03-30T09:30:32Z</time>
      </trkpt>
      <trkpt lat="38.3309890" lon="-0.6602910">
        <ele>175.3</ele>
        <time>2018-03-30T09:30:33Z</time>
      </trkpt>
      <trkpt lat="38.3309260" lon="-0.6602780">
        <ele>175.0</ele>
        <time>2018-03-30T09:30:34Z</time>
      </trkpt>
      <trkpt lat="38.3308640" lon="-0.6602730">
        <ele>174.8</ele>
        <time>2018-03-30T09:30:35Z</time>
      </trkpt>
      <trkpt lat="38.3308020" lon="-0.6602760">
        <ele>174.6</ele>
        <time>2018-03-30T09:30:36Z</time>
      </trkpt>
      <trkpt lat="38.3307410" lon="-0.6602590">
        <ele>174.4</ele>
        <time>2018-03-30T09:30:37Z</time>
      </trkpt>
      <trkpt lat="38.3306830" lon="-0.6602570">
        <ele>174.3</ele>
        <time>2018-03-30T09:30:38Z</time>
      </trkpt>
      <trkpt lat="38.3306280" lon="-0.6602660">
        <ele>174.1</ele>
        <time>2018-03-30T09:30:39Z</time>
      </trkpt>
      <trkpt lat="38.3305780" lon="-0.6602730">
        <ele>174.0</ele>
        <time>2018-03-30T09:30:40Z</time>
      </trkpt>
      <trkpt lat="38.3305280" lon="-0.6602750">
        <ele>174.0</ele>
        <time>2018-03-30T09:30:41Z</time>
      </trkpt>
      <trkpt lat="38.3304680" lon="-0.6602700">
        <ele>174.0</ele>
        <time>2018-03-30T09:30:42Z</time>
      </trkpt>
      <trkpt lat="38.3304010" lon="-0.6602640">
        <ele>174.4</ele>
        <time>2018-03-30T09:30:43Z</time>
      </trkpt>
      <trkpt lat="38.3303370" lon="-0.6602730">
        <ele>174.5</ele>
        <time>2018-03-30T09:30:44Z</time>
      </trkpt>
      <trkpt lat="38.3302760" lon="-0.6602900">
        <ele>174.5</ele>
        <time>2018-03-30T09:30:45Z</time>
      </trkpt>
      <trkpt lat="38.3302140" lon="-0.6603100">
        <ele>174.6</ele>
        <time>2018-03-30T09:30:46Z</time>
      </trkpt>
      <trkpt lat="38.3301580" lon="-0.6603060">
        <ele>174.6</ele>
        <time>2018-03-30T09:30:47Z</time>
      </trkpt>
      <trkpt lat="38.3301080" lon="-0.6602890">
        <ele>174.6</ele>
        <time>2018-03-30T09:30:48Z</time>
      </trkpt>
      <trkpt lat="38.3300590" lon="-0.6602640">
        <ele>174.5</ele>
        <time>2018-03-30T09:30:49Z</time>
      </trkpt>
      <trkpt lat="38.3300130" lon="-0.6602320">
        <ele>174.5</ele>
        <time>2018-03-30T09:30:50Z</time>
      </trkpt>
      <trkpt lat="38.3299660" lon="-0.6602000">
        <ele>174.4</ele>
        <time>2018-03-30T09:30:51Z</time>
      </trkpt>
      <trkpt lat="38.3299180" lon="-0.6601650">
        <ele>174.4</ele>
        <time>2018-03-30T09:30:52Z</time>
      </trkpt>
      <trkpt lat="38.3298690" lon="-0.6601280">
        <ele>174.2</ele>
        <time>2018-03-30T09:30:53Z</time>
      </trkpt>
      <trkpt lat="38.3298180" lon="-0.6600920">
        <ele>174.1</ele>
        <time>2018-03-30T09:30:54Z</time>
      </trkpt>
      <trkpt lat="38.3297640" lon="-0.6600550">
        <ele>174.0</ele>
        <time>2018-03-30T09:30:55Z</time>
      </trkpt>
      <trkpt lat="38.3297090" lon="-0.6600140">
        <ele>173.9</ele>
        <time>2018-03-30T09:30:56Z</time>
      </trkpt>
      <trkpt lat="38.3296520" lon="-0.6599740">
        <ele>173.7</ele>
        <time>2018-03-30T09:30:57Z</time>
      </trkpt>
      <trkpt lat="38.3295920" lon="-0.6599350">
        <ele>173.6</ele>
        <time>2018-03-30T09:30:58Z</time>
      </trkpt>
      <trkpt lat="38.3295310" lon="-0.6598970">
        <ele>173.4</ele>
        <time>2018-03-30T09:30:59Z</time>
      </trkpt>
      <trkpt lat="38.3294670" lon="-0.6598610">
        <ele>173.3</ele>
        <time>2018-03-30T09:31:00Z</time>
      </trkpt>
      <trkpt lat="38.3294030" lon="-0.6598270">
        <ele>173.2</ele>
        <time>2018-03-30T09:31:01Z</time>
      </trkpt>
      <trkpt lat="38.3293360" lon="-0.6597960">
        <ele>173.1</ele>
        <time>2018-03-30T09:31:02Z</time>
      </trkpt>
      <trkpt lat="38.3292690" lon="-0.6597660">
        <ele>173.1</ele>
        <time>2018-03-30T09:31:03Z</time>
      </trkpt>
      <trkpt lat="38.3292020" lon="-0.6597360">
        <ele>173.1</ele>
        <time>2018-03-30T09:31:04Z</time>
      </trkpt>
      <trkpt lat="38.3291340" lon="-0.6597060">
        <ele>173.0</ele>
        <time>2018-03-30T09:31:05Z</time>
      </trkpt>
      <trkpt lat="38.3290660" lon="-0.6596770">
        <ele>173.0</ele>
        <time>2018-03-30T09:31:06Z</time>
      </trkpt>
      <trkpt lat="38.3289980" lon="-0.6596460">
        <ele>173.0</ele>
        <time>2018-03-30T09:31:07Z</time>
      </trkpt>
      <trkpt lat="38.3289290" lon="-0.6596170">
        <ele>173.1</ele>
        <time>2018-03-30T09:31:08Z</time>
      </trkpt>
      <trkpt lat="38.3288610" lon="-0.6595900">
        <ele>173.1</ele>
        <time>2018-03-30T09:31:09Z</time>
      </trkpt>
      <trkpt lat="38.3287930" lon="-0.6595650">
        <ele>173.2</ele>
        <time>2018-03-30T09:31:10Z</time>
      </trkpt>
      <trkpt lat="38.3287260" lon="-0.6595410">
        <ele>173.2</ele>
        <time>2018-03-30T09:31:11Z</time>
      </trkpt>
      <trkpt lat="38.3286580" lon="-0.6595200">
        <ele>173.2</ele>
        <time>2018-03-30T09:31:12Z</time>
      </trkpt>
      <trkpt lat="38.3285910" lon="-0.6595100">
        <ele>173.2</ele>
        <time>2018-03-30T09:31:13Z</time>
      </trkpt>
      <trkpt lat="38.3285240" lon="-0.6595080">
        <ele>173.1</ele>
        <time>2018-03-30T09:31:14Z</time>
      </trkpt>
      <trkpt lat="38.3284600" lon="-0.6595080">
        <ele>173.0</ele>
        <time>2018-03-30T09:31:15Z</time>
      </trkpt>
      <trkpt lat="38.3283940" lon="-0.6595060">
        <ele>172.9</ele>
        <time>2018-03-30T09:31:16Z</time>
      </trkpt>
      <trkpt lat="38.3283300" lon="-0.6595000">
        <ele>172.7</ele>
        <time>2018-03-30T09:31:17Z</time>
      </trkpt>
      <trkpt lat="38.3282650" lon="-0.6594950">
        <ele>172.5</ele>
        <time>2018-03-30T09:31:18Z</time>
      </trkpt>
      <trkpt lat="38.3281980" lon="-0.6594880">
        <ele>172.3</ele>
        <time>2018-03-30T09:31:19Z</time>
      </trkpt>
      <trkpt lat="38.3281290" lon="-0.6594800">
        <ele>172.1</ele>
        <time>2018-03-30T09:31:20Z</time>
      </trkpt>
      <trkpt lat="38.3280580" lon="-0.6594710">
        <ele>172.0</ele>
        <time>2018-03-30T09:31:21Z</time>
      </trkpt>
      <trkpt lat="38.3279850" lon="-0.6594590">
        <ele>171.8</ele>
        <time>2018-03-30T09:31:22Z</time>
      </trkpt>
      <trkpt lat="38.3279110" lon="-0.6594420">
        <ele>171.7</ele>
        <time>2018-03-30T09:31:23Z</time>
      </trkpt>
      <trkpt lat="38.3278360" lon="-0.6594260">
        <ele>171.5</ele>
        <time>2018-03-30T09:31:24Z</time>
      </trkpt>
      <trkpt lat="38.3277590" lon="-0.6594130">
        <ele>171.3</ele>
        <time>2018-03-30T09:31:25Z</time>
      </trkpt>
      <trkpt lat="38.3276830" lon="-0.6594000">
        <ele>171.1</ele>
        <time>2018-03-30T09:31:26Z</time>
      </trkpt>
      <trkpt lat="38.3276070" lon="-0.6593870">
        <ele>171.0</ele>
        <time>2018-03-30T09:31:27Z</time>
      </trkpt>
      <trkpt lat="38.3275320" lon="-0.6593740">
        <ele>170.9</ele>
        <time>2018-03-30T09:31:28Z</time>
      </trkpt>
      <trkpt lat="38.3274580" lon="-0.6593610">
        <ele>170.7</ele>
        <time>2018-03-30T09:31:29Z</time>
      </trkpt>
      <trkpt lat="38.3273830" lon="-0.6593460">
        <ele>170.6</ele>
        <time>2018-03-30T09:31:30Z</time>
      </trkpt>
      <trkpt lat="38.3273100" lon="-0.6593330">
        <ele>170.5</ele>
        <time>2018-03-30T09:31:31Z</time>
      </trkpt>
      <trkpt lat="38.3272380" lon="-0.6593230">
        <ele>170.4</ele>
        <time>2018-03-30T09:31:32Z</time>
      </trkpt>
      <trkpt lat="38.3271690" lon="-0.6593160">
        <ele>170.1</ele>
        <time>2018-03-30T09:31:33Z</time>
      </trkpt>
      <trkpt lat="38.3270980" lon="-0.6593060">
        <ele>169.9</ele>
        <time>2018-03-30T09:31:34Z</time>
      </trkpt>
      <trkpt lat="38.3270270" lon="-0.6592960">
        <ele>169.8</ele>
        <time>2018-03-30T09:31:35Z</time>
      </trkpt>
      <trkpt lat="38.3269560" lon="-0.6592860">
        <ele>169.6</ele>
        <time>2018-03-30T09:31:36Z</time>
      </trkpt>
      <trkpt lat="38.3268840" lon="-0.6592760">
        <ele>169.5</ele>
        <time>2018-03-30T09:31:37Z</time>
      </trkpt>
      <trkpt lat="38.3268140" lon="-0.6592660">
        <ele>169.3</ele>
        <time>2018-03-30T09:31:38Z</time>
      </trkpt>
      <trkpt lat="38.3267430" lon="-0.6592590">
        <ele>169.1</ele>
        <time>2018-03-30T09:31:39Z</time>
      </trkpt>
      <trkpt lat="38.3266740" lon="-0.6592510">
        <ele>168.9</ele>
        <time>2018-03-30T09:31:40Z</time>
      </trkpt>
      <trkpt lat="38.3266060" lon="-0.6592390">
        <ele>168.7</ele>
        <time>2018-03-30T09:31:41Z</time>
      </trkpt>
      <trkpt lat="38.3265410" lon="-0.6592170">
        <ele>168.6</ele>
        <time>2018-03-30T09:31:42Z</time>
      </trkpt>
      <trkpt lat="38.3264850" lon="-0.6591740">
        <ele>168.5</ele>
        <time>2018-03-30T09:31:43Z</time>
      </trkpt>
      <trkpt lat="38.3264480" lon="-0.6591100">
        <ele>168.4</ele>
        <time>2018-03-30T09:31:44Z</time>
      </trkpt>
      <trkpt lat="38.3264210" lon="-0.6590280">
        <ele>168.4</ele>
        <time>2018-03-30T09:31:45Z</time>
      </trkpt>
      <trkpt lat="38.3264020" lon="-0.6589360">
        <ele>168.4</ele>
        <time>2018-03-30T09:31:46Z</time>
      </trkpt>
      <trkpt lat="38.3263900" lon="-0.6588420">
        <ele>168.3</ele>
        <time>2018-03-30T09:31:47Z</time>
      </trkpt>
      <trkpt lat="38.3263840" lon="-0.6587470">
        <ele>168.3</ele>
        <time>2018-03-30T09:31:48Z</time>
      </trkpt>
      <trkpt lat="38.3263770" lon="-0.6586500">
        <ele>168.3</ele>
        <time>2018-03-30T09:31:49Z</time>
      </trkpt>
      <trkpt lat="38.3263690" lon="-0.6585510">
        <ele>168.2</ele>
        <time>2018-03-30T09:31:50Z</time>
      </trkpt>
      <trkpt lat="38.3263600" lon="-0.6584520">
        <ele>168.2</ele>
        <time>2018-03-30T09:31:51Z</time>
      </trkpt>
      <trkpt lat="38.3263490" lon="-0.6583530">
        <ele>168.2</ele>
        <time>2018-03-30T09:31:52Z</time>
      </trkpt>
      <trkpt lat="38.3263370" lon="-0.6582540">
        <ele>168.1</ele>
        <time>2018-03-30T09:31:53Z</time>
      </trkpt>
      <trkpt lat="38.3263230" lon="-0.6581540">
        <ele>168.1</ele>
        <time>2018-03-30T09:31:54Z</time>
      </trkpt>
      <trkpt lat="38.3263080" lon="-0.6580540">
        <ele>168.0</ele>
        <time>2018-03-30T09:31:55Z</time>
      </trkpt>
      <trkpt lat="38.3262920" lon="-0.6579550">
        <ele>168.0</ele>
        <time>2018-03-30T09:31:56Z</time>
      </trkpt>
      <trkpt lat="38.3262770" lon="-0.6578560">
        <ele>167.9</ele>
        <time>2018-03-30T09:31:57Z</time>
      </trkpt>
      <trkpt lat="38.3262580" lon="-0.6577580">
        <ele>167.9</ele>
        <time>2018-03-30T09:31:58Z</time>
      </trkpt>
      <trkpt lat="38.3262350" lon="-0.6576610">
        <ele>167.8</ele>
        <time>2018-03-30T09:31:59Z</time>
      </trkpt>
      <trkpt lat="38.3262050" lon="-0.6575640">
        <ele>167.8</ele>
        <time>2018-03-30T09:32:00Z</time>
      </trkpt>
      <trkpt lat="38.3261760" lon="-0.6574690">
        <ele>167.7</ele>
        <time>2018-03-30T09:32:01Z</time>
      </trkpt>
      <trkpt lat="38.3261480" lon="-0.6573760">
        <ele>167.7</ele>
        <time>2018-03-30T09:32:02Z</time>
      </trkpt>
      <trkpt lat="38.3261170" lon="-0.6572830">
        <ele>167.6</ele>
        <time>2018-03-30T09:32:03Z</time>
      </trkpt>
      <trkpt lat="38.3260850" lon="-0.6571890">
        <ele>167.5</ele>
        <time>2018-03-30T09:32:04Z</time>
      </trkpt>
      <trkpt lat="38.3260530" lon="-0.6570950">
        <ele>167.4</ele>
        <time>2018-03-30T09:32:05Z</time>
      </trkpt>
      <trkpt lat="38.3260200" lon="-0.6570010">
        <ele>167.4</ele>
        <time>2018-03-30T09:32:06Z</time>
      </trkpt>
      <trkpt lat="38.3259940" lon="-0.6569050">
        <ele>167.2</ele>
        <time>2018-03-30T09:32:07Z</time>
      </trkpt>
      <trkpt lat="38.3259830" lon="-0.6568080">
        <ele>167.0</ele>
        <time>2018-03-30T09:32:08Z</time>
      </trkpt>
      <trkpt lat="38.3259680" lon="-0.6567030">
        <ele>166.9</ele>
        <time>2018-03-30T09:32:09Z</time>
      </trkpt>
      <trkpt lat="38.3259510" lon="-0.6565950">
        <ele>166.8</ele>
        <time>2018-03-30T09:32:10Z</time>
      </trkpt>
      <trkpt lat="38.3259420" lon="-0.6564910">
        <ele>166.7</ele>
        <time>2018-03-30T09:32:11Z</time>
      </trkpt>
      <trkpt lat="38.3259320" lon="-0.6563880">
        <ele>166.6</ele>
        <time>2018-03-30T09:32:12Z</time>
      </trkpt>
      <trkpt lat="38.3259210" lon="-0.6562880">
        <ele>166.6</ele>
        <time>2018-03-30T09:32:13Z</time>
      </trkpt>
      <trkpt lat="38.3259030" lon="-0.6561910">
        <ele>166.6</ele>
        <time>2018-03-30T09:32:14Z</time>
      </trkpt>
      <trkpt lat="38.3258620" lon="-0.6560990">
        <ele>166.6</ele>
        <time>2018-03-30T09:32:15Z</time>
      </trkpt>
      <trkpt lat="38.3258160" lon="-0.6560170">
        <ele>166.6</ele>
        <time>2018-03-30T09:32:16Z</time>
      </trkpt>
      <trkpt lat="38.3257550" lon="-0.6559530">
        <ele>166.6</ele>
        <time>2018-03-30T09:32:17Z</time>
      </trkpt>
      <trkpt lat="38.3256880" lon="-0.6559020">
        <ele>166.7</ele>
        <time>2018-03-30T09:32:18Z</time>
      </trkpt>
      <trkpt lat="38.3256220" lon="-0.6558530">
        <ele>166.8</ele>
        <time>2018-03-30T09:32:19Z</time>
      </trkpt>
      <trkpt lat="38.3255580" lon="-0.6558060">
        <ele>166.9</ele>
        <time>2018-03-30T09:32:20Z</time>
      </trkpt>
      <trkpt lat="38.3255030" lon="-0.6557460">
        <ele>167.0</ele>
        <time>2018-03-30T09:32:21Z</time>
      </trkpt>
      <trkpt lat="38.3254790" lon="-0.6556730">
        <ele>167.1</ele>
        <time>2018-03-30T09:32:22Z</time>
      </trkpt>
      <trkpt lat="38.3254820" lon="-0.6555960">
        <ele>167.3</ele>
        <time>2018-03-30T09:32:23Z</time>
      </trkpt>
      <trkpt lat="38.3254990" lon="-0.6555230">
        <ele>167.5</ele>
        <time>2018-03-30T09:32:24Z</time>
      </trkpt>
      <trkpt lat="38.3255290" lon="-0.6554530">
        <ele>167.7</ele>
        <time>2018-03-30T09:32:25Z</time>
      </trkpt>
      <trkpt lat="38.3255590" lon="-0.6553830">
        <ele>168.0</ele>
        <time>2018-03-30T09:32:26Z</time>
      </trkpt>
      <trkpt lat="38.3255830" lon="-0.6553130">
        <ele>168.2</ele>
        <time>2018-03-30T09:32:27Z</time>
      </trkpt>
      <trkpt lat="38.3255920" lon="-0.6552450">
        <ele>168.4</ele>
        <time>2018-03-30T09:32:28Z</time>
      </trkpt>
      <trkpt lat="38.3255960" lon="-0.6551790">
        <ele>168.6</ele>
        <time>2018-03-30T09:32:29Z</time>
      </trkpt>
      <trkpt lat="38.3255950" lon="-0.6551230">
        <ele>168.8</ele>
        <time>2018-03-30T09:32:30Z</time>
      </trkpt>
      <trkpt lat="38.3255680" lon="-0.6550890">
        <ele>169.0</ele>
        <time>2018-03-30T09:32:31Z</time>
      </trkpt>
      <trkpt lat="38.3255430" lon="-0.6550740">
        <ele>169.1</ele>
        <time>2018-03-30T09:32:32Z</time>
      </trkpt>
      <trkpt lat="38.3254970" lon="-0.6550740">
        <ele>169.1</ele>
        <time>2018-03-30T09:32:33Z</time>
      </trkpt>
      <trkpt lat="38.3254480" lon="-0.6550800">
        <ele>169.1</ele>
        <time>2018-03-30T09:32:34Z</time>
      </trkpt>
      <trkpt lat="38.3253910" lon="-0.6550860">
        <ele>169.1</ele>
        <time>2018-03-30T09:32:35Z</time>
      </trkpt>
      <trkpt lat="38.3253320" lon="-0.6550960">
        <ele>169.2</ele>
        <time>2018-03-30T09:32:36Z</time>
      </trkpt>
      <trkpt lat="38.3252720" lon="-0.6551110">
        <ele>169.2</ele>
        <time>2018-03-30T09:32:37Z</time>
      </trkpt>
      <trkpt lat="38.3252080" lon="-0.6551280">
        <ele>169.2</ele>
        <time>2018-03-30T09:32:38Z</time>
      </trkpt>
      <trkpt lat="38.3251430" lon="-0.6551520">
        <ele>169.2</ele>
        <time>2018-03-30T09:32:39Z</time>
      </trkpt>
      <trkpt lat="38.3250760" lon="-0.6551790">
        <ele>169.2</ele>
        <time>2018-03-30T09:32:40Z</time>
      </trkpt>
      <trkpt lat="38.3250070" lon="-0.6552100">
        <ele>169.2</ele>
        <time>2018-03-30T09:32:41Z</time>
      </trkpt>
      <trkpt lat="38.3249400" lon="-0.6552380">
        <ele>169.2</ele>
        <time>2018-03-30T09:32:42Z</time>
      </trkpt>
      <trkpt lat="38.3248720" lon="-0.6552620">
        <ele>169.1</ele>
        <time>2018-03-30T09:32:43Z</time>
      </trkpt>
      <trkpt lat="38.3248050" lon="-0.6552870">
        <ele>169.0</ele>
        <time>2018-03-30T09:32:44Z</time>
      </trkpt>
      <trkpt lat="38.3247390" lon="-0.6553080">
        <ele>168.9</ele>
        <time>2018-03-30T09:32:45Z</time>
      </trkpt>
      <trkpt lat="38.3246730" lon="-0.6553290">
        <ele>168.7</ele>
        <time>2018-03-30T09:32:46Z</time>
      </trkpt>
      <trkpt lat="38.3246030" lon="-0.6553500">
        <ele>168.6</ele>
        <time>2018-03-30T09:32:47Z</time>
      </trkpt>
      <trkpt lat="38.3245300" lon="-0.6553690">
        <ele>168.5</ele>
        <time>2018-03-30T09:32:48Z</time>
      </trkpt>
      <trkpt lat="38.3244540" lon="-0.6553930">
        <ele>168.4</ele>
        <time>2018-03-30T09:32:49Z</time>
      </trkpt>
      <trkpt lat="38.3243780" lon="-0.6554200">
        <ele>168.2</ele>
        <time>2018-03-30T09:32:50Z</time>
      </trkpt>
      <trkpt lat="38.3243000" lon="-0.6554440">
        <ele>168.0</ele>
        <time>2018-03-30T09:32:51Z</time>
      </trkpt>
      <trkpt lat="38.3242220" lon="-0.6554650">
        <ele>167.9</ele>
        <time>2018-03-30T09:32:52Z</time>
      </trkpt>
      <trkpt lat="38.3241410" lon="-0.6554700">
        <ele>167.7</ele>
        <time>2018-03-30T09:32:53Z</time>
      </trkpt>
      <trkpt lat="38.3240610" lon="-0.6554460">
        <ele>167.6</ele>
        <time>2018-03-30T09:32:54Z</time>
      </trkpt>
      <trkpt lat="38.3239870" lon="-0.6554150">
        <ele>167.5</ele>
        <time>2018-03-30T09:32:55Z</time>
      </trkpt>
      <trkpt lat="38.3239170" lon="-0.6553670">
        <ele>167.5</ele>
        <time>2018-03-30T09:32:56Z</time>
      </trkpt>
      <trkpt lat="38.3238480" lon="-0.6553090">
        <ele>167.5</ele>
        <time>2018-03-30T09:32:57Z</time>
      </trkpt>
      <trkpt lat="38.3237810" lon="-0.6552460">
        <ele>167.6</ele>
        <time>2018-03-30T09:32:58Z</time>
      </trkpt>
      <trkpt lat="38.3237160" lon="-0.6551800">
        <ele>167.6</ele>
        <time>2018-03-30T09:32:59Z</time>
      </trkpt>
      <trkpt lat="38.3236500" lon="-0.6551160">
        <ele>167.6</ele>
        <time>2018-03-30T09:33:00Z</time>
      </trkpt>
      <trkpt lat="38.3235850" lon="-0.6550540">
        <ele>167.7</ele>
        <time>2018-03-30T09:33:01Z</time>
      </trkpt>
      <trkpt lat="38.3235190" lon="-0.6549960">
        <ele>167.8</ele>
        <time>2018-03-30T09:33:02Z</time>
      </trkpt>
      <trkpt lat="38.3234520" lon="-0.6549430">
        <ele>167.9</ele>
        <time>2018-03-30T09:33:03Z</time>
      </trkpt>
      <trkpt lat="38.3233830" lon="-0.6548930">
        <ele>168.0</ele>
        <time>2018-03-30T09:33:04Z</time>
      </trkpt>
      <trkpt lat="38.3233130" lon="-0.6548540">
        <ele>168.1</ele>
        <time>2018-03-30T09:33:05Z</time>
      </trkpt>
      <trkpt lat="38.3232410" lon="-0.6548270">
        <ele>168.2</ele>
        <time>2018-03-30T09:33:06Z</time>
      </trkpt>
      <trkpt lat="38.3231690" lon="-0.6548040">
        <ele>168.2</ele>
        <time>2018-03-30T09:33:07Z</time>
      </trkpt>
      <trkpt lat="38.3230960" lon="-0.6547850">
        <ele>168.1</ele>
        <time>2018-03-30T09:33:08Z</time>
      </trkpt>
      <trkpt lat="38.3230160" lon="-0.6547730">
        <ele>168.0</ele>
        <time>2018-03-30T09:33:09Z</time>
      </trkpt>
      <trkpt lat="38.3229350" lon="-0.6547730">
        <ele>168.0</ele>
        <time>2018-03-30T09:33:10Z</time>
      </trkpt>
      <trkpt lat="38.3228540" lon="-0.6547800">
        <ele>167.9</ele>
        <time>2018-03-30T09:33:11Z</time>
      </trkpt>
      <trkpt lat="38.3227750" lon="-0.6547970">
        <ele>167.7</ele>
        <time>2018-03-30T09:33:12Z</time>
      </trkpt>
      <trkpt lat="38.3226960" lon="-0.6548100">
        <ele>167.5</ele>
        <time>2018-03-30T09:33:13Z</time>
      </trkpt>
      <trkpt lat="38.3226170" lon="-0.6548220">
        <ele>167.3</ele>
        <time>2018-03-30T09:33:14Z</time>
      </trkpt>
      <trkpt lat="38.3225380" lon="-0.6548360">
        <ele>167.1</ele>
        <time>2018-03-30T09:33:15Z</time>
      </trkpt>
      <trkpt lat="38.3224590" lon="-0.6548470">
        <ele>167.0</ele>
        <time>2018-03-30T09:33:16Z</time>
      </trkpt>
      <trkpt lat="38.3223810" lon="-0.6548580">
        <ele>167.0</ele>
        <time>2018-03-30T09:33:17Z</time>
      </trkpt>
      <trkpt lat="38.3223020" lon="-0.6548710">
        <ele>166.9</ele>
        <time>2018-03-30T09:33:18Z</time>
      </trkpt>
      <trkpt lat="38.3222200" lon="-0.6548900">
        <ele>166.9</ele>
        <time>2018-03-30T09:33:19Z</time>
      </trkpt>
      <trkpt lat="38.3221380" lon="-0.6549080">
        <ele>166.9</ele>
        <time>2018-03-30T09:33:20Z</time>
      </trkpt>
      <trkpt lat="38.3220560" lon="-0.6549210">
        <ele>166.9</ele>
        <time>2018-03-30T09:33:21Z</time>
      </trkpt>
      <trkpt lat="38.3219700" lon="-0.6549300">
        <ele>166.8</ele>
        <time>2018-03-30T09:33:22Z</time>
      </trkpt>
      <trkpt lat="38.3218870" lon="-0.6549380">
        <ele>166.8</ele>
        <time>2018-03-30T09:33:23Z</time>
      </trkpt>
      <trkpt lat="38.3218030" lon="-0.6549470">
        <ele>166.8</ele>
        <time>2018-03-30T09:33:24Z</time>
      </trkpt>
      <trkpt lat="38.3217180" lon="-0.6549570">
        <ele>166.7</ele>
        <time>2018-03-30T09:33:25Z</time>
      </trkpt>
      <trkpt lat="38.3216340" lon="-0.6549650">
        <ele>166.7</ele>
        <time>2018-03-30T09:33:26Z</time>
      </trkpt>
      <trkpt lat="38.3215500" lon="-0.6549740">
        <ele>166.7</ele>
        <time>2018-03-30T09:33:27Z</time>
      </trkpt>
      <trkpt lat="38.3214670" lon="-0.6549890">
        <ele>166.6</ele>
        <time>2018-03-30T09:33:28Z</time>
      </trkpt>
      <trkpt lat="38.3213860" lon="-0.6550220">
        <ele>166.6</ele>
        <time>2018-03-30T09:33:29Z</time>
      </trkpt>
      <trkpt lat="38.3213040" lon="-0.6550580">
        <ele>166.5</ele>
        <time>2018-03-30T09:33:30Z</time>
      </trkpt>
      <trkpt lat="38.3212210" lon="-0.6550900">
        <ele>166.4</ele>
        <time>2018-03-30T09:33:31Z</time>
      </trkpt>
      <trkpt lat="38.3211370" lon="-0.6551180">
        <ele>166.2</ele>
        <time>2018-03-30T09:33:32Z</time>
      </trkpt>
      <trkpt lat="38.3210510" lon="-0.6551450">
        <ele>166.1</ele>
        <time>2018-03-30T09:33:33Z</time>
      </trkpt>
      <trkpt lat="38.3209660" lon="-0.6551720">
        <ele>165.9</ele>
        <time>2018-03-30T09:33:34Z</time>
      </trkpt>
      <trkpt lat="38.3208820" lon="-0.6551980">
        <ele>165.7</ele>
        <time>2018-03-30T09:33:35Z</time>
      </trkpt>
      <trkpt lat="38.3207990" lon="-0.6552210">
        <ele>165.4</ele>
        <time>2018-03-30T09:33:36Z</time>
      </trkpt>
      <trkpt lat="38.3207170" lon="-0.6552410">
        <ele>165.1</ele>
        <time>2018-03-30T09:33:37Z</time>
      </trkpt>
      <trkpt lat="38.3206320" lon="-0.6552620">
        <ele>164.8</ele>
        <time>2018-03-30T09:33:38Z</time>
      </trkpt>
      <trkpt lat="38.3205460" lon="-0.6552900">
        <ele>164.6</ele>
        <time>2018-03-30T09:33:39Z</time>
      </trkpt>
      <trkpt lat="38.3204590" lon="-0.6553250">
        <ele>164.4</ele>
        <time>2018-03-30T09:33:40Z</time>
      </trkpt>
      <trkpt lat="38.3203740" lon="-0.6553630">
        <ele>164.2</ele>
        <time>2018-03-30T09:33:41Z</time>
      </trkpt>
      <trkpt lat="38.3202890" lon="-0.6554070">
        <ele>164.0</ele>
        <time>2018-03-30T09:33:42Z</time>
      </trkpt>
      <trkpt lat="38.3202070" lon="-0.6554550">
        <ele>163.9</ele>
        <time>2018-03-30T09:33:43Z</time>
      </trkpt>
      <trkpt lat="38.3201270" lon="-0.6555050">
        <ele>163.7</ele>
        <time>2018-03-30T09:33:44Z</time>
      </trkpt>
      <trkpt lat="38.3200490" lon="-0.6555560">
        <ele>163.6</ele>
        <time>2018-03-30T09:33:45Z</time>
      </trkpt>
      <trkpt lat="38.3199730" lon="-0.6556070">
        <ele>163.5</ele>
        <time>2018-03-30T09:33:46Z</time>
      </trkpt>
      <trkpt lat="38.3198950" lon="-0.6556600">
        <ele>163.3</ele>
        <time>2018-03-30T09:33:47Z</time>
      </trkpt>
      <trkpt lat="38.3198190" lon="-0.6557110">
        <ele>163.1</ele>
        <time>2018-03-30T09:33:48Z</time>
      </trkpt>
      <trkpt lat="38.3197430" lon="-0.6557630">
        <ele>163.0</ele>
        <time>2018-03-30T09:33:49Z</time>
      </trkpt>
      <trkpt lat="38.3196680" lon="-0.6558170">
        <ele>162.8</ele>
        <time>2018-03-30T09:33:50Z</time>
      </trkpt>
      <trkpt lat="38.3195920" lon="-0.6558710">
        <ele>162.7</ele>
        <time>2018-03-30T09:33:51Z</time>
      </trkpt>
      <trkpt lat="38.3195160" lon="-0.6559180">
        <ele>162.6</ele>
        <time>2018-03-30T09:33:52Z</time>
      </trkpt>
      <trkpt lat="38.3194340" lon="-0.6559570">
        <ele>162.5</ele>
        <time>2018-03-30T09:33:53Z</time>
      </trkpt>
      <trkpt lat="38.3193490" lon="-0.6559730">
        <ele>162.4</ele>
        <time>2018-03-30T09:33:54Z</time>
      </trkpt>
      <trkpt lat="38.3192660" lon="-0.6559750">
        <ele>162.3</ele>
        <time>2018-03-30T09:33:55Z</time>
      </trkpt>
      <trkpt lat="38.3191780" lon="-0.6559680">
        <ele>162.2</ele>
        <time>2018-03-30T09:33:56Z</time>
      </trkpt>
      <trkpt lat="38.3190900" lon="-0.6559580">
        <ele>162.2</ele>
        <time>2018-03-30T09:33:57Z</time>
      </trkpt>
      <trkpt lat="38.3190010" lon="-0.6559490">
        <ele>162.1</ele>
        <time>2018-03-30T09:33:58Z</time>
      </trkpt>
      <trkpt lat="38.3189140" lon="-0.6559380">
        <ele>162.0</ele>
        <time>2018-03-30T09:33:59Z</time>
      </trkpt>
      <trkpt lat="38.3188260" lon="-0.6559290">
        <ele>161.8</ele>
        <time>2018-03-30T09:34:00Z</time>
      </trkpt>
      <trkpt lat="38.3187360" lon="-0.6559240">
        <ele>161.7</ele>
        <time>2018-03-30T09:34:01Z</time>
      </trkpt>
      <trkpt lat="38.3186440" lon="-0.6559210">
        <ele>161.5</ele>
        <time>2018-03-30T09:34:02Z</time>
      </trkpt>
      <trkpt lat="38.3185490" lon="-0.6559200">
        <ele>161.3</ele>
        <time>2018-03-30T09:34:03Z</time>
      </trkpt>
      <trkpt lat="38.3184530" lon="-0.6559250">
        <ele>161.1</ele>
        <time>2018-03-30T09:34:04Z</time>
      </trkpt>
      <trkpt lat="38.3183560" lon="-0.6559360">
        <ele>160.8</ele>
        <time>2018-03-30T09:34:05Z</time>
      </trkpt>
      <trkpt lat="38.3182540" lon="-0.6559790">
        <ele>160.4</ele>
        <time>2018-03-30T09:34:06Z</time>
      </trkpt>
      <trkpt lat="38.3181570" lon="-0.6560240">
        <ele>160.1</ele>
        <time>2018-03-30T09:34:07Z</time>
      </trkpt>
      <trkpt lat="38.3180610" lon="-0.6560790">
        <ele>159.8</ele>
        <time>2018-03-30T09:34:08Z</time>
      </trkpt>
      <trkpt lat="38.3179630" lon="-0.6561310">
        <ele>159.5</ele>
        <time>2018-03-30T09:34:09Z</time>
      </trkpt>
      <trkpt lat="38.3178690" lon="-0.6561660">
        <ele>159.3</ele>
        <time>2018-03-30T09:34:10Z</time>
      </trkpt>
      <trkpt lat="38.3177770" lon="-0.6561860">
        <ele>159.2</ele>
        <time>2018-03-30T09:34:11Z</time>
      </trkpt>
      <trkpt lat="38.3176920" lon="-0.6561820">
        <ele>156.8</ele>
        <time>2018-03-30T09:34:12Z</time>
      </trkpt>
      <trkpt lat="38.3176090" lon="-0.6561520">
        <ele>155.3</ele>
        <time>2018-03-30T09:34:13Z</time>
      </trkpt>
      <trkpt lat="38.3175310" lon="-0.6561030">
        <ele>153.9</ele>
        <time>2018-03-30T09:34:14Z</time>
      </trkpt>
      <trkpt lat="38.3174610" lon="-0.6560460">
        <ele>152.9</ele>
        <time>2018-03-30T09:34:15Z</time>
      </trkpt>
      <trkpt lat="38.3173850" lon="-0.6559860">
        <ele>152.2</ele>
        <time>2018-03-30T09:34:16Z</time>
      </trkpt>
      <trkpt lat="38.3173070" lon="-0.6559270">
        <ele>151.5</ele>
        <time>2018-03-30T09:34:17Z</time>
      </trkpt>
      <trkpt lat="38.3172280" lon="-0.6558690">
        <ele>151.2</ele>
        <time>2018-03-30T09:34:18Z</time>
      </trkpt>
      <trkpt lat="38.3171480" lon="-0.6558130">
        <ele>150.8</ele>
        <time>2018-03-30T09:34:19Z</time>
      </trkpt>
      <trkpt lat="38.3170680" lon="-0.6557580">
        <ele>150.4</ele>
        <time>2018-03-30T09:34:20Z</time>
      </trkpt>
      <trkpt lat="38.3169870" lon="-0.6557060">
        <ele>150.1</ele>
        <time>2018-03-30T09:34:21Z</time>
      </trkpt>
      <trkpt lat="38.3169050" lon="-0.6556560">
        <ele>149.7</ele>
        <time>2018-03-30T09:34:22Z</time>
      </trkpt>
      <trkpt lat="38.3168240" lon="-0.6556100">
        <ele>149.2</ele>
        <time>2018-03-30T09:34:23Z</time>
      </trkpt>
      <trkpt lat="38.3167440" lon="-0.6555580">
        <ele>148.7</ele>
        <time>2018-03-30T09:34:24Z</time>
      </trkpt>
      <trkpt lat="38.3166710" lon="-0.6554940">
        <ele>148.1</ele>
        <time>2018-03-30T09:34:25Z</time>
      </trkpt>
      <trkpt lat="38.3166160" lon="-0.6554110">
        <ele>147.2</ele>
        <time>2018-03-30T09:34:26Z</time>
      </trkpt>
      <trkpt lat="38.3165700" lon="-0.6553150">
        <ele>147.0</ele>
        <time>2018-03-30T09:34:27Z</time>
      </trkpt>
      <trkpt lat="38.3165190" lon="-0.6552240">
        <ele>147.4</ele>
        <time>2018-03-30T09:34:28Z</time>
      </trkpt>
      <trkpt lat="38.3164610" lon="-0.6551370">
        <ele>148.6</ele>
        <time>2018-03-30T09:34:29Z</time>
      </trkpt>
      <trkpt lat="38.3163950" lon="-0.6550510">
        <ele>149.8</ele>
        <time>2018-03-30T09:34:30Z</time>
      </trkpt>
      <trkpt lat="38.3163160" lon="-0.6549730">
        <ele>151.1</ele>
        <time>2018-03-30T09:34:31Z</time>
      </trkpt>
      <trkpt lat="38.3162330" lon="-0.6549240">
        <ele>151.9</ele>
        <time>2018-03-30T09:34:32Z</time>
      </trkpt>
      <trkpt lat="38.3161390" lon="-0.6549110">
        <ele>151.8</ele>
        <time>2018-03-30T09:34:33Z</time>
      </trkpt>
      <trkpt lat="38.3160470" lon="-0.6549370">
        <ele>151.6</ele>
        <time>2018-03-30T09:34:34Z</time>
      </trkpt>
      <trkpt lat="38.3159730" lon="-0.6549770">
        <ele>151.4</ele>
        <time>2018-03-30T09:34:35Z</time>
      </trkpt>
      <trkpt lat="38.3158860" lon="-0.6550540">
        <ele>151.3</ele>
        <time>2018-03-30T09:34:36Z</time>
      </trkpt>
      <trkpt lat="38.3158650" lon="-0.6551570">
        <ele>151.2</ele>
        <time>2018-03-30T09:34:37Z</time>
      </trkpt>
      <trkpt lat="38.3158400" lon="-0.6552630">
        <ele>151.0</ele>
        <time>2018-03-30T09:34:38Z</time>
      </trkpt>
      <trkpt lat="38.3158050" lon="-0.6553610">
        <ele>150.9</ele>
        <time>2018-03-30T09:34:39Z</time>
      </trkpt>
      <trkpt lat="38.3157610" lon="-0.6554520">
        <ele>150.8</ele>
        <time>2018-03-30T09:34:40Z</time>
      </trkpt>
      <trkpt lat="38.3157160" lon="-0.6555370">
        <ele>150.7</ele>
        <time>2018-03-30T09:34:41Z</time>
      </trkpt>
      <trkpt lat="38.3156660" lon="-0.6556140">
        <ele>150.6</ele>
        <time>2018-03-30T09:34:42Z</time>
      </trkpt>
      <trkpt lat="38.3156080" lon="-0.6556840">
        <ele>150.5</ele>
        <time>2018-03-30T09:34:43Z</time>
      </trkpt>
      <trkpt lat="38.3155440" lon="-0.6557460">
        <ele>150.4</ele>
        <time>2018-03-30T09:34:44Z</time>
      </trkpt>
      <trkpt lat="38.3154740" lon="-0.6557960">
        <ele>150.2</ele>
        <time>2018-03-30T09:34:45Z</time>
      </trkpt>
      <trkpt lat="38.3153990" lon="-0.6558300">
        <ele>150.0</ele>
        <time>2018-03-30T09:34:46Z</time>
      </trkpt>
      <trkpt lat="38.3153200" lon="-0.6558560">
        <ele>149.8</ele>
        <time>2018-03-30T09:34:47Z</time>
      </trkpt>
      <trkpt lat="38.3152410" lon="-0.6558750">
        <ele>149.5</ele>
        <time>2018-03-30T09:34:48Z</time>
      </trkpt>
      <trkpt lat="38.3151590" lon="-0.6558910">
        <ele>149.2</ele>
        <time>2018-03-30T09:34:49Z</time>
      </trkpt>
      <trkpt lat="38.3150770" lon="-0.6559030">
        <ele>148.8</ele>
        <time>2018-03-30T09:34:50Z</time>
      </trkpt>
      <trkpt lat="38.3149940" lon="-0.6559110">
        <ele>148.2</ele>
        <time>2018-03-30T09:34:51Z</time>
      </trkpt>
      <trkpt lat="38.3149110" lon="-0.6559120">
        <ele>147.6</ele>
        <time>2018-03-30T09:34:52Z</time>
      </trkpt>
      <trkpt lat="38.3148300" lon="-0.6559050">
        <ele>147.0</ele>
        <time>2018-03-30T09:34:53Z</time>
      </trkpt>
      <trkpt lat="38.3147490" lon="-0.6558900">
        <ele>146.6</ele>
        <time>2018-03-30T09:34:54Z</time>
      </trkpt>
      <trkpt lat="38.3146670" lon="-0.6558650">
        <ele>146.4</ele>
        <time>2018-03-30T09:34:55Z</time>
      </trkpt>
      <trkpt lat="38.3145830" lon="-0.6558290">
        <ele>146.1</ele>
        <time>2018-03-30T09:34:56Z</time>
      </trkpt>
      <trkpt lat="38.3144960" lon="-0.6557880">
        <ele>145.8</ele>
        <time>2018-03-30T09:34:57Z</time>
      </trkpt>
      <trkpt lat="38.3144100" lon="-0.6557370">
        <ele>145.5</ele>
        <time>2018-03-30T09:34:58Z</time>
      </trkpt>
      <trkpt lat="38.3143280" lon="-0.6556760">
        <ele>145.3</ele>
        <time>2018-03-30T09:34:59Z</time>
      </trkpt>
      <trkpt lat="38.3142510" lon="-0.6556020">
        <ele>145.1</ele>
        <time>2018-03-30T09:35:00Z</time>
      </trkpt>
      <trkpt lat="38.3141770" lon="-0.6555180">
        <ele>144.9</ele>
        <time>2018-03-30T09:35:01Z</time>
      </trkpt>
      <trkpt lat="38.3141140" lon="-0.6554250">
        <ele>144.8</ele>
        <time>2018-03-30T09:35:02Z</time>
      </trkpt>
      <trkpt lat="38.3140610" lon="-0.6553240">
        <ele>144.6</ele>
        <time>2018-03-30T09:35:03Z</time>
      </trkpt>
      <trkpt lat="38.3140170" lon="-0.6552200">
        <ele>144.5</ele>
        <time>2018-03-30T09:35:04Z</time>
      </trkpt>
      <trkpt lat="38.3139730" lon="-0.6551190">
        <ele>144.3</ele>
        <time>2018-03-30T09:35:05Z</time>
      </trkpt>
      <trkpt lat="38.3139210" lon="-0.6550210">
        <ele>144.2</ele>
        <time>2018-03-30T09:35:06Z</time>
      </trkpt>
      <trkpt lat="38.3138700" lon="-0.6549260">
        <ele>144.1</ele>
        <time>2018-03-30T09:35:07Z</time>
      </trkpt>
      <trkpt lat="38.3138100" lon="-0.6548390">
        <ele>144.0</ele>
        <time>2018-03-30T09:35:08Z</time>
      </trkpt>
      <trkpt lat="38.3137500" lon="-0.6547630">
        <ele>143.9</ele>
        <time>2018-03-30T09:35:09Z</time>
      </trkpt>
      <trkpt lat="38.3136740" lon="-0.6547070">
        <ele>143.7</ele>
        <time>2018-03-30T09:35:10Z</time>
      </trkpt>
      <trkpt lat="38.3135790" lon="-0.6546730">
        <ele>143.5</ele>
        <time>2018-03-30T09:35:11Z</time>
      </trkpt>
      <trkpt lat="38.3134870" lon="-0.6546370">
        <ele>143.3</ele>
        <time>2018-03-30T09:35:12Z</time>
      </trkpt>
      <trkpt lat="38.3133940" lon="-0.6546120">
        <ele>143.1</ele>
        <time>2018-03-30T09:35:13Z</time>
      </trkpt>
      <trkpt lat="38.3132940" lon="-0.6546080">
        <ele>142.7</ele>
        <time>2018-03-30T09:35:14Z</time>
      </trkpt>
      <trkpt lat="38.3131960" lon="-0.6546060">
        <ele>142.2</ele>
        <time>2018-03-30T09:35:15Z</time>
      </trkpt>
      <trkpt lat="38.3130990" lon="-0.6546010">
        <ele>141.6</ele>
        <time>2018-03-30T09:35:16Z</time>
      </trkpt>
      <trkpt lat="38.3130010" lon="-0.6545780">
        <ele>141.0</ele>
        <time>2018-03-30T09:35:17Z</time>
      </trkpt>
      <trkpt lat="38.3129070" lon="-0.6545450">
        <ele>140.6</ele>
        <time>2018-03-30T09:35:18Z</time>
      </trkpt>
      <trkpt lat="38.3128130" lon="-0.6545080">
        <ele>140.5</ele>
        <time>2018-03-30T09:35:19Z</time>
      </trkpt>
      <trkpt lat="38.3127230" lon="-0.6544740">
        <ele>140.6</ele>
        <time>2018-03-30T09:35:20Z</time>
      </trkpt>
      <trkpt lat="38.3126340" lon="-0.6544380">
        <ele>140.8</ele>
        <time>2018-03-30T09:35:21Z</time>
      </trkpt>
      <trkpt lat="38.3125440" lon="-0.6544040">
        <ele>141.2</ele>
        <time>2018-03-30T09:35:22Z</time>
      </trkpt>
      <trkpt lat="38.3124540" lon="-0.6543770">
        <ele>141.5</ele>
        <time>2018-03-30T09:35:23Z</time>
      </trkpt>
      <trkpt lat="38.3123660" lon="-0.6543500">
        <ele>141.7</ele>
        <time>2018-03-30T09:35:24Z</time>
      </trkpt>
      <trkpt lat="38.3122820" lon="-0.6543160">
        <ele>141.9</ele>
        <time>2018-03-30T09:35:25Z</time>
      </trkpt>
      <trkpt lat="38.3122000" lon="-0.6542810">
        <ele>142.0</ele>
        <time>2018-03-30T09:35:26Z</time>
      </trkpt>
      <trkpt lat="38.3121190" lon="-0.6542420">
        <ele>141.8</ele>
        <time>2018-03-30T09:35:27Z</time>
      </trkpt>
      <trkpt lat="38.3120440" lon="-0.6542030">
        <ele>141.7</ele>
        <time>2018-03-30T09:35:28Z</time>
      </trkpt>
      <trkpt lat="38.3119680" lon="-0.6541650">
        <ele>141.5</ele>
        <time>2018-03-30T09:35:29Z</time>
      </trkpt>
      <trkpt lat="38.3118950" lon="-0.6541310">
        <ele>141.4</ele>
        <time>2018-03-30T09:35:30Z</time>
      </trkpt>
      <trkpt lat="38.3118310" lon="-0.6540930">
        <ele>141.2</ele>
        <time>2018-03-30T09:35:31Z</time>
      </trkpt>
      <trkpt lat="38.3117720" lon="-0.6540500">
        <ele>141.1</ele>
        <time>2018-03-30T09:35:32Z</time>
      </trkpt>
      <trkpt lat="38.3117170" lon="-0.6539970">
        <ele>140.9</ele>
        <time>2018-03-30T09:35:33Z</time>
      </trkpt>
      <trkpt lat="38.3116750" lon="-0.6539310">
        <ele>140.4</ele>
        <time>2018-03-30T09:35:34Z</time>
      </trkpt>
      <trkpt lat="38.3116420" lon="-0.6538610">
        <ele>139.9</ele>
        <time>2018-03-30T09:35:35Z</time>
      </trkpt>
      <trkpt lat="38.3116210" lon="-0.6537910">
        <ele>139.5</ele>
        <time>2018-03-30T09:35:36Z</time>
      </trkpt>
      <trkpt lat="38.3116020" lon="-0.6537220">
        <ele>139.0</ele>
        <time>2018-03-30T09:35:37Z</time>
      </trkpt>
      <trkpt lat="38.3115810" lon="-0.6536560">
        <ele>138.6</ele>
        <time>2018-03-30T09:35:38Z</time>
      </trkpt>
      <trkpt lat="38.3115620" lon="-0.6535930">
        <ele>138.2</ele>
        <time>2018-03-30T09:35:39Z</time>
      </trkpt>
      <trkpt lat="38.3115440" lon="-0.6535330">
        <ele>137.8</ele>
        <time>2018-03-30T09:35:40Z</time>
      </trkpt>
      <trkpt lat="38.3115240" lon="-0.6534760">
        <ele>137.4</ele>
        <time>2018-03-30T09:35:41Z</time>
      </trkpt>
      <trkpt lat="38.3115000" lon="-0.6534190">
        <ele>137.1</ele>
        <time>2018-03-30T09:35:42Z</time>
      </trkpt>
      <trkpt lat="38.3114870" lon="-0.6533600">
        <ele>136.5</ele>
        <time>2018-03-30T09:35:43Z</time>
      </trkpt>
      <trkpt lat="38.3114780" lon="-0.6532970">
        <ele>135.8</ele>
        <time>2018-03-30T09:35:44Z</time>
      </trkpt>
      <trkpt lat="38.3114750" lon="-0.6532310">
        <ele>135.3</ele>
        <time>2018-03-30T09:35:45Z</time>
      </trkpt>
      <trkpt lat="38.3114760" lon="-0.6531540">
        <ele>134.8</ele>
        <time>2018-03-30T09:35:46Z</time>
      </trkpt>
      <trkpt lat="38.3114790" lon="-0.6530680">
        <ele>134.1</ele>
        <time>2018-03-30T09:35:47Z</time>
      </trkpt>
      <trkpt lat="38.3114720" lon="-0.6529790">
        <ele>134.0</ele>
        <time>2018-03-30T09:35:48Z</time>
      </trkpt>
      <trkpt lat="38.3114470" lon="-0.6528980">
        <ele>134.0</ele>
        <time>2018-03-30T09:35:49Z</time>
      </trkpt>
      <trkpt lat="38.3114180" lon="-0.6528340">
        <ele>134.0</ele>
        <time>2018-03-30T09:35:50Z</time>
      </trkpt>
      <trkpt lat="38.3113720" lon="-0.6527800">
        <ele>134.0</ele>
        <time>2018-03-30T09:35:51Z</time>
      </trkpt>
      <trkpt lat="38.3113170" lon="-0.6527310">
        <ele>134.1</ele>
        <time>2018-03-30T09:35:52Z</time>
      </trkpt>
      <trkpt lat="38.3112650" lon="-0.6526850">
        <ele>134.4</ele>
        <time>2018-03-30T09:35:53Z</time>
      </trkpt>
      <trkpt lat="38.3112150" lon="-0.6526370">
        <ele>134.9</ele>
        <time>2018-03-30T09:35:54Z</time>
      </trkpt>
      <trkpt lat="38.3111670" lon="-0.6525840">
        <ele>135.2</ele>
        <time>2018-03-30T09:35:55Z</time>
      </trkpt>
      <trkpt lat="38.3111210" lon="-0.6525310">
        <ele>135.4</ele>
        <time>2018-03-30T09:35:56Z</time>
      </trkpt>
      <trkpt lat="38.3110780" lon="-0.6524760">
        <ele>135.7</ele>
        <time>2018-03-30T09:35:57Z</time>
      </trkpt>
      <trkpt lat="38.3110350" lon="-0.6524210">
        <ele>135.8</ele>
        <time>2018-03-30T09:35:58Z</time>
      </trkpt>
      <trkpt lat="38.3109910" lon="-0.6523660">
        <ele>136.0</ele>
        <time>2018-03-30T09:35:59Z</time>
      </trkpt>
      <trkpt lat="38.3109460" lon="-0.6523110">
        <ele>136.2</ele>
        <time>2018-03-30T09:36:00Z</time>
      </trkpt>
      <trkpt lat="38.3108990" lon="-0.6522540">
        <ele>136.4</ele>
        <time>2018-03-30T09:36:01Z</time>
      </trkpt>
      <trkpt lat="38.3108510" lon="-0.6521990">
        <ele>136.5</ele>
        <time>2018-03-30T09:36:02Z</time>
      </trkpt>
      <trkpt lat="38.3108010" lon="-0.6521440">
        <ele>136.7</ele>
        <time>2018-03-30T09:36:03Z</time>
      </trkpt>
      <trkpt lat="38.3107530" lon="-0.6520890">
        <ele>137.0</ele>
        <time>2018-03-30T09:36:04Z</time>
      </trkpt>
      <trkpt lat="38.3107060" lon="-0.6520340">
        <ele>137.2</ele>
        <time>2018-03-30T09:36:05Z</time>
      </trkpt>
      <trkpt lat="38.3106630" lon="-0.6519810">
        <ele>137.5</ele>
        <time>2018-03-30T09:36:06Z</time>
      </trkpt>
      <trkpt lat="38.3106190" lon="-0.6519290">
        <ele>137.8</ele>
        <time>2018-03-30T09:36:07Z</time>
      </trkpt>
      <trkpt lat="38.3105760" lon="-0.6518780">
        <ele>138.0</ele>
        <time>2018-03-30T09:36:08Z</time>
      </trkpt>
      <trkpt lat="38.3105330" lon="-0.6518240">
        <ele>138.2</ele>
        <time>2018-03-30T09:36:09Z</time>
      </trkpt>
      <trkpt lat="38.3104920" lon="-0.6517670">
        <ele>138.4</ele>
        <time>2018-03-30T09:36:10Z</time>
      </trkpt>
      <trkpt lat="38.3104480" lon="-0.6517130">
        <ele>138.5</ele>
        <time>2018-03-30T09:36:11Z</time>
      </trkpt>
      <trkpt lat="38.3104030" lon="-0.6516580">
        <ele>138.6</ele>
        <time>2018-03-30T09:36:12Z</time>
      </trkpt>
      <trkpt lat="38.3103590" lon="-0.6516000">
        <ele>138.7</ele>
        <time>2018-03-30T09:36:13Z</time>
      </trkpt>
      <trkpt lat="38.3103140" lon="-0.6515410">
        <ele>138.8</ele>
        <time>2018-03-30T09:36:14Z</time>
      </trkpt>
      <trkpt lat="38.3102640" lon="-0.6514790">
        <ele>138.8</ele>
        <time>2018-03-30T09:36:15Z</time>
      </trkpt>
      <trkpt lat="38.3102160" lon="-0.6514140">
        <ele>138.8</ele>
        <time>2018-03-30T09:36:16Z</time>
      </trkpt>
      <trkpt lat="38.3101640" lon="-0.6513470">
        <ele>138.8</ele>
        <time>2018-03-30T09:36:17Z</time>
      </trkpt>
      <trkpt lat="38.3101120" lon="-0.6512790">
        <ele>138.8</ele>
        <time>2018-03-30T09:36:18Z</time>
      </trkpt>
      <trkpt lat="38.3100570" lon="-0.6512120">
        <ele>138.8</ele>
        <time>2018-03-30T09:36:19Z</time>
      </trkpt>
      <trkpt lat="38.3100020" lon="-0.6511440">
        <ele>138.8</ele>
        <time>2018-03-30T09:36:20Z</time>
      </trkpt>
      <trkpt lat="38.3099480" lon="-0.6510780">
        <ele>138.8</ele>
        <time>2018-03-30T09:36:21Z</time>
      </trkpt>
      <trkpt lat="38.3098930" lon="-0.6510120">
        <ele>138.8</ele>
        <time>2018-03-30T09:36:22Z</time>
      </trkpt>
      <trkpt lat="38.3098380" lon="-0.6509440">
        <ele>138.8</ele>
        <time>2018-03-30T09:36:23Z</time>
      </trkpt>
      <trkpt lat="38.3097840" lon="-0.6508710">
        <ele>138.8</ele>
        <time>2018-03-30T09:36:24Z</time>
      </trkpt>
      <trkpt lat="38.3097320" lon="-0.6507950">
        <ele>138.8</ele>
        <time>2018-03-30T09:36:25Z</time>
      </trkpt>
      <trkpt lat="38.3096830" lon="-0.6507140">
        <ele>138.8</ele>
        <time>2018-03-30T09:36:26Z</time>
      </trkpt>
      <trkpt lat="38.3096380" lon="-0.6506320">
        <ele>138.8</ele>
        <time>2018-03-30T09:36:27Z</time>
      </trkpt>
      <trkpt lat="38.3095940" lon="-0.6505460">
        <ele>138.9</ele>
        <time>2018-03-30T09:36:28Z</time>
      </trkpt>
      <trkpt lat="38.3095520" lon="-0.6504610">
        <ele>138.9</ele>
        <time>2018-03-30T09:36:29Z</time>
      </trkpt>
      <trkpt lat="38.3095070" lon="-0.6503760">
        <ele>139.0</ele>
        <time>2018-03-30T09:36:30Z</time>
      </trkpt>
      <trkpt lat="38.3094620" lon="-0.6502920">
        <ele>139.1</ele>
        <time>2018-03-30T09:36:31Z</time>
      </trkpt>
      <trkpt lat="38.3094170" lon="-0.6502080">
        <ele>139.2</ele>
        <time>2018-03-30T09:36:32Z</time>
      </trkpt>
      <trkpt lat="38.3093730" lon="-0.6501240">
        <ele>139.3</ele>
        <time>2018-03-30T09:36:33Z</time>
      </trkpt>
      <trkpt lat="38.3093290" lon="-0.6500410">
        <ele>139.4</ele>
        <time>2018-03-30T09:36:34Z</time>
      </trkpt>
      <trkpt lat="38.3092830" lon="-0.6499600">
        <ele>139.6</ele>
        <time>2018-03-30T09:36:35Z</time>
      </trkpt>
      <trkpt lat="38.3092390" lon="-0.6498810">
        <ele>139.7</ele>
        <time>2018-03-30T09:36:36Z</time>
      </trkpt>
      <trkpt lat="38.3091980" lon="-0.6497990">
        <ele>139.9</ele>
        <time>2018-03-30T09:36:37Z</time>
      </trkpt>
      <trkpt lat="38.3091590" lon="-0.6497170">
        <ele>140.0</ele>
        <time>2018-03-30T09:36:38Z</time>
      </trkpt>
      <trkpt lat="38.3091210" lon="-0.6496370">
        <ele>140.2</ele>
        <time>2018-03-30T09:36:39Z</time>
      </trkpt>
      <trkpt lat="38.3090810" lon="-0.6495570">
        <ele>140.3</ele>
        <time>2018-03-30T09:36:40Z</time>
      </trkpt>
      <trkpt lat="38.3090260" lon="-0.6494820">
        <ele>140.5</ele>
        <time>2018-03-30T09:36:41Z</time>
      </trkpt>
      <trkpt lat="38.3089710" lon="-0.6494210">
        <ele>140.7</ele>
        <time>2018-03-30T09:36:42Z</time>
      </trkpt>
      <trkpt lat="38.3089100" lon="-0.6493750">
        <ele>140.8</ele>
        <time>2018-03-30T09:36:43Z</time>
      </trkpt>
      <trkpt lat="38.3088470" lon="-0.6493440">
        <ele>141.0</ele>
        <time>2018-03-30T09:36:44Z</time>
      </trkpt>
      <trkpt lat="38.3087830" lon="-0.6493220">
        <ele>141.1</ele>
        <time>2018-03-30T09:36:45Z</time>
      </trkpt>
      <trkpt lat="38.3087210" lon="-0.6493030">
        <ele>141.3</ele>
        <time>2018-03-30T09:36:46Z</time>
      </trkpt>
      <trkpt lat="38.3086580" lon="-0.6492830">
        <ele>141.4</ele>
        <time>2018-03-30T09:36:47Z</time>
      </trkpt>
      <trkpt lat="38.3085890" lon="-0.6492620">
        <ele>141.4</ele>
        <time>2018-03-30T09:36:48Z</time>
      </trkpt>
      <trkpt lat="38.3085140" lon="-0.6492460">
        <ele>141.3</ele>
        <time>2018-03-30T09:36:49Z</time>
      </trkpt>
      <trkpt lat="38.3084320" lon="-0.6492340">
        <ele>141.3</ele>
        <time>2018-03-30T09:36:50Z</time>
      </trkpt>
      <trkpt lat="38.3083460" lon="-0.6492220">
        <ele>141.1</ele>
        <time>2018-03-30T09:36:51Z</time>
      </trkpt>
      <trkpt lat="38.3082550" lon="-0.6492110">
        <ele>140.9</ele>
        <time>2018-03-30T09:36:52Z</time>
      </trkpt>
      <trkpt lat="38.3081610" lon="-0.6492030">
        <ele>140.7</ele>
        <time>2018-03-30T09:36:53Z</time>
      </trkpt>
      <trkpt lat="38.3080670" lon="-0.6492020">
        <ele>140.4</ele>
        <time>2018-03-30T09:36:54Z</time>
      </trkpt>
      <trkpt lat="38.3079720" lon="-0.6491990">
        <ele>140.1</ele>
        <time>2018-03-30T09:36:55Z</time>
      </trkpt>
      <trkpt lat="38.3078790" lon="-0.6491920">
        <ele>139.9</ele>
        <time>2018-03-30T09:36:56Z</time>
      </trkpt>
      <trkpt lat="38.3077860" lon="-0.6491850">
        <ele>139.7</ele>
        <time>2018-03-30T09:36:57Z</time>
      </trkpt>
      <trkpt lat="38.3076950" lon="-0.6491800">
        <ele>139.6</ele>
        <time>2018-03-30T09:36:58Z</time>
      </trkpt>
      <trkpt lat="38.3076070" lon="-0.6491740">
        <ele>139.5</ele>
        <time>2018-03-30T09:36:59Z</time>
      </trkpt>
      <trkpt lat="38.3075200" lon="-0.6491670">
        <ele>139.4</ele>
        <time>2018-03-30T09:37:00Z</time>
      </trkpt>
      <trkpt lat="38.3074340" lon="-0.6491610">
        <ele>139.3</ele>
        <time>2018-03-30T09:37:01Z</time>
      </trkpt>
      <trkpt lat="38.3073500" lon="-0.6491560">
        <ele>139.3</ele>
        <time>2018-03-30T09:37:02Z</time>
      </trkpt>
      <trkpt lat="38.3072770" lon="-0.6491620">
        <ele>139.4</ele>
        <time>2018-03-30T09:37:03Z</time>
      </trkpt>
      <trkpt lat="38.3071980" lon="-0.6491750">
        <ele>139.5</ele>
        <time>2018-03-30T09:37:04Z</time>
      </trkpt>
      <trkpt lat="38.3071230" lon="-0.6491820">
        <ele>139.6</ele>
        <time>2018-03-30T09:37:05Z</time>
      </trkpt>
      <trkpt lat="38.3070490" lon="-0.6491730">
        <ele>139.8</ele>
        <time>2018-03-30T09:37:06Z</time>
      </trkpt>
      <trkpt lat="38.3069800" lon="-0.6491440">
        <ele>140.1</ele>
        <time>2018-03-30T09:37:07Z</time>
      </trkpt>
      <trkpt lat="38.3069200" lon="-0.6490970">
        <ele>140.4</ele>
        <time>2018-03-30T09:37:08Z</time>
      </trkpt>
      <trkpt lat="38.3068670" lon="-0.6490390">
        <ele>140.7</ele>
        <time>2018-03-30T09:37:09Z</time>
      </trkpt>
      <trkpt lat="38.3068120" lon="-0.6489820">
        <ele>141.0</ele>
        <time>2018-03-30T09:37:10Z</time>
      </trkpt>
      <trkpt lat="38.3067520" lon="-0.6489370">
        <ele>140.6</ele>
        <time>2018-03-30T09:37:11Z</time>
      </trkpt>
      <trkpt lat="38.3066820" lon="-0.6489070">
        <ele>140.1</ele>
        <time>2018-03-30T09:37:12Z</time>
      </trkpt>
      <trkpt lat="38.3066070" lon="-0.6488930">
        <ele>139.2</ele>
        <time>2018-03-30T09:37:13Z</time>
      </trkpt>
      <trkpt lat="38.3065230" lon="-0.6489050">
        <ele>138.2</ele>
        <time>2018-03-30T09:37:14Z</time>
      </trkpt>
      <trkpt lat="38.3064300" lon="-0.6489260">
        <ele>137.7</ele>
        <time>2018-03-30T09:37:15Z</time>
      </trkpt>
      <trkpt lat="38.3063360" lon="-0.6489540">
        <ele>137.2</ele>
        <time>2018-03-30T09:37:16Z</time>
      </trkpt>
      <trkpt lat="38.3062410" lon="-0.6489840">
        <ele>136.2</ele>
        <time>2018-03-30T09:37:17Z</time>
      </trkpt>
      <trkpt lat="38.3061440" lon="-0.6490190">
        <ele>135.1</ele>
        <time>2018-03-30T09:37:18Z</time>
      </trkpt>
      <trkpt lat="38.3060450" lon="-0.6490530">
        <ele>134.5</ele>
        <time>2018-03-30T09:37:19Z</time>
      </trkpt>
      <trkpt lat="38.3059430" lon="-0.6490830">
        <ele>134.0</ele>
        <time>2018-03-30T09:37:20Z</time>
      </trkpt>
      <trkpt lat="38.3058380" lon="-0.6491110">
        <ele>133.3</ele>
        <time>2018-03-30T09:37:21Z</time>
      </trkpt>
      <trkpt lat="38.3057330" lon="-0.6491360">
        <ele>132.3</ele>
        <time>2018-03-30T09:37:22Z</time>
      </trkpt>
      <trkpt lat="38.3056270" lon="-0.6491580">
        <ele>131.7</ele>
        <time>2018-03-30T09:37:23Z</time>
      </trkpt>
      <trkpt lat="38.3055210" lon="-0.6491760">
        <ele>131.4</ele>
        <time>2018-03-30T09:37:24Z</time>
      </trkpt>
      <trkpt lat="38.3054140" lon="-0.6491950">
        <ele>131.1</ele>
        <time>2018-03-30T09:37:25Z</time>
      </trkpt>
      <trkpt lat="38.3053090" lon="-0.6492150">
        <ele>130.9</ele>
        <time>2018-03-30T09:37:26Z</time>
      </trkpt>
      <trkpt lat="38.3052050" lon="-0.6492340">
        <ele>130.8</ele>
        <time>2018-03-30T09:37:27Z</time>
      </trkpt>
      <trkpt lat="38.3051020" lon="-0.6492510">
        <ele>130.7</ele>
        <time>2018-03-30T09:37:28Z</time>
      </trkpt>
      <trkpt lat="38.3049990" lon="-0.6492600">
        <ele>130.5</ele>
        <time>2018-03-30T09:37:29Z</time>
      </trkpt>
      <trkpt lat="38.3048970" lon="-0.6492680">
        <ele>130.4</ele>
        <time>2018-03-30T09:37:30Z</time>
      </trkpt>
      <trkpt lat="38.3047980" lon="-0.6492750">
        <ele>130.3</ele>
        <time>2018-03-30T09:37:31Z</time>
      </trkpt>
      <trkpt lat="38.3047000" lon="-0.6492820">
        <ele>130.1</ele>
        <time>2018-03-30T09:37:32Z</time>
      </trkpt>
      <trkpt lat="38.3046030" lon="-0.6492890">
        <ele>129.7</ele>
        <time>2018-03-30T09:37:33Z</time>
      </trkpt>
      <trkpt lat="38.3045050" lon="-0.6492970">
        <ele>129.3</ele>
        <time>2018-03-30T09:37:34Z</time>
      </trkpt>
      <trkpt lat="38.3044110" lon="-0.6493250">
        <ele>128.7</ele>
        <time>2018-03-30T09:37:35Z</time>
      </trkpt>
      <trkpt lat="38.3043280" lon="-0.6493640">
        <ele>128.0</ele>
        <time>2018-03-30T09:37:36Z</time>
      </trkpt>
      <trkpt lat="38.3042530" lon="-0.6494350">
        <ele>127.5</ele>
        <time>2018-03-30T09:37:37Z</time>
      </trkpt>
      <trkpt lat="38.3041880" lon="-0.6495120">
        <ele>127.0</ele>
        <time>2018-03-30T09:37:38Z</time>
      </trkpt>
      <trkpt lat="38.3041250" lon="-0.6495940">
        <ele>126.7</ele>
        <time>2018-03-30T09:37:39Z</time>
      </trkpt>
      <trkpt lat="38.3040610" lon="-0.6496730">
        <ele>126.5</ele>
        <time>2018-03-30T09:37:40Z</time>
      </trkpt>
      <trkpt lat="38.3039950" lon="-0.6497480">
        <ele>126.3</ele>
        <time>2018-03-30T09:37:41Z</time>
      </trkpt>
      <trkpt lat="38.3039210" lon="-0.6498070">
        <ele>126.2</ele>
        <time>2018-03-30T09:37:42Z</time>
      </trkpt>
      <trkpt lat="38.3038410" lon="-0.6498480">
        <ele>126.0</ele>
        <time>2018-03-30T09:37:43Z</time>
      </trkpt>
      <trkpt lat="38.3037600" lon="-0.6498670">
        <ele>125.9</ele>
        <time>2018-03-30T09:37:44Z</time>
      </trkpt>
      <trkpt lat="38.3036800" lon="-0.6498800">
        <ele>125.8</ele>
        <time>2018-03-30T09:37:45Z</time>
      </trkpt>
      <trkpt lat="38.3035990" lon="-0.6498950">
        <ele>125.8</ele>
        <time>2018-03-30T09:37:46Z</time>
      </trkpt>
      <trkpt lat="38.3035180" lon="-0.6499100">
        <ele>125.7</ele>
        <time>2018-03-30T09:37:47Z</time>
      </trkpt>
      <trkpt lat="38.3034390" lon="-0.6499280">
        <ele>125.6</ele>
        <time>2018-03-30T09:37:48Z</time>
      </trkpt>
      <trkpt lat="38.3033610" lon="-0.6499500">
        <ele>125.5</ele>
        <time>2018-03-30T09:37:49Z</time>
      </trkpt>
      <trkpt lat="38.3032840" lon="-0.6499760">
        <ele>125.4</ele>
        <time>2018-03-30T09:37:50Z</time>
      </trkpt>
      <trkpt lat="38.3032090" lon="-0.6500060">
        <ele>125.3</ele>
        <time>2018-03-30T09:37:51Z</time>
      </trkpt>
      <trkpt lat="38.3031330" lon="-0.6500400">
        <ele>125.2</ele>
        <time>2018-03-30T09:37:52Z</time>
      </trkpt>
      <trkpt lat="38.3030600" lon="-0.6500800">
        <ele>125.1</ele>
        <time>2018-03-30T09:37:53Z</time>
      </trkpt>
      <trkpt lat="38.3029890" lon="-0.6501290">
        <ele>125.0</ele>
        <time>2018-03-30T09:37:54Z</time>
      </trkpt>
      <trkpt lat="38.3029200" lon="-0.6501800">
        <ele>125.1</ele>
        <time>2018-03-30T09:37:55Z</time>
      </trkpt>
      <trkpt lat="38.3028530" lon="-0.6502320">
        <ele>125.3</ele>
        <time>2018-03-30T09:37:56Z</time>
      </trkpt>
      <trkpt lat="38.3027850" lon="-0.6502830">
        <ele>125.4</ele>
        <time>2018-03-30T09:37:57Z</time>
      </trkpt>
      <trkpt lat="38.3027190" lon="-0.6503370">
        <ele>125.6</ele>
        <time>2018-03-30T09:37:58Z</time>
      </trkpt>
      <trkpt lat="38.3026560" lon="-0.6503910">
        <ele>125.8</ele>
        <time>2018-03-30T09:37:59Z</time>
      </trkpt>
      <trkpt lat="38.3025930" lon="-0.6504450">
        <ele>126.0</ele>
        <time>2018-03-30T09:38:00Z</time>
      </trkpt>
      <trkpt lat="38.3025310" lon="-0.6504980">
        <ele>126.1</ele>
        <time>2018-03-30T09:38:01Z</time>
      </trkpt>
      <trkpt lat="38.3024720" lon="-0.6505530">
        <ele>126.3</ele>
        <time>2018-03-30T09:38:02Z</time>
      </trkpt>
      <trkpt lat="38.3024120" lon="-0.6506070">
        <ele>126.4</ele>
        <time>2018-03-30T09:38:03Z</time>
      </trkpt>
      <trkpt lat="38.3023560" lon="-0.6506590">
        <ele>126.6</ele>
        <time>2018-03-30T09:38:04Z</time>
      </trkpt>
      <trkpt lat="38.3023000" lon="-0.6507110">
        <ele>126.8</ele>
        <time>2018-03-30T09:38:05Z</time>
      </trkpt>
      <trkpt lat="38.3022430" lon="-0.6507610">
        <ele>127.0</ele>
        <time>2018-03-30T09:38:06Z</time>
      </trkpt>
      <trkpt lat="38.3021870" lon="-0.6508090">
        <ele>126.8</ele>
        <time>2018-03-30T09:38:07Z</time>
      </trkpt>
      <trkpt lat="38.3021260" lon="-0.6508540">
        <ele>126.6</ele>
        <time>2018-03-30T09:38:08Z</time>
      </trkpt>
      <trkpt lat="38.3020640" lon="-0.6508960">
        <ele>126.5</ele>
        <time>2018-03-30T09:38:09Z</time>
      </trkpt>
      <trkpt lat="38.3020010" lon="-0.6509330">
        <ele>126.3</ele>
        <time>2018-03-30T09:38:10Z</time>
      </trkpt>
      <trkpt lat="38.3019370" lon="-0.6509700">
        <ele>126.2</ele>
        <time>2018-03-30T09:38:11Z</time>
      </trkpt>
      <trkpt lat="38.3018740" lon="-0.6510100">
        <ele>126.0</ele>
        <time>2018-03-30T09:38:12Z</time>
      </trkpt>
      <trkpt lat="38.3018120" lon="-0.6510530">
        <ele>125.8</ele>
        <time>2018-03-30T09:38:13Z</time>
      </trkpt>
      <trkpt lat="38.3017510" lon="-0.6511000">
        <ele>125.7</ele>
        <time>2018-03-30T09:38:14Z</time>
      </trkpt>
      <trkpt lat="38.3016940" lon="-0.6511490">
        <ele>125.5</ele>
        <time>2018-03-30T09:38:15Z</time>
      </trkpt>
      <trkpt lat="38.3016380" lon="-0.6511980">
        <ele>125.0</ele>
        <time>2018-03-30T09:38:16Z</time>
      </trkpt>
      <trkpt lat="38.3015830" lon="-0.6512570">
        <ele>125.0</ele>
        <time>2018-03-30T09:38:17Z</time>
      </trkpt>
      <trkpt lat="38.3015270" lon="-0.6513170">
        <ele>124.9</ele>
        <time>2018-03-30T09:38:18Z</time>
      </trkpt>
      <trkpt lat="38.3014760" lon="-0.6513840">
        <ele>124.8</ele>
        <time>2018-03-30T09:38:19Z</time>
      </trkpt>
      <trkpt lat="38.3014260" lon="-0.6514510">
        <ele>124.8</ele>
        <time>2018-03-30T09:38:20Z</time>
      </trkpt>
      <trkpt lat="38.3013770" lon="-0.6515180">
        <ele>124.7</ele>
        <time>2018-03-30T09:38:21Z</time>
      </trkpt>
      <trkpt lat="38.3013270" lon="-0.6515830">
        <ele>124.7</ele>
        <time>2018-03-30T09:38:22Z</time>
      </trkpt>
      <trkpt lat="38.3012780" lon="-0.6516480">
        <ele>124.6</ele>
        <time>2018-03-30T09:38:23Z</time>
      </trkpt>
      <trkpt lat="38.3012300" lon="-0.6517120">
        <ele>124.5</ele>
        <time>2018-03-30T09:38:24Z</time>
      </trkpt>
      <trkpt lat="38.3011830" lon="-0.6517770">
        <ele>124.5</ele>
        <time>2018-03-30T09:38:25Z</time>
      </trkpt>
      <trkpt lat="38.3011350" lon="-0.6518430">
        <ele>124.4</ele>
        <time>2018-03-30T09:38:26Z</time>
      </trkpt>
      <trkpt lat="38.3010880" lon="-0.6519080">
        <ele>124.3</ele>
        <time>2018-03-30T09:38:27Z</time>
      </trkpt>
      <trkpt lat="38.3010380" lon="-0.6519680">
        <ele>124.1</ele>
        <time>2018-03-30T09:38:28Z</time>
      </trkpt>
      <trkpt lat="38.3009850" lon="-0.6520280">
        <ele>124.0</ele>
        <time>2018-03-30T09:38:29Z</time>
      </trkpt>
      <trkpt lat="38.3009300" lon="-0.6520860">
        <ele>123.5</ele>
        <time>2018-03-30T09:38:30Z</time>
      </trkpt>
      <trkpt lat="38.3008780" lon="-0.6521440">
        <ele>122.9</ele>
        <time>2018-03-30T09:38:31Z</time>
      </trkpt>
      <trkpt lat="38.3008280" lon="-0.6522100">
        <ele>122.2</ele>
        <time>2018-03-30T09:38:32Z</time>
      </trkpt>
      <trkpt lat="38.3007780" lon="-0.6522690">
        <ele>121.6</ele>
        <time>2018-03-30T09:38:33Z</time>
      </trkpt>
      <trkpt lat="38.3007250" lon="-0.6523240">
        <ele>121.2</ele>
        <time>2018-03-30T09:38:34Z</time>
      </trkpt>
      <trkpt lat="38.3006720" lon="-0.6523790">
        <ele>120.7</ele>
        <time>2018-03-30T09:38:35Z</time>
      </trkpt>
      <trkpt lat="38.3006170" lon="-0.6524280">
        <ele>120.2</ele>
        <time>2018-03-30T09:38:36Z</time>
      </trkpt>
      <trkpt lat="38.3005570" lon="-0.6524720">
        <ele>119.7</ele>
        <time>2018-03-30T09:38:37Z</time>
      </trkpt>
      <trkpt lat="38.3004970" lon="-0.6525020">
        <ele>119.2</ele>
        <time>2018-03-30T09:38:38Z</time>
      </trkpt>
      <trkpt lat="38.3004350" lon="-0.6525260">
        <ele>118.3</ele>
        <time>2018-03-30T09:38:39Z</time>
      </trkpt>
      <trkpt lat="38.3003700" lon="-0.6525540">
        <ele>117.9</ele>
        <time>2018-03-30T09:38:40Z</time>
      </trkpt>
      <trkpt lat="38.3003060" lon="-0.6525780">
        <ele>117.6</ele>
        <time>2018-03-30T09:38:41Z</time>
      </trkpt>
      <trkpt lat="38.3002440" lon="-0.6525970">
        <ele>117.2</ele>
        <time>2018-03-30T09:38:42Z</time>
      </trkpt>
      <trkpt lat="38.3001830" lon="-0.6526170">
        <ele>116.8</ele>
        <time>2018-03-30T09:38:43Z</time>
      </trkpt>
      <trkpt lat="38.3001250" lon="-0.6526340">
        <ele>116.5</ele>
        <time>2018-03-30T09:38:44Z</time>
      </trkpt>
      <trkpt lat="38.3000720" lon="-0.6526600">
        <ele>116.2</ele>
        <time>2018-03-30T09:38:45Z</time>
      </trkpt>
      <trkpt lat="38.3000240" lon="-0.6526990">
        <ele>115.7</ele>
        <time>2018-03-30T09:38:46Z</time>
      </trkpt>
      <trkpt lat="38.2999950" lon="-0.6527560">
        <ele>115.1</ele>
        <time>2018-03-30T09:38:47Z</time>
      </trkpt>
      <trkpt lat="38.2999720" lon="-0.6528300">
        <ele>115.1</ele>
        <time>2018-03-30T09:38:48Z</time>
      </trkpt>
      <trkpt lat="38.2999530" lon="-0.6529190">
        <ele>115.2</ele>
        <time>2018-03-30T09:38:49Z</time>
      </trkpt>
      <trkpt lat="38.2999370" lon="-0.6530140">
        <ele>115.2</ele>
        <time>2018-03-30T09:38:50Z</time>
      </trkpt>
      <trkpt lat="38.2999250" lon="-0.6531130">
        <ele>115.2</ele>
        <time>2018-03-30T09:38:51Z</time>
      </trkpt>
      <trkpt lat="38.2999090" lon="-0.6532050">
        <ele>115.1</ele>
        <time>2018-03-30T09:38:52Z</time>
      </trkpt>
      <trkpt lat="38.2998830" lon="-0.6532850">
        <ele>115.0</ele>
        <time>2018-03-30T09:38:53Z</time>
      </trkpt>
      <trkpt lat="38.2998550" lon="-0.6533350">
        <ele>114.8</ele>
        <time>2018-03-30T09:38:54Z</time>
      </trkpt>
      <trkpt lat="38.2998280" lon="-0.6533870">
        <ele>114.6</ele>
        <time>2018-03-30T09:38:55Z</time>
      </trkpt>
      <trkpt lat="38.2998010" lon="-0.6534250">
        <ele>114.5</ele>
        <time>2018-03-30T09:38:56Z</time>
      </trkpt>
      <trkpt lat="38.2997710" lon="-0.6534690">
        <ele>114.5</ele>
        <time>2018-03-30T09:38:57Z</time>
      </trkpt>
      <trkpt lat="38.2997440" lon="-0.6534860">
        <ele>114.5</ele>
        <time>2018-03-30T09:38:58Z</time>
      </trkpt>
      <trkpt lat="38.2997010" lon="-0.6535010">
        <ele>114.5</ele>
        <time>2018-03-30T09:38:59Z</time>
      </trkpt>
      <trkpt lat="38.2996350" lon="-0.6534320">
        <ele>114.7</ele>
        <time>2018-03-30T09:39:00Z</time>
      </trkpt>
      <trkpt lat="38.2996110" lon="-0.6533340">
        <ele>114.9</ele>
        <time>2018-03-30T09:39:01Z</time>
      </trkpt>
      <trkpt lat="38.2995850" lon="-0.6532930">
        <ele>115.1</ele>
        <time>2018-03-30T09:39:02Z</time>
      </trkpt>
      <trkpt lat="38.2995910" lon="-0.6532570">
        <ele>115.2</ele>
        <time>2018-03-30T09:39:03Z</time>
      </trkpt>
      <trkpt lat="38.2995880" lon="-0.6532160">
        <ele>115.2</ele>
        <time>2018-03-30T09:39:04Z</time>
      </trkpt>
      <trkpt lat="38.2995910" lon="-0.6531790">
        <ele>115.3</ele>
        <time>2018-03-30T09:39:05Z</time>
      </trkpt>
      <trkpt lat="38.2995900" lon="-0.6531370">
        <ele>115.4</ele>
        <time>2018-03-30T09:39:06Z</time>
      </trkpt>
      <trkpt lat="38.2995910" lon="-0.6530930">
        <ele>115.5</ele>
        <time>2018-03-30T09:39:07Z</time>
      </trkpt>
      <trkpt lat="38.2995930" lon="-0.6530480">
        <ele>115.5</ele>
        <time>2018-03-30T09:39:08Z</time>
      </trkpt>
      <trkpt lat="38.2995950" lon="-0.6530030">
        <ele>115.5</ele>
        <time>2018-03-30T09:39:09Z</time>
      </trkpt>
      <trkpt lat="38.2995970" lon="-0.6529600">
        <ele>115.5</ele>
        <time>2018-03-30T09:39:10Z</time>
      </trkpt>
      <trkpt lat="38.2995940" lon="-0.6529160">
        <ele>115.5</ele>
        <time>2018-03-30T09:39:11Z</time>
      </trkpt>
      <trkpt lat="38.2995870" lon="-0.6528770">
        <ele>115.4</ele>
        <time>2018-03-30T09:39:12Z</time>
      </trkpt>
      <trkpt lat="38.2995770" lon="-0.6528410">
        <ele>115.3</ele>
        <time>2018-03-30T09:39:13Z</time>
      </trkpt>
      <trkpt lat="38.2995610" lon="-0.6528140">
        <ele>115.2</ele>
        <time>2018-03-30T09:39:14Z</time>
      </trkpt>
      <trkpt lat="38.2995380" lon="-0.6527890">
        <ele>115.0</ele>
        <time>2018-03-30T09:39:15Z</time>
      </trkpt>
      <trkpt lat="38.2995080" lon="-0.6527750">
        <ele>115.0</ele>
        <time>2018-03-30T09:39:16Z</time>
      </trkpt>
      <trkpt lat="38.2994750" lon="-0.6527680">
        <ele>115.0</ele>
        <time>2018-03-30T09:39:17Z</time>
      </trkpt>
      <trkpt lat="38.2994410" lon="-0.6527630">
        <ele>115.0</ele>
        <time>2018-03-30T09:39:18Z</time>
      </trkpt>
      <trkpt lat="38.2994020" lon="-0.6527560">
        <ele>115.0</ele>
        <time>2018-03-30T09:39:19Z</time>
      </trkpt>
      <trkpt lat="38.2993600" lon="-0.6527490">
        <ele>115.0</ele>
        <time>2018-03-30T09:39:20Z</time>
      </trkpt>
      <trkpt lat="38.2993170" lon="-0.6527420">
        <ele>114.9</ele>
        <time>2018-03-30T09:39:21Z</time>
      </trkpt>
      <trkpt lat="38.2992710" lon="-0.6527350">
        <ele>114.9</ele>
        <time>2018-03-30T09:39:22Z</time>
      </trkpt>
      <trkpt lat="38.2992130" lon="-0.6527240">
        <ele>114.9</ele>
        <time>2018-03-30T09:39:23Z</time>
      </trkpt>
      <trkpt lat="38.2991620" lon="-0.6527180">
        <ele>114.9</ele>
        <time>2018-03-30T09:39:24Z</time>
      </trkpt>
      <trkpt lat="38.2991070" lon="-0.6527120">
        <ele>114.9</ele>
        <time>2018-03-30T09:39:25Z</time>
      </trkpt>
      <trkpt lat="38.2990520" lon="-0.6527070">
        <ele>114.9</ele>
        <time>2018-03-30T09:39:26Z</time>
      </trkpt>
      <trkpt lat="38.2989990" lon="-0.6527080">
        <ele>114.9</ele>
        <time>2018-03-30T09:39:27Z</time>
      </trkpt>
      <trkpt lat="38.2989400" lon="-0.6527100">
        <ele>114.9</ele>
        <time>2018-03-30T09:39:28Z</time>
      </trkpt>
      <trkpt lat="38.2988820" lon="-0.6527200">
        <ele>114.9</ele>
        <time>2018-03-30T09:39:29Z</time>
      </trkpt>
      <trkpt lat="38.2988250" lon="-0.6527370">
        <ele>114.9</ele>
        <time>2018-03-30T09:39:30Z</time>
      </trkpt>
      <trkpt lat="38.2987700" lon="-0.6527590">
        <ele>114.9</ele>
        <time>2018-03-30T09:39:31Z</time>
      </trkpt>
      <trkpt lat="38.2987150" lon="-0.6527820">
        <ele>114.9</ele>
        <time>2018-03-30T09:39:32Z</time>
      </trkpt>
      <trkpt lat="38.2986590" lon="-0.6528040">
        <ele>115.0</ele>
        <time>2018-03-30T09:39:33Z</time>
      </trkpt>
      <trkpt lat="38.2986020" lon="-0.6528200">
        <ele>115.0</ele>
        <time>2018-03-30T09:39:34Z</time>
      </trkpt>
      <trkpt lat="38.2985460" lon="-0.6528240">
        <ele>115.0</ele>
        <time>2018-03-30T09:39:35Z</time>
      </trkpt>
      <trkpt lat="38.2984880" lon="-0.6528290">
        <ele>115.0</ele>
        <time>2018-03-30T09:39:36Z</time>
      </trkpt>
      <trkpt lat="38.2984280" lon="-0.6528370">
        <ele>114.9</ele>
        <time>2018-03-30T09:39:37Z</time>
      </trkpt>
      <trkpt lat="38.2983650" lon="-0.6528440">
        <ele>114.8</ele>
        <time>2018-03-30T09:39:38Z</time>
      </trkpt>
      <trkpt lat="38.2983040" lon="-0.6528550">
        <ele>114.7</ele>
        <time>2018-03-30T09:39:39Z</time>
      </trkpt>
      <trkpt lat="38.2982360" lon="-0.6528660">
        <ele>114.5</ele>
        <time>2018-03-30T09:39:40Z</time>
      </trkpt>
      <trkpt lat="38.2981680" lon="-0.6528760">
        <ele>114.4</ele>
        <time>2018-03-30T09:39:41Z</time>
      </trkpt>
      <trkpt lat="38.2980990" lon="-0.6528870">
        <ele>114.3</ele>
        <time>2018-03-30T09:39:42Z</time>
      </trkpt>
      <trkpt lat="38.2980270" lon="-0.6529030">
        <ele>114.1</ele>
        <time>2018-03-30T09:39:43Z</time>
      </trkpt>
      <trkpt lat="38.2979570" lon="-0.6529150">
        <ele>114.0</ele>
        <time>2018-03-30T09:39:44Z</time>
      </trkpt>
      <trkpt lat="38.2978850" lon="-0.6529260">
        <ele>113.9</ele>
        <time>2018-03-30T09:39:45Z</time>
      </trkpt>
      <trkpt lat="38.2978130" lon="-0.6529330">
        <ele>113.8</ele>
        <time>2018-03-30T09:39:46Z</time>
      </trkpt>
      <trkpt lat="38.2977410" lon="-0.6529350">
        <ele>113.8</ele>
        <time>2018-03-30T09:39:47Z</time>
      </trkpt>
      <trkpt lat="38.2976710" lon="-0.6529380">
        <ele>113.8</ele>
        <time>2018-03-30T09:39:48Z</time>
      </trkpt>
      <trkpt lat="38.2976010" lon="-0.6529430">
        <ele>113.8</ele>
        <time>2018-03-30T09:39:49Z</time>
      </trkpt>
      <trkpt lat="38.2975310" lon="-0.6529530">
        <ele>113.8</ele>
        <time>2018-03-30T09:39:50Z</time>
      </trkpt>
      <trkpt lat="38.2974680" lon="-0.6529670">
        <ele>113.7</ele>
        <time>2018-03-30T09:39:51Z</time>
      </trkpt>
      <trkpt lat="38.2974070" lon="-0.6529900">
        <ele>113.7</ele>
        <time>2018-03-30T09:39:52Z</time>
      </trkpt>
      <trkpt lat="38.2973500" lon="-0.6530240">
        <ele>113.7</ele>
        <time>2018-03-30T09:39:53Z</time>
      </trkpt>
      <trkpt lat="38.2972940" lon="-0.6530590">
        <ele>113.8</ele>
        <time>2018-03-30T09:39:54Z</time>
      </trkpt>
      <trkpt lat="38.2972360" lon="-0.6531050">
        <ele>113.8</ele>
        <time>2018-03-30T09:39:55Z</time>
      </trkpt>
      <trkpt lat="38.2971770" lon="-0.6531520">
        <ele>113.8</ele>
        <time>2018-03-30T09:39:56Z</time>
      </trkpt>
      <trkpt lat="38.2971200" lon="-0.6531930">
        <ele>113.8</ele>
        <time>2018-03-30T09:39:57Z</time>
      </trkpt>
      <trkpt lat="38.2970640" lon="-0.6532340">
        <ele>113.8</ele>
        <time>2018-03-30T09:39:58Z</time>
      </trkpt>
      <trkpt lat="38.2970080" lon="-0.6532760">
        <ele>113.9</ele>
        <time>2018-03-30T09:39:59Z</time>
      </trkpt>
      <trkpt lat="38.2969540" lon="-0.6533200">
        <ele>113.9</ele>
        <time>2018-03-30T09:40:00Z</time>
      </trkpt>
      <trkpt lat="38.2968990" lon="-0.6533650">
        <ele>113.9</ele>
        <time>2018-03-30T09:40:01Z</time>
      </trkpt>
      <trkpt lat="38.2968450" lon="-0.6534120">
        <ele>114.0</ele>
        <time>2018-03-30T09:40:02Z</time>
      </trkpt>
      <trkpt lat="38.2967930" lon="-0.6534600">
        <ele>114.0</ele>
        <time>2018-03-30T09:40:03Z</time>
      </trkpt>
      <trkpt lat="38.2967420" lon="-0.6535080">
        <ele>114.0</ele>
        <time>2018-03-30T09:40:04Z</time>
      </trkpt>
      <trkpt lat="38.2966880" lon="-0.6535520">
        <ele>113.9</ele>
        <time>2018-03-30T09:40:05Z</time>
      </trkpt>
      <trkpt lat="38.2966310" lon="-0.6535920">
        <ele>113.8</ele>
        <time>2018-03-30T09:40:06Z</time>
      </trkpt>
      <trkpt lat="38.2965710" lon="-0.6536250">
        <ele>113.7</ele>
        <time>2018-03-30T09:40:07Z</time>
      </trkpt>
      <trkpt lat="38.2965100" lon="-0.6536450">
        <ele>113.6</ele>
        <time>2018-03-30T09:40:08Z</time>
      </trkpt>
      <trkpt lat="38.2964450" lon="-0.6536560">
        <ele>113.5</ele>
        <time>2018-03-30T09:40:09Z</time>
      </trkpt>
      <trkpt lat="38.2963780" lon="-0.6536630">
        <ele>113.4</ele>
        <time>2018-03-30T09:40:10Z</time>
      </trkpt>
      <trkpt lat="38.2963090" lon="-0.6536700">
        <ele>113.2</ele>
        <time>2018-03-30T09:40:11Z</time>
      </trkpt>
      <trkpt lat="38.2962410" lon="-0.6536650">
        <ele>113.1</ele>
        <time>2018-03-30T09:40:12Z</time>
      </trkpt>
      <trkpt lat="38.2961670" lon="-0.6536610">
        <ele>112.9</ele>
        <time>2018-03-30T09:40:13Z</time>
      </trkpt>
      <trkpt lat="38.2960920" lon="-0.6536600">
        <ele>112.8</ele>
        <time>2018-03-30T09:40:14Z</time>
      </trkpt>
      <trkpt lat="38.2960160" lon="-0.6536590">
        <ele>112.6</ele>
        <time>2018-03-30T09:40:15Z</time>
      </trkpt>
      <trkpt lat="38.2959380" lon="-0.6536640">
        <ele>112.4</ele>
        <time>2018-03-30T09:40:16Z</time>
      </trkpt>
      <trkpt lat="38.2958610" lon="-0.6536730">
        <ele>112.2</ele>
        <time>2018-03-30T09:40:17Z</time>
      </trkpt>
      <trkpt lat="38.2957840" lon="-0.6536850">
        <ele>112.0</ele>
        <time>2018-03-30T09:40:18Z</time>
      </trkpt>
      <trkpt lat="38.2957070" lon="-0.6536980">
        <ele>111.7</ele>
        <time>2018-03-30T09:40:19Z</time>
      </trkpt>
      <trkpt lat="38.2956320" lon="-0.6537120">
        <ele>111.4</ele>
        <time>2018-03-30T09:40:20Z</time>
      </trkpt>
      <trkpt lat="38.2955540" lon="-0.6537290">
        <ele>111.1</ele>
        <time>2018-03-30T09:40:21Z</time>
      </trkpt>
      <trkpt lat="38.2954760" lon="-0.6537450">
        <ele>110.7</ele>
        <time>2018-03-30T09:40:22Z</time>
      </trkpt>
      <trkpt lat="38.2953950" lon="-0.6537640">
        <ele>110.3</ele>
        <time>2018-03-30T09:40:23Z</time>
      </trkpt>
      <trkpt lat="38.2953120" lon="-0.6537810">
        <ele>109.9</ele>
        <time>2018-03-30T09:40:24Z</time>
      </trkpt>
      <trkpt lat="38.2952290" lon="-0.6537950">
        <ele>109.5</ele>
        <time>2018-03-30T09:40:25Z</time>
      </trkpt>
      <trkpt lat="38.2951460" lon="-0.6538080">
        <ele>109.2</ele>
        <time>2018-03-30T09:40:26Z</time>
      </trkpt>
      <trkpt lat="38.2950630" lon="-0.6538220">
        <ele>108.9</ele>
        <time>2018-03-30T09:40:27Z</time>
      </trkpt>
      <trkpt lat="38.2949810" lon="-0.6538340">
        <ele>108.8</ele>
        <time>2018-03-30T09:40:28Z</time>
      </trkpt>
      <trkpt lat="38.2948980" lon="-0.6538430">
        <ele>108.7</ele>
        <time>2018-03-30T09:40:29Z</time>
      </trkpt>
      <trkpt lat="38.2948160" lon="-0.6538510">
        <ele>108.6</ele>
        <time>2018-03-30T09:40:30Z</time>
      </trkpt>
      <trkpt lat="38.2947340" lon="-0.6538520">
        <ele>108.5</ele>
        <time>2018-03-30T09:40:31Z</time>
      </trkpt>
      <trkpt lat="38.2946530" lon="-0.6538430">
        <ele>108.3</ele>
        <time>2018-03-30T09:40:32Z</time>
      </trkpt>
      <trkpt lat="38.2945720" lon="-0.6538270">
        <ele>108.2</ele>
        <time>2018-03-30T09:40:33Z</time>
      </trkpt>
      <trkpt lat="38.2944940" lon="-0.6537990">
        <ele>108.2</ele>
        <time>2018-03-30T09:40:34Z</time>
      </trkpt>
      <trkpt lat="38.2944180" lon="-0.6537630">
        <ele>108.2</ele>
        <time>2018-03-30T09:40:35Z</time>
      </trkpt>
      <trkpt lat="38.2943460" lon="-0.6537210">
        <ele>108.2</ele>
        <time>2018-03-30T09:40:36Z</time>
      </trkpt>
      <trkpt lat="38.2942770" lon="-0.6536740">
        <ele>108.2</ele>
        <time>2018-03-30T09:40:37Z</time>
      </trkpt>
      <trkpt lat="38.2942120" lon="-0.6536210">
        <ele>108.3</ele>
        <time>2018-03-30T09:40:38Z</time>
      </trkpt>
      <trkpt lat="38.2941470" lon="-0.6535740">
        <ele>108.4</ele>
        <time>2018-03-30T09:40:39Z</time>
      </trkpt>
      <trkpt lat="38.2940830" lon="-0.6535260">
        <ele>108.5</ele>
        <time>2018-03-30T09:40:40Z</time>
      </trkpt>
      <trkpt lat="38.2940220" lon="-0.6534740">
        <ele>108.6</ele>
        <time>2018-03-30T09:40:41Z</time>
      </trkpt>
      <trkpt lat="38.2939610" lon="-0.6534220">
        <ele>108.7</ele>
        <time>2018-03-30T09:40:42Z</time>
      </trkpt>
      <trkpt lat="38.2939030" lon="-0.6533750">
        <ele>108.8</ele>
        <time>2018-03-30T09:40:43Z</time>
      </trkpt>
      <trkpt lat="38.2938490" lon="-0.6533440">
        <ele>108.9</ele>
        <time>2018-03-30T09:40:44Z</time>
      </trkpt>
      <trkpt lat="38.2937990" lon="-0.6533340">
        <ele>109.0</ele>
        <time>2018-03-30T09:40:45Z</time>
      </trkpt>
      <trkpt lat="38.2937500" lon="-0.6533470">
        <ele>108.9</ele>
        <time>2018-03-30T09:40:46Z</time>
      </trkpt>
      <trkpt lat="38.2937200" lon="-0.6534060">
        <ele>108.9</ele>
        <time>2018-03-30T09:40:47Z</time>
      </trkpt>
      <trkpt lat="38.2936810" lon="-0.6534680">
        <ele>108.8</ele>
        <time>2018-03-30T09:40:48Z</time>
      </trkpt>
      <trkpt lat="38.2936340" lon="-0.6535290">
        <ele>108.8</ele>
        <time>2018-03-30T09:40:49Z</time>
      </trkpt>
      <trkpt lat="38.2935830" lon="-0.6535820">
        <ele>108.7</ele>
        <time>2018-03-30T09:40:50Z</time>
      </trkpt>
      <trkpt lat="38.2935300" lon="-0.6536340">
        <ele>108.7</ele>
        <time>2018-03-30T09:40:51Z</time>
      </trkpt>
      <trkpt lat="38.2934760" lon="-0.6536860">
        <ele>108.6</ele>
        <time>2018-03-30T09:40:52Z</time>
      </trkpt>
      <trkpt lat="38.2934190" lon="-0.6537390">
        <ele>108.6</ele>
        <time>2018-03-30T09:40:53Z</time>
      </trkpt>
      <trkpt lat="38.2933630" lon="-0.6537930">
        <ele>108.5</ele>
        <time>2018-03-30T09:40:54Z</time>
      </trkpt>
      <trkpt lat="38.2933060" lon="-0.6538460">
        <ele>108.4</ele>
        <time>2018-03-30T09:40:55Z</time>
      </trkpt>
      <trkpt lat="38.2932490" lon="-0.6539000">
        <ele>108.3</ele>
        <time>2018-03-30T09:40:56Z</time>
      </trkpt>
      <trkpt lat="38.2931900" lon="-0.6539510">
        <ele>108.2</ele>
        <time>2018-03-30T09:40:57Z</time>
      </trkpt>
      <trkpt lat="38.2931280" lon="-0.6539980">
        <ele>108.1</ele>
        <time>2018-03-30T09:40:58Z</time>
      </trkpt>
      <trkpt lat="38.2930620" lon="-0.6540420">
        <ele>108.0</ele>
        <time>2018-03-30T09:40:59Z</time>
      </trkpt>
      <trkpt lat="38.2929960" lon="-0.6540840">
        <ele>107.0</ele>
        <time>2018-03-30T09:41:00Z</time>
      </trkpt>
      <trkpt lat="38.2929280" lon="-0.6541290">
        <ele>106.0</ele>
        <time>2018-03-30T09:41:01Z</time>
      </trkpt>
      <trkpt lat="38.2928610" lon="-0.6541780">
        <ele>104.9</ele>
        <time>2018-03-30T09:41:02Z</time>
      </trkpt>
      <trkpt lat="38.2927930" lon="-0.6542290">
        <ele>103.7</ele>
        <time>2018-03-30T09:41:03Z</time>
      </trkpt>
      <trkpt lat="38.2927230" lon="-0.6542860">
        <ele>102.5</ele>
        <time>2018-03-30T09:41:04Z</time>
      </trkpt>
      <trkpt lat="38.2926530" lon="-0.6543450">
        <ele>101.9</ele>
        <time>2018-03-30T09:41:05Z</time>
      </trkpt>
      <trkpt lat="38.2925820" lon="-0.6544100">
        <ele>101.6</ele>
        <time>2018-03-30T09:41:06Z</time>
      </trkpt>
      <trkpt lat="38.2925100" lon="-0.6544800">
        <ele>101.4</ele>
        <time>2018-03-30T09:41:07Z</time>
      </trkpt>
      <trkpt lat="38.2924390" lon="-0.6545570">
        <ele>101.2</ele>
        <time>2018-03-30T09:41:08Z</time>
      </trkpt>
      <trkpt lat="38.2923730" lon="-0.6546460">
        <ele>101.1</ele>
        <time>2018-03-30T09:41:09Z</time>
      </trkpt>
      <trkpt lat="38.2923130" lon="-0.6547640">
        <ele>101.3</ele>
        <time>2018-03-30T09:41:10Z</time>
      </trkpt>
      <trkpt lat="38.2922530" lon="-0.6548800">
        <ele>102.8</ele>
        <time>2018-03-30T09:41:11Z</time>
      </trkpt>
      <trkpt lat="38.2921910" lon="-0.6549880">
        <ele>104.2</ele>
        <time>2018-03-30T09:41:12Z</time>
      </trkpt>
      <trkpt lat="38.2921310" lon="-0.6550920">
        <ele>105.5</ele>
        <time>2018-03-30T09:41:13Z</time>
      </trkpt>
      <trkpt lat="38.2920760" lon="-0.6551900">
        <ele>106.0</ele>
        <time>2018-03-30T09:41:14Z</time>
      </trkpt>
      <trkpt lat="38.2920240" lon="-0.6552830">
        <ele>106.0</ele>
        <time>2018-03-30T09:41:15Z</time>
      </trkpt>
      <trkpt lat="38.2919740" lon="-0.6553700">
        <ele>106.0</ele>
        <time>2018-03-30T09:41:16Z</time>
      </trkpt>
      <trkpt lat="38.2919270" lon="-0.6554530">
        <ele>106.0</ele>
        <time>2018-03-30T09:41:17Z</time>
      </trkpt>
      <trkpt lat="38.2918810" lon="-0.6555330">
        <ele>106.0</ele>
        <time>2018-03-30T09:41:18Z</time>
      </trkpt>
      <trkpt lat="38.2918400" lon="-0.6556070">
        <ele>106.0</ele>
        <time>2018-03-30T09:41:19Z</time>
      </trkpt>
      <trkpt lat="38.2918010" lon="-0.6556780">
        <ele>106.1</ele>
        <time>2018-03-30T09:41:20Z</time>
      </trkpt>
      <trkpt lat="38.2917650" lon="-0.6557470">
        <ele>106.1</ele>
        <time>2018-03-30T09:41:21Z</time>
      </trkpt>
      <trkpt lat="38.2917290" lon="-0.6558170">
        <ele>106.2</ele>
        <time>2018-03-30T09:41:22Z</time>
      </trkpt>
      <trkpt lat="38.2916940" lon="-0.6558850">
        <ele>106.2</ele>
        <time>2018-03-30T09:41:23Z</time>
      </trkpt>
      <trkpt lat="38.2916580" lon="-0.6559520">
        <ele>106.2</ele>
        <time>2018-03-30T09:41:24Z</time>
      </trkpt>
      <trkpt lat="38.2916200" lon="-0.6560180">
        <ele>106.2</ele>
        <time>2018-03-30T09:41:25Z</time>
      </trkpt>
      <trkpt lat="38.2915780" lon="-0.6560800">
        <ele>106.2</ele>
        <time>2018-03-30T09:41:26Z</time>
      </trkpt>
      <trkpt lat="38.2915340" lon="-0.6561380">
        <ele>106.2</ele>
        <time>2018-03-30T09:41:27Z</time>
      </trkpt>
      <trkpt lat="38.2914870" lon="-0.6561970">
        <ele>106.2</ele>
        <time>2018-03-30T09:41:28Z</time>
      </trkpt>
      <trkpt lat="38.2914380" lon="-0.6562550">
        <ele>106.2</ele>
        <time>2018-03-30T09:41:29Z</time>
      </trkpt>
      <trkpt lat="38.2913880" lon="-0.6563110">
        <ele>106.1</ele>
        <time>2018-03-30T09:41:30Z</time>
      </trkpt>
      <trkpt lat="38.2913370" lon="-0.6563660">
        <ele>106.0</ele>
        <time>2018-03-30T09:41:31Z</time>
      </trkpt>
      <trkpt lat="38.2912890" lon="-0.6564260">
        <ele>105.9</ele>
        <time>2018-03-30T09:41:32Z</time>
      </trkpt>
      <trkpt lat="38.2912410" lon="-0.6564880">
        <ele>105.8</ele>
        <time>2018-03-30T09:41:33Z</time>
      </trkpt>
      <trkpt lat="38.2911930" lon="-0.6565490">
        <ele>105.8</ele>
        <time>2018-03-30T09:41:34Z</time>
      </trkpt>
      <trkpt lat="38.2911440" lon="-0.6566100">
        <ele>105.7</ele>
        <time>2018-03-30T09:41:35Z</time>
      </trkpt>
      <trkpt lat="38.2910960" lon="-0.6566730">
        <ele>105.5</ele>
        <time>2018-03-30T09:41:36Z</time>
      </trkpt>
      <trkpt lat="38.2910480" lon="-0.6567360">
        <ele>105.4</ele>
        <time>2018-03-30T09:41:37Z</time>
      </trkpt>
      <trkpt lat="38.2910060" lon="-0.6568020">
        <ele>105.3</ele>
        <time>2018-03-30T09:41:38Z</time>
      </trkpt>
      <trkpt lat="38.2909660" lon="-0.6568740">
        <ele>105.2</ele>
        <time>2018-03-30T09:41:39Z</time>
      </trkpt>
      <trkpt lat="38.2909270" lon="-0.6569470">
        <ele>105.0</ele>
        <time>2018-03-30T09:41:40Z</time>
      </trkpt>
      <trkpt lat="38.2908870" lon="-0.6570190">
        <ele>104.9</ele>
        <time>2018-03-30T09:41:41Z</time>
      </trkpt>
      <trkpt lat="38.2908460" lon="-0.6570880">
        <ele>104.9</ele>
        <time>2018-03-30T09:41:42Z</time>
      </trkpt>
      <trkpt lat="38.2908040" lon="-0.6571570">
        <ele>104.8</ele>
        <time>2018-03-30T09:41:43Z</time>
      </trkpt>
      <trkpt lat="38.2907610" lon="-0.6572260">
        <ele>104.8</ele>
        <time>2018-03-30T09:41:44Z</time>
      </trkpt>
      <trkpt lat="38.2907170" lon="-0.6572920">
        <ele>104.7</ele>
        <time>2018-03-30T09:41:45Z</time>
      </trkpt>
      <trkpt lat="38.2906710" lon="-0.6573600">
        <ele>104.7</ele>
        <time>2018-03-30T09:41:46Z</time>
      </trkpt>
      <trkpt lat="38.2906250" lon="-0.6574260">
        <ele>104.7</ele>
        <time>2018-03-30T09:41:47Z</time>
      </trkpt>
      <trkpt lat="38.2905790" lon="-0.6574900">
        <ele>104.8</ele>
        <time>2018-03-30T09:41:48Z</time>
      </trkpt>
      <trkpt lat="38.2905350" lon="-0.6575530">
        <ele>104.8</ele>
        <time>2018-03-30T09:41:49Z</time>
      </trkpt>
      <trkpt lat="38.2904920" lon="-0.6576160">
        <ele>104.8</ele>
        <time>2018-03-30T09:41:50Z</time>
      </trkpt>
      <trkpt lat="38.2904510" lon="-0.6576820">
        <ele>104.9</ele>
        <time>2018-03-30T09:41:51Z</time>
      </trkpt>
      <trkpt lat="38.2904110" lon="-0.6577450">
        <ele>104.9</ele>
        <time>2018-03-30T09:41:52Z</time>
      </trkpt>
      <trkpt lat="38.2903710" lon="-0.6578070">
        <ele>105.0</ele>
        <time>2018-03-30T09:41:53Z</time>
      </trkpt>
      <trkpt lat="38.2903300" lon="-0.6578650">
        <ele>105.0</ele>
        <time>2018-03-30T09:41:54Z</time>
      </trkpt>
      <trkpt lat="38.2902900" lon="-0.6579240">
        <ele>105.1</ele>
        <time>2018-03-30T09:41:55Z</time>
      </trkpt>
      <trkpt lat="38.2902500" lon="-0.6579850">
        <ele>105.1</ele>
        <time>2018-03-30T09:41:56Z</time>
      </trkpt>
      <trkpt lat="38.2902100" lon="-0.6580460">
        <ele>105.1</ele>
        <time>2018-03-30T09:41:57Z</time>
      </trkpt>
      <trkpt lat="38.2901690" lon="-0.6581080">
        <ele>105.1</ele>
        <time>2018-03-30T09:41:58Z</time>
      </trkpt>
      <trkpt lat="38.2901270" lon="-0.6581700">
        <ele>105.2</ele>
        <time>2018-03-30T09:41:59Z</time>
      </trkpt>
      <trkpt lat="38.2900830" lon="-0.6582300">
        <ele>105.2</ele>
        <time>2018-03-30T09:42:00Z</time>
      </trkpt>
      <trkpt lat="38.2900360" lon="-0.6582890">
        <ele>105.2</ele>
        <time>2018-03-30T09:42:01Z</time>
      </trkpt>
      <trkpt lat="38.2899880" lon="-0.6583470">
        <ele>105.2</ele>
        <time>2018-03-30T09:42:02Z</time>
      </trkpt>
      <trkpt lat="38.2899390" lon="-0.6584020">
        <ele>105.2</ele>
        <time>2018-03-30T09:42:03Z</time>
      </trkpt>
      <trkpt lat="38.2898880" lon="-0.6584580">
        <ele>105.2</ele>
        <time>2018-03-30T09:42:04Z</time>
      </trkpt>
      <trkpt lat="38.2898370" lon="-0.6585140">
        <ele>105.2</ele>
        <time>2018-03-30T09:42:05Z</time>
      </trkpt>
      <trkpt lat="38.2897850" lon="-0.6585700">
        <ele>105.2</ele>
        <time>2018-03-30T09:42:06Z</time>
      </trkpt>
      <trkpt lat="38.2897330" lon="-0.6586300">
        <ele>105.2</ele>
        <time>2018-03-30T09:42:07Z</time>
      </trkpt>
      <trkpt lat="38.2896800" lon="-0.6586900">
        <ele>105.2</ele>
        <time>2018-03-30T09:42:08Z</time>
      </trkpt>
      <trkpt lat="38.2896260" lon="-0.6587480">
        <ele>105.1</ele>
        <time>2018-03-30T09:42:09Z</time>
      </trkpt>
      <trkpt lat="38.2895730" lon="-0.6588070">
        <ele>105.1</ele>
        <time>2018-03-30T09:42:10Z</time>
      </trkpt>
      <trkpt lat="38.2895200" lon="-0.6588650">
        <ele>105.1</ele>
        <time>2018-03-30T09:42:11Z</time>
      </trkpt>
      <trkpt lat="38.2894670" lon="-0.6589230">
        <ele>105.1</ele>
        <time>2018-03-30T09:42:12Z</time>
      </trkpt>
      <trkpt lat="38.2894140" lon="-0.6589800">
        <ele>105.1</ele>
        <time>2018-03-30T09:42:13Z</time>
      </trkpt>
      <trkpt lat="38.2893610" lon="-0.6590380">
        <ele>105.0</ele>
        <time>2018-03-30T09:42:14Z</time>
      </trkpt>
      <trkpt lat="38.2893090" lon="-0.6590960">
        <ele>105.0</ele>
        <time>2018-03-30T09:42:15Z</time>
      </trkpt>
      <trkpt lat="38.2892570" lon="-0.6591540">
        <ele>105.0</ele>
        <time>2018-03-30T09:42:16Z</time>
      </trkpt>
      <trkpt lat="38.2892050" lon="-0.6592140">
        <ele>105.0</ele>
        <time>2018-03-30T09:42:17Z</time>
      </trkpt>
      <trkpt lat="38.2891530" lon="-0.6592720">
        <ele>105.0</ele>
        <time>2018-03-30T09:42:18Z</time>
      </trkpt>
      <trkpt lat="38.2891020" lon="-0.6593300">
        <ele>105.0</ele>
        <time>2018-03-30T09:42:19Z</time>
      </trkpt>
      <trkpt lat="38.2890500" lon="-0.6593870">
        <ele>105.0</ele>
        <time>2018-03-30T09:42:20Z</time>
      </trkpt>
      <trkpt lat="38.2890020" lon="-0.6594480">
        <ele>105.0</ele>
        <time>2018-03-30T09:42:21Z</time>
      </trkpt>
      <trkpt lat="38.2889560" lon="-0.6595120">
        <ele>105.0</ele>
        <time>2018-03-30T09:42:22Z</time>
      </trkpt>
      <trkpt lat="38.2889150" lon="-0.6595800">
        <ele>105.0</ele>
        <time>2018-03-30T09:42:23Z</time>
      </trkpt>
      <trkpt lat="38.2888710" lon="-0.6596440">
        <ele>105.0</ele>
        <time>2018-03-30T09:42:24Z</time>
      </trkpt>
      <trkpt lat="38.2888240" lon="-0.6597020">
        <ele>105.0</ele>
        <time>2018-03-30T09:42:25Z</time>
      </trkpt>
      <trkpt lat="38.2887700" lon="-0.6597530">
        <ele>105.0</ele>
        <time>2018-03-30T09:42:26Z</time>
      </trkpt>
      <trkpt lat="38.2887150" lon="-0.6597960">
        <ele>105.0</ele>
        <time>2018-03-30T09:42:27Z</time>
      </trkpt>
      <trkpt lat="38.2886610" lon="-0.6598400">
        <ele>105.3</ele>
        <time>2018-03-30T09:42:28Z</time>
      </trkpt>
      <trkpt lat="38.2886090" lon="-0.6598860">
        <ele>105.5</ele>
        <time>2018-03-30T09:42:29Z</time>
      </trkpt>
      <trkpt lat="38.2885590" lon="-0.6599360">
        <ele>105.8</ele>
        <time>2018-03-30T09:42:30Z</time>
      </trkpt>
      <trkpt lat="38.2885110" lon="-0.6599870">
        <ele>106.1</ele>
        <time>2018-03-30T09:42:31Z</time>
      </trkpt>
      <trkpt lat="38.2884640" lon="-0.6600420">
        <ele>106.5</ele>
        <time>2018-03-30T09:42:32Z</time>
      </trkpt>
      <trkpt lat="38.2884170" lon="-0.6600970">
        <ele>106.8</ele>
        <time>2018-03-30T09:42:33Z</time>
      </trkpt>
      <trkpt lat="38.2883700" lon="-0.6601510">
        <ele>107.0</ele>
        <time>2018-03-30T09:42:34Z</time>
      </trkpt>
      <trkpt lat="38.2883220" lon="-0.6602040">
        <ele>107.0</ele>
        <time>2018-03-30T09:42:35Z</time>
      </trkpt>
      <trkpt lat="38.2882730" lon="-0.6602520">
        <ele>106.9</ele>
        <time>2018-03-30T09:42:36Z</time>
      </trkpt>
      <trkpt lat="38.2882220" lon="-0.6603010">
        <ele>106.8</ele>
        <time>2018-03-30T09:42:37Z</time>
      </trkpt>
      <trkpt lat="38.2881720" lon="-0.6603510">
        <ele>106.8</ele>
        <time>2018-03-30T09:42:38Z</time>
      </trkpt>
      <trkpt lat="38.2881220" lon="-0.6604010">
        <ele>106.7</ele>
        <time>2018-03-30T09:42:39Z</time>
      </trkpt>
      <trkpt lat="38.2880720" lon="-0.6604510">
        <ele>106.7</ele>
        <time>2018-03-30T09:42:40Z</time>
      </trkpt>
      <trkpt lat="38.2880200" lon="-0.6605000">
        <ele>106.6</ele>
        <time>2018-03-30T09:42:41Z</time>
      </trkpt>
      <trkpt lat="38.2879690" lon="-0.6605480">
        <ele>106.6</ele>
        <time>2018-03-30T09:42:42Z</time>
      </trkpt>
      <trkpt lat="38.2879190" lon="-0.6605970">
        <ele>106.5</ele>
        <time>2018-03-30T09:42:43Z</time>
      </trkpt>
      <trkpt lat="38.2878690" lon="-0.6606460">
        <ele>106.4</ele>
        <time>2018-03-30T09:42:44Z</time>
      </trkpt>
      <trkpt lat="38.2878240" lon="-0.6606980">
        <ele>106.3</ele>
        <time>2018-03-30T09:42:45Z</time>
      </trkpt>
      <trkpt lat="38.2877820" lon="-0.6607530">
        <ele>106.2</ele>
        <time>2018-03-30T09:42:46Z</time>
      </trkpt>
      <trkpt lat="38.2877460" lon="-0.6608140">
        <ele>106.1</ele>
        <time>2018-03-30T09:42:47Z</time>
      </trkpt>
      <trkpt lat="38.2877140" lon="-0.6608780">
        <ele>106.0</ele>
        <time>2018-03-30T09:42:48Z</time>
      </trkpt>
      <trkpt lat="38.2876870" lon="-0.6609470">
        <ele>106.0</ele>
        <time>2018-03-30T09:42:49Z</time>
      </trkpt>
      <trkpt lat="38.2876610" lon="-0.6610200">
        <ele>105.9</ele>
        <time>2018-03-30T09:42:50Z</time>
      </trkpt>
      <trkpt lat="38.2876370" lon="-0.6610910">
        <ele>105.9</ele>
        <time>2018-03-30T09:42:51Z</time>
      </trkpt>
      <trkpt lat="38.2876150" lon="-0.6611630">
        <ele>105.8</ele>
        <time>2018-03-30T09:42:52Z</time>
      </trkpt>
      <trkpt lat="38.2875950" lon="-0.6612350">
        <ele>105.8</ele>
        <time>2018-03-30T09:42:53Z</time>
      </trkpt>
      <trkpt lat="38.2875740" lon="-0.6613060">
        <ele>105.8</ele>
        <time>2018-03-30T09:42:54Z</time>
      </trkpt>
      <trkpt lat="38.2875540" lon="-0.6613790">
        <ele>105.8</ele>
        <time>2018-03-30T09:42:55Z</time>
      </trkpt>
      <trkpt lat="38.2875340" lon="-0.6614490">
        <ele>105.7</ele>
        <time>2018-03-30T09:42:56Z</time>
      </trkpt>
      <trkpt lat="38.2875140" lon="-0.6615190">
        <ele>105.7</ele>
        <time>2018-03-30T09:42:57Z</time>
      </trkpt>
      <trkpt lat="38.2874930" lon="-0.6615880">
        <ele>105.7</ele>
        <time>2018-03-30T09:42:58Z</time>
      </trkpt>
      <trkpt lat="38.2874740" lon="-0.6616570">
        <ele>105.7</ele>
        <time>2018-03-30T09:42:59Z</time>
      </trkpt>
      <trkpt lat="38.2874560" lon="-0.6617270">
        <ele>105.7</ele>
        <time>2018-03-30T09:43:00Z</time>
      </trkpt>
      <trkpt lat="38.2874430" lon="-0.6617960">
        <ele>105.6</ele>
        <time>2018-03-30T09:43:01Z</time>
      </trkpt>
      <trkpt lat="38.2874280" lon="-0.6618650">
        <ele>105.6</ele>
        <time>2018-03-30T09:43:02Z</time>
      </trkpt>
      <trkpt lat="38.2874120" lon="-0.6619360">
        <ele>105.6</ele>
        <time>2018-03-30T09:43:03Z</time>
      </trkpt>
      <trkpt lat="38.2873960" lon="-0.6620030">
        <ele>105.5</ele>
        <time>2018-03-30T09:43:04Z</time>
      </trkpt>
      <trkpt lat="38.2873770" lon="-0.6620680">
        <ele>105.4</ele>
        <time>2018-03-30T09:43:05Z</time>
      </trkpt>
      <trkpt lat="38.2873590" lon="-0.6621350">
        <ele>105.4</ele>
        <time>2018-03-30T09:43:06Z</time>
      </trkpt>
      <trkpt lat="38.2873440" lon="-0.6622040">
        <ele>105.3</ele>
        <time>2018-03-30T09:43:07Z</time>
      </trkpt>
      <trkpt lat="38.2873270" lon="-0.6622730">
        <ele>105.3</ele>
        <time>2018-03-30T09:43:08Z</time>
      </trkpt>
      <trkpt lat="38.2873090" lon="-0.6623420">
        <ele>105.3</ele>
        <time>2018-03-30T09:43:09Z</time>
      </trkpt>
      <trkpt lat="38.2872910" lon="-0.6624110">
        <ele>105.2</ele>
        <time>2018-03-30T09:43:10Z</time>
      </trkpt>
      <trkpt lat="38.2872750" lon="-0.6624790">
        <ele>105.2</ele>
        <time>2018-03-30T09:43:11Z</time>
      </trkpt>
      <trkpt lat="38.2872580" lon="-0.6625480">
        <ele>105.2</ele>
        <time>2018-03-30T09:43:12Z</time>
      </trkpt>
      <trkpt lat="38.2872430" lon="-0.6626160">
        <ele>105.1</ele>
        <time>2018-03-30T09:43:13Z</time>
      </trkpt>
      <trkpt lat="38.2872260" lon="-0.6626830">
        <ele>105.1</ele>
        <time>2018-03-30T09:43:14Z</time>
      </trkpt>
      <trkpt lat="38.2872110" lon="-0.6627510">
        <ele>105.1</ele>
        <time>2018-03-30T09:43:15Z</time>
      </trkpt>
      <trkpt lat="38.2871960" lon="-0.6628180">
        <ele>105.1</ele>
        <time>2018-03-30T09:43:16Z</time>
      </trkpt>
      <trkpt lat="38.2871810" lon="-0.6628850">
        <ele>105.1</ele>
        <time>2018-03-30T09:43:17Z</time>
      </trkpt>
      <trkpt lat="38.2871640" lon="-0.6629490">
        <ele>105.0</ele>
        <time>2018-03-30T09:43:18Z</time>
      </trkpt>
      <trkpt lat="38.2871500" lon="-0.6630140">
        <ele>105.0</ele>
        <time>2018-03-30T09:43:19Z</time>
      </trkpt>
      <trkpt lat="38.2871330" lon="-0.6630770">
        <ele>105.0</ele>
        <time>2018-03-30T09:43:20Z</time>
      </trkpt>
      <trkpt lat="38.2871190" lon="-0.6631440">
        <ele>105.0</ele>
        <time>2018-03-30T09:43:21Z</time>
      </trkpt>
      <trkpt lat="38.2871050" lon="-0.6632100">
        <ele>105.0</ele>
        <time>2018-03-30T09:43:22Z</time>
      </trkpt>
      <trkpt lat="38.2870900" lon="-0.6632750">
        <ele>105.1</ele>
        <time>2018-03-30T09:43:23Z</time>
      </trkpt>
      <trkpt lat="38.2870730" lon="-0.6633410">
        <ele>105.1</ele>
        <time>2018-03-30T09:43:24Z</time>
      </trkpt>
      <trkpt lat="38.2870580" lon="-0.6634050">
        <ele>105.1</ele>
        <time>2018-03-30T09:43:25Z</time>
      </trkpt>
      <trkpt lat="38.2870420" lon="-0.6634680">
        <ele>105.1</ele>
        <time>2018-03-30T09:43:26Z</time>
      </trkpt>
      <trkpt lat="38.2870270" lon="-0.6635350">
        <ele>105.1</ele>
        <time>2018-03-30T09:43:27Z</time>
      </trkpt>
      <trkpt lat="38.2870110" lon="-0.6636010">
        <ele>105.1</ele>
        <time>2018-03-30T09:43:28Z</time>
      </trkpt>
      <trkpt lat="38.2869970" lon="-0.6636690">
        <ele>105.1</ele>
        <time>2018-03-30T09:43:29Z</time>
      </trkpt>
      <trkpt lat="38.2869810" lon="-0.6637340">
        <ele>105.1</ele>
        <time>2018-03-30T09:43:30Z</time>
      </trkpt>
      <trkpt lat="38.2869660" lon="-0.6637970">
        <ele>105.1</ele>
        <time>2018-03-30T09:43:31Z</time>
      </trkpt>
      <trkpt lat="38.2869520" lon="-0.6638600">
        <ele>105.1</ele>
        <time>2018-03-30T09:43:32Z</time>
      </trkpt>
      <trkpt lat="38.2869380" lon="-0.6639200">
        <ele>105.0</ele>
        <time>2018-03-30T09:43:33Z</time>
      </trkpt>
      <trkpt lat="38.2869230" lon="-0.6639770">
        <ele>105.0</ele>
        <time>2018-03-30T09:43:34Z</time>
      </trkpt>
      <trkpt lat="38.2869060" lon="-0.6640320">
        <ele>105.0</ele>
        <time>2018-03-30T09:43:35Z</time>
      </trkpt>
      <trkpt lat="38.2868900" lon="-0.6640870">
        <ele>105.1</ele>
        <time>2018-03-30T09:43:36Z</time>
      </trkpt>
      <trkpt lat="38.2868770" lon="-0.6641410">
        <ele>105.5</ele>
        <time>2018-03-30T09:43:37Z</time>
      </trkpt>
      <trkpt lat="38.2868670" lon="-0.6641940">
        <ele>105.9</ele>
        <time>2018-03-30T09:43:38Z</time>
      </trkpt>
      <trkpt lat="38.2868580" lon="-0.6642470">
        <ele>106.2</ele>
        <time>2018-03-30T09:43:39Z</time>
      </trkpt>
      <trkpt lat="38.2868490" lon="-0.6643000">
        <ele>106.5</ele>
        <time>2018-03-30T09:43:40Z</time>
      </trkpt>
      <trkpt lat="38.2868400" lon="-0.6643530">
        <ele>106.8</ele>
        <time>2018-03-30T09:43:41Z</time>
      </trkpt>
      <trkpt lat="38.2868330" lon="-0.6644060">
        <ele>107.1</ele>
        <time>2018-03-30T09:43:42Z</time>
      </trkpt>
      <trkpt lat="38.2868250" lon="-0.6644600">
        <ele>107.4</ele>
        <time>2018-03-30T09:43:43Z</time>
      </trkpt>
      <trkpt lat="38.2868200" lon="-0.6645120">
        <ele>107.8</ele>
        <time>2018-03-30T09:43:44Z</time>
      </trkpt>
      <trkpt lat="38.2868180" lon="-0.6645660">
        <ele>108.3</ele>
        <time>2018-03-30T09:43:45Z</time>
      </trkpt>
      <trkpt lat="38.2868200" lon="-0.6646210">
        <ele>108.8</ele>
        <time>2018-03-30T09:43:46Z</time>
      </trkpt>
      <trkpt lat="38.2868280" lon="-0.6646760">
        <ele>109.3</ele>
        <time>2018-03-30T09:43:47Z</time>
      </trkpt>
      <trkpt lat="38.2868440" lon="-0.6647310">
        <ele>109.9</ele>
        <time>2018-03-30T09:43:48Z</time>
      </trkpt>
      <trkpt lat="38.2868620" lon="-0.6647820">
        <ele>110.4</ele>
        <time>2018-03-30T09:43:49Z</time>
      </trkpt>
      <trkpt lat="38.2868850" lon="-0.6648310">
        <ele>111.0</ele>
        <time>2018-03-30T09:43:50Z</time>
      </trkpt>
      <trkpt lat="38.2869100" lon="-0.6648780">
        <ele>111.0</ele>
        <time>2018-03-30T09:43:51Z</time>
      </trkpt>
      <trkpt lat="38.2869360" lon="-0.6649230">
        <ele>111.0</ele>
        <time>2018-03-30T09:43:52Z</time>
      </trkpt>
      <trkpt lat="38.2869600" lon="-0.6649690">
        <ele>111.0</ele>
        <time>2018-03-30T09:43:53Z</time>
      </trkpt>
      <trkpt lat="38.2869850" lon="-0.6650180">
        <ele>111.0</ele>
        <time>2018-03-30T09:43:54Z</time>
      </trkpt>
      <trkpt lat="38.2870090" lon="-0.6650660">
        <ele>111.0</ele>
        <time>2018-03-30T09:43:55Z</time>
      </trkpt>
      <trkpt lat="38.2870280" lon="-0.6651170">
        <ele>111.0</ele>
        <time>2018-03-30T09:43:56Z</time>
      </trkpt>
      <trkpt lat="38.2870450" lon="-0.6651700">
        <ele>111.0</ele>
        <time>2018-03-30T09:43:57Z</time>
      </trkpt>
      <trkpt lat="38.2870600" lon="-0.6652260">
        <ele>111.0</ele>
        <time>2018-03-30T09:43:58Z</time>
      </trkpt>
      <trkpt lat="38.2870700" lon="-0.6652830">
        <ele>111.0</ele>
        <time>2018-03-30T09:43:59Z</time>
      </trkpt>
      <trkpt lat="38.2870750" lon="-0.6653420">
        <ele>111.0</ele>
        <time>2018-03-30T09:44:00Z</time>
      </trkpt>
      <trkpt lat="38.2870790" lon="-0.6654020">
        <ele>111.0</ele>
        <time>2018-03-30T09:44:01Z</time>
      </trkpt>
      <trkpt lat="38.2870770" lon="-0.6654630">
        <ele>111.0</ele>
        <time>2018-03-30T09:44:02Z</time>
      </trkpt>
      <trkpt lat="38.2870700" lon="-0.6655240">
        <ele>111.0</ele>
        <time>2018-03-30T09:44:03Z</time>
      </trkpt>
      <trkpt lat="38.2870530" lon="-0.6655830">
        <ele>111.0</ele>
        <time>2018-03-30T09:44:04Z</time>
      </trkpt>
      <trkpt lat="38.2870350" lon="-0.6656450">
        <ele>111.0</ele>
        <time>2018-03-30T09:44:05Z</time>
      </trkpt>
      <trkpt lat="38.2870100" lon="-0.6657010">
        <ele>111.0</ele>
        <time>2018-03-30T09:44:06Z</time>
      </trkpt>
      <trkpt lat="38.2869800" lon="-0.6657560">
        <ele>111.0</ele>
        <time>2018-03-30T09:44:07Z</time>
      </trkpt>
      <trkpt lat="38.2869460" lon="-0.6658090">
        <ele>110.9</ele>
        <time>2018-03-30T09:44:08Z</time>
      </trkpt>
      <trkpt lat="38.2869070" lon="-0.6658560">
        <ele>110.5</ele>
        <time>2018-03-30T09:44:09Z</time>
      </trkpt>
      <trkpt lat="38.2868670" lon="-0.6659010">
        <ele>110.0</ele>
        <time>2018-03-30T09:44:10Z</time>
      </trkpt>
      <trkpt lat="38.2868260" lon="-0.6659440">
        <ele>109.6</ele>
        <time>2018-03-30T09:44:11Z</time>
      </trkpt>
      <trkpt lat="38.2867800" lon="-0.6659810">
        <ele>109.2</ele>
        <time>2018-03-30T09:44:12Z</time>
      </trkpt>
      <trkpt lat="38.2867310" lon="-0.6660170">
        <ele>108.4</ele>
        <time>2018-03-30T09:44:13Z</time>
      </trkpt>
      <trkpt lat="38.2866800" lon="-0.6660530">
        <ele>107.4</ele>
        <time>2018-03-30T09:44:14Z</time>
      </trkpt>
      <trkpt lat="38.2866280" lon="-0.6660870">
        <ele>107.2</ele>
        <time>2018-03-30T09:44:15Z</time>
      </trkpt>
      <trkpt lat="38.2865770" lon="-0.6661230">
        <ele>107.4</ele>
        <time>2018-03-30T09:44:16Z</time>
      </trkpt>
      <trkpt lat="38.2865270" lon="-0.6661610">
        <ele>107.5</ele>
        <time>2018-03-30T09:44:17Z</time>
      </trkpt>
      <trkpt lat="38.2864830" lon="-0.6662060">
        <ele>107.7</ele>
        <time>2018-03-30T09:44:18Z</time>
      </trkpt>
      <trkpt lat="38.2864410" lon="-0.6662440">
        <ele>107.8</ele>
        <time>2018-03-30T09:44:19Z</time>
      </trkpt>
      <trkpt lat="38.2864060" lon="-0.6662400">
        <ele>107.9</ele>
        <time>2018-03-30T09:44:20Z</time>
      </trkpt>
      <trkpt lat="38.2863810" lon="-0.6662210">
        <ele>108.0</ele>
        <time>2018-03-30T09:44:21Z</time>
      </trkpt>
      <trkpt lat="38.2863550" lon="-0.6661990">
        <ele>107.5</ele>
        <time>2018-03-30T09:44:22Z</time>
      </trkpt>
      <trkpt lat="38.2863260" lon="-0.6661810">
        <ele>107.0</ele>
        <time>2018-03-30T09:44:23Z</time>
      </trkpt>
      <trkpt lat="38.2862900" lon="-0.6661800">
        <ele>107.0</ele>
        <time>2018-03-30T09:44:24Z</time>
      </trkpt>
      <trkpt lat="38.2862560" lon="-0.6662030">
        <ele>107.1</ele>
        <time>2018-03-30T09:44:25Z</time>
      </trkpt>
      <trkpt lat="38.2862280" lon="-0.6662330">
        <ele>107.1</ele>
        <time>2018-03-30T09:44:26Z</time>
      </trkpt>
      <trkpt lat="38.2862210" lon="-0.6662790">
        <ele>107.2</ele>
        <time>2018-03-30T09:44:27Z</time>
      </trkpt>
      <trkpt lat="38.2862170" lon="-0.6663280">
        <ele>107.3</ele>
        <time>2018-03-30T09:44:28Z</time>
      </trkpt>
      <trkpt lat="38.2862080" lon="-0.6663820">
        <ele>107.3</ele>
        <time>2018-03-30T09:44:29Z</time>
      </trkpt>
      <trkpt lat="38.2861990" lon="-0.6664440">
        <ele>107.4</ele>
        <time>2018-03-30T09:44:30Z</time>
      </trkpt>
      <trkpt lat="38.2861870" lon="-0.6665060">
        <ele>107.4</ele>
        <time>2018-03-30T09:44:31Z</time>
      </trkpt>
      <trkpt lat="38.2861780" lon="-0.6665690">
        <ele>107.5</ele>
        <time>2018-03-30T09:44:32Z</time>
      </trkpt>
      <trkpt lat="38.2861660" lon="-0.6666350">
        <ele>107.5</ele>
        <time>2018-03-30T09:44:33Z</time>
      </trkpt>
      <trkpt lat="38.2861520" lon="-0.6667060">
        <ele>107.6</ele>
        <time>2018-03-30T09:44:34Z</time>
      </trkpt>
      <trkpt lat="38.2861400" lon="-0.6667800">
        <ele>107.6</ele>
        <time>2018-03-30T09:44:35Z</time>
      </trkpt>
      <trkpt lat="38.2861280" lon="-0.6668530">
        <ele>107.7</ele>
        <time>2018-03-30T09:44:36Z</time>
      </trkpt>
      <trkpt lat="38.2861170" lon="-0.6669240">
        <ele>107.7</ele>
        <time>2018-03-30T09:44:37Z</time>
      </trkpt>
      <trkpt lat="38.2861060" lon="-0.6669960">
        <ele>107.8</ele>
        <time>2018-03-30T09:44:38Z</time>
      </trkpt>
      <trkpt lat="38.2860940" lon="-0.6670680">
        <ele>107.8</ele>
        <time>2018-03-30T09:44:39Z</time>
      </trkpt>
      <trkpt lat="38.2860820" lon="-0.6671410">
        <ele>107.9</ele>
        <time>2018-03-30T09:44:40Z</time>
      </trkpt>
      <trkpt lat="38.2860630" lon="-0.6672160">
        <ele>107.9</ele>
        <time>2018-03-30T09:44:41Z</time>
      </trkpt>
      <trkpt lat="38.2860330" lon="-0.6672770">
        <ele>107.9</ele>
        <time>2018-03-30T09:44:42Z</time>
      </trkpt>
      <trkpt lat="38.2859940" lon="-0.6673500">
        <ele>107.9</ele>
        <time>2018-03-30T09:44:43Z</time>
      </trkpt>
      <trkpt lat="38.2859670" lon="-0.6674300">
        <ele>107.9</ele>
        <time>2018-03-30T09:44:44Z</time>
      </trkpt>
      <trkpt lat="38.2859480" lon="-0.6675080">
        <ele>107.9</ele>
        <time>2018-03-30T09:44:45Z</time>
      </trkpt>
      <trkpt lat="38.2859190" lon="-0.6675830">
        <ele>107.9</ele>
        <time>2018-03-30T09:44:46Z</time>
      </trkpt>
      <trkpt lat="38.2858870" lon="-0.6676560">
        <ele>107.9</ele>
        <time>2018-03-30T09:44:47Z</time>
      </trkpt>
      <trkpt lat="38.2858540" lon="-0.6677230">
        <ele>107.9</ele>
        <time>2018-03-30T09:44:48Z</time>
      </trkpt>
      <trkpt lat="38.2858240" lon="-0.6677890">
        <ele>107.7</ele>
        <time>2018-03-30T09:44:49Z</time>
      </trkpt>
      <trkpt lat="38.2857970" lon="-0.6678490">
        <ele>107.6</ele>
        <time>2018-03-30T09:44:50Z</time>
      </trkpt>
      <trkpt lat="38.2857770" lon="-0.6678930">
        <ele>107.5</ele>
        <time>2018-03-30T09:44:51Z</time>
      </trkpt>
      <trkpt lat="38.2857610" lon="-0.6679260">
        <ele>107.4</ele>
        <time>2018-03-30T09:44:52Z</time>
      </trkpt>
      <trkpt lat="38.2857370" lon="-0.6679360">
        <ele>107.4</ele>
        <time>2018-03-30T09:44:53Z</time>
      </trkpt>
      <trkpt lat="38.2857030" lon="-0.6679540">
        <ele>107.4</ele>
        <time>2018-03-30T09:44:54Z</time>
      </trkpt>
      <trkpt lat="38.2856700" lon="-0.6679650">
        <ele>107.4</ele>
        <time>2018-03-30T09:44:55Z</time>
      </trkpt>
      <trkpt lat="38.2856330" lon="-0.6679770">
        <ele>107.3</ele>
        <time>2018-03-30T09:44:56Z</time>
      </trkpt>
      <trkpt lat="38.2855790" lon="-0.6679890">
        <ele>107.3</ele>
        <time>2018-03-30T09:44:57Z</time>
      </trkpt>
      <trkpt lat="38.2855280" lon="-0.6679990">
        <ele>107.2</ele>
        <time>2018-03-30T09:44:58Z</time>
      </trkpt>
      <trkpt lat="38.2854740" lon="-0.6680060">
        <ele>107.2</ele>
        <time>2018-03-30T09:44:59Z</time>
      </trkpt>
      <trkpt lat="38.2854170" lon="-0.6680180">
        <ele>107.2</ele>
        <time>2018-03-30T09:45:00Z</time>
      </trkpt>
      <trkpt lat="38.2853600" lon="-0.6680250">
        <ele>107.1</ele>
        <time>2018-03-30T09:45:01Z</time>
      </trkpt>
      <trkpt lat="38.2853030" lon="-0.6680360">
        <ele>107.1</ele>
        <time>2018-03-30T09:45:02Z</time>
      </trkpt>
      <trkpt lat="38.2852440" lon="-0.6680480">
        <ele>107.0</ele>
        <time>2018-03-30T09:45:03Z</time>
      </trkpt>
      <trkpt lat="38.2851850" lon="-0.6680600">
        <ele>107.0</ele>
        <time>2018-03-30T09:45:04Z</time>
      </trkpt>
      <trkpt lat="38.2851250" lon="-0.6680710">
        <ele>106.9</ele>
        <time>2018-03-30T09:45:05Z</time>
      </trkpt>
      <trkpt lat="38.2850660" lon="-0.6680840">
        <ele>106.7</ele>
        <time>2018-03-30T09:45:06Z</time>
      </trkpt>
      <trkpt lat="38.2850060" lon="-0.6681010">
        <ele>106.4</ele>
        <time>2018-03-30T09:45:07Z</time>
      </trkpt>
      <trkpt lat="38.2849430" lon="-0.6681230">
        <ele>106.2</ele>
        <time>2018-03-30T09:45:08Z</time>
      </trkpt>
      <trkpt lat="38.2848840" lon="-0.6681510">
        <ele>105.7</ele>
        <time>2018-03-30T09:45:09Z</time>
      </trkpt>
      <trkpt lat="38.2848250" lon="-0.6681880">
        <ele>105.3</ele>
        <time>2018-03-30T09:45:10Z</time>
      </trkpt>
      <trkpt lat="38.2847640" lon="-0.6682290">
        <ele>105.0</ele>
        <time>2018-03-30T09:45:11Z</time>
      </trkpt>
      <trkpt lat="38.2847040" lon="-0.6682700">
        <ele>104.6</ele>
        <time>2018-03-30T09:45:12Z</time>
      </trkpt>
      <trkpt lat="38.2846420" lon="-0.6683110">
        <ele>104.0</ele>
        <time>2018-03-30T09:45:13Z</time>
      </trkpt>
      <trkpt lat="38.2845790" lon="-0.6683520">
        <ele>103.4</ele>
        <time>2018-03-30T09:45:14Z</time>
      </trkpt>
      <trkpt lat="38.2845130" lon="-0.6683900">
        <ele>103.0</ele>
        <time>2018-03-30T09:45:15Z</time>
      </trkpt>
      <trkpt lat="38.2844450" lon="-0.6684200">
        <ele>103.0</ele>
        <time>2018-03-30T09:45:16Z</time>
      </trkpt>
      <trkpt lat="38.2843730" lon="-0.6684400">
        <ele>103.0</ele>
        <time>2018-03-30T09:45:17Z</time>
      </trkpt>
      <trkpt lat="38.2843010" lon="-0.6684440">
        <ele>102.9</ele>
        <time>2018-03-30T09:45:18Z</time>
      </trkpt>
      <trkpt lat="38.2842240" lon="-0.6684410">
        <ele>102.9</ele>
        <time>2018-03-30T09:45:19Z</time>
      </trkpt>
      <trkpt lat="38.2841460" lon="-0.6684330">
        <ele>102.8</ele>
        <time>2018-03-30T09:45:20Z</time>
      </trkpt>
      <trkpt lat="38.2840670" lon="-0.6684220">
        <ele>102.6</ele>
        <time>2018-03-30T09:45:21Z</time>
      </trkpt>
      <trkpt lat="38.2839830" lon="-0.6684090">
        <ele>102.4</ele>
        <time>2018-03-30T09:45:22Z</time>
      </trkpt>
      <trkpt lat="38.2838950" lon="-0.6683990">
        <ele>102.2</ele>
        <time>2018-03-30T09:45:23Z</time>
      </trkpt>
      <trkpt lat="38.2838050" lon="-0.6683940">
        <ele>101.8</ele>
        <time>2018-03-30T09:45:24Z</time>
      </trkpt>
      <trkpt lat="38.2837170" lon="-0.6684000">
        <ele>101.4</ele>
        <time>2018-03-30T09:45:25Z</time>
      </trkpt>
      <trkpt lat="38.2836290" lon="-0.6684180">
        <ele>101.1</ele>
        <time>2018-03-30T09:45:26Z</time>
      </trkpt>
      <trkpt lat="38.2835380" lon="-0.6684480">
        <ele>100.8</ele>
        <time>2018-03-30T09:45:27Z</time>
      </trkpt>
      <trkpt lat="38.2834460" lon="-0.6684810">
        <ele>100.5</ele>
        <time>2018-03-30T09:45:28Z</time>
      </trkpt>
      <trkpt lat="38.2833570" lon="-0.6685130">
        <ele>100.2</ele>
        <time>2018-03-30T09:45:29Z</time>
      </trkpt>
      <trkpt lat="38.2832660" lon="-0.6685420">
        <ele>100.0</ele>
        <time>2018-03-30T09:45:30Z</time>
      </trkpt>
      <trkpt lat="38.2831750" lon="-0.6685690">
        <ele>99.8</ele>
        <time>2018-03-30T09:45:31Z</time>
      </trkpt>
      <trkpt lat="38.2830840" lon="-0.6685950">
        <ele>99.5</ele>
        <time>2018-03-30T09:45:32Z</time>
      </trkpt>
      <trkpt lat="38.2829940" lon="-0.6686170">
        <ele>99.3</ele>
        <time>2018-03-30T09:45:33Z</time>
      </trkpt>
      <trkpt lat="38.2829000" lon="-0.6686400">
        <ele>98.7</ele>
        <time>2018-03-30T09:45:34Z</time>
      </trkpt>
      <trkpt lat="38.2828010" lon="-0.6686600">
        <ele>98.1</ele>
        <time>2018-03-30T09:45:35Z</time>
      </trkpt>
      <trkpt lat="38.2826980" lon="-0.6686780">
        <ele>98.0</ele>
        <time>2018-03-30T09:45:36Z</time>
      </trkpt>
      <trkpt lat="38.2825980" lon="-0.6686970">
        <ele>98.3</ele>
        <time>2018-03-30T09:45:37Z</time>
      </trkpt>
      <trkpt lat="38.2825040" lon="-0.6687100">
        <ele>98.6</ele>
        <time>2018-03-30T09:45:38Z</time>
      </trkpt>
      <trkpt lat="38.2824130" lon="-0.6687220">
        <ele>98.8</ele>
        <time>2018-03-30T09:45:39Z</time>
      </trkpt>
      <trkpt lat="38.2823290" lon="-0.6687380">
        <ele>98.9</ele>
        <time>2018-03-30T09:45:40Z</time>
      </trkpt>
      <trkpt lat="38.2822450" lon="-0.6687600">
        <ele>99.0</ele>
        <time>2018-03-30T09:45:41Z</time>
      </trkpt>
      <trkpt lat="38.2821640" lon="-0.6687910">
        <ele>99.1</ele>
        <time>2018-03-30T09:45:42Z</time>
      </trkpt>
      <trkpt lat="38.2820830" lon="-0.6688310">
        <ele>99.2</ele>
        <time>2018-03-30T09:45:43Z</time>
      </trkpt>
      <trkpt lat="38.2820090" lon="-0.6688830">
        <ele>99.3</ele>
        <time>2018-03-30T09:45:44Z</time>
      </trkpt>
      <trkpt lat="38.2819350" lon="-0.6689390">
        <ele>99.4</ele>
        <time>2018-03-30T09:45:45Z</time>
      </trkpt>
      <trkpt lat="38.2818790" lon="-0.6690070">
        <ele>99.6</ele>
        <time>2018-03-30T09:45:46Z</time>
      </trkpt>
      <trkpt lat="38.2818200" lon="-0.6690750">
        <ele>99.8</ele>
        <time>2018-03-30T09:45:47Z</time>
      </trkpt>
      <trkpt lat="38.2817640" lon="-0.6691410">
        <ele>99.9</ele>
        <time>2018-03-30T09:45:48Z</time>
      </trkpt>
      <trkpt lat="38.2817110" lon="-0.6692080">
        <ele>100.0</ele>
        <time>2018-03-30T09:45:49Z</time>
      </trkpt>
      <trkpt lat="38.2816620" lon="-0.6692790">
        <ele>100.0</ele>
        <time>2018-03-30T09:45:50Z</time>
      </trkpt>
      <trkpt lat="38.2816140" lon="-0.6693510">
        <ele>100.0</ele>
        <time>2018-03-30T09:45:51Z</time>
      </trkpt>
      <trkpt lat="38.2815640" lon="-0.6694240">
        <ele>100.1</ele>
        <time>2018-03-30T09:45:52Z</time>
      </trkpt>
      <trkpt lat="38.2815140" lon="-0.6694970">
        <ele>100.1</ele>
        <time>2018-03-30T09:45:53Z</time>
      </trkpt>
      <trkpt lat="38.2814630" lon="-0.6695670">
        <ele>100.1</ele>
        <time>2018-03-30T09:45:54Z</time>
      </trkpt>
      <trkpt lat="38.2814090" lon="-0.6696350">
        <ele>100.1</ele>
        <time>2018-03-30T09:45:55Z</time>
      </trkpt>
      <trkpt lat="38.2813520" lon="-0.6697000">
        <ele>100.1</ele>
        <time>2018-03-30T09:45:56Z</time>
      </trkpt>
      <trkpt lat="38.2812920" lon="-0.6697640">
        <ele>100.1</ele>
        <time>2018-03-30T09:45:57Z</time>
      </trkpt>
      <trkpt lat="38.2812290" lon="-0.6698270">
        <ele>100.0</ele>
        <time>2018-03-30T09:45:58Z</time>
      </trkpt>
      <trkpt lat="38.2811650" lon="-0.6698880">
        <ele>100.0</ele>
        <time>2018-03-30T09:45:59Z</time>
      </trkpt>
      <trkpt lat="38.2811020" lon="-0.6699470">
        <ele>99.9</ele>
        <time>2018-03-30T09:46:00Z</time>
      </trkpt>
      <trkpt lat="38.2810390" lon="-0.6700050">
        <ele>99.8</ele>
        <time>2018-03-30T09:46:01Z</time>
      </trkpt>
      <trkpt lat="38.2809760" lon="-0.6700600">
        <ele>99.7</ele>
        <time>2018-03-30T09:46:02Z</time>
      </trkpt>
      <trkpt lat="38.2809100" lon="-0.6701090">
        <ele>99.7</ele>
        <time>2018-03-30T09:46:03Z</time>
      </trkpt>
      <trkpt lat="38.2808450" lon="-0.6701580">
        <ele>99.5</ele>
        <time>2018-03-30T09:46:04Z</time>
      </trkpt>
      <trkpt lat="38.2807800" lon="-0.6702050">
        <ele>99.3</ele>
        <time>2018-03-30T09:46:05Z</time>
      </trkpt>
      <trkpt lat="38.2807160" lon="-0.6702500">
        <ele>99.1</ele>
        <time>2018-03-30T09:46:06Z</time>
      </trkpt>
      <trkpt lat="38.2806520" lon="-0.6702920">
        <ele>98.9</ele>
        <time>2018-03-30T09:46:07Z</time>
      </trkpt>
      <trkpt lat="38.2805900" lon="-0.6703370">
        <ele>98.7</ele>
        <time>2018-03-30T09:46:08Z</time>
      </trkpt>
      <trkpt lat="38.2805300" lon="-0.6703820">
        <ele>98.4</ele>
        <time>2018-03-30T09:46:09Z</time>
      </trkpt>
      <trkpt lat="38.2804700" lon="-0.6704250">
        <ele>98.2</ele>
        <time>2018-03-30T09:46:10Z</time>
      </trkpt>
      <trkpt lat="38.2804100" lon="-0.6704700">
        <ele>97.9</ele>
        <time>2018-03-30T09:46:11Z</time>
      </trkpt>
      <trkpt lat="38.2803500" lon="-0.6705140">
        <ele>97.7</ele>
        <time>2018-03-30T09:46:12Z</time>
      </trkpt>
      <trkpt lat="38.2802910" lon="-0.6705620">
        <ele>97.6</ele>
        <time>2018-03-30T09:46:13Z</time>
      </trkpt>
      <trkpt lat="38.2802300" lon="-0.6706040">
        <ele>97.5</ele>
        <time>2018-03-30T09:46:14Z</time>
      </trkpt>
      <trkpt lat="38.2801690" lon="-0.6706470">
        <ele>97.4</ele>
        <time>2018-03-30T09:46:15Z</time>
      </trkpt>
      <trkpt lat="38.2801120" lon="-0.6706940">
        <ele>97.3</ele>
        <time>2018-03-30T09:46:16Z</time>
      </trkpt>
      <trkpt lat="38.2800560" lon="-0.6707410">
        <ele>97.3</ele>
        <time>2018-03-30T09:46:17Z</time>
      </trkpt>
      <trkpt lat="38.2800030" lon="-0.6707920">
        <ele>97.2</ele>
        <time>2018-03-30T09:46:18Z</time>
      </trkpt>
      <trkpt lat="38.2799540" lon="-0.6708480">
        <ele>97.1</ele>
        <time>2018-03-30T09:46:19Z</time>
      </trkpt>
      <trkpt lat="38.2799070" lon="-0.6709060">
        <ele>97.0</ele>
        <time>2018-03-30T09:46:20Z</time>
      </trkpt>
      <trkpt lat="38.2798600" lon="-0.6709640">
        <ele>96.9</ele>
        <time>2018-03-30T09:46:21Z</time>
      </trkpt>
      <trkpt lat="38.2798140" lon="-0.6710190">
        <ele>96.7</ele>
        <time>2018-03-30T09:46:22Z</time>
      </trkpt>
      <trkpt lat="38.2797620" lon="-0.6710660">
        <ele>96.5</ele>
        <time>2018-03-30T09:46:23Z</time>
      </trkpt>
      <trkpt lat="38.2797030" lon="-0.6710920">
        <ele>96.3</ele>
        <time>2018-03-30T09:46:24Z</time>
      </trkpt>
      <trkpt lat="38.2796460" lon="-0.6711230">
        <ele>96.2</ele>
        <time>2018-03-30T09:46:25Z</time>
      </trkpt>
      <trkpt lat="38.2796000" lon="-0.6711670">
        <ele>96.0</ele>
        <time>2018-03-30T09:46:26Z</time>
      </trkpt>
      <trkpt lat="38.2795600" lon="-0.6712270">
        <ele>96.0</ele>
        <time>2018-03-30T09:46:27Z</time>
      </trkpt>
      <trkpt lat="38.2795170" lon="-0.6712870">
        <ele>96.0</ele>
        <time>2018-03-30T09:46:28Z</time>
      </trkpt>
      <trkpt lat="38.2794760" lon="-0.6713460">
        <ele>95.9</ele>
        <time>2018-03-30T09:46:29Z</time>
      </trkpt>
      <trkpt lat="38.2794410" lon="-0.6714010">
        <ele>95.9</ele>
        <time>2018-03-30T09:46:30Z</time>
      </trkpt>
      <trkpt lat="38.2794300" lon="-0.6714550">
        <ele>95.9</ele>
        <time>2018-03-30T09:46:31Z</time>
      </trkpt>
      <trkpt lat="38.2794380" lon="-0.6715100">
        <ele>95.9</ele>
        <time>2018-03-30T09:46:32Z</time>
      </trkpt>
      <trkpt lat="38.2794290" lon="-0.6715670">
        <ele>95.9</ele>
        <time>2018-03-30T09:46:33Z</time>
      </trkpt>
      <trkpt lat="38.2794160" lon="-0.6716210">
        <ele>96.0</ele>
        <time>2018-03-30T09:46:34Z</time>
      </trkpt>
      <trkpt lat="38.2794070" lon="-0.6716810">
        <ele>96.0</ele>
        <time>2018-03-30T09:46:35Z</time>
      </trkpt>
      <trkpt lat="38.2794020" lon="-0.6717770">
        <ele>96.0</ele>
        <time>2018-03-30T09:46:36Z</time>
      </trkpt>
      <trkpt lat="38.2793980" lon="-0.6718660">
        <ele>96.1</ele>
        <time>2018-03-30T09:46:37Z</time>
      </trkpt>
      <trkpt lat="38.2793890" lon="-0.6719420">
        <ele>96.1</ele>
        <time>2018-03-30T09:46:38Z</time>
      </trkpt>
      <trkpt lat="38.2793810" lon="-0.6720200">
        <ele>96.2</ele>
        <time>2018-03-30T09:46:39Z</time>
      </trkpt>
      <trkpt lat="38.2793710" lon="-0.6720920">
        <ele>96.2</ele>
        <time>2018-03-30T09:46:40Z</time>
      </trkpt>
      <trkpt lat="38.2793630" lon="-0.6721680">
        <ele>96.3</ele>
        <time>2018-03-30T09:46:41Z</time>
      </trkpt>
      <trkpt lat="38.2793480" lon="-0.6722430">
        <ele>96.3</ele>
        <time>2018-03-30T09:46:42Z</time>
      </trkpt>
      <trkpt lat="38.2793370" lon="-0.6723130">
        <ele>96.3</ele>
        <time>2018-03-30T09:46:43Z</time>
      </trkpt>
      <trkpt lat="38.2793280" lon="-0.6723810">
        <ele>96.4</ele>
        <time>2018-03-30T09:46:44Z</time>
      </trkpt>
      <trkpt lat="38.2793160" lon="-0.6724560">
        <ele>96.4</ele>
        <time>2018-03-30T09:46:45Z</time>
      </trkpt>
      <trkpt lat="38.2793050" lon="-0.6725290">
        <ele>96.5</ele>
        <time>2018-03-30T09:46:46Z</time>
      </trkpt>
      <trkpt lat="38.2792980" lon="-0.6726010">
        <ele>96.5</ele>
        <time>2018-03-30T09:46:47Z</time>
      </trkpt>
      <trkpt lat="38.2792830" lon="-0.6726740">
        <ele>96.5</ele>
        <time>2018-03-30T09:46:48Z</time>
      </trkpt>
      <trkpt lat="38.2792660" lon="-0.6727450">
        <ele>96.6</ele>
        <time>2018-03-30T09:46:49Z</time>
      </trkpt>
      <trkpt lat="38.2792550" lon="-0.6728110">
        <ele>96.6</ele>
        <time>2018-03-30T09:46:50Z</time>
      </trkpt>
      <trkpt lat="38.2792420" lon="-0.6728760">
        <ele>96.6</ele>
        <time>2018-03-30T09:46:51Z</time>
      </trkpt>
      <trkpt lat="38.2792300" lon="-0.6729440">
        <ele>96.7</ele>
        <time>2018-03-30T09:46:52Z</time>
      </trkpt>
      <trkpt lat="38.2792170" lon="-0.6730140">
        <ele>96.7</ele>
        <time>2018-03-30T09:46:53Z</time>
      </trkpt>
      <trkpt lat="38.2792020" lon="-0.6730810">
        <ele>96.7</ele>
        <time>2018-03-30T09:46:54Z</time>
      </trkpt>
      <trkpt lat="38.2791890" lon="-0.6731510">
        <ele>96.7</ele>
        <time>2018-03-30T09:46:55Z</time>
      </trkpt>
      <trkpt lat="38.2791750" lon="-0.6732230">
        <ele>96.7</ele>
        <time>2018-03-30T09:46:56Z</time>
      </trkpt>
      <trkpt lat="38.2791640" lon="-0.6732920">
        <ele>96.8</ele>
        <time>2018-03-30T09:46:57Z</time>
      </trkpt>
      <trkpt lat="38.2791560" lon="-0.6733660">
        <ele>96.8</ele>
        <time>2018-03-30T09:46:58Z</time>
      </trkpt>
      <trkpt lat="38.2791400" lon="-0.6734370">
        <ele>96.9</ele>
        <time>2018-03-30T09:46:59Z</time>
      </trkpt>
      <trkpt lat="38.2791330" lon="-0.6735060">
        <ele>97.0</ele>
        <time>2018-03-30T09:47:00Z</time>
      </trkpt>
      <trkpt lat="38.2791250" lon="-0.6735750">
        <ele>97.1</ele>
        <time>2018-03-30T09:47:01Z</time>
      </trkpt>
      <trkpt lat="38.2791120" lon="-0.6736460">
        <ele>97.3</ele>
        <time>2018-03-30T09:47:02Z</time>
      </trkpt>
      <trkpt lat="38.2791020" lon="-0.6737200">
        <ele>97.4</ele>
        <time>2018-03-30T09:47:03Z</time>
      </trkpt>
      <trkpt lat="38.2790930" lon="-0.6737930">
        <ele>97.5</ele>
        <time>2018-03-30T09:47:04Z</time>
      </trkpt>
      <trkpt lat="38.2790810" lon="-0.6738600">
        <ele>97.6</ele>
        <time>2018-03-30T09:47:05Z</time>
      </trkpt>
      <trkpt lat="38.2790690" lon="-0.6739280">
        <ele>97.7</ele>
        <time>2018-03-30T09:47:06Z</time>
      </trkpt>
      <trkpt lat="38.2790610" lon="-0.6739940">
        <ele>97.8</ele>
        <time>2018-03-30T09:47:07Z</time>
      </trkpt>
      <trkpt lat="38.2790470" lon="-0.6740650">
        <ele>97.8</ele>
        <time>2018-03-30T09:47:08Z</time>
      </trkpt>
      <trkpt lat="38.2790450" lon="-0.6741390">
        <ele>97.9</ele>
        <time>2018-03-30T09:47:09Z</time>
      </trkpt>
      <trkpt lat="38.2790380" lon="-0.6742230">
        <ele>98.0</ele>
        <time>2018-03-30T09:47:10Z</time>
      </trkpt>
      <trkpt lat="38.2790270" lon="-0.6742960">
        <ele>98.0</ele>
        <time>2018-03-30T09:47:11Z</time>
      </trkpt>
      <trkpt lat="38.2790170" lon="-0.6743740">
        <ele>97.9</ele>
        <time>2018-03-30T09:47:12Z</time>
      </trkpt>
      <trkpt lat="38.2790000" lon="-0.6744500">
        <ele>97.9</ele>
        <time>2018-03-30T09:47:13Z</time>
      </trkpt>
      <trkpt lat="38.2789840" lon="-0.6745250">
        <ele>97.9</ele>
        <time>2018-03-30T09:47:14Z</time>
      </trkpt>
      <trkpt lat="38.2789680" lon="-0.6745970">
        <ele>97.9</ele>
        <time>2018-03-30T09:47:15Z</time>
      </trkpt>
      <trkpt lat="38.2789570" lon="-0.6746750">
        <ele>97.8</ele>
        <time>2018-03-30T09:47:16Z</time>
      </trkpt>
      <trkpt lat="38.2789450" lon="-0.6747500">
        <ele>97.8</ele>
        <time>2018-03-30T09:47:17Z</time>
      </trkpt>
      <trkpt lat="38.2789330" lon="-0.6748240">
        <ele>97.7</ele>
        <time>2018-03-30T09:47:18Z</time>
      </trkpt>
      <trkpt lat="38.2789220" lon="-0.6748980">
        <ele>97.7</ele>
        <time>2018-03-30T09:47:19Z</time>
      </trkpt>
      <trkpt lat="38.2789150" lon="-0.6749720">
        <ele>97.6</ele>
        <time>2018-03-30T09:47:20Z</time>
      </trkpt>
      <trkpt lat="38.2789070" lon="-0.6750450">
        <ele>97.6</ele>
        <time>2018-03-30T09:47:21Z</time>
      </trkpt>
      <trkpt lat="38.2788960" lon="-0.6751160">
        <ele>97.6</ele>
        <time>2018-03-30T09:47:22Z</time>
      </trkpt>
      <trkpt lat="38.2788830" lon="-0.6751850">
        <ele>97.5</ele>
        <time>2018-03-30T09:47:23Z</time>
      </trkpt>
      <trkpt lat="38.2788720" lon="-0.6752550">
        <ele>97.5</ele>
        <time>2018-03-30T09:47:24Z</time>
      </trkpt>
      <trkpt lat="38.2788580" lon="-0.6753300">
        <ele>97.4</ele>
        <time>2018-03-30T09:47:25Z</time>
      </trkpt>
      <trkpt lat="38.2788450" lon="-0.6754020">
        <ele>97.3</ele>
        <time>2018-03-30T09:47:26Z</time>
      </trkpt>
      <trkpt lat="38.2788350" lon="-0.6754740">
        <ele>97.3</ele>
        <time>2018-03-30T09:47:27Z</time>
      </trkpt>
      <trkpt lat="38.2788240" lon="-0.6755490">
        <ele>97.2</ele>
        <time>2018-03-30T09:47:28Z</time>
      </trkpt>
      <trkpt lat="38.2788090" lon="-0.6756230">
        <ele>97.2</ele>
        <time>2018-03-30T09:47:29Z</time>
      </trkpt>
      <trkpt lat="38.2788010" lon="-0.6756970">
        <ele>97.1</ele>
        <time>2018-03-30T09:47:30Z</time>
      </trkpt>
      <trkpt lat="38.2787920" lon="-0.6757710">
        <ele>97.1</ele>
        <time>2018-03-30T09:47:31Z</time>
      </trkpt>
      <trkpt lat="38.2787830" lon="-0.6758460">
        <ele>97.0</ele>
        <time>2018-03-30T09:47:32Z</time>
      </trkpt>
      <trkpt lat="38.2787770" lon="-0.6759150">
        <ele>97.0</ele>
        <time>2018-03-30T09:47:33Z</time>
      </trkpt>
      <trkpt lat="38.2787670" lon="-0.6759830">
        <ele>97.0</ele>
        <time>2018-03-30T09:47:34Z</time>
      </trkpt>
      <trkpt lat="38.2787610" lon="-0.6760560">
        <ele>96.9</ele>
        <time>2018-03-30T09:47:35Z</time>
      </trkpt>
      <trkpt lat="38.2787500" lon="-0.6761400">
        <ele>96.9</ele>
        <time>2018-03-30T09:47:36Z</time>
      </trkpt>
      <trkpt lat="38.2787380" lon="-0.6762240">
        <ele>96.8</ele>
        <time>2018-03-30T09:47:37Z</time>
      </trkpt>
      <trkpt lat="38.2787180" lon="-0.6763000">
        <ele>96.7</ele>
        <time>2018-03-30T09:47:38Z</time>
      </trkpt>
      <trkpt lat="38.2786900" lon="-0.6763780">
        <ele>96.6</ele>
        <time>2018-03-30T09:47:39Z</time>
      </trkpt>
      <trkpt lat="38.2786690" lon="-0.6764510">
        <ele>96.6</ele>
        <time>2018-03-30T09:47:40Z</time>
      </trkpt>
      <trkpt lat="38.2786600" lon="-0.6765320">
        <ele>96.5</ele>
        <time>2018-03-30T09:47:41Z</time>
      </trkpt>
      <trkpt lat="38.2786420" lon="-0.6766080">
        <ele>96.4</ele>
        <time>2018-03-30T09:47:42Z</time>
      </trkpt>
      <trkpt lat="38.2786300" lon="-0.6766840">
        <ele>96.4</ele>
        <time>2018-03-30T09:47:43Z</time>
      </trkpt>
      <trkpt lat="38.2786180" lon="-0.6767630">
        <ele>96.3</ele>
        <time>2018-03-30T09:47:44Z</time>
      </trkpt>
      <trkpt lat="38.2786050" lon="-0.6768460">
        <ele>96.2</ele>
        <time>2018-03-30T09:47:45Z</time>
      </trkpt>
      <trkpt lat="38.2785910" lon="-0.6769260">
        <ele>96.1</ele>
        <time>2018-03-30T09:47:46Z</time>
      </trkpt>
      <trkpt lat="38.2785830" lon="-0.6770040">
        <ele>96.1</ele>
        <time>2018-03-30T09:47:47Z</time>
      </trkpt>
      <trkpt lat="38.2785680" lon="-0.6770850">
        <ele>96.0</ele>
        <time>2018-03-30T09:47:48Z</time>
      </trkpt>
      <trkpt lat="38.2785540" lon="-0.6771630">
        <ele>96.0</ele>
        <time>2018-03-30T09:47:49Z</time>
      </trkpt>
      <trkpt lat="38.2785390" lon="-0.6772430">
        <ele>95.9</ele>
        <time>2018-03-30T09:47:50Z</time>
      </trkpt>
      <trkpt lat="38.2785260" lon="-0.6773270">
        <ele>95.8</ele>
        <time>2018-03-30T09:47:51Z</time>
      </trkpt>
      <trkpt lat="38.2785110" lon="-0.6774090">
        <ele>95.8</ele>
        <time>2018-03-30T09:47:52Z</time>
      </trkpt>
      <trkpt lat="38.2785050" lon="-0.6774920">
        <ele>95.7</ele>
        <time>2018-03-30T09:47:53Z</time>
      </trkpt>
      <trkpt lat="38.2784940" lon="-0.6775710">
        <ele>95.6</ele>
        <time>2018-03-30T09:47:54Z</time>
      </trkpt>
      <trkpt lat="38.2784820" lon="-0.6776480">
        <ele>95.5</ele>
        <time>2018-03-30T09:47:55Z</time>
      </trkpt>
      <trkpt lat="38.2784650" lon="-0.6777260">
        <ele>95.5</ele>
        <time>2018-03-30T09:47:56Z</time>
      </trkpt>
      <trkpt lat="38.2784510" lon="-0.6778010">
        <ele>95.5</ele>
        <time>2018-03-30T09:47:57Z</time>
      </trkpt>
      <trkpt lat="38.2784400" lon="-0.6778770">
        <ele>95.4</ele>
        <time>2018-03-30T09:47:58Z</time>
      </trkpt>
      <trkpt lat="38.2784230" lon="-0.6779560">
        <ele>95.4</ele>
        <time>2018-03-30T09:47:59Z</time>
      </trkpt>
      <trkpt lat="38.2784080" lon="-0.6780310">
        <ele>95.3</ele>
        <time>2018-03-30T09:48:00Z</time>
      </trkpt>
      <trkpt lat="38.2783890" lon="-0.6781050">
        <ele>95.3</ele>
        <time>2018-03-30T09:48:01Z</time>
      </trkpt>
      <trkpt lat="38.2783810" lon="-0.6781790">
        <ele>95.3</ele>
        <time>2018-03-30T09:48:02Z</time>
      </trkpt>
      <trkpt lat="38.2783750" lon="-0.6782530">
        <ele>95.2</ele>
        <time>2018-03-30T09:48:03Z</time>
      </trkpt>
      <trkpt lat="38.2783600" lon="-0.6783310">
        <ele>95.2</ele>
        <time>2018-03-30T09:48:04Z</time>
      </trkpt>
      <trkpt lat="38.2783390" lon="-0.6784080">
        <ele>95.1</ele>
        <time>2018-03-30T09:48:05Z</time>
      </trkpt>
      <trkpt lat="38.2783180" lon="-0.6784930">
        <ele>95.1</ele>
        <time>2018-03-30T09:48:06Z</time>
      </trkpt>
      <trkpt lat="38.2783140" lon="-0.6785720">
        <ele>95.0</ele>
        <time>2018-03-30T09:48:07Z</time>
      </trkpt>
      <trkpt lat="38.2783020" lon="-0.6786460">
        <ele>94.7</ele>
        <time>2018-03-30T09:48:08Z</time>
      </trkpt>
      <trkpt lat="38.2782900" lon="-0.6787210">
        <ele>94.5</ele>
        <time>2018-03-30T09:48:09Z</time>
      </trkpt>
      <trkpt lat="38.2782840" lon="-0.6787940">
        <ele>94.4</ele>
        <time>2018-03-30T09:48:10Z</time>
      </trkpt>
      <trkpt lat="38.2782770" lon="-0.6788700">
        <ele>94.3</ele>
        <time>2018-03-30T09:48:11Z</time>
      </trkpt>
      <trkpt lat="38.2782650" lon="-0.6789460">
        <ele>94.2</ele>
        <time>2018-03-30T09:48:12Z</time>
      </trkpt>
      <trkpt lat="38.2782550" lon="-0.6790230">
        <ele>94.2</ele>
        <time>2018-03-30T09:48:13Z</time>
      </trkpt>
      <trkpt lat="38.2782360" lon="-0.6791020">
        <ele>94.1</ele>
        <time>2018-03-30T09:48:14Z</time>
      </trkpt>
      <trkpt lat="38.2782120" lon="-0.6791790">
        <ele>94.1</ele>
        <time>2018-03-30T09:48:15Z</time>
      </trkpt>
      <trkpt lat="38.2781910" lon="-0.6792570">
        <ele>94.0</ele>
        <time>2018-03-30T09:48:16Z</time>
      </trkpt>
      <trkpt lat="38.2781810" lon="-0.6793340">
        <ele>94.0</ele>
        <time>2018-03-30T09:48:17Z</time>
      </trkpt>
      <trkpt lat="38.2781670" lon="-0.6794120">
        <ele>94.0</ele>
        <time>2018-03-30T09:48:18Z</time>
      </trkpt>
      <trkpt lat="38.2781550" lon="-0.6794890">
        <ele>94.0</ele>
        <time>2018-03-30T09:48:19Z</time>
      </trkpt>
      <trkpt lat="38.2781410" lon="-0.6795640">
        <ele>94.0</ele>
        <time>2018-03-30T09:48:20Z</time>
      </trkpt>
      <trkpt lat="38.2781290" lon="-0.6796410">
        <ele>94.0</ele>
        <time>2018-03-30T09:48:21Z</time>
      </trkpt>
      <trkpt lat="38.2781150" lon="-0.6797120">
        <ele>94.0</ele>
        <time>2018-03-30T09:48:22Z</time>
      </trkpt>
      <trkpt lat="38.2781050" lon="-0.6797870">
        <ele>94.0</ele>
        <time>2018-03-30T09:48:23Z</time>
      </trkpt>
      <trkpt lat="38.2780930" lon="-0.6798620">
        <ele>94.0</ele>
        <time>2018-03-30T09:48:24Z</time>
      </trkpt>
      <trkpt lat="38.2780720" lon="-0.6799380">
        <ele>94.0</ele>
        <time>2018-03-30T09:48:25Z</time>
      </trkpt>
      <trkpt lat="38.2780480" lon="-0.6800150">
        <ele>94.0</ele>
        <time>2018-03-30T09:48:26Z</time>
      </trkpt>
      <trkpt lat="38.2780360" lon="-0.6800920">
        <ele>93.9</ele>
        <time>2018-03-30T09:48:27Z</time>
      </trkpt>
      <trkpt lat="38.2780160" lon="-0.6801700">
        <ele>93.9</ele>
        <time>2018-03-30T09:48:28Z</time>
      </trkpt>
      <trkpt lat="38.2780030" lon="-0.6802490">
        <ele>93.8</ele>
        <time>2018-03-30T09:48:29Z</time>
      </trkpt>
      <trkpt lat="38.2779910" lon="-0.6803250">
        <ele>93.8</ele>
        <time>2018-03-30T09:48:30Z</time>
      </trkpt>
      <trkpt lat="38.2779810" lon="-0.6804070">
        <ele>93.7</ele>
        <time>2018-03-30T09:48:31Z</time>
      </trkpt>
      <trkpt lat="38.2779710" lon="-0.6804870">
        <ele>93.7</ele>
        <time>2018-03-30T09:48:32Z</time>
      </trkpt>
      <trkpt lat="38.2779600" lon="-0.6805670">
        <ele>93.7</ele>
        <time>2018-03-30T09:48:33Z</time>
      </trkpt>
      <trkpt lat="38.2779460" lon="-0.6806500">
        <ele>93.6</ele>
        <time>2018-03-30T09:48:34Z</time>
      </trkpt>
      <trkpt lat="38.2779340" lon="-0.6807280">
        <ele>93.6</ele>
        <time>2018-03-30T09:48:35Z</time>
      </trkpt>
      <trkpt lat="38.2779220" lon="-0.6808080">
        <ele>93.5</ele>
        <time>2018-03-30T09:48:36Z</time>
      </trkpt>
      <trkpt lat="38.2779120" lon="-0.6808870">
        <ele>93.4</ele>
        <time>2018-03-30T09:48:37Z</time>
      </trkpt>
      <trkpt lat="38.2779200" lon="-0.6809570">
        <ele>93.2</ele>
        <time>2018-03-30T09:48:38Z</time>
      </trkpt>
      <trkpt lat="38.2779440" lon="-0.6810240">
        <ele>93.1</ele>
        <time>2018-03-30T09:48:39Z</time>
      </trkpt>
      <trkpt lat="38.2779620" lon="-0.6810900">
        <ele>93.0</ele>
        <time>2018-03-30T09:48:40Z</time>
      </trkpt>
      <trkpt lat="38.2779960" lon="-0.6811690">
        <ele>93.0</ele>
        <time>2018-03-30T09:48:41Z</time>
      </trkpt>
      <trkpt lat="38.2780150" lon="-0.6812380">
        <ele>93.0</ele>
        <time>2018-03-30T09:48:42Z</time>
      </trkpt>
      <trkpt lat="38.2780150" lon="-0.6813060">
        <ele>93.0</ele>
        <time>2018-03-30T09:48:43Z</time>
      </trkpt>
      <trkpt lat="38.2780050" lon="-0.6813760">
        <ele>93.0</ele>
        <time>2018-03-30T09:48:44Z</time>
      </trkpt>
      <trkpt lat="38.2779890" lon="-0.6814400">
        <ele>93.0</ele>
        <time>2018-03-30T09:48:45Z</time>
      </trkpt>
      <trkpt lat="38.2779640" lon="-0.6815040">
        <ele>93.0</ele>
        <time>2018-03-30T09:48:46Z</time>
      </trkpt>
      <trkpt lat="38.2779290" lon="-0.6815670">
        <ele>93.0</ele>
        <time>2018-03-30T09:48:47Z</time>
      </trkpt>
      <trkpt lat="38.2778850" lon="-0.6816200">
        <ele>93.0</ele>
        <time>2018-03-30T09:48:48Z</time>
      </trkpt>
      <trkpt lat="38.2778330" lon="-0.6816620">
        <ele>93.1</ele>
        <time>2018-03-30T09:48:49Z</time>
      </trkpt>
      <trkpt lat="38.2777790" lon="-0.6816990">
        <ele>93.2</ele>
        <time>2018-03-30T09:48:50Z</time>
      </trkpt>
      <trkpt lat="38.2777200" lon="-0.6817180">
        <ele>93.2</ele>
        <time>2018-03-30T09:48:51Z</time>
      </trkpt>
      <trkpt lat="38.2776530" lon="-0.6817060">
        <ele>93.1</ele>
        <time>2018-03-30T09:48:52Z</time>
      </trkpt>
      <trkpt lat="38.2775860" lon="-0.6816760">
        <ele>93.1</ele>
        <time>2018-03-30T09:48:53Z</time>
      </trkpt>
      <trkpt lat="38.2775250" lon="-0.6816250">
        <ele>93.0</ele>
        <time>2018-03-30T09:48:54Z</time>
      </trkpt>
      <trkpt lat="38.2774960" lon="-0.6815500">
        <ele>93.0</ele>
        <time>2018-03-30T09:48:55Z</time>
      </trkpt>
      <trkpt lat="38.2774610" lon="-0.6814700">
        <ele>92.9</ele>
        <time>2018-03-30T09:48:56Z</time>
      </trkpt>
      <trkpt lat="38.2774430" lon="-0.6813880">
        <ele>93.0</ele>
        <time>2018-03-30T09:48:57Z</time>
      </trkpt>
      <trkpt lat="38.2774050" lon="-0.6813270">
        <ele>93.0</ele>
        <time>2018-03-30T09:48:58Z</time>
      </trkpt>
      <trkpt lat="38.2773390" lon="-0.6812760">
        <ele>93.0</ele>
        <time>2018-03-30T09:48:59Z</time>
      </trkpt>
      <trkpt lat="38.2772690" lon="-0.6812470">
        <ele>93.0</ele>
        <time>2018-03-30T09:49:00Z</time>
      </trkpt>
      <trkpt lat="38.2772040" lon="-0.6812230">
        <ele>93.0</ele>
        <time>2018-03-30T09:49:01Z</time>
      </trkpt>
      <trkpt lat="38.2771410" lon="-0.6812000">
        <ele>93.0</ele>
        <time>2018-03-30T09:49:02Z</time>
      </trkpt>
      <trkpt lat="38.2770760" lon="-0.6811760">
        <ele>93.1</ele>
        <time>2018-03-30T09:49:03Z</time>
      </trkpt>
      <trkpt lat="38.2770130" lon="-0.6811510">
        <ele>93.1</ele>
        <time>2018-03-30T09:49:04Z</time>
      </trkpt>
      <trkpt lat="38.2769520" lon="-0.6811270">
        <ele>93.0</ele>
        <time>2018-03-30T09:49:05Z</time>
      </trkpt>
      <trkpt lat="38.2768930" lon="-0.6811030">
        <ele>92.9</ele>
        <time>2018-03-30T09:49:06Z</time>
      </trkpt>
      <trkpt lat="38.2768310" lon="-0.6810790">
        <ele>92.7</ele>
        <time>2018-03-30T09:49:07Z</time>
      </trkpt>
      <trkpt lat="38.2767710" lon="-0.6810540">
        <ele>92.4</ele>
        <time>2018-03-30T09:49:08Z</time>
      </trkpt>
      <trkpt lat="38.2767080" lon="-0.6810290">
        <ele>92.1</ele>
        <time>2018-03-30T09:49:09Z</time>
      </trkpt>
      <trkpt lat="38.2766470" lon="-0.6810050">
        <ele>91.9</ele>
        <time>2018-03-30T09:49:10Z</time>
      </trkpt>
      <trkpt lat="38.2765850" lon="-0.6809840">
        <ele>91.7</ele>
        <time>2018-03-30T09:49:11Z</time>
      </trkpt>
      <trkpt lat="38.2765240" lon="-0.6809610">
        <ele>91.6</ele>
        <time>2018-03-30T09:49:12Z</time>
      </trkpt>
      <trkpt lat="38.2764660" lon="-0.6809380">
        <ele>91.6</ele>
        <time>2018-03-30T09:49:13Z</time>
      </trkpt>
      <trkpt lat="38.2764050" lon="-0.6809160">
        <ele>91.6</ele>
        <time>2018-03-30T09:49:14Z</time>
      </trkpt>
      <trkpt lat="38.2763450" lon="-0.6808930">
        <ele>91.7</ele>
        <time>2018-03-30T09:49:15Z</time>
      </trkpt>
      <trkpt lat="38.2762840" lon="-0.6808690">
        <ele>91.7</ele>
        <time>2018-03-30T09:49:16Z</time>
      </trkpt>
      <trkpt lat="38.2762230" lon="-0.6808440">
        <ele>91.7</ele>
        <time>2018-03-30T09:49:17Z</time>
      </trkpt>
      <trkpt lat="38.2761620" lon="-0.6808190">
        <ele>91.8</ele>
        <time>2018-03-30T09:49:18Z</time>
      </trkpt>
      <trkpt lat="38.2761030" lon="-0.6807970">
        <ele>91.8</ele>
        <time>2018-03-30T09:49:19Z</time>
      </trkpt>
      <trkpt lat="38.2760460" lon="-0.6807730">
        <ele>91.9</ele>
        <time>2018-03-30T09:49:20Z</time>
      </trkpt>
      <trkpt lat="38.2759860" lon="-0.6807480">
        <ele>92.0</ele>
        <time>2018-03-30T09:49:21Z</time>
      </trkpt>
      <trkpt lat="38.2759260" lon="-0.6807240">
        <ele>92.0</ele>
        <time>2018-03-30T09:49:22Z</time>
      </trkpt>
      <trkpt lat="38.2758630" lon="-0.6806980">
        <ele>92.1</ele>
        <time>2018-03-30T09:49:23Z</time>
      </trkpt>
      <trkpt lat="38.2758000" lon="-0.6806700">
        <ele>92.2</ele>
        <time>2018-03-30T09:49:24Z</time>
      </trkpt>
      <trkpt lat="38.2757300" lon="-0.6806430">
        <ele>92.2</ele>
        <time>2018-03-30T09:49:25Z</time>
      </trkpt>
      <trkpt lat="38.2756570" lon="-0.6806150">
        <ele>92.3</ele>
        <time>2018-03-30T09:49:26Z</time>
      </trkpt>
      <trkpt lat="38.2755860" lon="-0.6805870">
        <ele>92.4</ele>
        <time>2018-03-30T09:49:27Z</time>
      </trkpt>
      <trkpt lat="38.2755170" lon="-0.6805590">
        <ele>92.4</ele>
        <time>2018-03-30T09:49:28Z</time>
      </trkpt>
      <trkpt lat="38.2754470" lon="-0.6805300">
        <ele>92.5</ele>
        <time>2018-03-30T09:49:29Z</time>
      </trkpt>
      <trkpt lat="38.2753790" lon="-0.6805020">
        <ele>92.5</ele>
        <time>2018-03-30T09:49:30Z</time>
      </trkpt>
      <trkpt lat="38.2753140" lon="-0.6804750">
        <ele>92.5</ele>
        <time>2018-03-30T09:49:31Z</time>
      </trkpt>
      <trkpt lat="38.2752560" lon="-0.6804530">
        <ele>92.5</ele>
        <time>2018-03-30T09:49:32Z</time>
      </trkpt>
      <trkpt lat="38.2752000" lon="-0.6804330">
        <ele>92.3</ele>
        <time>2018-03-30T09:49:33Z</time>
      </trkpt>
      <trkpt lat="38.2751680" lon="-0.6804180">
        <ele>92.2</ele>
        <time>2018-03-30T09:49:34Z</time>
      </trkpt>
      <trkpt lat="38.2751260" lon="-0.6804010">
        <ele>91.9</ele>
        <time>2018-03-30T09:49:35Z</time>
      </trkpt>
      <trkpt lat="38.2750820" lon="-0.6803850">
        <ele>91.0</ele>
        <time>2018-03-30T09:49:36Z</time>
      </trkpt>
      <trkpt lat="38.2747860" lon="-0.6803790">
        <ele>91.0</ele>
        <time>2018-03-30T09:49:52Z</time>
      </trkpt>
      <trkpt lat="38.2747680" lon="-0.6804630">
        <ele>91.0</ele>
        <time>2018-03-30T09:49:53Z</time>
      </trkpt>
      <trkpt lat="38.2747470" lon="-0.6805290">
        <ele>90.7</ele>
        <time>2018-03-30T09:49:54Z</time>
      </trkpt>
      <trkpt lat="38.2747250" lon="-0.6805980">
        <ele>90.5</ele>
        <time>2018-03-30T09:49:55Z</time>
      </trkpt>
      <trkpt lat="38.2747110" lon="-0.6806700">
        <ele>90.3</ele>
        <time>2018-03-30T09:49:56Z</time>
      </trkpt>
      <trkpt lat="38.2746960" lon="-0.6807430">
        <ele>90.1</ele>
        <time>2018-03-30T09:49:57Z</time>
      </trkpt>
      <trkpt lat="38.2746820" lon="-0.6808160">
        <ele>89.9</ele>
        <time>2018-03-30T09:49:58Z</time>
      </trkpt>
      <trkpt lat="38.2746680" lon="-0.6808890">
        <ele>89.7</ele>
        <time>2018-03-30T09:49:59Z</time>
      </trkpt>
      <trkpt lat="38.2746540" lon="-0.6809630">
        <ele>89.4</ele>
        <time>2018-03-30T09:50:00Z</time>
      </trkpt>
      <trkpt lat="38.2746400" lon="-0.6810380">
        <ele>89.3</ele>
        <time>2018-03-30T09:50:01Z</time>
      </trkpt>
      <trkpt lat="38.2746270" lon="-0.6811150">
        <ele>89.1</ele>
        <time>2018-03-30T09:50:02Z</time>
      </trkpt>
      <trkpt lat="38.2746120" lon="-0.6811910">
        <ele>89.0</ele>
        <time>2018-03-30T09:50:03Z</time>
      </trkpt>
      <trkpt lat="38.2745990" lon="-0.6812660">
        <ele>88.9</ele>
        <time>2018-03-30T09:50:04Z</time>
      </trkpt>
      <trkpt lat="38.2745840" lon="-0.6813400">
        <ele>88.8</ele>
        <time>2018-03-30T09:50:05Z</time>
      </trkpt>
      <trkpt lat="38.2745690" lon="-0.6814160">
        <ele>88.7</ele>
        <time>2018-03-30T09:50:06Z</time>
      </trkpt>
      <trkpt lat="38.2745560" lon="-0.6814930">
        <ele>88.6</ele>
        <time>2018-03-30T09:50:07Z</time>
      </trkpt>
      <trkpt lat="38.2745440" lon="-0.6815670">
        <ele>88.5</ele>
        <time>2018-03-30T09:50:08Z</time>
      </trkpt>
      <trkpt lat="38.2745270" lon="-0.6816470">
        <ele>88.4</ele>
        <time>2018-03-30T09:50:09Z</time>
      </trkpt>
      <trkpt lat="38.2745060" lon="-0.6817250">
        <ele>88.3</ele>
        <time>2018-03-30T09:50:10Z</time>
      </trkpt>
      <trkpt lat="38.2744810" lon="-0.6817960">
        <ele>88.2</ele>
        <time>2018-03-30T09:50:11Z</time>
      </trkpt>
      <trkpt lat="38.2744450" lon="-0.6818580">
        <ele>88.0</ele>
        <time>2018-03-30T09:50:12Z</time>
      </trkpt>
      <trkpt lat="38.2744210" lon="-0.6819280">
        <ele>87.8</ele>
        <time>2018-03-30T09:50:13Z</time>
      </trkpt>
      <trkpt lat="38.2744040" lon="-0.6819950">
        <ele>87.7</ele>
        <time>2018-03-30T09:50:14Z</time>
      </trkpt>
      <trkpt lat="38.2743880" lon="-0.6820680">
        <ele>87.6</ele>
        <time>2018-03-30T09:50:15Z</time>
      </trkpt>
      <trkpt lat="38.2743740" lon="-0.6821390">
        <ele>87.5</ele>
        <time>2018-03-30T09:50:16Z</time>
      </trkpt>
      <trkpt lat="38.2743630" lon="-0.6822100">
        <ele>87.4</ele>
        <time>2018-03-30T09:50:17Z</time>
      </trkpt>
      <trkpt lat="38.2743520" lon="-0.6822830">
        <ele>87.2</ele>
        <time>2018-03-30T09:50:18Z</time>
      </trkpt>
      <trkpt lat="38.2743370" lon="-0.6823550">
        <ele>87.1</ele>
        <time>2018-03-30T09:50:19Z</time>
      </trkpt>
      <trkpt lat="38.2743240" lon="-0.6824290">
        <ele>87.0</ele>
        <time>2018-03-30T09:50:20Z</time>
      </trkpt>
      <trkpt lat="38.2743090" lon="-0.6825010">
        <ele>86.9</ele>
        <time>2018-03-30T09:50:21Z</time>
      </trkpt>
      <trkpt lat="38.2742950" lon="-0.6825730">
        <ele>86.8</ele>
        <time>2018-03-30T09:50:22Z</time>
      </trkpt>
      <trkpt lat="38.2742840" lon="-0.6826450">
        <ele>86.6</ele>
        <time>2018-03-30T09:50:23Z</time>
      </trkpt>
      <trkpt lat="38.2742740" lon="-0.6827170">
        <ele>86.5</ele>
        <time>2018-03-30T09:50:24Z</time>
      </trkpt>
      <trkpt lat="38.2742620" lon="-0.6827900">
        <ele>86.4</ele>
        <time>2018-03-30T09:50:25Z</time>
      </trkpt>
      <trkpt lat="38.2742500" lon="-0.6828640">
        <ele>86.3</ele>
        <time>2018-03-30T09:50:26Z</time>
      </trkpt>
      <trkpt lat="38.2742400" lon="-0.6829340">
        <ele>86.2</ele>
        <time>2018-03-30T09:50:27Z</time>
      </trkpt>
      <trkpt lat="38.2742300" lon="-0.6829990">
        <ele>86.0</ele>
        <time>2018-03-30T09:50:28Z</time>
      </trkpt>
      <trkpt lat="38.2742060" lon="-0.6830210">
        <ele>86.0</ele>
        <time>2018-03-30T09:50:29Z</time>
      </trkpt>
      <trkpt lat="38.2741850" lon="-0.6830450">
        <ele>86.2</ele>
        <time>2018-03-30T09:50:30Z</time>
      </trkpt>
      <trkpt lat="38.2741410" lon="-0.6830550">
        <ele>86.4</ele>
        <time>2018-03-30T09:50:31Z</time>
      </trkpt>
      <trkpt lat="38.2741180" lon="-0.6830820">
        <ele>86.6</ele>
        <time>2018-03-30T09:50:32Z</time>
      </trkpt>
      <trkpt lat="38.2740960" lon="-0.6831280">
        <ele>86.8</ele>
        <time>2018-03-30T09:50:33Z</time>
      </trkpt>
      <trkpt lat="38.2740760" lon="-0.6831740">
        <ele>87.0</ele>
        <time>2018-03-30T09:50:34Z</time>
      </trkpt>
      <trkpt lat="38.2740810" lon="-0.6832230">
        <ele>87.2</ele>
        <time>2018-03-30T09:50:35Z</time>
      </trkpt>
      <trkpt lat="38.2740760" lon="-0.6832710">
        <ele>87.3</ele>
        <time>2018-03-30T09:50:36Z</time>
      </trkpt>
      <trkpt lat="38.2740370" lon="-0.6840540">
        <ele>90.2</ele>
        <time>2018-04-28T05:44:02Z</time>
      </trkpt>
      <trkpt lat="38.2740370" lon="-0.6840540">
        <ele>90.2</ele>
        <time>2018-04-28T05:44:03Z</time>
      </trkpt>
      <trkpt lat="38.2740380" lon="-0.6840900">
        <ele>90.3</ele>
        <time>2018-04-28T05:44:04Z</time>
      </trkpt>
      <trkpt lat="38.2740300" lon="-0.6841280">
        <ele>90.4</ele>
        <time>2018-04-28T05:44:05Z</time>
      </trkpt>
      <trkpt lat="38.2740200" lon="-0.6841720">
        <ele>90.5</ele>
        <time>2018-04-28T05:44:06Z</time>
      </trkpt>
      <trkpt lat="38.2740110" lon="-0.6842200">
        <ele>90.7</ele>
        <time>2018-04-28T05:44:07Z</time>
      </trkpt>
      <trkpt lat="38.2740010" lon="-0.6842720">
        <ele>90.8</ele>
        <time>2018-04-28T05:44:08Z</time>
      </trkpt>
      <trkpt lat="38.2739880" lon="-0.6843240">
        <ele>91.0</ele>
        <time>2018-04-28T05:44:09Z</time>
      </trkpt>
      <trkpt lat="38.2739750" lon="-0.6843760">
        <ele>91.1</ele>
        <time>2018-04-28T05:44:10Z</time>
      </trkpt>
      <trkpt lat="38.2739640" lon="-0.6844320">
        <ele>91.3</ele>
        <time>2018-04-28T05:44:11Z</time>
      </trkpt>
      <trkpt lat="38.2739530" lon="-0.6844890">
        <ele>91.4</ele>
        <time>2018-04-28T05:44:12Z</time>
      </trkpt>
      <trkpt lat="38.2739420" lon="-0.6845430">
        <ele>91.6</ele>
        <time>2018-04-28T05:44:13Z</time>
      </trkpt>
      <trkpt lat="38.2739330" lon="-0.6845990">
        <ele>91.7</ele>
        <time>2018-04-28T05:44:14Z</time>
      </trkpt>
      <trkpt lat="38.2739240" lon="-0.6846570">
        <ele>91.9</ele>
        <time>2018-04-28T05:44:15Z</time>
      </trkpt>
      <trkpt lat="38.2739140" lon="-0.6847190">
        <ele>92.1</ele>
        <time>2018-04-28T05:44:16Z</time>
      </trkpt>
      <trkpt lat="38.2739030" lon="-0.6847790">
        <ele>92.3</ele>
        <time>2018-04-28T05:44:17Z</time>
      </trkpt>
      <trkpt lat="38.2738940" lon="-0.6848410">
        <ele>92.5</ele>
        <time>2018-04-28T05:44:18Z</time>
      </trkpt>
      <trkpt lat="38.2738820" lon="-0.6849030">
        <ele>92.7</ele>
        <time>2018-04-28T05:44:19Z</time>
      </trkpt>
      <trkpt lat="38.2738720" lon="-0.6849680">
        <ele>92.9</ele>
        <time>2018-04-28T05:44:20Z</time>
      </trkpt>
      <trkpt lat="38.2738580" lon="-0.6850310">
        <ele>93.0</ele>
        <time>2018-04-28T05:44:21Z</time>
      </trkpt>
      <trkpt lat="38.2738420" lon="-0.6850950">
        <ele>92.9</ele>
        <time>2018-04-28T05:44:22Z</time>
      </trkpt>
      <trkpt lat="38.2738290" lon="-0.6851610">
        <ele>92.9</ele>
        <time>2018-04-28T05:44:23Z</time>
      </trkpt>
      <trkpt lat="38.2738180" lon="-0.6852290">
        <ele>92.8</ele>
        <time>2018-04-28T05:44:24Z</time>
      </trkpt>
      <trkpt lat="38.2738060" lon="-0.6852940">
        <ele>92.7</ele>
        <time>2018-04-28T05:44:25Z</time>
      </trkpt>
      <trkpt lat="38.2737910" lon="-0.6853600">
        <ele>92.7</ele>
        <time>2018-04-28T05:44:26Z</time>
      </trkpt>
      <trkpt lat="38.2737780" lon="-0.6854270">
        <ele>92.7</ele>
        <time>2018-04-28T05:44:27Z</time>
      </trkpt>
      <trkpt lat="38.2737630" lon="-0.6854930">
        <ele>92.6</ele>
        <time>2018-04-28T05:44:28Z</time>
      </trkpt>
      <trkpt lat="38.2737540" lon="-0.6855640">
        <ele>92.6</ele>
        <time>2018-04-28T05:44:29Z</time>
      </trkpt>
      <trkpt lat="38.2737380" lon="-0.6856320">
        <ele>92.5</ele>
        <time>2018-04-28T05:44:30Z</time>
      </trkpt>
      <trkpt lat="38.2737240" lon="-0.6857030">
        <ele>92.5</ele>
        <time>2018-04-28T05:44:31Z</time>
      </trkpt>
      <trkpt lat="38.2737110" lon="-0.6857760">
        <ele>92.5</ele>
        <time>2018-04-28T05:44:32Z</time>
      </trkpt>
      <trkpt lat="38.2736990" lon="-0.6858500">
        <ele>92.4</ele>
        <time>2018-04-28T05:44:33Z</time>
      </trkpt>
      <trkpt lat="38.2736890" lon="-0.6859230">
        <ele>92.4</ele>
        <time>2018-04-28T05:44:34Z</time>
      </trkpt>
      <trkpt lat="38.2736750" lon="-0.6859930">
        <ele>92.3</ele>
        <time>2018-04-28T05:44:35Z</time>
      </trkpt>
      <trkpt lat="38.2736650" lon="-0.6860660">
        <ele>92.3</ele>
        <time>2018-04-28T05:44:36Z</time>
      </trkpt>
      <trkpt lat="38.2736500" lon="-0.6861360">
        <ele>92.2</ele>
        <time>2018-04-28T05:44:37Z</time>
      </trkpt>
      <trkpt lat="38.2736340" lon="-0.6862050">
        <ele>92.2</ele>
        <time>2018-04-28T05:44:38Z</time>
      </trkpt>
      <trkpt lat="38.2736170" lon="-0.6862740">
        <ele>92.1</ele>
        <time>2018-04-28T05:44:39Z</time>
      </trkpt>
      <trkpt lat="38.2736020" lon="-0.6863470">
        <ele>92.0</ele>
        <time>2018-04-28T05:44:40Z</time>
      </trkpt>
      <trkpt lat="38.2735860" lon="-0.6864200">
        <ele>91.9</ele>
        <time>2018-04-28T05:44:41Z</time>
      </trkpt>
      <trkpt lat="38.2735680" lon="-0.6864910">
        <ele>91.9</ele>
        <time>2018-04-28T05:44:42Z</time>
      </trkpt>
      <trkpt lat="38.2735570" lon="-0.6865680">
        <ele>91.8</ele>
        <time>2018-04-28T05:44:43Z</time>
      </trkpt>
      <trkpt lat="38.2735470" lon="-0.6866470">
        <ele>91.8</ele>
        <time>2018-04-28T05:44:44Z</time>
      </trkpt>
      <trkpt lat="38.2735340" lon="-0.6867220">
        <ele>91.7</ele>
        <time>2018-04-28T05:44:45Z</time>
      </trkpt>
      <trkpt lat="38.2735230" lon="-0.6868000">
        <ele>91.7</ele>
        <time>2018-04-28T05:44:46Z</time>
      </trkpt>
      <trkpt lat="38.2735120" lon="-0.6868760">
        <ele>91.6</ele>
        <time>2018-04-28T05:44:47Z</time>
      </trkpt>
      <trkpt lat="38.2735040" lon="-0.6869530">
        <ele>91.6</ele>
        <time>2018-04-28T05:44:48Z</time>
      </trkpt>
      <trkpt lat="38.2734950" lon="-0.6870300">
        <ele>91.6</ele>
        <time>2018-04-28T05:44:49Z</time>
      </trkpt>
      <trkpt lat="38.2734830" lon="-0.6871040">
        <ele>91.5</ele>
        <time>2018-04-28T05:44:50Z</time>
      </trkpt>
      <trkpt lat="38.2734720" lon="-0.6871810">
        <ele>91.5</ele>
        <time>2018-04-28T05:44:51Z</time>
      </trkpt>
      <trkpt lat="38.2734610" lon="-0.6872570">
        <ele>91.5</ele>
        <time>2018-04-28T05:44:52Z</time>
      </trkpt>
      <trkpt lat="38.2734500" lon="-0.6873320">
        <ele>91.4</ele>
        <time>2018-04-28T05:44:53Z</time>
      </trkpt>
      <trkpt lat="38.2734380" lon="-0.6874060">
        <ele>91.4</ele>
        <time>2018-04-28T05:44:54Z</time>
      </trkpt>
      <trkpt lat="38.2734260" lon="-0.6874780">
        <ele>91.4</ele>
        <time>2018-04-28T05:44:55Z</time>
      </trkpt>
      <trkpt lat="38.2734110" lon="-0.6875480">
        <ele>91.4</ele>
        <time>2018-04-28T05:44:56Z</time>
      </trkpt>
      <trkpt lat="38.2733990" lon="-0.6876190">
        <ele>91.3</ele>
        <time>2018-04-28T05:44:57Z</time>
      </trkpt>
      <trkpt lat="38.2733870" lon="-0.6876870">
        <ele>91.3</ele>
        <time>2018-04-28T05:44:58Z</time>
      </trkpt>
      <trkpt lat="38.2733740" lon="-0.6877550">
        <ele>91.2</ele>
        <time>2018-04-28T05:44:59Z</time>
      </trkpt>
      <trkpt lat="38.2733630" lon="-0.6878240">
        <ele>91.2</ele>
        <time>2018-04-28T05:45:00Z</time>
      </trkpt>
      <trkpt lat="38.2733520" lon="-0.6878920">
        <ele>91.1</ele>
        <time>2018-04-28T05:45:01Z</time>
      </trkpt>
      <trkpt lat="38.2733400" lon="-0.6879620">
        <ele>91.1</ele>
        <time>2018-04-28T05:45:02Z</time>
      </trkpt>
      <trkpt lat="38.2733270" lon="-0.6880280">
        <ele>91.1</ele>
        <time>2018-04-28T05:45:03Z</time>
      </trkpt>
      <trkpt lat="38.2733160" lon="-0.6880970">
        <ele>91.0</ele>
        <time>2018-04-28T05:45:04Z</time>
      </trkpt>
      <trkpt lat="38.2733060" lon="-0.6881670">
        <ele>91.0</ele>
        <time>2018-04-28T05:45:05Z</time>
      </trkpt>
      <trkpt lat="38.2732930" lon="-0.6882380">
        <ele>89.3</ele>
        <time>2018-04-28T05:45:06Z</time>
      </trkpt>
      <trkpt lat="38.2732800" lon="-0.6883090">
        <ele>87.4</ele>
        <time>2018-04-28T05:45:07Z</time>
      </trkpt>
      <trkpt lat="38.2732690" lon="-0.6883820">
        <ele>86.0</ele>
        <time>2018-04-28T05:45:08Z</time>
      </trkpt>
      <trkpt lat="38.2732540" lon="-0.6884500">
        <ele>86.0</ele>
        <time>2018-04-28T05:45:09Z</time>
      </trkpt>
      <trkpt lat="38.2732430" lon="-0.6885220">
        <ele>86.0</ele>
        <time>2018-04-28T05:45:10Z</time>
      </trkpt>
      <trkpt lat="38.2732280" lon="-0.6885940">
        <ele>86.0</ele>
        <time>2018-04-28T05:45:11Z</time>
      </trkpt>
      <trkpt lat="38.2732160" lon="-0.6886680">
        <ele>86.0</ele>
        <time>2018-04-28T05:45:12Z</time>
      </trkpt>
      <trkpt lat="38.2732040" lon="-0.6887410">
        <ele>86.0</ele>
        <time>2018-04-28T05:45:13Z</time>
      </trkpt>
      <trkpt lat="38.2731920" lon="-0.6888130">
        <ele>86.0</ele>
        <time>2018-04-28T05:45:14Z</time>
      </trkpt>
      <trkpt lat="38.2731820" lon="-0.6888860">
        <ele>86.0</ele>
        <time>2018-04-28T05:45:15Z</time>
      </trkpt>
      <trkpt lat="38.2731700" lon="-0.6889600">
        <ele>86.0</ele>
        <time>2018-04-28T05:45:16Z</time>
      </trkpt>
      <trkpt lat="38.2731580" lon="-0.6890330">
        <ele>86.0</ele>
        <time>2018-04-28T05:45:17Z</time>
      </trkpt>
      <trkpt lat="38.2731480" lon="-0.6891070">
        <ele>86.0</ele>
        <time>2018-04-28T05:45:18Z</time>
      </trkpt>
      <trkpt lat="38.2731340" lon="-0.6891770">
        <ele>86.0</ele>
        <time>2018-04-28T05:45:19Z</time>
      </trkpt>
      <trkpt lat="38.2731210" lon="-0.6892480">
        <ele>86.0</ele>
        <time>2018-04-28T05:45:20Z</time>
      </trkpt>
      <trkpt lat="38.2731090" lon="-0.6893230">
        <ele>86.0</ele>
        <time>2018-04-28T05:45:21Z</time>
      </trkpt>
      <trkpt lat="38.2730940" lon="-0.6893940">
        <ele>86.0</ele>
        <time>2018-04-28T05:45:22Z</time>
      </trkpt>
      <trkpt lat="38.2730870" lon="-0.6894660">
        <ele>86.0</ele>
        <time>2018-04-28T05:45:23Z</time>
      </trkpt>
      <trkpt lat="38.2730870" lon="-0.6895410">
        <ele>86.0</ele>
        <time>2018-04-28T05:45:24Z</time>
      </trkpt>
      <trkpt lat="38.2730810" lon="-0.6896140">
        <ele>86.0</ele>
        <time>2018-04-28T05:45:25Z</time>
      </trkpt>
      <trkpt lat="38.2730740" lon="-0.6896880">
        <ele>86.0</ele>
        <time>2018-04-28T05:45:26Z</time>
      </trkpt>
      <trkpt lat="38.2730670" lon="-0.6897620">
        <ele>85.7</ele>
        <time>2018-04-28T05:45:27Z</time>
      </trkpt>
      <trkpt lat="38.2730560" lon="-0.6898330">
        <ele>85.6</ele>
        <time>2018-04-28T05:45:28Z</time>
      </trkpt>
      <trkpt lat="38.2730510" lon="-0.6899050">
        <ele>85.8</ele>
        <time>2018-04-28T05:45:29Z</time>
      </trkpt>
      <trkpt lat="38.2730470" lon="-0.6899790">
        <ele>86.1</ele>
        <time>2018-04-28T05:45:30Z</time>
      </trkpt>
      <trkpt lat="38.2730440" lon="-0.6900530">
        <ele>86.6</ele>
        <time>2018-04-28T05:45:31Z</time>
      </trkpt>
      <trkpt lat="38.2730390" lon="-0.6901260">
        <ele>87.0</ele>
        <time>2018-04-28T05:45:32Z</time>
      </trkpt>
      <trkpt lat="38.2730370" lon="-0.6901970">
        <ele>87.5</ele>
        <time>2018-04-28T05:45:33Z</time>
      </trkpt>
      <trkpt lat="38.2730330" lon="-0.6902560">
        <ele>87.9</ele>
        <time>2018-04-28T05:45:34Z</time>
      </trkpt>
      <trkpt lat="38.2730340" lon="-0.6902930">
        <ele>88.0</ele>
        <time>2018-04-28T05:45:35Z</time>
      </trkpt>
      <trkpt lat="38.2730470" lon="-0.6903210">
        <ele>88.0</ele>
        <time>2018-04-28T05:45:36Z</time>
      </trkpt>
      <trkpt lat="38.2730590" lon="-0.6903460">
        <ele>88.0</ele>
        <time>2018-04-28T05:45:37Z</time>
      </trkpt>
      <trkpt lat="38.2730680" lon="-0.6903740">
        <ele>88.1</ele>
        <time>2018-04-28T05:45:38Z</time>
      </trkpt>
      <trkpt lat="38.2730800" lon="-0.6904110">
        <ele>88.4</ele>
        <time>2018-04-28T05:45:39Z</time>
      </trkpt>
      <trkpt lat="38.2730960" lon="-0.6904570">
        <ele>88.7</ele>
        <time>2018-04-28T05:45:40Z</time>
      </trkpt>
      <trkpt lat="38.2731030" lon="-0.6905050">
        <ele>88.9</ele>
        <time>2018-04-28T05:45:41Z</time>
      </trkpt>
      <trkpt lat="38.2731030" lon="-0.6905630">
        <ele>89.1</ele>
        <time>2018-04-28T05:45:42Z</time>
      </trkpt>
      <trkpt lat="38.2730980" lon="-0.6906220">
        <ele>89.3</ele>
        <time>2018-04-28T05:45:43Z</time>
      </trkpt>
      <trkpt lat="38.2730830" lon="-0.6906780">
        <ele>89.5</ele>
        <time>2018-04-28T05:45:44Z</time>
      </trkpt>
      <trkpt lat="38.2730640" lon="-0.6907300">
        <ele>89.6</ele>
        <time>2018-04-28T05:45:45Z</time>
      </trkpt>
      <trkpt lat="38.2730410" lon="-0.6907800">
        <ele>89.8</ele>
        <time>2018-04-28T05:45:46Z</time>
      </trkpt>
      <trkpt lat="38.2730120" lon="-0.6908350">
        <ele>90.0</ele>
        <time>2018-04-28T05:45:47Z</time>
      </trkpt>
      <trkpt lat="38.2729810" lon="-0.6908960">
        <ele>89.9</ele>
        <time>2018-04-28T05:45:48Z</time>
      </trkpt>
      <trkpt lat="38.2729560" lon="-0.6909620">
        <ele>89.9</ele>
        <time>2018-04-28T05:45:49Z</time>
      </trkpt>
      <trkpt lat="38.2729330" lon="-0.6910320">
        <ele>89.8</ele>
        <time>2018-04-28T05:45:50Z</time>
      </trkpt>
      <trkpt lat="38.2729130" lon="-0.6911070">
        <ele>89.7</ele>
        <time>2018-04-28T05:45:51Z</time>
      </trkpt>
      <trkpt lat="38.2728980" lon="-0.6911840">
        <ele>89.6</ele>
        <time>2018-04-28T05:45:52Z</time>
      </trkpt>
      <trkpt lat="38.2728830" lon="-0.6912610">
        <ele>89.5</ele>
        <time>2018-04-28T05:45:53Z</time>
      </trkpt>
      <trkpt lat="38.2728750" lon="-0.6913390">
        <ele>89.5</ele>
        <time>2018-04-28T05:45:54Z</time>
      </trkpt>
      <trkpt lat="38.2728600" lon="-0.6914170">
        <ele>89.4</ele>
        <time>2018-04-28T05:45:55Z</time>
      </trkpt>
      <trkpt lat="38.2728470" lon="-0.6914970">
        <ele>89.3</ele>
        <time>2018-04-28T05:45:56Z</time>
      </trkpt>
      <trkpt lat="38.2728310" lon="-0.6915720">
        <ele>89.2</ele>
        <time>2018-04-28T05:45:57Z</time>
      </trkpt>
      <trkpt lat="38.2728190" lon="-0.6916510">
        <ele>89.1</ele>
        <time>2018-04-28T05:45:58Z</time>
      </trkpt>
      <trkpt lat="38.2728060" lon="-0.6917300">
        <ele>89.1</ele>
        <time>2018-04-28T05:45:59Z</time>
      </trkpt>
      <trkpt lat="38.2727940" lon="-0.6918090">
        <ele>89.0</ele>
        <time>2018-04-28T05:46:00Z</time>
      </trkpt>
      <trkpt lat="38.2727870" lon="-0.6918920">
        <ele>88.9</ele>
        <time>2018-04-28T05:46:01Z</time>
      </trkpt>
      <trkpt lat="38.2727750" lon="-0.6919710">
        <ele>88.8</ele>
        <time>2018-04-28T05:46:02Z</time>
      </trkpt>
      <trkpt lat="38.2727610" lon="-0.6920500">
        <ele>88.7</ele>
        <time>2018-04-28T05:46:03Z</time>
      </trkpt>
      <trkpt lat="38.2727490" lon="-0.6921290">
        <ele>88.7</ele>
        <time>2018-04-28T05:46:04Z</time>
      </trkpt>
      <trkpt lat="38.2727360" lon="-0.6922090">
        <ele>88.6</ele>
        <time>2018-04-28T05:46:05Z</time>
      </trkpt>
      <trkpt lat="38.2727230" lon="-0.6922900">
        <ele>88.5</ele>
        <time>2018-04-28T05:46:06Z</time>
      </trkpt>
      <trkpt lat="38.2727150" lon="-0.6923730">
        <ele>88.4</ele>
        <time>2018-04-28T05:46:07Z</time>
      </trkpt>
      <trkpt lat="38.2727020" lon="-0.6924510">
        <ele>88.3</ele>
        <time>2018-04-28T05:46:08Z</time>
      </trkpt>
      <trkpt lat="38.2726930" lon="-0.6925340">
        <ele>88.2</ele>
        <time>2018-04-28T05:46:09Z</time>
      </trkpt>
      <trkpt lat="38.2726830" lon="-0.6926160">
        <ele>88.1</ele>
        <time>2018-04-28T05:46:10Z</time>
      </trkpt>
      <trkpt lat="38.2726730" lon="-0.6926960">
        <ele>88.0</ele>
        <time>2018-04-28T05:46:11Z</time>
      </trkpt>
      <trkpt lat="38.2726590" lon="-0.6927750">
        <ele>88.0</ele>
        <time>2018-04-28T05:46:12Z</time>
      </trkpt>
      <trkpt lat="38.2726470" lon="-0.6928530">
        <ele>88.1</ele>
        <time>2018-04-28T05:46:13Z</time>
      </trkpt>
      <trkpt lat="38.2726340" lon="-0.6929300">
        <ele>88.1</ele>
        <time>2018-04-28T05:46:14Z</time>
      </trkpt>
      <trkpt lat="38.2726200" lon="-0.6930080">
        <ele>88.2</ele>
        <time>2018-04-28T05:46:15Z</time>
      </trkpt>
      <trkpt lat="38.2726070" lon="-0.6930850">
        <ele>88.2</ele>
        <time>2018-04-28T05:46:16Z</time>
      </trkpt>
      <trkpt lat="38.2725960" lon="-0.6931640">
        <ele>88.3</ele>
        <time>2018-04-28T05:46:17Z</time>
      </trkpt>
      <trkpt lat="38.2725850" lon="-0.6932440">
        <ele>88.3</ele>
        <time>2018-04-28T05:46:18Z</time>
      </trkpt>
      <trkpt lat="38.2725750" lon="-0.6933240">
        <ele>88.3</ele>
        <time>2018-04-28T05:46:19Z</time>
      </trkpt>
      <trkpt lat="38.2725620" lon="-0.6934020">
        <ele>88.4</ele>
        <time>2018-04-28T05:46:20Z</time>
      </trkpt>
      <trkpt lat="38.2725480" lon="-0.6934790">
        <ele>88.4</ele>
        <time>2018-04-28T05:46:21Z</time>
      </trkpt>
      <trkpt lat="38.2725350" lon="-0.6935550">
        <ele>88.5</ele>
        <time>2018-04-28T05:46:22Z</time>
      </trkpt>
      <trkpt lat="38.2725220" lon="-0.6936330">
        <ele>88.5</ele>
        <time>2018-04-28T05:46:23Z</time>
      </trkpt>
      <trkpt lat="38.2725100" lon="-0.6937100">
        <ele>88.6</ele>
        <time>2018-04-28T05:46:24Z</time>
      </trkpt>
      <trkpt lat="38.2724970" lon="-0.6937840">
        <ele>88.6</ele>
        <time>2018-04-28T05:46:25Z</time>
      </trkpt>
      <trkpt lat="38.2724850" lon="-0.6938590">
        <ele>88.6</ele>
        <time>2018-04-28T05:46:26Z</time>
      </trkpt>
      <trkpt lat="38.2724740" lon="-0.6939340">
        <ele>88.7</ele>
        <time>2018-04-28T05:46:27Z</time>
      </trkpt>
      <trkpt lat="38.2724570" lon="-0.6940040">
        <ele>88.7</ele>
        <time>2018-04-28T05:46:28Z</time>
      </trkpt>
      <trkpt lat="38.2724430" lon="-0.6940750">
        <ele>88.8</ele>
        <time>2018-04-28T05:46:29Z</time>
      </trkpt>
      <trkpt lat="38.2724330" lon="-0.6941460">
        <ele>88.8</ele>
        <time>2018-04-28T05:46:30Z</time>
      </trkpt>
      <trkpt lat="38.2724170" lon="-0.6942120">
        <ele>88.9</ele>
        <time>2018-04-28T05:46:31Z</time>
      </trkpt>
      <trkpt lat="38.2724070" lon="-0.6942780">
        <ele>89.0</ele>
        <time>2018-04-28T05:46:32Z</time>
      </trkpt>
      <trkpt lat="38.2723970" lon="-0.6943440">
        <ele>89.0</ele>
        <time>2018-04-28T05:46:33Z</time>
      </trkpt>
      <trkpt lat="38.2723970" lon="-0.6944090">
        <ele>89.0</ele>
        <time>2018-04-28T05:46:34Z</time>
      </trkpt>
      <trkpt lat="38.2724070" lon="-0.6944700">
        <ele>89.0</ele>
        <time>2018-04-28T05:46:35Z</time>
      </trkpt>
      <trkpt lat="38.2724110" lon="-0.6945340">
        <ele>89.0</ele>
        <time>2018-04-28T05:46:36Z</time>
      </trkpt>
      <trkpt lat="38.2724160" lon="-0.6945980">
        <ele>89.0</ele>
        <time>2018-04-28T05:46:37Z</time>
      </trkpt>
      <trkpt lat="38.2724250" lon="-0.6946580">
        <ele>89.4</ele>
        <time>2018-04-28T05:46:38Z</time>
      </trkpt>
      <trkpt lat="38.2724460" lon="-0.6947100">
        <ele>90.0</ele>
        <time>2018-04-28T05:46:39Z</time>
      </trkpt>
      <trkpt lat="38.2725000" lon="-0.6947400">
        <ele>90.7</ele>
        <time>2018-04-28T05:46:40Z</time>
      </trkpt>
      <trkpt lat="38.2725310" lon="-0.6947840">
        <ele>91.2</ele>
        <time>2018-04-28T05:46:41Z</time>
      </trkpt>
      <trkpt lat="38.2725620" lon="-0.6948030">
        <ele>91.7</ele>
        <time>2018-04-28T05:46:42Z</time>
      </trkpt>
      <trkpt lat="38.2726320" lon="-0.6948230">
        <ele>92.5</ele>
        <time>2018-04-28T05:46:43Z</time>
      </trkpt>
      <trkpt lat="38.2727200" lon="-0.6948350">
        <ele>93.1</ele>
        <time>2018-04-28T05:46:44Z</time>
      </trkpt>
      <trkpt lat="38.2727800" lon="-0.6948520">
        <ele>93.3</ele>
        <time>2018-04-28T05:46:45Z</time>
      </trkpt>
      <trkpt lat="38.2728340" lon="-0.6948700">
        <ele>93.4</ele>
        <time>2018-04-28T05:46:46Z</time>
      </trkpt>
      <trkpt lat="38.2728870" lon="-0.6948870">
        <ele>93.7</ele>
        <time>2018-04-28T05:46:47Z</time>
      </trkpt>
      <trkpt lat="38.2729400" lon="-0.6949040">
        <ele>93.9</ele>
        <time>2018-04-28T05:46:48Z</time>
      </trkpt>
      <trkpt lat="38.2729990" lon="-0.6949300">
        <ele>94.2</ele>
        <time>2018-04-28T05:46:49Z</time>
      </trkpt>
      <trkpt lat="38.2730590" lon="-0.6949480">
        <ele>94.5</ele>
        <time>2018-04-28T05:46:50Z</time>
      </trkpt>
      <trkpt lat="38.2731200" lon="-0.6949630">
        <ele>94.6</ele>
        <time>2018-04-28T05:46:51Z</time>
      </trkpt>
      <trkpt lat="38.2731840" lon="-0.6949830">
        <ele>94.8</ele>
        <time>2018-04-28T05:46:52Z</time>
      </trkpt>
      <trkpt lat="38.2732440" lon="-0.6950040">
        <ele>94.8</ele>
        <time>2018-04-28T05:46:53Z</time>
      </trkpt>
      <trkpt lat="38.2733040" lon="-0.6950250">
        <ele>94.9</ele>
        <time>2018-04-28T05:46:54Z</time>
      </trkpt>
      <trkpt lat="38.2733620" lon="-0.6950460">
        <ele>94.9</ele>
        <time>2018-04-28T05:46:55Z</time>
      </trkpt>
      <trkpt lat="38.2734210" lon="-0.6950680">
        <ele>94.9</ele>
        <time>2018-04-28T05:46:56Z</time>
      </trkpt>
      <trkpt lat="38.2734800" lon="-0.6950900">
        <ele>95.0</ele>
        <time>2018-04-28T05:46:57Z</time>
      </trkpt>
      <trkpt lat="38.2735390" lon="-0.6951120">
        <ele>95.0</ele>
        <time>2018-04-28T05:46:58Z</time>
      </trkpt>
      <trkpt lat="38.2736010" lon="-0.6951330">
        <ele>95.0</ele>
        <time>2018-04-28T05:46:59Z</time>
      </trkpt>
      <trkpt lat="38.2736610" lon="-0.6951540">
        <ele>95.1</ele>
        <time>2018-04-28T05:47:00Z</time>
      </trkpt>
      <trkpt lat="38.2737210" lon="-0.6951730">
        <ele>95.1</ele>
        <time>2018-04-28T05:47:01Z</time>
      </trkpt>
      <trkpt lat="38.2737840" lon="-0.6951820">
        <ele>95.1</ele>
        <time>2018-04-28T05:47:02Z</time>
      </trkpt>
      <trkpt lat="38.2738440" lon="-0.6951940">
        <ele>95.1</ele>
        <time>2018-04-28T05:47:03Z</time>
      </trkpt>
      <trkpt lat="38.2738990" lon="-0.6952000">
        <ele>95.1</ele>
        <time>2018-04-28T05:47:04Z</time>
      </trkpt>
      <trkpt lat="38.2739550" lon="-0.6952060">
        <ele>95.1</ele>
        <time>2018-04-28T05:47:05Z</time>
      </trkpt>
      <trkpt lat="38.2740160" lon="-0.6952170">
        <ele>95.1</ele>
        <time>2018-04-28T05:47:06Z</time>
      </trkpt>
      <trkpt lat="38.2740760" lon="-0.6952340">
        <ele>95.1</ele>
        <time>2018-04-28T05:47:07Z</time>
      </trkpt>
      <trkpt lat="38.2741370" lon="-0.6952550">
        <ele>95.1</ele>
        <time>2018-04-28T05:47:08Z</time>
      </trkpt>
      <trkpt lat="38.2741910" lon="-0.6952830">
        <ele>95.0</ele>
        <time>2018-04-28T05:47:09Z</time>
      </trkpt>
      <trkpt lat="38.2742320" lon="-0.6953210">
        <ele>95.0</ele>
        <time>2018-04-28T05:47:10Z</time>
      </trkpt>
      <trkpt lat="38.2742850" lon="-0.6953610">
        <ele>95.0</ele>
        <time>2018-04-28T05:47:11Z</time>
      </trkpt>
      <trkpt lat="38.2743430" lon="-0.6953990">
        <ele>95.0</ele>
        <time>2018-04-28T05:47:12Z</time>
      </trkpt>
      <trkpt lat="38.2743950" lon="-0.6954460">
        <ele>95.0</ele>
        <time>2018-04-28T05:47:13Z</time>
      </trkpt>
      <trkpt lat="38.2744480" lon="-0.6954890">
        <ele>95.0</ele>
        <time>2018-04-28T05:47:14Z</time>
      </trkpt>
      <trkpt lat="38.2744970" lon="-0.6955320">
        <ele>95.0</ele>
        <time>2018-04-28T05:47:15Z</time>
      </trkpt>
      <trkpt lat="38.2745450" lon="-0.6955750">
        <ele>95.0</ele>
        <time>2018-04-28T05:47:16Z</time>
      </trkpt>
      <trkpt lat="38.2745980" lon="-0.6956150">
        <ele>95.0</ele>
        <time>2018-04-28T05:47:17Z</time>
      </trkpt>
      <trkpt lat="38.2746450" lon="-0.6956590">
        <ele>95.0</ele>
        <time>2018-04-28T05:47:18Z</time>
      </trkpt>
      <trkpt lat="38.2747020" lon="-0.6957040">
        <ele>95.0</ele>
        <time>2018-04-28T05:47:19Z</time>
      </trkpt>
      <trkpt lat="38.2747570" lon="-0.6957470">
        <ele>95.0</ele>
        <time>2018-04-28T05:47:20Z</time>
      </trkpt>
      <trkpt lat="38.2748070" lon="-0.6957890">
        <ele>95.0</ele>
        <time>2018-04-28T05:47:21Z</time>
      </trkpt>
      <trkpt lat="38.2748670" lon="-0.6958310">
        <ele>95.0</ele>
        <time>2018-04-28T05:47:22Z</time>
      </trkpt>
      <trkpt lat="38.2749230" lon="-0.6958690">
        <ele>95.0</ele>
        <time>2018-04-28T05:47:23Z</time>
      </trkpt>
      <trkpt lat="38.2749770" lon="-0.6959100">
        <ele>95.0</ele>
        <time>2018-04-28T05:47:24Z</time>
      </trkpt>
      <trkpt lat="38.2750310" lon="-0.6959490">
        <ele>95.0</ele>
        <time>2018-04-28T05:47:25Z</time>
      </trkpt>
      <trkpt lat="38.2750830" lon="-0.6959890">
        <ele>95.0</ele>
        <time>2018-04-28T05:47:26Z</time>
      </trkpt>
      <trkpt lat="38.2751350" lon="-0.6960270">
        <ele>95.0</ele>
        <time>2018-04-28T05:47:27Z</time>
      </trkpt>
      <trkpt lat="38.2751880" lon="-0.6960630">
        <ele>95.1</ele>
        <time>2018-04-28T05:47:28Z</time>
      </trkpt>
      <trkpt lat="38.2752450" lon="-0.6961040">
        <ele>95.1</ele>
        <time>2018-04-28T05:47:29Z</time>
      </trkpt>
      <trkpt lat="38.2753070" lon="-0.6961420">
        <ele>95.1</ele>
        <time>2018-04-28T05:47:30Z</time>
      </trkpt>
      <trkpt lat="38.2753620" lon="-0.6961780">
        <ele>95.1</ele>
        <time>2018-04-28T05:47:31Z</time>
      </trkpt>
      <trkpt lat="38.2754190" lon="-0.6962140">
        <ele>95.1</ele>
        <time>2018-04-28T05:47:32Z</time>
      </trkpt>
      <trkpt lat="38.2754750" lon="-0.6962460">
        <ele>95.1</ele>
        <time>2018-04-28T05:47:33Z</time>
      </trkpt>
      <trkpt lat="38.2755290" lon="-0.6962790">
        <ele>95.1</ele>
        <time>2018-04-28T05:47:34Z</time>
      </trkpt>
      <trkpt lat="38.2755880" lon="-0.6963100">
        <ele>95.1</ele>
        <time>2018-04-28T05:47:35Z</time>
      </trkpt>
      <trkpt lat="38.2756410" lon="-0.6963380">
        <ele>95.2</ele>
        <time>2018-04-28T05:47:36Z</time>
      </trkpt>
      <trkpt lat="38.2756970" lon="-0.6963640">
        <ele>95.2</ele>
        <time>2018-04-28T05:47:37Z</time>
      </trkpt>
      <trkpt lat="38.2757520" lon="-0.6963820">
        <ele>95.2</ele>
        <time>2018-04-28T05:47:38Z</time>
      </trkpt>
      <trkpt lat="38.2758120" lon="-0.6963910">
        <ele>95.2</ele>
        <time>2018-04-28T05:47:39Z</time>
      </trkpt>
      <trkpt lat="38.2758790" lon="-0.6963930">
        <ele>95.2</ele>
        <time>2018-04-28T05:47:40Z</time>
      </trkpt>
      <trkpt lat="38.2759440" lon="-0.6963890">
        <ele>95.2</ele>
        <time>2018-04-28T05:47:41Z</time>
      </trkpt>
      <trkpt lat="38.2760080" lon="-0.6963830">
        <ele>95.3</ele>
        <time>2018-04-28T05:47:42Z</time>
      </trkpt>
      <trkpt lat="38.2760720" lon="-0.6963730">
        <ele>95.3</ele>
        <time>2018-04-28T05:47:43Z</time>
      </trkpt>
      <trkpt lat="38.2761370" lon="-0.6963560">
        <ele>95.4</ele>
        <time>2018-04-28T05:47:44Z</time>
      </trkpt>
      <trkpt lat="38.2761980" lon="-0.6963410">
        <ele>95.4</ele>
        <time>2018-04-28T05:47:45Z</time>
      </trkpt>
      <trkpt lat="38.2762600" lon="-0.6963230">
        <ele>95.4</ele>
        <time>2018-04-28T05:47:46Z</time>
      </trkpt>
      <trkpt lat="38.2763200" lon="-0.6963060">
        <ele>95.5</ele>
        <time>2018-04-28T05:47:47Z</time>
      </trkpt>
      <trkpt lat="38.2763790" lon="-0.6962880">
        <ele>95.5</ele>
        <time>2018-04-28T05:47:48Z</time>
      </trkpt>
      <trkpt lat="38.2764400" lon="-0.6962680">
        <ele>95.6</ele>
        <time>2018-04-28T05:47:49Z</time>
      </trkpt>
      <trkpt lat="38.2765000" lon="-0.6962460">
        <ele>95.7</ele>
        <time>2018-04-28T05:47:50Z</time>
      </trkpt>
      <trkpt lat="38.2765600" lon="-0.6962250">
        <ele>95.9</ele>
        <time>2018-04-28T05:47:51Z</time>
      </trkpt>
      <trkpt lat="38.2766200" lon="-0.6962040">
        <ele>96.0</ele>
        <time>2018-04-28T05:47:52Z</time>
      </trkpt>
      <trkpt lat="38.2766790" lon="-0.6961880">
        <ele>95.9</ele>
        <time>2018-04-28T05:47:53Z</time>
      </trkpt>
      <trkpt lat="38.2767360" lon="-0.6961760">
        <ele>95.9</ele>
        <time>2018-04-28T05:47:54Z</time>
      </trkpt>
      <trkpt lat="38.2767970" lon="-0.6961690">
        <ele>95.8</ele>
        <time>2018-04-28T05:47:55Z</time>
      </trkpt>
      <trkpt lat="38.2768530" lon="-0.6961650">
        <ele>95.8</ele>
        <time>2018-04-28T05:47:56Z</time>
      </trkpt>
      <trkpt lat="38.2769150" lon="-0.6961650">
        <ele>95.7</ele>
        <time>2018-04-28T05:47:57Z</time>
      </trkpt>
      <trkpt lat="38.2769740" lon="-0.6961660">
        <ele>95.7</ele>
        <time>2018-04-28T05:47:58Z</time>
      </trkpt>
      <trkpt lat="38.2770340" lon="-0.6961660">
        <ele>95.6</ele>
        <time>2018-04-28T05:47:59Z</time>
      </trkpt>
      <trkpt lat="38.2770960" lon="-0.6961660">
        <ele>95.6</ele>
        <time>2018-04-28T05:48:00Z</time>
      </trkpt>
      <trkpt lat="38.2771610" lon="-0.6961640">
        <ele>95.6</ele>
        <time>2018-04-28T05:48:01Z</time>
      </trkpt>
      <trkpt lat="38.2772240" lon="-0.6961640">
        <ele>95.5</ele>
        <time>2018-04-28T05:48:02Z</time>
      </trkpt>
      <trkpt lat="38.2772850" lon="-0.6961650">
        <ele>95.5</ele>
        <time>2018-04-28T05:48:03Z</time>
      </trkpt>
      <trkpt lat="38.2773460" lon="-0.6961680">
        <ele>95.4</ele>
        <time>2018-04-28T05:48:04Z</time>
      </trkpt>
      <trkpt lat="38.2774070" lon="-0.6961700">
        <ele>95.4</ele>
        <time>2018-04-28T05:48:05Z</time>
      </trkpt>
      <trkpt lat="38.2774660" lon="-0.6961740">
        <ele>95.3</ele>
        <time>2018-04-28T05:48:06Z</time>
      </trkpt>
      <trkpt lat="38.2775250" lon="-0.6961800">
        <ele>95.3</ele>
        <time>2018-04-28T05:48:07Z</time>
      </trkpt>
      <trkpt lat="38.2775830" lon="-0.6961900">
        <ele>95.2</ele>
        <time>2018-04-28T05:48:08Z</time>
      </trkpt>
      <trkpt lat="38.2776380" lon="-0.6962020">
        <ele>95.2</ele>
        <time>2018-04-28T05:48:09Z</time>
      </trkpt>
      <trkpt lat="38.2776930" lon="-0.6962160">
        <ele>95.2</ele>
        <time>2018-04-28T05:48:10Z</time>
      </trkpt>
      <trkpt lat="38.2777480" lon="-0.6962360">
        <ele>95.1</ele>
        <time>2018-04-28T05:48:11Z</time>
      </trkpt>
      <trkpt lat="38.2778020" lon="-0.6962580">
        <ele>95.1</ele>
        <time>2018-04-28T05:48:12Z</time>
      </trkpt>
      <trkpt lat="38.2778560" lon="-0.6962810">
        <ele>95.0</ele>
        <time>2018-04-28T05:48:13Z</time>
      </trkpt>
      <trkpt lat="38.2779100" lon="-0.6963030">
        <ele>95.0</ele>
        <time>2018-04-28T05:48:14Z</time>
      </trkpt>
      <trkpt lat="38.2779640" lon="-0.6963250">
        <ele>95.0</ele>
        <time>2018-04-28T05:48:15Z</time>
      </trkpt>
      <trkpt lat="38.2780180" lon="-0.6963480">
        <ele>95.0</ele>
        <time>2018-04-28T05:48:16Z</time>
      </trkpt>
      <trkpt lat="38.2780720" lon="-0.6963700">
        <ele>95.0</ele>
        <time>2018-04-28T05:48:17Z</time>
      </trkpt>
      <trkpt lat="38.2781280" lon="-0.6963910">
        <ele>95.0</ele>
        <time>2018-04-28T05:48:18Z</time>
      </trkpt>
      <trkpt lat="38.2781810" lon="-0.6964130">
        <ele>95.0</ele>
        <time>2018-04-28T05:48:19Z</time>
      </trkpt>
      <trkpt lat="38.2782380" lon="-0.6964320">
        <ele>95.0</ele>
        <time>2018-04-28T05:48:20Z</time>
      </trkpt>
      <trkpt lat="38.2782940" lon="-0.6964500">
        <ele>95.0</ele>
        <time>2018-04-28T05:48:21Z</time>
      </trkpt>
      <trkpt lat="38.2783520" lon="-0.6964640">
        <ele>95.3</ele>
        <time>2018-04-28T05:48:22Z</time>
      </trkpt>
      <trkpt lat="38.2784090" lon="-0.6964800">
        <ele>96.0</ele>
        <time>2018-04-28T05:48:23Z</time>
      </trkpt>
      <trkpt lat="38.2784650" lon="-0.6964970">
        <ele>96.0</ele>
        <time>2018-04-28T05:48:24Z</time>
      </trkpt>
      <trkpt lat="38.2785210" lon="-0.6965130">
        <ele>96.0</ele>
        <time>2018-04-28T05:48:25Z</time>
      </trkpt>
      <trkpt lat="38.2785780" lon="-0.6965280">
        <ele>96.0</ele>
        <time>2018-04-28T05:48:26Z</time>
      </trkpt>
      <trkpt lat="38.2786340" lon="-0.6965440">
        <ele>96.0</ele>
        <time>2018-04-28T05:48:27Z</time>
      </trkpt>
      <trkpt lat="38.2786900" lon="-0.6965620">
        <ele>96.0</ele>
        <time>2018-04-28T05:48:28Z</time>
      </trkpt>
      <trkpt lat="38.2787470" lon="-0.6965810">
        <ele>96.0</ele>
        <time>2018-04-28T05:48:29Z</time>
      </trkpt>
      <trkpt lat="38.2788010" lon="-0.6966010">
        <ele>96.0</ele>
        <time>2018-04-28T05:48:30Z</time>
      </trkpt>
      <trkpt lat="38.2788560" lon="-0.6966200">
        <ele>96.0</ele>
        <time>2018-04-28T05:48:31Z</time>
      </trkpt>
      <trkpt lat="38.2789110" lon="-0.6966380">
        <ele>96.1</ele>
        <time>2018-04-28T05:48:32Z</time>
      </trkpt>
      <trkpt lat="38.2789650" lon="-0.6966550">
        <ele>96.0</ele>
        <time>2018-04-28T05:48:33Z</time>
      </trkpt>
      <trkpt lat="38.2790200" lon="-0.6966710">
        <ele>96.0</ele>
        <time>2018-04-28T05:48:34Z</time>
      </trkpt>
      <trkpt lat="38.2790720" lon="-0.6966850">
        <ele>96.0</ele>
        <time>2018-04-28T05:48:35Z</time>
      </trkpt>
      <trkpt lat="38.2791250" lon="-0.6966970">
        <ele>96.0</ele>
        <time>2018-04-28T05:48:36Z</time>
      </trkpt>
      <trkpt lat="38.2791760" lon="-0.6967070">
        <ele>96.0</ele>
        <time>2018-04-28T05:48:37Z</time>
      </trkpt>
      <trkpt lat="38.2792310" lon="-0.6967060">
        <ele>96.0</ele>
        <time>2018-04-28T05:48:38Z</time>
      </trkpt>
      <trkpt lat="38.2792750" lon="-0.6966920">
        <ele>96.5</ele>
        <time>2018-04-28T05:48:39Z</time>
      </trkpt>
      <trkpt lat="38.2793160" lon="-0.6966650">
        <ele>97.1</ele>
        <time>2018-04-28T05:48:40Z</time>
      </trkpt>
      <trkpt lat="38.2793430" lon="-0.6966300">
        <ele>97.6</ele>
        <time>2018-04-28T05:48:41Z</time>
      </trkpt>
      <trkpt lat="38.2793620" lon="-0.6965920">
        <ele>98.0</ele>
        <time>2018-04-28T05:48:42Z</time>
      </trkpt>
      <trkpt lat="38.2793780" lon="-0.6965550">
        <ele>98.4</ele>
        <time>2018-04-28T05:48:43Z</time>
      </trkpt>
      <trkpt lat="38.2793910" lon="-0.6965190">
        <ele>98.8</ele>
        <time>2018-04-28T05:48:44Z</time>
      </trkpt>
      <trkpt lat="38.2794010" lon="-0.6964730">
        <ele>99.0</ele>
        <time>2018-04-28T05:48:45Z</time>
      </trkpt>
      <trkpt lat="38.2794160" lon="-0.6964220">
        <ele>99.0</ele>
        <time>2018-04-28T05:48:46Z</time>
      </trkpt>
      <trkpt lat="38.2794270" lon="-0.6963610">
        <ele>99.0</ele>
        <time>2018-04-28T05:48:47Z</time>
      </trkpt>
      <trkpt lat="38.2794470" lon="-0.6963040">
        <ele>99.0</ele>
        <time>2018-04-28T05:48:48Z</time>
      </trkpt>
      <trkpt lat="38.2794730" lon="-0.6962480">
        <ele>99.0</ele>
        <time>2018-04-28T05:48:49Z</time>
      </trkpt>
      <trkpt lat="38.2795020" lon="-0.6961970">
        <ele>99.0</ele>
        <time>2018-04-28T05:48:50Z</time>
      </trkpt>
      <trkpt lat="38.2795370" lon="-0.6961530">
        <ele>99.0</ele>
        <time>2018-04-28T05:48:51Z</time>
      </trkpt>
      <trkpt lat="38.2795770" lon="-0.6961130">
        <ele>99.0</ele>
        <time>2018-04-28T05:48:52Z</time>
      </trkpt>
      <trkpt lat="38.2796220" lon="-0.6960790">
        <ele>99.0</ele>
        <time>2018-04-28T05:48:53Z</time>
      </trkpt>
      <trkpt lat="38.2796710" lon="-0.6960520">
        <ele>99.0</ele>
        <time>2018-04-28T05:48:54Z</time>
      </trkpt>
      <trkpt lat="38.2797200" lon="-0.6960360">
        <ele>99.0</ele>
        <time>2018-04-28T05:48:55Z</time>
      </trkpt>
      <trkpt lat="38.2797730" lon="-0.6960290">
        <ele>99.0</ele>
        <time>2018-04-28T05:48:56Z</time>
      </trkpt>
      <trkpt lat="38.2798280" lon="-0.6960310">
        <ele>99.0</ele>
        <time>2018-04-28T05:48:57Z</time>
      </trkpt>
      <trkpt lat="38.2798780" lon="-0.6960480">
        <ele>99.0</ele>
        <time>2018-04-28T05:48:58Z</time>
      </trkpt>
      <trkpt lat="38.2799270" lon="-0.6960760">
        <ele>99.0</ele>
        <time>2018-04-28T05:48:59Z</time>
      </trkpt>
      <trkpt lat="38.2799700" lon="-0.6961130">
        <ele>99.3</ele>
        <time>2018-04-28T05:49:00Z</time>
      </trkpt>
      <trkpt lat="38.2800140" lon="-0.6961560">
        <ele>99.6</ele>
        <time>2018-04-28T05:49:01Z</time>
      </trkpt>
      <trkpt lat="38.2800540" lon="-0.6962050">
        <ele>99.9</ele>
        <time>2018-04-28T05:49:02Z</time>
      </trkpt>
      <trkpt lat="38.2800880" lon="-0.6962630">
        <ele>100.2</ele>
        <time>2018-04-28T05:49:03Z</time>
      </trkpt>
      <trkpt lat="38.2801150" lon="-0.6963270">
        <ele>100.5</ele>
        <time>2018-04-28T05:49:04Z</time>
      </trkpt>
      <trkpt lat="38.2801390" lon="-0.6963940">
        <ele>100.8</ele>
        <time>2018-04-28T05:49:05Z</time>
      </trkpt>
      <trkpt lat="38.2801630" lon="-0.6964610">
        <ele>101.0</ele>
        <time>2018-04-28T05:49:06Z</time>
      </trkpt>
      <trkpt lat="38.2801970" lon="-0.6965250">
        <ele>101.0</ele>
        <time>2018-04-28T05:49:07Z</time>
      </trkpt>
      <trkpt lat="38.2802380" lon="-0.6965790">
        <ele>101.0</ele>
        <time>2018-04-28T05:49:08Z</time>
      </trkpt>
      <trkpt lat="38.2802860" lon="-0.6966220">
        <ele>101.0</ele>
        <time>2018-04-28T05:49:09Z</time>
      </trkpt>
      <trkpt lat="38.2803310" lon="-0.6966500">
        <ele>101.0</ele>
        <time>2018-04-28T05:49:10Z</time>
      </trkpt>
      <trkpt lat="38.2803860" lon="-0.6966560">
        <ele>101.0</ele>
        <time>2018-04-28T05:49:11Z</time>
      </trkpt>
      <trkpt lat="38.2804390" lon="-0.6966620">
        <ele>101.0</ele>
        <time>2018-04-28T05:49:12Z</time>
      </trkpt>
      <trkpt lat="38.2804920" lon="-0.6966670">
        <ele>101.1</ele>
        <time>2018-04-28T05:49:13Z</time>
      </trkpt>
      <trkpt lat="38.2805490" lon="-0.6966680">
        <ele>101.3</ele>
        <time>2018-04-28T05:49:14Z</time>
      </trkpt>
      <trkpt lat="38.2806050" lon="-0.6966690">
        <ele>101.4</ele>
        <time>2018-04-28T05:49:15Z</time>
      </trkpt>
      <trkpt lat="38.2806610" lon="-0.6966690">
        <ele>101.6</ele>
        <time>2018-04-28T05:49:16Z</time>
      </trkpt>
      <trkpt lat="38.2807170" lon="-0.6966700">
        <ele>101.7</ele>
        <time>2018-04-28T05:49:17Z</time>
      </trkpt>
      <trkpt lat="38.2807720" lon="-0.6966700">
        <ele>101.8</ele>
        <time>2018-04-28T05:49:18Z</time>
      </trkpt>
      <trkpt lat="38.2808270" lon="-0.6966710">
        <ele>101.9</ele>
        <time>2018-04-28T05:49:19Z</time>
      </trkpt>
      <trkpt lat="38.2808810" lon="-0.6966700">
        <ele>102.0</ele>
        <time>2018-04-28T05:49:20Z</time>
      </trkpt>
      <trkpt lat="38.2809340" lon="-0.6966690">
        <ele>102.0</ele>
        <time>2018-04-28T05:49:21Z</time>
      </trkpt>
      <trkpt lat="38.2809850" lon="-0.6966650">
        <ele>102.1</ele>
        <time>2018-04-28T05:49:22Z</time>
      </trkpt>
      <trkpt lat="38.2810350" lon="-0.6966630">
        <ele>102.1</ele>
        <time>2018-04-28T05:49:23Z</time>
      </trkpt>
      <trkpt lat="38.2810850" lon="-0.6966620">
        <ele>102.1</ele>
        <time>2018-04-28T05:49:24Z</time>
      </trkpt>
      <trkpt lat="38.2811330" lon="-0.6966600">
        <ele>102.1</ele>
        <time>2018-04-28T05:49:25Z</time>
      </trkpt>
      <trkpt lat="38.2811820" lon="-0.6966570">
        <ele>102.0</ele>
        <time>2018-04-28T05:49:26Z</time>
      </trkpt>
      <trkpt lat="38.2812290" lon="-0.6966550">
        <ele>102.0</ele>
        <time>2018-04-28T05:49:27Z</time>
      </trkpt>
      <trkpt lat="38.2812820" lon="-0.6966600">
        <ele>102.0</ele>
        <time>2018-04-28T05:49:28Z</time>
      </trkpt>
      <trkpt lat="38.2813330" lon="-0.6966660">
        <ele>102.0</ele>
        <time>2018-04-28T05:49:29Z</time>
      </trkpt>
      <trkpt lat="38.2813830" lon="-0.6966750">
        <ele>102.0</ele>
        <time>2018-04-28T05:49:30Z</time>
      </trkpt>
      <trkpt lat="38.2814320" lon="-0.6966870">
        <ele>102.0</ele>
        <time>2018-04-28T05:49:31Z</time>
      </trkpt>
      <trkpt lat="38.2814830" lon="-0.6966970">
        <ele>102.0</ele>
        <time>2018-04-28T05:49:32Z</time>
      </trkpt>
      <trkpt lat="38.2815340" lon="-0.6967080">
        <ele>102.0</ele>
        <time>2018-04-28T05:49:33Z</time>
      </trkpt>
      <trkpt lat="38.2815860" lon="-0.6967180">
        <ele>102.0</ele>
        <time>2018-04-28T05:49:34Z</time>
      </trkpt>
      <trkpt lat="38.2816400" lon="-0.6967270">
        <ele>102.0</ele>
        <time>2018-04-28T05:49:35Z</time>
      </trkpt>
      <trkpt lat="38.2816910" lon="-0.6967400">
        <ele>102.1</ele>
        <time>2018-04-28T05:49:36Z</time>
      </trkpt>
      <trkpt lat="38.2817430" lon="-0.6967540">
        <ele>102.1</ele>
        <time>2018-04-28T05:49:37Z</time>
      </trkpt>
      <trkpt lat="38.2817930" lon="-0.6967710">
        <ele>102.2</ele>
        <time>2018-04-28T05:49:38Z</time>
      </trkpt>
      <trkpt lat="38.2818450" lon="-0.6967920">
        <ele>102.2</ele>
        <time>2018-04-28T05:49:39Z</time>
      </trkpt>
      <trkpt lat="38.2818980" lon="-0.6968110">
        <ele>102.2</ele>
        <time>2018-04-28T05:49:40Z</time>
      </trkpt>
      <trkpt lat="38.2819500" lon="-0.6968320">
        <ele>102.2</ele>
        <time>2018-04-28T05:49:41Z</time>
      </trkpt>
      <trkpt lat="38.2820040" lon="-0.6968580">
        <ele>102.2</ele>
        <time>2018-04-28T05:49:42Z</time>
      </trkpt>
      <trkpt lat="38.2820550" lon="-0.6968850">
        <ele>102.1</ele>
        <time>2018-04-28T05:49:43Z</time>
      </trkpt>
      <trkpt lat="38.2821090" lon="-0.6969130">
        <ele>102.1</ele>
        <time>2018-04-28T05:49:44Z</time>
      </trkpt>
      <trkpt lat="38.2821620" lon="-0.6969400">
        <ele>102.2</ele>
        <time>2018-04-28T05:49:45Z</time>
      </trkpt>
      <trkpt lat="38.2822150" lon="-0.6969690">
        <ele>102.1</ele>
        <time>2018-04-28T05:49:46Z</time>
      </trkpt>
      <trkpt lat="38.2822680" lon="-0.6969910">
        <ele>102.1</ele>
        <time>2018-04-28T05:49:47Z</time>
      </trkpt>
      <trkpt lat="38.2823230" lon="-0.6970110">
        <ele>102.0</ele>
        <time>2018-04-28T05:49:48Z</time>
      </trkpt>
      <trkpt lat="38.2823780" lon="-0.6970320">
        <ele>102.0</ele>
        <time>2018-04-28T05:49:49Z</time>
      </trkpt>
      <trkpt lat="38.2824300" lon="-0.6970480">
        <ele>102.2</ele>
        <time>2018-04-28T05:49:50Z</time>
      </trkpt>
      <trkpt lat="38.2824810" lon="-0.6970580">
        <ele>102.3</ele>
        <time>2018-04-28T05:49:51Z</time>
      </trkpt>
      <trkpt lat="38.2825340" lon="-0.6970670">
        <ele>102.4</ele>
        <time>2018-04-28T05:49:52Z</time>
      </trkpt>
      <trkpt lat="38.2825880" lon="-0.6970760">
        <ele>102.5</ele>
        <time>2018-04-28T05:49:53Z</time>
      </trkpt>
      <trkpt lat="38.2826420" lon="-0.6970860">
        <ele>102.6</ele>
        <time>2018-04-28T05:49:54Z</time>
      </trkpt>
      <trkpt lat="38.2826970" lon="-0.6970970">
        <ele>102.7</ele>
        <time>2018-04-28T05:49:55Z</time>
      </trkpt>
      <trkpt lat="38.2827530" lon="-0.6971100">
        <ele>102.8</ele>
        <time>2018-04-28T05:49:56Z</time>
      </trkpt>
      <trkpt lat="38.2828050" lon="-0.6971240">
        <ele>102.8</ele>
        <time>2018-04-28T05:49:57Z</time>
      </trkpt>
      <trkpt lat="38.2828590" lon="-0.6971390">
        <ele>102.9</ele>
        <time>2018-04-28T05:49:58Z</time>
      </trkpt>
      <trkpt lat="38.2829120" lon="-0.6971530">
        <ele>103.0</ele>
        <time>2018-04-28T05:49:59Z</time>
      </trkpt>
      <trkpt lat="38.2829650" lon="-0.6971660">
        <ele>103.1</ele>
        <time>2018-04-28T05:50:00Z</time>
      </trkpt>
      <trkpt lat="38.2830180" lon="-0.6971780">
        <ele>103.2</ele>
        <time>2018-04-28T05:50:01Z</time>
      </trkpt>
      <trkpt lat="38.2830700" lon="-0.6971880">
        <ele>103.3</ele>
        <time>2018-04-28T05:50:02Z</time>
      </trkpt>
      <trkpt lat="38.2831220" lon="-0.6971980">
        <ele>103.4</ele>
        <time>2018-04-28T05:50:03Z</time>
      </trkpt>
      <trkpt lat="38.2831750" lon="-0.6972080">
        <ele>103.5</ele>
        <time>2018-04-28T05:50:04Z</time>
      </trkpt>
      <trkpt lat="38.2832270" lon="-0.6972190">
        <ele>103.5</ele>
        <time>2018-04-28T05:50:05Z</time>
      </trkpt>
      <trkpt lat="38.2832790" lon="-0.6972300">
        <ele>103.5</ele>
        <time>2018-04-28T05:50:06Z</time>
      </trkpt>
      <trkpt lat="38.2833300" lon="-0.6972420">
        <ele>103.6</ele>
        <time>2018-04-28T05:50:07Z</time>
      </trkpt>
      <trkpt lat="38.2833830" lon="-0.6972540">
        <ele>103.6</ele>
        <time>2018-04-28T05:50:08Z</time>
      </trkpt>
      <trkpt lat="38.2834360" lon="-0.6972680">
        <ele>103.6</ele>
        <time>2018-04-28T05:50:09Z</time>
      </trkpt>
      <trkpt lat="38.2834890" lon="-0.6972820">
        <ele>103.7</ele>
        <time>2018-04-28T05:50:10Z</time>
      </trkpt>
      <trkpt lat="38.2835430" lon="-0.6972970">
        <ele>103.7</ele>
        <time>2018-04-28T05:50:11Z</time>
      </trkpt>
      <trkpt lat="38.2835960" lon="-0.6973130">
        <ele>103.7</ele>
        <time>2018-04-28T05:50:12Z</time>
      </trkpt>
      <trkpt lat="38.2836480" lon="-0.6973260">
        <ele>103.8</ele>
        <time>2018-04-28T05:50:13Z</time>
      </trkpt>
      <trkpt lat="38.2836960" lon="-0.6973400">
        <ele>103.8</ele>
        <time>2018-04-28T05:50:14Z</time>
      </trkpt>
      <trkpt lat="38.2837460" lon="-0.6973550">
        <ele>103.8</ele>
        <time>2018-04-28T05:50:15Z</time>
      </trkpt>
      <trkpt lat="38.2837960" lon="-0.6973740">
        <ele>103.8</ele>
        <time>2018-04-28T05:50:16Z</time>
      </trkpt>
      <trkpt lat="38.2838490" lon="-0.6973930">
        <ele>103.8</ele>
        <time>2018-04-28T05:50:17Z</time>
      </trkpt>
      <trkpt lat="38.2839010" lon="-0.6974130">
        <ele>103.8</ele>
        <time>2018-04-28T05:50:18Z</time>
      </trkpt>
      <trkpt lat="38.2839570" lon="-0.6974370">
        <ele>103.8</ele>
        <time>2018-04-28T05:50:19Z</time>
      </trkpt>
      <trkpt lat="38.2840170" lon="-0.6974600">
        <ele>103.8</ele>
        <time>2018-04-28T05:50:20Z</time>
      </trkpt>
      <trkpt lat="38.2840830" lon="-0.6974770">
        <ele>103.9</ele>
        <time>2018-04-28T05:50:21Z</time>
      </trkpt>
      <trkpt lat="38.2841600" lon="-0.6974830">
        <ele>103.9</ele>
        <time>2018-04-28T05:50:22Z</time>
      </trkpt>
      <trkpt lat="38.2842380" lon="-0.6974890">
        <ele>104.2</ele>
        <time>2018-04-28T05:50:23Z</time>
      </trkpt>
      <trkpt lat="38.2843150" lon="-0.6974920">
        <ele>104.6</ele>
        <time>2018-04-28T05:50:24Z</time>
      </trkpt>
      <trkpt lat="38.2843950" lon="-0.6974890">
        <ele>105.1</ele>
        <time>2018-04-28T05:50:25Z</time>
      </trkpt>
      <trkpt lat="38.2844860" lon="-0.6974910">
        <ele>105.3</ele>
        <time>2018-04-28T05:50:26Z</time>
      </trkpt>
      <trkpt lat="38.2845720" lon="-0.6974930">
        <ele>105.6</ele>
        <time>2018-04-28T05:50:27Z</time>
      </trkpt>
      <trkpt lat="38.2846560" lon="-0.6974940">
        <ele>105.9</ele>
        <time>2018-04-28T05:50:28Z</time>
      </trkpt>
      <trkpt lat="38.2847330" lon="-0.6974950">
        <ele>106.2</ele>
        <time>2018-04-28T05:50:29Z</time>
      </trkpt>
      <trkpt lat="38.2848050" lon="-0.6974950">
        <ele>106.4</ele>
        <time>2018-04-28T05:50:30Z</time>
      </trkpt>
      <trkpt lat="38.2848760" lon="-0.6974930">
        <ele>106.7</ele>
        <time>2018-04-28T05:50:31Z</time>
      </trkpt>
      <trkpt lat="38.2849370" lon="-0.6974940">
        <ele>106.8</ele>
        <time>2018-04-28T05:50:32Z</time>
      </trkpt>
      <trkpt lat="38.2849980" lon="-0.6974930">
        <ele>107.0</ele>
        <time>2018-04-28T05:50:33Z</time>
      </trkpt>
      <trkpt lat="38.2850570" lon="-0.6974900">
        <ele>107.1</ele>
        <time>2018-04-28T05:50:34Z</time>
      </trkpt>
      <trkpt lat="38.2851100" lon="-0.6974830">
        <ele>107.2</ele>
        <time>2018-04-28T05:50:35Z</time>
      </trkpt>
      <trkpt lat="38.2851620" lon="-0.6974740">
        <ele>107.3</ele>
        <time>2018-04-28T05:50:36Z</time>
      </trkpt>
      <trkpt lat="38.2852090" lon="-0.6974630">
        <ele>107.3</ele>
        <time>2018-04-28T05:50:37Z</time>
      </trkpt>
      <trkpt lat="38.2852550" lon="-0.6974470">
        <ele>107.3</ele>
        <time>2018-04-28T05:50:38Z</time>
      </trkpt>
      <trkpt lat="38.2853020" lon="-0.6974260">
        <ele>107.3</ele>
        <time>2018-04-28T05:50:39Z</time>
      </trkpt>
      <trkpt lat="38.2853460" lon="-0.6974040">
        <ele>107.3</ele>
        <time>2018-04-28T05:50:40Z</time>
      </trkpt>
      <trkpt lat="38.2853880" lon="-0.6973820">
        <ele>107.3</ele>
        <time>2018-04-28T05:50:41Z</time>
      </trkpt>
      <trkpt lat="38.2854280" lon="-0.6973610">
        <ele>107.3</ele>
        <time>2018-04-28T05:50:42Z</time>
      </trkpt>
      <trkpt lat="38.2854700" lon="-0.6973370">
        <ele>107.3</ele>
        <time>2018-04-28T05:50:43Z</time>
      </trkpt>
      <trkpt lat="38.2855120" lon="-0.6973110">
        <ele>107.3</ele>
        <time>2018-04-28T05:50:44Z</time>
      </trkpt>
      <trkpt lat="38.2855530" lon="-0.6972810">
        <ele>107.3</ele>
        <time>2018-04-28T05:50:45Z</time>
      </trkpt>
      <trkpt lat="38.2855950" lon="-0.6972480">
        <ele>107.3</ele>
        <time>2018-04-28T05:50:46Z</time>
      </trkpt>
      <trkpt lat="38.2856400" lon="-0.6972150">
        <ele>107.3</ele>
        <time>2018-04-28T05:50:47Z</time>
      </trkpt>
      <trkpt lat="38.2856850" lon="-0.6971840">
        <ele>107.3</ele>
        <time>2018-04-28T05:50:48Z</time>
      </trkpt>
      <trkpt lat="38.2857330" lon="-0.6971520">
        <ele>107.3</ele>
        <time>2018-04-28T05:50:49Z</time>
      </trkpt>
      <trkpt lat="38.2857810" lon="-0.6971220">
        <ele>107.2</ele>
        <time>2018-04-28T05:50:50Z</time>
      </trkpt>
      <trkpt lat="38.2858300" lon="-0.6970910">
        <ele>107.2</ele>
        <time>2018-04-28T05:50:51Z</time>
      </trkpt>
      <trkpt lat="38.2858800" lon="-0.6970600">
        <ele>107.2</ele>
        <time>2018-04-28T05:50:52Z</time>
      </trkpt>
      <trkpt lat="38.2859300" lon="-0.6970310">
        <ele>107.2</ele>
        <time>2018-04-28T05:50:53Z</time>
      </trkpt>
      <trkpt lat="38.2859810" lon="-0.6970010">
        <ele>107.2</ele>
        <time>2018-04-28T05:50:54Z</time>
      </trkpt>
      <trkpt lat="38.2860320" lon="-0.6969720">
        <ele>107.2</ele>
        <time>2018-04-28T05:50:55Z</time>
      </trkpt>
      <trkpt lat="38.2860830" lon="-0.6969430">
        <ele>107.1</ele>
        <time>2018-04-28T05:50:56Z</time>
      </trkpt>
      <trkpt lat="38.2861370" lon="-0.6969130">
        <ele>107.1</ele>
        <time>2018-04-28T05:50:57Z</time>
      </trkpt>
      <trkpt lat="38.2861910" lon="-0.6968900">
        <ele>107.1</ele>
        <time>2018-04-28T05:50:58Z</time>
      </trkpt>
      <trkpt lat="38.2862450" lon="-0.6968700">
        <ele>107.1</ele>
        <time>2018-04-28T05:50:59Z</time>
      </trkpt>
      <trkpt lat="38.2863000" lon="-0.6968530">
        <ele>107.1</ele>
        <time>2018-04-28T05:51:00Z</time>
      </trkpt>
      <trkpt lat="38.2863560" lon="-0.6968410">
        <ele>107.1</ele>
        <time>2018-04-28T05:51:01Z</time>
      </trkpt>
      <trkpt lat="38.2864110" lon="-0.6968310">
        <ele>107.1</ele>
        <time>2018-04-28T05:51:02Z</time>
      </trkpt>
      <trkpt lat="38.2864680" lon="-0.6968230">
        <ele>107.1</ele>
        <time>2018-04-28T05:51:03Z</time>
      </trkpt>
      <trkpt lat="38.2865240" lon="-0.6968140">
        <ele>107.1</ele>
        <time>2018-04-28T05:51:04Z</time>
      </trkpt>
      <trkpt lat="38.2865800" lon="-0.6968080">
        <ele>107.1</ele>
        <time>2018-04-28T05:51:05Z</time>
      </trkpt>
      <trkpt lat="38.2866370" lon="-0.6968010">
        <ele>107.1</ele>
        <time>2018-04-28T05:51:06Z</time>
      </trkpt>
      <trkpt lat="38.2866950" lon="-0.6967970">
        <ele>107.1</ele>
        <time>2018-04-28T05:51:07Z</time>
      </trkpt>
      <trkpt lat="38.2867530" lon="-0.6967920">
        <ele>107.2</ele>
        <time>2018-04-28T05:51:08Z</time>
      </trkpt>
      <trkpt lat="38.2868110" lon="-0.6967850">
        <ele>107.3</ele>
        <time>2018-04-28T05:51:09Z</time>
      </trkpt>
      <trkpt lat="38.2868690" lon="-0.6967760">
        <ele>107.4</ele>
        <time>2018-04-28T05:51:10Z</time>
      </trkpt>
      <trkpt lat="38.2869270" lon="-0.6967600">
        <ele>107.5</ele>
        <time>2018-04-28T05:51:11Z</time>
      </trkpt>
      <trkpt lat="38.2869830" lon="-0.6967430">
        <ele>107.7</ele>
        <time>2018-04-28T05:51:12Z</time>
      </trkpt>
      <trkpt lat="38.2870370" lon="-0.6967210">
        <ele>107.8</ele>
        <time>2018-04-28T05:51:13Z</time>
      </trkpt>
      <trkpt lat="38.2870930" lon="-0.6966970">
        <ele>107.9</ele>
        <time>2018-04-28T05:51:14Z</time>
      </trkpt>
      <trkpt lat="38.2871490" lon="-0.6966720">
        <ele>108.0</ele>
        <time>2018-04-28T05:51:15Z</time>
      </trkpt>
      <trkpt lat="38.2872030" lon="-0.6966450">
        <ele>108.1</ele>
        <time>2018-04-28T05:51:16Z</time>
      </trkpt>
      <trkpt lat="38.2872550" lon="-0.6966170">
        <ele>108.1</ele>
        <time>2018-04-28T05:51:17Z</time>
      </trkpt>
      <trkpt lat="38.2873060" lon="-0.6965860">
        <ele>108.2</ele>
        <time>2018-04-28T05:51:18Z</time>
      </trkpt>
      <trkpt lat="38.2873560" lon="-0.6965550">
        <ele>108.3</ele>
        <time>2018-04-28T05:51:19Z</time>
      </trkpt>
      <trkpt lat="38.2874060" lon="-0.6965230">
        <ele>108.4</ele>
        <time>2018-04-28T05:51:20Z</time>
      </trkpt>
      <trkpt lat="38.2874570" lon="-0.6964920">
        <ele>108.6</ele>
        <time>2018-04-28T05:51:21Z</time>
      </trkpt>
      <trkpt lat="38.2875070" lon="-0.6964630">
        <ele>108.8</ele>
        <time>2018-04-28T05:51:22Z</time>
      </trkpt>
      <trkpt lat="38.2875600" lon="-0.6964410">
        <ele>109.0</ele>
        <time>2018-04-28T05:51:23Z</time>
      </trkpt>
      <trkpt lat="38.2876150" lon="-0.6964270">
        <ele>109.3</ele>
        <time>2018-04-28T05:51:24Z</time>
      </trkpt>
      <trkpt lat="38.2876710" lon="-0.6964250">
        <ele>109.6</ele>
        <time>2018-04-28T05:51:25Z</time>
      </trkpt>
      <trkpt lat="38.2877220" lon="-0.6964380">
        <ele>109.8</ele>
        <time>2018-04-28T05:51:26Z</time>
      </trkpt>
      <trkpt lat="38.2877740" lon="-0.6964590">
        <ele>110.1</ele>
        <time>2018-04-28T05:51:27Z</time>
      </trkpt>
      <trkpt lat="38.2878260" lon="-0.6964860">
        <ele>110.4</ele>
        <time>2018-04-28T05:51:28Z</time>
      </trkpt>
      <trkpt lat="38.2878740" lon="-0.6965170">
        <ele>110.6</ele>
        <time>2018-04-28T05:51:29Z</time>
      </trkpt>
      <trkpt lat="38.2879220" lon="-0.6965490">
        <ele>110.9</ele>
        <time>2018-04-28T05:51:30Z</time>
      </trkpt>
      <trkpt lat="38.2879700" lon="-0.6965770">
        <ele>111.1</ele>
        <time>2018-04-28T05:51:31Z</time>
      </trkpt>
      <trkpt lat="38.2880170" lon="-0.6965950">
        <ele>111.3</ele>
        <time>2018-04-28T05:51:32Z</time>
      </trkpt>
      <trkpt lat="38.2880660" lon="-0.6965990">
        <ele>111.5</ele>
        <time>2018-04-28T05:51:33Z</time>
      </trkpt>
      <trkpt lat="38.2881160" lon="-0.6965910">
        <ele>111.7</ele>
        <time>2018-04-28T05:51:34Z</time>
      </trkpt>
      <trkpt lat="38.2881630" lon="-0.6965710">
        <ele>111.9</ele>
        <time>2018-04-28T05:51:35Z</time>
      </trkpt>
      <trkpt lat="38.2882090" lon="-0.6965440">
        <ele>112.1</ele>
        <time>2018-04-28T05:51:36Z</time>
      </trkpt>
      <trkpt lat="38.2882480" lon="-0.6965160">
        <ele>112.3</ele>
        <time>2018-04-28T05:51:37Z</time>
      </trkpt>
      <trkpt lat="38.2882860" lon="-0.6964800">
        <ele>112.5</ele>
        <time>2018-04-28T05:51:38Z</time>
      </trkpt>
      <trkpt lat="38.2883150" lon="-0.6964320">
        <ele>112.6</ele>
        <time>2018-04-28T05:51:39Z</time>
      </trkpt>
      <trkpt lat="38.2883430" lon="-0.6963890">
        <ele>112.8</ele>
        <time>2018-04-28T05:51:40Z</time>
      </trkpt>
      <trkpt lat="38.2883710" lon="-0.6963410">
        <ele>112.9</ele>
        <time>2018-04-28T05:51:41Z</time>
      </trkpt>
      <trkpt lat="38.2883920" lon="-0.6962910">
        <ele>113.0</ele>
        <time>2018-04-28T05:51:42Z</time>
      </trkpt>
      <trkpt lat="38.2884110" lon="-0.6962440">
        <ele>113.1</ele>
        <time>2018-04-28T05:51:43Z</time>
      </trkpt>
      <trkpt lat="38.2884340" lon="-0.6961930">
        <ele>113.2</ele>
        <time>2018-04-28T05:51:44Z</time>
      </trkpt>
      <trkpt lat="38.2884590" lon="-0.6961410">
        <ele>113.3</ele>
        <time>2018-04-28T05:51:45Z</time>
      </trkpt>
      <trkpt lat="38.2884870" lon="-0.6960880">
        <ele>113.4</ele>
        <time>2018-04-28T05:51:46Z</time>
      </trkpt>
      <trkpt lat="38.2885170" lon="-0.6960350">
        <ele>113.5</ele>
        <time>2018-04-28T05:51:47Z</time>
      </trkpt>
      <trkpt lat="38.2885490" lon="-0.6959820">
        <ele>113.7</ele>
        <time>2018-04-28T05:51:48Z</time>
      </trkpt>
      <trkpt lat="38.2885810" lon="-0.6959310">
        <ele>113.8</ele>
        <time>2018-04-28T05:51:49Z</time>
      </trkpt>
      <trkpt lat="38.2886150" lon="-0.6958830">
        <ele>114.0</ele>
        <time>2018-04-28T05:51:50Z</time>
      </trkpt>
      <trkpt lat="38.2886510" lon="-0.6958390">
        <ele>114.1</ele>
        <time>2018-04-28T05:51:51Z</time>
      </trkpt>
      <trkpt lat="38.2886850" lon="-0.6957960">
        <ele>114.2</ele>
        <time>2018-04-28T05:51:52Z</time>
      </trkpt>
      <trkpt lat="38.2887210" lon="-0.6957570">
        <ele>114.3</ele>
        <time>2018-04-28T05:51:53Z</time>
      </trkpt>
      <trkpt lat="38.2887580" lon="-0.6957180">
        <ele>114.3</ele>
        <time>2018-04-28T05:51:54Z</time>
      </trkpt>
      <trkpt lat="38.2887970" lon="-0.6956820">
        <ele>114.4</ele>
        <time>2018-04-28T05:51:55Z</time>
      </trkpt>
      <trkpt lat="38.2888380" lon="-0.6956460">
        <ele>114.4</ele>
        <time>2018-04-28T05:51:56Z</time>
      </trkpt>
      <trkpt lat="38.2888800" lon="-0.6956120">
        <ele>114.4</ele>
        <time>2018-04-28T05:51:57Z</time>
      </trkpt>
      <trkpt lat="38.2889230" lon="-0.6955820">
        <ele>114.4</ele>
        <time>2018-04-28T05:51:58Z</time>
      </trkpt>
      <trkpt lat="38.2889670" lon="-0.6955560">
        <ele>114.4</ele>
        <time>2018-04-28T05:51:59Z</time>
      </trkpt>
      <trkpt lat="38.2890110" lon="-0.6955310">
        <ele>114.5</ele>
        <time>2018-04-28T05:52:00Z</time>
      </trkpt>
      <trkpt lat="38.2890580" lon="-0.6955030">
        <ele>114.5</ele>
        <time>2018-04-28T05:52:01Z</time>
      </trkpt>
      <trkpt lat="38.2891040" lon="-0.6954760">
        <ele>114.5</ele>
        <time>2018-04-28T05:52:02Z</time>
      </trkpt>
      <trkpt lat="38.2891500" lon="-0.6954520">
        <ele>114.5</ele>
        <time>2018-04-28T05:52:03Z</time>
      </trkpt>
      <trkpt lat="38.2891940" lon="-0.6954280">
        <ele>114.5</ele>
        <time>2018-04-28T05:52:04Z</time>
      </trkpt>
      <trkpt lat="38.2892390" lon="-0.6954060">
        <ele>114.5</ele>
        <time>2018-04-28T05:52:05Z</time>
      </trkpt>
      <trkpt lat="38.2892840" lon="-0.6953830">
        <ele>114.5</ele>
        <time>2018-04-28T05:52:06Z</time>
      </trkpt>
      <trkpt lat="38.2893310" lon="-0.6953570">
        <ele>114.5</ele>
        <time>2018-04-28T05:52:07Z</time>
      </trkpt>
      <trkpt lat="38.2893770" lon="-0.6953290">
        <ele>114.6</ele>
        <time>2018-04-28T05:52:08Z</time>
      </trkpt>
      <trkpt lat="38.2894220" lon="-0.6953020">
        <ele>114.6</ele>
        <time>2018-04-28T05:52:09Z</time>
      </trkpt>
      <trkpt lat="38.2894660" lon="-0.6952730">
        <ele>114.7</ele>
        <time>2018-04-28T05:52:10Z</time>
      </trkpt>
      <trkpt lat="38.2895100" lon="-0.6952470">
        <ele>114.8</ele>
        <time>2018-04-28T05:52:11Z</time>
      </trkpt>
      <trkpt lat="38.2895590" lon="-0.6952170">
        <ele>114.9</ele>
        <time>2018-04-28T05:52:12Z</time>
      </trkpt>
      <trkpt lat="38.2896060" lon="-0.6951880">
        <ele>115.1</ele>
        <time>2018-04-28T05:52:13Z</time>
      </trkpt>
      <trkpt lat="38.2896540" lon="-0.6951570">
        <ele>115.3</ele>
        <time>2018-04-28T05:52:14Z</time>
      </trkpt>
      <trkpt lat="38.2897000" lon="-0.6951270">
        <ele>115.5</ele>
        <time>2018-04-28T05:52:15Z</time>
      </trkpt>
      <trkpt lat="38.2897450" lon="-0.6950970">
        <ele>115.7</ele>
        <time>2018-04-28T05:52:16Z</time>
      </trkpt>
      <trkpt lat="38.2897930" lon="-0.6950700">
        <ele>115.8</ele>
        <time>2018-04-28T05:52:17Z</time>
      </trkpt>
      <trkpt lat="38.2898380" lon="-0.6950440">
        <ele>115.9</ele>
        <time>2018-04-28T05:52:18Z</time>
      </trkpt>
      <trkpt lat="38.2898840" lon="-0.6950180">
        <ele>116.0</ele>
        <time>2018-04-28T05:52:19Z</time>
      </trkpt>
      <trkpt lat="38.2899300" lon="-0.6949910">
        <ele>116.1</ele>
        <time>2018-04-28T05:52:20Z</time>
      </trkpt>
      <trkpt lat="38.2899750" lon="-0.6949640">
        <ele>116.2</ele>
        <time>2018-04-28T05:52:21Z</time>
      </trkpt>
      <trkpt lat="38.2900200" lon="-0.6949370">
        <ele>116.4</ele>
        <time>2018-04-28T05:52:22Z</time>
      </trkpt>
      <trkpt lat="38.2900700" lon="-0.6949080">
        <ele>116.6</ele>
        <time>2018-04-28T05:52:23Z</time>
      </trkpt>
      <trkpt lat="38.2901170" lon="-0.6948810">
        <ele>116.9</ele>
        <time>2018-04-28T05:52:24Z</time>
      </trkpt>
      <trkpt lat="38.2901630" lon="-0.6948540">
        <ele>117.1</ele>
        <time>2018-04-28T05:52:25Z</time>
      </trkpt>
      <trkpt lat="38.2902090" lon="-0.6948240">
        <ele>117.4</ele>
        <time>2018-04-28T05:52:26Z</time>
      </trkpt>
      <trkpt lat="38.2902590" lon="-0.6947890">
        <ele>117.6</ele>
        <time>2018-04-28T05:52:27Z</time>
      </trkpt>
      <trkpt lat="38.2903050" lon="-0.6947560">
        <ele>117.9</ele>
        <time>2018-04-28T05:52:28Z</time>
      </trkpt>
      <trkpt lat="38.2903500" lon="-0.6947220">
        <ele>118.1</ele>
        <time>2018-04-28T05:52:29Z</time>
      </trkpt>
      <trkpt lat="38.2903950" lon="-0.6946870">
        <ele>118.3</ele>
        <time>2018-04-28T05:52:30Z</time>
      </trkpt>
      <trkpt lat="38.2904370" lon="-0.6946510">
        <ele>118.6</ele>
        <time>2018-04-28T05:52:31Z</time>
      </trkpt>
      <trkpt lat="38.2904770" lon="-0.6946170">
        <ele>118.8</ele>
        <time>2018-04-28T05:52:32Z</time>
      </trkpt>
      <trkpt lat="38.2905160" lon="-0.6945810">
        <ele>119.0</ele>
        <time>2018-04-28T05:52:33Z</time>
      </trkpt>
      <trkpt lat="38.2905520" lon="-0.6945450">
        <ele>119.1</ele>
        <time>2018-04-28T05:52:34Z</time>
      </trkpt>
      <trkpt lat="38.2905890" lon="-0.6945090">
        <ele>119.3</ele>
        <time>2018-04-28T05:52:35Z</time>
      </trkpt>
      <trkpt lat="38.2906270" lon="-0.6944720">
        <ele>119.5</ele>
        <time>2018-04-28T05:52:36Z</time>
      </trkpt>
      <trkpt lat="38.2906650" lon="-0.6944340">
        <ele>119.7</ele>
        <time>2018-04-28T05:52:37Z</time>
      </trkpt>
      <trkpt lat="38.2907020" lon="-0.6943960">
        <ele>119.9</ele>
        <time>2018-04-28T05:52:38Z</time>
      </trkpt>
      <trkpt lat="38.2907400" lon="-0.6943580">
        <ele>120.3</ele>
        <time>2018-04-28T05:52:39Z</time>
      </trkpt>
      <trkpt lat="38.2907750" lon="-0.6943220">
        <ele>121.3</ele>
        <time>2018-04-28T05:52:40Z</time>
      </trkpt>
      <trkpt lat="38.2908110" lon="-0.6942880">
        <ele>122.2</ele>
        <time>2018-04-28T05:52:41Z</time>
      </trkpt>
      <trkpt lat="38.2908460" lon="-0.6942550">
        <ele>123.0</ele>
        <time>2018-04-28T05:52:42Z</time>
      </trkpt>
      <trkpt lat="38.2908820" lon="-0.6942230">
        <ele>123.2</ele>
        <time>2018-04-28T05:52:43Z</time>
      </trkpt>
      <trkpt lat="38.2909170" lon="-0.6941920">
        <ele>123.3</ele>
        <time>2018-04-28T05:52:44Z</time>
      </trkpt>
      <trkpt lat="38.2909520" lon="-0.6941630">
        <ele>123.4</ele>
        <time>2018-04-28T05:52:45Z</time>
      </trkpt>
      <trkpt lat="38.2909870" lon="-0.6941350">
        <ele>123.6</ele>
        <time>2018-04-28T05:52:46Z</time>
      </trkpt>
      <trkpt lat="38.2910230" lon="-0.6941060">
        <ele>123.7</ele>
        <time>2018-04-28T05:52:47Z</time>
      </trkpt>
      <trkpt lat="38.2910600" lon="-0.6940780">
        <ele>123.9</ele>
        <time>2018-04-28T05:52:48Z</time>
      </trkpt>
      <trkpt lat="38.2910980" lon="-0.6940500">
        <ele>124.0</ele>
        <time>2018-04-28T05:52:49Z</time>
      </trkpt>
      <trkpt lat="38.2911340" lon="-0.6940240">
        <ele>124.2</ele>
        <time>2018-04-28T05:52:50Z</time>
      </trkpt>
      <trkpt lat="38.2911710" lon="-0.6939980">
        <ele>124.3</ele>
        <time>2018-04-28T05:52:51Z</time>
      </trkpt>
      <trkpt lat="38.2912090" lon="-0.6939690">
        <ele>124.5</ele>
        <time>2018-04-28T05:52:52Z</time>
      </trkpt>
      <trkpt lat="38.2912490" lon="-0.6939430">
        <ele>124.6</ele>
        <time>2018-04-28T05:52:53Z</time>
      </trkpt>
      <trkpt lat="38.2912890" lon="-0.6939160">
        <ele>124.7</ele>
        <time>2018-04-28T05:52:54Z</time>
      </trkpt>
      <trkpt lat="38.2913290" lon="-0.6938890">
        <ele>124.9</ele>
        <time>2018-04-28T05:52:55Z</time>
      </trkpt>
      <trkpt lat="38.2913730" lon="-0.6938610">
        <ele>125.0</ele>
        <time>2018-04-28T05:52:56Z</time>
      </trkpt>
      <trkpt lat="38.2914130" lon="-0.6938340">
        <ele>125.1</ele>
        <time>2018-04-28T05:52:57Z</time>
      </trkpt>
      <trkpt lat="38.2914560" lon="-0.6938060">
        <ele>125.3</ele>
        <time>2018-04-28T05:52:58Z</time>
      </trkpt>
      <trkpt lat="38.2914980" lon="-0.6937780">
        <ele>125.4</ele>
        <time>2018-04-28T05:52:59Z</time>
      </trkpt>
      <trkpt lat="38.2915420" lon="-0.6937500">
        <ele>125.5</ele>
        <time>2018-04-28T05:53:00Z</time>
      </trkpt>
      <trkpt lat="38.2915860" lon="-0.6937200">
        <ele>125.7</ele>
        <time>2018-04-28T05:53:01Z</time>
      </trkpt>
      <trkpt lat="38.2916300" lon="-0.6936920">
        <ele>125.8</ele>
        <time>2018-04-28T05:53:02Z</time>
      </trkpt>
      <trkpt lat="38.2916740" lon="-0.6936630">
        <ele>126.0</ele>
        <time>2018-04-28T05:53:03Z</time>
      </trkpt>
      <trkpt lat="38.2917170" lon="-0.6936330">
        <ele>126.1</ele>
        <time>2018-04-28T05:53:04Z</time>
      </trkpt>
      <trkpt lat="38.2917620" lon="-0.6936040">
        <ele>126.2</ele>
        <time>2018-04-28T05:53:05Z</time>
      </trkpt>
      <trkpt lat="38.2918050" lon="-0.6935760">
        <ele>126.6</ele>
        <time>2018-04-28T05:53:06Z</time>
      </trkpt>
      <trkpt lat="38.2918480" lon="-0.6935480">
        <ele>126.9</ele>
        <time>2018-04-28T05:53:07Z</time>
      </trkpt>
      <trkpt lat="38.2918910" lon="-0.6935200">
        <ele>127.1</ele>
        <time>2018-04-28T05:53:08Z</time>
      </trkpt>
      <trkpt lat="38.2919350" lon="-0.6934920">
        <ele>127.2</ele>
        <time>2018-04-28T05:53:09Z</time>
      </trkpt>
      <trkpt lat="38.2919790" lon="-0.6934650">
        <ele>127.4</ele>
        <time>2018-04-28T05:53:10Z</time>
      </trkpt>
      <trkpt lat="38.2920230" lon="-0.6934380">
        <ele>127.6</ele>
        <time>2018-04-28T05:53:11Z</time>
      </trkpt>
      <trkpt lat="38.2920660" lon="-0.6934100">
        <ele>127.8</ele>
        <time>2018-04-28T05:53:12Z</time>
      </trkpt>
      <trkpt lat="38.2921110" lon="-0.6933840">
        <ele>127.9</ele>
        <time>2018-04-28T05:53:13Z</time>
      </trkpt>
      <trkpt lat="38.2921550" lon="-0.6933580">
        <ele>128.1</ele>
        <time>2018-04-28T05:53:14Z</time>
      </trkpt>
      <trkpt lat="38.2922000" lon="-0.6933320">
        <ele>128.4</ele>
        <time>2018-04-28T05:53:15Z</time>
      </trkpt>
      <trkpt lat="38.2922450" lon="-0.6933080">
        <ele>128.7</ele>
        <time>2018-04-28T05:53:16Z</time>
      </trkpt>
      <trkpt lat="38.2922910" lon="-0.6932860">
        <ele>129.0</ele>
        <time>2018-04-28T05:53:17Z</time>
      </trkpt>
      <trkpt lat="38.2923370" lon="-0.6932640">
        <ele>129.1</ele>
        <time>2018-04-28T05:53:18Z</time>
      </trkpt>
      <trkpt lat="38.2923810" lon="-0.6932430">
        <ele>129.3</ele>
        <time>2018-04-28T05:53:19Z</time>
      </trkpt>
      <trkpt lat="38.2924280" lon="-0.6932220">
        <ele>129.5</ele>
        <time>2018-04-28T05:53:20Z</time>
      </trkpt>
      <trkpt lat="38.2924750" lon="-0.6932010">
        <ele>129.7</ele>
        <time>2018-04-28T05:53:21Z</time>
      </trkpt>
      <trkpt lat="38.2925240" lon="-0.6931820">
        <ele>129.9</ele>
        <time>2018-04-28T05:53:22Z</time>
      </trkpt>
      <trkpt lat="38.2925760" lon="-0.6931640">
        <ele>130.2</ele>
        <time>2018-04-28T05:53:23Z</time>
      </trkpt>
      <trkpt lat="38.2926280" lon="-0.6931460">
        <ele>130.5</ele>
        <time>2018-04-28T05:53:24Z</time>
      </trkpt>
      <trkpt lat="38.2926860" lon="-0.6931280">
        <ele>130.8</ele>
        <time>2018-04-28T05:53:25Z</time>
      </trkpt>
      <trkpt lat="38.2927450" lon="-0.6931100">
        <ele>131.0</ele>
        <time>2018-04-28T05:53:26Z</time>
      </trkpt>
      <trkpt lat="38.2928090" lon="-0.6930910">
        <ele>131.2</ele>
        <time>2018-04-28T05:53:27Z</time>
      </trkpt>
      <trkpt lat="38.2928760" lon="-0.6930700">
        <ele>131.5</ele>
        <time>2018-04-28T05:53:28Z</time>
      </trkpt>
      <trkpt lat="38.2929460" lon="-0.6930510">
        <ele>131.7</ele>
        <time>2018-04-28T05:53:29Z</time>
      </trkpt>
      <trkpt lat="38.2930180" lon="-0.6930330">
        <ele>131.9</ele>
        <time>2018-04-28T05:53:30Z</time>
      </trkpt>
      <trkpt lat="38.2930910" lon="-0.6930150">
        <ele>132.1</ele>
        <time>2018-04-28T05:53:31Z</time>
      </trkpt>
      <trkpt lat="38.2931620" lon="-0.6929940">
        <ele>132.2</ele>
        <time>2018-04-28T05:53:32Z</time>
      </trkpt>
      <trkpt lat="38.2932340" lon="-0.6929750">
        <ele>132.3</ele>
        <time>2018-04-28T05:53:33Z</time>
      </trkpt>
      <trkpt lat="38.2933040" lon="-0.6929560">
        <ele>132.4</ele>
        <time>2018-04-28T05:53:34Z</time>
      </trkpt>
      <trkpt lat="38.2933730" lon="-0.6929370">
        <ele>132.5</ele>
        <time>2018-04-28T05:53:35Z</time>
      </trkpt>
      <trkpt lat="38.2934420" lon="-0.6929200">
        <ele>132.6</ele>
        <time>2018-04-28T05:53:36Z</time>
      </trkpt>
      <trkpt lat="38.2935060" lon="-0.6929040">
        <ele>132.7</ele>
        <time>2018-04-28T05:53:37Z</time>
      </trkpt>
      <trkpt lat="38.2935730" lon="-0.6928920">
        <ele>132.8</ele>
        <time>2018-04-28T05:53:38Z</time>
      </trkpt>
      <trkpt lat="38.2936200" lon="-0.6928510">
        <ele>132.9</ele>
        <time>2018-04-28T05:53:39Z</time>
      </trkpt>
      <trkpt lat="38.2936730" lon="-0.6928170">
        <ele>133.3</ele>
        <time>2018-04-28T05:53:40Z</time>
      </trkpt>
      <trkpt lat="38.2937310" lon="-0.6927880">
        <ele>133.9</ele>
        <time>2018-04-28T05:53:41Z</time>
      </trkpt>
      <trkpt lat="38.2937790" lon="-0.6927590">
        <ele>134.4</ele>
        <time>2018-04-28T05:53:42Z</time>
      </trkpt>
      <trkpt lat="38.2938240" lon="-0.6927290">
        <ele>134.9</ele>
        <time>2018-04-28T05:53:43Z</time>
      </trkpt>
      <trkpt lat="38.2938620" lon="-0.6927000">
        <ele>135.3</ele>
        <time>2018-04-28T05:53:44Z</time>
      </trkpt>
      <trkpt lat="38.2938970" lon="-0.6926700">
        <ele>135.7</ele>
        <time>2018-04-28T05:53:45Z</time>
      </trkpt>
      <trkpt lat="38.2939290" lon="-0.6926410">
        <ele>136.1</ele>
        <time>2018-04-28T05:53:46Z</time>
      </trkpt>
      <trkpt lat="38.2939580" lon="-0.6926150">
        <ele>136.4</ele>
        <time>2018-04-28T05:53:47Z</time>
      </trkpt>
      <trkpt lat="38.2939870" lon="-0.6925890">
        <ele>136.7</ele>
        <time>2018-04-28T05:53:48Z</time>
      </trkpt>
      <trkpt lat="38.2940150" lon="-0.6925640">
        <ele>137.0</ele>
        <time>2018-04-28T05:53:49Z</time>
      </trkpt>
      <trkpt lat="38.2940410" lon="-0.6925370">
        <ele>137.3</ele>
        <time>2018-04-28T05:53:50Z</time>
      </trkpt>
      <trkpt lat="38.2940650" lon="-0.6925070">
        <ele>137.6</ele>
        <time>2018-04-28T05:53:51Z</time>
      </trkpt>
      <trkpt lat="38.2940900" lon="-0.6924830">
        <ele>137.8</ele>
        <time>2018-04-28T05:53:52Z</time>
      </trkpt>
      <trkpt lat="38.2941160" lon="-0.6924580">
        <ele>138.1</ele>
        <time>2018-04-28T05:53:53Z</time>
      </trkpt>
      <trkpt lat="38.2941430" lon="-0.6924340">
        <ele>138.4</ele>
        <time>2018-04-28T05:53:54Z</time>
      </trkpt>
      <trkpt lat="38.2941690" lon="-0.6924110">
        <ele>138.6</ele>
        <time>2018-04-28T05:53:55Z</time>
      </trkpt>
      <trkpt lat="38.2941970" lon="-0.6923890">
        <ele>138.9</ele>
        <time>2018-04-28T05:53:56Z</time>
      </trkpt>
      <trkpt lat="38.2942230" lon="-0.6923670">
        <ele>139.1</ele>
        <time>2018-04-28T05:53:57Z</time>
      </trkpt>
      <trkpt lat="38.2942510" lon="-0.6923470">
        <ele>139.3</ele>
        <time>2018-04-28T05:53:58Z</time>
      </trkpt>
      <trkpt lat="38.2942780" lon="-0.6923290">
        <ele>139.5</ele>
        <time>2018-04-28T05:53:59Z</time>
      </trkpt>
      <trkpt lat="38.2943060" lon="-0.6923100">
        <ele>139.7</ele>
        <time>2018-04-28T05:54:00Z</time>
      </trkpt>
      <trkpt lat="38.2943330" lon="-0.6922930">
        <ele>139.9</ele>
        <time>2018-04-28T05:54:01Z</time>
      </trkpt>
      <trkpt lat="38.2943590" lon="-0.6922770">
        <ele>140.0</ele>
        <time>2018-04-28T05:54:02Z</time>
      </trkpt>
      <trkpt lat="38.2943880" lon="-0.6922580">
        <ele>140.2</ele>
        <time>2018-04-28T05:54:03Z</time>
      </trkpt>
      <trkpt lat="38.2944190" lon="-0.6922410">
        <ele>140.4</ele>
        <time>2018-04-28T05:54:04Z</time>
      </trkpt>
      <trkpt lat="38.2944500" lon="-0.6922260">
        <ele>140.5</ele>
        <time>2018-04-28T05:54:05Z</time>
      </trkpt>
      <trkpt lat="38.2944840" lon="-0.6922080">
        <ele>140.7</ele>
        <time>2018-04-28T05:54:06Z</time>
      </trkpt>
      <trkpt lat="38.2945170" lon="-0.6921920">
        <ele>140.9</ele>
        <time>2018-04-28T05:54:07Z</time>
      </trkpt>
      <trkpt lat="38.2945510" lon="-0.6921780">
        <ele>141.0</ele>
        <time>2018-04-28T05:54:08Z</time>
      </trkpt>
      <trkpt lat="38.2945850" lon="-0.6921640">
        <ele>141.1</ele>
        <time>2018-04-28T05:54:09Z</time>
      </trkpt>
      <trkpt lat="38.2946160" lon="-0.6921500">
        <ele>141.2</ele>
        <time>2018-04-28T05:54:10Z</time>
      </trkpt>
      <trkpt lat="38.2946470" lon="-0.6921330">
        <ele>141.4</ele>
        <time>2018-04-28T05:54:11Z</time>
      </trkpt>
      <trkpt lat="38.2946790" lon="-0.6921180">
        <ele>141.5</ele>
        <time>2018-04-28T05:54:12Z</time>
      </trkpt>
      <trkpt lat="38.2947100" lon="-0.6921030">
        <ele>141.6</ele>
        <time>2018-04-28T05:54:13Z</time>
      </trkpt>
      <trkpt lat="38.2947430" lon="-0.6920890">
        <ele>141.8</ele>
        <time>2018-04-28T05:54:14Z</time>
      </trkpt>
      <trkpt lat="38.2947750" lon="-0.6920740">
        <ele>141.9</ele>
        <time>2018-04-28T05:54:15Z</time>
      </trkpt>
      <trkpt lat="38.2948090" lon="-0.6920590">
        <ele>142.0</ele>
        <time>2018-04-28T05:54:16Z</time>
      </trkpt>
      <trkpt lat="38.2948430" lon="-0.6920460">
        <ele>142.2</ele>
        <time>2018-04-28T05:54:17Z</time>
      </trkpt>
      <trkpt lat="38.2948790" lon="-0.6920290">
        <ele>142.4</ele>
        <time>2018-04-28T05:54:18Z</time>
      </trkpt>
      <trkpt lat="38.2949160" lon="-0.6920110">
        <ele>142.5</ele>
        <time>2018-04-28T05:54:19Z</time>
      </trkpt>
      <trkpt lat="38.2949530" lon="-0.6919950">
        <ele>142.7</ele>
        <time>2018-04-28T05:54:20Z</time>
      </trkpt>
      <trkpt lat="38.2949900" lon="-0.6919780">
        <ele>142.8</ele>
        <time>2018-04-28T05:54:21Z</time>
      </trkpt>
      <trkpt lat="38.2950280" lon="-0.6919630">
        <ele>142.9</ele>
        <time>2018-04-28T05:54:22Z</time>
      </trkpt>
      <trkpt lat="38.2950650" lon="-0.6919470">
        <ele>143.0</ele>
        <time>2018-04-28T05:54:23Z</time>
      </trkpt>
      <trkpt lat="38.2951010" lon="-0.6919290">
        <ele>143.1</ele>
        <time>2018-04-28T05:54:24Z</time>
      </trkpt>
      <trkpt lat="38.2951370" lon="-0.6919120">
        <ele>143.1</ele>
        <time>2018-04-28T05:54:25Z</time>
      </trkpt>
      <trkpt lat="38.2951740" lon="-0.6918930">
        <ele>143.2</ele>
        <time>2018-04-28T05:54:26Z</time>
      </trkpt>
      <trkpt lat="38.2952120" lon="-0.6918740">
        <ele>143.2</ele>
        <time>2018-04-28T05:54:27Z</time>
      </trkpt>
      <trkpt lat="38.2952490" lon="-0.6918540">
        <ele>143.3</ele>
        <time>2018-04-28T05:54:28Z</time>
      </trkpt>
      <trkpt lat="38.2952860" lon="-0.6918340">
        <ele>143.4</ele>
        <time>2018-04-28T05:54:29Z</time>
      </trkpt>
      <trkpt lat="38.2953230" lon="-0.6918140">
        <ele>143.4</ele>
        <time>2018-04-28T05:54:30Z</time>
      </trkpt>
      <trkpt lat="38.2953600" lon="-0.6917930">
        <ele>143.5</ele>
        <time>2018-04-28T05:54:31Z</time>
      </trkpt>
      <trkpt lat="38.2953980" lon="-0.6917720">
        <ele>143.6</ele>
        <time>2018-04-28T05:54:32Z</time>
      </trkpt>
      <trkpt lat="38.2954350" lon="-0.6917520">
        <ele>143.7</ele>
        <time>2018-04-28T05:54:33Z</time>
      </trkpt>
      <trkpt lat="38.2954740" lon="-0.6917300">
        <ele>143.9</ele>
        <time>2018-04-28T05:54:34Z</time>
      </trkpt>
      <trkpt lat="38.2955130" lon="-0.6917080">
        <ele>144.0</ele>
        <time>2018-04-28T05:54:35Z</time>
      </trkpt>
      <trkpt lat="38.2955500" lon="-0.6916860">
        <ele>144.2</ele>
        <time>2018-04-28T05:54:36Z</time>
      </trkpt>
      <trkpt lat="38.2955880" lon="-0.6916650">
        <ele>144.4</ele>
        <time>2018-04-28T05:54:37Z</time>
      </trkpt>
      <trkpt lat="38.2956250" lon="-0.6916440">
        <ele>144.5</ele>
        <time>2018-04-28T05:54:38Z</time>
      </trkpt>
      <trkpt lat="38.2956640" lon="-0.6916250">
        <ele>144.6</ele>
        <time>2018-04-28T05:54:39Z</time>
      </trkpt>
      <trkpt lat="38.2957010" lon="-0.6916070">
        <ele>144.7</ele>
        <time>2018-04-28T05:54:40Z</time>
      </trkpt>
      <trkpt lat="38.2957400" lon="-0.6915900">
        <ele>144.8</ele>
        <time>2018-04-28T05:54:41Z</time>
      </trkpt>
      <trkpt lat="38.2957770" lon="-0.6915730">
        <ele>144.9</ele>
        <time>2018-04-28T05:54:42Z</time>
      </trkpt>
      <trkpt lat="38.2958180" lon="-0.6915560">
        <ele>144.9</ele>
        <time>2018-04-28T05:54:43Z</time>
      </trkpt>
      <trkpt lat="38.2958570" lon="-0.6915410">
        <ele>145.0</ele>
        <time>2018-04-28T05:54:44Z</time>
      </trkpt>
      <trkpt lat="38.2958960" lon="-0.6915240">
        <ele>145.0</ele>
        <time>2018-04-28T05:54:45Z</time>
      </trkpt>
      <trkpt lat="38.2959340" lon="-0.6915070">
        <ele>145.0</ele>
        <time>2018-04-28T05:54:46Z</time>
      </trkpt>
      <trkpt lat="38.2959730" lon="-0.6914900">
        <ele>145.0</ele>
        <time>2018-04-28T05:54:47Z</time>
      </trkpt>
      <trkpt lat="38.2960120" lon="-0.6914750">
        <ele>145.0</ele>
        <time>2018-04-28T05:54:48Z</time>
      </trkpt>
      <trkpt lat="38.2960520" lon="-0.6914600">
        <ele>145.0</ele>
        <time>2018-04-28T05:54:49Z</time>
      </trkpt>
      <trkpt lat="38.2960910" lon="-0.6914440">
        <ele>145.0</ele>
        <time>2018-04-28T05:54:50Z</time>
      </trkpt>
      <trkpt lat="38.2961300" lon="-0.6914280">
        <ele>145.0</ele>
        <time>2018-04-28T05:54:51Z</time>
      </trkpt>
      <trkpt lat="38.2961710" lon="-0.6914120">
        <ele>145.0</ele>
        <time>2018-04-28T05:54:52Z</time>
      </trkpt>
      <trkpt lat="38.2962110" lon="-0.6913950">
        <ele>145.0</ele>
        <time>2018-04-28T05:54:53Z</time>
      </trkpt>
      <trkpt lat="38.2962530" lon="-0.6913780">
        <ele>145.0</ele>
        <time>2018-04-28T05:54:54Z</time>
      </trkpt>
      <trkpt lat="38.2962950" lon="-0.6913620">
        <ele>145.0</ele>
        <time>2018-04-28T05:54:55Z</time>
      </trkpt>
      <trkpt lat="38.2963370" lon="-0.6913460">
        <ele>145.0</ele>
        <time>2018-04-28T05:54:56Z</time>
      </trkpt>
      <trkpt lat="38.2963790" lon="-0.6913300">
        <ele>145.0</ele>
        <time>2018-04-28T05:54:57Z</time>
      </trkpt>
      <trkpt lat="38.2964210" lon="-0.6913140">
        <ele>145.1</ele>
        <time>2018-04-28T05:54:58Z</time>
      </trkpt>
      <trkpt lat="38.2964630" lon="-0.6912980">
        <ele>145.3</ele>
        <time>2018-04-28T05:54:59Z</time>
      </trkpt>
      <trkpt lat="38.2965070" lon="-0.6912810">
        <ele>145.5</ele>
        <time>2018-04-28T05:55:00Z</time>
      </trkpt>
      <trkpt lat="38.2965520" lon="-0.6912650">
        <ele>145.6</ele>
        <time>2018-04-28T05:55:01Z</time>
      </trkpt>
      <trkpt lat="38.2965970" lon="-0.6912480">
        <ele>145.8</ele>
        <time>2018-04-28T05:55:02Z</time>
      </trkpt>
      <trkpt lat="38.2966430" lon="-0.6912310">
        <ele>145.9</ele>
        <time>2018-04-28T05:55:03Z</time>
      </trkpt>
      <trkpt lat="38.2966900" lon="-0.6912140">
        <ele>146.1</ele>
        <time>2018-04-28T05:55:04Z</time>
      </trkpt>
      <trkpt lat="38.2967370" lon="-0.6911970">
        <ele>146.2</ele>
        <time>2018-04-28T05:55:05Z</time>
      </trkpt>
      <trkpt lat="38.2967850" lon="-0.6911790">
        <ele>146.4</ele>
        <time>2018-04-28T05:55:06Z</time>
      </trkpt>
      <trkpt lat="38.2968320" lon="-0.6911610">
        <ele>146.5</ele>
        <time>2018-04-28T05:55:07Z</time>
      </trkpt>
      <trkpt lat="38.2968780" lon="-0.6911430">
        <ele>146.7</ele>
        <time>2018-04-28T05:55:08Z</time>
      </trkpt>
      <trkpt lat="38.2969250" lon="-0.6911250">
        <ele>146.8</ele>
        <time>2018-04-28T05:55:09Z</time>
      </trkpt>
      <trkpt lat="38.2969710" lon="-0.6911100">
        <ele>147.1</ele>
        <time>2018-04-28T05:55:10Z</time>
      </trkpt>
      <trkpt lat="38.2970130" lon="-0.6910960">
        <ele>147.3</ele>
        <time>2018-04-28T05:55:11Z</time>
      </trkpt>
      <trkpt lat="38.2970560" lon="-0.6910810">
        <ele>147.6</ele>
        <time>2018-04-28T05:55:12Z</time>
      </trkpt>
      <trkpt lat="38.2970960" lon="-0.6910690">
        <ele>147.8</ele>
        <time>2018-04-28T05:55:13Z</time>
      </trkpt>
      <trkpt lat="38.2971370" lon="-0.6910570">
        <ele>147.9</ele>
        <time>2018-04-28T05:55:14Z</time>
      </trkpt>
      <trkpt lat="38.2971770" lon="-0.6910430">
        <ele>148.1</ele>
        <time>2018-04-28T05:55:15Z</time>
      </trkpt>
      <trkpt lat="38.2972160" lon="-0.6910290">
        <ele>148.2</ele>
        <time>2018-04-28T05:55:16Z</time>
      </trkpt>
      <trkpt lat="38.2972550" lon="-0.6910140">
        <ele>148.3</ele>
        <time>2018-04-28T05:55:17Z</time>
      </trkpt>
      <trkpt lat="38.2972930" lon="-0.6910010">
        <ele>148.5</ele>
        <time>2018-04-28T05:55:18Z</time>
      </trkpt>
      <trkpt lat="38.2973320" lon="-0.6909920">
        <ele>148.7</ele>
        <time>2018-04-28T05:55:19Z</time>
      </trkpt>
      <trkpt lat="38.2973700" lon="-0.6909830">
        <ele>148.8</ele>
        <time>2018-04-28T05:55:20Z</time>
      </trkpt>
      <trkpt lat="38.2974090" lon="-0.6909720">
        <ele>149.0</ele>
        <time>2018-04-28T05:55:21Z</time>
      </trkpt>
      <trkpt lat="38.2974500" lon="-0.6909570">
        <ele>149.1</ele>
        <time>2018-04-28T05:55:22Z</time>
      </trkpt>
      <trkpt lat="38.2974920" lon="-0.6909370">
        <ele>149.2</ele>
        <time>2018-04-28T05:55:23Z</time>
      </trkpt>
      <trkpt lat="38.2975320" lon="-0.6909150">
        <ele>149.3</ele>
        <time>2018-04-28T05:55:24Z</time>
      </trkpt>
      <trkpt lat="38.2975750" lon="-0.6908920">
        <ele>149.3</ele>
        <time>2018-04-28T05:55:25Z</time>
      </trkpt>
      <trkpt lat="38.2976190" lon="-0.6908730">
        <ele>149.2</ele>
        <time>2018-04-28T05:55:26Z</time>
      </trkpt>
      <trkpt lat="38.2976680" lon="-0.6908610">
        <ele>149.1</ele>
        <time>2018-04-28T05:55:27Z</time>
      </trkpt>
      <trkpt lat="38.2977200" lon="-0.6908600">
        <ele>149.0</ele>
        <time>2018-04-28T05:55:28Z</time>
      </trkpt>
      <trkpt lat="38.2977760" lon="-0.6908610">
        <ele>148.8</ele>
        <time>2018-04-28T05:55:29Z</time>
      </trkpt>
      <trkpt lat="38.2978350" lon="-0.6908710">
        <ele>148.6</ele>
        <time>2018-04-28T05:55:30Z</time>
      </trkpt>
      <trkpt lat="38.2978960" lon="-0.6908880">
        <ele>148.4</ele>
        <time>2018-04-28T05:55:31Z</time>
      </trkpt>
      <trkpt lat="38.2979600" lon="-0.6909050">
        <ele>148.2</ele>
        <time>2018-04-28T05:55:32Z</time>
      </trkpt>
      <trkpt lat="38.2980310" lon="-0.6909180">
        <ele>147.9</ele>
        <time>2018-04-28T05:55:33Z</time>
      </trkpt>
      <trkpt lat="38.2981070" lon="-0.6909220">
        <ele>147.6</ele>
        <time>2018-04-28T05:55:34Z</time>
      </trkpt>
      <trkpt lat="38.2981880" lon="-0.6909140">
        <ele>147.4</ele>
        <time>2018-04-28T05:55:35Z</time>
      </trkpt>
      <trkpt lat="38.2982680" lon="-0.6908980">
        <ele>147.2</ele>
        <time>2018-04-28T05:55:36Z</time>
      </trkpt>
      <trkpt lat="38.2983490" lon="-0.6908790">
        <ele>147.0</ele>
        <time>2018-04-28T05:55:37Z</time>
      </trkpt>
      <trkpt lat="38.2984330" lon="-0.6908590">
        <ele>146.9</ele>
        <time>2018-04-28T05:55:38Z</time>
      </trkpt>
      <trkpt lat="38.2985170" lon="-0.6908390">
        <ele>146.8</ele>
        <time>2018-04-28T05:55:39Z</time>
      </trkpt>
      <trkpt lat="38.2986030" lon="-0.6908170">
        <ele>146.7</ele>
        <time>2018-04-28T05:55:40Z</time>
      </trkpt>
      <trkpt lat="38.2986880" lon="-0.6907950">
        <ele>146.7</ele>
        <time>2018-04-28T05:55:41Z</time>
      </trkpt>
      <trkpt lat="38.2987720" lon="-0.6907730">
        <ele>146.7</ele>
        <time>2018-04-28T05:55:42Z</time>
      </trkpt>
      <trkpt lat="38.2988550" lon="-0.6907510">
        <ele>146.8</ele>
        <time>2018-04-28T05:55:43Z</time>
      </trkpt>
      <trkpt lat="38.2989360" lon="-0.6907290">
        <ele>146.8</ele>
        <time>2018-04-28T05:55:44Z</time>
      </trkpt>
      <trkpt lat="38.2990160" lon="-0.6907060">
        <ele>147.0</ele>
        <time>2018-04-28T05:55:45Z</time>
      </trkpt>
      <trkpt lat="38.2990950" lon="-0.6906840">
        <ele>147.1</ele>
        <time>2018-04-28T05:55:46Z</time>
      </trkpt>
      <trkpt lat="38.2991740" lon="-0.6906600">
        <ele>147.2</ele>
        <time>2018-04-28T05:55:47Z</time>
      </trkpt>
      <trkpt lat="38.2992500" lon="-0.6906360">
        <ele>147.3</ele>
        <time>2018-04-28T05:55:48Z</time>
      </trkpt>
      <trkpt lat="38.2993250" lon="-0.6906110">
        <ele>147.4</ele>
        <time>2018-04-28T05:55:49Z</time>
      </trkpt>
      <trkpt lat="38.2993990" lon="-0.6905850">
        <ele>147.8</ele>
        <time>2018-04-28T05:55:50Z</time>
      </trkpt>
      <trkpt lat="38.2994710" lon="-0.6905590">
        <ele>148.3</ele>
        <time>2018-04-28T05:55:51Z</time>
      </trkpt>
      <trkpt lat="38.2995420" lon="-0.6905360">
        <ele>148.8</ele>
        <time>2018-04-28T05:55:52Z</time>
      </trkpt>
      <trkpt lat="38.2996100" lon="-0.6905170">
        <ele>149.2</ele>
        <time>2018-04-28T05:55:53Z</time>
      </trkpt>
      <trkpt lat="38.2996780" lon="-0.6905080">
        <ele>149.7</ele>
        <time>2018-04-28T05:55:54Z</time>
      </trkpt>
      <trkpt lat="38.2997390" lon="-0.6905060">
        <ele>150.1</ele>
        <time>2018-04-28T05:55:55Z</time>
      </trkpt>
      <trkpt lat="38.2997970" lon="-0.6905080">
        <ele>150.7</ele>
        <time>2018-04-28T05:55:56Z</time>
      </trkpt>
      <trkpt lat="38.2998480" lon="-0.6905130">
        <ele>151.1</ele>
        <time>2018-04-28T05:55:57Z</time>
      </trkpt>
      <trkpt lat="38.2998950" lon="-0.6905170">
        <ele>151.5</ele>
        <time>2018-04-28T05:55:58Z</time>
      </trkpt>
      <trkpt lat="38.2999410" lon="-0.6905150">
        <ele>151.9</ele>
        <time>2018-04-28T05:55:59Z</time>
      </trkpt>
      <trkpt lat="38.2999870" lon="-0.6905100">
        <ele>152.2</ele>
        <time>2018-04-28T05:56:00Z</time>
      </trkpt>
      <trkpt lat="38.3000300" lon="-0.6905020">
        <ele>152.5</ele>
        <time>2018-04-28T05:56:01Z</time>
      </trkpt>
      <trkpt lat="38.3000720" lon="-0.6904950">
        <ele>152.8</ele>
        <time>2018-04-28T05:56:02Z</time>
      </trkpt>
      <trkpt lat="38.3001130" lon="-0.6904840">
        <ele>153.2</ele>
        <time>2018-04-28T05:56:03Z</time>
      </trkpt>
      <trkpt lat="38.3001540" lon="-0.6904700">
        <ele>153.5</ele>
        <time>2018-04-28T05:56:04Z</time>
      </trkpt>
      <trkpt lat="38.3001950" lon="-0.6904570">
        <ele>153.8</ele>
        <time>2018-04-28T05:56:05Z</time>
      </trkpt>
      <trkpt lat="38.3002360" lon="-0.6904440">
        <ele>154.0</ele>
        <time>2018-04-28T05:56:06Z</time>
      </trkpt>
      <trkpt lat="38.3002770" lon="-0.6904290">
        <ele>154.1</ele>
        <time>2018-04-28T05:56:07Z</time>
      </trkpt>
      <trkpt lat="38.3003170" lon="-0.6904160">
        <ele>154.2</ele>
        <time>2018-04-28T05:56:08Z</time>
      </trkpt>
      <trkpt lat="38.3003570" lon="-0.6904050">
        <ele>154.3</ele>
        <time>2018-04-28T05:56:09Z</time>
      </trkpt>
      <trkpt lat="38.3004020" lon="-0.6903950">
        <ele>154.4</ele>
        <time>2018-04-28T05:56:10Z</time>
      </trkpt>
      <trkpt lat="38.3004480" lon="-0.6903880">
        <ele>154.5</ele>
        <time>2018-04-28T05:56:11Z</time>
      </trkpt>
      <trkpt lat="38.3004940" lon="-0.6903810">
        <ele>154.6</ele>
        <time>2018-04-28T05:56:12Z</time>
      </trkpt>
      <trkpt lat="38.3005420" lon="-0.6903750">
        <ele>154.7</ele>
        <time>2018-04-28T05:56:13Z</time>
      </trkpt>
      <trkpt lat="38.3005910" lon="-0.6903710">
        <ele>154.8</ele>
        <time>2018-04-28T05:56:14Z</time>
      </trkpt>
      <trkpt lat="38.3006410" lon="-0.6903690">
        <ele>155.0</ele>
        <time>2018-04-28T05:56:15Z</time>
      </trkpt>
      <trkpt lat="38.3006910" lon="-0.6903660">
        <ele>155.2</ele>
        <time>2018-04-28T05:56:16Z</time>
      </trkpt>
      <trkpt lat="38.3007400" lon="-0.6903650">
        <ele>155.3</ele>
        <time>2018-04-28T05:56:17Z</time>
      </trkpt>
      <trkpt lat="38.3007930" lon="-0.6903640">
        <ele>155.6</ele>
        <time>2018-04-28T05:56:18Z</time>
      </trkpt>
      <trkpt lat="38.3008430" lon="-0.6903650">
        <ele>155.8</ele>
        <time>2018-04-28T05:56:19Z</time>
      </trkpt>
      <trkpt lat="38.3008950" lon="-0.6903670">
        <ele>156.0</ele>
        <time>2018-04-28T05:56:20Z</time>
      </trkpt>
      <trkpt lat="38.3009470" lon="-0.6903720">
        <ele>156.2</ele>
        <time>2018-04-28T05:56:21Z</time>
      </trkpt>
      <trkpt lat="38.3009990" lon="-0.6903790">
        <ele>156.5</ele>
        <time>2018-04-28T05:56:22Z</time>
      </trkpt>
      <trkpt lat="38.3010500" lon="-0.6903900">
        <ele>156.7</ele>
        <time>2018-04-28T05:56:23Z</time>
      </trkpt>
      <trkpt lat="38.3011030" lon="-0.6903990">
        <ele>157.0</ele>
        <time>2018-04-28T05:56:24Z</time>
      </trkpt>
      <trkpt lat="38.3011580" lon="-0.6904030">
        <ele>157.2</ele>
        <time>2018-04-28T05:56:25Z</time>
      </trkpt>
      <trkpt lat="38.3012190" lon="-0.6904010">
        <ele>157.5</ele>
        <time>2018-04-28T05:56:26Z</time>
      </trkpt>
      <trkpt lat="38.3012790" lon="-0.6903940">
        <ele>157.8</ele>
        <time>2018-04-28T05:56:27Z</time>
      </trkpt>
      <trkpt lat="38.3013400" lon="-0.6903870">
        <ele>158.0</ele>
        <time>2018-04-28T05:56:28Z</time>
      </trkpt>
      <trkpt lat="38.3014040" lon="-0.6903840">
        <ele>158.4</ele>
        <time>2018-04-28T05:56:29Z</time>
      </trkpt>
      <trkpt lat="38.3014650" lon="-0.6903810">
        <ele>158.8</ele>
        <time>2018-04-28T05:56:30Z</time>
      </trkpt>
      <trkpt lat="38.3015250" lon="-0.6903790">
        <ele>159.2</ele>
        <time>2018-04-28T05:56:31Z</time>
      </trkpt>
      <trkpt lat="38.3015860" lon="-0.6903780">
        <ele>159.6</ele>
        <time>2018-04-28T05:56:32Z</time>
      </trkpt>
      <trkpt lat="38.3016440" lon="-0.6903790">
        <ele>160.0</ele>
        <time>2018-04-28T05:56:33Z</time>
      </trkpt>
      <trkpt lat="38.3017020" lon="-0.6903810">
        <ele>160.2</ele>
        <time>2018-04-28T05:56:34Z</time>
      </trkpt>
      <trkpt lat="38.3017590" lon="-0.6903850">
        <ele>160.5</ele>
        <time>2018-04-28T05:56:35Z</time>
      </trkpt>
      <trkpt lat="38.3018140" lon="-0.6903920">
        <ele>160.8</ele>
        <time>2018-04-28T05:56:36Z</time>
      </trkpt>
      <trkpt lat="38.3018700" lon="-0.6904000">
        <ele>161.0</ele>
        <time>2018-04-28T05:56:37Z</time>
      </trkpt>
      <trkpt lat="38.3019240" lon="-0.6904060">
        <ele>161.3</ele>
        <time>2018-04-28T05:56:38Z</time>
      </trkpt>
      <trkpt lat="38.3019780" lon="-0.6904120">
        <ele>161.6</ele>
        <time>2018-04-28T05:56:39Z</time>
      </trkpt>
      <trkpt lat="38.3020320" lon="-0.6904170">
        <ele>161.8</ele>
        <time>2018-04-28T05:56:40Z</time>
      </trkpt>
      <trkpt lat="38.3020840" lon="-0.6904190">
        <ele>162.1</ele>
        <time>2018-04-28T05:56:41Z</time>
      </trkpt>
      <trkpt lat="38.3021340" lon="-0.6904200">
        <ele>162.4</ele>
        <time>2018-04-28T05:56:42Z</time>
      </trkpt>
      <trkpt lat="38.3021820" lon="-0.6904210">
        <ele>162.6</ele>
        <time>2018-04-28T05:56:43Z</time>
      </trkpt>
      <trkpt lat="38.3022290" lon="-0.6904190">
        <ele>162.9</ele>
        <time>2018-04-28T05:56:44Z</time>
      </trkpt>
      <trkpt lat="38.3022740" lon="-0.6904170">
        <ele>163.1</ele>
        <time>2018-04-28T05:56:45Z</time>
      </trkpt>
      <trkpt lat="38.3023180" lon="-0.6904160">
        <ele>163.3</ele>
        <time>2018-04-28T05:56:46Z</time>
      </trkpt>
      <trkpt lat="38.3023620" lon="-0.6904130">
        <ele>163.6</ele>
        <time>2018-04-28T05:56:47Z</time>
      </trkpt>
      <trkpt lat="38.3024060" lon="-0.6904060">
        <ele>163.8</ele>
        <time>2018-04-28T05:56:48Z</time>
      </trkpt>
      <trkpt lat="38.3024500" lon="-0.6903990">
        <ele>164.0</ele>
        <time>2018-04-28T05:56:49Z</time>
      </trkpt>
      <trkpt lat="38.3024960" lon="-0.6903920">
        <ele>163.9</ele>
        <time>2018-04-28T05:56:50Z</time>
      </trkpt>
      <trkpt lat="38.3025440" lon="-0.6903830">
        <ele>163.8</ele>
        <time>2018-04-28T05:56:51Z</time>
      </trkpt>
      <trkpt lat="38.3025990" lon="-0.6903750">
        <ele>163.8</ele>
        <time>2018-04-28T05:56:52Z</time>
      </trkpt>
      <trkpt lat="38.3026560" lon="-0.6903680">
        <ele>163.7</ele>
        <time>2018-04-28T05:56:53Z</time>
      </trkpt>
      <trkpt lat="38.3027100" lon="-0.6903640">
        <ele>163.7</ele>
        <time>2018-04-28T05:56:54Z</time>
      </trkpt>
      <trkpt lat="38.3027640" lon="-0.6903610">
        <ele>163.7</ele>
        <time>2018-04-28T05:56:55Z</time>
      </trkpt>
      <trkpt lat="38.3028190" lon="-0.6903590">
        <ele>163.7</ele>
        <time>2018-04-28T05:56:56Z</time>
      </trkpt>
      <trkpt lat="38.3028720" lon="-0.6903580">
        <ele>163.7</ele>
        <time>2018-04-28T05:56:57Z</time>
      </trkpt>
      <trkpt lat="38.3029240" lon="-0.6903610">
        <ele>163.7</ele>
        <time>2018-04-28T05:56:58Z</time>
      </trkpt>
      <trkpt lat="38.3029720" lon="-0.6903640">
        <ele>163.7</ele>
        <time>2018-04-28T05:56:59Z</time>
      </trkpt>
      <trkpt lat="38.3030190" lon="-0.6903670">
        <ele>163.7</ele>
        <time>2018-04-28T05:57:00Z</time>
      </trkpt>
      <trkpt lat="38.3030640" lon="-0.6903710">
        <ele>163.8</ele>
        <time>2018-04-28T05:57:01Z</time>
      </trkpt>
      <trkpt lat="38.3031060" lon="-0.6903730">
        <ele>164.0</ele>
        <time>2018-04-28T05:57:02Z</time>
      </trkpt>
      <trkpt lat="38.3031470" lon="-0.6903750">
        <ele>164.1</ele>
        <time>2018-04-28T05:57:03Z</time>
      </trkpt>
      <trkpt lat="38.3031840" lon="-0.6903770">
        <ele>164.3</ele>
        <time>2018-04-28T05:57:04Z</time>
      </trkpt>
      <trkpt lat="38.3032200" lon="-0.6903800">
        <ele>164.4</ele>
        <time>2018-04-28T05:57:05Z</time>
      </trkpt>
      <trkpt lat="38.3032510" lon="-0.6903830">
        <ele>164.6</ele>
        <time>2018-04-28T05:57:06Z</time>
      </trkpt>
      <trkpt lat="38.3032850" lon="-0.6903840">
        <ele>164.8</ele>
        <time>2018-04-28T05:57:07Z</time>
      </trkpt>
      <trkpt lat="38.3033190" lon="-0.6903810">
        <ele>165.0</ele>
        <time>2018-04-28T05:57:08Z</time>
      </trkpt>
      <trkpt lat="38.3033510" lon="-0.6903770">
        <ele>165.2</ele>
        <time>2018-04-28T05:57:09Z</time>
      </trkpt>
      <trkpt lat="38.3033850" lon="-0.6903750">
        <ele>165.4</ele>
        <time>2018-04-28T05:57:10Z</time>
      </trkpt>
      <trkpt lat="38.3034200" lon="-0.6903740">
        <ele>165.6</ele>
        <time>2018-04-28T05:57:11Z</time>
      </trkpt>
      <trkpt lat="38.3034580" lon="-0.6903690">
        <ele>165.8</ele>
        <time>2018-04-28T05:57:12Z</time>
      </trkpt>
      <trkpt lat="38.3034930" lon="-0.6903640">
        <ele>166.0</ele>
        <time>2018-04-28T05:57:13Z</time>
      </trkpt>
      <trkpt lat="38.3035290" lon="-0.6903570">
        <ele>166.2</ele>
        <time>2018-04-28T05:57:14Z</time>
      </trkpt>
      <trkpt lat="38.3035610" lon="-0.6903540">
        <ele>166.3</ele>
        <time>2018-04-28T05:57:15Z</time>
      </trkpt>
      <trkpt lat="38.3035970" lon="-0.6903500">
        <ele>166.4</ele>
        <time>2018-04-28T05:57:16Z</time>
      </trkpt>
      <trkpt lat="38.3036300" lon="-0.6903470">
        <ele>166.6</ele>
        <time>2018-04-28T05:57:17Z</time>
      </trkpt>
      <trkpt lat="38.3036680" lon="-0.6903410">
        <ele>166.7</ele>
        <time>2018-04-28T05:57:18Z</time>
      </trkpt>
      <trkpt lat="38.3037080" lon="-0.6903380">
        <ele>166.8</ele>
        <time>2018-04-28T05:57:19Z</time>
      </trkpt>
      <trkpt lat="38.3037510" lon="-0.6903350">
        <ele>167.0</ele>
        <time>2018-04-28T05:57:20Z</time>
      </trkpt>
      <trkpt lat="38.3037940" lon="-0.6903310">
        <ele>167.1</ele>
        <time>2018-04-28T05:57:21Z</time>
      </trkpt>
      <trkpt lat="38.3038350" lon="-0.6903310">
        <ele>167.3</ele>
        <time>2018-04-28T05:57:22Z</time>
      </trkpt>
      <trkpt lat="38.3038790" lon="-0.6903320">
        <ele>167.4</ele>
        <time>2018-04-28T05:57:23Z</time>
      </trkpt>
      <trkpt lat="38.3039230" lon="-0.6903330">
        <ele>167.6</ele>
        <time>2018-04-28T05:57:24Z</time>
      </trkpt>
      <trkpt lat="38.3039670" lon="-0.6903320">
        <ele>167.7</ele>
        <time>2018-04-28T05:57:25Z</time>
      </trkpt>
      <trkpt lat="38.3040100" lon="-0.6903300">
        <ele>167.8</ele>
        <time>2018-04-28T05:57:26Z</time>
      </trkpt>
      <trkpt lat="38.3040530" lon="-0.6903320">
        <ele>167.9</ele>
        <time>2018-04-28T05:57:27Z</time>
      </trkpt>
      <trkpt lat="38.3040960" lon="-0.6903370">
        <ele>168.0</ele>
        <time>2018-04-28T05:57:28Z</time>
      </trkpt>
      <trkpt lat="38.3041370" lon="-0.6903430">
        <ele>168.2</ele>
        <time>2018-04-28T05:57:29Z</time>
      </trkpt>
      <trkpt lat="38.3041750" lon="-0.6903500">
        <ele>168.3</ele>
        <time>2018-04-28T05:57:30Z</time>
      </trkpt>
      <trkpt lat="38.3042100" lon="-0.6903580">
        <ele>168.5</ele>
        <time>2018-04-28T05:57:31Z</time>
      </trkpt>
      <trkpt lat="38.3042480" lon="-0.6903660">
        <ele>168.6</ele>
        <time>2018-04-28T05:57:32Z</time>
      </trkpt>
      <trkpt lat="38.3042850" lon="-0.6903740">
        <ele>168.8</ele>
        <time>2018-04-28T05:57:33Z</time>
      </trkpt>
      <trkpt lat="38.3043260" lon="-0.6903810">
        <ele>168.9</ele>
        <time>2018-04-28T05:57:34Z</time>
      </trkpt>
      <trkpt lat="38.3043680" lon="-0.6903870">
        <ele>169.0</ele>
        <time>2018-04-28T05:57:35Z</time>
      </trkpt>
      <trkpt lat="38.3044100" lon="-0.6903940">
        <ele>169.2</ele>
        <time>2018-04-28T05:57:36Z</time>
      </trkpt>
      <trkpt lat="38.3044550" lon="-0.6904010">
        <ele>169.3</ele>
        <time>2018-04-28T05:57:37Z</time>
      </trkpt>
      <trkpt lat="38.3045010" lon="-0.6904040">
        <ele>169.4</ele>
        <time>2018-04-28T05:57:38Z</time>
      </trkpt>
      <trkpt lat="38.3045450" lon="-0.6904080">
        <ele>169.5</ele>
        <time>2018-04-28T05:57:39Z</time>
      </trkpt>
      <trkpt lat="38.3045900" lon="-0.6904100">
        <ele>169.5</ele>
        <time>2018-04-28T05:57:40Z</time>
      </trkpt>
      <trkpt lat="38.3046330" lon="-0.6904130">
        <ele>169.6</ele>
        <time>2018-04-28T05:57:41Z</time>
      </trkpt>
      <trkpt lat="38.3046770" lon="-0.6904150">
        <ele>169.6</ele>
        <time>2018-04-28T05:57:42Z</time>
      </trkpt>
      <trkpt lat="38.3047190" lon="-0.6904160">
        <ele>169.7</ele>
        <time>2018-04-28T05:57:43Z</time>
      </trkpt>
      <trkpt lat="38.3047620" lon="-0.6904170">
        <ele>169.8</ele>
        <time>2018-04-28T05:57:44Z</time>
      </trkpt>
      <trkpt lat="38.3048050" lon="-0.6904190">
        <ele>169.8</ele>
        <time>2018-04-28T05:57:45Z</time>
      </trkpt>
      <trkpt lat="38.3048480" lon="-0.6904210">
        <ele>169.9</ele>
        <time>2018-04-28T05:57:46Z</time>
      </trkpt>
      <trkpt lat="38.3048920" lon="-0.6904230">
        <ele>169.9</ele>
        <time>2018-04-28T05:57:47Z</time>
      </trkpt>
      <trkpt lat="38.3049360" lon="-0.6904230">
        <ele>169.9</ele>
        <time>2018-04-28T05:57:48Z</time>
      </trkpt>
      <trkpt lat="38.3049820" lon="-0.6904240">
        <ele>170.0</ele>
        <time>2018-04-28T05:57:49Z</time>
      </trkpt>
      <trkpt lat="38.3050300" lon="-0.6904280">
        <ele>170.0</ele>
        <time>2018-04-28T05:57:50Z</time>
      </trkpt>
      <trkpt lat="38.3050820" lon="-0.6904280">
        <ele>170.1</ele>
        <time>2018-04-28T05:57:51Z</time>
      </trkpt>
      <trkpt lat="38.3051340" lon="-0.6904280">
        <ele>170.1</ele>
        <time>2018-04-28T05:57:52Z</time>
      </trkpt>
      <trkpt lat="38.3051860" lon="-0.6904250">
        <ele>170.2</ele>
        <time>2018-04-28T05:57:53Z</time>
      </trkpt>
      <trkpt lat="38.3052360" lon="-0.6904150">
        <ele>170.3</ele>
        <time>2018-04-28T05:57:54Z</time>
      </trkpt>
      <trkpt lat="38.3052830" lon="-0.6903980">
        <ele>170.4</ele>
        <time>2018-04-28T05:57:55Z</time>
      </trkpt>
      <trkpt lat="38.3053290" lon="-0.6903830">
        <ele>170.5</ele>
        <time>2018-04-28T05:57:56Z</time>
      </trkpt>
      <trkpt lat="38.3053730" lon="-0.6903690">
        <ele>170.6</ele>
        <time>2018-04-28T05:57:57Z</time>
      </trkpt>
      <trkpt lat="38.3054170" lon="-0.6903570">
        <ele>170.8</ele>
        <time>2018-04-28T05:57:58Z</time>
      </trkpt>
      <trkpt lat="38.3054580" lon="-0.6903470">
        <ele>171.0</ele>
        <time>2018-04-28T05:57:59Z</time>
      </trkpt>
      <trkpt lat="38.3054950" lon="-0.6903370">
        <ele>171.2</ele>
        <time>2018-04-28T05:58:00Z</time>
      </trkpt>
      <trkpt lat="38.3055330" lon="-0.6903260">
        <ele>171.5</ele>
        <time>2018-04-28T05:58:01Z</time>
      </trkpt>
      <trkpt lat="38.3055690" lon="-0.6903140">
        <ele>171.8</ele>
        <time>2018-04-28T05:58:02Z</time>
      </trkpt>
      <trkpt lat="38.3056020" lon="-0.6902990">
        <ele>172.1</ele>
        <time>2018-04-28T05:58:03Z</time>
      </trkpt>
      <trkpt lat="38.3056340" lon="-0.6902820">
        <ele>172.4</ele>
        <time>2018-04-28T05:58:04Z</time>
      </trkpt>
      <trkpt lat="38.3056650" lon="-0.6902650">
        <ele>172.7</ele>
        <time>2018-04-28T05:58:05Z</time>
      </trkpt>
      <trkpt lat="38.3056960" lon="-0.6902510">
        <ele>173.0</ele>
        <time>2018-04-28T05:58:06Z</time>
      </trkpt>
      <trkpt lat="38.3057280" lon="-0.6902370">
        <ele>173.4</ele>
        <time>2018-04-28T05:58:07Z</time>
      </trkpt>
      <trkpt lat="38.3057600" lon="-0.6902270">
        <ele>173.7</ele>
        <time>2018-04-28T05:58:08Z</time>
      </trkpt>
      <trkpt lat="38.3057950" lon="-0.6902250">
        <ele>174.0</ele>
        <time>2018-04-28T05:58:09Z</time>
      </trkpt>
      <trkpt lat="38.3058350" lon="-0.6902310">
        <ele>174.3</ele>
        <time>2018-04-28T05:58:10Z</time>
      </trkpt>
      <trkpt lat="38.3058760" lon="-0.6902380">
        <ele>174.7</ele>
        <time>2018-04-28T05:58:11Z</time>
      </trkpt>
      <trkpt lat="38.3059200" lon="-0.6902500">
        <ele>175.0</ele>
        <time>2018-04-28T05:58:12Z</time>
      </trkpt>
      <trkpt lat="38.3059570" lon="-0.6902610">
        <ele>175.2</ele>
        <time>2018-04-28T05:58:13Z</time>
      </trkpt>
      <trkpt lat="38.3059940" lon="-0.6902690">
        <ele>175.5</ele>
        <time>2018-04-28T05:58:14Z</time>
      </trkpt>
      <trkpt lat="38.3060320" lon="-0.6902730">
        <ele>175.7</ele>
        <time>2018-04-28T05:58:15Z</time>
      </trkpt>
      <trkpt lat="38.3060710" lon="-0.6902780">
        <ele>176.0</ele>
        <time>2018-04-28T05:58:16Z</time>
      </trkpt>
      <trkpt lat="38.3061090" lon="-0.6902850">
        <ele>176.3</ele>
        <time>2018-04-28T05:58:17Z</time>
      </trkpt>
      <trkpt lat="38.3061460" lon="-0.6902990">
        <ele>176.5</ele>
        <time>2018-04-28T05:58:18Z</time>
      </trkpt>
      <trkpt lat="38.3061810" lon="-0.6903160">
        <ele>176.8</ele>
        <time>2018-04-28T05:58:19Z</time>
      </trkpt>
      <trkpt lat="38.3062160" lon="-0.6903330">
        <ele>177.1</ele>
        <time>2018-04-28T05:58:20Z</time>
      </trkpt>
      <trkpt lat="38.3062500" lon="-0.6903530">
        <ele>177.4</ele>
        <time>2018-04-28T05:58:21Z</time>
      </trkpt>
      <trkpt lat="38.3062840" lon="-0.6903740">
        <ele>177.6</ele>
        <time>2018-04-28T05:58:22Z</time>
      </trkpt>
      <trkpt lat="38.3063170" lon="-0.6903970">
        <ele>177.9</ele>
        <time>2018-04-28T05:58:23Z</time>
      </trkpt>
      <trkpt lat="38.3063490" lon="-0.6904250">
        <ele>178.2</ele>
        <time>2018-04-28T05:58:24Z</time>
      </trkpt>
      <trkpt lat="38.3063820" lon="-0.6904530">
        <ele>178.4</ele>
        <time>2018-04-28T05:58:25Z</time>
      </trkpt>
      <trkpt lat="38.3064150" lon="-0.6904790">
        <ele>178.6</ele>
        <time>2018-04-28T05:58:26Z</time>
      </trkpt>
      <trkpt lat="38.3064490" lon="-0.6905060">
        <ele>178.9</ele>
        <time>2018-04-28T05:58:27Z</time>
      </trkpt>
      <trkpt lat="38.3064820" lon="-0.6905350">
        <ele>179.1</ele>
        <time>2018-04-28T05:58:28Z</time>
      </trkpt>
      <trkpt lat="38.3065140" lon="-0.6905660">
        <ele>179.4</ele>
        <time>2018-04-28T05:58:29Z</time>
      </trkpt>
      <trkpt lat="38.3065470" lon="-0.6905980">
        <ele>179.7</ele>
        <time>2018-04-28T05:58:30Z</time>
      </trkpt>
      <trkpt lat="38.3065800" lon="-0.6906260">
        <ele>180.0</ele>
        <time>2018-04-28T05:58:31Z</time>
      </trkpt>
      <trkpt lat="38.3066180" lon="-0.6906370">
        <ele>180.3</ele>
        <time>2018-04-28T05:58:32Z</time>
      </trkpt>
      <trkpt lat="38.3066550" lon="-0.6906350">
        <ele>180.5</ele>
        <time>2018-04-28T05:58:33Z</time>
      </trkpt>
      <trkpt lat="38.3066910" lon="-0.6906240">
        <ele>180.8</ele>
        <time>2018-04-28T05:58:34Z</time>
      </trkpt>
      <trkpt lat="38.3067270" lon="-0.6906090">
        <ele>181.1</ele>
        <time>2018-04-28T05:58:35Z</time>
      </trkpt>
      <trkpt lat="38.3067580" lon="-0.6905950">
        <ele>181.3</ele>
        <time>2018-04-28T05:58:36Z</time>
      </trkpt>
      <trkpt lat="38.3067860" lon="-0.6905850">
        <ele>181.5</ele>
        <time>2018-04-28T05:58:37Z</time>
      </trkpt>
      <trkpt lat="38.3068170" lon="-0.6905770">
        <ele>181.6</ele>
        <time>2018-04-28T05:58:38Z</time>
      </trkpt>
      <trkpt lat="38.3068470" lon="-0.6905810">
        <ele>181.7</ele>
        <time>2018-04-28T05:58:39Z</time>
      </trkpt>
      <trkpt lat="38.3068780" lon="-0.6905950">
        <ele>181.8</ele>
        <time>2018-04-28T05:58:40Z</time>
      </trkpt>
      <trkpt lat="38.3069140" lon="-0.6906150">
        <ele>181.9</ele>
        <time>2018-04-28T05:58:41Z</time>
      </trkpt>
      <trkpt lat="38.3069530" lon="-0.6906340">
        <ele>181.9</ele>
        <time>2018-04-28T05:58:42Z</time>
      </trkpt>
      <trkpt lat="38.3069960" lon="-0.6906480">
        <ele>182.0</ele>
        <time>2018-04-28T05:58:43Z</time>
      </trkpt>
      <trkpt lat="38.3070460" lon="-0.6906460">
        <ele>182.0</ele>
        <time>2018-04-28T05:58:44Z</time>
      </trkpt>
      <trkpt lat="38.3070950" lon="-0.6906290">
        <ele>182.0</ele>
        <time>2018-04-28T05:58:45Z</time>
      </trkpt>
      <trkpt lat="38.3071550" lon="-0.6906270">
        <ele>182.1</ele>
        <time>2018-04-28T05:58:46Z</time>
      </trkpt>
      <trkpt lat="38.3071990" lon="-0.6906460">
        <ele>182.1</ele>
        <time>2018-04-28T05:58:47Z</time>
      </trkpt>
      <trkpt lat="38.3072390" lon="-0.6906810">
        <ele>182.1</ele>
        <time>2018-04-28T05:58:48Z</time>
      </trkpt>
      <trkpt lat="38.3072810" lon="-0.6907340">
        <ele>182.2</ele>
        <time>2018-04-28T05:58:49Z</time>
      </trkpt>
      <trkpt lat="38.3073070" lon="-0.6907820">
        <ele>182.2</ele>
        <time>2018-04-28T05:58:50Z</time>
      </trkpt>
      <trkpt lat="38.3073270" lon="-0.6908280">
        <ele>182.2</ele>
        <time>2018-04-28T05:58:51Z</time>
      </trkpt>
      <trkpt lat="38.3073480" lon="-0.6908710">
        <ele>182.3</ele>
        <time>2018-04-28T05:58:52Z</time>
      </trkpt>
      <trkpt lat="38.3073700" lon="-0.6909120">
        <ele>182.3</ele>
        <time>2018-04-28T05:58:53Z</time>
      </trkpt>
      <trkpt lat="38.3073940" lon="-0.6909420">
        <ele>182.4</ele>
        <time>2018-04-28T05:58:54Z</time>
      </trkpt>
      <trkpt lat="38.3074250" lon="-0.6909720">
        <ele>182.5</ele>
        <time>2018-04-28T05:58:55Z</time>
      </trkpt>
      <trkpt lat="38.3074570" lon="-0.6909960">
        <ele>182.5</ele>
        <time>2018-04-28T05:58:56Z</time>
      </trkpt>
      <trkpt lat="38.3074950" lon="-0.6910110">
        <ele>182.7</ele>
        <time>2018-04-28T05:58:57Z</time>
      </trkpt>
      <trkpt lat="38.3075380" lon="-0.6910220">
        <ele>182.9</ele>
        <time>2018-04-28T05:58:58Z</time>
      </trkpt>
      <trkpt lat="38.3075730" lon="-0.6910390">
        <ele>183.1</ele>
        <time>2018-04-28T05:58:59Z</time>
      </trkpt>
      <trkpt lat="38.3076080" lon="-0.6910630">
        <ele>183.3</ele>
        <time>2018-04-28T05:59:00Z</time>
      </trkpt>
      <trkpt lat="38.3076420" lon="-0.6910890">
        <ele>183.6</ele>
        <time>2018-04-28T05:59:01Z</time>
      </trkpt>
      <trkpt lat="38.3076730" lon="-0.6911180">
        <ele>183.9</ele>
        <time>2018-04-28T05:59:02Z</time>
      </trkpt>
      <trkpt lat="38.3077000" lon="-0.6911500">
        <ele>184.1</ele>
        <time>2018-04-28T05:59:03Z</time>
      </trkpt>
      <trkpt lat="38.3077270" lon="-0.6911840">
        <ele>184.3</ele>
        <time>2018-04-28T05:59:04Z</time>
      </trkpt>
      <trkpt lat="38.3077530" lon="-0.6912180">
        <ele>184.5</ele>
        <time>2018-04-28T05:59:05Z</time>
      </trkpt>
      <trkpt lat="38.3077790" lon="-0.6912550">
        <ele>184.7</ele>
        <time>2018-04-28T05:59:06Z</time>
      </trkpt>
      <trkpt lat="38.3078050" lon="-0.6912920">
        <ele>184.8</ele>
        <time>2018-04-28T05:59:07Z</time>
      </trkpt>
      <trkpt lat="38.3078290" lon="-0.6913300">
        <ele>185.0</ele>
        <time>2018-04-28T05:59:08Z</time>
      </trkpt>
      <trkpt lat="38.3078560" lon="-0.6913660">
        <ele>185.1</ele>
        <time>2018-04-28T05:59:09Z</time>
      </trkpt>
      <trkpt lat="38.3078840" lon="-0.6914030">
        <ele>185.3</ele>
        <time>2018-04-28T05:59:10Z</time>
      </trkpt>
      <trkpt lat="38.3079110" lon="-0.6914400">
        <ele>185.5</ele>
        <time>2018-04-28T05:59:11Z</time>
      </trkpt>
      <trkpt lat="38.3079400" lon="-0.6914730">
        <ele>185.8</ele>
        <time>2018-04-28T05:59:12Z</time>
      </trkpt>
      <trkpt lat="38.3079690" lon="-0.6915030">
        <ele>186.0</ele>
        <time>2018-04-28T05:59:13Z</time>
      </trkpt>
      <trkpt lat="38.3079990" lon="-0.6915320">
        <ele>186.3</ele>
        <time>2018-04-28T05:59:14Z</time>
      </trkpt>
      <trkpt lat="38.3080350" lon="-0.6915590">
        <ele>186.5</ele>
        <time>2018-04-28T05:59:15Z</time>
      </trkpt>
      <trkpt lat="38.3080760" lon="-0.6915820">
        <ele>186.8</ele>
        <time>2018-04-28T05:59:16Z</time>
      </trkpt>
      <trkpt lat="38.3081180" lon="-0.6915970">
        <ele>187.0</ele>
        <time>2018-04-28T05:59:17Z</time>
      </trkpt>
      <trkpt lat="38.3081650" lon="-0.6915990">
        <ele>187.2</ele>
        <time>2018-04-28T05:59:18Z</time>
      </trkpt>
      <trkpt lat="38.3082080" lon="-0.6915930">
        <ele>187.4</ele>
        <time>2018-04-28T05:59:19Z</time>
      </trkpt>
      <trkpt lat="38.3082510" lon="-0.6915810">
        <ele>187.7</ele>
        <time>2018-04-28T05:59:20Z</time>
      </trkpt>
      <trkpt lat="38.3082930" lon="-0.6915670">
        <ele>188.0</ele>
        <time>2018-04-28T05:59:21Z</time>
      </trkpt>
      <trkpt lat="38.3083270" lon="-0.6915600">
        <ele>188.3</ele>
        <time>2018-04-28T05:59:22Z</time>
      </trkpt>
      <trkpt lat="38.3083640" lon="-0.6915590">
        <ele>188.6</ele>
        <time>2018-04-28T05:59:23Z</time>
      </trkpt>
      <trkpt lat="38.3083960" lon="-0.6915640">
        <ele>188.9</ele>
        <time>2018-04-28T05:59:24Z</time>
      </trkpt>
      <trkpt lat="38.3084210" lon="-0.6915800">
        <ele>189.2</ele>
        <time>2018-04-28T05:59:25Z</time>
      </trkpt>
      <trkpt lat="38.3084530" lon="-0.6915930">
        <ele>189.6</ele>
        <time>2018-04-28T05:59:26Z</time>
      </trkpt>
      <trkpt lat="38.3084790" lon="-0.6916090">
        <ele>190.0</ele>
        <time>2018-04-28T05:59:27Z</time>
      </trkpt>
      <trkpt lat="38.3085110" lon="-0.6916230">
        <ele>190.4</ele>
        <time>2018-04-28T05:59:28Z</time>
      </trkpt>
      <trkpt lat="38.3085420" lon="-0.6916360">
        <ele>190.9</ele>
        <time>2018-04-28T05:59:29Z</time>
      </trkpt>
      <trkpt lat="38.3085710" lon="-0.6916480">
        <ele>191.3</ele>
        <time>2018-04-28T05:59:30Z</time>
      </trkpt>
      <trkpt lat="38.3086010" lon="-0.6916590">
        <ele>191.7</ele>
        <time>2018-04-28T05:59:31Z</time>
      </trkpt>
      <trkpt lat="38.3086260" lon="-0.6916690">
        <ele>192.1</ele>
        <time>2018-04-28T05:59:32Z</time>
      </trkpt>
      <trkpt lat="38.3086530" lon="-0.6916760">
        <ele>192.5</ele>
        <time>2018-04-28T05:59:33Z</time>
      </trkpt>
      <trkpt lat="38.3086800" lon="-0.6916850">
        <ele>192.8</ele>
        <time>2018-04-28T05:59:34Z</time>
      </trkpt>
      <trkpt lat="38.3087110" lon="-0.6916920">
        <ele>193.1</ele>
        <time>2018-04-28T05:59:35Z</time>
      </trkpt>
      <trkpt lat="38.3087460" lon="-0.6916970">
        <ele>193.5</ele>
        <time>2018-04-28T05:59:36Z</time>
      </trkpt>
      <trkpt lat="38.3087920" lon="-0.6916920">
        <ele>193.9</ele>
        <time>2018-04-28T05:59:37Z</time>
      </trkpt>
      <trkpt lat="38.3088320" lon="-0.6916870">
        <ele>194.1</ele>
        <time>2018-04-28T05:59:38Z</time>
      </trkpt>
      <trkpt lat="38.3088720" lon="-0.6916790">
        <ele>194.3</ele>
        <time>2018-04-28T05:59:39Z</time>
      </trkpt>
      <trkpt lat="38.3089160" lon="-0.6916680">
        <ele>194.5</ele>
        <time>2018-04-28T05:59:40Z</time>
      </trkpt>
      <trkpt lat="38.3089550" lon="-0.6916570">
        <ele>194.6</ele>
        <time>2018-04-28T05:59:41Z</time>
      </trkpt>
      <trkpt lat="38.3089970" lon="-0.6916450">
        <ele>194.7</ele>
        <time>2018-04-28T05:59:42Z</time>
      </trkpt>
      <trkpt lat="38.3090390" lon="-0.6916320">
        <ele>194.8</ele>
        <time>2018-04-28T05:59:43Z</time>
      </trkpt>
      <trkpt lat="38.3090780" lon="-0.6916230">
        <ele>194.9</ele>
        <time>2018-04-28T05:59:44Z</time>
      </trkpt>
      <trkpt lat="38.3091200" lon="-0.6916150">
        <ele>195.1</ele>
        <time>2018-04-28T05:59:45Z</time>
      </trkpt>
      <trkpt lat="38.3091580" lon="-0.6916040">
        <ele>195.3</ele>
        <time>2018-04-28T05:59:46Z</time>
      </trkpt>
      <trkpt lat="38.3091970" lon="-0.6915850">
        <ele>195.6</ele>
        <time>2018-04-28T05:59:47Z</time>
      </trkpt>
      <trkpt lat="38.3092350" lon="-0.6915710">
        <ele>195.8</ele>
        <time>2018-04-28T05:59:48Z</time>
      </trkpt>
      <trkpt lat="38.3092730" lon="-0.6915590">
        <ele>196.1</ele>
        <time>2018-04-28T05:59:49Z</time>
      </trkpt>
      <trkpt lat="38.3093150" lon="-0.6915510">
        <ele>196.5</ele>
        <time>2018-04-28T05:59:50Z</time>
      </trkpt>
      <trkpt lat="38.3093550" lon="-0.6915550">
        <ele>196.8</ele>
        <time>2018-04-28T05:59:51Z</time>
      </trkpt>
      <trkpt lat="38.3093950" lon="-0.6915620">
        <ele>197.1</ele>
        <time>2018-04-28T05:59:52Z</time>
      </trkpt>
      <trkpt lat="38.3094320" lon="-0.6915720">
        <ele>197.3</ele>
        <time>2018-04-28T05:59:53Z</time>
      </trkpt>
      <trkpt lat="38.3094670" lon="-0.6915850">
        <ele>197.6</ele>
        <time>2018-04-28T05:59:54Z</time>
      </trkpt>
      <trkpt lat="38.3095030" lon="-0.6915970">
        <ele>197.9</ele>
        <time>2018-04-28T05:59:55Z</time>
      </trkpt>
      <trkpt lat="38.3095360" lon="-0.6916120">
        <ele>198.2</ele>
        <time>2018-04-28T05:59:56Z</time>
      </trkpt>
      <trkpt lat="38.3095680" lon="-0.6916270">
        <ele>198.5</ele>
        <time>2018-04-28T05:59:57Z</time>
      </trkpt>
      <trkpt lat="38.3096000" lon="-0.6916430">
        <ele>198.8</ele>
        <time>2018-04-28T05:59:58Z</time>
      </trkpt>
      <trkpt lat="38.3096340" lon="-0.6916610">
        <ele>199.0</ele>
        <time>2018-04-28T05:59:59Z</time>
      </trkpt>
      <trkpt lat="38.3096680" lon="-0.6916800">
        <ele>199.2</ele>
        <time>2018-04-28T06:00:00Z</time>
      </trkpt>
      <trkpt lat="38.3097010" lon="-0.6917070">
        <ele>199.3</ele>
        <time>2018-04-28T06:00:01Z</time>
      </trkpt>
      <trkpt lat="38.3097340" lon="-0.6917380">
        <ele>199.4</ele>
        <time>2018-04-28T06:00:02Z</time>
      </trkpt>
      <trkpt lat="38.3097660" lon="-0.6917720">
        <ele>199.5</ele>
        <time>2018-04-28T06:00:03Z</time>
      </trkpt>
      <trkpt lat="38.3097960" lon="-0.6918110">
        <ele>199.6</ele>
        <time>2018-04-28T06:00:04Z</time>
      </trkpt>
      <trkpt lat="38.3098300" lon="-0.6918560">
        <ele>199.6</ele>
        <time>2018-04-28T06:00:05Z</time>
      </trkpt>
      <trkpt lat="38.3098700" lon="-0.6918990">
        <ele>199.6</ele>
        <time>2018-04-28T06:00:06Z</time>
      </trkpt>
      <trkpt lat="38.3099100" lon="-0.6919370">
        <ele>199.7</ele>
        <time>2018-04-28T06:00:07Z</time>
      </trkpt>
      <trkpt lat="38.3099490" lon="-0.6919750">
        <ele>199.7</ele>
        <time>2018-04-28T06:00:08Z</time>
      </trkpt>
      <trkpt lat="38.3099860" lon="-0.6920110">
        <ele>199.7</ele>
        <time>2018-04-28T06:00:09Z</time>
      </trkpt>
      <trkpt lat="38.3100260" lon="-0.6920450">
        <ele>199.8</ele>
        <time>2018-04-28T06:00:10Z</time>
      </trkpt>
      <trkpt lat="38.3100660" lon="-0.6920770">
        <ele>199.9</ele>
        <time>2018-04-28T06:00:11Z</time>
      </trkpt>
      <trkpt lat="38.3101080" lon="-0.6921070">
        <ele>200.0</ele>
        <time>2018-04-28T06:00:12Z</time>
      </trkpt>
      <trkpt lat="38.3101500" lon="-0.6921330">
        <ele>200.2</ele>
        <time>2018-04-28T06:00:13Z</time>
      </trkpt>
      <trkpt lat="38.3101910" lon="-0.6921590">
        <ele>200.4</ele>
        <time>2018-04-28T06:00:14Z</time>
      </trkpt>
      <trkpt lat="38.3102330" lon="-0.6921840">
        <ele>200.7</ele>
        <time>2018-04-28T06:00:15Z</time>
      </trkpt>
      <trkpt lat="38.3102720" lon="-0.6922090">
        <ele>201.0</ele>
        <time>2018-04-28T06:00:16Z</time>
      </trkpt>
      <trkpt lat="38.3103090" lon="-0.6922350">
        <ele>201.3</ele>
        <time>2018-04-28T06:00:17Z</time>
      </trkpt>
      <trkpt lat="38.3103390" lon="-0.6922690">
        <ele>201.6</ele>
        <time>2018-04-28T06:00:18Z</time>
      </trkpt>
      <trkpt lat="38.3103630" lon="-0.6923100">
        <ele>201.9</ele>
        <time>2018-04-28T06:00:19Z</time>
      </trkpt>
      <trkpt lat="38.3103820" lon="-0.6923570">
        <ele>202.2</ele>
        <time>2018-04-28T06:00:20Z</time>
      </trkpt>
      <trkpt lat="38.3103970" lon="-0.6924070">
        <ele>202.5</ele>
        <time>2018-04-28T06:00:21Z</time>
      </trkpt>
      <trkpt lat="38.3104110" lon="-0.6924590">
        <ele>202.8</ele>
        <time>2018-04-28T06:00:22Z</time>
      </trkpt>
      <trkpt lat="38.3104200" lon="-0.6925080">
        <ele>203.1</ele>
        <time>2018-04-28T06:00:23Z</time>
      </trkpt>
      <trkpt lat="38.3104260" lon="-0.6925560">
        <ele>203.4</ele>
        <time>2018-04-28T06:00:24Z</time>
      </trkpt>
      <trkpt lat="38.3104350" lon="-0.6926060">
        <ele>203.7</ele>
        <time>2018-04-28T06:00:25Z</time>
      </trkpt>
      <trkpt lat="38.3104420" lon="-0.6926540">
        <ele>204.0</ele>
        <time>2018-04-28T06:00:26Z</time>
      </trkpt>
      <trkpt lat="38.3104550" lon="-0.6926970">
        <ele>204.2</ele>
        <time>2018-04-28T06:00:27Z</time>
      </trkpt>
      <trkpt lat="38.3104730" lon="-0.6927340">
        <ele>204.4</ele>
        <time>2018-04-28T06:00:28Z</time>
      </trkpt>
      <trkpt lat="38.3104930" lon="-0.6927630">
        <ele>204.5</ele>
        <time>2018-04-28T06:00:29Z</time>
      </trkpt>
      <trkpt lat="38.3105310" lon="-0.6927890">
        <ele>204.7</ele>
        <time>2018-04-28T06:00:30Z</time>
      </trkpt>
      <trkpt lat="38.3105660" lon="-0.6928090">
        <ele>204.9</ele>
        <time>2018-04-28T06:00:31Z</time>
      </trkpt>
      <trkpt lat="38.3105980" lon="-0.6928250">
        <ele>205.1</ele>
        <time>2018-04-28T06:00:32Z</time>
      </trkpt>
      <trkpt lat="38.3106300" lon="-0.6928290">
        <ele>205.4</ele>
        <time>2018-04-28T06:00:33Z</time>
      </trkpt>
      <trkpt lat="38.3106750" lon="-0.6928190">
        <ele>205.8</ele>
        <time>2018-04-28T06:00:34Z</time>
      </trkpt>
      <trkpt lat="38.3107150" lon="-0.6928120">
        <ele>206.1</ele>
        <time>2018-04-28T06:00:35Z</time>
      </trkpt>
      <trkpt lat="38.3107550" lon="-0.6928110">
        <ele>206.4</ele>
        <time>2018-04-28T06:00:36Z</time>
      </trkpt>
      <trkpt lat="38.3107970" lon="-0.6928150">
        <ele>206.6</ele>
        <time>2018-04-28T06:00:37Z</time>
      </trkpt>
      <trkpt lat="38.3108360" lon="-0.6928210">
        <ele>206.7</ele>
        <time>2018-04-28T06:00:38Z</time>
      </trkpt>
      <trkpt lat="38.3108780" lon="-0.6928280">
        <ele>206.9</ele>
        <time>2018-04-28T06:00:39Z</time>
      </trkpt>
      <trkpt lat="38.3109180" lon="-0.6928390">
        <ele>207.0</ele>
        <time>2018-04-28T06:00:40Z</time>
      </trkpt>
      <trkpt lat="38.3109580" lon="-0.6928520">
        <ele>207.1</ele>
        <time>2018-04-28T06:00:41Z</time>
      </trkpt>
      <trkpt lat="38.3109970" lon="-0.6928670">
        <ele>207.3</ele>
        <time>2018-04-28T06:00:42Z</time>
      </trkpt>
      <trkpt lat="38.3110310" lon="-0.6928850">
        <ele>207.4</ele>
        <time>2018-04-28T06:00:43Z</time>
      </trkpt>
      <trkpt lat="38.3110680" lon="-0.6929010">
        <ele>207.7</ele>
        <time>2018-04-28T06:00:44Z</time>
      </trkpt>
      <trkpt lat="38.3111000" lon="-0.6929200">
        <ele>207.9</ele>
        <time>2018-04-28T06:00:45Z</time>
      </trkpt>
      <trkpt lat="38.3111340" lon="-0.6929400">
        <ele>208.2</ele>
        <time>2018-04-28T06:00:46Z</time>
      </trkpt>
      <trkpt lat="38.3111660" lon="-0.6929640">
        <ele>208.5</ele>
        <time>2018-04-28T06:00:47Z</time>
      </trkpt>
      <trkpt lat="38.3111980" lon="-0.6929860">
        <ele>208.8</ele>
        <time>2018-04-28T06:00:48Z</time>
      </trkpt>
      <trkpt lat="38.3112250" lon="-0.6930130">
        <ele>209.1</ele>
        <time>2018-04-28T06:00:49Z</time>
      </trkpt>
      <trkpt lat="38.3112560" lon="-0.6930360">
        <ele>209.4</ele>
        <time>2018-04-28T06:00:50Z</time>
      </trkpt>
      <trkpt lat="38.3112860" lon="-0.6930620">
        <ele>209.7</ele>
        <time>2018-04-28T06:00:51Z</time>
      </trkpt>
      <trkpt lat="38.3113170" lon="-0.6930860">
        <ele>209.9</ele>
        <time>2018-04-28T06:00:52Z</time>
      </trkpt>
      <trkpt lat="38.3113410" lon="-0.6931220">
        <ele>210.2</ele>
        <time>2018-04-28T06:00:53Z</time>
      </trkpt>
      <trkpt lat="38.3113640" lon="-0.6931540">
        <ele>210.5</ele>
        <time>2018-04-28T06:00:54Z</time>
      </trkpt>
      <trkpt lat="38.3113880" lon="-0.6931890">
        <ele>210.8</ele>
        <time>2018-04-28T06:00:55Z</time>
      </trkpt>
      <trkpt lat="38.3114110" lon="-0.6932240">
        <ele>211.0</ele>
        <time>2018-04-28T06:00:56Z</time>
      </trkpt>
      <trkpt lat="38.3114360" lon="-0.6932610">
        <ele>211.3</ele>
        <time>2018-04-28T06:00:57Z</time>
      </trkpt>
      <trkpt lat="38.3114610" lon="-0.6932980">
        <ele>211.5</ele>
        <time>2018-04-28T06:00:58Z</time>
      </trkpt>
      <trkpt lat="38.3114880" lon="-0.6933340">
        <ele>211.7</ele>
        <time>2018-04-28T06:00:59Z</time>
      </trkpt>
      <trkpt lat="38.3115160" lon="-0.6933720">
        <ele>211.9</ele>
        <time>2018-04-28T06:01:00Z</time>
      </trkpt>
      <trkpt lat="38.3115430" lon="-0.6934060">
        <ele>212.0</ele>
        <time>2018-04-28T06:01:01Z</time>
      </trkpt>
      <trkpt lat="38.3115710" lon="-0.6934370">
        <ele>212.2</ele>
        <time>2018-04-28T06:01:02Z</time>
      </trkpt>
      <trkpt lat="38.3116010" lon="-0.6934660">
        <ele>212.4</ele>
        <time>2018-04-28T06:01:03Z</time>
      </trkpt>
      <trkpt lat="38.3116350" lon="-0.6934950">
        <ele>212.7</ele>
        <time>2018-04-28T06:01:04Z</time>
      </trkpt>
      <trkpt lat="38.3116680" lon="-0.6935220">
        <ele>213.0</ele>
        <time>2018-04-28T06:01:05Z</time>
      </trkpt>
      <trkpt lat="38.3116980" lon="-0.6935480">
        <ele>213.2</ele>
        <time>2018-04-28T06:01:06Z</time>
      </trkpt>
      <trkpt lat="38.3117280" lon="-0.6935770">
        <ele>213.5</ele>
        <time>2018-04-28T06:01:07Z</time>
      </trkpt>
      <trkpt lat="38.3117630" lon="-0.6936060">
        <ele>213.8</ele>
        <time>2018-04-28T06:01:08Z</time>
      </trkpt>
      <trkpt lat="38.3117970" lon="-0.6936350">
        <ele>214.0</ele>
        <time>2018-04-28T06:01:09Z</time>
      </trkpt>
      <trkpt lat="38.3118300" lon="-0.6936640">
        <ele>214.2</ele>
        <time>2018-04-28T06:01:10Z</time>
      </trkpt>
      <trkpt lat="38.3118630" lon="-0.6936930">
        <ele>214.4</ele>
        <time>2018-04-28T06:01:11Z</time>
      </trkpt>
      <trkpt lat="38.3118940" lon="-0.6937210">
        <ele>214.6</ele>
        <time>2018-04-28T06:01:12Z</time>
      </trkpt>
      <trkpt lat="38.3119280" lon="-0.6937510">
        <ele>214.8</ele>
        <time>2018-04-28T06:01:13Z</time>
      </trkpt>
      <trkpt lat="38.3119620" lon="-0.6937810">
        <ele>215.0</ele>
        <time>2018-04-28T06:01:14Z</time>
      </trkpt>
      <trkpt lat="38.3119940" lon="-0.6938110">
        <ele>215.3</ele>
        <time>2018-04-28T06:01:15Z</time>
      </trkpt>
      <trkpt lat="38.3120260" lon="-0.6938410">
        <ele>215.6</ele>
        <time>2018-04-28T06:01:16Z</time>
      </trkpt>
      <trkpt lat="38.3120600" lon="-0.6938680">
        <ele>215.8</ele>
        <time>2018-04-28T06:01:17Z</time>
      </trkpt>
      <trkpt lat="38.3120960" lon="-0.6938890">
        <ele>216.1</ele>
        <time>2018-04-28T06:01:18Z</time>
      </trkpt>
      <trkpt lat="38.3121330" lon="-0.6939000">
        <ele>216.3</ele>
        <time>2018-04-28T06:01:19Z</time>
      </trkpt>
      <trkpt lat="38.3121710" lon="-0.6939000">
        <ele>216.4</ele>
        <time>2018-04-28T06:01:20Z</time>
      </trkpt>
      <trkpt lat="38.3122080" lon="-0.6938970">
        <ele>216.5</ele>
        <time>2018-04-28T06:01:21Z</time>
      </trkpt>
      <trkpt lat="38.3122440" lon="-0.6938870">
        <ele>216.6</ele>
        <time>2018-04-28T06:01:22Z</time>
      </trkpt>
      <trkpt lat="38.3122780" lon="-0.6938670">
        <ele>216.7</ele>
        <time>2018-04-28T06:01:23Z</time>
      </trkpt>
      <trkpt lat="38.3123100" lon="-0.6938370">
        <ele>216.8</ele>
        <time>2018-04-28T06:01:24Z</time>
      </trkpt>
      <trkpt lat="38.3123320" lon="-0.6937990">
        <ele>217.0</ele>
        <time>2018-04-28T06:01:25Z</time>
      </trkpt>
      <trkpt lat="38.3123490" lon="-0.6937630">
        <ele>217.1</ele>
        <time>2018-04-28T06:01:26Z</time>
      </trkpt>
      <trkpt lat="38.3123570" lon="-0.6937130">
        <ele>217.4</ele>
        <time>2018-04-28T06:01:27Z</time>
      </trkpt>
      <trkpt lat="38.3123690" lon="-0.6936690">
        <ele>217.6</ele>
        <time>2018-04-28T06:01:28Z</time>
      </trkpt>
      <trkpt lat="38.3123820" lon="-0.6936240">
        <ele>217.9</ele>
        <time>2018-04-28T06:01:29Z</time>
      </trkpt>
      <trkpt lat="38.3124030" lon="-0.6935840">
        <ele>218.3</ele>
        <time>2018-04-28T06:01:30Z</time>
      </trkpt>
      <trkpt lat="38.3124310" lon="-0.6935540">
        <ele>218.6</ele>
        <time>2018-04-28T06:01:31Z</time>
      </trkpt>
      <trkpt lat="38.3124640" lon="-0.6935340">
        <ele>218.9</ele>
        <time>2018-04-28T06:01:32Z</time>
      </trkpt>
      <trkpt lat="38.3124960" lon="-0.6935250">
        <ele>219.2</ele>
        <time>2018-04-28T06:01:33Z</time>
      </trkpt>
      <trkpt lat="38.3125260" lon="-0.6935270">
        <ele>219.5</ele>
        <time>2018-04-28T06:01:34Z</time>
      </trkpt>
      <trkpt lat="38.3125570" lon="-0.6935380">
        <ele>219.8</ele>
        <time>2018-04-28T06:01:35Z</time>
      </trkpt>
      <trkpt lat="38.3125900" lon="-0.6935500">
        <ele>220.1</ele>
        <time>2018-04-28T06:01:36Z</time>
      </trkpt>
      <trkpt lat="38.3126230" lon="-0.6935640">
        <ele>220.4</ele>
        <time>2018-04-28T06:01:37Z</time>
      </trkpt>
      <trkpt lat="38.3126540" lon="-0.6935780">
        <ele>220.7</ele>
        <time>2018-04-28T06:01:38Z</time>
      </trkpt>
      <trkpt lat="38.3126860" lon="-0.6935930">
        <ele>221.0</ele>
        <time>2018-04-28T06:01:39Z</time>
      </trkpt>
      <trkpt lat="38.3127170" lon="-0.6936120">
        <ele>221.2</ele>
        <time>2018-04-28T06:01:40Z</time>
      </trkpt>
      <trkpt lat="38.3127480" lon="-0.6936300">
        <ele>221.5</ele>
        <time>2018-04-28T06:01:41Z</time>
      </trkpt>
      <trkpt lat="38.3127800" lon="-0.6936480">
        <ele>221.8</ele>
        <time>2018-04-28T06:01:42Z</time>
      </trkpt>
      <trkpt lat="38.3128120" lon="-0.6936660">
        <ele>222.0</ele>
        <time>2018-04-28T06:01:43Z</time>
      </trkpt>
      <trkpt lat="38.3128460" lon="-0.6936830">
        <ele>222.3</ele>
        <time>2018-04-28T06:01:44Z</time>
      </trkpt>
      <trkpt lat="38.3128810" lon="-0.6936980">
        <ele>222.6</ele>
        <time>2018-04-28T06:01:45Z</time>
      </trkpt>
      <trkpt lat="38.3129140" lon="-0.6937090">
        <ele>222.9</ele>
        <time>2018-04-28T06:01:46Z</time>
      </trkpt>
      <trkpt lat="38.3129460" lon="-0.6937070">
        <ele>223.1</ele>
        <time>2018-04-28T06:01:47Z</time>
      </trkpt>
      <trkpt lat="38.3129820" lon="-0.6936870">
        <ele>223.4</ele>
        <time>2018-04-28T06:01:48Z</time>
      </trkpt>
      <trkpt lat="38.3130180" lon="-0.6936600">
        <ele>223.6</ele>
        <time>2018-04-28T06:01:49Z</time>
      </trkpt>
      <trkpt lat="38.3130500" lon="-0.6936240">
        <ele>223.8</ele>
        <time>2018-04-28T06:01:50Z</time>
      </trkpt>
      <trkpt lat="38.3130790" lon="-0.6935830">
        <ele>224.0</ele>
        <time>2018-04-28T06:01:51Z</time>
      </trkpt>
      <trkpt lat="38.3131050" lon="-0.6935390">
        <ele>224.2</ele>
        <time>2018-04-28T06:01:52Z</time>
      </trkpt>
      <trkpt lat="38.3131330" lon="-0.6934960">
        <ele>224.5</ele>
        <time>2018-04-28T06:01:53Z</time>
      </trkpt>
      <trkpt lat="38.3131650" lon="-0.6934550">
        <ele>224.8</ele>
        <time>2018-04-28T06:01:54Z</time>
      </trkpt>
      <trkpt lat="38.3132020" lon="-0.6934200">
        <ele>225.1</ele>
        <time>2018-04-28T06:01:55Z</time>
      </trkpt>
      <trkpt lat="38.3132360" lon="-0.6933920">
        <ele>225.4</ele>
        <time>2018-04-28T06:01:56Z</time>
      </trkpt>
      <trkpt lat="38.3132730" lon="-0.6933690">
        <ele>225.6</ele>
        <time>2018-04-28T06:01:57Z</time>
      </trkpt>
      <trkpt lat="38.3133130" lon="-0.6933520">
        <ele>225.9</ele>
        <time>2018-04-28T06:01:58Z</time>
      </trkpt>
      <trkpt lat="38.3133510" lon="-0.6933370">
        <ele>226.0</ele>
        <time>2018-04-28T06:01:59Z</time>
      </trkpt>
      <trkpt lat="38.3133890" lon="-0.6933270">
        <ele>226.2</ele>
        <time>2018-04-28T06:02:00Z</time>
      </trkpt>
      <trkpt lat="38.3134280" lon="-0.6933200">
        <ele>226.3</ele>
        <time>2018-04-28T06:02:01Z</time>
      </trkpt>
      <trkpt lat="38.3134640" lon="-0.6933160">
        <ele>226.4</ele>
        <time>2018-04-28T06:02:02Z</time>
      </trkpt>
      <trkpt lat="38.3134950" lon="-0.6933170">
        <ele>226.6</ele>
        <time>2018-04-28T06:02:03Z</time>
      </trkpt>
      <trkpt lat="38.3135290" lon="-0.6933190">
        <ele>226.8</ele>
        <time>2018-04-28T06:02:04Z</time>
      </trkpt>
      <trkpt lat="38.3135650" lon="-0.6933240">
        <ele>227.1</ele>
        <time>2018-04-28T06:02:05Z</time>
      </trkpt>
      <trkpt lat="38.3136000" lon="-0.6933330">
        <ele>227.4</ele>
        <time>2018-04-28T06:02:06Z</time>
      </trkpt>
      <trkpt lat="38.3136360" lon="-0.6933470">
        <ele>227.8</ele>
        <time>2018-04-28T06:02:07Z</time>
      </trkpt>
      <trkpt lat="38.3136750" lon="-0.6933600">
        <ele>228.2</ele>
        <time>2018-04-28T06:02:08Z</time>
      </trkpt>
      <trkpt lat="38.3137150" lon="-0.6933760">
        <ele>228.6</ele>
        <time>2018-04-28T06:02:09Z</time>
      </trkpt>
      <trkpt lat="38.3137530" lon="-0.6933930">
        <ele>229.1</ele>
        <time>2018-04-28T06:02:10Z</time>
      </trkpt>
      <trkpt lat="38.3137910" lon="-0.6934120">
        <ele>229.5</ele>
        <time>2018-04-28T06:02:11Z</time>
      </trkpt>
      <trkpt lat="38.3138300" lon="-0.6934300">
        <ele>229.8</ele>
        <time>2018-04-28T06:02:12Z</time>
      </trkpt>
      <trkpt lat="38.3138700" lon="-0.6934490">
        <ele>230.1</ele>
        <time>2018-04-28T06:02:13Z</time>
      </trkpt>
      <trkpt lat="38.3139100" lon="-0.6934660">
        <ele>230.4</ele>
        <time>2018-04-28T06:02:14Z</time>
      </trkpt>
      <trkpt lat="38.3139510" lon="-0.6934840">
        <ele>230.6</ele>
        <time>2018-04-28T06:02:15Z</time>
      </trkpt>
      <trkpt lat="38.3139920" lon="-0.6935000">
        <ele>230.8</ele>
        <time>2018-04-28T06:02:16Z</time>
      </trkpt>
      <trkpt lat="38.3140340" lon="-0.6935120">
        <ele>231.0</ele>
        <time>2018-04-28T06:02:17Z</time>
      </trkpt>
      <trkpt lat="38.3140750" lon="-0.6935240">
        <ele>231.2</ele>
        <time>2018-04-28T06:02:18Z</time>
      </trkpt>
      <trkpt lat="38.3141160" lon="-0.6935330">
        <ele>231.4</ele>
        <time>2018-04-28T06:02:19Z</time>
      </trkpt>
      <trkpt lat="38.3141550" lon="-0.6935420">
        <ele>231.7</ele>
        <time>2018-04-28T06:02:20Z</time>
      </trkpt>
      <trkpt lat="38.3141930" lon="-0.6935500">
        <ele>232.0</ele>
        <time>2018-04-28T06:02:21Z</time>
      </trkpt>
      <trkpt lat="38.3142300" lon="-0.6935540">
        <ele>232.2</ele>
        <time>2018-04-28T06:02:22Z</time>
      </trkpt>
      <trkpt lat="38.3142670" lon="-0.6935580">
        <ele>232.5</ele>
        <time>2018-04-28T06:02:23Z</time>
      </trkpt>
      <trkpt lat="38.3143040" lon="-0.6935620">
        <ele>232.7</ele>
        <time>2018-04-28T06:02:24Z</time>
      </trkpt>
      <trkpt lat="38.3143400" lon="-0.6935640">
        <ele>233.0</ele>
        <time>2018-04-28T06:02:25Z</time>
      </trkpt>
      <trkpt lat="38.3143750" lon="-0.6935670">
        <ele>233.1</ele>
        <time>2018-04-28T06:02:26Z</time>
      </trkpt>
      <trkpt lat="38.3144100" lon="-0.6935690">
        <ele>233.3</ele>
        <time>2018-04-28T06:02:27Z</time>
      </trkpt>
      <trkpt lat="38.3144450" lon="-0.6935690">
        <ele>233.5</ele>
        <time>2018-04-28T06:02:28Z</time>
      </trkpt>
      <trkpt lat="38.3144810" lon="-0.6935670">
        <ele>233.7</ele>
        <time>2018-04-28T06:02:29Z</time>
      </trkpt>
      <trkpt lat="38.3145180" lon="-0.6935640">
        <ele>233.9</ele>
        <time>2018-04-28T06:02:30Z</time>
      </trkpt>
      <trkpt lat="38.3145550" lon="-0.6935620">
        <ele>234.2</ele>
        <time>2018-04-28T06:02:31Z</time>
      </trkpt>
      <trkpt lat="38.3145920" lon="-0.6935610">
        <ele>234.5</ele>
        <time>2018-04-28T06:02:32Z</time>
      </trkpt>
      <trkpt lat="38.3146290" lon="-0.6935590">
        <ele>234.8</ele>
        <time>2018-04-28T06:02:33Z</time>
      </trkpt>
      <trkpt lat="38.3146670" lon="-0.6935550">
        <ele>235.1</ele>
        <time>2018-04-28T06:02:34Z</time>
      </trkpt>
      <trkpt lat="38.3147070" lon="-0.6935490">
        <ele>235.3</ele>
        <time>2018-04-28T06:02:35Z</time>
      </trkpt>
      <trkpt lat="38.3147450" lon="-0.6935440">
        <ele>235.6</ele>
        <time>2018-04-28T06:02:36Z</time>
      </trkpt>
      <trkpt lat="38.3147850" lon="-0.6935400">
        <ele>235.9</ele>
        <time>2018-04-28T06:02:37Z</time>
      </trkpt>
      <trkpt lat="38.3148230" lon="-0.6935370">
        <ele>236.1</ele>
        <time>2018-04-28T06:02:38Z</time>
      </trkpt>
      <trkpt lat="38.3148610" lon="-0.6935360">
        <ele>236.4</ele>
        <time>2018-04-28T06:02:39Z</time>
      </trkpt>
      <trkpt lat="38.3149010" lon="-0.6935330">
        <ele>236.6</ele>
        <time>2018-04-28T06:02:40Z</time>
      </trkpt>
      <trkpt lat="38.3149400" lon="-0.6935310">
        <ele>236.9</ele>
        <time>2018-04-28T06:02:41Z</time>
      </trkpt>
      <trkpt lat="38.3149770" lon="-0.6935280">
        <ele>237.1</ele>
        <time>2018-04-28T06:02:42Z</time>
      </trkpt>
      <trkpt lat="38.3150160" lon="-0.6935240">
        <ele>237.4</ele>
        <time>2018-04-28T06:02:43Z</time>
      </trkpt>
      <trkpt lat="38.3150550" lon="-0.6935190">
        <ele>237.5</ele>
        <time>2018-04-28T06:02:44Z</time>
      </trkpt>
      <trkpt lat="38.3150920" lon="-0.6935150">
        <ele>237.7</ele>
        <time>2018-04-28T06:02:45Z</time>
      </trkpt>
      <trkpt lat="38.3151300" lon="-0.6935110">
        <ele>237.8</ele>
        <time>2018-04-28T06:02:46Z</time>
      </trkpt>
      <trkpt lat="38.3151680" lon="-0.6934990">
        <ele>237.9</ele>
        <time>2018-04-28T06:02:47Z</time>
      </trkpt>
      <trkpt lat="38.3152060" lon="-0.6934840">
        <ele>237.9</ele>
        <time>2018-04-28T06:02:48Z</time>
      </trkpt>
      <trkpt lat="38.3152440" lon="-0.6934730">
        <ele>238.0</ele>
        <time>2018-04-28T06:02:49Z</time>
      </trkpt>
      <trkpt lat="38.3152800" lon="-0.6934620">
        <ele>238.0</ele>
        <time>2018-04-28T06:02:50Z</time>
      </trkpt>
      <trkpt lat="38.3153120" lon="-0.6934470">
        <ele>238.3</ele>
        <time>2018-04-28T06:02:51Z</time>
      </trkpt>
      <trkpt lat="38.3153440" lon="-0.6934340">
        <ele>238.5</ele>
        <time>2018-04-28T06:02:52Z</time>
      </trkpt>
      <trkpt lat="38.3153790" lon="-0.6934280">
        <ele>238.7</ele>
        <time>2018-04-28T06:02:53Z</time>
      </trkpt>
      <trkpt lat="38.3154140" lon="-0.6934270">
        <ele>239.0</ele>
        <time>2018-04-28T06:02:54Z</time>
      </trkpt>
      <trkpt lat="38.3154490" lon="-0.6934300">
        <ele>239.2</ele>
        <time>2018-04-28T06:02:55Z</time>
      </trkpt>
      <trkpt lat="38.3154860" lon="-0.6934350">
        <ele>239.5</ele>
        <time>2018-04-28T06:02:56Z</time>
      </trkpt>
      <trkpt lat="38.3155230" lon="-0.6934410">
        <ele>239.7</ele>
        <time>2018-04-28T06:02:57Z</time>
      </trkpt>
      <trkpt lat="38.3155610" lon="-0.6934470">
        <ele>240.0</ele>
        <time>2018-04-28T06:02:58Z</time>
      </trkpt>
      <trkpt lat="38.3156000" lon="-0.6934540">
        <ele>240.2</ele>
        <time>2018-04-28T06:02:59Z</time>
      </trkpt>
      <trkpt lat="38.3156390" lon="-0.6934630">
        <ele>240.5</ele>
        <time>2018-04-28T06:03:00Z</time>
      </trkpt>
      <trkpt lat="38.3156760" lon="-0.6934760">
        <ele>240.7</ele>
        <time>2018-04-28T06:03:01Z</time>
      </trkpt>
      <trkpt lat="38.3157150" lon="-0.6934880">
        <ele>241.0</ele>
        <time>2018-04-28T06:03:02Z</time>
      </trkpt>
      <trkpt lat="38.3157540" lon="-0.6935020">
        <ele>241.2</ele>
        <time>2018-04-28T06:03:03Z</time>
      </trkpt>
      <trkpt lat="38.3157940" lon="-0.6935170">
        <ele>241.5</ele>
        <time>2018-04-28T06:03:04Z</time>
      </trkpt>
      <trkpt lat="38.3158360" lon="-0.6935320">
        <ele>241.8</ele>
        <time>2018-04-28T06:03:05Z</time>
      </trkpt>
      <trkpt lat="38.3158780" lon="-0.6935500">
        <ele>242.0</ele>
        <time>2018-04-28T06:03:06Z</time>
      </trkpt>
      <trkpt lat="38.3159190" lon="-0.6935680">
        <ele>242.3</ele>
        <time>2018-04-28T06:03:07Z</time>
      </trkpt>
      <trkpt lat="38.3159620" lon="-0.6935850">
        <ele>242.6</ele>
        <time>2018-04-28T06:03:08Z</time>
      </trkpt>
      <trkpt lat="38.3160050" lon="-0.6936020">
        <ele>242.9</ele>
        <time>2018-04-28T06:03:09Z</time>
      </trkpt>
      <trkpt lat="38.3160480" lon="-0.6936210">
        <ele>243.2</ele>
        <time>2018-04-28T06:03:10Z</time>
      </trkpt>
      <trkpt lat="38.3160920" lon="-0.6936390">
        <ele>243.5</ele>
        <time>2018-04-28T06:03:11Z</time>
      </trkpt>
      <trkpt lat="38.3161360" lon="-0.6936570">
        <ele>243.8</ele>
        <time>2018-04-28T06:03:12Z</time>
      </trkpt>
      <trkpt lat="38.3161830" lon="-0.6936750">
        <ele>244.0</ele>
        <time>2018-04-28T06:03:13Z</time>
      </trkpt>
      <trkpt lat="38.3162300" lon="-0.6936950">
        <ele>244.3</ele>
        <time>2018-04-28T06:03:14Z</time>
      </trkpt>
      <trkpt lat="38.3162770" lon="-0.6937150">
        <ele>244.5</ele>
        <time>2018-04-28T06:03:15Z</time>
      </trkpt>
      <trkpt lat="38.3163200" lon="-0.6937360">
        <ele>244.7</ele>
        <time>2018-04-28T06:03:16Z</time>
      </trkpt>
      <trkpt lat="38.3163610" lon="-0.6937560">
        <ele>244.8</ele>
        <time>2018-04-28T06:03:17Z</time>
      </trkpt>
      <trkpt lat="38.3164010" lon="-0.6937760">
        <ele>244.9</ele>
        <time>2018-04-28T06:03:18Z</time>
      </trkpt>
      <trkpt lat="38.3164380" lon="-0.6937970">
        <ele>245.0</ele>
        <time>2018-04-28T06:03:19Z</time>
      </trkpt>
      <trkpt lat="38.3164760" lon="-0.6938150">
        <ele>245.1</ele>
        <time>2018-04-28T06:03:20Z</time>
      </trkpt>
      <trkpt lat="38.3165140" lon="-0.6938320">
        <ele>245.2</ele>
        <time>2018-04-28T06:03:21Z</time>
      </trkpt>
      <trkpt lat="38.3165510" lon="-0.6938510">
        <ele>245.3</ele>
        <time>2018-04-28T06:03:22Z</time>
      </trkpt>
      <trkpt lat="38.3165870" lon="-0.6938700">
        <ele>245.4</ele>
        <time>2018-04-28T06:03:23Z</time>
      </trkpt>
      <trkpt lat="38.3166250" lon="-0.6938880">
        <ele>245.5</ele>
        <time>2018-04-28T06:03:24Z</time>
      </trkpt>
      <trkpt lat="38.3166620" lon="-0.6939060">
        <ele>245.5</ele>
        <time>2018-04-28T06:03:25Z</time>
      </trkpt>
      <trkpt lat="38.3167020" lon="-0.6939260">
        <ele>245.6</ele>
        <time>2018-04-28T06:03:26Z</time>
      </trkpt>
      <trkpt lat="38.3167400" lon="-0.6939460">
        <ele>245.6</ele>
        <time>2018-04-28T06:03:27Z</time>
      </trkpt>
      <trkpt lat="38.3167800" lon="-0.6939650">
        <ele>245.6</ele>
        <time>2018-04-28T06:03:28Z</time>
      </trkpt>
      <trkpt lat="38.3168200" lon="-0.6939840">
        <ele>245.6</ele>
        <time>2018-04-28T06:03:29Z</time>
      </trkpt>
      <trkpt lat="38.3168610" lon="-0.6940020">
        <ele>245.5</ele>
        <time>2018-04-28T06:03:30Z</time>
      </trkpt>
      <trkpt lat="38.3169030" lon="-0.6940150">
        <ele>245.4</ele>
        <time>2018-04-28T06:03:31Z</time>
      </trkpt>
      <trkpt lat="38.3169440" lon="-0.6940240">
        <ele>245.3</ele>
        <time>2018-04-28T06:03:32Z</time>
      </trkpt>
      <trkpt lat="38.3169870" lon="-0.6940290">
        <ele>245.1</ele>
        <time>2018-04-28T06:03:33Z</time>
      </trkpt>
      <trkpt lat="38.3170320" lon="-0.6940290">
        <ele>245.0</ele>
        <time>2018-04-28T06:03:34Z</time>
      </trkpt>
      <trkpt lat="38.3170780" lon="-0.6940220">
        <ele>244.8</ele>
        <time>2018-04-28T06:03:35Z</time>
      </trkpt>
      <trkpt lat="38.3171240" lon="-0.6940130">
        <ele>244.7</ele>
        <time>2018-04-28T06:03:36Z</time>
      </trkpt>
      <trkpt lat="38.3171740" lon="-0.6940010">
        <ele>244.5</ele>
        <time>2018-04-28T06:03:37Z</time>
      </trkpt>
      <trkpt lat="38.3172270" lon="-0.6939850">
        <ele>244.4</ele>
        <time>2018-04-28T06:03:38Z</time>
      </trkpt>
      <trkpt lat="38.3172780" lon="-0.6939660">
        <ele>244.3</ele>
        <time>2018-04-28T06:03:39Z</time>
      </trkpt>
      <trkpt lat="38.3173310" lon="-0.6939420">
        <ele>244.1</ele>
        <time>2018-04-28T06:03:40Z</time>
      </trkpt>
      <trkpt lat="38.3173860" lon="-0.6939150">
        <ele>243.9</ele>
        <time>2018-04-28T06:03:41Z</time>
      </trkpt>
      <trkpt lat="38.3174470" lon="-0.6938840">
        <ele>243.7</ele>
        <time>2018-04-28T06:03:42Z</time>
      </trkpt>
      <trkpt lat="38.3175050" lon="-0.6938510">
        <ele>243.6</ele>
        <time>2018-04-28T06:03:43Z</time>
      </trkpt>
      <trkpt lat="38.3175680" lon="-0.6938120">
        <ele>243.4</ele>
        <time>2018-04-28T06:03:44Z</time>
      </trkpt>
      <trkpt lat="38.3176380" lon="-0.6937690">
        <ele>243.3</ele>
        <time>2018-04-28T06:03:45Z</time>
      </trkpt>
      <trkpt lat="38.3177170" lon="-0.6937250">
        <ele>243.1</ele>
        <time>2018-04-28T06:03:46Z</time>
      </trkpt>
      <trkpt lat="38.3177960" lon="-0.6936800">
        <ele>242.9</ele>
        <time>2018-04-28T06:03:47Z</time>
      </trkpt>
      <trkpt lat="38.3178730" lon="-0.6936400">
        <ele>242.8</ele>
        <time>2018-04-28T06:03:48Z</time>
      </trkpt>
      <trkpt lat="38.3179560" lon="-0.6936100">
        <ele>242.9</ele>
        <time>2018-04-28T06:03:49Z</time>
      </trkpt>
      <trkpt lat="38.3180390" lon="-0.6935950">
        <ele>243.0</ele>
        <time>2018-04-28T06:03:50Z</time>
      </trkpt>
      <trkpt lat="38.3181220" lon="-0.6935880">
        <ele>242.4</ele>
        <time>2018-04-28T06:03:51Z</time>
      </trkpt>
      <trkpt lat="38.3182060" lon="-0.6935800">
        <ele>241.9</ele>
        <time>2018-04-28T06:03:52Z</time>
      </trkpt>
      <trkpt lat="38.3182890" lon="-0.6935720">
        <ele>241.7</ele>
        <time>2018-04-28T06:03:53Z</time>
      </trkpt>
      <trkpt lat="38.3183690" lon="-0.6935630">
        <ele>241.5</ele>
        <time>2018-04-28T06:03:54Z</time>
      </trkpt>
      <trkpt lat="38.3184470" lon="-0.6935540">
        <ele>241.3</ele>
        <time>2018-04-28T06:03:55Z</time>
      </trkpt>
      <trkpt lat="38.3185240" lon="-0.6935490">
        <ele>241.2</ele>
        <time>2018-04-28T06:03:56Z</time>
      </trkpt>
      <trkpt lat="38.3185980" lon="-0.6935470">
        <ele>241.1</ele>
        <time>2018-04-28T06:03:57Z</time>
      </trkpt>
      <trkpt lat="38.3186720" lon="-0.6935470">
        <ele>241.0</ele>
        <time>2018-04-28T06:03:58Z</time>
      </trkpt>
      <trkpt lat="38.3187450" lon="-0.6935490">
        <ele>240.8</ele>
        <time>2018-04-28T06:03:59Z</time>
      </trkpt>
      <trkpt lat="38.3188170" lon="-0.6935550">
        <ele>240.7</ele>
        <time>2018-04-28T06:04:00Z</time>
      </trkpt>
      <trkpt lat="38.3188890" lon="-0.6935600">
        <ele>240.6</ele>
        <time>2018-04-28T06:04:01Z</time>
      </trkpt>
      <trkpt lat="38.3189590" lon="-0.6935610">
        <ele>240.5</ele>
        <time>2018-04-28T06:04:02Z</time>
      </trkpt>
      <trkpt lat="38.3190300" lon="-0.6935590">
        <ele>240.4</ele>
        <time>2018-04-28T06:04:03Z</time>
      </trkpt>
      <trkpt lat="38.3191000" lon="-0.6935500">
        <ele>240.3</ele>
        <time>2018-04-28T06:04:04Z</time>
      </trkpt>
      <trkpt lat="38.3191680" lon="-0.6935280">
        <ele>240.2</ele>
        <time>2018-04-28T06:04:05Z</time>
      </trkpt>
      <trkpt lat="38.3192340" lon="-0.6934840">
        <ele>240.1</ele>
        <time>2018-04-28T06:04:06Z</time>
      </trkpt>
      <trkpt lat="38.3192890" lon="-0.6934200">
        <ele>240.0</ele>
        <time>2018-04-28T06:04:07Z</time>
      </trkpt>
      <trkpt lat="38.3193070" lon="-0.6933410">
        <ele>239.9</ele>
        <time>2018-04-28T06:04:08Z</time>
      </trkpt>
      <trkpt lat="38.3193220" lon="-0.6932480">
        <ele>239.8</ele>
        <time>2018-04-28T06:04:09Z</time>
      </trkpt>
      <trkpt lat="38.3193350" lon="-0.6931440">
        <ele>239.7</ele>
        <time>2018-04-28T06:04:10Z</time>
      </trkpt>
      <trkpt lat="38.3193480" lon="-0.6930360">
        <ele>239.6</ele>
        <time>2018-04-28T06:04:11Z</time>
      </trkpt>
      <trkpt lat="38.3193610" lon="-0.6929280">
        <ele>239.4</ele>
        <time>2018-04-28T06:04:12Z</time>
      </trkpt>
      <trkpt lat="38.3193720" lon="-0.6928170">
        <ele>239.2</ele>
        <time>2018-04-28T06:04:13Z</time>
      </trkpt>
      <trkpt lat="38.3193830" lon="-0.6927070">
        <ele>238.9</ele>
        <time>2018-04-28T06:04:14Z</time>
      </trkpt>
      <trkpt lat="38.3193940" lon="-0.6925970">
        <ele>238.5</ele>
        <time>2018-04-28T06:04:15Z</time>
      </trkpt>
      <trkpt lat="38.3194080" lon="-0.6924860">
        <ele>238.1</ele>
        <time>2018-04-28T06:04:16Z</time>
      </trkpt>
      <trkpt lat="38.3194230" lon="-0.6923780">
        <ele>237.7</ele>
        <time>2018-04-28T06:04:17Z</time>
      </trkpt>
      <trkpt lat="38.3194450" lon="-0.6922750">
        <ele>237.3</ele>
        <time>2018-04-28T06:04:18Z</time>
      </trkpt>
      <trkpt lat="38.3194750" lon="-0.6921760">
        <ele>236.9</ele>
        <time>2018-04-28T06:04:19Z</time>
      </trkpt>
      <trkpt lat="38.3195100" lon="-0.6920840">
        <ele>236.5</ele>
        <time>2018-04-28T06:04:20Z</time>
      </trkpt>
      <trkpt lat="38.3195490" lon="-0.6919930">
        <ele>236.2</ele>
        <time>2018-04-28T06:04:21Z</time>
      </trkpt>
      <trkpt lat="38.3195860" lon="-0.6919010">
        <ele>235.8</ele>
        <time>2018-04-28T06:04:22Z</time>
      </trkpt>
      <trkpt lat="38.3196170" lon="-0.6918080">
        <ele>235.4</ele>
        <time>2018-04-28T06:04:23Z</time>
      </trkpt>
      <trkpt lat="38.3196420" lon="-0.6917070">
        <ele>235.0</ele>
        <time>2018-04-28T06:04:24Z</time>
      </trkpt>
      <trkpt lat="38.3196650" lon="-0.6916070">
        <ele>234.7</ele>
        <time>2018-04-28T06:04:25Z</time>
      </trkpt>
      <trkpt lat="38.3196890" lon="-0.6915060">
        <ele>234.4</ele>
        <time>2018-04-28T06:04:26Z</time>
      </trkpt>
      <trkpt lat="38.3197080" lon="-0.6914010">
        <ele>234.2</ele>
        <time>2018-04-28T06:04:27Z</time>
      </trkpt>
      <trkpt lat="38.3197250" lon="-0.6912960">
        <ele>234.0</ele>
        <time>2018-04-28T06:04:28Z</time>
      </trkpt>
      <trkpt lat="38.3197460" lon="-0.6911900">
        <ele>233.8</ele>
        <time>2018-04-28T06:04:29Z</time>
      </trkpt>
      <trkpt lat="38.3197640" lon="-0.6910850">
        <ele>233.7</ele>
        <time>2018-04-28T06:04:30Z</time>
      </trkpt>
      <trkpt lat="38.3197820" lon="-0.6909800">
        <ele>233.5</ele>
        <time>2018-04-28T06:04:31Z</time>
      </trkpt>
      <trkpt lat="38.3197980" lon="-0.6908760">
        <ele>233.3</ele>
        <time>2018-04-28T06:04:32Z</time>
      </trkpt>
      <trkpt lat="38.3198110" lon="-0.6907750">
        <ele>233.1</ele>
        <time>2018-04-28T06:04:33Z</time>
      </trkpt>
      <trkpt lat="38.3198240" lon="-0.6906760">
        <ele>232.8</ele>
        <time>2018-04-28T06:04:34Z</time>
      </trkpt>
      <trkpt lat="38.3198350" lon="-0.6905790">
        <ele>232.4</ele>
        <time>2018-04-28T06:04:35Z</time>
      </trkpt>
      <trkpt lat="38.3198470" lon="-0.6904840">
        <ele>232.0</ele>
        <time>2018-04-28T06:04:36Z</time>
      </trkpt>
      <trkpt lat="38.3198600" lon="-0.6903880">
        <ele>231.7</ele>
        <time>2018-04-28T06:04:37Z</time>
      </trkpt>
      <trkpt lat="38.3198730" lon="-0.6902920">
        <ele>231.3</ele>
        <time>2018-04-28T06:04:38Z</time>
      </trkpt>
      <trkpt lat="38.3198840" lon="-0.6901960">
        <ele>230.9</ele>
        <time>2018-04-28T06:04:39Z</time>
      </trkpt>
      <trkpt lat="38.3198950" lon="-0.6900980">
        <ele>230.6</ele>
        <time>2018-04-28T06:04:40Z</time>
      </trkpt>
      <trkpt lat="38.3199030" lon="-0.6900000">
        <ele>230.2</ele>
        <time>2018-04-28T06:04:41Z</time>
      </trkpt>
      <trkpt lat="38.3199110" lon="-0.6899010">
        <ele>229.9</ele>
        <time>2018-04-28T06:04:42Z</time>
      </trkpt>
      <trkpt lat="38.3199180" lon="-0.6898020">
        <ele>229.5</ele>
        <time>2018-04-28T06:04:43Z</time>
      </trkpt>
      <trkpt lat="38.3199260" lon="-0.6897050">
        <ele>229.2</ele>
        <time>2018-04-28T06:04:44Z</time>
      </trkpt>
      <trkpt lat="38.3199300" lon="-0.6896060">
        <ele>228.8</ele>
        <time>2018-04-28T06:04:45Z</time>
      </trkpt>
      <trkpt lat="38.3199360" lon="-0.6895110">
        <ele>228.5</ele>
        <time>2018-04-28T06:04:46Z</time>
      </trkpt>
      <trkpt lat="38.3199410" lon="-0.6894150">
        <ele>228.2</ele>
        <time>2018-04-28T06:04:47Z</time>
      </trkpt>
      <trkpt lat="38.3199450" lon="-0.6893210">
        <ele>227.9</ele>
        <time>2018-04-28T06:04:48Z</time>
      </trkpt>
      <trkpt lat="38.3199470" lon="-0.6892280">
        <ele>227.8</ele>
        <time>2018-04-28T06:04:49Z</time>
      </trkpt>
      <trkpt lat="38.3199520" lon="-0.6891390">
        <ele>227.6</ele>
        <time>2018-04-28T06:04:50Z</time>
      </trkpt>
      <trkpt lat="38.3199570" lon="-0.6890500">
        <ele>227.4</ele>
        <time>2018-04-28T06:04:51Z</time>
      </trkpt>
      <trkpt lat="38.3199600" lon="-0.6889630">
        <ele>227.2</ele>
        <time>2018-04-28T06:04:52Z</time>
      </trkpt>
      <trkpt lat="38.3199640" lon="-0.6888750">
        <ele>227.0</ele>
        <time>2018-04-28T06:04:53Z</time>
      </trkpt>
      <trkpt lat="38.3199680" lon="-0.6887880">
        <ele>226.7</ele>
        <time>2018-04-28T06:04:54Z</time>
      </trkpt>
      <trkpt lat="38.3199730" lon="-0.6886990">
        <ele>226.4</ele>
        <time>2018-04-28T06:04:55Z</time>
      </trkpt>
      <trkpt lat="38.3199770" lon="-0.6886090">
        <ele>226.1</ele>
        <time>2018-04-28T06:04:56Z</time>
      </trkpt>
      <trkpt lat="38.3199830" lon="-0.6885190">
        <ele>225.7</ele>
        <time>2018-04-28T06:04:57Z</time>
      </trkpt>
      <trkpt lat="38.3199870" lon="-0.6884290">
        <ele>225.4</ele>
        <time>2018-04-28T06:04:58Z</time>
      </trkpt>
      <trkpt lat="38.3199890" lon="-0.6883380">
        <ele>225.2</ele>
        <time>2018-04-28T06:04:59Z</time>
      </trkpt>
      <trkpt lat="38.3199850" lon="-0.6882480">
        <ele>224.9</ele>
        <time>2018-04-28T06:05:00Z</time>
      </trkpt>
      <trkpt lat="38.3199790" lon="-0.6881600">
        <ele>224.8</ele>
        <time>2018-04-28T06:05:01Z</time>
      </trkpt>
      <trkpt lat="38.3199710" lon="-0.6880730">
        <ele>224.6</ele>
        <time>2018-04-28T06:05:02Z</time>
      </trkpt>
      <trkpt lat="38.3199610" lon="-0.6879880">
        <ele>224.5</ele>
        <time>2018-04-28T06:05:03Z</time>
      </trkpt>
      <trkpt lat="38.3199550" lon="-0.6879020">
        <ele>224.5</ele>
        <time>2018-04-28T06:05:04Z</time>
      </trkpt>
      <trkpt lat="38.3199550" lon="-0.6878150">
        <ele>224.4</ele>
        <time>2018-04-28T06:05:05Z</time>
      </trkpt>
      <trkpt lat="38.3199590" lon="-0.6877270">
        <ele>224.3</ele>
        <time>2018-04-28T06:05:06Z</time>
      </trkpt>
      <trkpt lat="38.3199630" lon="-0.6876390">
        <ele>224.3</ele>
        <time>2018-04-28T06:05:07Z</time>
      </trkpt>
      <trkpt lat="38.3199720" lon="-0.6875510">
        <ele>224.2</ele>
        <time>2018-04-28T06:05:08Z</time>
      </trkpt>
      <trkpt lat="38.3199800" lon="-0.6874640">
        <ele>224.1</ele>
        <time>2018-04-28T06:05:09Z</time>
      </trkpt>
      <trkpt lat="38.3199880" lon="-0.6873760">
        <ele>224.1</ele>
        <time>2018-04-28T06:05:10Z</time>
      </trkpt>
      <trkpt lat="38.3199960" lon="-0.6872850">
        <ele>224.0</ele>
        <time>2018-04-28T06:05:11Z</time>
      </trkpt>
      <trkpt lat="38.3200020" lon="-0.6871900">
        <ele>223.9</ele>
        <time>2018-04-28T06:05:12Z</time>
      </trkpt>
      <trkpt lat="38.3200090" lon="-0.6870960">
        <ele>223.8</ele>
        <time>2018-04-28T06:05:13Z</time>
      </trkpt>
      <trkpt lat="38.3200170" lon="-0.6870010">
        <ele>223.8</ele>
        <time>2018-04-28T06:05:14Z</time>
      </trkpt>
      <trkpt lat="38.3200260" lon="-0.6869060">
        <ele>223.6</ele>
        <time>2018-04-28T06:05:15Z</time>
      </trkpt>
      <trkpt lat="38.3200360" lon="-0.6868110">
        <ele>223.5</ele>
        <time>2018-04-28T06:05:16Z</time>
      </trkpt>
      <trkpt lat="38.3200490" lon="-0.6867170">
        <ele>223.3</ele>
        <time>2018-04-28T06:05:17Z</time>
      </trkpt>
      <trkpt lat="38.3200640" lon="-0.6866230">
        <ele>223.1</ele>
        <time>2018-04-28T06:05:18Z</time>
      </trkpt>
      <trkpt lat="38.3200820" lon="-0.6865300">
        <ele>222.8</ele>
        <time>2018-04-28T06:05:19Z</time>
      </trkpt>
      <trkpt lat="38.3201000" lon="-0.6864370">
        <ele>222.5</ele>
        <time>2018-04-28T06:05:20Z</time>
      </trkpt>
      <trkpt lat="38.3201200" lon="-0.6863450">
        <ele>222.2</ele>
        <time>2018-04-28T06:05:21Z</time>
      </trkpt>
      <trkpt lat="38.3201420" lon="-0.6862530">
        <ele>221.9</ele>
        <time>2018-04-28T06:05:22Z</time>
      </trkpt>
      <trkpt lat="38.3201640" lon="-0.6861590">
        <ele>221.6</ele>
        <time>2018-04-28T06:05:23Z</time>
      </trkpt>
      <trkpt lat="38.3201850" lon="-0.6860630">
        <ele>221.4</ele>
        <time>2018-04-28T06:05:24Z</time>
      </trkpt>
      <trkpt lat="38.3202060" lon="-0.6859660">
        <ele>221.3</ele>
        <time>2018-04-28T06:05:25Z</time>
      </trkpt>
      <trkpt lat="38.3202240" lon="-0.6858670">
        <ele>221.1</ele>
        <time>2018-04-28T06:05:26Z</time>
      </trkpt>
      <trkpt lat="38.3202420" lon="-0.6857670">
        <ele>221.0</ele>
        <time>2018-04-28T06:05:27Z</time>
      </trkpt>
      <trkpt lat="38.3202590" lon="-0.6856650">
        <ele>220.9</ele>
        <time>2018-04-28T06:05:28Z</time>
      </trkpt>
      <trkpt lat="38.3202770" lon="-0.6855630">
        <ele>220.8</ele>
        <time>2018-04-28T06:05:29Z</time>
      </trkpt>
      <trkpt lat="38.3202970" lon="-0.6854600">
        <ele>220.7</ele>
        <time>2018-04-28T06:05:30Z</time>
      </trkpt>
      <trkpt lat="38.3203150" lon="-0.6853560">
        <ele>220.5</ele>
        <time>2018-04-28T06:05:31Z</time>
      </trkpt>
      <trkpt lat="38.3203330" lon="-0.6852520">
        <ele>220.2</ele>
        <time>2018-04-28T06:05:32Z</time>
      </trkpt>
      <trkpt lat="38.3203500" lon="-0.6851430">
        <ele>219.9</ele>
        <time>2018-04-28T06:05:33Z</time>
      </trkpt>
      <trkpt lat="38.3203670" lon="-0.6850330">
        <ele>219.6</ele>
        <time>2018-04-28T06:05:34Z</time>
      </trkpt>
      <trkpt lat="38.3203850" lon="-0.6849200">
        <ele>219.2</ele>
        <time>2018-04-28T06:05:35Z</time>
      </trkpt>
      <trkpt lat="38.3203990" lon="-0.6848030">
        <ele>218.9</ele>
        <time>2018-04-28T06:05:36Z</time>
      </trkpt>
      <trkpt lat="38.3204120" lon="-0.6846870">
        <ele>218.5</ele>
        <time>2018-04-28T06:05:37Z</time>
      </trkpt>
      <trkpt lat="38.3204220" lon="-0.6845720">
        <ele>218.1</ele>
        <time>2018-04-28T06:05:38Z</time>
      </trkpt>
      <trkpt lat="38.3204320" lon="-0.6844600">
        <ele>217.8</ele>
        <time>2018-04-28T06:05:39Z</time>
      </trkpt>
      <trkpt lat="38.3204440" lon="-0.6843490">
        <ele>217.5</ele>
        <time>2018-04-28T06:05:40Z</time>
      </trkpt>
      <trkpt lat="38.3204540" lon="-0.6842400">
        <ele>217.1</ele>
        <time>2018-04-28T06:05:41Z</time>
      </trkpt>
      <trkpt lat="38.3204650" lon="-0.6841330">
        <ele>216.8</ele>
        <time>2018-04-28T06:05:42Z</time>
      </trkpt>
      <trkpt lat="38.3204770" lon="-0.6840250">
        <ele>216.4</ele>
        <time>2018-04-28T06:05:43Z</time>
      </trkpt>
      <trkpt lat="38.3204920" lon="-0.6839210">
        <ele>216.0</ele>
        <time>2018-04-28T06:05:44Z</time>
      </trkpt>
      <trkpt lat="38.3205080" lon="-0.6838190">
        <ele>215.6</ele>
        <time>2018-04-28T06:05:45Z</time>
      </trkpt>
      <trkpt lat="38.3205210" lon="-0.6837160">
        <ele>215.1</ele>
        <time>2018-04-28T06:05:46Z</time>
      </trkpt>
      <trkpt lat="38.3205310" lon="-0.6836140">
        <ele>214.6</ele>
        <time>2018-04-28T06:05:47Z</time>
      </trkpt>
      <trkpt lat="38.3205400" lon="-0.6835130">
        <ele>214.2</ele>
        <time>2018-04-28T06:05:48Z</time>
      </trkpt>
      <trkpt lat="38.3205470" lon="-0.6834120">
        <ele>213.7</ele>
        <time>2018-04-28T06:05:49Z</time>
      </trkpt>
      <trkpt lat="38.3205620" lon="-0.6833120">
        <ele>213.3</ele>
        <time>2018-04-28T06:05:50Z</time>
      </trkpt>
      <trkpt lat="38.3205830" lon="-0.6832130">
        <ele>212.9</ele>
        <time>2018-04-28T06:05:51Z</time>
      </trkpt>
      <trkpt lat="38.3206170" lon="-0.6831190">
        <ele>212.6</ele>
        <time>2018-04-28T06:05:52Z</time>
      </trkpt>
      <trkpt lat="38.3206570" lon="-0.6830240">
        <ele>212.3</ele>
        <time>2018-04-28T06:05:53Z</time>
      </trkpt>
      <trkpt lat="38.3207020" lon="-0.6829290">
        <ele>212.1</ele>
        <time>2018-04-28T06:05:54Z</time>
      </trkpt>
      <trkpt lat="38.3207500" lon="-0.6828340">
        <ele>211.8</ele>
        <time>2018-04-28T06:05:55Z</time>
      </trkpt>
      <trkpt lat="38.3207990" lon="-0.6827390">
        <ele>211.5</ele>
        <time>2018-04-28T06:05:56Z</time>
      </trkpt>
      <trkpt lat="38.3208480" lon="-0.6826440">
        <ele>211.2</ele>
        <time>2018-04-28T06:05:57Z</time>
      </trkpt>
      <trkpt lat="38.3208980" lon="-0.6825540">
        <ele>210.9</ele>
        <time>2018-04-28T06:05:58Z</time>
      </trkpt>
      <trkpt lat="38.3209460" lon="-0.6824660">
        <ele>210.5</ele>
        <time>2018-04-28T06:05:59Z</time>
      </trkpt>
      <trkpt lat="38.3209930" lon="-0.6823800">
        <ele>210.2</ele>
        <time>2018-04-28T06:06:00Z</time>
      </trkpt>
      <trkpt lat="38.3210360" lon="-0.6822980">
        <ele>209.9</ele>
        <time>2018-04-28T06:06:01Z</time>
      </trkpt>
      <trkpt lat="38.3210780" lon="-0.6822190">
        <ele>209.7</ele>
        <time>2018-04-28T06:06:02Z</time>
      </trkpt>
      <trkpt lat="38.3211190" lon="-0.6821430">
        <ele>209.5</ele>
        <time>2018-04-28T06:06:03Z</time>
      </trkpt>
      <trkpt lat="38.3211610" lon="-0.6820730">
        <ele>209.3</ele>
        <time>2018-04-28T06:06:04Z</time>
      </trkpt>
      <trkpt lat="38.3212080" lon="-0.6820110">
        <ele>209.2</ele>
        <time>2018-04-28T06:06:05Z</time>
      </trkpt>
      <trkpt lat="38.3212590" lon="-0.6819610">
        <ele>209.3</ele>
        <time>2018-04-28T06:06:06Z</time>
      </trkpt>
      <trkpt lat="38.3213130" lon="-0.6819270">
        <ele>209.6</ele>
        <time>2018-04-28T06:06:07Z</time>
      </trkpt>
      <trkpt lat="38.3213700" lon="-0.6819270">
        <ele>209.9</ele>
        <time>2018-04-28T06:06:08Z</time>
      </trkpt>
      <trkpt lat="38.3214240" lon="-0.6819410">
        <ele>210.2</ele>
        <time>2018-04-28T06:06:09Z</time>
      </trkpt>
      <trkpt lat="38.3214770" lon="-0.6819610">
        <ele>210.4</ele>
        <time>2018-04-28T06:06:10Z</time>
      </trkpt>
      <trkpt lat="38.3215290" lon="-0.6819830">
        <ele>210.7</ele>
        <time>2018-04-28T06:06:11Z</time>
      </trkpt>
      <trkpt lat="38.3215800" lon="-0.6820060">
        <ele>210.9</ele>
        <time>2018-04-28T06:06:12Z</time>
      </trkpt>
      <trkpt lat="38.3216290" lon="-0.6820260">
        <ele>211.0</ele>
        <time>2018-04-28T06:06:13Z</time>
      </trkpt>
      <trkpt lat="38.3216740" lon="-0.6820460">
        <ele>211.2</ele>
        <time>2018-04-28T06:06:14Z</time>
      </trkpt>
      <trkpt lat="38.3217200" lon="-0.6820670">
        <ele>211.3</ele>
        <time>2018-04-28T06:06:15Z</time>
      </trkpt>
      <trkpt lat="38.3217650" lon="-0.6820910">
        <ele>211.4</ele>
        <time>2018-04-28T06:06:16Z</time>
      </trkpt>
      <trkpt lat="38.3218100" lon="-0.6821150">
        <ele>211.5</ele>
        <time>2018-04-28T06:06:17Z</time>
      </trkpt>
      <trkpt lat="38.3218550" lon="-0.6821370">
        <ele>211.5</ele>
        <time>2018-04-28T06:06:18Z</time>
      </trkpt>
      <trkpt lat="38.3218980" lon="-0.6821560">
        <ele>211.6</ele>
        <time>2018-04-28T06:06:19Z</time>
      </trkpt>
      <trkpt lat="38.3219410" lon="-0.6821750">
        <ele>211.6</ele>
        <time>2018-04-28T06:06:20Z</time>
      </trkpt>
      <trkpt lat="38.3219830" lon="-0.6821930">
        <ele>211.6</ele>
        <time>2018-04-28T06:06:21Z</time>
      </trkpt>
      <trkpt lat="38.3220250" lon="-0.6822110">
        <ele>211.6</ele>
        <time>2018-04-28T06:06:22Z</time>
      </trkpt>
      <trkpt lat="38.3220660" lon="-0.6822310">
        <ele>211.5</ele>
        <time>2018-04-28T06:06:23Z</time>
      </trkpt>
      <trkpt lat="38.3221050" lon="-0.6822500">
        <ele>211.5</ele>
        <time>2018-04-28T06:06:24Z</time>
      </trkpt>
      <trkpt lat="38.3221460" lon="-0.6822700">
        <ele>211.5</ele>
        <time>2018-04-28T06:06:25Z</time>
      </trkpt>
      <trkpt lat="38.3221890" lon="-0.6822900">
        <ele>211.4</ele>
        <time>2018-04-28T06:06:26Z</time>
      </trkpt>
      <trkpt lat="38.3222310" lon="-0.6823110">
        <ele>211.3</ele>
        <time>2018-04-28T06:06:27Z</time>
      </trkpt>
      <trkpt lat="38.3222770" lon="-0.6823350">
        <ele>211.3</ele>
        <time>2018-04-28T06:06:28Z</time>
      </trkpt>
      <trkpt lat="38.3223230" lon="-0.6823600">
        <ele>211.2</ele>
        <time>2018-04-28T06:06:29Z</time>
      </trkpt>
      <trkpt lat="38.3223680" lon="-0.6823850">
        <ele>211.1</ele>
        <time>2018-04-28T06:06:30Z</time>
      </trkpt>
      <trkpt lat="38.3224150" lon="-0.6824120">
        <ele>211.0</ele>
        <time>2018-04-28T06:06:31Z</time>
      </trkpt>
      <trkpt lat="38.3224630" lon="-0.6824410">
        <ele>211.1</ele>
        <time>2018-04-28T06:06:32Z</time>
      </trkpt>
      <trkpt lat="38.3225120" lon="-0.6824740">
        <ele>211.1</ele>
        <time>2018-04-28T06:06:33Z</time>
      </trkpt>
      <trkpt lat="38.3225620" lon="-0.6825100">
        <ele>211.2</ele>
        <time>2018-04-28T06:06:34Z</time>
      </trkpt>
      <trkpt lat="38.3226150" lon="-0.6825470">
        <ele>211.3</ele>
        <time>2018-04-28T06:06:35Z</time>
      </trkpt>
      <trkpt lat="38.3226680" lon="-0.6825880">
        <ele>211.4</ele>
        <time>2018-04-28T06:06:36Z</time>
      </trkpt>
      <trkpt lat="38.3227230" lon="-0.6826300">
        <ele>211.5</ele>
        <time>2018-04-28T06:06:37Z</time>
      </trkpt>
      <trkpt lat="38.3227810" lon="-0.6826720">
        <ele>211.6</ele>
        <time>2018-04-28T06:06:38Z</time>
      </trkpt>
      <trkpt lat="38.3228390" lon="-0.6827170">
        <ele>211.8</ele>
        <time>2018-04-28T06:06:39Z</time>
      </trkpt>
      <trkpt lat="38.3228970" lon="-0.6827620">
        <ele>212.0</ele>
        <time>2018-04-28T06:06:40Z</time>
      </trkpt>
      <trkpt lat="38.3229540" lon="-0.6828060">
        <ele>212.2</ele>
        <time>2018-04-28T06:06:41Z</time>
      </trkpt>
      <trkpt lat="38.3230110" lon="-0.6828480">
        <ele>212.5</ele>
        <time>2018-04-28T06:06:42Z</time>
      </trkpt>
      <trkpt lat="38.3230660" lon="-0.6828900">
        <ele>212.9</ele>
        <time>2018-04-28T06:06:43Z</time>
      </trkpt>
      <trkpt lat="38.3231200" lon="-0.6829310">
        <ele>213.3</ele>
        <time>2018-04-28T06:06:44Z</time>
      </trkpt>
      <trkpt lat="38.3231710" lon="-0.6829710">
        <ele>213.7</ele>
        <time>2018-04-28T06:06:45Z</time>
      </trkpt>
      <trkpt lat="38.3232220" lon="-0.6830090">
        <ele>214.2</ele>
        <time>2018-04-28T06:06:46Z</time>
      </trkpt>
      <trkpt lat="38.3232700" lon="-0.6830450">
        <ele>214.6</ele>
        <time>2018-04-28T06:06:47Z</time>
      </trkpt>
      <trkpt lat="38.3233140" lon="-0.6830810">
        <ele>215.1</ele>
        <time>2018-04-28T06:06:48Z</time>
      </trkpt>
      <trkpt lat="38.3233590" lon="-0.6831150">
        <ele>215.5</ele>
        <time>2018-04-28T06:06:49Z</time>
      </trkpt>
      <trkpt lat="38.3234030" lon="-0.6831480">
        <ele>216.0</ele>
        <time>2018-04-28T06:06:50Z</time>
      </trkpt>
      <trkpt lat="38.3234450" lon="-0.6831810">
        <ele>216.4</ele>
        <time>2018-04-28T06:06:51Z</time>
      </trkpt>
      <trkpt lat="38.3234850" lon="-0.6832120">
        <ele>216.9</ele>
        <time>2018-04-28T06:06:52Z</time>
      </trkpt>
      <trkpt lat="38.3235240" lon="-0.6832450">
        <ele>217.3</ele>
        <time>2018-04-28T06:06:53Z</time>
      </trkpt>
      <trkpt lat="38.3235650" lon="-0.6832760">
        <ele>217.8</ele>
        <time>2018-04-28T06:06:54Z</time>
      </trkpt>
      <trkpt lat="38.3236050" lon="-0.6833060">
        <ele>218.2</ele>
        <time>2018-04-28T06:06:55Z</time>
      </trkpt>
      <trkpt lat="38.3236450" lon="-0.6833360">
        <ele>218.6</ele>
        <time>2018-04-28T06:06:56Z</time>
      </trkpt>
      <trkpt lat="38.3236840" lon="-0.6833660">
        <ele>219.0</ele>
        <time>2018-04-28T06:06:57Z</time>
      </trkpt>
      <trkpt lat="38.3237250" lon="-0.6833970">
        <ele>219.4</ele>
        <time>2018-04-28T06:06:58Z</time>
      </trkpt>
      <trkpt lat="38.3237630" lon="-0.6834270">
        <ele>219.7</ele>
        <time>2018-04-28T06:06:59Z</time>
      </trkpt>
      <trkpt lat="38.3238000" lon="-0.6834560">
        <ele>220.1</ele>
        <time>2018-04-28T06:07:00Z</time>
      </trkpt>
      <trkpt lat="38.3238380" lon="-0.6834850">
        <ele>220.4</ele>
        <time>2018-04-28T06:07:01Z</time>
      </trkpt>
      <trkpt lat="38.3238760" lon="-0.6835140">
        <ele>220.7</ele>
        <time>2018-04-28T06:07:02Z</time>
      </trkpt>
      <trkpt lat="38.3239130" lon="-0.6835420">
        <ele>221.0</ele>
        <time>2018-04-28T06:07:03Z</time>
      </trkpt>
      <trkpt lat="38.3239500" lon="-0.6835690">
        <ele>221.3</ele>
        <time>2018-04-28T06:07:04Z</time>
      </trkpt>
      <trkpt lat="38.3239860" lon="-0.6835960">
        <ele>221.6</ele>
        <time>2018-04-28T06:07:05Z</time>
      </trkpt>
      <trkpt lat="38.3240230" lon="-0.6836230">
        <ele>221.9</ele>
        <time>2018-04-28T06:07:06Z</time>
      </trkpt>
      <trkpt lat="38.3240600" lon="-0.6836520">
        <ele>222.2</ele>
        <time>2018-04-28T06:07:07Z</time>
      </trkpt>
      <trkpt lat="38.3240970" lon="-0.6836800">
        <ele>222.5</ele>
        <time>2018-04-28T06:07:08Z</time>
      </trkpt>
      <trkpt lat="38.3241330" lon="-0.6837090">
        <ele>222.8</ele>
        <time>2018-04-28T06:07:09Z</time>
      </trkpt>
      <trkpt lat="38.3241690" lon="-0.6837380">
        <ele>223.0</ele>
        <time>2018-04-28T06:07:10Z</time>
      </trkpt>
      <trkpt lat="38.3242050" lon="-0.6837670">
        <ele>223.3</ele>
        <time>2018-04-28T06:07:11Z</time>
      </trkpt>
      <trkpt lat="38.3242400" lon="-0.6837950">
        <ele>223.6</ele>
        <time>2018-04-28T06:07:12Z</time>
      </trkpt>
      <trkpt lat="38.3242750" lon="-0.6838230">
        <ele>223.8</ele>
        <time>2018-04-28T06:07:13Z</time>
      </trkpt>
      <trkpt lat="38.3243120" lon="-0.6838510">
        <ele>224.1</ele>
        <time>2018-04-28T06:07:14Z</time>
      </trkpt>
      <trkpt lat="38.3243470" lon="-0.6838800">
        <ele>224.3</ele>
        <time>2018-04-28T06:07:15Z</time>
      </trkpt>
      <trkpt lat="38.3243820" lon="-0.6839100">
        <ele>224.6</ele>
        <time>2018-04-28T06:07:16Z</time>
      </trkpt>
      <trkpt lat="38.3244170" lon="-0.6839390">
        <ele>224.8</ele>
        <time>2018-04-28T06:07:17Z</time>
      </trkpt>
      <trkpt lat="38.3244530" lon="-0.6839680">
        <ele>225.1</ele>
        <time>2018-04-28T06:07:18Z</time>
      </trkpt>
      <trkpt lat="38.3244890" lon="-0.6839980">
        <ele>225.3</ele>
        <time>2018-04-28T06:07:19Z</time>
      </trkpt>
      <trkpt lat="38.3245250" lon="-0.6840270">
        <ele>225.6</ele>
        <time>2018-04-28T06:07:20Z</time>
      </trkpt>
      <trkpt lat="38.3245610" lon="-0.6840560">
        <ele>225.8</ele>
        <time>2018-04-28T06:07:21Z</time>
      </trkpt>
      <trkpt lat="38.3245980" lon="-0.6840850">
        <ele>226.1</ele>
        <time>2018-04-28T06:07:22Z</time>
      </trkpt>
      <trkpt lat="38.3246330" lon="-0.6841130">
        <ele>226.3</ele>
        <time>2018-04-28T06:07:23Z</time>
      </trkpt>
      <trkpt lat="38.3246680" lon="-0.6841400">
        <ele>226.5</ele>
        <time>2018-04-28T06:07:24Z</time>
      </trkpt>
      <trkpt lat="38.3247020" lon="-0.6841680">
        <ele>226.7</ele>
        <time>2018-04-28T06:07:25Z</time>
      </trkpt>
      <trkpt lat="38.3247370" lon="-0.6841970">
        <ele>226.9</ele>
        <time>2018-04-28T06:07:26Z</time>
      </trkpt>
      <trkpt lat="38.3247720" lon="-0.6842260">
        <ele>227.2</ele>
        <time>2018-04-28T06:07:27Z</time>
      </trkpt>
      <trkpt lat="38.3248080" lon="-0.6842550">
        <ele>227.4</ele>
        <time>2018-04-28T06:07:28Z</time>
      </trkpt>
      <trkpt lat="38.3248440" lon="-0.6842840">
        <ele>227.6</ele>
        <time>2018-04-28T06:07:29Z</time>
      </trkpt>
      <trkpt lat="38.3248810" lon="-0.6843110">
        <ele>227.8</ele>
        <time>2018-04-28T06:07:30Z</time>
      </trkpt>
      <trkpt lat="38.3249180" lon="-0.6843390">
        <ele>228.1</ele>
        <time>2018-04-28T06:07:31Z</time>
      </trkpt>
      <trkpt lat="38.3249540" lon="-0.6843670">
        <ele>228.3</ele>
        <time>2018-04-28T06:07:32Z</time>
      </trkpt>
      <trkpt lat="38.3249900" lon="-0.6843960">
        <ele>228.5</ele>
        <time>2018-04-28T06:07:33Z</time>
      </trkpt>
      <trkpt lat="38.3250270" lon="-0.6844230">
        <ele>228.7</ele>
        <time>2018-04-28T06:07:34Z</time>
      </trkpt>
      <trkpt lat="38.3250640" lon="-0.6844510">
        <ele>228.9</ele>
        <time>2018-04-28T06:07:35Z</time>
      </trkpt>
      <trkpt lat="38.3251000" lon="-0.6844780">
        <ele>229.2</ele>
        <time>2018-04-28T06:07:36Z</time>
      </trkpt>
      <trkpt lat="38.3251370" lon="-0.6845060">
        <ele>229.4</ele>
        <time>2018-04-28T06:07:37Z</time>
      </trkpt>
      <trkpt lat="38.3251730" lon="-0.6845340">
        <ele>229.6</ele>
        <time>2018-04-28T06:07:38Z</time>
      </trkpt>
      <trkpt lat="38.3252110" lon="-0.6845650">
        <ele>229.9</ele>
        <time>2018-04-28T06:07:39Z</time>
      </trkpt>
      <trkpt lat="38.3252470" lon="-0.6845960">
        <ele>230.1</ele>
        <time>2018-04-28T06:07:40Z</time>
      </trkpt>
      <trkpt lat="38.3252840" lon="-0.6846270">
        <ele>230.4</ele>
        <time>2018-04-28T06:07:41Z</time>
      </trkpt>
      <trkpt lat="38.3253200" lon="-0.6846560">
        <ele>230.6</ele>
        <time>2018-04-28T06:07:42Z</time>
      </trkpt>
      <trkpt lat="38.3253590" lon="-0.6846870">
        <ele>230.9</ele>
        <time>2018-04-28T06:07:43Z</time>
      </trkpt>
      <trkpt lat="38.3253990" lon="-0.6847150">
        <ele>231.1</ele>
        <time>2018-04-28T06:07:44Z</time>
      </trkpt>
      <trkpt lat="38.3254390" lon="-0.6847430">
        <ele>231.4</ele>
        <time>2018-04-28T06:07:45Z</time>
      </trkpt>
      <trkpt lat="38.3254790" lon="-0.6847720">
        <ele>231.7</ele>
        <time>2018-04-28T06:07:46Z</time>
      </trkpt>
      <trkpt lat="38.3255180" lon="-0.6848020">
        <ele>232.0</ele>
        <time>2018-04-28T06:07:47Z</time>
      </trkpt>
      <trkpt lat="38.3255580" lon="-0.6848310">
        <ele>232.3</ele>
        <time>2018-04-28T06:07:48Z</time>
      </trkpt>
      <trkpt lat="38.3255970" lon="-0.6848600">
        <ele>232.6</ele>
        <time>2018-04-28T06:07:49Z</time>
      </trkpt>
      <trkpt lat="38.3256370" lon="-0.6848900">
        <ele>232.9</ele>
        <time>2018-04-28T06:07:50Z</time>
      </trkpt>
      <trkpt lat="38.3256750" lon="-0.6849210">
        <ele>233.3</ele>
        <time>2018-04-28T06:07:51Z</time>
      </trkpt>
      <trkpt lat="38.3257130" lon="-0.6849510">
        <ele>233.6</ele>
        <time>2018-04-28T06:07:52Z</time>
      </trkpt>
      <trkpt lat="38.3257490" lon="-0.6849790">
        <ele>234.0</ele>
        <time>2018-04-28T06:07:53Z</time>
      </trkpt>
      <trkpt lat="38.3257850" lon="-0.6850060">
        <ele>234.4</ele>
        <time>2018-04-28T06:07:54Z</time>
      </trkpt>
      <trkpt lat="38.3258220" lon="-0.6850320">
        <ele>234.7</ele>
        <time>2018-04-28T06:07:55Z</time>
      </trkpt>
      <trkpt lat="38.3258590" lon="-0.6850600">
        <ele>235.1</ele>
        <time>2018-04-28T06:07:56Z</time>
      </trkpt>
      <trkpt lat="38.3258960" lon="-0.6850870">
        <ele>235.5</ele>
        <time>2018-04-28T06:07:57Z</time>
      </trkpt>
      <trkpt lat="38.3259330" lon="-0.6851130">
        <ele>236.0</ele>
        <time>2018-04-28T06:07:58Z</time>
      </trkpt>
      <trkpt lat="38.3259680" lon="-0.6851410">
        <ele>236.4</ele>
        <time>2018-04-28T06:07:59Z</time>
      </trkpt>
      <trkpt lat="38.3260030" lon="-0.6851690">
        <ele>236.8</ele>
        <time>2018-04-28T06:08:00Z</time>
      </trkpt>
      <trkpt lat="38.3260370" lon="-0.6851980">
        <ele>237.2</ele>
        <time>2018-04-28T06:08:01Z</time>
      </trkpt>
      <trkpt lat="38.3260700" lon="-0.6852240">
        <ele>237.5</ele>
        <time>2018-04-28T06:08:02Z</time>
      </trkpt>
      <trkpt lat="38.3261060" lon="-0.6852510">
        <ele>237.9</ele>
        <time>2018-04-28T06:08:03Z</time>
      </trkpt>
      <trkpt lat="38.3261420" lon="-0.6852780">
        <ele>238.3</ele>
        <time>2018-04-28T06:08:04Z</time>
      </trkpt>
      <trkpt lat="38.3261780" lon="-0.6853040">
        <ele>238.6</ele>
        <time>2018-04-28T06:08:05Z</time>
      </trkpt>
      <trkpt lat="38.3262120" lon="-0.6853300">
        <ele>238.9</ele>
        <time>2018-04-28T06:08:06Z</time>
      </trkpt>
      <trkpt lat="38.3262470" lon="-0.6853550">
        <ele>239.2</ele>
        <time>2018-04-28T06:08:07Z</time>
      </trkpt>
      <trkpt lat="38.3262800" lon="-0.6853820">
        <ele>239.5</ele>
        <time>2018-04-28T06:08:08Z</time>
      </trkpt>
      <trkpt lat="38.3263140" lon="-0.6854100">
        <ele>239.8</ele>
        <time>2018-04-28T06:08:09Z</time>
      </trkpt>
      <trkpt lat="38.3263480" lon="-0.6854370">
        <ele>240.1</ele>
        <time>2018-04-28T06:08:10Z</time>
      </trkpt>
      <trkpt lat="38.3263810" lon="-0.6854630">
        <ele>240.3</ele>
        <time>2018-04-28T06:08:11Z</time>
      </trkpt>
      <trkpt lat="38.3264160" lon="-0.6854890">
        <ele>240.6</ele>
        <time>2018-04-28T06:08:12Z</time>
      </trkpt>
      <trkpt lat="38.3264490" lon="-0.6855150">
        <ele>240.8</ele>
        <time>2018-04-28T06:08:13Z</time>
      </trkpt>
      <trkpt lat="38.3264840" lon="-0.6855420">
        <ele>241.1</ele>
        <time>2018-04-28T06:08:14Z</time>
      </trkpt>
      <trkpt lat="38.3265190" lon="-0.6855680">
        <ele>241.3</ele>
        <time>2018-04-28T06:08:15Z</time>
      </trkpt>
      <trkpt lat="38.3265510" lon="-0.6855940">
        <ele>241.5</ele>
        <time>2018-04-28T06:08:16Z</time>
      </trkpt>
      <trkpt lat="38.3265840" lon="-0.6856200">
        <ele>241.8</ele>
        <time>2018-04-28T06:08:17Z</time>
      </trkpt>
      <trkpt lat="38.3266180" lon="-0.6856450">
        <ele>242.0</ele>
        <time>2018-04-28T06:08:18Z</time>
      </trkpt>
      <trkpt lat="38.3266530" lon="-0.6856710">
        <ele>242.2</ele>
        <time>2018-04-28T06:08:19Z</time>
      </trkpt>
      <trkpt lat="38.3266880" lon="-0.6856960">
        <ele>242.4</ele>
        <time>2018-04-28T06:08:20Z</time>
      </trkpt>
      <trkpt lat="38.3267220" lon="-0.6857220">
        <ele>242.6</ele>
        <time>2018-04-28T06:08:21Z</time>
      </trkpt>
      <trkpt lat="38.3267570" lon="-0.6857490">
        <ele>242.9</ele>
        <time>2018-04-28T06:08:22Z</time>
      </trkpt>
      <trkpt lat="38.3267920" lon="-0.6857760">
        <ele>243.1</ele>
        <time>2018-04-28T06:08:23Z</time>
      </trkpt>
      <trkpt lat="38.3268270" lon="-0.6858040">
        <ele>243.3</ele>
        <time>2018-04-28T06:08:24Z</time>
      </trkpt>
      <trkpt lat="38.3268620" lon="-0.6858350">
        <ele>243.5</ele>
        <time>2018-04-28T06:08:25Z</time>
      </trkpt>
      <trkpt lat="38.3268970" lon="-0.6858600">
        <ele>243.7</ele>
        <time>2018-04-28T06:08:26Z</time>
      </trkpt>
      <trkpt lat="38.3269340" lon="-0.6858860">
        <ele>243.9</ele>
        <time>2018-04-28T06:08:27Z</time>
      </trkpt>
      <trkpt lat="38.3269690" lon="-0.6859120">
        <ele>244.0</ele>
        <time>2018-04-28T06:08:28Z</time>
      </trkpt>
      <trkpt lat="38.3270060" lon="-0.6859380">
        <ele>244.2</ele>
        <time>2018-04-28T06:08:29Z</time>
      </trkpt>
      <trkpt lat="38.3270420" lon="-0.6859650">
        <ele>244.4</ele>
        <time>2018-04-28T06:08:30Z</time>
      </trkpt>
      <trkpt lat="38.3270760" lon="-0.6859940">
        <ele>244.6</ele>
        <time>2018-04-28T06:08:31Z</time>
      </trkpt>
      <trkpt lat="38.3271120" lon="-0.6860210">
        <ele>244.8</ele>
        <time>2018-04-28T06:08:32Z</time>
      </trkpt>
      <trkpt lat="38.3271490" lon="-0.6860480">
        <ele>245.0</ele>
        <time>2018-04-28T06:08:33Z</time>
      </trkpt>
      <trkpt lat="38.3271850" lon="-0.6860740">
        <ele>245.3</ele>
        <time>2018-04-28T06:08:34Z</time>
      </trkpt>
      <trkpt lat="38.3272210" lon="-0.6861000">
        <ele>245.5</ele>
        <time>2018-04-28T06:08:35Z</time>
      </trkpt>
      <trkpt lat="38.3272570" lon="-0.6861270">
        <ele>245.8</ele>
        <time>2018-04-28T06:08:36Z</time>
      </trkpt>
      <trkpt lat="38.3272940" lon="-0.6861550">
        <ele>246.1</ele>
        <time>2018-04-28T06:08:37Z</time>
      </trkpt>
      <trkpt lat="38.3273310" lon="-0.6861820">
        <ele>246.4</ele>
        <time>2018-04-28T06:08:38Z</time>
      </trkpt>
      <trkpt lat="38.3273680" lon="-0.6862090">
        <ele>246.7</ele>
        <time>2018-04-28T06:08:39Z</time>
      </trkpt>
      <trkpt lat="38.3274040" lon="-0.6862370">
        <ele>247.1</ele>
        <time>2018-04-28T06:08:40Z</time>
      </trkpt>
      <trkpt lat="38.3274420" lon="-0.6862650">
        <ele>247.4</ele>
        <time>2018-04-28T06:08:41Z</time>
      </trkpt>
      <trkpt lat="38.3274790" lon="-0.6862930">
        <ele>247.7</ele>
        <time>2018-04-28T06:08:42Z</time>
      </trkpt>
      <trkpt lat="38.3275170" lon="-0.6863220">
        <ele>248.1</ele>
        <time>2018-04-28T06:08:43Z</time>
      </trkpt>
      <trkpt lat="38.3275560" lon="-0.6863510">
        <ele>248.4</ele>
        <time>2018-04-28T06:08:44Z</time>
      </trkpt>
      <trkpt lat="38.3275960" lon="-0.6863800">
        <ele>248.8</ele>
        <time>2018-04-28T06:08:45Z</time>
      </trkpt>
      <trkpt lat="38.3276350" lon="-0.6864100">
        <ele>249.1</ele>
        <time>2018-04-28T06:08:46Z</time>
      </trkpt>
      <trkpt lat="38.3276740" lon="-0.6864390">
        <ele>249.5</ele>
        <time>2018-04-28T06:08:47Z</time>
      </trkpt>
      <trkpt lat="38.3277130" lon="-0.6864690">
        <ele>249.8</ele>
        <time>2018-04-28T06:08:48Z</time>
      </trkpt>
      <trkpt lat="38.3277520" lon="-0.6864990">
        <ele>250.1</ele>
        <time>2018-04-28T06:08:49Z</time>
      </trkpt>
      <trkpt lat="38.3277910" lon="-0.6865290">
        <ele>250.4</ele>
        <time>2018-04-28T06:08:50Z</time>
      </trkpt>
      <trkpt lat="38.3278310" lon="-0.6865600">
        <ele>250.7</ele>
        <time>2018-04-28T06:08:51Z</time>
      </trkpt>
      <trkpt lat="38.3278700" lon="-0.6865890">
        <ele>251.0</ele>
        <time>2018-04-28T06:08:52Z</time>
      </trkpt>
      <trkpt lat="38.3279100" lon="-0.6866190">
        <ele>251.3</ele>
        <time>2018-04-28T06:08:53Z</time>
      </trkpt>
      <trkpt lat="38.3279490" lon="-0.6866480">
        <ele>251.6</ele>
        <time>2018-04-28T06:08:54Z</time>
      </trkpt>
      <trkpt lat="38.3279870" lon="-0.6866780">
        <ele>251.9</ele>
        <time>2018-04-28T06:08:55Z</time>
      </trkpt>
      <trkpt lat="38.3280250" lon="-0.6867050">
        <ele>252.1</ele>
        <time>2018-04-28T06:08:56Z</time>
      </trkpt>
      <trkpt lat="38.3280630" lon="-0.6867320">
        <ele>252.4</ele>
        <time>2018-04-28T06:08:57Z</time>
      </trkpt>
      <trkpt lat="38.3281000" lon="-0.6867590">
        <ele>252.6</ele>
        <time>2018-04-28T06:08:58Z</time>
      </trkpt>
      <trkpt lat="38.3281360" lon="-0.6867860">
        <ele>252.8</ele>
        <time>2018-04-28T06:08:59Z</time>
      </trkpt>
      <trkpt lat="38.3281730" lon="-0.6868130">
        <ele>253.0</ele>
        <time>2018-04-28T06:09:00Z</time>
      </trkpt>
      <trkpt lat="38.3282090" lon="-0.6868410">
        <ele>253.1</ele>
        <time>2018-04-28T06:09:01Z</time>
      </trkpt>
      <trkpt lat="38.3282450" lon="-0.6868690">
        <ele>253.3</ele>
        <time>2018-04-28T06:09:02Z</time>
      </trkpt>
      <trkpt lat="38.3282820" lon="-0.6868990">
        <ele>253.5</ele>
        <time>2018-04-28T06:09:03Z</time>
      </trkpt>
      <trkpt lat="38.3283190" lon="-0.6869280">
        <ele>253.6</ele>
        <time>2018-04-28T06:09:04Z</time>
      </trkpt>
      <trkpt lat="38.3283570" lon="-0.6869590">
        <ele>253.8</ele>
        <time>2018-04-28T06:09:05Z</time>
      </trkpt>
      <trkpt lat="38.3283950" lon="-0.6869910">
        <ele>254.0</ele>
        <time>2018-04-28T06:09:06Z</time>
      </trkpt>
      <trkpt lat="38.3284360" lon="-0.6870240">
        <ele>254.2</ele>
        <time>2018-04-28T06:09:07Z</time>
      </trkpt>
      <trkpt lat="38.3284750" lon="-0.6870540">
        <ele>254.4</ele>
        <time>2018-04-28T06:09:08Z</time>
      </trkpt>
      <trkpt lat="38.3285150" lon="-0.6870870">
        <ele>254.6</ele>
        <time>2018-04-28T06:09:09Z</time>
      </trkpt>
      <trkpt lat="38.3285560" lon="-0.6871210">
        <ele>254.9</ele>
        <time>2018-04-28T06:09:10Z</time>
      </trkpt>
      <trkpt lat="38.3285980" lon="-0.6871530">
        <ele>255.2</ele>
        <time>2018-04-28T06:09:11Z</time>
      </trkpt>
      <trkpt lat="38.3286410" lon="-0.6871870">
        <ele>255.4</ele>
        <time>2018-04-28T06:09:12Z</time>
      </trkpt>
      <trkpt lat="38.3286830" lon="-0.6872200">
        <ele>255.7</ele>
        <time>2018-04-28T06:09:13Z</time>
      </trkpt>
      <trkpt lat="38.3287270" lon="-0.6872540">
        <ele>256.0</ele>
        <time>2018-04-28T06:09:14Z</time>
      </trkpt>
      <trkpt lat="38.3287710" lon="-0.6872870">
        <ele>256.4</ele>
        <time>2018-04-28T06:09:15Z</time>
      </trkpt>
      <trkpt lat="38.3288140" lon="-0.6873190">
        <ele>256.7</ele>
        <time>2018-04-28T06:09:16Z</time>
      </trkpt>
      <trkpt lat="38.3288570" lon="-0.6873510">
        <ele>257.0</ele>
        <time>2018-04-28T06:09:17Z</time>
      </trkpt>
      <trkpt lat="38.3289000" lon="-0.6873820">
        <ele>257.3</ele>
        <time>2018-04-28T06:09:18Z</time>
      </trkpt>
      <trkpt lat="38.3289410" lon="-0.6874140">
        <ele>257.6</ele>
        <time>2018-04-28T06:09:19Z</time>
      </trkpt>
      <trkpt lat="38.3289830" lon="-0.6874440">
        <ele>257.9</ele>
        <time>2018-04-28T06:09:20Z</time>
      </trkpt>
      <trkpt lat="38.3290230" lon="-0.6874730">
        <ele>258.2</ele>
        <time>2018-04-28T06:09:21Z</time>
      </trkpt>
      <trkpt lat="38.3290600" lon="-0.6875030">
        <ele>258.5</ele>
        <time>2018-04-28T06:09:22Z</time>
      </trkpt>
      <trkpt lat="38.3290980" lon="-0.6875320">
        <ele>258.7</ele>
        <time>2018-04-28T06:09:23Z</time>
      </trkpt>
      <trkpt lat="38.3291340" lon="-0.6875590">
        <ele>259.0</ele>
        <time>2018-04-28T06:09:24Z</time>
      </trkpt>
      <trkpt lat="38.3291700" lon="-0.6875850">
        <ele>259.2</ele>
        <time>2018-04-28T06:09:25Z</time>
      </trkpt>
      <trkpt lat="38.3292050" lon="-0.6876120">
        <ele>259.4</ele>
        <time>2018-04-28T06:09:26Z</time>
      </trkpt>
      <trkpt lat="38.3292410" lon="-0.6876400">
        <ele>259.6</ele>
        <time>2018-04-28T06:09:27Z</time>
      </trkpt>
      <trkpt lat="38.3292760" lon="-0.6876670">
        <ele>259.8</ele>
        <time>2018-04-28T06:09:28Z</time>
      </trkpt>
      <trkpt lat="38.3293120" lon="-0.6876940">
        <ele>260.0</ele>
        <time>2018-04-28T06:09:29Z</time>
      </trkpt>
      <trkpt lat="38.3293490" lon="-0.6877210">
        <ele>260.2</ele>
        <time>2018-04-28T06:09:30Z</time>
      </trkpt>
      <trkpt lat="38.3293860" lon="-0.6877500">
        <ele>260.5</ele>
        <time>2018-04-28T06:09:31Z</time>
      </trkpt>
      <trkpt lat="38.3294210" lon="-0.6877790">
        <ele>260.7</ele>
        <time>2018-04-28T06:09:32Z</time>
      </trkpt>
      <trkpt lat="38.3294580" lon="-0.6878080">
        <ele>260.9</ele>
        <time>2018-04-28T06:09:33Z</time>
      </trkpt>
      <trkpt lat="38.3294940" lon="-0.6878350">
        <ele>261.2</ele>
        <time>2018-04-28T06:09:34Z</time>
      </trkpt>
      <trkpt lat="38.3295320" lon="-0.6878640">
        <ele>261.4</ele>
        <time>2018-04-28T06:09:35Z</time>
      </trkpt>
      <trkpt lat="38.3295690" lon="-0.6878940">
        <ele>261.7</ele>
        <time>2018-04-28T06:09:36Z</time>
      </trkpt>
      <trkpt lat="38.3296080" lon="-0.6879250">
        <ele>262.0</ele>
        <time>2018-04-28T06:09:37Z</time>
      </trkpt>
      <trkpt lat="38.3296490" lon="-0.6879570">
        <ele>262.2</ele>
        <time>2018-04-28T06:09:38Z</time>
      </trkpt>
      <trkpt lat="38.3296910" lon="-0.6879890">
        <ele>262.5</ele>
        <time>2018-04-28T06:09:39Z</time>
      </trkpt>
      <trkpt lat="38.3297320" lon="-0.6880220">
        <ele>262.7</ele>
        <time>2018-04-28T06:09:40Z</time>
      </trkpt>
      <trkpt lat="38.3297720" lon="-0.6880580">
        <ele>262.9</ele>
        <time>2018-04-28T06:09:41Z</time>
      </trkpt>
      <trkpt lat="38.3298120" lon="-0.6880960">
        <ele>263.1</ele>
        <time>2018-04-28T06:09:42Z</time>
      </trkpt>
      <trkpt lat="38.3298510" lon="-0.6881370">
        <ele>263.3</ele>
        <time>2018-04-28T06:09:43Z</time>
      </trkpt>
      <trkpt lat="38.3298910" lon="-0.6881790">
        <ele>263.5</ele>
        <time>2018-04-28T06:09:44Z</time>
      </trkpt>
      <trkpt lat="38.3299290" lon="-0.6882220">
        <ele>263.6</ele>
        <time>2018-04-28T06:09:45Z</time>
      </trkpt>
      <trkpt lat="38.3299660" lon="-0.6882690">
        <ele>263.8</ele>
        <time>2018-04-28T06:09:46Z</time>
      </trkpt>
      <trkpt lat="38.3300020" lon="-0.6883150">
        <ele>264.1</ele>
        <time>2018-04-28T06:09:47Z</time>
      </trkpt>
      <trkpt lat="38.3300350" lon="-0.6883630">
        <ele>264.3</ele>
        <time>2018-04-28T06:09:48Z</time>
      </trkpt>
      <trkpt lat="38.3300690" lon="-0.6884100">
        <ele>264.6</ele>
        <time>2018-04-28T06:09:49Z</time>
      </trkpt>
      <trkpt lat="38.3301030" lon="-0.6884560">
        <ele>264.8</ele>
        <time>2018-04-28T06:09:50Z</time>
      </trkpt>
      <trkpt lat="38.3301370" lon="-0.6885020">
        <ele>265.1</ele>
        <time>2018-04-28T06:09:51Z</time>
      </trkpt>
      <trkpt lat="38.3301710" lon="-0.6885470">
        <ele>265.3</ele>
        <time>2018-04-28T06:09:52Z</time>
      </trkpt>
      <trkpt lat="38.3302030" lon="-0.6885930">
        <ele>265.6</ele>
        <time>2018-04-28T06:09:53Z</time>
      </trkpt>
      <trkpt lat="38.3302340" lon="-0.6886380">
        <ele>265.8</ele>
        <time>2018-04-28T06:09:54Z</time>
      </trkpt>
      <trkpt lat="38.3302640" lon="-0.6886840">
        <ele>266.0</ele>
        <time>2018-04-28T06:09:55Z</time>
      </trkpt>
      <trkpt lat="38.3302950" lon="-0.6887310">
        <ele>266.2</ele>
        <time>2018-04-28T06:09:56Z</time>
      </trkpt>
      <trkpt lat="38.3303260" lon="-0.6887780">
        <ele>266.3</ele>
        <time>2018-04-28T06:09:57Z</time>
      </trkpt>
      <trkpt lat="38.3303560" lon="-0.6888260">
        <ele>266.5</ele>
        <time>2018-04-28T06:09:58Z</time>
      </trkpt>
      <trkpt lat="38.3303850" lon="-0.6888750">
        <ele>266.6</ele>
        <time>2018-04-28T06:09:59Z</time>
      </trkpt>
      <trkpt lat="38.3304130" lon="-0.6889250">
        <ele>266.8</ele>
        <time>2018-04-28T06:10:00Z</time>
      </trkpt>
      <trkpt lat="38.3304400" lon="-0.6889770">
        <ele>266.9</ele>
        <time>2018-04-28T06:10:01Z</time>
      </trkpt>
      <trkpt lat="38.3304650" lon="-0.6890310">
        <ele>267.0</ele>
        <time>2018-04-28T06:10:02Z</time>
      </trkpt>
      <trkpt lat="38.3304890" lon="-0.6890860">
        <ele>267.0</ele>
        <time>2018-04-28T06:10:03Z</time>
      </trkpt>
      <trkpt lat="38.3305120" lon="-0.6891420">
        <ele>266.9</ele>
        <time>2018-04-28T06:10:04Z</time>
      </trkpt>
      <trkpt lat="38.3305350" lon="-0.6892000">
        <ele>266.6</ele>
        <time>2018-04-28T06:10:05Z</time>
      </trkpt>
      <trkpt lat="38.3305570" lon="-0.6892580">
        <ele>266.3</ele>
        <time>2018-04-28T06:10:06Z</time>
      </trkpt>
      <trkpt lat="38.3305780" lon="-0.6893160">
        <ele>266.1</ele>
        <time>2018-04-28T06:10:07Z</time>
      </trkpt>
      <trkpt lat="38.3305980" lon="-0.6893760">
        <ele>265.8</ele>
        <time>2018-04-28T06:10:08Z</time>
      </trkpt>
      <trkpt lat="38.3306170" lon="-0.6894350">
        <ele>265.5</ele>
        <time>2018-04-28T06:10:09Z</time>
      </trkpt>
      <trkpt lat="38.3306380" lon="-0.6894920">
        <ele>265.3</ele>
        <time>2018-04-28T06:10:10Z</time>
      </trkpt>
      <trkpt lat="38.3306560" lon="-0.6895490">
        <ele>265.0</ele>
        <time>2018-04-28T06:10:11Z</time>
      </trkpt>
      <trkpt lat="38.3306740" lon="-0.6896070">
        <ele>264.6</ele>
        <time>2018-04-28T06:10:12Z</time>
      </trkpt>
      <trkpt lat="38.3306940" lon="-0.6896630">
        <ele>264.3</ele>
        <time>2018-04-28T06:10:13Z</time>
      </trkpt>
      <trkpt lat="38.3307130" lon="-0.6897160">
        <ele>264.0</ele>
        <time>2018-04-28T06:10:14Z</time>
      </trkpt>
      <trkpt lat="38.3307340" lon="-0.6897690">
        <ele>263.6</ele>
        <time>2018-04-28T06:10:15Z</time>
      </trkpt>
      <trkpt lat="38.3307610" lon="-0.6898160">
        <ele>263.3</ele>
        <time>2018-04-28T06:10:16Z</time>
      </trkpt>
      <trkpt lat="38.3307910" lon="-0.6898580">
        <ele>262.9</ele>
        <time>2018-04-28T06:10:17Z</time>
      </trkpt>
      <trkpt lat="38.3308260" lon="-0.6898900">
        <ele>262.6</ele>
        <time>2018-04-28T06:10:18Z</time>
      </trkpt>
      <trkpt lat="38.3308690" lon="-0.6899080">
        <ele>262.2</ele>
        <time>2018-04-28T06:10:19Z</time>
      </trkpt>
      <trkpt lat="38.3309010" lon="-0.6899040">
        <ele>262.2</ele>
        <time>2018-04-28T06:10:20Z</time>
      </trkpt>
      <trkpt lat="38.3309380" lon="-0.6898840">
        <ele>262.3</ele>
        <time>2018-04-28T06:10:21Z</time>
      </trkpt>
      <trkpt lat="38.3309790" lon="-0.6898480">
        <ele>262.5</ele>
        <time>2018-04-28T06:10:22Z</time>
      </trkpt>
      <trkpt lat="38.3310210" lon="-0.6898240">
        <ele>262.7</ele>
        <time>2018-04-28T06:10:23Z</time>
      </trkpt>
      <trkpt lat="38.3310690" lon="-0.6898210">
        <ele>262.9</ele>
        <time>2018-04-28T06:10:24Z</time>
      </trkpt>
      <trkpt lat="38.3311150" lon="-0.6898250">
        <ele>263.1</ele>
        <time>2018-04-28T06:10:25Z</time>
      </trkpt>
      <trkpt lat="38.3311620" lon="-0.6898340">
        <ele>263.4</ele>
        <time>2018-04-28T06:10:26Z</time>
      </trkpt>
      <trkpt lat="38.3312070" lon="-0.6898450">
        <ele>263.7</ele>
        <time>2018-04-28T06:10:27Z</time>
      </trkpt>
      <trkpt lat="38.3312540" lon="-0.6898580">
        <ele>264.0</ele>
        <time>2018-04-28T06:10:28Z</time>
      </trkpt>
      <trkpt lat="38.3313010" lon="-0.6898740">
        <ele>264.3</ele>
        <time>2018-04-28T06:10:29Z</time>
      </trkpt>
      <trkpt lat="38.3313430" lon="-0.6898960">
        <ele>264.6</ele>
        <time>2018-04-28T06:10:30Z</time>
      </trkpt>
      <trkpt lat="38.3313850" lon="-0.6899220">
        <ele>264.9</ele>
        <time>2018-04-28T06:10:31Z</time>
      </trkpt>
      <trkpt lat="38.3314220" lon="-0.6899510">
        <ele>265.1</ele>
        <time>2018-04-28T06:10:32Z</time>
      </trkpt>
      <trkpt lat="38.3314610" lon="-0.6899820">
        <ele>265.4</ele>
        <time>2018-04-28T06:10:33Z</time>
      </trkpt>
      <trkpt lat="38.3314970" lon="-0.6900140">
        <ele>265.7</ele>
        <time>2018-04-28T06:10:34Z</time>
      </trkpt>
      <trkpt lat="38.3315300" lon="-0.6900480">
        <ele>266.2</ele>
        <time>2018-04-28T06:10:35Z</time>
      </trkpt>
      <trkpt lat="38.3315620" lon="-0.6900860">
        <ele>266.7</ele>
        <time>2018-04-28T06:10:36Z</time>
      </trkpt>
      <trkpt lat="38.3315910" lon="-0.6901250">
        <ele>267.2</ele>
        <time>2018-04-28T06:10:37Z</time>
      </trkpt>
      <trkpt lat="38.3316170" lon="-0.6901670">
        <ele>267.6</ele>
        <time>2018-04-28T06:10:38Z</time>
      </trkpt>
      <trkpt lat="38.3316430" lon="-0.6902080">
        <ele>268.0</ele>
        <time>2018-04-28T06:10:39Z</time>
      </trkpt>
      <trkpt lat="38.3316660" lon="-0.6902520">
        <ele>268.7</ele>
        <time>2018-04-28T06:10:40Z</time>
      </trkpt>
      <trkpt lat="38.3316860" lon="-0.6902980">
        <ele>269.1</ele>
        <time>2018-04-28T06:10:41Z</time>
      </trkpt>
      <trkpt lat="38.3317050" lon="-0.6903480">
        <ele>269.4</ele>
        <time>2018-04-28T06:10:42Z</time>
      </trkpt>
      <trkpt lat="38.3317190" lon="-0.6904000">
        <ele>269.7</ele>
        <time>2018-04-28T06:10:43Z</time>
      </trkpt>
      <trkpt lat="38.3317320" lon="-0.6904530">
        <ele>270.1</ele>
        <time>2018-04-28T06:10:44Z</time>
      </trkpt>
      <trkpt lat="38.3317420" lon="-0.6905050">
        <ele>270.4</ele>
        <time>2018-04-28T06:10:45Z</time>
      </trkpt>
      <trkpt lat="38.3317480" lon="-0.6905580">
        <ele>270.6</ele>
        <time>2018-04-28T06:10:46Z</time>
      </trkpt>
      <trkpt lat="38.3317510" lon="-0.6906190">
        <ele>270.8</ele>
        <time>2018-04-28T06:10:47Z</time>
      </trkpt>
      <trkpt lat="38.3317550" lon="-0.6906770">
        <ele>271.0</ele>
        <time>2018-04-28T06:10:48Z</time>
      </trkpt>
      <trkpt lat="38.3317580" lon="-0.6907360">
        <ele>271.2</ele>
        <time>2018-04-28T06:10:49Z</time>
      </trkpt>
      <trkpt lat="38.3317620" lon="-0.6907970">
        <ele>271.4</ele>
        <time>2018-04-28T06:10:50Z</time>
      </trkpt>
      <trkpt lat="38.3317620" lon="-0.6908590">
        <ele>271.6</ele>
        <time>2018-04-28T06:10:51Z</time>
      </trkpt>
      <trkpt lat="38.3317630" lon="-0.6909220">
        <ele>271.7</ele>
        <time>2018-04-28T06:10:52Z</time>
      </trkpt>
      <trkpt lat="38.3317660" lon="-0.6909850">
        <ele>271.8</ele>
        <time>2018-04-28T06:10:53Z</time>
      </trkpt>
      <trkpt lat="38.3317680" lon="-0.6910490">
        <ele>271.9</ele>
        <time>2018-04-28T06:10:54Z</time>
      </trkpt>
      <trkpt lat="38.3317680" lon="-0.6911120">
        <ele>272.0</ele>
        <time>2018-04-28T06:10:55Z</time>
      </trkpt>
      <trkpt lat="38.3317690" lon="-0.6911760">
        <ele>272.1</ele>
        <time>2018-04-28T06:10:56Z</time>
      </trkpt>
      <trkpt lat="38.3317710" lon="-0.6912400">
        <ele>272.2</ele>
        <time>2018-04-28T06:10:57Z</time>
      </trkpt>
      <trkpt lat="38.3317710" lon="-0.6913050">
        <ele>272.3</ele>
        <time>2018-04-28T06:10:58Z</time>
      </trkpt>
      <trkpt lat="38.3317730" lon="-0.6913690">
        <ele>272.4</ele>
        <time>2018-04-28T06:10:59Z</time>
      </trkpt>
      <trkpt lat="38.3317750" lon="-0.6914340">
        <ele>272.5</ele>
        <time>2018-04-28T06:11:00Z</time>
      </trkpt>
      <trkpt lat="38.3317760" lon="-0.6914990">
        <ele>272.6</ele>
        <time>2018-04-28T06:11:01Z</time>
      </trkpt>
      <trkpt lat="38.3317770" lon="-0.6915630">
        <ele>272.6</ele>
        <time>2018-04-28T06:11:02Z</time>
      </trkpt>
      <trkpt lat="38.3317790" lon="-0.6916300">
        <ele>272.7</ele>
        <time>2018-04-28T06:11:03Z</time>
      </trkpt>
      <trkpt lat="38.3317810" lon="-0.6916960">
        <ele>272.8</ele>
        <time>2018-04-28T06:11:04Z</time>
      </trkpt>
      <trkpt lat="38.3317830" lon="-0.6917610">
        <ele>272.9</ele>
        <time>2018-04-28T06:11:05Z</time>
      </trkpt>
      <trkpt lat="38.3317840" lon="-0.6918270">
        <ele>273.0</ele>
        <time>2018-04-28T06:11:06Z</time>
      </trkpt>
      <trkpt lat="38.3317860" lon="-0.6918920">
        <ele>273.1</ele>
        <time>2018-04-28T06:11:07Z</time>
      </trkpt>
      <trkpt lat="38.3317870" lon="-0.6919570">
        <ele>273.2</ele>
        <time>2018-04-28T06:11:08Z</time>
      </trkpt>
      <trkpt lat="38.3317890" lon="-0.6920230">
        <ele>273.3</ele>
        <time>2018-04-28T06:11:09Z</time>
      </trkpt>
      <trkpt lat="38.3317910" lon="-0.6920880">
        <ele>273.4</ele>
        <time>2018-04-28T06:11:10Z</time>
      </trkpt>
      <trkpt lat="38.3317930" lon="-0.6921530">
        <ele>273.6</ele>
        <time>2018-04-28T06:11:11Z</time>
      </trkpt>
      <trkpt lat="38.3317950" lon="-0.6922190">
        <ele>273.7</ele>
        <time>2018-04-28T06:11:12Z</time>
      </trkpt>
      <trkpt lat="38.3317960" lon="-0.6922860">
        <ele>273.7</ele>
        <time>2018-04-28T06:11:13Z</time>
      </trkpt>
      <trkpt lat="38.3317960" lon="-0.6923510">
        <ele>273.8</ele>
        <time>2018-04-28T06:11:14Z</time>
      </trkpt>
      <trkpt lat="38.3317960" lon="-0.6924170">
        <ele>273.9</ele>
        <time>2018-04-28T06:11:15Z</time>
      </trkpt>
      <trkpt lat="38.3317970" lon="-0.6924820">
        <ele>273.9</ele>
        <time>2018-04-28T06:11:16Z</time>
      </trkpt>
      <trkpt lat="38.3318000" lon="-0.6925460">
        <ele>274.0</ele>
        <time>2018-04-28T06:11:17Z</time>
      </trkpt>
      <trkpt lat="38.3318030" lon="-0.6926110">
        <ele>274.1</ele>
        <time>2018-04-28T06:11:18Z</time>
      </trkpt>
      <trkpt lat="38.3318050" lon="-0.6926770">
        <ele>274.1</ele>
        <time>2018-04-28T06:11:19Z</time>
      </trkpt>
      <trkpt lat="38.3318060" lon="-0.6927410">
        <ele>274.3</ele>
        <time>2018-04-28T06:11:20Z</time>
      </trkpt>
      <trkpt lat="38.3318070" lon="-0.6928060">
        <ele>274.4</ele>
        <time>2018-04-28T06:11:21Z</time>
      </trkpt>
      <trkpt lat="38.3318070" lon="-0.6928720">
        <ele>274.5</ele>
        <time>2018-04-28T06:11:22Z</time>
      </trkpt>
      <trkpt lat="38.3318080" lon="-0.6929370">
        <ele>274.6</ele>
        <time>2018-04-28T06:11:23Z</time>
      </trkpt>
      <trkpt lat="38.3318080" lon="-0.6930010">
        <ele>274.6</ele>
        <time>2018-04-28T06:11:24Z</time>
      </trkpt>
      <trkpt lat="38.3318100" lon="-0.6930650">
        <ele>274.7</ele>
        <time>2018-04-28T06:11:25Z</time>
      </trkpt>
      <trkpt lat="38.3318100" lon="-0.6931270">
        <ele>274.8</ele>
        <time>2018-04-28T06:11:26Z</time>
      </trkpt>
      <trkpt lat="38.3318070" lon="-0.6931930">
        <ele>274.8</ele>
        <time>2018-04-28T06:11:27Z</time>
      </trkpt>
      <trkpt lat="38.3318050" lon="-0.6932590">
        <ele>274.9</ele>
        <time>2018-04-28T06:11:28Z</time>
      </trkpt>
      <trkpt lat="38.3318180" lon="-0.6933210">
        <ele>275.0</ele>
        <time>2018-04-28T06:11:29Z</time>
      </trkpt>
      <trkpt lat="38.3318550" lon="-0.6933750">
        <ele>275.5</ele>
        <time>2018-04-28T06:11:30Z</time>
      </trkpt>
      <trkpt lat="38.3318910" lon="-0.6934090">
        <ele>275.8</ele>
        <time>2018-04-28T06:11:31Z</time>
      </trkpt>
      <trkpt lat="38.3319280" lon="-0.6934250">
        <ele>276.1</ele>
        <time>2018-04-28T06:11:32Z</time>
      </trkpt>
      <trkpt lat="38.3319630" lon="-0.6934390">
        <ele>276.5</ele>
        <time>2018-04-28T06:11:33Z</time>
      </trkpt>
      <trkpt lat="38.3319970" lon="-0.6934530">
        <ele>276.9</ele>
        <time>2018-04-28T06:11:34Z</time>
      </trkpt>
      <trkpt lat="38.3320320" lon="-0.6934610">
        <ele>277.2</ele>
        <time>2018-04-28T06:11:35Z</time>
      </trkpt>
      <trkpt lat="38.3320650" lon="-0.6934620">
        <ele>277.6</ele>
        <time>2018-04-28T06:11:36Z</time>
      </trkpt>
      <trkpt lat="38.3320990" lon="-0.6934640">
        <ele>277.9</ele>
        <time>2018-04-28T06:11:37Z</time>
      </trkpt>
      <trkpt lat="38.3321340" lon="-0.6934680">
        <ele>278.3</ele>
        <time>2018-04-28T06:11:38Z</time>
      </trkpt>
      <trkpt lat="38.3321690" lon="-0.6934740">
        <ele>278.7</ele>
        <time>2018-04-28T06:11:39Z</time>
      </trkpt>
      <trkpt lat="38.3322050" lon="-0.6934830">
        <ele>279.0</ele>
        <time>2018-04-28T06:11:40Z</time>
      </trkpt>
      <trkpt lat="38.3322390" lon="-0.6934930">
        <ele>279.3</ele>
        <time>2018-04-28T06:11:41Z</time>
      </trkpt>
      <trkpt lat="38.3322730" lon="-0.6935040">
        <ele>279.7</ele>
        <time>2018-04-28T06:11:42Z</time>
      </trkpt>
      <trkpt lat="38.3323080" lon="-0.6935190">
        <ele>280.2</ele>
        <time>2018-04-28T06:11:43Z</time>
      </trkpt>
      <trkpt lat="38.3323430" lon="-0.6935290">
        <ele>280.7</ele>
        <time>2018-04-28T06:11:44Z</time>
      </trkpt>
      <trkpt lat="38.3323780" lon="-0.6935390">
        <ele>281.0</ele>
        <time>2018-04-28T06:11:45Z</time>
      </trkpt>
      <trkpt lat="38.3324140" lon="-0.6935470">
        <ele>281.4</ele>
        <time>2018-04-28T06:11:46Z</time>
      </trkpt>
      <trkpt lat="38.3324520" lon="-0.6935560">
        <ele>281.8</ele>
        <time>2018-04-28T06:11:47Z</time>
      </trkpt>
      <trkpt lat="38.3324890" lon="-0.6935670">
        <ele>282.1</ele>
        <time>2018-04-28T06:11:48Z</time>
      </trkpt>
      <trkpt lat="38.3325260" lon="-0.6935750">
        <ele>282.5</ele>
        <time>2018-04-28T06:11:49Z</time>
      </trkpt>
      <trkpt lat="38.3325650" lon="-0.6935820">
        <ele>282.9</ele>
        <time>2018-04-28T06:11:50Z</time>
      </trkpt>
      <trkpt lat="38.3326010" lon="-0.6935920">
        <ele>283.5</ele>
        <time>2018-04-28T06:11:51Z</time>
      </trkpt>
      <trkpt lat="38.3326370" lon="-0.6935990">
        <ele>283.8</ele>
        <time>2018-04-28T06:11:52Z</time>
      </trkpt>
      <trkpt lat="38.3326740" lon="-0.6936010">
        <ele>284.1</ele>
        <time>2018-04-28T06:11:53Z</time>
      </trkpt>
      <trkpt lat="38.3327110" lon="-0.6936040">
        <ele>284.4</ele>
        <time>2018-04-28T06:11:54Z</time>
      </trkpt>
      <trkpt lat="38.3327460" lon="-0.6936060">
        <ele>284.7</ele>
        <time>2018-04-28T06:11:55Z</time>
      </trkpt>
      <trkpt lat="38.3327910" lon="-0.6936030">
        <ele>285.1</ele>
        <time>2018-04-28T06:11:56Z</time>
      </trkpt>
      <trkpt lat="38.3328320" lon="-0.6936020">
        <ele>285.4</ele>
        <time>2018-04-28T06:11:57Z</time>
      </trkpt>
      <trkpt lat="38.3328700" lon="-0.6935990">
        <ele>285.7</ele>
        <time>2018-04-28T06:11:58Z</time>
      </trkpt>
      <trkpt lat="38.3329090" lon="-0.6935950">
        <ele>285.9</ele>
        <time>2018-04-28T06:11:59Z</time>
      </trkpt>
      <trkpt lat="38.3329470" lon="-0.6935940">
        <ele>286.2</ele>
        <time>2018-04-28T06:12:00Z</time>
      </trkpt>
      <trkpt lat="38.3329870" lon="-0.6935940">
        <ele>286.4</ele>
        <time>2018-04-28T06:12:01Z</time>
      </trkpt>
      <trkpt lat="38.3330310" lon="-0.6935910">
        <ele>286.6</ele>
        <time>2018-04-28T06:12:02Z</time>
      </trkpt>
      <trkpt lat="38.3330710" lon="-0.6935860">
        <ele>286.8</ele>
        <time>2018-04-28T06:12:03Z</time>
      </trkpt>
      <trkpt lat="38.3331130" lon="-0.6935830">
        <ele>287.1</ele>
        <time>2018-04-28T06:12:04Z</time>
      </trkpt>
      <trkpt lat="38.3331550" lon="-0.6935820">
        <ele>287.3</ele>
        <time>2018-04-28T06:12:05Z</time>
      </trkpt>
      <trkpt lat="38.3331980" lon="-0.6935820">
        <ele>287.6</ele>
        <time>2018-04-28T06:12:06Z</time>
      </trkpt>
      <trkpt lat="38.3332380" lon="-0.6935830">
        <ele>288.0</ele>
        <time>2018-04-28T06:12:07Z</time>
      </trkpt>
      <trkpt lat="38.3332790" lon="-0.6935840">
        <ele>288.3</ele>
        <time>2018-04-28T06:12:08Z</time>
      </trkpt>
      <trkpt lat="38.3333210" lon="-0.6935850">
        <ele>288.6</ele>
        <time>2018-04-28T06:12:09Z</time>
      </trkpt>
      <trkpt lat="38.3333560" lon="-0.6935940">
        <ele>289.1</ele>
        <time>2018-04-28T06:12:10Z</time>
      </trkpt>
      <trkpt lat="38.3333950" lon="-0.6936040">
        <ele>289.3</ele>
        <time>2018-04-28T06:12:11Z</time>
      </trkpt>
      <trkpt lat="38.3334340" lon="-0.6936130">
        <ele>289.5</ele>
        <time>2018-04-28T06:12:12Z</time>
      </trkpt>
      <trkpt lat="38.3334740" lon="-0.6936220">
        <ele>289.7</ele>
        <time>2018-04-28T06:12:13Z</time>
      </trkpt>
      <trkpt lat="38.3335130" lon="-0.6936300">
        <ele>289.9</ele>
        <time>2018-04-28T06:12:14Z</time>
      </trkpt>
      <trkpt lat="38.3335490" lon="-0.6936390">
        <ele>290.1</ele>
        <time>2018-04-28T06:12:15Z</time>
      </trkpt>
      <trkpt lat="38.3335840" lon="-0.6936510">
        <ele>290.3</ele>
        <time>2018-04-28T06:12:16Z</time>
      </trkpt>
      <trkpt lat="38.3336200" lon="-0.6936640">
        <ele>290.5</ele>
        <time>2018-04-28T06:12:17Z</time>
      </trkpt>
      <trkpt lat="38.3336510" lon="-0.6936780">
        <ele>290.7</ele>
        <time>2018-04-28T06:12:18Z</time>
      </trkpt>
      <trkpt lat="38.3336880" lon="-0.6936840">
        <ele>291.0</ele>
        <time>2018-04-28T06:12:19Z</time>
      </trkpt>
      <trkpt lat="38.3337240" lon="-0.6936900">
        <ele>291.3</ele>
        <time>2018-04-28T06:12:20Z</time>
      </trkpt>
      <trkpt lat="38.3337590" lon="-0.6936990">
        <ele>291.8</ele>
        <time>2018-04-28T06:12:21Z</time>
      </trkpt>
      <trkpt lat="38.3337980" lon="-0.6937000">
        <ele>292.2</ele>
        <time>2018-04-28T06:12:22Z</time>
      </trkpt>
      <trkpt lat="38.3338380" lon="-0.6937010">
        <ele>292.5</ele>
        <time>2018-04-28T06:12:23Z</time>
      </trkpt>
      <trkpt lat="38.3338740" lon="-0.6937080">
        <ele>292.7</ele>
        <time>2018-04-28T06:12:24Z</time>
      </trkpt>
      <trkpt lat="38.3339110" lon="-0.6937120">
        <ele>293.0</ele>
        <time>2018-04-28T06:12:25Z</time>
      </trkpt>
      <trkpt lat="38.3339490" lon="-0.6937120">
        <ele>293.2</ele>
        <time>2018-04-28T06:12:26Z</time>
      </trkpt>
      <trkpt lat="38.3339880" lon="-0.6937150">
        <ele>293.6</ele>
        <time>2018-04-28T06:12:27Z</time>
      </trkpt>
      <trkpt lat="38.3340240" lon="-0.6937170">
        <ele>294.1</ele>
        <time>2018-04-28T06:12:28Z</time>
      </trkpt>
      <trkpt lat="38.3340630" lon="-0.6937150">
        <ele>294.3</ele>
        <time>2018-04-28T06:12:29Z</time>
      </trkpt>
      <trkpt lat="38.3341000" lon="-0.6937110">
        <ele>294.4</ele>
        <time>2018-04-28T06:12:30Z</time>
      </trkpt>
      <trkpt lat="38.3341390" lon="-0.6937110">
        <ele>294.6</ele>
        <time>2018-04-28T06:12:31Z</time>
      </trkpt>
      <trkpt lat="38.3341840" lon="-0.6937080">
        <ele>294.8</ele>
        <time>2018-04-28T06:12:32Z</time>
      </trkpt>
      <trkpt lat="38.3342250" lon="-0.6937090">
        <ele>295.1</ele>
        <time>2018-04-28T06:12:33Z</time>
      </trkpt>
      <trkpt lat="38.3342660" lon="-0.6937070">
        <ele>295.3</ele>
        <time>2018-04-28T06:12:34Z</time>
      </trkpt>
      <trkpt lat="38.3343050" lon="-0.6937030">
        <ele>295.4</ele>
        <time>2018-04-28T06:12:35Z</time>
      </trkpt>
      <trkpt lat="38.3343440" lon="-0.6937010">
        <ele>295.6</ele>
        <time>2018-04-28T06:12:36Z</time>
      </trkpt>
      <trkpt lat="38.3343860" lon="-0.6936950">
        <ele>295.8</ele>
        <time>2018-04-28T06:12:37Z</time>
      </trkpt>
      <trkpt lat="38.3344250" lon="-0.6936920">
        <ele>295.9</ele>
        <time>2018-04-28T06:12:38Z</time>
      </trkpt>
      <trkpt lat="38.3344660" lon="-0.6936910">
        <ele>296.1</ele>
        <time>2018-04-28T06:12:39Z</time>
      </trkpt>
      <trkpt lat="38.3345050" lon="-0.6936880">
        <ele>296.2</ele>
        <time>2018-04-28T06:12:40Z</time>
      </trkpt>
      <trkpt lat="38.3345460" lon="-0.6936840">
        <ele>296.3</ele>
        <time>2018-04-28T06:12:41Z</time>
      </trkpt>
      <trkpt lat="38.3345920" lon="-0.6936780">
        <ele>296.4</ele>
        <time>2018-04-28T06:12:42Z</time>
      </trkpt>
      <trkpt lat="38.3346350" lon="-0.6936740">
        <ele>296.5</ele>
        <time>2018-04-28T06:12:43Z</time>
      </trkpt>
      <trkpt lat="38.3346790" lon="-0.6936700">
        <ele>296.6</ele>
        <time>2018-04-28T06:12:44Z</time>
      </trkpt>
      <trkpt lat="38.3347200" lon="-0.6936680">
        <ele>296.8</ele>
        <time>2018-04-28T06:12:45Z</time>
      </trkpt>
      <trkpt lat="38.3347610" lon="-0.6936690">
        <ele>296.9</ele>
        <time>2018-04-28T06:12:46Z</time>
      </trkpt>
      <trkpt lat="38.3348020" lon="-0.6936730">
        <ele>297.1</ele>
        <time>2018-04-28T06:12:47Z</time>
      </trkpt>
      <trkpt lat="38.3348380" lon="-0.6936910">
        <ele>297.2</ele>
        <time>2018-04-28T06:12:48Z</time>
      </trkpt>
      <trkpt lat="38.3348800" lon="-0.6936990">
        <ele>297.4</ele>
        <time>2018-04-28T06:12:49Z</time>
      </trkpt>
      <trkpt lat="38.3349190" lon="-0.6937050">
        <ele>297.5</ele>
        <time>2018-04-28T06:12:50Z</time>
      </trkpt>
      <trkpt lat="38.3349560" lon="-0.6937130">
        <ele>297.6</ele>
        <time>2018-04-28T06:12:51Z</time>
      </trkpt>
      <trkpt lat="38.3349950" lon="-0.6937190">
        <ele>297.8</ele>
        <time>2018-04-28T06:12:52Z</time>
      </trkpt>
      <trkpt lat="38.3350360" lon="-0.6937190">
        <ele>297.9</ele>
        <time>2018-04-28T06:12:53Z</time>
      </trkpt>
      <trkpt lat="38.3350760" lon="-0.6937160">
        <ele>297.9</ele>
        <time>2018-04-28T06:12:54Z</time>
      </trkpt>
      <trkpt lat="38.3351160" lon="-0.6937140">
        <ele>298.0</ele>
        <time>2018-04-28T06:12:55Z</time>
      </trkpt>
      <trkpt lat="38.3351490" lon="-0.6937170">
        <ele>298.1</ele>
        <time>2018-04-28T06:12:56Z</time>
      </trkpt>
      <trkpt lat="38.3352020" lon="-0.6937070">
        <ele>298.3</ele>
        <time>2018-04-28T06:12:57Z</time>
      </trkpt>
      <trkpt lat="38.3352480" lon="-0.6936990">
        <ele>298.3</ele>
        <time>2018-04-28T06:12:58Z</time>
      </trkpt>
      <trkpt lat="38.3352930" lon="-0.6936920">
        <ele>298.4</ele>
        <time>2018-04-28T06:12:59Z</time>
      </trkpt>
      <trkpt lat="38.3353410" lon="-0.6936810">
        <ele>298.4</ele>
        <time>2018-04-28T06:13:00Z</time>
      </trkpt>
      <trkpt lat="38.3353880" lon="-0.6936700">
        <ele>298.4</ele>
        <time>2018-04-28T06:13:01Z</time>
      </trkpt>
      <trkpt lat="38.3354350" lon="-0.6936640">
        <ele>298.5</ele>
        <time>2018-04-28T06:13:02Z</time>
      </trkpt>
      <trkpt lat="38.3354830" lon="-0.6936620">
        <ele>298.5</ele>
        <time>2018-04-28T06:13:03Z</time>
      </trkpt>
      <trkpt lat="38.3355300" lon="-0.6936580">
        <ele>298.5</ele>
        <time>2018-04-28T06:13:04Z</time>
      </trkpt>
      <trkpt lat="38.3355750" lon="-0.6936650">
        <ele>298.6</ele>
        <time>2018-04-28T06:13:05Z</time>
      </trkpt>
      <trkpt lat="38.3356020" lon="-0.6936950">
        <ele>298.6</ele>
        <time>2018-04-28T06:13:06Z</time>
      </trkpt>
      <trkpt lat="38.3356430" lon="-0.6937100">
        <ele>298.6</ele>
        <time>2018-04-28T06:13:07Z</time>
      </trkpt>
      <trkpt lat="38.3356950" lon="-0.6937220">
        <ele>298.7</ele>
        <time>2018-04-28T06:13:08Z</time>
      </trkpt>
      <trkpt lat="38.3357530" lon="-0.6937310">
        <ele>298.7</ele>
        <time>2018-04-28T06:13:09Z</time>
      </trkpt>
      <trkpt lat="38.3358060" lon="-0.6937470">
        <ele>298.8</ele>
        <time>2018-04-28T06:13:10Z</time>
      </trkpt>
      <trkpt lat="38.3358570" lon="-0.6937680">
        <ele>298.8</ele>
        <time>2018-04-28T06:13:11Z</time>
      </trkpt>
      <trkpt lat="38.3359070" lon="-0.6937860">
        <ele>298.9</ele>
        <time>2018-04-28T06:13:12Z</time>
      </trkpt>
      <trkpt lat="38.3359540" lon="-0.6938070">
        <ele>299.0</ele>
        <time>2018-04-28T06:13:13Z</time>
      </trkpt>
      <trkpt lat="38.3360060" lon="-0.6938240">
        <ele>299.0</ele>
        <time>2018-04-28T06:13:14Z</time>
      </trkpt>
      <trkpt lat="38.3360570" lon="-0.6938440">
        <ele>299.1</ele>
        <time>2018-04-28T06:13:15Z</time>
      </trkpt>
      <trkpt lat="38.3361040" lon="-0.6938680">
        <ele>299.1</ele>
        <time>2018-04-28T06:13:16Z</time>
      </trkpt>
      <trkpt lat="38.3361530" lon="-0.6938880">
        <ele>299.2</ele>
        <time>2018-04-28T06:13:17Z</time>
      </trkpt>
      <trkpt lat="38.3362010" lon="-0.6939110">
        <ele>299.2</ele>
        <time>2018-04-28T06:13:18Z</time>
      </trkpt>
      <trkpt lat="38.3362470" lon="-0.6939380">
        <ele>299.2</ele>
        <time>2018-04-28T06:13:19Z</time>
      </trkpt>
      <trkpt lat="38.3362910" lon="-0.6939690">
        <ele>299.2</ele>
        <time>2018-04-28T06:13:20Z</time>
      </trkpt>
      <trkpt lat="38.3363350" lon="-0.6940010">
        <ele>299.2</ele>
        <time>2018-04-28T06:13:21Z</time>
      </trkpt>
      <trkpt lat="38.3363780" lon="-0.6940340">
        <ele>299.2</ele>
        <time>2018-04-28T06:13:22Z</time>
      </trkpt>
      <trkpt lat="38.3364220" lon="-0.6940650">
        <ele>299.2</ele>
        <time>2018-04-28T06:13:23Z</time>
      </trkpt>
      <trkpt lat="38.3364680" lon="-0.6940960">
        <ele>299.1</ele>
        <time>2018-04-28T06:13:24Z</time>
      </trkpt>
      <trkpt lat="38.3365120" lon="-0.6941320">
        <ele>299.0</ele>
        <time>2018-04-28T06:13:25Z</time>
      </trkpt>
      <trkpt lat="38.3365610" lon="-0.6941730">
        <ele>299.0</ele>
        <time>2018-04-28T06:13:26Z</time>
      </trkpt>
      <trkpt lat="38.3366170" lon="-0.6942150">
        <ele>298.7</ele>
        <time>2018-04-28T06:13:27Z</time>
      </trkpt>
      <trkpt lat="38.3366790" lon="-0.6942540">
        <ele>298.4</ele>
        <time>2018-04-28T06:13:28Z</time>
      </trkpt>
      <trkpt lat="38.3367400" lon="-0.6943080">
        <ele>298.0</ele>
        <time>2018-04-28T06:13:29Z</time>
      </trkpt>
      <trkpt lat="38.3367980" lon="-0.6943730">
        <ele>297.6</ele>
        <time>2018-04-28T06:13:30Z</time>
      </trkpt>
      <trkpt lat="38.3368560" lon="-0.6944440">
        <ele>297.0</ele>
        <time>2018-04-28T06:13:31Z</time>
      </trkpt>
      <trkpt lat="38.3369110" lon="-0.6945080">
        <ele>296.6</ele>
        <time>2018-04-28T06:13:32Z</time>
      </trkpt>
      <trkpt lat="38.3369580" lon="-0.6945570">
        <ele>296.1</ele>
        <time>2018-04-28T06:13:33Z</time>
      </trkpt>
      <trkpt lat="38.3369960" lon="-0.6945800">
        <ele>294.9</ele>
        <time>2018-04-28T06:13:34Z</time>
      </trkpt>
      <trkpt lat="38.3370380" lon="-0.6945780">
        <ele>294.9</ele>
        <time>2018-04-28T06:13:35Z</time>
      </trkpt>
      <trkpt lat="38.3370850" lon="-0.6945410">
        <ele>294.9</ele>
        <time>2018-04-28T06:13:36Z</time>
      </trkpt>
      <trkpt lat="38.3371220" lon="-0.6944870">
        <ele>294.9</ele>
        <time>2018-04-28T06:13:37Z</time>
      </trkpt>
      <trkpt lat="38.3371650" lon="-0.6944220">
        <ele>295.0</ele>
        <time>2018-04-28T06:13:38Z</time>
      </trkpt>
      <trkpt lat="38.3372060" lon="-0.6943580">
        <ele>295.0</ele>
        <time>2018-04-28T06:13:39Z</time>
      </trkpt>
      <trkpt lat="38.3372440" lon="-0.6942940">
        <ele>295.1</ele>
        <time>2018-04-28T06:13:40Z</time>
      </trkpt>
      <trkpt lat="38.3372800" lon="-0.6942330">
        <ele>295.4</ele>
        <time>2018-04-28T06:13:41Z</time>
      </trkpt>
      <trkpt lat="38.3373180" lon="-0.6941820">
        <ele>295.8</ele>
        <time>2018-04-28T06:13:42Z</time>
      </trkpt>
      <trkpt lat="38.3373550" lon="-0.6941430">
        <ele>296.3</ele>
        <time>2018-04-28T06:13:43Z</time>
      </trkpt>
      <trkpt lat="38.3373930" lon="-0.6941240">
        <ele>296.7</ele>
        <time>2018-04-28T06:13:44Z</time>
      </trkpt>
      <trkpt lat="38.3374160" lon="-0.6941420">
        <ele>296.9</ele>
        <time>2018-04-28T06:13:45Z</time>
      </trkpt>
      <trkpt lat="38.3374500" lon="-0.6941710">
        <ele>297.3</ele>
        <time>2018-04-28T06:13:46Z</time>
      </trkpt>
      <trkpt lat="38.3374910" lon="-0.6942160">
        <ele>292.2</ele>
        <time>2018-04-28T06:13:47Z</time>
      </trkpt>
      <trkpt lat="38.3375390" lon="-0.6942590">
        <ele>287.2</ele>
        <time>2018-04-28T06:13:48Z</time>
      </trkpt>
      <trkpt lat="38.3375930" lon="-0.6942890">
        <ele>287.0</ele>
        <time>2018-04-28T06:13:49Z</time>
      </trkpt>
      <trkpt lat="38.3376480" lon="-0.6942970">
        <ele>286.8</ele>
        <time>2018-04-28T06:13:50Z</time>
      </trkpt>
      <trkpt lat="38.3377040" lon="-0.6942920">
        <ele>286.7</ele>
        <time>2018-04-28T06:13:51Z</time>
      </trkpt>
      <trkpt lat="38.3377810" lon="-0.6942690">
        <ele>286.5</ele>
        <time>2018-04-28T06:13:52Z</time>
      </trkpt>
      <trkpt lat="38.3378590" lon="-0.6942340">
        <ele>286.2</ele>
        <time>2018-04-28T06:13:53Z</time>
      </trkpt>
      <trkpt lat="38.3379310" lon="-0.6941910">
        <ele>286.1</ele>
        <time>2018-04-28T06:13:54Z</time>
      </trkpt>
      <trkpt lat="38.3380040" lon="-0.6941520">
        <ele>285.9</ele>
        <time>2018-04-28T06:13:55Z</time>
      </trkpt>
      <trkpt lat="38.3380790" lon="-0.6941160">
        <ele>285.7</ele>
        <time>2018-04-28T06:13:56Z</time>
      </trkpt>
      <trkpt lat="38.3381530" lon="-0.6940790">
        <ele>285.5</ele>
        <time>2018-04-28T06:13:57Z</time>
      </trkpt>
      <trkpt lat="38.3382240" lon="-0.6940370">
        <ele>285.4</ele>
        <time>2018-04-28T06:13:58Z</time>
      </trkpt>
      <trkpt lat="38.3382980" lon="-0.6939920">
        <ele>285.3</ele>
        <time>2018-04-28T06:13:59Z</time>
      </trkpt>
      <trkpt lat="38.3383710" lon="-0.6939500">
        <ele>285.1</ele>
        <time>2018-04-28T06:14:00Z</time>
      </trkpt>
      <trkpt lat="38.3384470" lon="-0.6939060">
        <ele>285.0</ele>
        <time>2018-04-28T06:14:01Z</time>
      </trkpt>
      <trkpt lat="38.3385230" lon="-0.6938640">
        <ele>284.9</ele>
        <time>2018-04-28T06:14:02Z</time>
      </trkpt>
      <trkpt lat="38.3385970" lon="-0.6938200">
        <ele>284.7</ele>
        <time>2018-04-28T06:14:03Z</time>
      </trkpt>
      <trkpt lat="38.3386670" lon="-0.6937630">
        <ele>284.6</ele>
        <time>2018-04-28T06:14:04Z</time>
      </trkpt>
      <trkpt lat="38.3387330" lon="-0.6936980">
        <ele>284.4</ele>
        <time>2018-04-28T06:14:05Z</time>
      </trkpt>
      <trkpt lat="38.3387550" lon="-0.6936250">
        <ele>285.3</ele>
        <time>2018-04-28T06:14:06Z</time>
      </trkpt>
      <trkpt lat="38.3387780" lon="-0.6935450">
        <ele>285.9</ele>
        <time>2018-04-28T06:14:07Z</time>
      </trkpt>
      <trkpt lat="38.3388080" lon="-0.6934530">
        <ele>286.6</ele>
        <time>2018-04-28T06:14:08Z</time>
      </trkpt>
      <trkpt lat="38.3388390" lon="-0.6933610">
        <ele>287.2</ele>
        <time>2018-04-28T06:14:09Z</time>
      </trkpt>
      <trkpt lat="38.3388720" lon="-0.6932820">
        <ele>288.0</ele>
        <time>2018-04-28T06:14:10Z</time>
      </trkpt>
      <trkpt lat="38.3389070" lon="-0.6932200">
        <ele>288.3</ele>
        <time>2018-04-28T06:14:11Z</time>
      </trkpt>
      <trkpt lat="38.3389560" lon="-0.6931680">
        <ele>288.9</ele>
        <time>2018-04-28T06:14:12Z</time>
      </trkpt>
      <trkpt lat="38.3389950" lon="-0.6931120">
        <ele>289.2</ele>
        <time>2018-04-28T06:14:13Z</time>
      </trkpt>
      <trkpt lat="38.3390370" lon="-0.6930480">
        <ele>289.3</ele>
        <time>2018-04-28T06:14:14Z</time>
      </trkpt>
      <trkpt lat="38.3390810" lon="-0.6929860">
        <ele>289.7</ele>
        <time>2018-04-28T06:14:15Z</time>
      </trkpt>
      <trkpt lat="38.3391390" lon="-0.6929260">
        <ele>289.6</ele>
        <time>2018-04-28T06:14:16Z</time>
      </trkpt>
      <trkpt lat="38.3391970" lon="-0.6928640">
        <ele>289.8</ele>
        <time>2018-04-28T06:14:17Z</time>
      </trkpt>
      <trkpt lat="38.3392550" lon="-0.6928070">
        <ele>289.6</ele>
        <time>2018-04-28T06:14:18Z</time>
      </trkpt>
      <trkpt lat="38.3393150" lon="-0.6927600">
        <ele>289.4</ele>
        <time>2018-04-28T06:14:19Z</time>
      </trkpt>
      <trkpt lat="38.3393860" lon="-0.6927200">
        <ele>289.2</ele>
        <time>2018-04-28T06:14:20Z</time>
      </trkpt>
      <trkpt lat="38.3394620" lon="-0.6926700">
        <ele>289.0</ele>
        <time>2018-04-28T06:14:21Z</time>
      </trkpt>
      <trkpt lat="38.3395340" lon="-0.6926120">
        <ele>288.8</ele>
        <time>2018-04-28T06:14:22Z</time>
      </trkpt>
      <trkpt lat="38.3395970" lon="-0.6925490">
        <ele>288.6</ele>
        <time>2018-04-28T06:14:23Z</time>
      </trkpt>
      <trkpt lat="38.3396560" lon="-0.6924830">
        <ele>288.4</ele>
        <time>2018-04-28T06:14:24Z</time>
      </trkpt>
      <trkpt lat="38.3397140" lon="-0.6924170">
        <ele>288.2</ele>
        <time>2018-04-28T06:14:25Z</time>
      </trkpt>
      <trkpt lat="38.3397740" lon="-0.6923540">
        <ele>288.0</ele>
        <time>2018-04-28T06:14:26Z</time>
      </trkpt>
      <trkpt lat="38.3398350" lon="-0.6922940">
        <ele>287.8</ele>
        <time>2018-04-28T06:14:27Z</time>
      </trkpt>
      <trkpt lat="38.3398940" lon="-0.6922310">
        <ele>287.7</ele>
        <time>2018-04-28T06:14:28Z</time>
      </trkpt>
      <trkpt lat="38.3399580" lon="-0.6921760">
        <ele>287.6</ele>
        <time>2018-04-28T06:14:29Z</time>
      </trkpt>
      <trkpt lat="38.3400240" lon="-0.6921350">
        <ele>287.6</ele>
        <time>2018-04-28T06:14:30Z</time>
      </trkpt>
      <trkpt lat="38.3400900" lon="-0.6920970">
        <ele>287.5</ele>
        <time>2018-04-28T06:14:31Z</time>
      </trkpt>
      <trkpt lat="38.3401590" lon="-0.6920630">
        <ele>287.5</ele>
        <time>2018-04-28T06:14:32Z</time>
      </trkpt>
      <trkpt lat="38.3402380" lon="-0.6920350">
        <ele>287.5</ele>
        <time>2018-04-28T06:14:33Z</time>
      </trkpt>
      <trkpt lat="38.3403150" lon="-0.6920050">
        <ele>287.6</ele>
        <time>2018-04-28T06:14:34Z</time>
      </trkpt>
      <trkpt lat="38.3403920" lon="-0.6919780">
        <ele>287.7</ele>
        <time>2018-04-28T06:14:35Z</time>
      </trkpt>
      <trkpt lat="38.3404660" lon="-0.6919430">
        <ele>287.9</ele>
        <time>2018-04-28T06:14:36Z</time>
      </trkpt>
      <trkpt lat="38.3405430" lon="-0.6919190">
        <ele>288.1</ele>
        <time>2018-04-28T06:14:37Z</time>
      </trkpt>
      <trkpt lat="38.3406230" lon="-0.6919140">
        <ele>288.5</ele>
        <time>2018-04-28T06:14:38Z</time>
      </trkpt>
      <trkpt lat="38.3407080" lon="-0.6919180">
        <ele>288.8</ele>
        <time>2018-04-28T06:14:39Z</time>
      </trkpt>
      <trkpt lat="38.3407940" lon="-0.6919210">
        <ele>289.1</ele>
        <time>2018-04-28T06:14:40Z</time>
      </trkpt>
      <trkpt lat="38.3408760" lon="-0.6919290">
        <ele>289.4</ele>
        <time>2018-04-28T06:14:41Z</time>
      </trkpt>
      <trkpt lat="38.3409510" lon="-0.6919400">
        <ele>289.8</ele>
        <time>2018-04-28T06:14:42Z</time>
      </trkpt>
      <trkpt lat="38.3410280" lon="-0.6919490">
        <ele>290.1</ele>
        <time>2018-04-28T06:14:43Z</time>
      </trkpt>
      <trkpt lat="38.3411080" lon="-0.6919510">
        <ele>290.2</ele>
        <time>2018-04-28T06:14:44Z</time>
      </trkpt>
      <trkpt lat="38.3411870" lon="-0.6919440">
        <ele>290.4</ele>
        <time>2018-04-28T06:14:45Z</time>
      </trkpt>
      <trkpt lat="38.3412670" lon="-0.6919320">
        <ele>290.6</ele>
        <time>2018-04-28T06:14:46Z</time>
      </trkpt>
      <trkpt lat="38.3413460" lon="-0.6919090">
        <ele>290.6</ele>
        <time>2018-04-28T06:14:47Z</time>
      </trkpt>
      <trkpt lat="38.3414170" lon="-0.6918820">
        <ele>290.7</ele>
        <time>2018-04-28T06:14:48Z</time>
      </trkpt>
      <trkpt lat="38.3414850" lon="-0.6918560">
        <ele>290.7</ele>
        <time>2018-04-28T06:14:49Z</time>
      </trkpt>
      <trkpt lat="38.3415570" lon="-0.6918330">
        <ele>290.8</ele>
        <time>2018-04-28T06:14:50Z</time>
      </trkpt>
      <trkpt lat="38.3416280" lon="-0.6918130">
        <ele>290.8</ele>
        <time>2018-04-28T06:14:51Z</time>
      </trkpt>
      <trkpt lat="38.3417000" lon="-0.6917920">
        <ele>290.9</ele>
        <time>2018-04-28T06:14:52Z</time>
      </trkpt>
      <trkpt lat="38.3417700" lon="-0.6917690">
        <ele>290.9</ele>
        <time>2018-04-28T06:14:53Z</time>
      </trkpt>
      <trkpt lat="38.3418440" lon="-0.6917570">
        <ele>290.9</ele>
        <time>2018-04-28T06:14:54Z</time>
      </trkpt>
      <trkpt lat="38.3419140" lon="-0.6917450">
        <ele>290.9</ele>
        <time>2018-04-28T06:14:55Z</time>
      </trkpt>
      <trkpt lat="38.3419810" lon="-0.6917300">
        <ele>290.9</ele>
        <time>2018-04-28T06:14:56Z</time>
      </trkpt>
      <trkpt lat="38.3420480" lon="-0.6917120">
        <ele>290.9</ele>
        <time>2018-04-28T06:14:57Z</time>
      </trkpt>
      <trkpt lat="38.3421120" lon="-0.6916830">
        <ele>290.8</ele>
        <time>2018-04-28T06:14:58Z</time>
      </trkpt>
      <trkpt lat="38.3421640" lon="-0.6916520">
        <ele>290.6</ele>
        <time>2018-04-28T06:14:59Z</time>
      </trkpt>
      <trkpt lat="38.3422150" lon="-0.6916170">
        <ele>290.3</ele>
        <time>2018-04-28T06:15:00Z</time>
      </trkpt>
      <trkpt lat="38.3422510" lon="-0.6915740">
        <ele>289.9</ele>
        <time>2018-04-28T06:15:01Z</time>
      </trkpt>
      <trkpt lat="38.3422890" lon="-0.6915300">
        <ele>289.5</ele>
        <time>2018-04-28T06:15:02Z</time>
      </trkpt>
      <trkpt lat="38.3423260" lon="-0.6914810">
        <ele>289.1</ele>
        <time>2018-04-28T06:15:03Z</time>
      </trkpt>
      <trkpt lat="38.3423700" lon="-0.6914420">
        <ele>288.5</ele>
        <time>2018-04-28T06:15:04Z</time>
      </trkpt>
      <trkpt lat="38.3424280" lon="-0.6914430">
        <ele>286.4</ele>
        <time>2018-04-28T06:15:05Z</time>
      </trkpt>
      <trkpt lat="38.3424800" lon="-0.6914880">
        <ele>284.1</ele>
        <time>2018-04-28T06:15:06Z</time>
      </trkpt>
      <trkpt lat="38.3425050" lon="-0.6915330">
        <ele>282.6</ele>
        <time>2018-04-28T06:15:07Z</time>
      </trkpt>
      <trkpt lat="38.3425370" lon="-0.6915750">
        <ele>281.0</ele>
        <time>2018-04-28T06:15:08Z</time>
      </trkpt>
      <trkpt lat="38.3425640" lon="-0.6916230">
        <ele>279.2</ele>
        <time>2018-04-28T06:15:09Z</time>
      </trkpt>
      <trkpt lat="38.3425920" lon="-0.6916760">
        <ele>277.4</ele>
        <time>2018-04-28T06:15:10Z</time>
      </trkpt>
      <trkpt lat="38.3426230" lon="-0.6917230">
        <ele>276.0</ele>
        <time>2018-04-28T06:15:11Z</time>
      </trkpt>
      <trkpt lat="38.3426600" lon="-0.6917650">
        <ele>274.5</ele>
        <time>2018-04-28T06:15:12Z</time>
      </trkpt>
      <trkpt lat="38.3427020" lon="-0.6917890">
        <ele>273.1</ele>
        <time>2018-04-28T06:15:13Z</time>
      </trkpt>
      <trkpt lat="38.3427490" lon="-0.6917970">
        <ele>273.0</ele>
        <time>2018-04-28T06:15:14Z</time>
      </trkpt>
      <trkpt lat="38.3427920" lon="-0.6917960">
        <ele>273.0</ele>
        <time>2018-04-28T06:15:15Z</time>
      </trkpt>
      <trkpt lat="38.3428440" lon="-0.6917890">
        <ele>273.3</ele>
        <time>2018-04-28T06:15:16Z</time>
      </trkpt>
      <trkpt lat="38.3428980" lon="-0.6917810">
        <ele>273.5</ele>
        <time>2018-04-28T06:15:17Z</time>
      </trkpt>
      <trkpt lat="38.3429560" lon="-0.6917690">
        <ele>273.8</ele>
        <time>2018-04-28T06:15:18Z</time>
      </trkpt>
      <trkpt lat="38.3430150" lon="-0.6917580">
        <ele>274.1</ele>
        <time>2018-04-28T06:15:19Z</time>
      </trkpt>
      <trkpt lat="38.3430730" lon="-0.6917470">
        <ele>274.5</ele>
        <time>2018-04-28T06:15:20Z</time>
      </trkpt>
      <trkpt lat="38.3431270" lon="-0.6917340">
        <ele>274.9</ele>
        <time>2018-04-28T06:15:21Z</time>
      </trkpt>
      <trkpt lat="38.3431820" lon="-0.6917210">
        <ele>275.1</ele>
        <time>2018-04-28T06:15:22Z</time>
      </trkpt>
      <trkpt lat="38.3432350" lon="-0.6917120">
        <ele>275.3</ele>
        <time>2018-04-28T06:15:23Z</time>
      </trkpt>
      <trkpt lat="38.3432930" lon="-0.6917070">
        <ele>275.5</ele>
        <time>2018-04-28T06:15:24Z</time>
      </trkpt>
      <trkpt lat="38.3433630" lon="-0.6917070">
        <ele>275.8</ele>
        <time>2018-04-28T06:15:25Z</time>
      </trkpt>
      <trkpt lat="38.3434290" lon="-0.6917100">
        <ele>276.1</ele>
        <time>2018-04-28T06:15:26Z</time>
      </trkpt>
      <trkpt lat="38.3434860" lon="-0.6917140">
        <ele>276.4</ele>
        <time>2018-04-28T06:15:27Z</time>
      </trkpt>
      <trkpt lat="38.3435200" lon="-0.6917200">
        <ele>276.6</ele>
        <time>2018-04-28T06:15:28Z</time>
      </trkpt>
      <trkpt lat="38.3435500" lon="-0.6917320">
        <ele>276.7</ele>
        <time>2018-04-28T06:15:29Z</time>
      </trkpt>
      <trkpt lat="38.3435790" lon="-0.6917350">
        <ele>276.8</ele>
        <time>2018-04-28T06:15:30Z</time>
      </trkpt>
      <trkpt lat="38.3436080" lon="-0.6917390">
        <ele>276.8</ele>
        <time>2018-04-28T06:15:31Z</time>
      </trkpt>
      <trkpt lat="38.3436440" lon="-0.6917490">
        <ele>276.8</ele>
        <time>2018-04-28T06:15:32Z</time>
      </trkpt>
      <trkpt lat="38.3436850" lon="-0.6917590">
        <ele>276.8</ele>
        <time>2018-04-28T06:15:33Z</time>
      </trkpt>
      <trkpt lat="38.3437310" lon="-0.6917780">
        <ele>276.7</ele>
        <time>2018-04-28T06:15:34Z</time>
      </trkpt>
      <trkpt lat="38.3437880" lon="-0.6918060">
        <ele>276.5</ele>
        <time>2018-04-28T06:15:35Z</time>
      </trkpt>
      <trkpt lat="38.3438480" lon="-0.6918390">
        <ele>276.1</ele>
        <time>2018-04-28T06:15:36Z</time>
      </trkpt>
      <trkpt lat="38.3439360" lon="-0.6918850">
        <ele>275.3</ele>
        <time>2018-04-28T06:15:37Z</time>
      </trkpt>
      <trkpt lat="38.3440140" lon="-0.6919300">
        <ele>274.4</ele>
        <time>2018-04-28T06:15:38Z</time>
      </trkpt>
      <trkpt lat="38.3440930" lon="-0.6919660">
        <ele>273.9</ele>
        <time>2018-04-28T06:15:39Z</time>
      </trkpt>
      <trkpt lat="38.3441720" lon="-0.6919870">
        <ele>273.5</ele>
        <time>2018-04-28T06:15:40Z</time>
      </trkpt>
      <trkpt lat="38.3442570" lon="-0.6919900">
        <ele>272.8</ele>
        <time>2018-04-28T06:15:41Z</time>
      </trkpt>
      <trkpt lat="38.3443300" lon="-0.6919780">
        <ele>272.2</ele>
        <time>2018-04-28T06:15:42Z</time>
      </trkpt>
      <trkpt lat="38.3444010" lon="-0.6919550">
        <ele>271.8</ele>
        <time>2018-04-28T06:15:43Z</time>
      </trkpt>
      <trkpt lat="38.3444770" lon="-0.6919250">
        <ele>271.4</ele>
        <time>2018-04-28T06:15:44Z</time>
      </trkpt>
      <trkpt lat="38.3445660" lon="-0.6919040">
        <ele>270.9</ele>
        <time>2018-04-28T06:15:45Z</time>
      </trkpt>
      <trkpt lat="38.3446510" lon="-0.6918770">
        <ele>270.6</ele>
        <time>2018-04-28T06:15:46Z</time>
      </trkpt>
      <trkpt lat="38.3447240" lon="-0.6918550">
        <ele>270.6</ele>
        <time>2018-04-28T06:15:47Z</time>
      </trkpt>
      <trkpt lat="38.3447990" lon="-0.6918270">
        <ele>270.7</ele>
        <time>2018-04-28T06:15:48Z</time>
      </trkpt>
      <trkpt lat="38.3448590" lon="-0.6917930">
        <ele>271.0</ele>
        <time>2018-04-28T06:15:49Z</time>
      </trkpt>
      <trkpt lat="38.3449200" lon="-0.6917590">
        <ele>271.2</ele>
        <time>2018-04-28T06:15:50Z</time>
      </trkpt>
      <trkpt lat="38.3449840" lon="-0.6917300">
        <ele>271.5</ele>
        <time>2018-04-28T06:15:51Z</time>
      </trkpt>
      <trkpt lat="38.3450510" lon="-0.6917050">
        <ele>271.7</ele>
        <time>2018-04-28T06:15:52Z</time>
      </trkpt>
      <trkpt lat="38.3451170" lon="-0.6916790">
        <ele>271.7</ele>
        <time>2018-04-28T06:15:53Z</time>
      </trkpt>
      <trkpt lat="38.3451890" lon="-0.6916490">
        <ele>271.8</ele>
        <time>2018-04-28T06:15:54Z</time>
      </trkpt>
      <trkpt lat="38.3452610" lon="-0.6916210">
        <ele>271.9</ele>
        <time>2018-04-28T06:15:55Z</time>
      </trkpt>
      <trkpt lat="38.3453310" lon="-0.6915930">
        <ele>272.0</ele>
        <time>2018-04-28T06:15:56Z</time>
      </trkpt>
      <trkpt lat="38.3454020" lon="-0.6915670">
        <ele>272.0</ele>
        <time>2018-04-28T06:15:57Z</time>
      </trkpt>
      <trkpt lat="38.3454740" lon="-0.6915430">
        <ele>272.0</ele>
        <time>2018-04-28T06:15:58Z</time>
      </trkpt>
      <trkpt lat="38.3455400" lon="-0.6915090">
        <ele>272.0</ele>
        <time>2018-04-28T06:15:59Z</time>
      </trkpt>
      <trkpt lat="38.3456100" lon="-0.6914810">
        <ele>272.0</ele>
        <time>2018-04-28T06:16:00Z</time>
      </trkpt>
      <trkpt lat="38.3456860" lon="-0.6914550">
        <ele>271.9</ele>
        <time>2018-04-28T06:16:01Z</time>
      </trkpt>
      <trkpt lat="38.3457580" lon="-0.6914230">
        <ele>271.8</ele>
        <time>2018-04-28T06:16:02Z</time>
      </trkpt>
      <trkpt lat="38.3458390" lon="-0.6913830">
        <ele>271.6</ele>
        <time>2018-04-28T06:16:03Z</time>
      </trkpt>
      <trkpt lat="38.3459200" lon="-0.6913470">
        <ele>271.5</ele>
        <time>2018-04-28T06:16:04Z</time>
      </trkpt>
      <trkpt lat="38.3459950" lon="-0.6913110">
        <ele>271.3</ele>
        <time>2018-04-28T06:16:05Z</time>
      </trkpt>
      <trkpt lat="38.3460640" lon="-0.6912800">
        <ele>271.2</ele>
        <time>2018-04-28T06:16:06Z</time>
      </trkpt>
      <trkpt lat="38.3461290" lon="-0.6912430">
        <ele>271.0</ele>
        <time>2018-04-28T06:16:07Z</time>
      </trkpt>
      <trkpt lat="38.3461990" lon="-0.6912080">
        <ele>270.5</ele>
        <time>2018-04-28T06:16:08Z</time>
      </trkpt>
      <trkpt lat="38.3462750" lon="-0.6911730">
        <ele>270.0</ele>
        <time>2018-04-28T06:16:09Z</time>
      </trkpt>
      <trkpt lat="38.3463530" lon="-0.6911420">
        <ele>269.7</ele>
        <time>2018-04-28T06:16:10Z</time>
      </trkpt>
      <trkpt lat="38.3464310" lon="-0.6911280">
        <ele>269.6</ele>
        <time>2018-04-28T06:16:11Z</time>
      </trkpt>
      <trkpt lat="38.3465120" lon="-0.6911240">
        <ele>269.9</ele>
        <time>2018-04-28T06:16:12Z</time>
      </trkpt>
      <trkpt lat="38.3465870" lon="-0.6911270">
        <ele>270.4</ele>
        <time>2018-04-28T06:16:13Z</time>
      </trkpt>
      <trkpt lat="38.3466660" lon="-0.6911320">
        <ele>270.8</ele>
        <time>2018-04-28T06:16:14Z</time>
      </trkpt>
      <trkpt lat="38.3467440" lon="-0.6911360">
        <ele>271.5</ele>
        <time>2018-04-28T06:16:15Z</time>
      </trkpt>
      <trkpt lat="38.3468180" lon="-0.6911430">
        <ele>272.2</ele>
        <time>2018-04-28T06:16:16Z</time>
      </trkpt>
      <trkpt lat="38.3468930" lon="-0.6911490">
        <ele>272.7</ele>
        <time>2018-04-28T06:16:17Z</time>
      </trkpt>
      <trkpt lat="38.3469670" lon="-0.6911470">
        <ele>273.2</ele>
        <time>2018-04-28T06:16:18Z</time>
      </trkpt>
      <trkpt lat="38.3470310" lon="-0.6911450">
        <ele>273.8</ele>
        <time>2018-04-28T06:16:19Z</time>
      </trkpt>
      <trkpt lat="38.3470860" lon="-0.6911120">
        <ele>274.2</ele>
        <time>2018-04-28T06:16:20Z</time>
      </trkpt>
      <trkpt lat="38.3471280" lon="-0.6910880">
        <ele>274.4</ele>
        <time>2018-04-28T06:16:21Z</time>
      </trkpt>
      <trkpt lat="38.3471640" lon="-0.6910760">
        <ele>274.6</ele>
        <time>2018-04-28T06:16:22Z</time>
      </trkpt>
      <trkpt lat="38.3472030" lon="-0.6910630">
        <ele>274.7</ele>
        <time>2018-04-28T06:16:23Z</time>
      </trkpt>
      <trkpt lat="38.3472480" lon="-0.6910500">
        <ele>274.7</ele>
        <time>2018-04-28T06:16:24Z</time>
      </trkpt>
      <trkpt lat="38.3472930" lon="-0.6910380">
        <ele>274.7</ele>
        <time>2018-04-28T06:16:25Z</time>
      </trkpt>
      <trkpt lat="38.3473450" lon="-0.6910240">
        <ele>274.7</ele>
        <time>2018-04-28T06:16:26Z</time>
      </trkpt>
      <trkpt lat="38.3474120" lon="-0.6909980">
        <ele>274.7</ele>
        <time>2018-04-28T06:16:27Z</time>
      </trkpt>
      <trkpt lat="38.3474780" lon="-0.6909650">
        <ele>274.6</ele>
        <time>2018-04-28T06:16:28Z</time>
      </trkpt>
      <trkpt lat="38.3475420" lon="-0.6909370">
        <ele>274.5</ele>
        <time>2018-04-28T06:16:29Z</time>
      </trkpt>
      <trkpt lat="38.3476100" lon="-0.6909090">
        <ele>274.4</ele>
        <time>2018-04-28T06:16:30Z</time>
      </trkpt>
      <trkpt lat="38.3476710" lon="-0.6908810">
        <ele>274.3</ele>
        <time>2018-04-28T06:16:31Z</time>
      </trkpt>
      <trkpt lat="38.3477310" lon="-0.6908420">
        <ele>274.2</ele>
        <time>2018-04-28T06:16:32Z</time>
      </trkpt>
      <trkpt lat="38.3477830" lon="-0.6907970">
        <ele>274.2</ele>
        <time>2018-04-28T06:16:33Z</time>
      </trkpt>
      <trkpt lat="38.3477990" lon="-0.6907220">
        <ele>274.3</ele>
        <time>2018-04-28T06:16:34Z</time>
      </trkpt>
      <trkpt lat="38.3478300" lon="-0.6906560">
        <ele>274.6</ele>
        <time>2018-04-28T06:16:35Z</time>
      </trkpt>
      <trkpt lat="38.3478460" lon="-0.6905960">
        <ele>274.8</ele>
        <time>2018-04-28T06:16:36Z</time>
      </trkpt>
      <trkpt lat="38.3478630" lon="-0.6905320">
        <ele>275.4</ele>
        <time>2018-04-28T06:16:37Z</time>
      </trkpt>
      <trkpt lat="38.3478720" lon="-0.6904730">
        <ele>276.3</ele>
        <time>2018-04-28T06:16:38Z</time>
      </trkpt>
      <trkpt lat="38.3478730" lon="-0.6904240">
        <ele>277.2</ele>
        <time>2018-04-28T06:16:39Z</time>
      </trkpt>
      <trkpt lat="38.3478690" lon="-0.6903860">
        <ele>277.8</ele>
        <time>2018-04-28T06:16:40Z</time>
      </trkpt>
      <trkpt lat="38.3478590" lon="-0.6903570">
        <ele>278.5</ele>
        <time>2018-04-28T06:16:41Z</time>
      </trkpt>
      <trkpt lat="38.3478600" lon="-0.6903490">
        <ele>278.6</ele>
        <time>2018-04-28T06:16:42Z</time>
      </trkpt>
      <trkpt lat="38.3478550" lon="-0.6903320">
        <ele>278.9</ele>
        <time>2018-04-28T06:16:43Z</time>
      </trkpt>
      <trkpt lat="38.3478470" lon="-0.6903130">
        <ele>279.3</ele>
        <time>2018-04-28T06:16:44Z</time>
      </trkpt>
      <trkpt lat="38.3478380" lon="-0.6902970">
        <ele>279.6</ele>
        <time>2018-04-28T06:16:45Z</time>
      </trkpt>
      <trkpt lat="38.3478300" lon="-0.6902820">
        <ele>280.0</ele>
        <time>2018-04-28T06:16:46Z</time>
      </trkpt>
      <trkpt lat="38.3478200" lon="-0.6902660">
        <ele>280.4</ele>
        <time>2018-04-28T06:16:47Z</time>
      </trkpt>
      <trkpt lat="38.3478090" lon="-0.6902530">
        <ele>280.7</ele>
        <time>2018-04-28T06:16:48Z</time>
      </trkpt>
      <trkpt lat="38.3478010" lon="-0.6902410">
        <ele>281.0</ele>
        <time>2018-04-28T06:16:49Z</time>
      </trkpt>
      <trkpt lat="38.3477940" lon="-0.6902320">
        <ele>281.2</ele>
        <time>2018-04-28T06:16:50Z</time>
      </trkpt>
      <trkpt lat="38.3477850" lon="-0.6902230">
        <ele>281.6</ele>
        <time>2018-04-28T06:16:51Z</time>
      </trkpt>
      <trkpt lat="38.3477740" lon="-0.6902160">
        <ele>281.9</ele>
        <time>2018-04-28T06:16:52Z</time>
      </trkpt>
      <trkpt lat="38.3477650" lon="-0.6902070">
        <ele>282.2</ele>
        <time>2018-04-28T06:16:53Z</time>
      </trkpt>
      <trkpt lat="38.3477560" lon="-0.6901980">
        <ele>282.5</ele>
        <time>2018-04-28T06:16:54Z</time>
      </trkpt>
      <trkpt lat="38.3477460" lon="-0.6901900">
        <ele>282.7</ele>
        <time>2018-04-28T06:16:55Z</time>
      </trkpt>
      <trkpt lat="38.3477350" lon="-0.6901820">
        <ele>283.0</ele>
        <time>2018-04-28T06:16:56Z</time>
      </trkpt>
      <trkpt lat="38.3477240" lon="-0.6901780">
        <ele>283.2</ele>
        <time>2018-04-28T06:16:57Z</time>
      </trkpt>
      <trkpt lat="38.3477120" lon="-0.6901730">
        <ele>283.5</ele>
        <time>2018-04-28T06:16:58Z</time>
      </trkpt>
      <trkpt lat="38.3476990" lon="-0.6901680">
        <ele>283.8</ele>
        <time>2018-04-28T06:16:59Z</time>
      </trkpt>
      <trkpt lat="38.3476870" lon="-0.6901670">
        <ele>284.1</ele>
        <time>2018-04-28T06:17:00Z</time>
      </trkpt>
      <trkpt lat="38.3476760" lon="-0.6901640">
        <ele>284.4</ele>
        <time>2018-04-28T06:17:01Z</time>
      </trkpt>
      <trkpt lat="38.3476630" lon="-0.6901600">
        <ele>284.8</ele>
        <time>2018-04-28T06:17:02Z</time>
      </trkpt>
      <trkpt lat="38.3476510" lon="-0.6901590">
        <ele>285.1</ele>
        <time>2018-04-28T06:17:03Z</time>
      </trkpt>
      <trkpt lat="38.3476400" lon="-0.6901560">
        <ele>285.3</ele>
        <time>2018-04-28T06:17:04Z</time>
      </trkpt>
      <trkpt lat="38.3476270" lon="-0.6901560">
        <ele>285.5</ele>
        <time>2018-04-28T06:17:05Z</time>
      </trkpt>
      <trkpt lat="38.3476180" lon="-0.6901560">
        <ele>285.6</ele>
        <time>2018-04-28T06:17:06Z</time>
      </trkpt>
      <trkpt lat="38.3476040" lon="-0.6901570">
        <ele>285.7</ele>
        <time>2018-04-28T06:17:07Z</time>
      </trkpt>
      <trkpt lat="38.3475930" lon="-0.6901560">
        <ele>285.9</ele>
        <time>2018-04-28T06:17:08Z</time>
      </trkpt>
      <trkpt lat="38.3475830" lon="-0.6901580">
        <ele>286.0</ele>
        <time>2018-04-28T06:17:09Z</time>
      </trkpt>
      <trkpt lat="38.3475710" lon="-0.6901600">
        <ele>286.1</ele>
        <time>2018-04-28T06:17:10Z</time>
      </trkpt>
      <trkpt lat="38.3475620" lon="-0.6901590">
        <ele>286.3</ele>
        <time>2018-04-28T06:17:11Z</time>
      </trkpt>
      <trkpt lat="38.3475510" lon="-0.6901600">
        <ele>286.5</ele>
        <time>2018-04-28T06:17:12Z</time>
      </trkpt>
      <trkpt lat="38.3475400" lon="-0.6901600">
        <ele>286.6</ele>
        <time>2018-04-28T06:17:13Z</time>
      </trkpt>
      <trkpt lat="38.3475270" lon="-0.6901640">
        <ele>286.8</ele>
        <time>2018-04-28T06:17:14Z</time>
      </trkpt>
      <trkpt lat="38.3475150" lon="-0.6901660">
        <ele>287.0</ele>
        <time>2018-04-28T06:17:15Z</time>
      </trkpt>
      <trkpt lat="38.3475010" lon="-0.6901670">
        <ele>287.2</ele>
        <time>2018-04-28T06:17:16Z</time>
      </trkpt>
      <trkpt lat="38.3474890" lon="-0.6901700">
        <ele>287.3</ele>
        <time>2018-04-28T06:17:17Z</time>
      </trkpt>
      <trkpt lat="38.3474790" lon="-0.6901730">
        <ele>287.3</ele>
        <time>2018-04-28T06:17:18Z</time>
      </trkpt>
      <trkpt lat="38.3474720" lon="-0.6901750">
        <ele>287.3</ele>
        <time>2018-04-28T06:17:19Z</time>
      </trkpt>
      <trkpt lat="38.3474620" lon="-0.6901760">
        <ele>287.4</ele>
        <time>2018-04-28T06:17:20Z</time>
      </trkpt>
      <trkpt lat="38.3474570" lon="-0.6901800">
        <ele>287.4</ele>
        <time>2018-04-28T06:17:21Z</time>
      </trkpt>
      <trkpt lat="38.3474500" lon="-0.6901810">
        <ele>287.4</ele>
        <time>2018-04-28T06:17:22Z</time>
      </trkpt>
      <trkpt lat="38.3474400" lon="-0.6901850">
        <ele>287.4</ele>
        <time>2018-04-28T06:17:23Z</time>
      </trkpt>
      <trkpt lat="38.3474290" lon="-0.6901930">
        <ele>287.5</ele>
        <time>2018-04-28T06:17:24Z</time>
      </trkpt>
      <trkpt lat="38.3474140" lon="-0.6902000">
        <ele>287.5</ele>
        <time>2018-04-28T06:17:25Z</time>
      </trkpt>
      <trkpt lat="38.3473940" lon="-0.6902080">
        <ele>287.6</ele>
        <time>2018-04-28T06:17:26Z</time>
      </trkpt>
      <trkpt lat="38.3473740" lon="-0.6902170">
        <ele>287.7</ele>
        <time>2018-04-28T06:17:27Z</time>
      </trkpt>
      <trkpt lat="38.3473460" lon="-0.6902300">
        <ele>287.8</ele>
        <time>2018-04-28T06:17:28Z</time>
      </trkpt>
      <trkpt lat="38.3473000" lon="-0.6902510">
        <ele>287.9</ele>
        <time>2018-04-28T06:17:29Z</time>
      </trkpt>
      <trkpt lat="38.3472570" lon="-0.6902650">
        <ele>288.0</ele>
        <time>2018-04-28T06:17:30Z</time>
      </trkpt>
      <trkpt lat="38.3472080" lon="-0.6902700">
        <ele>288.2</ele>
        <time>2018-04-28T06:17:31Z</time>
      </trkpt>
      <trkpt lat="38.3471580" lon="-0.6902640">
        <ele>288.6</ele>
        <time>2018-04-28T06:17:32Z</time>
      </trkpt>
      <trkpt lat="38.3471150" lon="-0.6902550">
        <ele>289.1</ele>
        <time>2018-04-28T06:17:33Z</time>
      </trkpt>
      <trkpt lat="38.3470800" lon="-0.6902440">
        <ele>290.0</ele>
        <time>2018-04-28T06:17:34Z</time>
      </trkpt>
      <trkpt lat="38.3470620" lon="-0.6902310">
        <ele>290.5</ele>
        <time>2018-04-28T06:17:35Z</time>
      </trkpt>
      <trkpt lat="38.3470610" lon="-0.6902300">
        <ele>290.6</ele>
        <time>2018-04-28T06:17:36Z</time>
      </trkpt>
      <trkpt lat="38.3470550" lon="-0.6902310">
        <ele>290.7</ele>
        <time>2018-04-28T06:17:37Z</time>
      </trkpt>
      <trkpt lat="38.3470480" lon="-0.6902280">
        <ele>290.9</ele>
        <time>2018-04-28T06:17:38Z</time>
      </trkpt>
      <trkpt lat="38.3470370" lon="-0.6902240">
        <ele>291.3</ele>
        <time>2018-04-28T06:17:39Z</time>
      </trkpt>
      <trkpt lat="38.3470300" lon="-0.6902140">
        <ele>291.7</ele>
        <time>2018-04-28T06:17:40Z</time>
      </trkpt>
      <trkpt lat="38.3470230" lon="-0.6902070">
        <ele>292.2</ele>
        <time>2018-04-28T06:17:41Z</time>
      </trkpt>
      <trkpt lat="38.3470140" lon="-0.6902000">
        <ele>292.9</ele>
        <time>2018-04-28T06:17:42Z</time>
      </trkpt>
      <trkpt lat="38.3470040" lon="-0.6901930">
        <ele>293.0</ele>
        <time>2018-04-28T06:17:43Z</time>
      </trkpt>
      <trkpt lat="38.3469950" lon="-0.6901830">
        <ele>293.2</ele>
        <time>2018-04-28T06:17:44Z</time>
      </trkpt>
      <trkpt lat="38.3469860" lon="-0.6901740">
        <ele>293.3</ele>
        <time>2018-04-28T06:17:45Z</time>
      </trkpt>
      <trkpt lat="38.3469780" lon="-0.6901640">
        <ele>293.5</ele>
        <time>2018-04-28T06:17:46Z</time>
      </trkpt>
      <trkpt lat="38.3469710" lon="-0.6901550">
        <ele>293.6</ele>
        <time>2018-04-28T06:17:47Z</time>
      </trkpt>
      <trkpt lat="38.3469650" lon="-0.6901510">
        <ele>293.7</ele>
        <time>2018-04-28T06:17:48Z</time>
      </trkpt>
      <trkpt lat="38.3469590" lon="-0.6901450">
        <ele>293.8</ele>
        <time>2018-04-28T06:17:49Z</time>
      </trkpt>
      <trkpt lat="38.3469510" lon="-0.6901380">
        <ele>293.9</ele>
        <time>2018-04-28T06:17:50Z</time>
      </trkpt>
      <trkpt lat="38.3469460" lon="-0.6901270">
        <ele>294.1</ele>
        <time>2018-04-28T06:17:51Z</time>
      </trkpt>
      <trkpt lat="38.3469390" lon="-0.6901150">
        <ele>294.2</ele>
        <time>2018-04-28T06:17:52Z</time>
      </trkpt>
      <trkpt lat="38.3469330" lon="-0.6901020">
        <ele>294.4</ele>
        <time>2018-04-28T06:17:53Z</time>
      </trkpt>
      <trkpt lat="38.3469280" lon="-0.6900890">
        <ele>294.5</ele>
        <time>2018-04-28T06:17:54Z</time>
      </trkpt>
      <trkpt lat="38.3469260" lon="-0.6900760">
        <ele>294.6</ele>
        <time>2018-04-28T06:17:55Z</time>
      </trkpt>
      <trkpt lat="38.3469240" lon="-0.6900620">
        <ele>294.8</ele>
        <time>2018-04-28T06:17:56Z</time>
      </trkpt>
      <trkpt lat="38.3469230" lon="-0.6900480">
        <ele>294.9</ele>
        <time>2018-04-28T06:17:57Z</time>
      </trkpt>
      <trkpt lat="38.3469240" lon="-0.6900330">
        <ele>295.1</ele>
        <time>2018-04-28T06:17:58Z</time>
      </trkpt>
      <trkpt lat="38.3469240" lon="-0.6900170">
        <ele>295.3</ele>
        <time>2018-04-28T06:17:59Z</time>
      </trkpt>
      <trkpt lat="38.3469250" lon="-0.6900000">
        <ele>295.4</ele>
        <time>2018-04-28T06:18:00Z</time>
      </trkpt>
      <trkpt lat="38.3469280" lon="-0.6899850">
        <ele>295.6</ele>
        <time>2018-04-28T06:18:01Z</time>
      </trkpt>
      <trkpt lat="38.3469300" lon="-0.6899660">
        <ele>295.8</ele>
        <time>2018-04-28T06:18:02Z</time>
      </trkpt>
      <trkpt lat="38.3469330" lon="-0.6899480">
        <ele>296.0</ele>
        <time>2018-04-28T06:18:03Z</time>
      </trkpt>
      <trkpt lat="38.3469340" lon="-0.6899320">
        <ele>296.1</ele>
        <time>2018-04-28T06:18:04Z</time>
      </trkpt>
      <trkpt lat="38.3469380" lon="-0.6899180">
        <ele>296.3</ele>
        <time>2018-04-28T06:18:05Z</time>
      </trkpt>
      <trkpt lat="38.3469390" lon="-0.6899030">
        <ele>296.5</ele>
        <time>2018-04-28T06:18:06Z</time>
      </trkpt>
      <trkpt lat="38.3469440" lon="-0.6898860">
        <ele>296.8</ele>
        <time>2018-04-28T06:18:07Z</time>
      </trkpt>
      <trkpt lat="38.3469480" lon="-0.6898680">
        <ele>297.1</ele>
        <time>2018-04-28T06:18:08Z</time>
      </trkpt>
      <trkpt lat="38.3469530" lon="-0.6898490">
        <ele>297.4</ele>
        <time>2018-04-28T06:18:09Z</time>
      </trkpt>
      <trkpt lat="38.3469580" lon="-0.6898310">
        <ele>297.8</ele>
        <time>2018-04-28T06:18:10Z</time>
      </trkpt>
      <trkpt lat="38.3469620" lon="-0.6898130">
        <ele>298.2</ele>
        <time>2018-04-28T06:18:11Z</time>
      </trkpt>
      <trkpt lat="38.3469670" lon="-0.6897950">
        <ele>298.7</ele>
        <time>2018-04-28T06:18:12Z</time>
      </trkpt>
      <trkpt lat="38.3469720" lon="-0.6897760">
        <ele>299.0</ele>
        <time>2018-04-28T06:18:13Z</time>
      </trkpt>
      <trkpt lat="38.3469780" lon="-0.6897570">
        <ele>299.2</ele>
        <time>2018-04-28T06:18:14Z</time>
      </trkpt>
      <trkpt lat="38.3469830" lon="-0.6897380">
        <ele>299.3</ele>
        <time>2018-04-28T06:18:15Z</time>
      </trkpt>
      <trkpt lat="38.3469840" lon="-0.6897190">
        <ele>299.4</ele>
        <time>2018-04-28T06:18:16Z</time>
      </trkpt>
      <trkpt lat="38.3469860" lon="-0.6897000">
        <ele>299.6</ele>
        <time>2018-04-28T06:18:17Z</time>
      </trkpt>
      <trkpt lat="38.3469880" lon="-0.6896810">
        <ele>299.7</ele>
        <time>2018-04-28T06:18:18Z</time>
      </trkpt>
      <trkpt lat="38.3469900" lon="-0.6896610">
        <ele>299.8</ele>
        <time>2018-04-28T06:18:19Z</time>
      </trkpt>
      <trkpt lat="38.3469900" lon="-0.6896430">
        <ele>300.0</ele>
        <time>2018-04-28T06:18:20Z</time>
      </trkpt>
      <trkpt lat="38.3469920" lon="-0.6896250">
        <ele>300.1</ele>
        <time>2018-04-28T06:18:21Z</time>
      </trkpt>
      <trkpt lat="38.3469940" lon="-0.6896060">
        <ele>300.2</ele>
        <time>2018-04-28T06:18:22Z</time>
      </trkpt>
      <trkpt lat="38.3469930" lon="-0.6895870">
        <ele>300.3</ele>
        <time>2018-04-28T06:18:23Z</time>
      </trkpt>
      <trkpt lat="38.3469970" lon="-0.6895680">
        <ele>300.4</ele>
        <time>2018-04-28T06:18:24Z</time>
      </trkpt>
      <trkpt lat="38.3470000" lon="-0.6895500">
        <ele>300.5</ele>
        <time>2018-04-28T06:18:25Z</time>
      </trkpt>
      <trkpt lat="38.3469990" lon="-0.6895330">
        <ele>300.7</ele>
        <time>2018-04-28T06:18:26Z</time>
      </trkpt>
      <trkpt lat="38.3470010" lon="-0.6895260">
        <ele>300.7</ele>
        <time>2018-04-28T06:18:27Z</time>
      </trkpt>
      <trkpt lat="38.3470010" lon="-0.6895230">
        <ele>300.7</ele>
        <time>2018-04-28T06:18:28Z</time>
      </trkpt>
      <trkpt lat="38.3470010" lon="-0.6895210">
        <ele>300.7</ele>
        <time>2018-04-28T06:18:29Z</time>
      </trkpt>
      <trkpt lat="38.3470010" lon="-0.6895060">
        <ele>300.8</ele>
        <time>2018-04-28T06:18:30Z</time>
      </trkpt>
      <trkpt lat="38.3470030" lon="-0.6894900">
        <ele>300.9</ele>
        <time>2018-04-28T06:18:31Z</time>
      </trkpt>
      <trkpt lat="38.3470020" lon="-0.6894640">
        <ele>301.2</ele>
        <time>2018-04-28T06:18:32Z</time>
      </trkpt>
      <trkpt lat="38.3470020" lon="-0.6894350">
        <ele>301.4</ele>
        <time>2018-04-28T06:18:33Z</time>
      </trkpt>
      <trkpt lat="38.3470040" lon="-0.6894070">
        <ele>301.5</ele>
        <time>2018-04-28T06:18:34Z</time>
      </trkpt>
      <trkpt lat="38.3470030" lon="-0.6893740">
        <ele>301.7</ele>
        <time>2018-04-28T06:18:35Z</time>
      </trkpt>
      <trkpt lat="38.3470040" lon="-0.6893420">
        <ele>301.8</ele>
        <time>2018-04-28T06:18:36Z</time>
      </trkpt>
      <trkpt lat="38.3470080" lon="-0.6893100">
        <ele>302.0</ele>
        <time>2018-04-28T06:18:37Z</time>
      </trkpt>
      <trkpt lat="38.3470090" lon="-0.6892770">
        <ele>302.1</ele>
        <time>2018-04-28T06:18:38Z</time>
      </trkpt>
      <trkpt lat="38.3470090" lon="-0.6892440">
        <ele>302.3</ele>
        <time>2018-04-28T06:18:39Z</time>
      </trkpt>
      <trkpt lat="38.3470100" lon="-0.6892130">
        <ele>302.5</ele>
        <time>2018-04-28T06:18:40Z</time>
      </trkpt>
      <trkpt lat="38.3470120" lon="-0.6891840">
        <ele>302.6</ele>
        <time>2018-04-28T06:18:41Z</time>
      </trkpt>
      <trkpt lat="38.3470150" lon="-0.6891550">
        <ele>302.7</ele>
        <time>2018-04-28T06:18:42Z</time>
      </trkpt>
      <trkpt lat="38.3470200" lon="-0.6891260">
        <ele>302.9</ele>
        <time>2018-04-28T06:18:43Z</time>
      </trkpt>
      <trkpt lat="38.3470250" lon="-0.6890990">
        <ele>303.1</ele>
        <time>2018-04-28T06:18:44Z</time>
      </trkpt>
      <trkpt lat="38.3470250" lon="-0.6890720">
        <ele>303.4</ele>
        <time>2018-04-28T06:18:45Z</time>
      </trkpt>
      <trkpt lat="38.3470260" lon="-0.6890450">
        <ele>303.6</ele>
        <time>2018-04-28T06:18:46Z</time>
      </trkpt>
      <trkpt lat="38.3470280" lon="-0.6890180">
        <ele>303.7</ele>
        <time>2018-04-28T06:18:47Z</time>
      </trkpt>
      <trkpt lat="38.3470300" lon="-0.6889930">
        <ele>303.9</ele>
        <time>2018-04-28T06:18:48Z</time>
      </trkpt>
      <trkpt lat="38.3470280" lon="-0.6889690">
        <ele>304.0</ele>
        <time>2018-04-28T06:18:49Z</time>
      </trkpt>
      <trkpt lat="38.3470260" lon="-0.6889430">
        <ele>304.1</ele>
        <time>2018-04-28T06:18:50Z</time>
      </trkpt>
      <trkpt lat="38.3470260" lon="-0.6889160">
        <ele>304.2</ele>
        <time>2018-04-28T06:18:51Z</time>
      </trkpt>
      <trkpt lat="38.3470270" lon="-0.6888880">
        <ele>304.4</ele>
        <time>2018-04-28T06:18:52Z</time>
      </trkpt>
      <trkpt lat="38.3470270" lon="-0.6888600">
        <ele>304.4</ele>
        <time>2018-04-28T06:18:53Z</time>
      </trkpt>
      <trkpt lat="38.3470290" lon="-0.6888310">
        <ele>304.4</ele>
        <time>2018-04-28T06:18:54Z</time>
      </trkpt>
      <trkpt lat="38.3470330" lon="-0.6888020">
        <ele>304.4</ele>
        <time>2018-04-28T06:18:55Z</time>
      </trkpt>
      <trkpt lat="38.3470360" lon="-0.6887720">
        <ele>304.4</ele>
        <time>2018-04-28T06:18:56Z</time>
      </trkpt>
      <trkpt lat="38.3470380" lon="-0.6887340">
        <ele>304.4</ele>
        <time>2018-04-28T06:18:57Z</time>
      </trkpt>
      <trkpt lat="38.3470420" lon="-0.6886900">
        <ele>304.4</ele>
        <time>2018-04-28T06:18:58Z</time>
      </trkpt>
      <trkpt lat="38.3470430" lon="-0.6886380">
        <ele>304.4</ele>
        <time>2018-04-28T06:18:59Z</time>
      </trkpt>
      <trkpt lat="38.3470460" lon="-0.6885780">
        <ele>304.4</ele>
        <time>2018-04-28T06:19:00Z</time>
      </trkpt>
      <trkpt lat="38.3470530" lon="-0.6885160">
        <ele>304.4</ele>
        <time>2018-04-28T06:19:01Z</time>
      </trkpt>
      <trkpt lat="38.3470630" lon="-0.6884520">
        <ele>304.3</ele>
        <time>2018-04-28T06:19:02Z</time>
      </trkpt>
      <trkpt lat="38.3470720" lon="-0.6883880">
        <ele>304.2</ele>
        <time>2018-04-28T06:19:03Z</time>
      </trkpt>
      <trkpt lat="38.3470840" lon="-0.6883180">
        <ele>304.2</ele>
        <time>2018-04-28T06:19:04Z</time>
      </trkpt>
      <trkpt lat="38.3470960" lon="-0.6882510">
        <ele>304.1</ele>
        <time>2018-04-28T06:19:05Z</time>
      </trkpt>
      <trkpt lat="38.3471060" lon="-0.6881780">
        <ele>303.9</ele>
        <time>2018-04-28T06:19:06Z</time>
      </trkpt>
      <trkpt lat="38.3471140" lon="-0.6881040">
        <ele>303.8</ele>
        <time>2018-04-28T06:19:07Z</time>
      </trkpt>
      <trkpt lat="38.3471240" lon="-0.6880320">
        <ele>303.6</ele>
        <time>2018-04-28T06:19:08Z</time>
      </trkpt>
      <trkpt lat="38.3471390" lon="-0.6879540">
        <ele>303.4</ele>
        <time>2018-04-28T06:19:09Z</time>
      </trkpt>
      <trkpt lat="38.3471560" lon="-0.6878770">
        <ele>303.0</ele>
        <time>2018-04-28T06:19:10Z</time>
      </trkpt>
      <trkpt lat="38.3471710" lon="-0.6877990">
        <ele>302.2</ele>
        <time>2018-04-28T06:19:11Z</time>
      </trkpt>
      <trkpt lat="38.3471810" lon="-0.6877120">
        <ele>301.3</ele>
        <time>2018-04-28T06:19:12Z</time>
      </trkpt>
      <trkpt lat="38.3471950" lon="-0.6876280">
        <ele>300.5</ele>
        <time>2018-04-28T06:19:13Z</time>
      </trkpt>
      <trkpt lat="38.3472060" lon="-0.6875420">
        <ele>299.7</ele>
        <time>2018-04-28T06:19:14Z</time>
      </trkpt>
      <trkpt lat="38.3472290" lon="-0.6874610">
        <ele>298.9</ele>
        <time>2018-04-28T06:19:15Z</time>
      </trkpt>
      <trkpt lat="38.3472510" lon="-0.6873740">
        <ele>298.3</ele>
        <time>2018-04-28T06:19:16Z</time>
      </trkpt>
      <trkpt lat="38.3472700" lon="-0.6872850">
        <ele>297.8</ele>
        <time>2018-04-28T06:19:17Z</time>
      </trkpt>
      <trkpt lat="38.3472920" lon="-0.6871960">
        <ele>296.9</ele>
        <time>2018-04-28T06:19:18Z</time>
      </trkpt>
      <trkpt lat="38.3473310" lon="-0.6871070">
        <ele>296.0</ele>
        <time>2018-04-28T06:19:19Z</time>
      </trkpt>
      <trkpt lat="38.3473620" lon="-0.6870130">
        <ele>295.0</ele>
        <time>2018-04-28T06:19:20Z</time>
      </trkpt>
      <trkpt lat="38.3473930" lon="-0.6869170">
        <ele>294.4</ele>
        <time>2018-04-28T06:19:21Z</time>
      </trkpt>
      <trkpt lat="38.3474220" lon="-0.6868180">
        <ele>293.7</ele>
        <time>2018-04-28T06:19:22Z</time>
      </trkpt>
      <trkpt lat="38.3474540" lon="-0.6867210">
        <ele>293.0</ele>
        <time>2018-04-28T06:19:23Z</time>
      </trkpt>
      <trkpt lat="38.3474830" lon="-0.6866260">
        <ele>292.4</ele>
        <time>2018-04-28T06:19:24Z</time>
      </trkpt>
      <trkpt lat="38.3475140" lon="-0.6865340">
        <ele>291.7</ele>
        <time>2018-04-28T06:19:25Z</time>
      </trkpt>
      <trkpt lat="38.3475470" lon="-0.6864390">
        <ele>291.0</ele>
        <time>2018-04-28T06:19:26Z</time>
      </trkpt>
      <trkpt lat="38.3475770" lon="-0.6863410">
        <ele>290.5</ele>
        <time>2018-04-28T06:19:27Z</time>
      </trkpt>
      <trkpt lat="38.3476140" lon="-0.6862510">
        <ele>290.0</ele>
        <time>2018-04-28T06:19:28Z</time>
      </trkpt>
      <trkpt lat="38.3476450" lon="-0.6861610">
        <ele>289.6</ele>
        <time>2018-04-28T06:19:29Z</time>
      </trkpt>
      <trkpt lat="38.3476740" lon="-0.6860700">
        <ele>289.2</ele>
        <time>2018-04-28T06:19:30Z</time>
      </trkpt>
      <trkpt lat="38.3477020" lon="-0.6859780">
        <ele>288.7</ele>
        <time>2018-04-28T06:19:31Z</time>
      </trkpt>
      <trkpt lat="38.3477100" lon="-0.6858820">
        <ele>288.2</ele>
        <time>2018-04-28T06:19:32Z</time>
      </trkpt>
      <trkpt lat="38.3477320" lon="-0.6857940">
        <ele>287.9</ele>
        <time>2018-04-28T06:19:33Z</time>
      </trkpt>
      <trkpt lat="38.3477490" lon="-0.6857090">
        <ele>287.8</ele>
        <time>2018-04-28T06:19:34Z</time>
      </trkpt>
      <trkpt lat="38.3477540" lon="-0.6856320">
        <ele>287.7</ele>
        <time>2018-04-28T06:19:35Z</time>
      </trkpt>
      <trkpt lat="38.3477590" lon="-0.6855520">
        <ele>287.6</ele>
        <time>2018-04-28T06:19:36Z</time>
      </trkpt>
      <trkpt lat="38.3477560" lon="-0.6854740">
        <ele>287.6</ele>
        <time>2018-04-28T06:19:37Z</time>
      </trkpt>
      <trkpt lat="38.3477580" lon="-0.6853870">
        <ele>287.6</ele>
        <time>2018-04-28T06:19:38Z</time>
      </trkpt>
      <trkpt lat="38.3477590" lon="-0.6852990">
        <ele>287.7</ele>
        <time>2018-04-28T06:19:39Z</time>
      </trkpt>
      <trkpt lat="38.3477610" lon="-0.6852150">
        <ele>287.6</ele>
        <time>2018-04-28T06:19:40Z</time>
      </trkpt>
      <trkpt lat="38.3477840" lon="-0.6851370">
        <ele>287.4</ele>
        <time>2018-04-28T06:19:41Z</time>
      </trkpt>
      <trkpt lat="38.3478080" lon="-0.6850620">
        <ele>287.2</ele>
        <time>2018-04-28T06:19:42Z</time>
      </trkpt>
      <trkpt lat="38.3478380" lon="-0.6849860">
        <ele>286.9</ele>
        <time>2018-04-28T06:19:43Z</time>
      </trkpt>
      <trkpt lat="38.3478870" lon="-0.6849380">
        <ele>286.4</ele>
        <time>2018-04-28T06:19:44Z</time>
      </trkpt>
      <trkpt lat="38.3479400" lon="-0.6848860">
        <ele>285.9</ele>
        <time>2018-04-28T06:19:45Z</time>
      </trkpt>
      <trkpt lat="38.3479900" lon="-0.6848370">
        <ele>285.6</ele>
        <time>2018-04-28T06:19:46Z</time>
      </trkpt>
      <trkpt lat="38.3480310" lon="-0.6847990">
        <ele>285.6</ele>
        <time>2018-04-28T06:19:47Z</time>
      </trkpt>
      <trkpt lat="38.3480600" lon="-0.6847710">
        <ele>285.6</ele>
        <time>2018-04-28T06:19:48Z</time>
      </trkpt>
      <trkpt lat="38.3480820" lon="-0.6847520">
        <ele>285.6</ele>
        <time>2018-04-28T06:19:49Z</time>
      </trkpt>
      <trkpt lat="38.3481070" lon="-0.6847240">
        <ele>285.8</ele>
        <time>2018-04-28T06:19:50Z</time>
      </trkpt>
      <trkpt lat="38.3481320" lon="-0.6846960">
        <ele>286.0</ele>
        <time>2018-04-28T06:19:51Z</time>
      </trkpt>
      <trkpt lat="38.3481530" lon="-0.6846690">
        <ele>286.3</ele>
        <time>2018-04-28T06:19:52Z</time>
      </trkpt>
      <trkpt lat="38.3481700" lon="-0.6846480">
        <ele>286.6</ele>
        <time>2018-04-28T06:19:53Z</time>
      </trkpt>
      <trkpt lat="38.3481860" lon="-0.6846270">
        <ele>287.1</ele>
        <time>2018-04-28T06:19:54Z</time>
      </trkpt>
      <trkpt lat="38.3482030" lon="-0.6846020">
        <ele>287.5</ele>
        <time>2018-04-28T06:19:55Z</time>
      </trkpt>
      <trkpt lat="38.3482240" lon="-0.6845840">
        <ele>287.8</ele>
        <time>2018-04-28T06:19:56Z</time>
      </trkpt>
      <trkpt lat="38.3482470" lon="-0.6845650">
        <ele>288.1</ele>
        <time>2018-04-28T06:19:57Z</time>
      </trkpt>
      <trkpt lat="38.3482750" lon="-0.6845450">
        <ele>288.5</ele>
        <time>2018-04-28T06:19:58Z</time>
      </trkpt>
      <trkpt lat="38.3483080" lon="-0.6845260">
        <ele>289.1</ele>
        <time>2018-04-28T06:19:59Z</time>
      </trkpt>
      <trkpt lat="38.3483470" lon="-0.6845170">
        <ele>290.0</ele>
        <time>2018-04-28T06:20:00Z</time>
      </trkpt>
      <trkpt lat="38.3483960" lon="-0.6845100">
        <ele>289.9</ele>
        <time>2018-04-28T06:20:01Z</time>
      </trkpt>
      <trkpt lat="38.3484580" lon="-0.6845130">
        <ele>289.8</ele>
        <time>2018-04-28T06:20:02Z</time>
      </trkpt>
      <trkpt lat="38.3485220" lon="-0.6845270">
        <ele>289.7</ele>
        <time>2018-04-28T06:20:03Z</time>
      </trkpt>
      <trkpt lat="38.3485900" lon="-0.6845470">
        <ele>289.7</ele>
        <time>2018-04-28T06:20:04Z</time>
      </trkpt>
      <trkpt lat="38.3486570" lon="-0.6845710">
        <ele>289.6</ele>
        <time>2018-04-28T06:20:05Z</time>
      </trkpt>
      <trkpt lat="38.3487230" lon="-0.6846040">
        <ele>289.7</ele>
        <time>2018-04-28T06:20:06Z</time>
      </trkpt>
      <trkpt lat="38.3487860" lon="-0.6846420">
        <ele>289.7</ele>
        <time>2018-04-28T06:20:07Z</time>
      </trkpt>
      <trkpt lat="38.3488490" lon="-0.6846830">
        <ele>289.8</ele>
        <time>2018-04-28T06:20:08Z</time>
      </trkpt>
      <trkpt lat="38.3489050" lon="-0.6847250">
        <ele>290.0</ele>
        <time>2018-04-28T06:20:09Z</time>
      </trkpt>
      <trkpt lat="38.3489520" lon="-0.6847530">
        <ele>290.1</ele>
        <time>2018-04-28T06:20:10Z</time>
      </trkpt>
      <trkpt lat="38.3489900" lon="-0.6847620">
        <ele>290.2</ele>
        <time>2018-04-28T06:20:11Z</time>
      </trkpt>
      <trkpt lat="38.3490230" lon="-0.6847610">
        <ele>290.3</ele>
        <time>2018-04-28T06:20:12Z</time>
      </trkpt>
      <trkpt lat="38.3490640" lon="-0.6847490">
        <ele>290.5</ele>
        <time>2018-04-28T06:20:13Z</time>
      </trkpt>
      <trkpt lat="38.3491040" lon="-0.6847290">
        <ele>290.6</ele>
        <time>2018-04-28T06:20:14Z</time>
      </trkpt>
      <trkpt lat="38.3491400" lon="-0.6847030">
        <ele>290.7</ele>
        <time>2018-04-28T06:20:15Z</time>
      </trkpt>
      <trkpt lat="38.3491770" lon="-0.6846760">
        <ele>290.6</ele>
        <time>2018-04-28T06:20:16Z</time>
      </trkpt>
      <trkpt lat="38.3492150" lon="-0.6846420">
        <ele>290.5</ele>
        <time>2018-04-28T06:20:17Z</time>
      </trkpt>
      <trkpt lat="38.3492610" lon="-0.6846020">
        <ele>290.3</ele>
        <time>2018-04-28T06:20:18Z</time>
      </trkpt>
      <trkpt lat="38.3493010" lon="-0.6845590">
        <ele>290.0</ele>
        <time>2018-04-28T06:20:19Z</time>
      </trkpt>
      <trkpt lat="38.3493610" lon="-0.6845080">
        <ele>289.6</ele>
        <time>2018-04-28T06:20:20Z</time>
      </trkpt>
      <trkpt lat="38.3494270" lon="-0.6844880">
        <ele>289.3</ele>
        <time>2018-04-28T06:20:21Z</time>
      </trkpt>
      <trkpt lat="38.3494600" lon="-0.6844960">
        <ele>289.0</ele>
        <time>2018-04-28T06:20:22Z</time>
      </trkpt>
      <trkpt lat="38.3495020" lon="-0.6845110">
        <ele>289.0</ele>
        <time>2018-04-28T06:20:23Z</time>
      </trkpt>
      <trkpt lat="38.3495480" lon="-0.6845310">
        <ele>289.0</ele>
        <time>2018-04-28T06:20:24Z</time>
      </trkpt>
      <trkpt lat="38.3495920" lon="-0.6845380">
        <ele>287.1</ele>
        <time>2018-04-28T06:20:25Z</time>
      </trkpt>
      <trkpt lat="38.3496270" lon="-0.6845140">
        <ele>285.2</ele>
        <time>2018-04-28T06:20:26Z</time>
      </trkpt>
      <trkpt lat="38.3496600" lon="-0.6844780">
        <ele>285.3</ele>
        <time>2018-04-28T06:20:27Z</time>
      </trkpt>
      <trkpt lat="38.3496770" lon="-0.6844320">
        <ele>285.4</ele>
        <time>2018-04-28T06:20:28Z</time>
      </trkpt>
      <trkpt lat="38.3496930" lon="-0.6843810">
        <ele>285.4</ele>
        <time>2018-04-28T06:20:29Z</time>
      </trkpt>
      <trkpt lat="38.3497060" lon="-0.6843260">
        <ele>285.4</ele>
        <time>2018-04-28T06:20:30Z</time>
      </trkpt>
      <trkpt lat="38.3497200" lon="-0.6842700">
        <ele>285.5</ele>
        <time>2018-04-28T06:20:31Z</time>
      </trkpt>
      <trkpt lat="38.3497360" lon="-0.6842150">
        <ele>285.5</ele>
        <time>2018-04-28T06:20:32Z</time>
      </trkpt>
      <trkpt lat="38.3497550" lon="-0.6841590">
        <ele>285.5</ele>
        <time>2018-04-28T06:20:33Z</time>
      </trkpt>
      <trkpt lat="38.3497750" lon="-0.6841040">
        <ele>285.5</ele>
        <time>2018-04-28T06:20:34Z</time>
      </trkpt>
      <trkpt lat="38.3497950" lon="-0.6840460">
        <ele>285.4</ele>
        <time>2018-04-28T06:20:35Z</time>
      </trkpt>
      <trkpt lat="38.3498120" lon="-0.6839870">
        <ele>285.4</ele>
        <time>2018-04-28T06:20:36Z</time>
      </trkpt>
      <trkpt lat="38.3498250" lon="-0.6839260">
        <ele>285.3</ele>
        <time>2018-04-28T06:20:37Z</time>
      </trkpt>
      <trkpt lat="38.3498380" lon="-0.6838630">
        <ele>285.0</ele>
        <time>2018-04-28T06:20:38Z</time>
      </trkpt>
      <trkpt lat="38.3498490" lon="-0.6837980">
        <ele>284.7</ele>
        <time>2018-04-28T06:20:39Z</time>
      </trkpt>
      <trkpt lat="38.3498590" lon="-0.6837320">
        <ele>284.4</ele>
        <time>2018-04-28T06:20:40Z</time>
      </trkpt>
      <trkpt lat="38.3498690" lon="-0.6836640">
        <ele>284.1</ele>
        <time>2018-04-28T06:20:41Z</time>
      </trkpt>
      <trkpt lat="38.3498770" lon="-0.6835950">
        <ele>283.7</ele>
        <time>2018-04-28T06:20:42Z</time>
      </trkpt>
      <trkpt lat="38.3498830" lon="-0.6835240">
        <ele>283.3</ele>
        <time>2018-04-28T06:20:43Z</time>
      </trkpt>
      <trkpt lat="38.3498870" lon="-0.6834500">
        <ele>282.8</ele>
        <time>2018-04-28T06:20:44Z</time>
      </trkpt>
      <trkpt lat="38.3498870" lon="-0.6833730">
        <ele>282.3</ele>
        <time>2018-04-28T06:20:45Z</time>
      </trkpt>
      <trkpt lat="38.3498860" lon="-0.6832930">
        <ele>281.7</ele>
        <time>2018-04-28T06:20:46Z</time>
      </trkpt>
      <trkpt lat="38.3498820" lon="-0.6832040">
        <ele>281.2</ele>
        <time>2018-04-28T06:20:47Z</time>
      </trkpt>
      <trkpt lat="38.3498750" lon="-0.6831110">
        <ele>280.7</ele>
        <time>2018-04-28T06:20:48Z</time>
      </trkpt>
      <trkpt lat="38.3498660" lon="-0.6830200">
        <ele>280.5</ele>
        <time>2018-04-28T06:20:49Z</time>
      </trkpt>
      <trkpt lat="38.3498530" lon="-0.6829220">
        <ele>280.2</ele>
        <time>2018-04-28T06:20:50Z</time>
      </trkpt>
      <trkpt lat="38.3498390" lon="-0.6828250">
        <ele>279.8</ele>
        <time>2018-04-28T06:20:51Z</time>
      </trkpt>
      <trkpt lat="38.3498200" lon="-0.6827270">
        <ele>279.4</ele>
        <time>2018-04-28T06:20:52Z</time>
      </trkpt>
      <trkpt lat="38.3498000" lon="-0.6826260">
        <ele>279.1</ele>
        <time>2018-04-28T06:20:53Z</time>
      </trkpt>
      <trkpt lat="38.3497800" lon="-0.6825200">
        <ele>278.9</ele>
        <time>2018-04-28T06:20:54Z</time>
      </trkpt>
      <trkpt lat="38.3497600" lon="-0.6824150">
        <ele>278.6</ele>
        <time>2018-04-28T06:20:55Z</time>
      </trkpt>
      <trkpt lat="38.3497420" lon="-0.6823060">
        <ele>278.3</ele>
        <time>2018-04-28T06:20:56Z</time>
      </trkpt>
      <trkpt lat="38.3497240" lon="-0.6822000">
        <ele>277.9</ele>
        <time>2018-04-28T06:20:57Z</time>
      </trkpt>
      <trkpt lat="38.3497100" lon="-0.6820930">
        <ele>277.4</ele>
        <time>2018-04-28T06:20:58Z</time>
      </trkpt>
      <trkpt lat="38.3497000" lon="-0.6819860">
        <ele>277.2</ele>
        <time>2018-04-28T06:20:59Z</time>
      </trkpt>
      <trkpt lat="38.3496930" lon="-0.6818790">
        <ele>277.0</ele>
        <time>2018-04-28T06:21:00Z</time>
      </trkpt>
      <trkpt lat="38.3496870" lon="-0.6817740">
        <ele>277.0</ele>
        <time>2018-04-28T06:21:01Z</time>
      </trkpt>
      <trkpt lat="38.3496840" lon="-0.6816680">
        <ele>276.9</ele>
        <time>2018-04-28T06:21:02Z</time>
      </trkpt>
      <trkpt lat="38.3496820" lon="-0.6815630">
        <ele>276.8</ele>
        <time>2018-04-28T06:21:03Z</time>
      </trkpt>
      <trkpt lat="38.3496840" lon="-0.6814570">
        <ele>276.8</ele>
        <time>2018-04-28T06:21:04Z</time>
      </trkpt>
      <trkpt lat="38.3496870" lon="-0.6813520">
        <ele>276.7</ele>
        <time>2018-04-28T06:21:05Z</time>
      </trkpt>
      <trkpt lat="38.3496940" lon="-0.6812450">
        <ele>276.3</ele>
        <time>2018-04-28T06:21:06Z</time>
      </trkpt>
      <trkpt lat="38.3497010" lon="-0.6811350">
        <ele>275.7</ele>
        <time>2018-04-28T06:21:07Z</time>
      </trkpt>
      <trkpt lat="38.3497070" lon="-0.6810200">
        <ele>275.1</ele>
        <time>2018-04-28T06:21:08Z</time>
      </trkpt>
      <trkpt lat="38.3497140" lon="-0.6809010">
        <ele>274.4</ele>
        <time>2018-04-28T06:21:09Z</time>
      </trkpt>
      <trkpt lat="38.3497210" lon="-0.6807750">
        <ele>273.7</ele>
        <time>2018-04-28T06:21:10Z</time>
      </trkpt>
      <trkpt lat="38.3497280" lon="-0.6806490">
        <ele>273.2</ele>
        <time>2018-04-28T06:21:11Z</time>
      </trkpt>
      <trkpt lat="38.3497330" lon="-0.6805210">
        <ele>272.5</ele>
        <time>2018-04-28T06:21:12Z</time>
      </trkpt>
      <trkpt lat="38.3497410" lon="-0.6803890">
        <ele>271.9</ele>
        <time>2018-04-28T06:21:13Z</time>
      </trkpt>
      <trkpt lat="38.3497470" lon="-0.6802570">
        <ele>271.6</ele>
        <time>2018-04-28T06:21:14Z</time>
      </trkpt>
      <trkpt lat="38.3497520" lon="-0.6801240">
        <ele>271.1</ele>
        <time>2018-04-28T06:21:15Z</time>
      </trkpt>
      <trkpt lat="38.3497550" lon="-0.6799900">
        <ele>270.2</ele>
        <time>2018-04-28T06:21:16Z</time>
      </trkpt>
      <trkpt lat="38.3497520" lon="-0.6798560">
        <ele>269.6</ele>
        <time>2018-04-28T06:21:17Z</time>
      </trkpt>
      <trkpt lat="38.3497360" lon="-0.6797230">
        <ele>268.8</ele>
        <time>2018-04-28T06:21:18Z</time>
      </trkpt>
      <trkpt lat="38.3497100" lon="-0.6795910">
        <ele>268.1</ele>
        <time>2018-04-28T06:21:19Z</time>
      </trkpt>
      <trkpt lat="38.3496780" lon="-0.6794600">
        <ele>267.7</ele>
        <time>2018-04-28T06:21:20Z</time>
      </trkpt>
      <trkpt lat="38.3496510" lon="-0.6793250">
        <ele>266.8</ele>
        <time>2018-04-28T06:21:21Z</time>
      </trkpt>
      <trkpt lat="38.3496230" lon="-0.6791870">
        <ele>266.3</ele>
        <time>2018-04-28T06:21:22Z</time>
      </trkpt>
      <trkpt lat="38.3495930" lon="-0.6790500">
        <ele>265.5</ele>
        <time>2018-04-28T06:21:23Z</time>
      </trkpt>
      <trkpt lat="38.3495630" lon="-0.6789110">
        <ele>264.7</ele>
        <time>2018-04-28T06:21:24Z</time>
      </trkpt>
      <trkpt lat="38.3495340" lon="-0.6787700">
        <ele>263.8</ele>
        <time>2018-04-28T06:21:25Z</time>
      </trkpt>
      <trkpt lat="38.3495050" lon="-0.6786270">
        <ele>262.9</ele>
        <time>2018-04-28T06:21:26Z</time>
      </trkpt>
      <trkpt lat="38.3494750" lon="-0.6784810">
        <ele>262.0</ele>
        <time>2018-04-28T06:21:27Z</time>
      </trkpt>
      <trkpt lat="38.3494450" lon="-0.6783330">
        <ele>261.1</ele>
        <time>2018-04-28T06:21:28Z</time>
      </trkpt>
      <trkpt lat="38.3494180" lon="-0.6781810">
        <ele>260.2</ele>
        <time>2018-04-28T06:21:29Z</time>
      </trkpt>
      <trkpt lat="38.3493940" lon="-0.6780280">
        <ele>259.5</ele>
        <time>2018-04-28T06:21:30Z</time>
      </trkpt>
      <trkpt lat="38.3493720" lon="-0.6778760">
        <ele>259.1</ele>
        <time>2018-04-28T06:21:31Z</time>
      </trkpt>
      <trkpt lat="38.3493520" lon="-0.6777230">
        <ele>259.0</ele>
        <time>2018-04-28T06:21:32Z</time>
      </trkpt>
      <trkpt lat="38.3493310" lon="-0.6775750">
        <ele>258.8</ele>
        <time>2018-04-28T06:21:33Z</time>
      </trkpt>
      <trkpt lat="38.3493120" lon="-0.6774250">
        <ele>258.7</ele>
        <time>2018-04-28T06:21:34Z</time>
      </trkpt>
      <trkpt lat="38.3492960" lon="-0.6772810">
        <ele>258.6</ele>
        <time>2018-04-28T06:21:35Z</time>
      </trkpt>
      <trkpt lat="38.3492810" lon="-0.6771390">
        <ele>258.1</ele>
        <time>2018-04-28T06:21:36Z</time>
      </trkpt>
      <trkpt lat="38.3492660" lon="-0.6770000">
        <ele>257.6</ele>
        <time>2018-04-28T06:21:37Z</time>
      </trkpt>
      <trkpt lat="38.3492490" lon="-0.6768610">
        <ele>257.4</ele>
        <time>2018-04-28T06:21:38Z</time>
      </trkpt>
      <trkpt lat="38.3492320" lon="-0.6767250">
        <ele>257.2</ele>
        <time>2018-04-28T06:21:39Z</time>
      </trkpt>
      <trkpt lat="38.3492170" lon="-0.6765910">
        <ele>257.1</ele>
        <time>2018-04-28T06:21:40Z</time>
      </trkpt>
      <trkpt lat="38.3492010" lon="-0.6764600">
        <ele>257.0</ele>
        <time>2018-04-28T06:21:41Z</time>
      </trkpt>
      <trkpt lat="38.3491850" lon="-0.6763320">
        <ele>256.9</ele>
        <time>2018-04-28T06:21:42Z</time>
      </trkpt>
      <trkpt lat="38.3491700" lon="-0.6762070">
        <ele>256.9</ele>
        <time>2018-04-28T06:21:43Z</time>
      </trkpt>
      <trkpt lat="38.3491550" lon="-0.6760830">
        <ele>256.8</ele>
        <time>2018-04-28T06:21:44Z</time>
      </trkpt>
      <trkpt lat="38.3491470" lon="-0.6759640">
        <ele>256.6</ele>
        <time>2018-04-28T06:21:45Z</time>
      </trkpt>
      <trkpt lat="38.3491440" lon="-0.6758460">
        <ele>256.2</ele>
        <time>2018-04-28T06:21:46Z</time>
      </trkpt>
      <trkpt lat="38.3491420" lon="-0.6757260">
        <ele>255.5</ele>
        <time>2018-04-28T06:21:47Z</time>
      </trkpt>
      <trkpt lat="38.3491400" lon="-0.6756010">
        <ele>255.1</ele>
        <time>2018-04-28T06:21:48Z</time>
      </trkpt>
      <trkpt lat="38.3491380" lon="-0.6754730">
        <ele>254.5</ele>
        <time>2018-04-28T06:21:49Z</time>
      </trkpt>
      <trkpt lat="38.3491360" lon="-0.6753430">
        <ele>253.7</ele>
        <time>2018-04-28T06:21:50Z</time>
      </trkpt>
      <trkpt lat="38.3491340" lon="-0.6752110">
        <ele>253.2</ele>
        <time>2018-04-28T06:21:51Z</time>
      </trkpt>
      <trkpt lat="38.3491330" lon="-0.6750790">
        <ele>252.8</ele>
        <time>2018-04-28T06:21:52Z</time>
      </trkpt>
      <trkpt lat="38.3491310" lon="-0.6749450">
        <ele>252.0</ele>
        <time>2018-04-28T06:21:53Z</time>
      </trkpt>
      <trkpt lat="38.3491290" lon="-0.6748080">
        <ele>251.3</ele>
        <time>2018-04-28T06:21:54Z</time>
      </trkpt>
      <trkpt lat="38.3491300" lon="-0.6746730">
        <ele>251.0</ele>
        <time>2018-04-28T06:21:55Z</time>
      </trkpt>
      <trkpt lat="38.3491290" lon="-0.6745360">
        <ele>250.3</ele>
        <time>2018-04-28T06:21:56Z</time>
      </trkpt>
      <trkpt lat="38.3491290" lon="-0.6743980">
        <ele>249.7</ele>
        <time>2018-04-28T06:21:57Z</time>
      </trkpt>
      <trkpt lat="38.3491270" lon="-0.6742590">
        <ele>249.4</ele>
        <time>2018-04-28T06:21:58Z</time>
      </trkpt>
      <trkpt lat="38.3491250" lon="-0.6741210">
        <ele>248.9</ele>
        <time>2018-04-28T06:21:59Z</time>
      </trkpt>
      <trkpt lat="38.3491220" lon="-0.6739790">
        <ele>248.2</ele>
        <time>2018-04-28T06:22:00Z</time>
      </trkpt>
      <trkpt lat="38.3491210" lon="-0.6738360">
        <ele>247.6</ele>
        <time>2018-04-28T06:22:01Z</time>
      </trkpt>
      <trkpt lat="38.3491200" lon="-0.6736920">
        <ele>246.9</ele>
        <time>2018-04-28T06:22:02Z</time>
      </trkpt>
      <trkpt lat="38.3491180" lon="-0.6735500">
        <ele>246.2</ele>
        <time>2018-04-28T06:22:03Z</time>
      </trkpt>
      <trkpt lat="38.3491170" lon="-0.6734080">
        <ele>245.9</ele>
        <time>2018-04-28T06:22:04Z</time>
      </trkpt>
      <trkpt lat="38.3491170" lon="-0.6732630">
        <ele>245.5</ele>
        <time>2018-04-28T06:22:05Z</time>
      </trkpt>
      <trkpt lat="38.3491150" lon="-0.6731190">
        <ele>244.9</ele>
        <time>2018-04-28T06:22:06Z</time>
      </trkpt>
      <trkpt lat="38.3491140" lon="-0.6729750">
        <ele>244.1</ele>
        <time>2018-04-28T06:22:07Z</time>
      </trkpt>
      <trkpt lat="38.3491130" lon="-0.6728300">
        <ele>243.4</ele>
        <time>2018-04-28T06:22:08Z</time>
      </trkpt>
      <trkpt lat="38.3491150" lon="-0.6726870">
        <ele>242.7</ele>
        <time>2018-04-28T06:22:09Z</time>
      </trkpt>
      <trkpt lat="38.3491210" lon="-0.6725420">
        <ele>242.4</ele>
        <time>2018-04-28T06:22:10Z</time>
      </trkpt>
      <trkpt lat="38.3491350" lon="-0.6724010">
        <ele>242.2</ele>
        <time>2018-04-28T06:22:11Z</time>
      </trkpt>
      <trkpt lat="38.3491540" lon="-0.6722630">
        <ele>242.0</ele>
        <time>2018-04-28T06:22:12Z</time>
      </trkpt>
      <trkpt lat="38.3491770" lon="-0.6721280">
        <ele>241.7</ele>
        <time>2018-04-28T06:22:13Z</time>
      </trkpt>
      <trkpt lat="38.3491990" lon="-0.6719950">
        <ele>241.3</ele>
        <time>2018-04-28T06:22:14Z</time>
      </trkpt>
      <trkpt lat="38.3492200" lon="-0.6718670">
        <ele>240.9</ele>
        <time>2018-04-28T06:22:15Z</time>
      </trkpt>
      <trkpt lat="38.3492420" lon="-0.6717410">
        <ele>240.6</ele>
        <time>2018-04-28T06:22:16Z</time>
      </trkpt>
      <trkpt lat="38.3492620" lon="-0.6716170">
        <ele>240.5</ele>
        <time>2018-04-28T06:22:17Z</time>
      </trkpt>
      <trkpt lat="38.3492810" lon="-0.6714970">
        <ele>240.4</ele>
        <time>2018-04-28T06:22:18Z</time>
      </trkpt>
      <trkpt lat="38.3493010" lon="-0.6713790">
        <ele>240.3</ele>
        <time>2018-04-28T06:22:19Z</time>
      </trkpt>
      <trkpt lat="38.3493190" lon="-0.6712650">
        <ele>240.1</ele>
        <time>2018-04-28T06:22:20Z</time>
      </trkpt>
      <trkpt lat="38.3493360" lon="-0.6711530">
        <ele>239.9</ele>
        <time>2018-04-28T06:22:21Z</time>
      </trkpt>
      <trkpt lat="38.3493560" lon="-0.6710410">
        <ele>239.5</ele>
        <time>2018-04-28T06:22:22Z</time>
      </trkpt>
      <trkpt lat="38.3493740" lon="-0.6709290">
        <ele>239.1</ele>
        <time>2018-04-28T06:22:23Z</time>
      </trkpt>
      <trkpt lat="38.3493940" lon="-0.6708140">
        <ele>238.6</ele>
        <time>2018-04-28T06:22:24Z</time>
      </trkpt>
      <trkpt lat="38.3494180" lon="-0.6706970">
        <ele>238.0</ele>
        <time>2018-04-28T06:22:25Z</time>
      </trkpt>
      <trkpt lat="38.3494430" lon="-0.6705750">
        <ele>237.4</ele>
        <time>2018-04-28T06:22:26Z</time>
      </trkpt>
      <trkpt lat="38.3494690" lon="-0.6704490">
        <ele>236.8</ele>
        <time>2018-04-28T06:22:27Z</time>
      </trkpt>
      <trkpt lat="38.3494960" lon="-0.6703190">
        <ele>236.1</ele>
        <time>2018-04-28T06:22:28Z</time>
      </trkpt>
      <trkpt lat="38.3495150" lon="-0.6701920">
        <ele>235.5</ele>
        <time>2018-04-28T06:22:29Z</time>
      </trkpt>
      <trkpt lat="38.3495150" lon="-0.6700890">
        <ele>235.0</ele>
        <time>2018-04-28T06:22:30Z</time>
      </trkpt>
      <trkpt lat="38.3495020" lon="-0.6700120">
        <ele>234.6</ele>
        <time>2018-04-28T06:22:31Z</time>
      </trkpt>
      <trkpt lat="38.3494810" lon="-0.6699450">
        <ele>234.3</ele>
        <time>2018-04-28T06:22:32Z</time>
      </trkpt>
      <trkpt lat="38.3494500" lon="-0.6698750">
        <ele>234.0</ele>
        <time>2018-04-28T06:22:33Z</time>
      </trkpt>
      <trkpt lat="38.3494170" lon="-0.6698110">
        <ele>234.0</ele>
        <time>2018-04-28T06:22:34Z</time>
      </trkpt>
      <trkpt lat="38.3493820" lon="-0.6697520">
        <ele>234.0</ele>
        <time>2018-04-28T06:22:35Z</time>
      </trkpt>
      <trkpt lat="38.3493460" lon="-0.6696810">
        <ele>234.0</ele>
        <time>2018-04-28T06:22:36Z</time>
      </trkpt>
      <trkpt lat="38.3493140" lon="-0.6695970">
        <ele>234.0</ele>
        <time>2018-04-28T06:22:37Z</time>
      </trkpt>
      <trkpt lat="38.3492890" lon="-0.6695070">
        <ele>233.8</ele>
        <time>2018-04-28T06:22:38Z</time>
      </trkpt>
      <trkpt lat="38.3492760" lon="-0.6694150">
        <ele>233.7</ele>
        <time>2018-04-28T06:22:39Z</time>
      </trkpt>
      <trkpt lat="38.3492690" lon="-0.6693180">
        <ele>233.5</ele>
        <time>2018-04-28T06:22:40Z</time>
      </trkpt>
      <trkpt lat="38.3492740" lon="-0.6692210">
        <ele>233.4</ele>
        <time>2018-04-28T06:22:41Z</time>
      </trkpt>
      <trkpt lat="38.3492800" lon="-0.6691220">
        <ele>233.3</ele>
        <time>2018-04-28T06:22:42Z</time>
      </trkpt>
      <trkpt lat="38.3492850" lon="-0.6690240">
        <ele>233.2</ele>
        <time>2018-04-28T06:22:43Z</time>
      </trkpt>
      <trkpt lat="38.3492890" lon="-0.6689280">
        <ele>233.2</ele>
        <time>2018-04-28T06:22:44Z</time>
      </trkpt>
      <trkpt lat="38.3493160" lon="-0.6688430">
        <ele>233.1</ele>
        <time>2018-04-28T06:22:45Z</time>
      </trkpt>
      <trkpt lat="38.3494370" lon="-0.6688640">
        <ele>233.0</ele>
        <time>2018-04-28T06:22:46Z</time>
      </trkpt>
      <trkpt lat="38.3494950" lon="-0.6688240">
        <ele>233.0</ele>
        <time>2018-04-28T06:22:47Z</time>
      </trkpt>
      <trkpt lat="38.3495700" lon="-0.6687830">
        <ele>233.0</ele>
        <time>2018-04-28T06:22:48Z</time>
      </trkpt>
      <trkpt lat="38.3496460" lon="-0.6687610">
        <ele>233.0</ele>
        <time>2018-04-28T06:22:49Z</time>
      </trkpt>
      <trkpt lat="38.3497120" lon="-0.6687490">
        <ele>233.0</ele>
        <time>2018-04-28T06:22:50Z</time>
      </trkpt>
      <trkpt lat="38.3497770" lon="-0.6687440">
        <ele>233.0</ele>
        <time>2018-04-28T06:22:51Z</time>
      </trkpt>
      <trkpt lat="38.3498400" lon="-0.6687510">
        <ele>233.0</ele>
        <time>2018-04-28T06:22:52Z</time>
      </trkpt>
      <trkpt lat="38.3498990" lon="-0.6687680">
        <ele>232.8</ele>
        <time>2018-04-28T06:22:53Z</time>
      </trkpt>
      <trkpt lat="38.3499540" lon="-0.6687920">
        <ele>232.4</ele>
        <time>2018-04-28T06:22:54Z</time>
      </trkpt>
      <trkpt lat="38.3500060" lon="-0.6688250">
        <ele>232.0</ele>
        <time>2018-04-28T06:22:55Z</time>
      </trkpt>
      <trkpt lat="38.3500550" lon="-0.6688600">
        <ele>232.0</ele>
        <time>2018-04-28T06:22:56Z</time>
      </trkpt>
      <trkpt lat="38.3501010" lon="-0.6688980">
        <ele>232.0</ele>
        <time>2018-04-28T06:22:57Z</time>
      </trkpt>
      <trkpt lat="38.3501460" lon="-0.6689380">
        <ele>232.0</ele>
        <time>2018-04-28T06:22:58Z</time>
      </trkpt>
      <trkpt lat="38.3501880" lon="-0.6689800">
        <ele>232.0</ele>
        <time>2018-04-28T06:22:59Z</time>
      </trkpt>
      <trkpt lat="38.3502320" lon="-0.6690210">
        <ele>232.9</ele>
        <time>2018-04-28T06:23:00Z</time>
      </trkpt>
      <trkpt lat="38.3502790" lon="-0.6690570">
        <ele>234.1</ele>
        <time>2018-04-28T06:23:01Z</time>
      </trkpt>
      <trkpt lat="38.3503280" lon="-0.6690870">
        <ele>235.9</ele>
        <time>2018-04-28T06:23:02Z</time>
      </trkpt>
      <trkpt lat="38.3503790" lon="-0.6691130">
        <ele>236.8</ele>
        <time>2018-04-28T06:23:03Z</time>
      </trkpt>
      <trkpt lat="38.3504320" lon="-0.6691340">
        <ele>237.6</ele>
        <time>2018-04-28T06:23:04Z</time>
      </trkpt>
      <trkpt lat="38.3504830" lon="-0.6691490">
        <ele>238.0</ele>
        <time>2018-04-28T06:23:05Z</time>
      </trkpt>
      <trkpt lat="38.3505340" lon="-0.6691580">
        <ele>238.4</ele>
        <time>2018-04-28T06:23:06Z</time>
      </trkpt>
      <trkpt lat="38.3505860" lon="-0.6691640">
        <ele>238.8</ele>
        <time>2018-04-28T06:23:07Z</time>
      </trkpt>
      <trkpt lat="38.3506350" lon="-0.6691680">
        <ele>238.8</ele>
        <time>2018-04-28T06:23:08Z</time>
      </trkpt>
      <trkpt lat="38.3506820" lon="-0.6691700">
        <ele>238.3</ele>
        <time>2018-04-28T06:23:09Z</time>
      </trkpt>
      <trkpt lat="38.3507280" lon="-0.6691700">
        <ele>237.8</ele>
        <time>2018-04-28T06:23:10Z</time>
      </trkpt>
      <trkpt lat="38.3507720" lon="-0.6691720">
        <ele>237.4</ele>
        <time>2018-04-28T06:23:11Z</time>
      </trkpt>
      <trkpt lat="38.3508160" lon="-0.6691720">
        <ele>237.0</ele>
        <time>2018-04-28T06:23:12Z</time>
      </trkpt>
      <trkpt lat="38.3508610" lon="-0.6691710">
        <ele>236.8</ele>
        <time>2018-04-28T06:23:13Z</time>
      </trkpt>
      <trkpt lat="38.3509050" lon="-0.6691690">
        <ele>236.5</ele>
        <time>2018-04-28T06:23:14Z</time>
      </trkpt>
      <trkpt lat="38.3509500" lon="-0.6691680">
        <ele>236.3</ele>
        <time>2018-04-28T06:23:15Z</time>
      </trkpt>
      <trkpt lat="38.3509980" lon="-0.6691640">
        <ele>236.0</ele>
        <time>2018-04-28T06:23:16Z</time>
      </trkpt>
      <trkpt lat="38.3510450" lon="-0.6691610">
        <ele>235.7</ele>
        <time>2018-04-28T06:23:17Z</time>
      </trkpt>
      <trkpt lat="38.3510900" lon="-0.6691590">
        <ele>235.4</ele>
        <time>2018-04-28T06:23:18Z</time>
      </trkpt>
      <trkpt lat="38.3511380" lon="-0.6691530">
        <ele>235.2</ele>
        <time>2018-04-28T06:23:19Z</time>
      </trkpt>
      <trkpt lat="38.3511840" lon="-0.6691480">
        <ele>235.1</ele>
        <time>2018-04-28T06:23:20Z</time>
      </trkpt>
      <trkpt lat="38.3512300" lon="-0.6691430">
        <ele>234.9</ele>
        <time>2018-04-28T06:23:21Z</time>
      </trkpt>
      <trkpt lat="38.3512750" lon="-0.6691370">
        <ele>234.8</ele>
        <time>2018-04-28T06:23:22Z</time>
      </trkpt>
      <trkpt lat="38.3513190" lon="-0.6691300">
        <ele>234.7</ele>
        <time>2018-04-28T06:23:23Z</time>
      </trkpt>
      <trkpt lat="38.3513650" lon="-0.6691210">
        <ele>234.5</ele>
        <time>2018-04-28T06:23:24Z</time>
      </trkpt>
      <trkpt lat="38.3514130" lon="-0.6691080">
        <ele>234.4</ele>
        <time>2018-04-28T06:23:25Z</time>
      </trkpt>
      <trkpt lat="38.3514630" lon="-0.6690910">
        <ele>234.2</ele>
        <time>2018-04-28T06:23:26Z</time>
      </trkpt>
      <trkpt lat="38.3515060" lon="-0.6690780">
        <ele>234.1</ele>
        <time>2018-04-28T06:23:27Z</time>
      </trkpt>
      <trkpt lat="38.3515510" lon="-0.6690650">
        <ele>233.9</ele>
        <time>2018-04-28T06:23:28Z</time>
      </trkpt>
      <trkpt lat="38.3515970" lon="-0.6690500">
        <ele>233.7</ele>
        <time>2018-04-28T06:23:29Z</time>
      </trkpt>
      <trkpt lat="38.3516430" lon="-0.6690350">
        <ele>233.5</ele>
        <time>2018-04-28T06:23:30Z</time>
      </trkpt>
      <trkpt lat="38.3516900" lon="-0.6690200">
        <ele>233.3</ele>
        <time>2018-04-28T06:23:31Z</time>
      </trkpt>
      <trkpt lat="38.3517360" lon="-0.6690050">
        <ele>233.1</ele>
        <time>2018-04-28T06:23:32Z</time>
      </trkpt>
      <trkpt lat="38.3517830" lon="-0.6689890">
        <ele>232.8</ele>
        <time>2018-04-28T06:23:33Z</time>
      </trkpt>
      <trkpt lat="38.3518310" lon="-0.6689710">
        <ele>232.6</ele>
        <time>2018-04-28T06:23:34Z</time>
      </trkpt>
      <trkpt lat="38.3518780" lon="-0.6689530">
        <ele>232.4</ele>
        <time>2018-04-28T06:23:35Z</time>
      </trkpt>
      <trkpt lat="38.3519280" lon="-0.6689370">
        <ele>232.2</ele>
        <time>2018-04-28T06:23:36Z</time>
      </trkpt>
      <trkpt lat="38.3519800" lon="-0.6689190">
        <ele>232.0</ele>
        <time>2018-04-28T06:23:37Z</time>
      </trkpt>
      <trkpt lat="38.3520310" lon="-0.6689010">
        <ele>231.8</ele>
        <time>2018-04-28T06:23:38Z</time>
      </trkpt>
      <trkpt lat="38.3520830" lon="-0.6688840">
        <ele>231.7</ele>
        <time>2018-04-28T06:23:39Z</time>
      </trkpt>
      <trkpt lat="38.3521360" lon="-0.6688630">
        <ele>231.5</ele>
        <time>2018-04-28T06:23:40Z</time>
      </trkpt>
      <trkpt lat="38.3521920" lon="-0.6688440">
        <ele>231.3</ele>
        <time>2018-04-28T06:23:41Z</time>
      </trkpt>
      <trkpt lat="38.3522490" lon="-0.6688230">
        <ele>231.0</ele>
        <time>2018-04-28T06:23:42Z</time>
      </trkpt>
      <trkpt lat="38.3523080" lon="-0.6688030">
        <ele>231.0</ele>
        <time>2018-04-28T06:23:43Z</time>
      </trkpt>
      <trkpt lat="38.3523700" lon="-0.6687810">
        <ele>231.0</ele>
        <time>2018-04-28T06:23:44Z</time>
      </trkpt>
      <trkpt lat="38.3524290" lon="-0.6687590">
        <ele>231.0</ele>
        <time>2018-04-28T06:23:45Z</time>
      </trkpt>
      <trkpt lat="38.3524900" lon="-0.6687320">
        <ele>231.8</ele>
        <time>2018-04-28T06:23:46Z</time>
      </trkpt>
      <trkpt lat="38.3525550" lon="-0.6686980">
        <ele>232.8</ele>
        <time>2018-04-28T06:23:47Z</time>
      </trkpt>
      <trkpt lat="38.3526210" lon="-0.6686540">
        <ele>234.0</ele>
        <time>2018-04-28T06:23:48Z</time>
      </trkpt>
      <trkpt lat="38.3526740" lon="-0.6686000">
        <ele>234.0</ele>
        <time>2018-04-28T06:23:49Z</time>
      </trkpt>
      <trkpt lat="38.3527180" lon="-0.6685450">
        <ele>234.0</ele>
        <time>2018-04-28T06:23:50Z</time>
      </trkpt>
      <trkpt lat="38.3527700" lon="-0.6684930">
        <ele>234.0</ele>
        <time>2018-04-28T06:23:51Z</time>
      </trkpt>
      <trkpt lat="38.3528270" lon="-0.6684570">
        <ele>234.1</ele>
        <time>2018-04-28T06:23:52Z</time>
      </trkpt>
      <trkpt lat="38.3528850" lon="-0.6684350">
        <ele>234.2</ele>
        <time>2018-04-28T06:23:53Z</time>
      </trkpt>
      <trkpt lat="38.3529450" lon="-0.6684250">
        <ele>234.3</ele>
        <time>2018-04-28T06:23:54Z</time>
      </trkpt>
      <trkpt lat="38.3530030" lon="-0.6684320">
        <ele>234.3</ele>
        <time>2018-04-28T06:23:55Z</time>
      </trkpt>
      <trkpt lat="38.3530570" lon="-0.6684530">
        <ele>234.3</ele>
        <time>2018-04-28T06:23:56Z</time>
      </trkpt>
      <trkpt lat="38.3531100" lon="-0.6684850">
        <ele>234.3</ele>
        <time>2018-04-28T06:23:57Z</time>
      </trkpt>
      <trkpt lat="38.3531580" lon="-0.6685270">
        <ele>234.3</ele>
        <time>2018-04-28T06:23:58Z</time>
      </trkpt>
      <trkpt lat="38.3532000" lon="-0.6685780">
        <ele>234.2</ele>
        <time>2018-04-28T06:23:59Z</time>
      </trkpt>
      <trkpt lat="38.3532420" lon="-0.6686290">
        <ele>234.2</ele>
        <time>2018-04-28T06:24:00Z</time>
      </trkpt>
      <trkpt lat="38.3532870" lon="-0.6686740">
        <ele>234.2</ele>
        <time>2018-04-28T06:24:01Z</time>
      </trkpt>
      <trkpt lat="38.3533340" lon="-0.6687070">
        <ele>236.6</ele>
        <time>2018-04-28T06:24:02Z</time>
      </trkpt>
      <trkpt lat="38.3533780" lon="-0.6687210">
        <ele>237.3</ele>
        <time>2018-04-28T06:24:03Z</time>
      </trkpt>
      <trkpt lat="38.3534270" lon="-0.6687210">
        <ele>238.1</ele>
        <time>2018-04-28T06:24:04Z</time>
      </trkpt>
      <trkpt lat="38.3534770" lon="-0.6687120">
        <ele>238.1</ele>
        <time>2018-04-28T06:24:05Z</time>
      </trkpt>
      <trkpt lat="38.3535250" lon="-0.6686990">
        <ele>238.2</ele>
        <time>2018-04-28T06:24:06Z</time>
      </trkpt>
      <trkpt lat="38.3535700" lon="-0.6686840">
        <ele>238.3</ele>
        <time>2018-04-28T06:24:07Z</time>
      </trkpt>
      <trkpt lat="38.3536150" lon="-0.6686670">
        <ele>238.3</ele>
        <time>2018-04-28T06:24:08Z</time>
      </trkpt>
      <trkpt lat="38.3536560" lon="-0.6686470">
        <ele>238.4</ele>
        <time>2018-04-28T06:24:09Z</time>
      </trkpt>
      <trkpt lat="38.3536960" lon="-0.6686230">
        <ele>238.6</ele>
        <time>2018-04-28T06:24:10Z</time>
      </trkpt>
      <trkpt lat="38.3537350" lon="-0.6685960">
        <ele>238.8</ele>
        <time>2018-04-28T06:24:11Z</time>
      </trkpt>
      <trkpt lat="38.3537740" lon="-0.6685670">
        <ele>239.1</ele>
        <time>2018-04-28T06:24:12Z</time>
      </trkpt>
      <trkpt lat="38.3538140" lon="-0.6685370">
        <ele>239.4</ele>
        <time>2018-04-28T06:24:13Z</time>
      </trkpt>
      <trkpt lat="38.3538550" lon="-0.6685050">
        <ele>239.6</ele>
        <time>2018-04-28T06:24:14Z</time>
      </trkpt>
      <trkpt lat="38.3538950" lon="-0.6684730">
        <ele>239.8</ele>
        <time>2018-04-28T06:24:15Z</time>
      </trkpt>
      <trkpt lat="38.3539340" lon="-0.6684430">
        <ele>240.0</ele>
        <time>2018-04-28T06:24:16Z</time>
      </trkpt>
      <trkpt lat="38.3539750" lon="-0.6684120">
        <ele>240.2</ele>
        <time>2018-04-28T06:24:17Z</time>
      </trkpt>
      <trkpt lat="38.3540160" lon="-0.6683810">
        <ele>240.3</ele>
        <time>2018-04-28T06:24:18Z</time>
      </trkpt>
      <trkpt lat="38.3540570" lon="-0.6683510">
        <ele>240.5</ele>
        <time>2018-04-28T06:24:19Z</time>
      </trkpt>
      <trkpt lat="38.3540960" lon="-0.6683210">
        <ele>240.8</ele>
        <time>2018-04-28T06:24:20Z</time>
      </trkpt>
      <trkpt lat="38.3541350" lon="-0.6682860">
        <ele>241.1</ele>
        <time>2018-04-28T06:24:21Z</time>
      </trkpt>
      <trkpt lat="38.3541710" lon="-0.6682440">
        <ele>241.4</ele>
        <time>2018-04-28T06:24:22Z</time>
      </trkpt>
      <trkpt lat="38.3542010" lon="-0.6681960">
        <ele>241.6</ele>
        <time>2018-04-28T06:24:23Z</time>
      </trkpt>
      <trkpt lat="38.3542060" lon="-0.6681360">
        <ele>241.9</ele>
        <time>2018-04-28T06:24:24Z</time>
      </trkpt>
      <trkpt lat="38.3542010" lon="-0.6680640">
        <ele>242.0</ele>
        <time>2018-04-28T06:24:25Z</time>
      </trkpt>
      <trkpt lat="38.3542040" lon="-0.6679950">
        <ele>242.0</ele>
        <time>2018-04-28T06:24:26Z</time>
      </trkpt>
      <trkpt lat="38.3542190" lon="-0.6679270">
        <ele>242.0</ele>
        <time>2018-04-28T06:24:27Z</time>
      </trkpt>
      <trkpt lat="38.3542480" lon="-0.6678680">
        <ele>242.0</ele>
        <time>2018-04-28T06:24:28Z</time>
      </trkpt>
      <trkpt lat="38.3542990" lon="-0.6678330">
        <ele>242.0</ele>
        <time>2018-04-28T06:24:29Z</time>
      </trkpt>
      <trkpt lat="38.3543560" lon="-0.6678190">
        <ele>242.0</ele>
        <time>2018-04-28T06:24:30Z</time>
      </trkpt>
      <trkpt lat="38.3544140" lon="-0.6678150">
        <ele>242.0</ele>
        <time>2018-04-28T06:24:31Z</time>
      </trkpt>
      <trkpt lat="38.3544680" lon="-0.6678300">
        <ele>242.0</ele>
        <time>2018-04-28T06:24:32Z</time>
      </trkpt>
      <trkpt lat="38.3545240" lon="-0.6678440">
        <ele>242.4</ele>
        <time>2018-04-28T06:24:33Z</time>
      </trkpt>
      <trkpt lat="38.3545840" lon="-0.6678490">
        <ele>243.0</ele>
        <time>2018-04-28T06:24:34Z</time>
      </trkpt>
      <trkpt lat="38.3546440" lon="-0.6678440">
        <ele>243.6</ele>
        <time>2018-04-28T06:24:35Z</time>
      </trkpt>
      <trkpt lat="38.3546950" lon="-0.6678180">
        <ele>244.1</ele>
        <time>2018-04-28T06:24:36Z</time>
      </trkpt>
      <trkpt lat="38.3547480" lon="-0.6677880">
        <ele>244.5</ele>
        <time>2018-04-28T06:24:37Z</time>
      </trkpt>
      <trkpt lat="38.3548040" lon="-0.6677580">
        <ele>245.0</ele>
        <time>2018-04-28T06:24:38Z</time>
      </trkpt>
      <trkpt lat="38.3548600" lon="-0.6677260">
        <ele>245.4</ele>
        <time>2018-04-28T06:24:39Z</time>
      </trkpt>
      <trkpt lat="38.3549140" lon="-0.6676940">
        <ele>245.8</ele>
        <time>2018-04-28T06:24:40Z</time>
      </trkpt>
      <trkpt lat="38.3549750" lon="-0.6676570">
        <ele>246.3</ele>
        <time>2018-04-28T06:24:41Z</time>
      </trkpt>
      <trkpt lat="38.3550400" lon="-0.6676170">
        <ele>246.8</ele>
        <time>2018-04-28T06:24:42Z</time>
      </trkpt>
      <trkpt lat="38.3551020" lon="-0.6675740">
        <ele>246.9</ele>
        <time>2018-04-28T06:24:43Z</time>
      </trkpt>
      <trkpt lat="38.3551630" lon="-0.6675280">
        <ele>246.5</ele>
        <time>2018-04-28T06:24:44Z</time>
      </trkpt>
      <trkpt lat="38.3552220" lon="-0.6674800">
        <ele>246.0</ele>
        <time>2018-04-28T06:24:45Z</time>
      </trkpt>
      <trkpt lat="38.3552800" lon="-0.6674350">
        <ele>245.8</ele>
        <time>2018-04-28T06:24:46Z</time>
      </trkpt>
      <trkpt lat="38.3553390" lon="-0.6673890">
        <ele>245.6</ele>
        <time>2018-04-28T06:24:47Z</time>
      </trkpt>
      <trkpt lat="38.3554010" lon="-0.6673460">
        <ele>245.5</ele>
        <time>2018-04-28T06:24:48Z</time>
      </trkpt>
      <trkpt lat="38.3554630" lon="-0.6673010">
        <ele>245.2</ele>
        <time>2018-04-28T06:24:49Z</time>
      </trkpt>
      <trkpt lat="38.3555250" lon="-0.6672560">
        <ele>244.9</ele>
        <time>2018-04-28T06:24:50Z</time>
      </trkpt>
      <trkpt lat="38.3555880" lon="-0.6672110">
        <ele>244.7</ele>
        <time>2018-04-28T06:24:51Z</time>
      </trkpt>
      <trkpt lat="38.3556480" lon="-0.6671670">
        <ele>244.4</ele>
        <time>2018-04-28T06:24:52Z</time>
      </trkpt>
      <trkpt lat="38.3557080" lon="-0.6671220">
        <ele>244.3</ele>
        <time>2018-04-28T06:24:53Z</time>
      </trkpt>
      <trkpt lat="38.3557680" lon="-0.6670750">
        <ele>244.1</ele>
        <time>2018-04-28T06:24:54Z</time>
      </trkpt>
      <trkpt lat="38.3558260" lon="-0.6670280">
        <ele>244.0</ele>
        <time>2018-04-28T06:24:55Z</time>
      </trkpt>
      <trkpt lat="38.3558850" lon="-0.6669830">
        <ele>244.0</ele>
        <time>2018-04-28T06:24:56Z</time>
      </trkpt>
      <trkpt lat="38.3559440" lon="-0.6669350">
        <ele>243.9</ele>
        <time>2018-04-28T06:24:57Z</time>
      </trkpt>
      <trkpt lat="38.3560020" lon="-0.6668890">
        <ele>243.8</ele>
        <time>2018-04-28T06:24:58Z</time>
      </trkpt>
      <trkpt lat="38.3560590" lon="-0.6668420">
        <ele>243.8</ele>
        <time>2018-04-28T06:24:59Z</time>
      </trkpt>
      <trkpt lat="38.3561160" lon="-0.6667920">
        <ele>243.7</ele>
        <time>2018-04-28T06:25:00Z</time>
      </trkpt>
      <trkpt lat="38.3561730" lon="-0.6667400">
        <ele>243.6</ele>
        <time>2018-04-28T06:25:01Z</time>
      </trkpt>
      <trkpt lat="38.3562300" lon="-0.6666900">
        <ele>243.6</ele>
        <time>2018-04-28T06:25:02Z</time>
      </trkpt>
      <trkpt lat="38.3562860" lon="-0.6666380">
        <ele>243.5</ele>
        <time>2018-04-28T06:25:03Z</time>
      </trkpt>
      <trkpt lat="38.3563420" lon="-0.6665850">
        <ele>243.5</ele>
        <time>2018-04-28T06:25:04Z</time>
      </trkpt>
      <trkpt lat="38.3563990" lon="-0.6665320">
        <ele>243.4</ele>
        <time>2018-04-28T06:25:05Z</time>
      </trkpt>
      <trkpt lat="38.3564550" lon="-0.6664780">
        <ele>243.4</ele>
        <time>2018-04-28T06:25:06Z</time>
      </trkpt>
      <trkpt lat="38.3565110" lon="-0.6664250">
        <ele>243.4</ele>
        <time>2018-04-28T06:25:07Z</time>
      </trkpt>
      <trkpt lat="38.3565670" lon="-0.6663710">
        <ele>243.3</ele>
        <time>2018-04-28T06:25:08Z</time>
      </trkpt>
      <trkpt lat="38.3566230" lon="-0.6663160">
        <ele>243.3</ele>
        <time>2018-04-28T06:25:09Z</time>
      </trkpt>
      <trkpt lat="38.3566780" lon="-0.6662610">
        <ele>243.2</ele>
        <time>2018-04-28T06:25:10Z</time>
      </trkpt>
      <trkpt lat="38.3567340" lon="-0.6662040">
        <ele>243.2</ele>
        <time>2018-04-28T06:25:11Z</time>
      </trkpt>
      <trkpt lat="38.3567890" lon="-0.6661480">
        <ele>243.2</ele>
        <time>2018-04-28T06:25:12Z</time>
      </trkpt>
      <trkpt lat="38.3568440" lon="-0.6660910">
        <ele>243.1</ele>
        <time>2018-04-28T06:25:13Z</time>
      </trkpt>
      <trkpt lat="38.3568990" lon="-0.6660360">
        <ele>243.1</ele>
        <time>2018-04-28T06:25:14Z</time>
      </trkpt>
      <trkpt lat="38.3569530" lon="-0.6659810">
        <ele>243.0</ele>
        <time>2018-04-28T06:25:15Z</time>
      </trkpt>
      <trkpt lat="38.3570080" lon="-0.6659260">
        <ele>243.0</ele>
        <time>2018-04-28T06:25:16Z</time>
      </trkpt>
      <trkpt lat="38.3570620" lon="-0.6658740">
        <ele>243.1</ele>
        <time>2018-04-28T06:25:17Z</time>
      </trkpt>
      <trkpt lat="38.3571150" lon="-0.6658250">
        <ele>243.2</ele>
        <time>2018-04-28T06:25:18Z</time>
      </trkpt>
      <trkpt lat="38.3571710" lon="-0.6657750">
        <ele>243.3</ele>
        <time>2018-04-28T06:25:19Z</time>
      </trkpt>
      <trkpt lat="38.3572260" lon="-0.6657300">
        <ele>243.4</ele>
        <time>2018-04-28T06:25:20Z</time>
      </trkpt>
      <trkpt lat="38.3572820" lon="-0.6656840">
        <ele>243.5</ele>
        <time>2018-04-28T06:25:21Z</time>
      </trkpt>
      <trkpt lat="38.3573370" lon="-0.6656370">
        <ele>243.6</ele>
        <time>2018-04-28T06:25:22Z</time>
      </trkpt>
      <trkpt lat="38.3573930" lon="-0.6655950">
        <ele>243.9</ele>
        <time>2018-04-28T06:25:23Z</time>
      </trkpt>
      <trkpt lat="38.3574490" lon="-0.6655550">
        <ele>244.2</ele>
        <time>2018-04-28T06:25:24Z</time>
      </trkpt>
      <trkpt lat="38.3575040" lon="-0.6655160">
        <ele>244.5</ele>
        <time>2018-04-28T06:25:25Z</time>
      </trkpt>
      <trkpt lat="38.3575590" lon="-0.6654780">
        <ele>244.8</ele>
        <time>2018-04-28T06:25:26Z</time>
      </trkpt>
      <trkpt lat="38.3576150" lon="-0.6654450">
        <ele>245.2</ele>
        <time>2018-04-28T06:25:27Z</time>
      </trkpt>
      <trkpt lat="38.3576690" lon="-0.6654120">
        <ele>245.5</ele>
        <time>2018-04-28T06:25:28Z</time>
      </trkpt>
      <trkpt lat="38.3577220" lon="-0.6653800">
        <ele>245.9</ele>
        <time>2018-04-28T06:25:29Z</time>
      </trkpt>
      <trkpt lat="38.3577750" lon="-0.6653480">
        <ele>246.3</ele>
        <time>2018-04-28T06:25:30Z</time>
      </trkpt>
      <trkpt lat="38.3578270" lon="-0.6653190">
        <ele>246.6</ele>
        <time>2018-04-28T06:25:31Z</time>
      </trkpt>
      <trkpt lat="38.3578770" lon="-0.6652900">
        <ele>246.9</ele>
        <time>2018-04-28T06:25:32Z</time>
      </trkpt>
      <trkpt lat="38.3579260" lon="-0.6652640">
        <ele>247.1</ele>
        <time>2018-04-28T06:25:33Z</time>
      </trkpt>
      <trkpt lat="38.3579760" lon="-0.6652370">
        <ele>247.3</ele>
        <time>2018-04-28T06:25:34Z</time>
      </trkpt>
      <trkpt lat="38.3580260" lon="-0.6652130">
        <ele>247.4</ele>
        <time>2018-04-28T06:25:35Z</time>
      </trkpt>
      <trkpt lat="38.3580750" lon="-0.6651900">
        <ele>247.6</ele>
        <time>2018-04-28T06:25:36Z</time>
      </trkpt>
      <trkpt lat="38.3581240" lon="-0.6651680">
        <ele>247.7</ele>
        <time>2018-04-28T06:25:37Z</time>
      </trkpt>
      <trkpt lat="38.3581730" lon="-0.6651480">
        <ele>247.7</ele>
        <time>2018-04-28T06:25:38Z</time>
      </trkpt>
      <trkpt lat="38.3582220" lon="-0.6651270">
        <ele>247.7</ele>
        <time>2018-04-28T06:25:39Z</time>
      </trkpt>
      <trkpt lat="38.3582690" lon="-0.6651090">
        <ele>247.8</ele>
        <time>2018-04-28T06:25:40Z</time>
      </trkpt>
      <trkpt lat="38.3583190" lon="-0.6650950">
        <ele>247.8</ele>
        <time>2018-04-28T06:25:41Z</time>
      </trkpt>
      <trkpt lat="38.3583650" lon="-0.6650780">
        <ele>247.8</ele>
        <time>2018-04-28T06:25:42Z</time>
      </trkpt>
      <trkpt lat="38.3584100" lon="-0.6650610">
        <ele>247.9</ele>
        <time>2018-04-28T06:25:43Z</time>
      </trkpt>
      <trkpt lat="38.3584540" lon="-0.6650440">
        <ele>247.9</ele>
        <time>2018-04-28T06:25:44Z</time>
      </trkpt>
      <trkpt lat="38.3585020" lon="-0.6650300">
        <ele>247.9</ele>
        <time>2018-04-28T06:25:45Z</time>
      </trkpt>
      <trkpt lat="38.3585490" lon="-0.6650150">
        <ele>247.9</ele>
        <time>2018-04-28T06:25:46Z</time>
      </trkpt>
      <trkpt lat="38.3585950" lon="-0.6650010">
        <ele>248.0</ele>
        <time>2018-04-28T06:25:47Z</time>
      </trkpt>
      <trkpt lat="38.3586420" lon="-0.6649880">
        <ele>248.0</ele>
        <time>2018-04-28T06:25:48Z</time>
      </trkpt>
      <trkpt lat="38.3586880" lon="-0.6649780">
        <ele>248.0</ele>
        <time>2018-04-28T06:25:49Z</time>
      </trkpt>
      <trkpt lat="38.3587310" lon="-0.6649670">
        <ele>248.0</ele>
        <time>2018-04-28T06:25:50Z</time>
      </trkpt>
      <trkpt lat="38.3587560" lon="-0.6649430">
        <ele>248.0</ele>
        <time>2018-04-28T06:25:51Z</time>
      </trkpt>
      <trkpt lat="38.3587440" lon="-0.6649100">
        <ele>248.2</ele>
        <time>2018-04-28T06:25:52Z</time>
      </trkpt>
      <trkpt lat="38.3587410" lon="-0.6648770">
        <ele>248.4</ele>
        <time>2018-04-28T06:25:53Z</time>
      </trkpt>
      <trkpt lat="38.3587490" lon="-0.6648400">
        <ele>248.5</ele>
        <time>2018-04-28T06:25:54Z</time>
      </trkpt>
      <trkpt lat="38.3587710" lon="-0.6648100">
        <ele>248.6</ele>
        <time>2018-04-28T06:25:55Z</time>
      </trkpt>
      <trkpt lat="38.3587960" lon="-0.6647740">
        <ele>248.8</ele>
        <time>2018-04-28T06:25:56Z</time>
      </trkpt>
      <trkpt lat="38.3588230" lon="-0.6647350">
        <ele>249.0</ele>
        <time>2018-04-28T06:25:57Z</time>
      </trkpt>
      <trkpt lat="38.3588500" lon="-0.6646930">
        <ele>249.2</ele>
        <time>2018-04-28T06:25:58Z</time>
      </trkpt>
      <trkpt lat="38.3588790" lon="-0.6646550">
        <ele>249.4</ele>
        <time>2018-04-28T06:25:59Z</time>
      </trkpt>
      <trkpt lat="38.3589130" lon="-0.6646210">
        <ele>249.6</ele>
        <time>2018-04-28T06:26:00Z</time>
      </trkpt>
      <trkpt lat="38.3589520" lon="-0.6645950">
        <ele>249.8</ele>
        <time>2018-04-28T06:26:01Z</time>
      </trkpt>
      <trkpt lat="38.3589880" lon="-0.6645740">
        <ele>250.0</ele>
        <time>2018-04-28T06:26:02Z</time>
      </trkpt>
      <trkpt lat="38.3590250" lon="-0.6645560">
        <ele>250.2</ele>
        <time>2018-04-28T06:26:03Z</time>
      </trkpt>
      <trkpt lat="38.3590620" lon="-0.6645580">
        <ele>250.3</ele>
        <time>2018-04-28T06:26:04Z</time>
      </trkpt>
      <trkpt lat="38.3590930" lon="-0.6645550">
        <ele>250.5</ele>
        <time>2018-04-28T06:26:05Z</time>
      </trkpt>
      <trkpt lat="38.3591210" lon="-0.6645510">
        <ele>250.6</ele>
        <time>2018-04-28T06:26:06Z</time>
      </trkpt>
      <trkpt lat="38.3591510" lon="-0.6645500">
        <ele>250.8</ele>
        <time>2018-04-28T06:26:07Z</time>
      </trkpt>
      <trkpt lat="38.3591930" lon="-0.6645560">
        <ele>251.0</ele>
        <time>2018-04-28T06:26:08Z</time>
      </trkpt>
      <trkpt lat="38.3592360" lon="-0.6645590">
        <ele>251.2</ele>
        <time>2018-04-28T06:26:09Z</time>
      </trkpt>
      <trkpt lat="38.3592800" lon="-0.6645580">
        <ele>251.4</ele>
        <time>2018-04-28T06:26:10Z</time>
      </trkpt>
      <trkpt lat="38.3593250" lon="-0.6645550">
        <ele>251.6</ele>
        <time>2018-04-28T06:26:11Z</time>
      </trkpt>
      <trkpt lat="38.3593660" lon="-0.6645520">
        <ele>253.0</ele>
        <time>2018-04-28T06:26:12Z</time>
      </trkpt>
      <trkpt lat="38.3594000" lon="-0.6645520">
        <ele>253.0</ele>
        <time>2018-04-28T06:26:13Z</time>
      </trkpt>
      <trkpt lat="38.3594320" lon="-0.6645460">
        <ele>253.0</ele>
        <time>2018-04-28T06:26:14Z</time>
      </trkpt>
      <trkpt lat="38.3594620" lon="-0.6645330">
        <ele>253.0</ele>
        <time>2018-04-28T06:26:15Z</time>
      </trkpt>
      <trkpt lat="38.3594900" lon="-0.6645340">
        <ele>253.0</ele>
        <time>2018-04-28T06:26:16Z</time>
      </trkpt>
      <trkpt lat="38.3595050" lon="-0.6645550">
        <ele>253.0</ele>
        <time>2018-04-28T06:26:17Z</time>
      </trkpt>
      <trkpt lat="38.3595270" lon="-0.6645840">
        <ele>253.0</ele>
        <time>2018-04-28T06:26:18Z</time>
      </trkpt>
      <trkpt lat="38.3595490" lon="-0.6646140">
        <ele>253.0</ele>
        <time>2018-04-28T06:26:19Z</time>
      </trkpt>
      <trkpt lat="38.3595780" lon="-0.6646390">
        <ele>253.0</ele>
        <time>2018-04-28T06:26:20Z</time>
      </trkpt>
      <trkpt lat="38.3596070" lon="-0.6646600">
        <ele>253.0</ele>
        <time>2018-04-28T06:26:21Z</time>
      </trkpt>
      <trkpt lat="38.3596400" lon="-0.6646520">
        <ele>253.0</ele>
        <time>2018-04-28T06:26:22Z</time>
      </trkpt>
      <trkpt lat="38.3596750" lon="-0.6646370">
        <ele>253.0</ele>
        <time>2018-04-28T06:26:23Z</time>
      </trkpt>
      <trkpt lat="38.3597150" lon="-0.6646190">
        <ele>253.0</ele>
        <time>2018-04-28T06:26:24Z</time>
      </trkpt>
      <trkpt lat="38.3597610" lon="-0.6645990">
        <ele>253.0</ele>
        <time>2018-04-28T06:26:25Z</time>
      </trkpt>
      <trkpt lat="38.3598040" lon="-0.6645770">
        <ele>253.0</ele>
        <time>2018-04-28T06:26:26Z</time>
      </trkpt>
      <trkpt lat="38.3598440" lon="-0.6645520">
        <ele>253.1</ele>
        <time>2018-04-28T06:26:27Z</time>
      </trkpt>
      <trkpt lat="38.3598840" lon="-0.6645150">
        <ele>253.4</ele>
        <time>2018-04-28T06:26:28Z</time>
      </trkpt>
      <trkpt lat="38.3599200" lon="-0.6644780">
        <ele>253.7</ele>
        <time>2018-04-28T06:26:29Z</time>
      </trkpt>
      <trkpt lat="38.3599570" lon="-0.6644420">
        <ele>254.0</ele>
        <time>2018-04-28T06:26:30Z</time>
      </trkpt>
      <trkpt lat="38.3599930" lon="-0.6644120">
        <ele>254.4</ele>
        <time>2018-04-28T06:26:31Z</time>
      </trkpt>
      <trkpt lat="38.3600270" lon="-0.6643820">
        <ele>254.8</ele>
        <time>2018-04-28T06:26:32Z</time>
      </trkpt>
      <trkpt lat="38.3600580" lon="-0.6643530">
        <ele>255.2</ele>
        <time>2018-04-28T06:26:33Z</time>
      </trkpt>
      <trkpt lat="38.3600850" lon="-0.6643250">
        <ele>255.6</ele>
        <time>2018-04-28T06:26:34Z</time>
      </trkpt>
      <trkpt lat="38.3601140" lon="-0.6642990">
        <ele>256.1</ele>
        <time>2018-04-28T06:26:35Z</time>
      </trkpt>
      <trkpt lat="38.3601400" lon="-0.6642780">
        <ele>256.6</ele>
        <time>2018-04-28T06:26:36Z</time>
      </trkpt>
      <trkpt lat="38.3601620" lon="-0.6642590">
        <ele>257.0</ele>
        <time>2018-04-28T06:26:37Z</time>
      </trkpt>
      <trkpt lat="38.3601850" lon="-0.6642360">
        <ele>257.3</ele>
        <time>2018-04-28T06:26:38Z</time>
      </trkpt>
      <trkpt lat="38.3602070" lon="-0.6642100">
        <ele>257.5</ele>
        <time>2018-04-28T06:26:39Z</time>
      </trkpt>
      <trkpt lat="38.3602310" lon="-0.6641840">
        <ele>257.7</ele>
        <time>2018-04-28T06:26:40Z</time>
      </trkpt>
      <trkpt lat="38.3602570" lon="-0.6641500">
        <ele>258.0</ele>
        <time>2018-04-28T06:26:41Z</time>
      </trkpt>
      <trkpt lat="38.3602810" lon="-0.6641140">
        <ele>258.3</ele>
        <time>2018-04-28T06:26:42Z</time>
      </trkpt>
      <trkpt lat="38.3603080" lon="-0.6640650">
        <ele>258.5</ele>
        <time>2018-04-28T06:26:43Z</time>
      </trkpt>
      <trkpt lat="38.3603340" lon="-0.6640130">
        <ele>258.7</ele>
        <time>2018-04-28T06:26:44Z</time>
      </trkpt>
      <trkpt lat="38.3603620" lon="-0.6639630">
        <ele>258.9</ele>
        <time>2018-04-28T06:26:45Z</time>
      </trkpt>
      <trkpt lat="38.3603960" lon="-0.6639150">
        <ele>259.1</ele>
        <time>2018-04-28T06:26:46Z</time>
      </trkpt>
      <trkpt lat="38.3604290" lon="-0.6638680">
        <ele>259.2</ele>
        <time>2018-04-28T06:26:47Z</time>
      </trkpt>
      <trkpt lat="38.3604650" lon="-0.6638230">
        <ele>259.5</ele>
        <time>2018-04-28T06:26:48Z</time>
      </trkpt>
      <trkpt lat="38.3605000" lon="-0.6637760">
        <ele>259.7</ele>
        <time>2018-04-28T06:26:49Z</time>
      </trkpt>
      <trkpt lat="38.3605330" lon="-0.6637330">
        <ele>260.0</ele>
        <time>2018-04-28T06:26:50Z</time>
      </trkpt>
      <trkpt lat="38.3605650" lon="-0.6636920">
        <ele>260.2</ele>
        <time>2018-04-28T06:26:51Z</time>
      </trkpt>
      <trkpt lat="38.3605970" lon="-0.6636500">
        <ele>260.6</ele>
        <time>2018-04-28T06:26:52Z</time>
      </trkpt>
      <trkpt lat="38.3606270" lon="-0.6636080">
        <ele>260.9</ele>
        <time>2018-04-28T06:26:53Z</time>
      </trkpt>
      <trkpt lat="38.3606550" lon="-0.6635700">
        <ele>261.1</ele>
        <time>2018-04-28T06:26:54Z</time>
      </trkpt>
      <trkpt lat="38.3606850" lon="-0.6635310">
        <ele>261.5</ele>
        <time>2018-04-28T06:26:55Z</time>
      </trkpt>
      <trkpt lat="38.3607180" lon="-0.6635000">
        <ele>261.8</ele>
        <time>2018-04-28T06:26:56Z</time>
      </trkpt>
      <trkpt lat="38.3607530" lon="-0.6634690">
        <ele>262.0</ele>
        <time>2018-04-28T06:26:57Z</time>
      </trkpt>
      <trkpt lat="38.3607900" lon="-0.6634460">
        <ele>262.0</ele>
        <time>2018-04-28T06:26:58Z</time>
      </trkpt>
      <trkpt lat="38.3608240" lon="-0.6634260">
        <ele>262.0</ele>
        <time>2018-04-28T06:26:59Z</time>
      </trkpt>
      <trkpt lat="38.3608600" lon="-0.6634110">
        <ele>262.0</ele>
        <time>2018-04-28T06:27:00Z</time>
      </trkpt>
      <trkpt lat="38.3608960" lon="-0.6633950">
        <ele>262.0</ele>
        <time>2018-04-28T06:27:01Z</time>
      </trkpt>
      <trkpt lat="38.3609340" lon="-0.6633790">
        <ele>262.0</ele>
        <time>2018-04-28T06:27:02Z</time>
      </trkpt>
      <trkpt lat="38.3609710" lon="-0.6633640">
        <ele>262.0</ele>
        <time>2018-04-28T06:27:03Z</time>
      </trkpt>
      <trkpt lat="38.3610120" lon="-0.6633440">
        <ele>262.1</ele>
        <time>2018-04-28T06:27:04Z</time>
      </trkpt>
      <trkpt lat="38.3610530" lon="-0.6633170">
        <ele>262.2</ele>
        <time>2018-04-28T06:27:05Z</time>
      </trkpt>
      <trkpt lat="38.3610960" lon="-0.6632890">
        <ele>262.2</ele>
        <time>2018-04-28T06:27:06Z</time>
      </trkpt>
      <trkpt lat="38.3611390" lon="-0.6632590">
        <ele>262.3</ele>
        <time>2018-04-28T06:27:07Z</time>
      </trkpt>
      <trkpt lat="38.3611810" lon="-0.6632280">
        <ele>262.4</ele>
        <time>2018-04-28T06:27:08Z</time>
      </trkpt>
      <trkpt lat="38.3612240" lon="-0.6631980">
        <ele>262.6</ele>
        <time>2018-04-28T06:27:09Z</time>
      </trkpt>
      <trkpt lat="38.3612680" lon="-0.6631660">
        <ele>262.7</ele>
        <time>2018-04-28T06:27:10Z</time>
      </trkpt>
      <trkpt lat="38.3613070" lon="-0.6631320">
        <ele>262.8</ele>
        <time>2018-04-28T06:27:11Z</time>
      </trkpt>
      <trkpt lat="38.3613470" lon="-0.6630980">
        <ele>262.9</ele>
        <time>2018-04-28T06:27:12Z</time>
      </trkpt>
      <trkpt lat="38.3613840" lon="-0.6630620">
        <ele>263.0</ele>
        <time>2018-04-28T06:27:13Z</time>
      </trkpt>
      <trkpt lat="38.3614160" lon="-0.6630220">
        <ele>263.0</ele>
        <time>2018-04-28T06:27:14Z</time>
      </trkpt>
      <trkpt lat="38.3614480" lon="-0.6629850">
        <ele>263.1</ele>
        <time>2018-04-28T06:27:15Z</time>
      </trkpt>
      <trkpt lat="38.3614820" lon="-0.6629540">
        <ele>263.1</ele>
        <time>2018-04-28T06:27:16Z</time>
      </trkpt>
      <trkpt lat="38.3615170" lon="-0.6629300">
        <ele>263.2</ele>
        <time>2018-04-28T06:27:17Z</time>
      </trkpt>
      <trkpt lat="38.3615560" lon="-0.6629080">
        <ele>263.2</ele>
        <time>2018-04-28T06:27:18Z</time>
      </trkpt>
      <trkpt lat="38.3615970" lon="-0.6628880">
        <ele>263.3</ele>
        <time>2018-04-28T06:27:19Z</time>
      </trkpt>
      <trkpt lat="38.3616370" lon="-0.6628650">
        <ele>263.5</ele>
        <time>2018-04-28T06:27:20Z</time>
      </trkpt>
      <trkpt lat="38.3616770" lon="-0.6628420">
        <ele>263.6</ele>
        <time>2018-04-28T06:27:21Z</time>
      </trkpt>
      <trkpt lat="38.3617170" lon="-0.6628180">
        <ele>263.7</ele>
        <time>2018-04-28T06:27:22Z</time>
      </trkpt>
      <trkpt lat="38.3617580" lon="-0.6627940">
        <ele>263.8</ele>
        <time>2018-04-28T06:27:23Z</time>
      </trkpt>
      <trkpt lat="38.3618000" lon="-0.6627660">
        <ele>263.9</ele>
        <time>2018-04-28T06:27:24Z</time>
      </trkpt>
      <trkpt lat="38.3618410" lon="-0.6627370">
        <ele>264.0</ele>
        <time>2018-04-28T06:27:25Z</time>
      </trkpt>
      <trkpt lat="38.3618810" lon="-0.6627070">
        <ele>264.1</ele>
        <time>2018-04-28T06:27:26Z</time>
      </trkpt>
      <trkpt lat="38.3619200" lon="-0.6626730">
        <ele>264.2</ele>
        <time>2018-04-28T06:27:27Z</time>
      </trkpt>
      <trkpt lat="38.3619580" lon="-0.6626390">
        <ele>264.3</ele>
        <time>2018-04-28T06:27:28Z</time>
      </trkpt>
      <trkpt lat="38.3619980" lon="-0.6626070">
        <ele>264.4</ele>
        <time>2018-04-28T06:27:29Z</time>
      </trkpt>
      <trkpt lat="38.3620350" lon="-0.6625730">
        <ele>264.5</ele>
        <time>2018-04-28T06:27:30Z</time>
      </trkpt>
      <trkpt lat="38.3620730" lon="-0.6625390">
        <ele>264.6</ele>
        <time>2018-04-28T06:27:31Z</time>
      </trkpt>
      <trkpt lat="38.3621110" lon="-0.6625070">
        <ele>264.7</ele>
        <time>2018-04-28T06:27:32Z</time>
      </trkpt>
      <trkpt lat="38.3621510" lon="-0.6624740">
        <ele>264.9</ele>
        <time>2018-04-28T06:27:33Z</time>
      </trkpt>
      <trkpt lat="38.3621910" lon="-0.6624430">
        <ele>265.2</ele>
        <time>2018-04-28T06:27:34Z</time>
      </trkpt>
      <trkpt lat="38.3622320" lon="-0.6624120">
        <ele>265.4</ele>
        <time>2018-04-28T06:27:35Z</time>
      </trkpt>
      <trkpt lat="38.3622700" lon="-0.6623800">
        <ele>265.7</ele>
        <time>2018-04-28T06:27:36Z</time>
      </trkpt>
      <trkpt lat="38.3623100" lon="-0.6623480">
        <ele>266.0</ele>
        <time>2018-04-28T06:27:37Z</time>
      </trkpt>
      <trkpt lat="38.3623480" lon="-0.6623170">
        <ele>266.3</ele>
        <time>2018-04-28T06:27:38Z</time>
      </trkpt>
      <trkpt lat="38.3623850" lon="-0.6622840">
        <ele>266.5</ele>
        <time>2018-04-28T06:27:39Z</time>
      </trkpt>
      <trkpt lat="38.3624220" lon="-0.6622590">
        <ele>266.8</ele>
        <time>2018-04-28T06:27:40Z</time>
      </trkpt>
      <trkpt lat="38.3624580" lon="-0.6622370">
        <ele>267.0</ele>
        <time>2018-04-28T06:27:41Z</time>
      </trkpt>
      <trkpt lat="38.3624940" lon="-0.6622160">
        <ele>267.3</ele>
        <time>2018-04-28T06:27:42Z</time>
      </trkpt>
      <trkpt lat="38.3625250" lon="-0.6622040">
        <ele>267.5</ele>
        <time>2018-04-28T06:27:43Z</time>
      </trkpt>
      <trkpt lat="38.3625550" lon="-0.6621940">
        <ele>267.7</ele>
        <time>2018-04-28T06:27:44Z</time>
      </trkpt>
      <trkpt lat="38.3625880" lon="-0.6621890">
        <ele>267.9</ele>
        <time>2018-04-28T06:27:45Z</time>
      </trkpt>
      <trkpt lat="38.3626170" lon="-0.6621890">
        <ele>268.1</ele>
        <time>2018-04-28T06:27:46Z</time>
      </trkpt>
      <trkpt lat="38.3626470" lon="-0.6621890">
        <ele>268.2</ele>
        <time>2018-04-28T06:27:47Z</time>
      </trkpt>
      <trkpt lat="38.3626810" lon="-0.6621880">
        <ele>268.3</ele>
        <time>2018-04-28T06:27:48Z</time>
      </trkpt>
      <trkpt lat="38.3627210" lon="-0.6621950">
        <ele>268.3</ele>
        <time>2018-04-28T06:27:49Z</time>
      </trkpt>
      <trkpt lat="38.3627620" lon="-0.6622070">
        <ele>268.4</ele>
        <time>2018-04-28T06:27:50Z</time>
      </trkpt>
      <trkpt lat="38.3628040" lon="-0.6622150">
        <ele>268.5</ele>
        <time>2018-04-28T06:27:51Z</time>
      </trkpt>
      <trkpt lat="38.3628450" lon="-0.6622260">
        <ele>268.6</ele>
        <time>2018-04-28T06:27:52Z</time>
      </trkpt>
      <trkpt lat="38.3628900" lon="-0.6622370">
        <ele>268.7</ele>
        <time>2018-04-28T06:27:53Z</time>
      </trkpt>
      <trkpt lat="38.3629320" lon="-0.6622490">
        <ele>268.8</ele>
        <time>2018-04-28T06:27:54Z</time>
      </trkpt>
      <trkpt lat="38.3629790" lon="-0.6622580">
        <ele>268.9</ele>
        <time>2018-04-28T06:27:55Z</time>
      </trkpt>
      <trkpt lat="38.3630240" lon="-0.6622640">
        <ele>269.0</ele>
        <time>2018-04-28T06:27:56Z</time>
      </trkpt>
      <trkpt lat="38.3630670" lon="-0.6622640">
        <ele>269.1</ele>
        <time>2018-04-28T06:27:57Z</time>
      </trkpt>
      <trkpt lat="38.3631110" lon="-0.6622620">
        <ele>269.2</ele>
        <time>2018-04-28T06:27:58Z</time>
      </trkpt>
      <trkpt lat="38.3631540" lon="-0.6622590">
        <ele>269.3</ele>
        <time>2018-04-28T06:27:59Z</time>
      </trkpt>
      <trkpt lat="38.3631980" lon="-0.6622530">
        <ele>269.4</ele>
        <time>2018-04-28T06:28:00Z</time>
      </trkpt>
      <trkpt lat="38.3632430" lon="-0.6622460">
        <ele>269.6</ele>
        <time>2018-04-28T06:28:01Z</time>
      </trkpt>
      <trkpt lat="38.3632900" lon="-0.6622410">
        <ele>269.8</ele>
        <time>2018-04-28T06:28:02Z</time>
      </trkpt>
      <trkpt lat="38.3633350" lon="-0.6622370">
        <ele>269.9</ele>
        <time>2018-04-28T06:28:03Z</time>
      </trkpt>
      <trkpt lat="38.3633800" lon="-0.6622290">
        <ele>270.0</ele>
        <time>2018-04-28T06:28:04Z</time>
      </trkpt>
      <trkpt lat="38.3634260" lon="-0.6622160">
        <ele>270.1</ele>
        <time>2018-04-28T06:28:05Z</time>
      </trkpt>
      <trkpt lat="38.3634710" lon="-0.6622020">
        <ele>270.2</ele>
        <time>2018-04-28T06:28:06Z</time>
      </trkpt>
      <trkpt lat="38.3635160" lon="-0.6621890">
        <ele>270.3</ele>
        <time>2018-04-28T06:28:07Z</time>
      </trkpt>
      <trkpt lat="38.3635600" lon="-0.6621770">
        <ele>270.5</ele>
        <time>2018-04-28T06:28:08Z</time>
      </trkpt>
      <trkpt lat="38.3636020" lon="-0.6621650">
        <ele>270.7</ele>
        <time>2018-04-28T06:28:09Z</time>
      </trkpt>
      <trkpt lat="38.3636420" lon="-0.6621570">
        <ele>270.8</ele>
        <time>2018-04-28T06:28:10Z</time>
      </trkpt>
      <trkpt lat="38.3636810" lon="-0.6621420">
        <ele>271.0</ele>
        <time>2018-04-28T06:28:11Z</time>
      </trkpt>
      <trkpt lat="38.3637180" lon="-0.6621260">
        <ele>271.1</ele>
        <time>2018-04-28T06:28:12Z</time>
      </trkpt>
      <trkpt lat="38.3637530" lon="-0.6621080">
        <ele>271.4</ele>
        <time>2018-04-28T06:28:13Z</time>
      </trkpt>
      <trkpt lat="38.3637900" lon="-0.6620880">
        <ele>271.6</ele>
        <time>2018-04-28T06:28:14Z</time>
      </trkpt>
      <trkpt lat="38.3638280" lon="-0.6620600">
        <ele>271.8</ele>
        <time>2018-04-28T06:28:15Z</time>
      </trkpt>
      <trkpt lat="38.3638600" lon="-0.6620220">
        <ele>272.0</ele>
        <time>2018-04-28T06:28:16Z</time>
      </trkpt>
      <trkpt lat="38.3638930" lon="-0.6619870">
        <ele>272.1</ele>
        <time>2018-04-28T06:28:17Z</time>
      </trkpt>
      <trkpt lat="38.3639270" lon="-0.6619590">
        <ele>272.3</ele>
        <time>2018-04-28T06:28:18Z</time>
      </trkpt>
      <trkpt lat="38.3639580" lon="-0.6619390">
        <ele>272.4</ele>
        <time>2018-04-28T06:28:19Z</time>
      </trkpt>
      <trkpt lat="38.3639910" lon="-0.6619320">
        <ele>272.7</ele>
        <time>2018-04-28T06:28:20Z</time>
      </trkpt>
      <trkpt lat="38.3640280" lon="-0.6619340">
        <ele>273.1</ele>
        <time>2018-04-28T06:28:21Z</time>
      </trkpt>
      <trkpt lat="38.3640630" lon="-0.6619390">
        <ele>273.4</ele>
        <time>2018-04-28T06:28:22Z</time>
      </trkpt>
      <trkpt lat="38.3641000" lon="-0.6619420">
        <ele>273.7</ele>
        <time>2018-04-28T06:28:23Z</time>
      </trkpt>
      <trkpt lat="38.3641380" lon="-0.6619420">
        <ele>274.1</ele>
        <time>2018-04-28T06:28:24Z</time>
      </trkpt>
      <trkpt lat="38.3641780" lon="-0.6619410">
        <ele>274.4</ele>
        <time>2018-04-28T06:28:25Z</time>
      </trkpt>
      <trkpt lat="38.3642140" lon="-0.6619370">
        <ele>274.5</ele>
        <time>2018-04-28T06:28:26Z</time>
      </trkpt>
      <trkpt lat="38.3642500" lon="-0.6619200">
        <ele>274.7</ele>
        <time>2018-04-28T06:28:27Z</time>
      </trkpt>
      <trkpt lat="38.3642780" lon="-0.6618970">
        <ele>274.8</ele>
        <time>2018-04-28T06:28:28Z</time>
      </trkpt>
      <trkpt lat="38.3643060" lon="-0.6618670">
        <ele>275.1</ele>
        <time>2018-04-28T06:28:29Z</time>
      </trkpt>
      <trkpt lat="38.3643310" lon="-0.6618300">
        <ele>275.3</ele>
        <time>2018-04-28T06:28:30Z</time>
      </trkpt>
      <trkpt lat="38.3643550" lon="-0.6617970">
        <ele>275.4</ele>
        <time>2018-04-28T06:28:31Z</time>
      </trkpt>
      <trkpt lat="38.3643780" lon="-0.6617670">
        <ele>275.5</ele>
        <time>2018-04-28T06:28:32Z</time>
      </trkpt>
      <trkpt lat="38.3644050" lon="-0.6617460">
        <ele>275.6</ele>
        <time>2018-04-28T06:28:33Z</time>
      </trkpt>
      <trkpt lat="38.3644390" lon="-0.6617300">
        <ele>275.7</ele>
        <time>2018-04-28T06:28:34Z</time>
      </trkpt>
      <trkpt lat="38.3644760" lon="-0.6617140">
        <ele>275.8</ele>
        <time>2018-04-28T06:28:35Z</time>
      </trkpt>
      <trkpt lat="38.3645110" lon="-0.6616950">
        <ele>275.9</ele>
        <time>2018-04-28T06:28:36Z</time>
      </trkpt>
      <trkpt lat="38.3645510" lon="-0.6616810">
        <ele>276.0</ele>
        <time>2018-04-28T06:28:37Z</time>
      </trkpt>
      <trkpt lat="38.3645910" lon="-0.6616630">
        <ele>276.2</ele>
        <time>2018-04-28T06:28:38Z</time>
      </trkpt>
      <trkpt lat="38.3646310" lon="-0.6616440">
        <ele>276.3</ele>
        <time>2018-04-28T06:28:39Z</time>
      </trkpt>
      <trkpt lat="38.3646720" lon="-0.6616250">
        <ele>276.4</ele>
        <time>2018-04-28T06:28:40Z</time>
      </trkpt>
      <trkpt lat="38.3647140" lon="-0.6616090">
        <ele>276.5</ele>
        <time>2018-04-28T06:28:41Z</time>
      </trkpt>
      <trkpt lat="38.3647570" lon="-0.6615970">
        <ele>276.5</ele>
        <time>2018-04-28T06:28:42Z</time>
      </trkpt>
      <trkpt lat="38.3648000" lon="-0.6615880">
        <ele>276.6</ele>
        <time>2018-04-28T06:28:43Z</time>
      </trkpt>
      <trkpt lat="38.3648420" lon="-0.6615790">
        <ele>276.7</ele>
        <time>2018-04-28T06:28:44Z</time>
      </trkpt>
      <trkpt lat="38.3648820" lon="-0.6615660">
        <ele>276.8</ele>
        <time>2018-04-28T06:28:45Z</time>
      </trkpt>
      <trkpt lat="38.3649190" lon="-0.6615560">
        <ele>276.8</ele>
        <time>2018-04-28T06:28:46Z</time>
      </trkpt>
      <trkpt lat="38.3649490" lon="-0.6615610">
        <ele>276.9</ele>
        <time>2018-04-28T06:28:47Z</time>
      </trkpt>
      <trkpt lat="38.3649690" lon="-0.6615830">
        <ele>277.6</ele>
        <time>2018-04-28T06:28:48Z</time>
      </trkpt>
      <trkpt lat="38.3649790" lon="-0.6616140">
        <ele>277.8</ele>
        <time>2018-04-28T06:28:49Z</time>
      </trkpt>
      <trkpt lat="38.3649900" lon="-0.6616520">
        <ele>278.0</ele>
        <time>2018-04-28T06:28:50Z</time>
      </trkpt>
      <trkpt lat="38.3650010" lon="-0.6616950">
        <ele>278.1</ele>
        <time>2018-04-28T06:28:51Z</time>
      </trkpt>
      <trkpt lat="38.3650150" lon="-0.6617380">
        <ele>278.3</ele>
        <time>2018-04-28T06:28:52Z</time>
      </trkpt>
      <trkpt lat="38.3650320" lon="-0.6617870">
        <ele>278.5</ele>
        <time>2018-04-28T06:28:53Z</time>
      </trkpt>
      <trkpt lat="38.3650470" lon="-0.6618340">
        <ele>278.6</ele>
        <time>2018-04-28T06:28:54Z</time>
      </trkpt>
      <trkpt lat="38.3650600" lon="-0.6618820">
        <ele>278.8</ele>
        <time>2018-04-28T06:28:55Z</time>
      </trkpt>
      <trkpt lat="38.3650730" lon="-0.6619280">
        <ele>278.8</ele>
        <time>2018-04-28T06:28:56Z</time>
      </trkpt>
      <trkpt lat="38.3650830" lon="-0.6619750">
        <ele>278.8</ele>
        <time>2018-04-28T06:28:57Z</time>
      </trkpt>
      <trkpt lat="38.3650920" lon="-0.6620210">
        <ele>278.9</ele>
        <time>2018-04-28T06:28:58Z</time>
      </trkpt>
      <trkpt lat="38.3651060" lon="-0.6620690">
        <ele>278.9</ele>
        <time>2018-04-28T06:28:59Z</time>
      </trkpt>
      <trkpt lat="38.3651220" lon="-0.6621210">
        <ele>278.9</ele>
        <time>2018-04-28T06:29:00Z</time>
      </trkpt>
      <trkpt lat="38.3651440" lon="-0.6621760">
        <ele>278.9</ele>
        <time>2018-04-28T06:29:01Z</time>
      </trkpt>
      <trkpt lat="38.3651650" lon="-0.6622320">
        <ele>278.9</ele>
        <time>2018-04-28T06:29:02Z</time>
      </trkpt>
      <trkpt lat="38.3651840" lon="-0.6622920">
        <ele>278.9</ele>
        <time>2018-04-28T06:29:03Z</time>
      </trkpt>
      <trkpt lat="38.3652030" lon="-0.6623590">
        <ele>278.8</ele>
        <time>2018-04-28T06:29:04Z</time>
      </trkpt>
      <trkpt lat="38.3652210" lon="-0.6624320">
        <ele>278.7</ele>
        <time>2018-04-28T06:29:05Z</time>
      </trkpt>
      <trkpt lat="38.3652360" lon="-0.6625090">
        <ele>278.6</ele>
        <time>2018-04-28T06:29:06Z</time>
      </trkpt>
      <trkpt lat="38.3652470" lon="-0.6625900">
        <ele>278.4</ele>
        <time>2018-04-28T06:29:07Z</time>
      </trkpt>
      <trkpt lat="38.3652590" lon="-0.6626770">
        <ele>278.3</ele>
        <time>2018-04-28T06:29:08Z</time>
      </trkpt>
      <trkpt lat="38.3652700" lon="-0.6627670">
        <ele>278.2</ele>
        <time>2018-04-28T06:29:09Z</time>
      </trkpt>
      <trkpt lat="38.3652870" lon="-0.6628540">
        <ele>278.0</ele>
        <time>2018-04-28T06:29:10Z</time>
      </trkpt>
      <trkpt lat="38.3653130" lon="-0.6629490">
        <ele>277.8</ele>
        <time>2018-04-28T06:29:11Z</time>
      </trkpt>
      <trkpt lat="38.3653400" lon="-0.6630450">
        <ele>277.5</ele>
        <time>2018-04-28T06:29:12Z</time>
      </trkpt>
      <trkpt lat="38.3653630" lon="-0.6631420">
        <ele>277.2</ele>
        <time>2018-04-28T06:29:13Z</time>
      </trkpt>
      <trkpt lat="38.3653870" lon="-0.6632380">
        <ele>276.9</ele>
        <time>2018-04-28T06:29:14Z</time>
      </trkpt>
      <trkpt lat="38.3654140" lon="-0.6633350">
        <ele>276.7</ele>
        <time>2018-04-28T06:29:15Z</time>
      </trkpt>
      <trkpt lat="38.3654510" lon="-0.6634420">
        <ele>276.5</ele>
        <time>2018-04-28T06:29:16Z</time>
      </trkpt>
      <trkpt lat="38.3654820" lon="-0.6635380">
        <ele>276.3</ele>
        <time>2018-04-28T06:29:17Z</time>
      </trkpt>
      <trkpt lat="38.3655130" lon="-0.6636370">
        <ele>276.1</ele>
        <time>2018-04-28T06:29:18Z</time>
      </trkpt>
      <trkpt lat="38.3655400" lon="-0.6637340">
        <ele>275.8</ele>
        <time>2018-04-28T06:29:19Z</time>
      </trkpt>
      <trkpt lat="38.3655660" lon="-0.6638340">
        <ele>275.6</ele>
        <time>2018-04-28T06:29:20Z</time>
      </trkpt>
      <trkpt lat="38.3655960" lon="-0.6639320">
        <ele>275.3</ele>
        <time>2018-04-28T06:29:21Z</time>
      </trkpt>
      <trkpt lat="38.3656280" lon="-0.6640260">
        <ele>275.2</ele>
        <time>2018-04-28T06:29:22Z</time>
      </trkpt>
      <trkpt lat="38.3656640" lon="-0.6641250">
        <ele>275.1</ele>
        <time>2018-04-28T06:29:23Z</time>
      </trkpt>
      <trkpt lat="38.3656960" lon="-0.6642190">
        <ele>274.9</ele>
        <time>2018-04-28T06:29:24Z</time>
      </trkpt>
      <trkpt lat="38.3657210" lon="-0.6643180">
        <ele>274.8</ele>
        <time>2018-04-28T06:29:25Z</time>
      </trkpt>
      <trkpt lat="38.3657400" lon="-0.6644200">
        <ele>274.8</ele>
        <time>2018-04-28T06:29:26Z</time>
      </trkpt>
      <trkpt lat="38.3657540" lon="-0.6645230">
        <ele>274.8</ele>
        <time>2018-04-28T06:29:27Z</time>
      </trkpt>
      <trkpt lat="38.3657610" lon="-0.6646210">
        <ele>274.8</ele>
        <time>2018-04-28T06:29:28Z</time>
      </trkpt>
      <trkpt lat="38.3657670" lon="-0.6647210">
        <ele>274.9</ele>
        <time>2018-04-28T06:29:29Z</time>
      </trkpt>
      <trkpt lat="38.3657760" lon="-0.6648200">
        <ele>275.0</ele>
        <time>2018-04-28T06:29:30Z</time>
      </trkpt>
      <trkpt lat="38.3657880" lon="-0.6649180">
        <ele>275.0</ele>
        <time>2018-04-28T06:29:31Z</time>
      </trkpt>
      <trkpt lat="38.3658010" lon="-0.6650150">
        <ele>275.1</ele>
        <time>2018-04-28T06:29:32Z</time>
      </trkpt>
      <trkpt lat="38.3658090" lon="-0.6651100">
        <ele>275.1</ele>
        <time>2018-04-28T06:29:33Z</time>
      </trkpt>
      <trkpt lat="38.3658130" lon="-0.6652050">
        <ele>275.1</ele>
        <time>2018-04-28T06:29:34Z</time>
      </trkpt>
      <trkpt lat="38.3658170" lon="-0.6653000">
        <ele>275.2</ele>
        <time>2018-04-28T06:29:35Z</time>
      </trkpt>
      <trkpt lat="38.3658210" lon="-0.6653940">
        <ele>275.2</ele>
        <time>2018-04-28T06:29:36Z</time>
      </trkpt>
      <trkpt lat="38.3658260" lon="-0.6654880">
        <ele>275.2</ele>
        <time>2018-04-28T06:29:37Z</time>
      </trkpt>
      <trkpt lat="38.3658350" lon="-0.6655800">
        <ele>275.2</ele>
        <time>2018-04-28T06:29:38Z</time>
      </trkpt>
      <trkpt lat="38.3658610" lon="-0.6656710">
        <ele>275.3</ele>
        <time>2018-04-28T06:29:39Z</time>
      </trkpt>
      <trkpt lat="38.3658970" lon="-0.6657560">
        <ele>275.4</ele>
        <time>2018-04-28T06:29:40Z</time>
      </trkpt>
      <trkpt lat="38.3659350" lon="-0.6658310">
        <ele>275.6</ele>
        <time>2018-04-28T06:29:41Z</time>
      </trkpt>
      <trkpt lat="38.3659670" lon="-0.6659060">
        <ele>275.9</ele>
        <time>2018-04-28T06:29:42Z</time>
      </trkpt>
      <trkpt lat="38.3659980" lon="-0.6659780">
        <ele>276.2</ele>
        <time>2018-04-28T06:29:43Z</time>
      </trkpt>
      <trkpt lat="38.3660230" lon="-0.6660510">
        <ele>276.5</ele>
        <time>2018-04-28T06:29:44Z</time>
      </trkpt>
      <trkpt lat="38.3660350" lon="-0.6661280">
        <ele>276.7</ele>
        <time>2018-04-28T06:29:45Z</time>
      </trkpt>
      <trkpt lat="38.3660480" lon="-0.6662020">
        <ele>277.0</ele>
        <time>2018-04-28T06:29:46Z</time>
      </trkpt>
      <trkpt lat="38.3660640" lon="-0.6662720">
        <ele>277.4</ele>
        <time>2018-04-28T06:29:47Z</time>
      </trkpt>
      <trkpt lat="38.3660760" lon="-0.6663330">
        <ele>277.7</ele>
        <time>2018-04-28T06:29:48Z</time>
      </trkpt>
      <trkpt lat="38.3660870" lon="-0.6663940">
        <ele>278.0</ele>
        <time>2018-04-28T06:29:49Z</time>
      </trkpt>
      <trkpt lat="38.3660970" lon="-0.6664510">
        <ele>278.4</ele>
        <time>2018-04-28T06:29:50Z</time>
      </trkpt>
      <trkpt lat="38.3661120" lon="-0.6664950">
        <ele>278.8</ele>
        <time>2018-04-28T06:29:51Z</time>
      </trkpt>
      <trkpt lat="38.3661400" lon="-0.6665240">
        <ele>279.2</ele>
        <time>2018-04-28T06:29:52Z</time>
      </trkpt>
      <trkpt lat="38.3661640" lon="-0.6665420">
        <ele>279.4</ele>
        <time>2018-04-28T06:29:53Z</time>
      </trkpt>
      <trkpt lat="38.3661950" lon="-0.6665540">
        <ele>279.6</ele>
        <time>2018-04-28T06:29:54Z</time>
      </trkpt>
      <trkpt lat="38.3662290" lon="-0.6665640">
        <ele>279.8</ele>
        <time>2018-04-28T06:29:55Z</time>
      </trkpt>
      <trkpt lat="38.3662610" lon="-0.6665760">
        <ele>280.0</ele>
        <time>2018-04-28T06:29:56Z</time>
      </trkpt>
      <trkpt lat="38.3662940" lon="-0.6665880">
        <ele>280.2</ele>
        <time>2018-04-28T06:29:57Z</time>
      </trkpt>
      <trkpt lat="38.3663290" lon="-0.6666020">
        <ele>280.4</ele>
        <time>2018-04-28T06:29:58Z</time>
      </trkpt>
      <trkpt lat="38.3663690" lon="-0.6666170">
        <ele>280.6</ele>
        <time>2018-04-28T06:29:59Z</time>
      </trkpt>
      <trkpt lat="38.3664100" lon="-0.6666310">
        <ele>280.8</ele>
        <time>2018-04-28T06:30:00Z</time>
      </trkpt>
      <trkpt lat="38.3664500" lon="-0.6666430">
        <ele>281.0</ele>
        <time>2018-04-28T06:30:01Z</time>
      </trkpt>
      <trkpt lat="38.3664900" lon="-0.6666610">
        <ele>281.2</ele>
        <time>2018-04-28T06:30:02Z</time>
      </trkpt>
      <trkpt lat="38.3665290" lon="-0.6666790">
        <ele>281.4</ele>
        <time>2018-04-28T06:30:03Z</time>
      </trkpt>
      <trkpt lat="38.3665670" lon="-0.6666970">
        <ele>281.9</ele>
        <time>2018-04-28T06:30:04Z</time>
      </trkpt>
      <trkpt lat="38.3666050" lon="-0.6667130">
        <ele>282.1</ele>
        <time>2018-04-28T06:30:05Z</time>
      </trkpt>
      <trkpt lat="38.3666380" lon="-0.6667250">
        <ele>282.3</ele>
        <time>2018-04-28T06:30:06Z</time>
      </trkpt>
      <trkpt lat="38.3666710" lon="-0.6667370">
        <ele>282.5</ele>
        <time>2018-04-28T06:30:07Z</time>
      </trkpt>
      <trkpt lat="38.3667030" lon="-0.6667490">
        <ele>282.6</ele>
        <time>2018-04-28T06:30:08Z</time>
      </trkpt>
      <trkpt lat="38.3667360" lon="-0.6667620">
        <ele>282.8</ele>
        <time>2018-04-28T06:30:09Z</time>
      </trkpt>
      <trkpt lat="38.3667650" lon="-0.6667800">
        <ele>283.0</ele>
        <time>2018-04-28T06:30:10Z</time>
      </trkpt>
      <trkpt lat="38.3667990" lon="-0.6667980">
        <ele>283.4</ele>
        <time>2018-04-28T06:30:11Z</time>
      </trkpt>
      <trkpt lat="38.3668340" lon="-0.6668130">
        <ele>283.6</ele>
        <time>2018-04-28T06:30:12Z</time>
      </trkpt>
      <trkpt lat="38.3668690" lon="-0.6668290">
        <ele>283.7</ele>
        <time>2018-04-28T06:30:13Z</time>
      </trkpt>
      <trkpt lat="38.3669000" lon="-0.6668500">
        <ele>283.9</ele>
        <time>2018-04-28T06:30:14Z</time>
      </trkpt>
      <trkpt lat="38.3669320" lon="-0.6668720">
        <ele>284.1</ele>
        <time>2018-04-28T06:30:15Z</time>
      </trkpt>
      <trkpt lat="38.3669630" lon="-0.6668930">
        <ele>284.2</ele>
        <time>2018-04-28T06:30:16Z</time>
      </trkpt>
      <trkpt lat="38.3669960" lon="-0.6669150">
        <ele>284.5</ele>
        <time>2018-04-28T06:30:17Z</time>
      </trkpt>
      <trkpt lat="38.3670270" lon="-0.6669390">
        <ele>284.8</ele>
        <time>2018-04-28T06:30:18Z</time>
      </trkpt>
      <trkpt lat="38.3670580" lon="-0.6669630">
        <ele>285.0</ele>
        <time>2018-04-28T06:30:19Z</time>
      </trkpt>
      <trkpt lat="38.3670890" lon="-0.6669870">
        <ele>285.2</ele>
        <time>2018-04-28T06:30:20Z</time>
      </trkpt>
      <trkpt lat="38.3671210" lon="-0.6670110">
        <ele>285.5</ele>
        <time>2018-04-28T06:30:21Z</time>
      </trkpt>
      <trkpt lat="38.3671540" lon="-0.6670330">
        <ele>285.7</ele>
        <time>2018-04-28T06:30:22Z</time>
      </trkpt>
      <trkpt lat="38.3671860" lon="-0.6670550">
        <ele>286.0</ele>
        <time>2018-04-28T06:30:23Z</time>
      </trkpt>
      <trkpt lat="38.3672140" lon="-0.6670750">
        <ele>286.3</ele>
        <time>2018-04-28T06:30:24Z</time>
      </trkpt>
      <trkpt lat="38.3672400" lon="-0.6670970">
        <ele>286.6</ele>
        <time>2018-04-28T06:30:25Z</time>
      </trkpt>
      <trkpt lat="38.3672660" lon="-0.6671180">
        <ele>286.9</ele>
        <time>2018-04-28T06:30:26Z</time>
      </trkpt>
      <trkpt lat="38.3672970" lon="-0.6671400">
        <ele>287.2</ele>
        <time>2018-04-28T06:30:27Z</time>
      </trkpt>
      <trkpt lat="38.3673310" lon="-0.6671630">
        <ele>287.3</ele>
        <time>2018-04-28T06:30:28Z</time>
      </trkpt>
      <trkpt lat="38.3673680" lon="-0.6671840">
        <ele>287.5</ele>
        <time>2018-04-28T06:30:29Z</time>
      </trkpt>
      <trkpt lat="38.3674080" lon="-0.6672040">
        <ele>287.6</ele>
        <time>2018-04-28T06:30:30Z</time>
      </trkpt>
      <trkpt lat="38.3674490" lon="-0.6672170">
        <ele>287.8</ele>
        <time>2018-04-28T06:30:31Z</time>
      </trkpt>
      <trkpt lat="38.3674900" lon="-0.6672190">
        <ele>287.9</ele>
        <time>2018-04-28T06:30:32Z</time>
      </trkpt>
      <trkpt lat="38.3675360" lon="-0.6672130">
        <ele>288.1</ele>
        <time>2018-04-28T06:30:33Z</time>
      </trkpt>
      <trkpt lat="38.3675830" lon="-0.6671980">
        <ele>288.3</ele>
        <time>2018-04-28T06:30:34Z</time>
      </trkpt>
      <trkpt lat="38.3676260" lon="-0.6671760">
        <ele>288.4</ele>
        <time>2018-04-28T06:30:35Z</time>
      </trkpt>
      <trkpt lat="38.3676670" lon="-0.6671480">
        <ele>288.7</ele>
        <time>2018-04-28T06:30:36Z</time>
      </trkpt>
      <trkpt lat="38.3677090" lon="-0.6671160">
        <ele>288.9</ele>
        <time>2018-04-28T06:30:37Z</time>
      </trkpt>
      <trkpt lat="38.3677460" lon="-0.6670770">
        <ele>289.1</ele>
        <time>2018-04-28T06:30:38Z</time>
      </trkpt>
      <trkpt lat="38.3677830" lon="-0.6670400">
        <ele>289.2</ele>
        <time>2018-04-28T06:30:39Z</time>
      </trkpt>
      <trkpt lat="38.3678200" lon="-0.6670060">
        <ele>289.3</ele>
        <time>2018-04-28T06:30:40Z</time>
      </trkpt>
      <trkpt lat="38.3678570" lon="-0.6669720">
        <ele>289.5</ele>
        <time>2018-04-28T06:30:41Z</time>
      </trkpt>
      <trkpt lat="38.3678910" lon="-0.6669310">
        <ele>289.6</ele>
        <time>2018-04-28T06:30:42Z</time>
      </trkpt>
      <trkpt lat="38.3679210" lon="-0.6668870">
        <ele>289.8</ele>
        <time>2018-04-28T06:30:43Z</time>
      </trkpt>
      <trkpt lat="38.3679500" lon="-0.6668410">
        <ele>290.0</ele>
        <time>2018-04-28T06:30:44Z</time>
      </trkpt>
      <trkpt lat="38.3679710" lon="-0.6667920">
        <ele>290.1</ele>
        <time>2018-04-28T06:30:45Z</time>
      </trkpt>
      <trkpt lat="38.3679890" lon="-0.6667450">
        <ele>290.3</ele>
        <time>2018-04-28T06:30:46Z</time>
      </trkpt>
      <trkpt lat="38.3680020" lon="-0.6667000">
        <ele>290.4</ele>
        <time>2018-04-28T06:30:47Z</time>
      </trkpt>
      <trkpt lat="38.3680130" lon="-0.6666610">
        <ele>290.5</ele>
        <time>2018-04-28T06:30:48Z</time>
      </trkpt>
      <trkpt lat="38.3680260" lon="-0.6666190">
        <ele>290.6</ele>
        <time>2018-04-28T06:30:49Z</time>
      </trkpt>
      <trkpt lat="38.3680380" lon="-0.6665710">
        <ele>290.7</ele>
        <time>2018-04-28T06:30:50Z</time>
      </trkpt>
      <trkpt lat="38.3680590" lon="-0.6665180">
        <ele>290.8</ele>
        <time>2018-04-28T06:30:51Z</time>
      </trkpt>
      <trkpt lat="38.3680850" lon="-0.6664670">
        <ele>290.9</ele>
        <time>2018-04-28T06:30:52Z</time>
      </trkpt>
      <trkpt lat="38.3681140" lon="-0.6664160">
        <ele>290.9</ele>
        <time>2018-04-28T06:30:53Z</time>
      </trkpt>
      <trkpt lat="38.3681400" lon="-0.6663690">
        <ele>291.0</ele>
        <time>2018-04-28T06:30:54Z</time>
      </trkpt>
      <trkpt lat="38.3681580" lon="-0.6663170">
        <ele>291.0</ele>
        <time>2018-04-28T06:30:55Z</time>
      </trkpt>
      <trkpt lat="38.3681680" lon="-0.6662590">
        <ele>291.0</ele>
        <time>2018-04-28T06:30:56Z</time>
      </trkpt>
      <trkpt lat="38.3681750" lon="-0.6662020">
        <ele>291.1</ele>
        <time>2018-04-28T06:30:57Z</time>
      </trkpt>
      <trkpt lat="38.3681900" lon="-0.6661430">
        <ele>291.1</ele>
        <time>2018-04-28T06:30:58Z</time>
      </trkpt>
      <trkpt lat="38.3682040" lon="-0.6660870">
        <ele>291.2</ele>
        <time>2018-04-28T06:30:59Z</time>
      </trkpt>
      <trkpt lat="38.3682150" lon="-0.6660300">
        <ele>291.2</ele>
        <time>2018-04-28T06:31:00Z</time>
      </trkpt>
      <trkpt lat="38.3682260" lon="-0.6659770">
        <ele>291.2</ele>
        <time>2018-04-28T06:31:01Z</time>
      </trkpt>
      <trkpt lat="38.3682340" lon="-0.6659260">
        <ele>291.3</ele>
        <time>2018-04-28T06:31:02Z</time>
      </trkpt>
      <trkpt lat="38.3682400" lon="-0.6658730">
        <ele>291.3</ele>
        <time>2018-04-28T06:31:03Z</time>
      </trkpt>
      <trkpt lat="38.3682470" lon="-0.6658220">
        <ele>291.3</ele>
        <time>2018-04-28T06:31:04Z</time>
      </trkpt>
      <trkpt lat="38.3682630" lon="-0.6657790">
        <ele>291.4</ele>
        <time>2018-04-28T06:31:05Z</time>
      </trkpt>
      <trkpt lat="38.3682800" lon="-0.6657380">
        <ele>291.4</ele>
        <time>2018-04-28T06:31:06Z</time>
      </trkpt>
      <trkpt lat="38.3683070" lon="-0.6657050">
        <ele>291.4</ele>
        <time>2018-04-28T06:31:07Z</time>
      </trkpt>
      <trkpt lat="38.3683490" lon="-0.6656940">
        <ele>291.4</ele>
        <time>2018-04-28T06:31:08Z</time>
      </trkpt>
      <trkpt lat="38.3683920" lon="-0.6656840">
        <ele>291.4</ele>
        <time>2018-04-28T06:31:09Z</time>
      </trkpt>
      <trkpt lat="38.3684180" lon="-0.6656950">
        <ele>291.4</ele>
        <time>2018-04-28T06:31:10Z</time>
      </trkpt>
      <trkpt lat="38.3684420" lon="-0.6657190">
        <ele>291.4</ele>
        <time>2018-04-28T06:31:11Z</time>
      </trkpt>
      <trkpt lat="38.3684710" lon="-0.6657510">
        <ele>291.9</ele>
        <time>2018-04-28T06:31:12Z</time>
      </trkpt>
      <trkpt lat="38.3685040" lon="-0.6657840">
        <ele>292.3</ele>
        <time>2018-04-28T06:31:13Z</time>
      </trkpt>
      <trkpt lat="38.3685390" lon="-0.6658130">
        <ele>292.8</ele>
        <time>2018-04-28T06:31:14Z</time>
      </trkpt>
      <trkpt lat="38.3685710" lon="-0.6658390">
        <ele>293.3</ele>
        <time>2018-04-28T06:31:15Z</time>
      </trkpt>
      <trkpt lat="38.3686010" lon="-0.6658670">
        <ele>293.8</ele>
        <time>2018-04-28T06:31:16Z</time>
      </trkpt>
      <trkpt lat="38.3686230" lon="-0.6658930">
        <ele>294.3</ele>
        <time>2018-04-28T06:31:17Z</time>
      </trkpt>
      <trkpt lat="38.3686460" lon="-0.6659130">
        <ele>294.3</ele>
        <time>2018-04-28T06:31:18Z</time>
      </trkpt>
      <trkpt lat="38.3686680" lon="-0.6659340">
        <ele>294.9</ele>
        <time>2018-04-28T06:31:19Z</time>
      </trkpt>
      <trkpt lat="38.3686900" lon="-0.6659620">
        <ele>295.5</ele>
        <time>2018-04-28T06:31:20Z</time>
      </trkpt>
      <trkpt lat="38.3687140" lon="-0.6659920">
        <ele>295.9</ele>
        <time>2018-04-28T06:31:21Z</time>
      </trkpt>
      <trkpt lat="38.3687370" lon="-0.6660160">
        <ele>296.1</ele>
        <time>2018-04-28T06:31:22Z</time>
      </trkpt>
      <trkpt lat="38.3687610" lon="-0.6660440">
        <ele>296.6</ele>
        <time>2018-04-28T06:31:23Z</time>
      </trkpt>
      <trkpt lat="38.3687860" lon="-0.6660700">
        <ele>297.2</ele>
        <time>2018-04-28T06:31:24Z</time>
      </trkpt>
      <trkpt lat="38.3688110" lon="-0.6660970">
        <ele>297.4</ele>
        <time>2018-04-28T06:31:25Z</time>
      </trkpt>
      <trkpt lat="38.3688350" lon="-0.6661260">
        <ele>298.0</ele>
        <time>2018-04-28T06:31:26Z</time>
      </trkpt>
      <trkpt lat="38.3688640" lon="-0.6661540">
        <ele>298.7</ele>
        <time>2018-04-28T06:31:27Z</time>
      </trkpt>
      <trkpt lat="38.3688900" lon="-0.6661820">
        <ele>299.4</ele>
        <time>2018-04-28T06:31:28Z</time>
      </trkpt>
      <trkpt lat="38.3689150" lon="-0.6662080">
        <ele>299.4</ele>
        <time>2018-04-28T06:31:29Z</time>
      </trkpt>
      <trkpt lat="38.3689380" lon="-0.6662390">
        <ele>300.1</ele>
        <time>2018-04-28T06:31:30Z</time>
      </trkpt>
      <trkpt lat="38.3689540" lon="-0.6662710">
        <ele>300.8</ele>
        <time>2018-04-28T06:31:31Z</time>
      </trkpt>
      <trkpt lat="38.3689700" lon="-0.6663000">
        <ele>300.8</ele>
        <time>2018-04-28T06:31:32Z</time>
      </trkpt>
      <trkpt lat="38.3689840" lon="-0.6663300">
        <ele>301.5</ele>
        <time>2018-04-28T06:31:33Z</time>
      </trkpt>
      <trkpt lat="38.3689980" lon="-0.6663640">
        <ele>301.8</ele>
        <time>2018-04-28T06:31:34Z</time>
      </trkpt>
      <trkpt lat="38.3690130" lon="-0.6663930">
        <ele>302.1</ele>
        <time>2018-04-28T06:31:35Z</time>
      </trkpt>
      <trkpt lat="38.3690270" lon="-0.6664220">
        <ele>302.5</ele>
        <time>2018-04-28T06:31:36Z</time>
      </trkpt>
      <trkpt lat="38.3690410" lon="-0.6664520">
        <ele>302.9</ele>
        <time>2018-04-28T06:31:37Z</time>
      </trkpt>
      <trkpt lat="38.3690550" lon="-0.6664840">
        <ele>303.6</ele>
        <time>2018-04-28T06:31:38Z</time>
      </trkpt>
      <trkpt lat="38.3690660" lon="-0.6665150">
        <ele>303.6</ele>
        <time>2018-04-28T06:31:39Z</time>
      </trkpt>
      <trkpt lat="38.3690780" lon="-0.6665470">
        <ele>303.9</ele>
        <time>2018-04-28T06:31:40Z</time>
      </trkpt>
      <trkpt lat="38.3690910" lon="-0.6665800">
        <ele>304.6</ele>
        <time>2018-04-28T06:31:41Z</time>
      </trkpt>
      <trkpt lat="38.3691040" lon="-0.6666100">
        <ele>305.0</ele>
        <time>2018-04-28T06:31:42Z</time>
      </trkpt>
      <trkpt lat="38.3691160" lon="-0.6666430">
        <ele>305.0</ele>
        <time>2018-04-28T06:31:43Z</time>
      </trkpt>
      <trkpt lat="38.3691330" lon="-0.6666730">
        <ele>305.7</ele>
        <time>2018-04-28T06:31:44Z</time>
      </trkpt>
      <trkpt lat="38.3691530" lon="-0.6667010">
        <ele>306.4</ele>
        <time>2018-04-28T06:31:45Z</time>
      </trkpt>
      <trkpt lat="38.3691710" lon="-0.6667300">
        <ele>306.4</ele>
        <time>2018-04-28T06:31:46Z</time>
      </trkpt>
      <trkpt lat="38.3691910" lon="-0.6667560">
        <ele>307.1</ele>
        <time>2018-04-28T06:31:47Z</time>
      </trkpt>
      <trkpt lat="38.3692110" lon="-0.6667770">
        <ele>307.5</ele>
        <time>2018-04-28T06:31:48Z</time>
      </trkpt>
      <trkpt lat="38.3692310" lon="-0.6667920">
        <ele>307.8</ele>
        <time>2018-04-28T06:31:49Z</time>
      </trkpt>
      <trkpt lat="38.3692490" lon="-0.6668080">
        <ele>307.8</ele>
        <time>2018-04-28T06:31:50Z</time>
      </trkpt>
      <trkpt lat="38.3692680" lon="-0.6668220">
        <ele>308.5</ele>
        <time>2018-04-28T06:31:51Z</time>
      </trkpt>
      <trkpt lat="38.3692880" lon="-0.6668360">
        <ele>308.9</ele>
        <time>2018-04-28T06:31:52Z</time>
      </trkpt>
      <trkpt lat="38.3693060" lon="-0.6668530">
        <ele>308.9</ele>
        <time>2018-04-28T06:31:53Z</time>
      </trkpt>
      <trkpt lat="38.3693200" lon="-0.6668770">
        <ele>309.6</ele>
        <time>2018-04-28T06:31:54Z</time>
      </trkpt>
      <trkpt lat="38.3693340" lon="-0.6669020">
        <ele>309.6</ele>
        <time>2018-04-28T06:31:55Z</time>
      </trkpt>
      <trkpt lat="38.3693570" lon="-0.6669230">
        <ele>310.3</ele>
        <time>2018-04-28T06:31:56Z</time>
      </trkpt>
      <trkpt lat="38.3693760" lon="-0.6669450">
        <ele>310.3</ele>
        <time>2018-04-28T06:31:57Z</time>
      </trkpt>
      <trkpt lat="38.3693920" lon="-0.6669700">
        <ele>310.9</ele>
        <time>2018-04-28T06:31:58Z</time>
      </trkpt>
      <trkpt lat="38.3694100" lon="-0.6669970">
        <ele>311.2</ele>
        <time>2018-04-28T06:31:59Z</time>
      </trkpt>
      <trkpt lat="38.3694260" lon="-0.6670250">
        <ele>311.4</ele>
        <time>2018-04-28T06:32:00Z</time>
      </trkpt>
      <trkpt lat="38.3694390" lon="-0.6670560">
        <ele>311.6</ele>
        <time>2018-04-28T06:32:01Z</time>
      </trkpt>
      <trkpt lat="38.3694550" lon="-0.6670860">
        <ele>312.0</ele>
        <time>2018-04-28T06:32:02Z</time>
      </trkpt>
      <trkpt lat="38.3694740" lon="-0.6671170">
        <ele>312.0</ele>
        <time>2018-04-28T06:32:03Z</time>
      </trkpt>
      <trkpt lat="38.3694940" lon="-0.6671460">
        <ele>312.3</ele>
        <time>2018-04-28T06:32:04Z</time>
      </trkpt>
      <trkpt lat="38.3695170" lon="-0.6671710">
        <ele>312.4</ele>
        <time>2018-04-28T06:32:05Z</time>
      </trkpt>
      <trkpt lat="38.3695420" lon="-0.6671990">
        <ele>312.5</ele>
        <time>2018-04-28T06:32:06Z</time>
      </trkpt>
      <trkpt lat="38.3695670" lon="-0.6672260">
        <ele>312.8</ele>
        <time>2018-04-28T06:32:07Z</time>
      </trkpt>
      <trkpt lat="38.3695910" lon="-0.6672540">
        <ele>313.1</ele>
        <time>2018-04-28T06:32:08Z</time>
      </trkpt>
      <trkpt lat="38.3696150" lon="-0.6672780">
        <ele>313.1</ele>
        <time>2018-04-28T06:32:09Z</time>
      </trkpt>
      <trkpt lat="38.3696430" lon="-0.6672980">
        <ele>313.4</ele>
        <time>2018-04-28T06:32:10Z</time>
      </trkpt>
      <trkpt lat="38.3696740" lon="-0.6673110">
        <ele>313.6</ele>
        <time>2018-04-28T06:32:11Z</time>
      </trkpt>
      <trkpt lat="38.3697080" lon="-0.6673280">
        <ele>313.8</ele>
        <time>2018-04-28T06:32:12Z</time>
      </trkpt>
      <trkpt lat="38.3697310" lon="-0.6673630">
        <ele>314.2</ele>
        <time>2018-04-28T06:32:13Z</time>
      </trkpt>
      <trkpt lat="38.3697540" lon="-0.6673970">
        <ele>314.4</ele>
        <time>2018-04-28T06:32:14Z</time>
      </trkpt>
      <trkpt lat="38.3697740" lon="-0.6674280">
        <ele>314.8</ele>
        <time>2018-04-28T06:32:15Z</time>
      </trkpt>
      <trkpt lat="38.3697940" lon="-0.6674610">
        <ele>315.0</ele>
        <time>2018-04-28T06:32:16Z</time>
      </trkpt>
      <trkpt lat="38.3698150" lon="-0.6674920">
        <ele>315.1</ele>
        <time>2018-04-28T06:32:17Z</time>
      </trkpt>
      <trkpt lat="38.3698360" lon="-0.6675230">
        <ele>315.4</ele>
        <time>2018-04-28T06:32:18Z</time>
      </trkpt>
      <trkpt lat="38.3698560" lon="-0.6675560">
        <ele>315.5</ele>
        <time>2018-04-28T06:32:19Z</time>
      </trkpt>
      <trkpt lat="38.3698750" lon="-0.6675870">
        <ele>315.7</ele>
        <time>2018-04-28T06:32:20Z</time>
      </trkpt>
      <trkpt lat="38.3698940" lon="-0.6676150">
        <ele>315.9</ele>
        <time>2018-04-28T06:32:21Z</time>
      </trkpt>
      <trkpt lat="38.3699170" lon="-0.6676360">
        <ele>316.0</ele>
        <time>2018-04-28T06:32:22Z</time>
      </trkpt>
      <trkpt lat="38.3699390" lon="-0.6676610">
        <ele>316.2</ele>
        <time>2018-04-28T06:32:23Z</time>
      </trkpt>
      <trkpt lat="38.3699630" lon="-0.6676840">
        <ele>316.4</ele>
        <time>2018-04-28T06:32:24Z</time>
      </trkpt>
      <trkpt lat="38.3699830" lon="-0.6677060">
        <ele>316.5</ele>
        <time>2018-04-28T06:32:25Z</time>
      </trkpt>
      <trkpt lat="38.3700000" lon="-0.6677280">
        <ele>316.7</ele>
        <time>2018-04-28T06:32:26Z</time>
      </trkpt>
      <trkpt lat="38.3700150" lon="-0.6677530">
        <ele>316.7</ele>
        <time>2018-04-28T06:32:27Z</time>
      </trkpt>
      <trkpt lat="38.3700320" lon="-0.6677790">
        <ele>317.0</ele>
        <time>2018-04-28T06:32:28Z</time>
      </trkpt>
      <trkpt lat="38.3700470" lon="-0.6678010">
        <ele>317.0</ele>
        <time>2018-04-28T06:32:29Z</time>
      </trkpt>
      <trkpt lat="38.3700630" lon="-0.6678220">
        <ele>317.2</ele>
        <time>2018-04-28T06:32:30Z</time>
      </trkpt>
      <trkpt lat="38.3700840" lon="-0.6678430">
        <ele>317.2</ele>
        <time>2018-04-28T06:32:31Z</time>
      </trkpt>
      <trkpt lat="38.3701040" lon="-0.6678640">
        <ele>317.5</ele>
        <time>2018-04-28T06:32:32Z</time>
      </trkpt>
      <trkpt lat="38.3701290" lon="-0.6678800">
        <ele>317.6</ele>
        <time>2018-04-28T06:32:33Z</time>
      </trkpt>
      <trkpt lat="38.3701530" lon="-0.6678980">
        <ele>317.7</ele>
        <time>2018-04-28T06:32:34Z</time>
      </trkpt>
      <trkpt lat="38.3701780" lon="-0.6679100">
        <ele>317.9</ele>
        <time>2018-04-28T06:32:35Z</time>
      </trkpt>
      <trkpt lat="38.3702010" lon="-0.6679240">
        <ele>318.0</ele>
        <time>2018-04-28T06:32:36Z</time>
      </trkpt>
      <trkpt lat="38.3702230" lon="-0.6679360">
        <ele>318.1</ele>
        <time>2018-04-28T06:32:37Z</time>
      </trkpt>
      <trkpt lat="38.3702450" lon="-0.6679440">
        <ele>318.3</ele>
        <time>2018-04-28T06:32:38Z</time>
      </trkpt>
      <trkpt lat="38.3702690" lon="-0.6679520">
        <ele>318.4</ele>
        <time>2018-04-28T06:32:39Z</time>
      </trkpt>
      <trkpt lat="38.3702960" lon="-0.6679580">
        <ele>318.6</ele>
        <time>2018-04-28T06:32:40Z</time>
      </trkpt>
      <trkpt lat="38.3703240" lon="-0.6679630">
        <ele>318.6</ele>
        <time>2018-04-28T06:32:41Z</time>
      </trkpt>
      <trkpt lat="38.3703470" lon="-0.6679670">
        <ele>318.8</ele>
        <time>2018-04-28T06:32:42Z</time>
      </trkpt>
      <trkpt lat="38.3703690" lon="-0.6679760">
        <ele>319.0</ele>
        <time>2018-04-28T06:32:43Z</time>
      </trkpt>
      <trkpt lat="38.3703870" lon="-0.6679820">
        <ele>319.1</ele>
        <time>2018-04-28T06:32:44Z</time>
      </trkpt>
      <trkpt lat="38.3704100" lon="-0.6679910">
        <ele>319.2</ele>
        <time>2018-04-28T06:32:45Z</time>
      </trkpt>
      <trkpt lat="38.3704350" lon="-0.6680000">
        <ele>319.4</ele>
        <time>2018-04-28T06:32:46Z</time>
      </trkpt>
      <trkpt lat="38.3704630" lon="-0.6680100">
        <ele>319.4</ele>
        <time>2018-04-28T06:32:47Z</time>
      </trkpt>
      <trkpt lat="38.3704850" lon="-0.6680170">
        <ele>319.6</ele>
        <time>2018-04-28T06:32:48Z</time>
      </trkpt>
      <trkpt lat="38.3705070" lon="-0.6680230">
        <ele>319.8</ele>
        <time>2018-04-28T06:32:49Z</time>
      </trkpt>
      <trkpt lat="38.3705290" lon="-0.6680290">
        <ele>319.8</ele>
        <time>2018-04-28T06:32:50Z</time>
      </trkpt>
      <trkpt lat="38.3705560" lon="-0.6680320">
        <ele>320.0</ele>
        <time>2018-04-28T06:32:51Z</time>
      </trkpt>
      <trkpt lat="38.3705790" lon="-0.6680330">
        <ele>320.2</ele>
        <time>2018-04-28T06:32:52Z</time>
      </trkpt>
      <trkpt lat="38.3706000" lon="-0.6680330">
        <ele>320.3</ele>
        <time>2018-04-28T06:32:53Z</time>
      </trkpt>
      <trkpt lat="38.3706240" lon="-0.6680330">
        <ele>320.3</ele>
        <time>2018-04-28T06:32:54Z</time>
      </trkpt>
      <trkpt lat="38.3706450" lon="-0.6680330">
        <ele>320.5</ele>
        <time>2018-04-28T06:32:55Z</time>
      </trkpt>
      <trkpt lat="38.3706660" lon="-0.6680330">
        <ele>320.6</ele>
        <time>2018-04-28T06:32:56Z</time>
      </trkpt>
      <trkpt lat="38.3706860" lon="-0.6680320">
        <ele>320.7</ele>
        <time>2018-04-28T06:32:57Z</time>
      </trkpt>
      <trkpt lat="38.3707050" lon="-0.6680340">
        <ele>320.8</ele>
        <time>2018-04-28T06:32:58Z</time>
      </trkpt>
      <trkpt lat="38.3707230" lon="-0.6680390">
        <ele>320.8</ele>
        <time>2018-04-28T06:32:59Z</time>
      </trkpt>
      <trkpt lat="38.3707430" lon="-0.6680440">
        <ele>320.9</ele>
        <time>2018-04-28T06:33:00Z</time>
      </trkpt>
      <trkpt lat="38.3707650" lon="-0.6680500">
        <ele>320.9</ele>
        <time>2018-04-28T06:33:01Z</time>
      </trkpt>
      <trkpt lat="38.3707870" lon="-0.6680550">
        <ele>321.0</ele>
        <time>2018-04-28T06:33:02Z</time>
      </trkpt>
      <trkpt lat="38.3708090" lon="-0.6680610">
        <ele>321.2</ele>
        <time>2018-04-28T06:33:03Z</time>
      </trkpt>
      <trkpt lat="38.3708290" lon="-0.6680670">
        <ele>321.2</ele>
        <time>2018-04-28T06:33:04Z</time>
      </trkpt>
      <trkpt lat="38.3708420" lon="-0.6680690">
        <ele>321.3</ele>
        <time>2018-04-28T06:33:05Z</time>
      </trkpt>
      <trkpt lat="38.3708590" lon="-0.6680730">
        <ele>321.3</ele>
        <time>2018-04-28T06:33:06Z</time>
      </trkpt>
      <trkpt lat="38.3708760" lon="-0.6680760">
        <ele>321.4</ele>
        <time>2018-04-28T06:33:07Z</time>
      </trkpt>
      <trkpt lat="38.3708940" lon="-0.6680800">
        <ele>321.4</ele>
        <time>2018-04-28T06:33:08Z</time>
      </trkpt>
      <trkpt lat="38.3709090" lon="-0.6680870">
        <ele>321.5</ele>
        <time>2018-04-28T06:33:09Z</time>
      </trkpt>
      <trkpt lat="38.3709250" lon="-0.6681000">
        <ele>321.5</ele>
        <time>2018-04-28T06:33:10Z</time>
      </trkpt>
      <trkpt lat="38.3709440" lon="-0.6681190">
        <ele>321.5</ele>
        <time>2018-04-28T06:33:11Z</time>
      </trkpt>
      <trkpt lat="38.3709630" lon="-0.6681440">
        <ele>321.5</ele>
        <time>2018-04-28T06:33:12Z</time>
      </trkpt>
      <trkpt lat="38.3709810" lon="-0.6681630">
        <ele>321.4</ele>
        <time>2018-04-28T06:33:13Z</time>
      </trkpt>
      <trkpt lat="38.3709980" lon="-0.6681750">
        <ele>321.5</ele>
        <time>2018-04-28T06:33:14Z</time>
      </trkpt>
      <trkpt lat="38.3710150" lon="-0.6681830">
        <ele>321.5</ele>
        <time>2018-04-28T06:33:15Z</time>
      </trkpt>
      <trkpt lat="38.3710340" lon="-0.6681890">
        <ele>321.5</ele>
        <time>2018-04-28T06:33:16Z</time>
      </trkpt>
      <trkpt lat="38.3710540" lon="-0.6681890">
        <ele>321.6</ele>
        <time>2018-04-28T06:33:17Z</time>
      </trkpt>
      <trkpt lat="38.3710760" lon="-0.6681930">
        <ele>321.6</ele>
        <time>2018-04-28T06:33:18Z</time>
      </trkpt>
      <trkpt lat="38.3710950" lon="-0.6681960">
        <ele>321.6</ele>
        <time>2018-04-28T06:33:19Z</time>
      </trkpt>
      <trkpt lat="38.3711170" lon="-0.6682020">
        <ele>321.7</ele>
        <time>2018-04-28T06:33:20Z</time>
      </trkpt>
      <trkpt lat="38.3711410" lon="-0.6682070">
        <ele>321.8</ele>
        <time>2018-04-28T06:33:21Z</time>
      </trkpt>
      <trkpt lat="38.3711610" lon="-0.6682140">
        <ele>321.8</ele>
        <time>2018-04-28T06:33:22Z</time>
      </trkpt>
      <trkpt lat="38.3711780" lon="-0.6682310">
        <ele>322.0</ele>
        <time>2018-04-28T06:33:23Z</time>
      </trkpt>
      <trkpt lat="38.3711970" lon="-0.6682430">
        <ele>321.9</ele>
        <time>2018-04-28T06:33:24Z</time>
      </trkpt>
      <trkpt lat="38.3712160" lon="-0.6682550">
        <ele>322.1</ele>
        <time>2018-04-28T06:33:25Z</time>
      </trkpt>
      <trkpt lat="38.3712340" lon="-0.6682700">
        <ele>322.1</ele>
        <time>2018-04-28T06:33:26Z</time>
      </trkpt>
      <trkpt lat="38.3712440" lon="-0.6682910">
        <ele>322.1</ele>
        <time>2018-04-28T06:33:27Z</time>
      </trkpt>
      <trkpt lat="38.3712590" lon="-0.6683100">
        <ele>322.2</ele>
        <time>2018-04-28T06:33:28Z</time>
      </trkpt>
      <trkpt lat="38.3712760" lon="-0.6683290">
        <ele>322.3</ele>
        <time>2018-04-28T06:33:29Z</time>
      </trkpt>
      <trkpt lat="38.3712960" lon="-0.6683420">
        <ele>322.3</ele>
        <time>2018-04-28T06:33:30Z</time>
      </trkpt>
      <trkpt lat="38.3713190" lon="-0.6683530">
        <ele>322.4</ele>
        <time>2018-04-28T06:33:31Z</time>
      </trkpt>
      <trkpt lat="38.3713430" lon="-0.6683630">
        <ele>322.6</ele>
        <time>2018-04-28T06:33:32Z</time>
      </trkpt>
      <trkpt lat="38.3713660" lon="-0.6683790">
        <ele>322.6</ele>
        <time>2018-04-28T06:33:33Z</time>
      </trkpt>
      <trkpt lat="38.3713970" lon="-0.6684060">
        <ele>322.8</ele>
        <time>2018-04-28T06:33:34Z</time>
      </trkpt>
      <trkpt lat="38.3714310" lon="-0.6684350">
        <ele>323.1</ele>
        <time>2018-04-28T06:33:35Z</time>
      </trkpt>
      <trkpt lat="38.3714650" lon="-0.6684680">
        <ele>323.4</ele>
        <time>2018-04-28T06:33:36Z</time>
      </trkpt>
      <trkpt lat="38.3715010" lon="-0.6684990">
        <ele>323.7</ele>
        <time>2018-04-28T06:33:37Z</time>
      </trkpt>
      <trkpt lat="38.3715400" lon="-0.6685280">
        <ele>324.4</ele>
        <time>2018-04-28T06:33:38Z</time>
      </trkpt>
      <trkpt lat="38.3715780" lon="-0.6685650">
        <ele>324.8</ele>
        <time>2018-04-28T06:33:39Z</time>
      </trkpt>
      <trkpt lat="38.3716140" lon="-0.6686080">
        <ele>325.3</ele>
        <time>2018-04-28T06:33:40Z</time>
      </trkpt>
      <trkpt lat="38.3716470" lon="-0.6686530">
        <ele>325.9</ele>
        <time>2018-04-28T06:33:41Z</time>
      </trkpt>
      <trkpt lat="38.3716770" lon="-0.6686880">
        <ele>326.5</ele>
        <time>2018-04-28T06:33:42Z</time>
      </trkpt>
      <trkpt lat="38.3717140" lon="-0.6687180">
        <ele>327.0</ele>
        <time>2018-04-28T06:33:43Z</time>
      </trkpt>
      <trkpt lat="38.3717550" lon="-0.6687230">
        <ele>327.5</ele>
        <time>2018-04-28T06:33:44Z</time>
      </trkpt>
      <trkpt lat="38.3717970" lon="-0.6687330">
        <ele>328.0</ele>
        <time>2018-04-28T06:33:45Z</time>
      </trkpt>
      <trkpt lat="38.3718260" lon="-0.6687470">
        <ele>328.4</ele>
        <time>2018-04-28T06:33:46Z</time>
      </trkpt>
      <trkpt lat="38.3718560" lon="-0.6687680">
        <ele>328.8</ele>
        <time>2018-04-28T06:33:47Z</time>
      </trkpt>
      <trkpt lat="38.3718840" lon="-0.6687850">
        <ele>329.3</ele>
        <time>2018-04-28T06:33:48Z</time>
      </trkpt>
      <trkpt lat="38.3719090" lon="-0.6687950">
        <ele>329.2</ele>
        <time>2018-04-28T06:33:49Z</time>
      </trkpt>
      <trkpt lat="38.3719380" lon="-0.6688210">
        <ele>329.8</ele>
        <time>2018-04-28T06:33:50Z</time>
      </trkpt>
      <trkpt lat="38.3719630" lon="-0.6688470">
        <ele>330.2</ele>
        <time>2018-04-28T06:33:51Z</time>
      </trkpt>
      <trkpt lat="38.3719750" lon="-0.6688830">
        <ele>330.2</ele>
        <time>2018-04-28T06:33:52Z</time>
      </trkpt>
      <trkpt lat="38.3720080" lon="-0.6689140">
        <ele>330.7</ele>
        <time>2018-04-28T06:33:53Z</time>
      </trkpt>
      <trkpt lat="38.3720380" lon="-0.6689360">
        <ele>331.3</ele>
        <time>2018-04-28T06:33:54Z</time>
      </trkpt>
      <trkpt lat="38.3720620" lon="-0.6689480">
        <ele>331.8</ele>
        <time>2018-04-28T06:33:55Z</time>
      </trkpt>
      <trkpt lat="38.3720820" lon="-0.6689440">
        <ele>332.4</ele>
        <time>2018-04-28T06:33:56Z</time>
      </trkpt>
      <trkpt lat="38.3721080" lon="-0.6689540">
        <ele>332.4</ele>
        <time>2018-04-28T06:33:57Z</time>
      </trkpt>
      <trkpt lat="38.3721320" lon="-0.6689670">
        <ele>333.0</ele>
        <time>2018-04-28T06:33:58Z</time>
      </trkpt>
      <trkpt lat="38.3721410" lon="-0.6690060">
        <ele>333.0</ele>
        <time>2018-04-28T06:33:59Z</time>
      </trkpt>
      <trkpt lat="38.3721130" lon="-0.6690640">
        <ele>333.1</ele>
        <time>2018-04-28T06:34:00Z</time>
      </trkpt>
      <trkpt lat="38.3721080" lon="-0.6691240">
        <ele>332.7</ele>
        <time>2018-04-28T06:34:01Z</time>
      </trkpt>
      <trkpt lat="38.3721200" lon="-0.6691750">
        <ele>333.4</ele>
        <time>2018-04-28T06:34:02Z</time>
      </trkpt>
      <trkpt lat="38.3721250" lon="-0.6692240">
        <ele>333.7</ele>
        <time>2018-04-28T06:34:03Z</time>
      </trkpt>
      <trkpt lat="38.3721360" lon="-0.6692700">
        <ele>333.8</ele>
        <time>2018-04-28T06:34:04Z</time>
      </trkpt>
      <trkpt lat="38.3721660" lon="-0.6693030">
        <ele>334.5</ele>
        <time>2018-04-28T06:34:05Z</time>
      </trkpt>
      <trkpt lat="38.3721900" lon="-0.6693200">
        <ele>335.3</ele>
        <time>2018-04-28T06:34:06Z</time>
      </trkpt>
      <trkpt lat="38.3722190" lon="-0.6693320">
        <ele>336.0</ele>
        <time>2018-04-28T06:34:07Z</time>
      </trkpt>
      <trkpt lat="38.3722480" lon="-0.6693370">
        <ele>336.6</ele>
        <time>2018-04-28T06:34:08Z</time>
      </trkpt>
      <trkpt lat="38.3722790" lon="-0.6693440">
        <ele>336.7</ele>
        <time>2018-04-28T06:34:09Z</time>
      </trkpt>
      <trkpt lat="38.3723070" lon="-0.6693570">
        <ele>337.5</ele>
        <time>2018-04-28T06:34:10Z</time>
      </trkpt>
      <trkpt lat="38.3723330" lon="-0.6693770">
        <ele>338.1</ele>
        <time>2018-04-28T06:34:11Z</time>
      </trkpt>
      <trkpt lat="38.3723570" lon="-0.6694010">
        <ele>338.9</ele>
        <time>2018-04-28T06:34:12Z</time>
      </trkpt>
      <trkpt lat="38.3723630" lon="-0.6694330">
        <ele>338.9</ele>
        <time>2018-04-28T06:34:13Z</time>
      </trkpt>
      <trkpt lat="38.3723630" lon="-0.6694540">
        <ele>339.2</ele>
        <time>2018-04-28T06:34:14Z</time>
      </trkpt>
      <trkpt lat="38.3723670" lon="-0.6694700">
        <ele>339.2</ele>
        <time>2018-04-28T06:34:15Z</time>
      </trkpt>
      <trkpt lat="38.3723790" lon="-0.6694890">
        <ele>339.6</ele>
        <time>2018-04-28T06:34:16Z</time>
      </trkpt>
      <trkpt lat="38.3723900" lon="-0.6695080">
        <ele>340.2</ele>
        <time>2018-04-28T06:34:17Z</time>
      </trkpt>
      <trkpt lat="38.3724030" lon="-0.6695220">
        <ele>340.2</ele>
        <time>2018-04-28T06:34:18Z</time>
      </trkpt>
      <trkpt lat="38.3724140" lon="-0.6695340">
        <ele>340.5</ele>
        <time>2018-04-28T06:34:19Z</time>
      </trkpt>
      <trkpt lat="38.3724240" lon="-0.6695470">
        <ele>341.2</ele>
        <time>2018-04-28T06:34:20Z</time>
      </trkpt>
      <trkpt lat="38.3724330" lon="-0.6695640">
        <ele>341.2</ele>
        <time>2018-04-28T06:34:21Z</time>
      </trkpt>
      <trkpt lat="38.3724450" lon="-0.6695830">
        <ele>341.5</ele>
        <time>2018-04-28T06:34:22Z</time>
      </trkpt>
      <trkpt lat="38.3724550" lon="-0.6695990">
        <ele>342.2</ele>
        <time>2018-04-28T06:34:23Z</time>
      </trkpt>
      <trkpt lat="38.3724630" lon="-0.6696100">
        <ele>342.4</ele>
        <time>2018-04-28T06:34:24Z</time>
      </trkpt>
      <trkpt lat="38.3724630" lon="-0.6696170">
        <ele>342.5</ele>
        <time>2018-04-28T06:34:25Z</time>
      </trkpt>
      <trkpt lat="38.3724640" lon="-0.6696140">
        <ele>342.5</ele>
        <time>2018-04-28T06:34:26Z</time>
      </trkpt>
      <trkpt lat="38.3724740" lon="-0.6696160">
        <ele>342.5</ele>
        <time>2018-04-28T06:34:27Z</time>
      </trkpt>
      <trkpt lat="38.3724820" lon="-0.6696160">
        <ele>343.2</ele>
        <time>2018-04-28T06:34:28Z</time>
      </trkpt>
      <trkpt lat="38.3724920" lon="-0.6696170">
        <ele>343.2</ele>
        <time>2018-04-28T06:34:29Z</time>
      </trkpt>
      <trkpt lat="38.3725010" lon="-0.6696180">
        <ele>343.2</ele>
        <time>2018-04-28T06:34:30Z</time>
      </trkpt>
      <trkpt lat="38.3725080" lon="-0.6696160">
        <ele>343.2</ele>
        <time>2018-04-28T06:34:31Z</time>
      </trkpt>
      <trkpt lat="38.3725120" lon="-0.6696190">
        <ele>343.3</ele>
        <time>2018-04-28T06:34:32Z</time>
      </trkpt>
      <trkpt lat="38.3725170" lon="-0.6696190">
        <ele>343.9</ele>
        <time>2018-04-28T06:34:33Z</time>
      </trkpt>
      <trkpt lat="38.3725240" lon="-0.6696170">
        <ele>343.9</ele>
        <time>2018-04-28T06:34:34Z</time>
      </trkpt>
      <trkpt lat="38.3725340" lon="-0.6696150">
        <ele>344.0</ele>
        <time>2018-04-28T06:34:35Z</time>
      </trkpt>
      <trkpt lat="38.3725460" lon="-0.6696140">
        <ele>344.0</ele>
        <time>2018-04-28T06:34:36Z</time>
      </trkpt>
      <trkpt lat="38.3725610" lon="-0.6696120">
        <ele>344.6</ele>
        <time>2018-04-28T06:34:37Z</time>
      </trkpt>
      <trkpt lat="38.3725780" lon="-0.6696160">
        <ele>344.6</ele>
        <time>2018-04-28T06:34:38Z</time>
      </trkpt>
      <trkpt lat="38.3725950" lon="-0.6696200">
        <ele>345.2</ele>
        <time>2018-04-28T06:34:39Z</time>
      </trkpt>
      <trkpt lat="38.3726130" lon="-0.6696220">
        <ele>345.2</ele>
        <time>2018-04-28T06:34:40Z</time>
      </trkpt>
      <trkpt lat="38.3726280" lon="-0.6696290">
        <ele>345.7</ele>
        <time>2018-04-28T06:34:41Z</time>
      </trkpt>
      <trkpt lat="38.3726430" lon="-0.6696350">
        <ele>345.7</ele>
        <time>2018-04-28T06:34:42Z</time>
      </trkpt>
      <trkpt lat="38.3726570" lon="-0.6696460">
        <ele>346.3</ele>
        <time>2018-04-28T06:34:43Z</time>
      </trkpt>
      <trkpt lat="38.3726730" lon="-0.6696580">
        <ele>346.5</ele>
        <time>2018-04-28T06:34:44Z</time>
      </trkpt>
      <trkpt lat="38.3726900" lon="-0.6696700">
        <ele>347.0</ele>
        <time>2018-04-28T06:34:45Z</time>
      </trkpt>
      <trkpt lat="38.3727080" lon="-0.6696820">
        <ele>347.0</ele>
        <time>2018-04-28T06:34:46Z</time>
      </trkpt>
      <trkpt lat="38.3727260" lon="-0.6696940">
        <ele>347.6</ele>
        <time>2018-04-28T06:34:47Z</time>
      </trkpt>
      <trkpt lat="38.3727450" lon="-0.6697060">
        <ele>347.7</ele>
        <time>2018-04-28T06:34:48Z</time>
      </trkpt>
      <trkpt lat="38.3727640" lon="-0.6697170">
        <ele>348.2</ele>
        <time>2018-04-28T06:34:49Z</time>
      </trkpt>
      <trkpt lat="38.3727790" lon="-0.6697320">
        <ele>348.2</ele>
        <time>2018-04-28T06:34:50Z</time>
      </trkpt>
      <trkpt lat="38.3727800" lon="-0.6697540">
        <ele>348.2</ele>
        <time>2018-04-28T06:34:51Z</time>
      </trkpt>
      <trkpt lat="38.3727760" lon="-0.6697730">
        <ele>348.2</ele>
        <time>2018-04-28T06:34:52Z</time>
      </trkpt>
      <trkpt lat="38.3727720" lon="-0.6697980">
        <ele>348.1</ele>
        <time>2018-04-28T06:34:53Z</time>
      </trkpt>
      <trkpt lat="38.3727660" lon="-0.6698290">
        <ele>348.0</ele>
        <time>2018-04-28T06:34:54Z</time>
      </trkpt>
      <trkpt lat="38.3727620" lon="-0.6698590">
        <ele>348.0</ele>
        <time>2018-04-28T06:34:55Z</time>
      </trkpt>
      <trkpt lat="38.3727480" lon="-0.6699060">
        <ele>347.5</ele>
        <time>2018-04-28T06:34:56Z</time>
      </trkpt>
      <trkpt lat="38.3727320" lon="-0.6699450">
        <ele>347.3</ele>
        <time>2018-04-28T06:34:57Z</time>
      </trkpt>
      <trkpt lat="38.3727170" lon="-0.6699900">
        <ele>346.7</ele>
        <time>2018-04-28T06:34:58Z</time>
      </trkpt>
      <trkpt lat="38.3726970" lon="-0.6700360">
        <ele>346.5</ele>
        <time>2018-04-28T06:34:59Z</time>
      </trkpt>
      <trkpt lat="38.3726830" lon="-0.6700810">
        <ele>345.9</ele>
        <time>2018-04-28T06:35:00Z</time>
      </trkpt>
      <trkpt lat="38.3726730" lon="-0.6701170">
        <ele>345.9</ele>
        <time>2018-04-28T06:35:01Z</time>
      </trkpt>
      <trkpt lat="38.3726610" lon="-0.6701500">
        <ele>345.8</ele>
        <time>2018-04-28T06:35:02Z</time>
      </trkpt>
      <trkpt lat="38.3726540" lon="-0.6701720">
        <ele>345.6</ele>
        <time>2018-04-28T06:35:03Z</time>
      </trkpt>
      <trkpt lat="38.3726450" lon="-0.6701850">
        <ele>345.4</ele>
        <time>2018-04-28T06:35:04Z</time>
      </trkpt>
      <trkpt lat="38.3726360" lon="-0.6701870">
        <ele>345.5</ele>
        <time>2018-04-28T06:35:05Z</time>
      </trkpt>
      <trkpt lat="38.3726360" lon="-0.6701930">
        <ele>345.5</ele>
        <time>2018-04-28T06:35:06Z</time>
      </trkpt>
      <trkpt lat="38.3726340" lon="-0.6701970">
        <ele>345.5</ele>
        <time>2018-04-28T06:35:07Z</time>
      </trkpt>
      <trkpt lat="38.3726320" lon="-0.6702080">
        <ele>345.5</ele>
        <time>2018-04-28T06:35:08Z</time>
      </trkpt>
      <trkpt lat="38.3726300" lon="-0.6702210">
        <ele>345.4</ele>
        <time>2018-04-28T06:35:09Z</time>
      </trkpt>
      <trkpt lat="38.3726240" lon="-0.6702360">
        <ele>345.4</ele>
        <time>2018-04-28T06:35:10Z</time>
      </trkpt>
      <trkpt lat="38.3726130" lon="-0.6702480">
        <ele>345.3</ele>
        <time>2018-04-28T06:35:11Z</time>
      </trkpt>
      <trkpt lat="38.3726010" lon="-0.6702620">
        <ele>345.2</ele>
        <time>2018-04-28T06:35:12Z</time>
      </trkpt>
      <trkpt lat="38.3725860" lon="-0.6702730">
        <ele>345.2</ele>
        <time>2018-04-28T06:35:13Z</time>
      </trkpt>
      <trkpt lat="38.3725700" lon="-0.6702850">
        <ele>345.1</ele>
        <time>2018-04-28T06:35:14Z</time>
      </trkpt>
      <trkpt lat="38.3725540" lon="-0.6702940">
        <ele>345.1</ele>
        <time>2018-04-28T06:35:15Z</time>
      </trkpt>
      <trkpt lat="38.3725370" lon="-0.6703030">
        <ele>344.8</ele>
        <time>2018-04-28T06:35:16Z</time>
      </trkpt>
      <trkpt lat="38.3725180" lon="-0.6703160">
        <ele>344.9</ele>
        <time>2018-04-28T06:35:17Z</time>
      </trkpt>
      <trkpt lat="38.3725010" lon="-0.6703260">
        <ele>344.6</ele>
        <time>2018-04-28T06:35:18Z</time>
      </trkpt>
      <trkpt lat="38.3724850" lon="-0.6703330">
        <ele>344.7</ele>
        <time>2018-04-28T06:35:19Z</time>
      </trkpt>
      <trkpt lat="38.3724720" lon="-0.6703400">
        <ele>344.4</ele>
        <time>2018-04-28T06:35:20Z</time>
      </trkpt>
      <trkpt lat="38.3724600" lon="-0.6703470">
        <ele>344.4</ele>
        <time>2018-04-28T06:35:21Z</time>
      </trkpt>
      <trkpt lat="38.3724480" lon="-0.6703520">
        <ele>344.2</ele>
        <time>2018-04-28T06:35:22Z</time>
      </trkpt>
      <trkpt lat="38.3724370" lon="-0.6703570">
        <ele>344.3</ele>
        <time>2018-04-28T06:35:23Z</time>
      </trkpt>
      <trkpt lat="38.3724260" lon="-0.6703630">
        <ele>344.3</ele>
        <time>2018-04-28T06:35:24Z</time>
      </trkpt>
      <trkpt lat="38.3724140" lon="-0.6703690">
        <ele>344.1</ele>
        <time>2018-04-28T06:35:25Z</time>
      </trkpt>
      <trkpt lat="38.3724040" lon="-0.6703740">
        <ele>344.1</ele>
        <time>2018-04-28T06:35:26Z</time>
      </trkpt>
      <trkpt lat="38.3723940" lon="-0.6703770">
        <ele>344.1</ele>
        <time>2018-04-28T06:35:27Z</time>
      </trkpt>
      <trkpt lat="38.3723850" lon="-0.6703810">
        <ele>344.2</ele>
        <time>2018-04-28T06:35:28Z</time>
      </trkpt>
      <trkpt lat="38.3723770" lon="-0.6703830">
        <ele>344.1</ele>
        <time>2018-04-28T06:35:29Z</time>
      </trkpt>
      <trkpt lat="38.3723680" lon="-0.6703850">
        <ele>344.1</ele>
        <time>2018-04-28T06:35:30Z</time>
      </trkpt>
      <trkpt lat="38.3723600" lon="-0.6703900">
        <ele>344.1</ele>
        <time>2018-04-28T06:35:31Z</time>
      </trkpt>
      <trkpt lat="38.3723550" lon="-0.6703960">
        <ele>344.1</ele>
        <time>2018-04-28T06:35:32Z</time>
      </trkpt>
      <trkpt lat="38.3723550" lon="-0.6704020">
        <ele>344.2</ele>
        <time>2018-04-28T06:35:33Z</time>
      </trkpt>
      <trkpt lat="38.3723550" lon="-0.6704130">
        <ele>344.2</ele>
        <time>2018-04-28T06:35:34Z</time>
      </trkpt>
      <trkpt lat="38.3723570" lon="-0.6704260">
        <ele>344.3</ele>
        <time>2018-04-28T06:35:35Z</time>
      </trkpt>
      <trkpt lat="38.3723620" lon="-0.6704370">
        <ele>344.3</ele>
        <time>2018-04-28T06:35:36Z</time>
      </trkpt>
      <trkpt lat="38.3723690" lon="-0.6704480">
        <ele>344.3</ele>
        <time>2018-04-28T06:35:37Z</time>
      </trkpt>
      <trkpt lat="38.3723780" lon="-0.6704590">
        <ele>344.4</ele>
        <time>2018-04-28T06:35:38Z</time>
      </trkpt>
      <trkpt lat="38.3723890" lon="-0.6704700">
        <ele>344.4</ele>
        <time>2018-04-28T06:35:39Z</time>
      </trkpt>
      <trkpt lat="38.3723990" lon="-0.6704810">
        <ele>344.4</ele>
        <time>2018-04-28T06:35:40Z</time>
      </trkpt>
      <trkpt lat="38.3724050" lon="-0.6704910">
        <ele>344.3</ele>
        <time>2018-04-28T06:35:41Z</time>
      </trkpt>
      <trkpt lat="38.3724140" lon="-0.6704970">
        <ele>344.3</ele>
        <time>2018-04-28T06:35:42Z</time>
      </trkpt>
      <trkpt lat="38.3724200" lon="-0.6705030">
        <ele>344.3</ele>
        <time>2018-04-28T06:35:43Z</time>
      </trkpt>
      <trkpt lat="38.3724250" lon="-0.6705070">
        <ele>344.3</ele>
        <time>2018-04-28T06:35:44Z</time>
      </trkpt>
      <trkpt lat="38.3724350" lon="-0.6705110">
        <ele>344.3</ele>
        <time>2018-04-28T06:35:45Z</time>
      </trkpt>
      <trkpt lat="38.3724410" lon="-0.6705130">
        <ele>344.3</ele>
        <time>2018-04-28T06:35:46Z</time>
      </trkpt>
      <trkpt lat="38.3724510" lon="-0.6705170">
        <ele>344.3</ele>
        <time>2018-04-28T06:35:47Z</time>
      </trkpt>
      <trkpt lat="38.3724590" lon="-0.6705280">
        <ele>344.3</ele>
        <time>2018-04-28T06:35:48Z</time>
      </trkpt>
      <trkpt lat="38.3724720" lon="-0.6705380">
        <ele>344.2</ele>
        <time>2018-04-28T06:35:49Z</time>
      </trkpt>
      <trkpt lat="38.3724890" lon="-0.6705470">
        <ele>344.2</ele>
        <time>2018-04-28T06:35:50Z</time>
      </trkpt>
      <trkpt lat="38.3725090" lon="-0.6705460">
        <ele>344.2</ele>
        <time>2018-04-28T06:35:51Z</time>
      </trkpt>
      <trkpt lat="38.3725330" lon="-0.6705360">
        <ele>344.1</ele>
        <time>2018-04-28T06:35:52Z</time>
      </trkpt>
      <trkpt lat="38.3725590" lon="-0.6705230">
        <ele>344.1</ele>
        <time>2018-04-28T06:35:53Z</time>
      </trkpt>
      <trkpt lat="38.3725910" lon="-0.6705120">
        <ele>344.0</ele>
        <time>2018-04-28T06:35:54Z</time>
      </trkpt>
      <trkpt lat="38.3726240" lon="-0.6705030">
        <ele>344.0</ele>
        <time>2018-04-28T06:35:55Z</time>
      </trkpt>
      <trkpt lat="38.3726680" lon="-0.6704950">
        <ele>343.9</ele>
        <time>2018-04-28T06:35:56Z</time>
      </trkpt>
      <trkpt lat="38.3727110" lon="-0.6704870">
        <ele>343.9</ele>
        <time>2018-04-28T06:35:57Z</time>
      </trkpt>
      <trkpt lat="38.3727560" lon="-0.6704790">
        <ele>343.8</ele>
        <time>2018-04-28T06:35:58Z</time>
      </trkpt>
      <trkpt lat="38.3728070" lon="-0.6704680">
        <ele>343.8</ele>
        <time>2018-04-28T06:35:59Z</time>
      </trkpt>
      <trkpt lat="38.3728550" lon="-0.6704540">
        <ele>343.8</ele>
        <time>2018-04-28T06:36:00Z</time>
      </trkpt>
      <trkpt lat="38.3729030" lon="-0.6704360">
        <ele>343.8</ele>
        <time>2018-04-28T06:36:01Z</time>
      </trkpt>
      <trkpt lat="38.3729440" lon="-0.6704090">
        <ele>343.9</ele>
        <time>2018-04-28T06:36:02Z</time>
      </trkpt>
      <trkpt lat="38.3729790" lon="-0.6703790">
        <ele>343.9</ele>
        <time>2018-04-28T06:36:03Z</time>
      </trkpt>
      <trkpt lat="38.3730090" lon="-0.6703420">
        <ele>344.0</ele>
        <time>2018-04-28T06:36:04Z</time>
      </trkpt>
      <trkpt lat="38.3730400" lon="-0.6703110">
        <ele>344.0</ele>
        <time>2018-04-28T06:36:05Z</time>
      </trkpt>
      <trkpt lat="38.3730690" lon="-0.6702760">
        <ele>344.1</ele>
        <time>2018-04-28T06:36:06Z</time>
      </trkpt>
      <trkpt lat="38.3730970" lon="-0.6702430">
        <ele>344.2</ele>
        <time>2018-04-28T06:36:07Z</time>
      </trkpt>
      <trkpt lat="38.3731240" lon="-0.6702110">
        <ele>344.2</ele>
        <time>2018-04-28T06:36:08Z</time>
      </trkpt>
      <trkpt lat="38.3731530" lon="-0.6701820">
        <ele>344.3</ele>
        <time>2018-04-28T06:36:09Z</time>
      </trkpt>
      <trkpt lat="38.3731820" lon="-0.6701560">
        <ele>344.4</ele>
        <time>2018-04-28T06:36:10Z</time>
      </trkpt>
      <trkpt lat="38.3732150" lon="-0.6701270">
        <ele>344.4</ele>
        <time>2018-04-28T06:36:11Z</time>
      </trkpt>
      <trkpt lat="38.3732490" lon="-0.6700990">
        <ele>344.5</ele>
        <time>2018-04-28T06:36:12Z</time>
      </trkpt>
      <trkpt lat="38.3732840" lon="-0.6700720">
        <ele>344.6</ele>
        <time>2018-04-28T06:36:13Z</time>
      </trkpt>
      <trkpt lat="38.3733210" lon="-0.6700400">
        <ele>344.6</ele>
        <time>2018-04-28T06:36:14Z</time>
      </trkpt>
      <trkpt lat="38.3733590" lon="-0.6700140">
        <ele>344.7</ele>
        <time>2018-04-28T06:36:15Z</time>
      </trkpt>
      <trkpt lat="38.3733980" lon="-0.6699900">
        <ele>344.8</ele>
        <time>2018-04-28T06:36:16Z</time>
      </trkpt>
      <trkpt lat="38.3734390" lon="-0.6699610">
        <ele>344.8</ele>
        <time>2018-04-28T06:36:17Z</time>
      </trkpt>
      <trkpt lat="38.3734800" lon="-0.6699350">
        <ele>344.9</ele>
        <time>2018-04-28T06:36:18Z</time>
      </trkpt>
      <trkpt lat="38.3735140" lon="-0.6699300">
        <ele>344.9</ele>
        <time>2018-04-28T06:36:19Z</time>
      </trkpt>
      <trkpt lat="38.3735420" lon="-0.6699220">
        <ele>344.7</ele>
        <time>2018-04-28T06:36:20Z</time>
      </trkpt>
      <trkpt lat="38.3735550" lon="-0.6699290">
        <ele>344.5</ele>
        <time>2018-04-28T06:36:21Z</time>
      </trkpt>
      <trkpt lat="38.3735490" lon="-0.6699540">
        <ele>344.3</ele>
        <time>2018-04-28T06:36:22Z</time>
      </trkpt>
      <trkpt lat="38.3735560" lon="-0.6699680">
        <ele>344.1</ele>
        <time>2018-04-28T06:36:23Z</time>
      </trkpt>
      <trkpt lat="38.3735570" lon="-0.6699780">
        <ele>344.0</ele>
        <time>2018-04-28T06:36:24Z</time>
      </trkpt>
      <trkpt lat="38.3735570" lon="-0.6699920">
        <ele>343.9</ele>
        <time>2018-04-28T06:36:25Z</time>
      </trkpt>
      <trkpt lat="38.3735560" lon="-0.6700050">
        <ele>343.8</ele>
        <time>2018-04-28T06:36:26Z</time>
      </trkpt>
      <trkpt lat="38.3735480" lon="-0.6700180">
        <ele>343.6</ele>
        <time>2018-04-28T06:36:27Z</time>
      </trkpt>
      <trkpt lat="38.3735430" lon="-0.6700340">
        <ele>343.5</ele>
        <time>2018-04-28T06:36:28Z</time>
      </trkpt>
      <trkpt lat="38.3735440" lon="-0.6700550">
        <ele>343.3</ele>
        <time>2018-04-28T06:36:29Z</time>
      </trkpt>
      <trkpt lat="38.3735460" lon="-0.6700760">
        <ele>343.1</ele>
        <time>2018-04-28T06:36:30Z</time>
      </trkpt>
      <trkpt lat="38.3735480" lon="-0.6700950">
        <ele>342.9</ele>
        <time>2018-04-28T06:36:31Z</time>
      </trkpt>
      <trkpt lat="38.3735520" lon="-0.6701150">
        <ele>342.7</ele>
        <time>2018-04-28T06:36:32Z</time>
      </trkpt>
      <trkpt lat="38.3735530" lon="-0.6701360">
        <ele>342.5</ele>
        <time>2018-04-28T06:36:33Z</time>
      </trkpt>
      <trkpt lat="38.3735550" lon="-0.6701610">
        <ele>342.3</ele>
        <time>2018-04-28T06:36:34Z</time>
      </trkpt>
      <trkpt lat="38.3735590" lon="-0.6701830">
        <ele>342.1</ele>
        <time>2018-04-28T06:36:35Z</time>
      </trkpt>
      <trkpt lat="38.3735720" lon="-0.6701960">
        <ele>341.9</ele>
        <time>2018-04-28T06:36:36Z</time>
      </trkpt>
      <trkpt lat="38.3735910" lon="-0.6702040">
        <ele>341.8</ele>
        <time>2018-04-28T06:36:37Z</time>
      </trkpt>
      <trkpt lat="38.3736090" lon="-0.6702050">
        <ele>342.0</ele>
        <time>2018-04-28T06:36:38Z</time>
      </trkpt>
      <trkpt lat="38.3736290" lon="-0.6701990">
        <ele>342.1</ele>
        <time>2018-04-28T06:36:39Z</time>
      </trkpt>
      <trkpt lat="38.3736470" lon="-0.6701830">
        <ele>342.3</ele>
        <time>2018-04-28T06:36:40Z</time>
      </trkpt>
      <trkpt lat="38.3736570" lon="-0.6701630">
        <ele>342.5</ele>
        <time>2018-04-28T06:36:41Z</time>
      </trkpt>
      <trkpt lat="38.3736650" lon="-0.6701440">
        <ele>342.6</ele>
        <time>2018-04-28T06:36:42Z</time>
      </trkpt>
      <trkpt lat="38.3736730" lon="-0.6701240">
        <ele>342.8</ele>
        <time>2018-04-28T06:36:43Z</time>
      </trkpt>
      <trkpt lat="38.3736850" lon="-0.6701060">
        <ele>343.1</ele>
        <time>2018-04-28T06:36:44Z</time>
      </trkpt>
      <trkpt lat="38.3736980" lon="-0.6700880">
        <ele>343.2</ele>
        <time>2018-04-28T06:36:45Z</time>
      </trkpt>
      <trkpt lat="38.3737090" lon="-0.6700690">
        <ele>343.4</ele>
        <time>2018-04-28T06:36:46Z</time>
      </trkpt>
      <trkpt lat="38.3737220" lon="-0.6700520">
        <ele>343.6</ele>
        <time>2018-04-28T06:36:47Z</time>
      </trkpt>
      <trkpt lat="38.3737350" lon="-0.6700350">
        <ele>343.7</ele>
        <time>2018-04-28T06:36:48Z</time>
      </trkpt>
      <trkpt lat="38.3737490" lon="-0.6700200">
        <ele>344.1</ele>
        <time>2018-04-28T06:36:49Z</time>
      </trkpt>
      <trkpt lat="38.3737600" lon="-0.6700040">
        <ele>344.2</ele>
        <time>2018-04-28T06:36:50Z</time>
      </trkpt>
      <trkpt lat="38.3737720" lon="-0.6699890">
        <ele>344.4</ele>
        <time>2018-04-28T06:36:51Z</time>
      </trkpt>
      <trkpt lat="38.3737840" lon="-0.6699750">
        <ele>344.5</ele>
        <time>2018-04-28T06:36:52Z</time>
      </trkpt>
      <trkpt lat="38.3737950" lon="-0.6699600">
        <ele>344.7</ele>
        <time>2018-04-28T06:36:53Z</time>
      </trkpt>
      <trkpt lat="38.3738050" lon="-0.6699420">
        <ele>345.0</ele>
        <time>2018-04-28T06:36:54Z</time>
      </trkpt>
      <trkpt lat="38.3738170" lon="-0.6699240">
        <ele>345.2</ele>
        <time>2018-04-28T06:36:55Z</time>
      </trkpt>
      <trkpt lat="38.3738290" lon="-0.6699040">
        <ele>345.4</ele>
        <time>2018-04-28T06:36:56Z</time>
      </trkpt>
      <trkpt lat="38.3738430" lon="-0.6698850">
        <ele>345.6</ele>
        <time>2018-04-28T06:36:57Z</time>
      </trkpt>
      <trkpt lat="38.3738560" lon="-0.6698670">
        <ele>345.8</ele>
        <time>2018-04-28T06:36:58Z</time>
      </trkpt>
      <trkpt lat="38.3738680" lon="-0.6698490">
        <ele>346.0</ele>
        <time>2018-04-28T06:36:59Z</time>
      </trkpt>
      <trkpt lat="38.3738800" lon="-0.6698310">
        <ele>346.2</ele>
        <time>2018-04-28T06:37:00Z</time>
      </trkpt>
      <trkpt lat="38.3738930" lon="-0.6698120">
        <ele>346.4</ele>
        <time>2018-04-28T06:37:01Z</time>
      </trkpt>
      <trkpt lat="38.3739040" lon="-0.6697950">
        <ele>346.7</ele>
        <time>2018-04-28T06:37:02Z</time>
      </trkpt>
      <trkpt lat="38.3739150" lon="-0.6697760">
        <ele>347.0</ele>
        <time>2018-04-28T06:37:03Z</time>
      </trkpt>
      <trkpt lat="38.3739260" lon="-0.6697570">
        <ele>347.1</ele>
        <time>2018-04-28T06:37:04Z</time>
      </trkpt>
      <trkpt lat="38.3739390" lon="-0.6697410">
        <ele>347.3</ele>
        <time>2018-04-28T06:37:05Z</time>
      </trkpt>
      <trkpt lat="38.3739530" lon="-0.6697260">
        <ele>347.5</ele>
        <time>2018-04-28T06:37:06Z</time>
      </trkpt>
      <trkpt lat="38.3739680" lon="-0.6697100">
        <ele>347.7</ele>
        <time>2018-04-28T06:37:07Z</time>
      </trkpt>
      <trkpt lat="38.3739790" lon="-0.6696910">
        <ele>347.9</ele>
        <time>2018-04-28T06:37:08Z</time>
      </trkpt>
      <trkpt lat="38.3739900" lon="-0.6696730">
        <ele>348.0</ele>
        <time>2018-04-28T06:37:09Z</time>
      </trkpt>
      <trkpt lat="38.3740030" lon="-0.6696570">
        <ele>348.2</ele>
        <time>2018-04-28T06:37:10Z</time>
      </trkpt>
      <trkpt lat="38.3740160" lon="-0.6696430">
        <ele>348.4</ele>
        <time>2018-04-28T06:37:11Z</time>
      </trkpt>
      <trkpt lat="38.3740270" lon="-0.6696270">
        <ele>348.6</ele>
        <time>2018-04-28T06:37:12Z</time>
      </trkpt>
      <trkpt lat="38.3740390" lon="-0.6696130">
        <ele>348.8</ele>
        <time>2018-04-28T06:37:13Z</time>
      </trkpt>
      <trkpt lat="38.3740510" lon="-0.6695960">
        <ele>349.0</ele>
        <time>2018-04-28T06:37:14Z</time>
      </trkpt>
      <trkpt lat="38.3740660" lon="-0.6695830">
        <ele>349.3</ele>
        <time>2018-04-28T06:37:15Z</time>
      </trkpt>
      <trkpt lat="38.3740800" lon="-0.6695690">
        <ele>349.6</ele>
        <time>2018-04-28T06:37:16Z</time>
      </trkpt>
      <trkpt lat="38.3740950" lon="-0.6695540">
        <ele>349.8</ele>
        <time>2018-04-28T06:37:17Z</time>
      </trkpt>
      <trkpt lat="38.3741100" lon="-0.6695420">
        <ele>349.9</ele>
        <time>2018-04-28T06:37:18Z</time>
      </trkpt>
      <trkpt lat="38.3741260" lon="-0.6695280">
        <ele>350.1</ele>
        <time>2018-04-28T06:37:19Z</time>
      </trkpt>
      <trkpt lat="38.3741410" lon="-0.6695150">
        <ele>350.3</ele>
        <time>2018-04-28T06:37:20Z</time>
      </trkpt>
      <trkpt lat="38.3741530" lon="-0.6694980">
        <ele>350.5</ele>
        <time>2018-04-28T06:37:21Z</time>
      </trkpt>
      <trkpt lat="38.3741680" lon="-0.6694840">
        <ele>350.6</ele>
        <time>2018-04-28T06:37:22Z</time>
      </trkpt>
      <trkpt lat="38.3741790" lon="-0.6694700">
        <ele>350.8</ele>
        <time>2018-04-28T06:37:23Z</time>
      </trkpt>
      <trkpt lat="38.3741890" lon="-0.6694570">
        <ele>351.0</ele>
        <time>2018-04-28T06:37:24Z</time>
      </trkpt>
      <trkpt lat="38.3742000" lon="-0.6694440">
        <ele>351.2</ele>
        <time>2018-04-28T06:37:25Z</time>
      </trkpt>
      <trkpt lat="38.3742120" lon="-0.6694320">
        <ele>351.4</ele>
        <time>2018-04-28T06:37:26Z</time>
      </trkpt>
      <trkpt lat="38.3742250" lon="-0.6694140">
        <ele>351.7</ele>
        <time>2018-04-28T06:37:27Z</time>
      </trkpt>
      <trkpt lat="38.3742290" lon="-0.6694040">
        <ele>351.8</ele>
        <time>2018-04-28T06:37:28Z</time>
      </trkpt>
      <trkpt lat="38.3742440" lon="-0.6693890">
        <ele>352.1</ele>
        <time>2018-04-28T06:37:29Z</time>
      </trkpt>
      <trkpt lat="38.3742550" lon="-0.6693740">
        <ele>352.2</ele>
        <time>2018-04-28T06:37:30Z</time>
      </trkpt>
      <trkpt lat="38.3742670" lon="-0.6693580">
        <ele>352.4</ele>
        <time>2018-04-28T06:37:31Z</time>
      </trkpt>
      <trkpt lat="38.3742770" lon="-0.6693420">
        <ele>352.6</ele>
        <time>2018-04-28T06:37:32Z</time>
      </trkpt>
      <trkpt lat="38.3742880" lon="-0.6693290">
        <ele>352.7</ele>
        <time>2018-04-28T06:37:33Z</time>
      </trkpt>
      <trkpt lat="38.3742980" lon="-0.6693180">
        <ele>352.9</ele>
        <time>2018-04-28T06:37:34Z</time>
      </trkpt>
      <trkpt lat="38.3743120" lon="-0.6693070">
        <ele>353.0</ele>
        <time>2018-04-28T06:37:35Z</time>
      </trkpt>
      <trkpt lat="38.3743260" lon="-0.6692950">
        <ele>353.2</ele>
        <time>2018-04-28T06:37:36Z</time>
      </trkpt>
      <trkpt lat="38.3743390" lon="-0.6692820">
        <ele>353.3</ele>
        <time>2018-04-28T06:37:37Z</time>
      </trkpt>
      <trkpt lat="38.3743520" lon="-0.6692690">
        <ele>353.4</ele>
        <time>2018-04-28T06:37:38Z</time>
      </trkpt>
      <trkpt lat="38.3743640" lon="-0.6692570">
        <ele>353.6</ele>
        <time>2018-04-28T06:37:39Z</time>
      </trkpt>
      <trkpt lat="38.3743750" lon="-0.6692460">
        <ele>353.7</ele>
        <time>2018-04-28T06:37:40Z</time>
      </trkpt>
      <trkpt lat="38.3743850" lon="-0.6692280">
        <ele>353.9</ele>
        <time>2018-04-28T06:37:41Z</time>
      </trkpt>
      <trkpt lat="38.3743980" lon="-0.6692140">
        <ele>354.1</ele>
        <time>2018-04-28T06:37:42Z</time>
      </trkpt>
      <trkpt lat="38.3744110" lon="-0.6692020">
        <ele>354.3</ele>
        <time>2018-04-28T06:37:43Z</time>
      </trkpt>
      <trkpt lat="38.3744240" lon="-0.6691910">
        <ele>354.5</ele>
        <time>2018-04-28T06:37:44Z</time>
      </trkpt>
      <trkpt lat="38.3744350" lon="-0.6691760">
        <ele>354.7</ele>
        <time>2018-04-28T06:37:45Z</time>
      </trkpt>
      <trkpt lat="38.3744470" lon="-0.6691630">
        <ele>354.8</ele>
        <time>2018-04-28T06:37:46Z</time>
      </trkpt>
      <trkpt lat="38.3744580" lon="-0.6691500">
        <ele>355.0</ele>
        <time>2018-04-28T06:37:47Z</time>
      </trkpt>
      <trkpt lat="38.3744690" lon="-0.6691410">
        <ele>355.2</ele>
        <time>2018-04-28T06:37:48Z</time>
      </trkpt>
      <trkpt lat="38.3744810" lon="-0.6691310">
        <ele>355.4</ele>
        <time>2018-04-28T06:37:49Z</time>
      </trkpt>
      <trkpt lat="38.3744940" lon="-0.6691220">
        <ele>355.6</ele>
        <time>2018-04-28T06:37:50Z</time>
      </trkpt>
      <trkpt lat="38.3745070" lon="-0.6691120">
        <ele>355.8</ele>
        <time>2018-04-28T06:37:51Z</time>
      </trkpt>
      <trkpt lat="38.3745200" lon="-0.6690990">
        <ele>356.0</ele>
        <time>2018-04-28T06:37:52Z</time>
      </trkpt>
      <trkpt lat="38.3745290" lon="-0.6690810">
        <ele>356.1</ele>
        <time>2018-04-28T06:37:53Z</time>
      </trkpt>
      <trkpt lat="38.3745390" lon="-0.6690640">
        <ele>356.3</ele>
        <time>2018-04-28T06:37:54Z</time>
      </trkpt>
      <trkpt lat="38.3745500" lon="-0.6690490">
        <ele>356.5</ele>
        <time>2018-04-28T06:37:55Z</time>
      </trkpt>
      <trkpt lat="38.3745600" lon="-0.6690320">
        <ele>356.6</ele>
        <time>2018-04-28T06:37:56Z</time>
      </trkpt>
      <trkpt lat="38.3745720" lon="-0.6690170">
        <ele>356.8</ele>
        <time>2018-04-28T06:37:57Z</time>
      </trkpt>
      <trkpt lat="38.3745840" lon="-0.6690040">
        <ele>357.0</ele>
        <time>2018-04-28T06:37:58Z</time>
      </trkpt>
      <trkpt lat="38.3745960" lon="-0.6689910">
        <ele>357.2</ele>
        <time>2018-04-28T06:37:59Z</time>
      </trkpt>
      <trkpt lat="38.3746080" lon="-0.6689790">
        <ele>357.3</ele>
        <time>2018-04-28T06:38:00Z</time>
      </trkpt>
      <trkpt lat="38.3746190" lon="-0.6689640">
        <ele>357.6</ele>
        <time>2018-04-28T06:38:01Z</time>
      </trkpt>
      <trkpt lat="38.3746300" lon="-0.6689500">
        <ele>357.8</ele>
        <time>2018-04-28T06:38:02Z</time>
      </trkpt>
      <trkpt lat="38.3746390" lon="-0.6689330">
        <ele>358.0</ele>
        <time>2018-04-28T06:38:03Z</time>
      </trkpt>
      <trkpt lat="38.3746470" lon="-0.6689180">
        <ele>358.2</ele>
        <time>2018-04-28T06:38:04Z</time>
      </trkpt>
      <trkpt lat="38.3746600" lon="-0.6689070">
        <ele>358.3</ele>
        <time>2018-04-28T06:38:05Z</time>
      </trkpt>
      <trkpt lat="38.3746740" lon="-0.6688970">
        <ele>358.5</ele>
        <time>2018-04-28T06:38:06Z</time>
      </trkpt>
      <trkpt lat="38.3746870" lon="-0.6688830">
        <ele>358.7</ele>
        <time>2018-04-28T06:38:07Z</time>
      </trkpt>
      <trkpt lat="38.3746980" lon="-0.6688680">
        <ele>358.8</ele>
        <time>2018-04-28T06:38:08Z</time>
      </trkpt>
      <trkpt lat="38.3747060" lon="-0.6688500">
        <ele>359.0</ele>
        <time>2018-04-28T06:38:09Z</time>
      </trkpt>
      <trkpt lat="38.3747140" lon="-0.6688300">
        <ele>359.2</ele>
        <time>2018-04-28T06:38:10Z</time>
      </trkpt>
      <trkpt lat="38.3747190" lon="-0.6688120">
        <ele>359.4</ele>
        <time>2018-04-28T06:38:11Z</time>
      </trkpt>
      <trkpt lat="38.3747300" lon="-0.6687960">
        <ele>359.6</ele>
        <time>2018-04-28T06:38:12Z</time>
      </trkpt>
      <trkpt lat="38.3747400" lon="-0.6687800">
        <ele>359.7</ele>
        <time>2018-04-28T06:38:13Z</time>
      </trkpt>
      <trkpt lat="38.3747490" lon="-0.6687620">
        <ele>359.9</ele>
        <time>2018-04-28T06:38:14Z</time>
      </trkpt>
      <trkpt lat="38.3747610" lon="-0.6687440">
        <ele>360.0</ele>
        <time>2018-04-28T06:38:15Z</time>
      </trkpt>
      <trkpt lat="38.3747700" lon="-0.6687280">
        <ele>360.1</ele>
        <time>2018-04-28T06:38:16Z</time>
      </trkpt>
      <trkpt lat="38.3747780" lon="-0.6687110">
        <ele>360.2</ele>
        <time>2018-04-28T06:38:17Z</time>
      </trkpt>
      <trkpt lat="38.3747890" lon="-0.6686970">
        <ele>360.4</ele>
        <time>2018-04-28T06:38:18Z</time>
      </trkpt>
      <trkpt lat="38.3748000" lon="-0.6686820">
        <ele>360.5</ele>
        <time>2018-04-28T06:38:19Z</time>
      </trkpt>
      <trkpt lat="38.3748100" lon="-0.6686650">
        <ele>360.6</ele>
        <time>2018-04-28T06:38:20Z</time>
      </trkpt>
      <trkpt lat="38.3748200" lon="-0.6686470">
        <ele>360.7</ele>
        <time>2018-04-28T06:38:21Z</time>
      </trkpt>
      <trkpt lat="38.3748310" lon="-0.6686310">
        <ele>360.9</ele>
        <time>2018-04-28T06:38:22Z</time>
      </trkpt>
      <trkpt lat="38.3748430" lon="-0.6686170">
        <ele>361.0</ele>
        <time>2018-04-28T06:38:23Z</time>
      </trkpt>
      <trkpt lat="38.3748540" lon="-0.6686040">
        <ele>361.2</ele>
        <time>2018-04-28T06:38:24Z</time>
      </trkpt>
      <trkpt lat="38.3748660" lon="-0.6685880">
        <ele>361.5</ele>
        <time>2018-04-28T06:38:25Z</time>
      </trkpt>
      <trkpt lat="38.3748770" lon="-0.6685700">
        <ele>361.6</ele>
        <time>2018-04-28T06:38:26Z</time>
      </trkpt>
      <trkpt lat="38.3748870" lon="-0.6685520">
        <ele>361.8</ele>
        <time>2018-04-28T06:38:27Z</time>
      </trkpt>
      <trkpt lat="38.3748960" lon="-0.6685350">
        <ele>361.9</ele>
        <time>2018-04-28T06:38:28Z</time>
      </trkpt>
      <trkpt lat="38.3749060" lon="-0.6685190">
        <ele>362.0</ele>
        <time>2018-04-28T06:38:29Z</time>
      </trkpt>
      <trkpt lat="38.3749180" lon="-0.6685050">
        <ele>362.3</ele>
        <time>2018-04-28T06:38:30Z</time>
      </trkpt>
      <trkpt lat="38.3749300" lon="-0.6684900">
        <ele>362.6</ele>
        <time>2018-04-28T06:38:31Z</time>
      </trkpt>
      <trkpt lat="38.3749420" lon="-0.6684730">
        <ele>363.0</ele>
        <time>2018-04-28T06:38:32Z</time>
      </trkpt>
      <trkpt lat="38.3749540" lon="-0.6684600">
        <ele>363.4</ele>
        <time>2018-04-28T06:38:33Z</time>
      </trkpt>
      <trkpt lat="38.3749650" lon="-0.6684430">
        <ele>363.8</ele>
        <time>2018-04-28T06:38:34Z</time>
      </trkpt>
      <trkpt lat="38.3749760" lon="-0.6684260">
        <ele>364.6</ele>
        <time>2018-04-28T06:38:35Z</time>
      </trkpt>
      <trkpt lat="38.3749860" lon="-0.6684100">
        <ele>365.2</ele>
        <time>2018-04-28T06:38:36Z</time>
      </trkpt>
      <trkpt lat="38.3749960" lon="-0.6683930">
        <ele>365.7</ele>
        <time>2018-04-28T06:38:37Z</time>
      </trkpt>
      <trkpt lat="38.3750080" lon="-0.6683780">
        <ele>366.1</ele>
        <time>2018-04-28T06:38:38Z</time>
      </trkpt>
      <trkpt lat="38.3750190" lon="-0.6683610">
        <ele>366.5</ele>
        <time>2018-04-28T06:38:39Z</time>
      </trkpt>
      <trkpt lat="38.3750280" lon="-0.6683430">
        <ele>366.9</ele>
        <time>2018-04-28T06:38:40Z</time>
      </trkpt>
      <trkpt lat="38.3750370" lon="-0.6683270">
        <ele>367.3</ele>
        <time>2018-04-28T06:38:41Z</time>
      </trkpt>
      <trkpt lat="38.3750500" lon="-0.6683170">
        <ele>367.6</ele>
        <time>2018-04-28T06:38:42Z</time>
      </trkpt>
      <trkpt lat="38.3750620" lon="-0.6682990">
        <ele>368.0</ele>
        <time>2018-04-28T06:38:43Z</time>
      </trkpt>
      <trkpt lat="38.3750710" lon="-0.6682790">
        <ele>368.3</ele>
        <time>2018-04-28T06:38:44Z</time>
      </trkpt>
      <trkpt lat="38.3750820" lon="-0.6682600">
        <ele>368.7</ele>
        <time>2018-04-28T06:38:45Z</time>
      </trkpt>
      <trkpt lat="38.3750930" lon="-0.6682420">
        <ele>369.0</ele>
        <time>2018-04-28T06:38:46Z</time>
      </trkpt>
      <trkpt lat="38.3751030" lon="-0.6682240">
        <ele>369.4</ele>
        <time>2018-04-28T06:38:47Z</time>
      </trkpt>
      <trkpt lat="38.3751140" lon="-0.6682070">
        <ele>369.8</ele>
        <time>2018-04-28T06:38:48Z</time>
      </trkpt>
      <trkpt lat="38.3751240" lon="-0.6681910">
        <ele>370.2</ele>
        <time>2018-04-28T06:38:49Z</time>
      </trkpt>
      <trkpt lat="38.3751340" lon="-0.6681740">
        <ele>370.6</ele>
        <time>2018-04-28T06:38:50Z</time>
      </trkpt>
      <trkpt lat="38.3751450" lon="-0.6681570">
        <ele>371.0</ele>
        <time>2018-04-28T06:38:51Z</time>
      </trkpt>
      <trkpt lat="38.3751560" lon="-0.6681410">
        <ele>371.4</ele>
        <time>2018-04-28T06:38:52Z</time>
      </trkpt>
      <trkpt lat="38.3751650" lon="-0.6681220">
        <ele>371.8</ele>
        <time>2018-04-28T06:38:53Z</time>
      </trkpt>
      <trkpt lat="38.3751740" lon="-0.6681050">
        <ele>372.1</ele>
        <time>2018-04-28T06:38:54Z</time>
      </trkpt>
      <trkpt lat="38.3751830" lon="-0.6680890">
        <ele>372.4</ele>
        <time>2018-04-28T06:38:55Z</time>
      </trkpt>
      <trkpt lat="38.3751940" lon="-0.6680730">
        <ele>372.8</ele>
        <time>2018-04-28T06:38:56Z</time>
      </trkpt>
      <trkpt lat="38.3752040" lon="-0.6680580">
        <ele>373.1</ele>
        <time>2018-04-28T06:38:57Z</time>
      </trkpt>
      <trkpt lat="38.3752140" lon="-0.6680450">
        <ele>373.4</ele>
        <time>2018-04-28T06:38:58Z</time>
      </trkpt>
      <trkpt lat="38.3752220" lon="-0.6680260">
        <ele>373.6</ele>
        <time>2018-04-28T06:38:59Z</time>
      </trkpt>
      <trkpt lat="38.3752300" lon="-0.6680080">
        <ele>373.9</ele>
        <time>2018-04-28T06:39:00Z</time>
      </trkpt>
      <trkpt lat="38.3752380" lon="-0.6679890">
        <ele>374.2</ele>
        <time>2018-04-28T06:39:01Z</time>
      </trkpt>
      <trkpt lat="38.3752470" lon="-0.6679710">
        <ele>374.5</ele>
        <time>2018-04-28T06:39:02Z</time>
      </trkpt>
      <trkpt lat="38.3752530" lon="-0.6679540">
        <ele>374.7</ele>
        <time>2018-04-28T06:39:03Z</time>
      </trkpt>
      <trkpt lat="38.3752610" lon="-0.6679360">
        <ele>374.8</ele>
        <time>2018-04-28T06:39:04Z</time>
      </trkpt>
      <trkpt lat="38.3752680" lon="-0.6679170">
        <ele>375.0</ele>
        <time>2018-04-28T06:39:05Z</time>
      </trkpt>
      <trkpt lat="38.3752750" lon="-0.6678970">
        <ele>375.1</ele>
        <time>2018-04-28T06:39:06Z</time>
      </trkpt>
      <trkpt lat="38.3752830" lon="-0.6678760">
        <ele>375.3</ele>
        <time>2018-04-28T06:39:07Z</time>
      </trkpt>
      <trkpt lat="38.3752920" lon="-0.6678580">
        <ele>375.5</ele>
        <time>2018-04-28T06:39:08Z</time>
      </trkpt>
      <trkpt lat="38.3753010" lon="-0.6678390">
        <ele>375.6</ele>
        <time>2018-04-28T06:39:09Z</time>
      </trkpt>
      <trkpt lat="38.3753110" lon="-0.6678190">
        <ele>375.8</ele>
        <time>2018-04-28T06:39:10Z</time>
      </trkpt>
      <trkpt lat="38.3753240" lon="-0.6678020">
        <ele>376.0</ele>
        <time>2018-04-28T06:39:11Z</time>
      </trkpt>
      <trkpt lat="38.3753360" lon="-0.6677830">
        <ele>376.1</ele>
        <time>2018-04-28T06:39:12Z</time>
      </trkpt>
      <trkpt lat="38.3753430" lon="-0.6677630">
        <ele>376.3</ele>
        <time>2018-04-28T06:39:13Z</time>
      </trkpt>
      <trkpt lat="38.3753550" lon="-0.6677430">
        <ele>376.5</ele>
        <time>2018-04-28T06:39:14Z</time>
      </trkpt>
      <trkpt lat="38.3753680" lon="-0.6677250">
        <ele>376.8</ele>
        <time>2018-04-28T06:39:15Z</time>
      </trkpt>
      <trkpt lat="38.3753820" lon="-0.6677070">
        <ele>377.0</ele>
        <time>2018-04-28T06:39:16Z</time>
      </trkpt>
      <trkpt lat="38.3754000" lon="-0.6676910">
        <ele>377.3</ele>
        <time>2018-04-28T06:39:17Z</time>
      </trkpt>
      <trkpt lat="38.3754150" lon="-0.6676710">
        <ele>377.5</ele>
        <time>2018-04-28T06:39:18Z</time>
      </trkpt>
      <trkpt lat="38.3754340" lon="-0.6676530">
        <ele>377.7</ele>
        <time>2018-04-28T06:39:19Z</time>
      </trkpt>
      <trkpt lat="38.3754540" lon="-0.6676350">
        <ele>377.9</ele>
        <time>2018-04-28T06:39:20Z</time>
      </trkpt>
      <trkpt lat="38.3754740" lon="-0.6676160">
        <ele>378.1</ele>
        <time>2018-04-28T06:39:21Z</time>
      </trkpt>
      <trkpt lat="38.3754920" lon="-0.6675940">
        <ele>378.3</ele>
        <time>2018-04-28T06:39:22Z</time>
      </trkpt>
      <trkpt lat="38.3755100" lon="-0.6675730">
        <ele>378.5</ele>
        <time>2018-04-28T06:39:23Z</time>
      </trkpt>
      <trkpt lat="38.3755300" lon="-0.6675520">
        <ele>378.7</ele>
        <time>2018-04-28T06:39:24Z</time>
      </trkpt>
      <trkpt lat="38.3755520" lon="-0.6675290">
        <ele>378.9</ele>
        <time>2018-04-28T06:39:25Z</time>
      </trkpt>
      <trkpt lat="38.3755710" lon="-0.6675030">
        <ele>379.4</ele>
        <time>2018-04-28T06:39:26Z</time>
      </trkpt>
      <trkpt lat="38.3755890" lon="-0.6674750">
        <ele>379.7</ele>
        <time>2018-04-28T06:39:27Z</time>
      </trkpt>
      <trkpt lat="38.3756050" lon="-0.6674400">
        <ele>380.1</ele>
        <time>2018-04-28T06:39:28Z</time>
      </trkpt>
      <trkpt lat="38.3756190" lon="-0.6674030">
        <ele>380.5</ele>
        <time>2018-04-28T06:39:29Z</time>
      </trkpt>
      <trkpt lat="38.3756270" lon="-0.6673670">
        <ele>380.8</ele>
        <time>2018-04-28T06:39:30Z</time>
      </trkpt>
      <trkpt lat="38.3756190" lon="-0.6673300">
        <ele>381.2</ele>
        <time>2018-04-28T06:39:31Z</time>
      </trkpt>
      <trkpt lat="38.3756030" lon="-0.6672950">
        <ele>381.5</ele>
        <time>2018-04-28T06:39:32Z</time>
      </trkpt>
      <trkpt lat="38.3755950" lon="-0.6672600">
        <ele>381.8</ele>
        <time>2018-04-28T06:39:33Z</time>
      </trkpt>
      <trkpt lat="38.3755920" lon="-0.6672280">
        <ele>382.1</ele>
        <time>2018-04-28T06:39:34Z</time>
      </trkpt>
      <trkpt lat="38.3755890" lon="-0.6671980">
        <ele>382.4</ele>
        <time>2018-04-28T06:39:35Z</time>
      </trkpt>
      <trkpt lat="38.3755870" lon="-0.6671690">
        <ele>382.7</ele>
        <time>2018-04-28T06:39:36Z</time>
      </trkpt>
      <trkpt lat="38.3755840" lon="-0.6671410">
        <ele>382.9</ele>
        <time>2018-04-28T06:39:37Z</time>
      </trkpt>
      <trkpt lat="38.3755840" lon="-0.6671150">
        <ele>383.1</ele>
        <time>2018-04-28T06:39:38Z</time>
      </trkpt>
      <trkpt lat="38.3755850" lon="-0.6670870">
        <ele>383.4</ele>
        <time>2018-04-28T06:39:39Z</time>
      </trkpt>
      <trkpt lat="38.3755840" lon="-0.6670570">
        <ele>383.6</ele>
        <time>2018-04-28T06:39:40Z</time>
      </trkpt>
      <trkpt lat="38.3755830" lon="-0.6670260">
        <ele>383.9</ele>
        <time>2018-04-28T06:39:41Z</time>
      </trkpt>
      <trkpt lat="38.3755850" lon="-0.6669970">
        <ele>384.2</ele>
        <time>2018-04-28T06:39:42Z</time>
      </trkpt>
      <trkpt lat="38.3755850" lon="-0.6669680">
        <ele>384.4</ele>
        <time>2018-04-28T06:39:43Z</time>
      </trkpt>
      <trkpt lat="38.3755930" lon="-0.6669410">
        <ele>384.7</ele>
        <time>2018-04-28T06:39:44Z</time>
      </trkpt>
      <trkpt lat="38.3756050" lon="-0.6669200">
        <ele>385.0</ele>
        <time>2018-04-28T06:39:45Z</time>
      </trkpt>
      <trkpt lat="38.3756200" lon="-0.6669020">
        <ele>385.2</ele>
        <time>2018-04-28T06:39:46Z</time>
      </trkpt>
      <trkpt lat="38.3756350" lon="-0.6668880">
        <ele>385.4</ele>
        <time>2018-04-28T06:39:47Z</time>
      </trkpt>
      <trkpt lat="38.3756480" lon="-0.6668730">
        <ele>385.6</ele>
        <time>2018-04-28T06:39:48Z</time>
      </trkpt>
      <trkpt lat="38.3756640" lon="-0.6668600">
        <ele>385.8</ele>
        <time>2018-04-28T06:39:49Z</time>
      </trkpt>
      <trkpt lat="38.3756770" lon="-0.6668490">
        <ele>386.0</ele>
        <time>2018-04-28T06:39:50Z</time>
      </trkpt>
      <trkpt lat="38.3756920" lon="-0.6668420">
        <ele>386.1</ele>
        <time>2018-04-28T06:39:51Z</time>
      </trkpt>
      <trkpt lat="38.3757150" lon="-0.6668320">
        <ele>386.3</ele>
        <time>2018-04-28T06:39:52Z</time>
      </trkpt>
      <trkpt lat="38.3757320" lon="-0.6668290">
        <ele>386.5</ele>
        <time>2018-04-28T06:39:53Z</time>
      </trkpt>
      <trkpt lat="38.3757490" lon="-0.6668260">
        <ele>386.6</ele>
        <time>2018-04-28T06:39:54Z</time>
      </trkpt>
      <trkpt lat="38.3757680" lon="-0.6668220">
        <ele>386.8</ele>
        <time>2018-04-28T06:39:55Z</time>
      </trkpt>
      <trkpt lat="38.3757900" lon="-0.6668170">
        <ele>387.0</ele>
        <time>2018-04-28T06:39:56Z</time>
      </trkpt>
      <trkpt lat="38.3758090" lon="-0.6668120">
        <ele>387.2</ele>
        <time>2018-04-28T06:39:57Z</time>
      </trkpt>
      <trkpt lat="38.3758280" lon="-0.6668070">
        <ele>387.3</ele>
        <time>2018-04-28T06:39:58Z</time>
      </trkpt>
      <trkpt lat="38.3758490" lon="-0.6667980">
        <ele>387.5</ele>
        <time>2018-04-28T06:39:59Z</time>
      </trkpt>
      <trkpt lat="38.3758690" lon="-0.6667930">
        <ele>387.7</ele>
        <time>2018-04-28T06:40:00Z</time>
      </trkpt>
      <trkpt lat="38.3758890" lon="-0.6667860">
        <ele>388.0</ele>
        <time>2018-04-28T06:40:01Z</time>
      </trkpt>
      <trkpt lat="38.3759090" lon="-0.6667770">
        <ele>388.3</ele>
        <time>2018-04-28T06:40:02Z</time>
      </trkpt>
      <trkpt lat="38.3759300" lon="-0.6667650">
        <ele>388.6</ele>
        <time>2018-04-28T06:40:03Z</time>
      </trkpt>
      <trkpt lat="38.3759500" lon="-0.6667570">
        <ele>388.9</ele>
        <time>2018-04-28T06:40:04Z</time>
      </trkpt>
      <trkpt lat="38.3759720" lon="-0.6667510">
        <ele>389.1</ele>
        <time>2018-04-28T06:40:05Z</time>
      </trkpt>
      <trkpt lat="38.3759930" lon="-0.6667460">
        <ele>389.1</ele>
        <time>2018-04-28T06:40:06Z</time>
      </trkpt>
      <trkpt lat="38.3760160" lon="-0.6667390">
        <ele>389.2</ele>
        <time>2018-04-28T06:40:07Z</time>
      </trkpt>
      <trkpt lat="38.3760380" lon="-0.6667300">
        <ele>389.2</ele>
        <time>2018-04-28T06:40:08Z</time>
      </trkpt>
      <trkpt lat="38.3760590" lon="-0.6667200">
        <ele>389.2</ele>
        <time>2018-04-28T06:40:09Z</time>
      </trkpt>
      <trkpt lat="38.3760810" lon="-0.6667110">
        <ele>389.3</ele>
        <time>2018-04-28T06:40:10Z</time>
      </trkpt>
      <trkpt lat="38.3761050" lon="-0.6667030">
        <ele>389.3</ele>
        <time>2018-04-28T06:40:11Z</time>
      </trkpt>
      <trkpt lat="38.3761280" lon="-0.6666890">
        <ele>389.3</ele>
        <time>2018-04-28T06:40:12Z</time>
      </trkpt>
      <trkpt lat="38.3761510" lon="-0.6666770">
        <ele>389.4</ele>
        <time>2018-04-28T06:40:13Z</time>
      </trkpt>
      <trkpt lat="38.3761750" lon="-0.6666620">
        <ele>389.4</ele>
        <time>2018-04-28T06:40:14Z</time>
      </trkpt>
      <trkpt lat="38.3761990" lon="-0.6666480">
        <ele>389.4</ele>
        <time>2018-04-28T06:40:15Z</time>
      </trkpt>
      <trkpt lat="38.3762260" lon="-0.6666330">
        <ele>389.4</ele>
        <time>2018-04-28T06:40:16Z</time>
      </trkpt>
      <trkpt lat="38.3762540" lon="-0.6666130">
        <ele>389.5</ele>
        <time>2018-04-28T06:40:17Z</time>
      </trkpt>
      <trkpt lat="38.3762800" lon="-0.6665900">
        <ele>389.5</ele>
        <time>2018-04-28T06:40:18Z</time>
      </trkpt>
      <trkpt lat="38.3763090" lon="-0.6665670">
        <ele>389.5</ele>
        <time>2018-04-28T06:40:19Z</time>
      </trkpt>
      <trkpt lat="38.3763390" lon="-0.6665450">
        <ele>389.5</ele>
        <time>2018-04-28T06:40:20Z</time>
      </trkpt>
      <trkpt lat="38.3763700" lon="-0.6665270">
        <ele>389.6</ele>
        <time>2018-04-28T06:40:21Z</time>
      </trkpt>
      <trkpt lat="38.3764030" lon="-0.6665130">
        <ele>389.6</ele>
        <time>2018-04-28T06:40:22Z</time>
      </trkpt>
      <trkpt lat="38.3764360" lon="-0.6665050">
        <ele>389.7</ele>
        <time>2018-04-28T06:40:23Z</time>
      </trkpt>
      <trkpt lat="38.3764680" lon="-0.6665020">
        <ele>389.7</ele>
        <time>2018-04-28T06:40:24Z</time>
      </trkpt>
      <trkpt lat="38.3765000" lon="-0.6665070">
        <ele>389.7</ele>
        <time>2018-04-28T06:40:25Z</time>
      </trkpt>
      <trkpt lat="38.3765290" lon="-0.6665160">
        <ele>389.8</ele>
        <time>2018-04-28T06:40:26Z</time>
      </trkpt>
      <trkpt lat="38.3765570" lon="-0.6665260">
        <ele>389.8</ele>
        <time>2018-04-28T06:40:27Z</time>
      </trkpt>
      <trkpt lat="38.3765800" lon="-0.6665420">
        <ele>389.8</ele>
        <time>2018-04-28T06:40:28Z</time>
      </trkpt>
      <trkpt lat="38.3766020" lon="-0.6665580">
        <ele>389.9</ele>
        <time>2018-04-28T06:40:29Z</time>
      </trkpt>
      <trkpt lat="38.3766210" lon="-0.6665750">
        <ele>390.1</ele>
        <time>2018-04-28T06:40:30Z</time>
      </trkpt>
      <trkpt lat="38.3766390" lon="-0.6665890">
        <ele>391.3</ele>
        <time>2018-04-28T06:40:31Z</time>
      </trkpt>
      <trkpt lat="38.3766580" lon="-0.6666020">
        <ele>392.4</ele>
        <time>2018-04-28T06:40:32Z</time>
      </trkpt>
      <trkpt lat="38.3766790" lon="-0.6666070">
        <ele>393.6</ele>
        <time>2018-04-28T06:40:33Z</time>
      </trkpt>
      <trkpt lat="38.3767020" lon="-0.6666090">
        <ele>394.8</ele>
        <time>2018-04-28T06:40:34Z</time>
      </trkpt>
      <trkpt lat="38.3767240" lon="-0.6666060">
        <ele>396.0</ele>
        <time>2018-04-28T06:40:35Z</time>
      </trkpt>
      <trkpt lat="38.3767460" lon="-0.6665960">
        <ele>397.2</ele>
        <time>2018-04-28T06:40:36Z</time>
      </trkpt>
      <trkpt lat="38.3767590" lon="-0.6665760">
        <ele>397.2</ele>
        <time>2018-04-28T06:40:37Z</time>
      </trkpt>
      <trkpt lat="38.3767670" lon="-0.6665520">
        <ele>396.8</ele>
        <time>2018-04-28T06:40:38Z</time>
      </trkpt>
      <trkpt lat="38.3767720" lon="-0.6665240">
        <ele>396.5</ele>
        <time>2018-04-28T06:40:39Z</time>
      </trkpt>
      <trkpt lat="38.3767780" lon="-0.6664980">
        <ele>396.1</ele>
        <time>2018-04-28T06:40:40Z</time>
      </trkpt>
      <trkpt lat="38.3767770" lon="-0.6664760">
        <ele>395.8</ele>
        <time>2018-04-28T06:40:41Z</time>
      </trkpt>
      <trkpt lat="38.3767750" lon="-0.6664460">
        <ele>395.5</ele>
        <time>2018-04-28T06:40:42Z</time>
      </trkpt>
      <trkpt lat="38.3767700" lon="-0.6664180">
        <ele>395.2</ele>
        <time>2018-04-28T06:40:43Z</time>
      </trkpt>
      <trkpt lat="38.3767680" lon="-0.6663890">
        <ele>394.8</ele>
        <time>2018-04-28T06:40:44Z</time>
      </trkpt>
      <trkpt lat="38.3767560" lon="-0.6663600">
        <ele>394.5</ele>
        <time>2018-04-28T06:40:45Z</time>
      </trkpt>
      <trkpt lat="38.3767460" lon="-0.6663440">
        <ele>394.2</ele>
        <time>2018-04-28T06:40:46Z</time>
      </trkpt>
      <trkpt lat="38.3767220" lon="-0.6663030">
        <ele>393.7</ele>
        <time>2018-04-28T06:40:48Z</time>
      </trkpt>
      <trkpt lat="38.3767280" lon="-0.6663100">
        <ele>390.0</ele>
        <time>2018-04-28T06:40:49Z</time>
      </trkpt>
      <trkpt lat="38.3767290" lon="-0.6663240">
        <ele>392.7</ele>
        <time>2018-04-28T06:40:50Z</time>
      </trkpt>
      <trkpt lat="38.3767370" lon="-0.6663590">
        <ele>393.3</ele>
        <time>2018-04-28T06:40:51Z</time>
      </trkpt>
      <trkpt lat="38.3767510" lon="-0.6664190">
        <ele>394.4</ele>
        <time>2018-04-28T06:40:52Z</time>
      </trkpt>
      <trkpt lat="38.3767590" lon="-0.6664730">
        <ele>395.3</ele>
        <time>2018-04-28T06:40:53Z</time>
      </trkpt>
      <trkpt lat="38.3767640" lon="-0.6665240">
        <ele>396.3</ele>
        <time>2018-04-28T06:40:54Z</time>
      </trkpt>
      <trkpt lat="38.3767660" lon="-0.6665710">
        <ele>397.2</ele>
        <time>2018-04-28T06:40:55Z</time>
      </trkpt>
      <trkpt lat="38.3767490" lon="-0.6665770">
        <ele>399.0</ele>
        <time>2018-04-28T06:40:56Z</time>
      </trkpt>
      <trkpt lat="38.3766950" lon="-0.6665500">
        <ele>390.0</ele>
        <time>2018-04-28T06:40:57Z</time>
      </trkpt>
      <trkpt lat="38.3766540" lon="-0.6665090">
        <ele>389.9</ele>
        <time>2018-04-28T06:40:58Z</time>
      </trkpt>
      <trkpt lat="38.3765920" lon="-0.6664740">
        <ele>389.8</ele>
        <time>2018-04-28T06:40:59Z</time>
      </trkpt>
      <trkpt lat="38.3765290" lon="-0.6664500">
        <ele>389.7</ele>
        <time>2018-04-28T06:41:00Z</time>
      </trkpt>
      <trkpt lat="38.3764590" lon="-0.6664410">
        <ele>389.7</ele>
        <time>2018-04-28T06:41:01Z</time>
      </trkpt>
      <trkpt lat="38.3764030" lon="-0.6664600">
        <ele>389.6</ele>
        <time>2018-04-28T06:41:02Z</time>
      </trkpt>
      <trkpt lat="38.3763710" lon="-0.6665320">
        <ele>389.5</ele>
        <time>2018-04-28T06:41:03Z</time>
      </trkpt>
      <trkpt lat="38.3763160" lon="-0.6665770">
        <ele>389.5</ele>
        <time>2018-04-28T06:41:04Z</time>
      </trkpt>
      <trkpt lat="38.3762720" lon="-0.6666170">
        <ele>389.5</ele>
        <time>2018-04-28T06:41:05Z</time>
      </trkpt>
      <trkpt lat="38.3762280" lon="-0.6666530">
        <ele>389.4</ele>
        <time>2018-04-28T06:41:06Z</time>
      </trkpt>
      <trkpt lat="38.3761820" lon="-0.6666870">
        <ele>389.4</ele>
        <time>2018-04-28T06:41:07Z</time>
      </trkpt>
      <trkpt lat="38.3761380" lon="-0.6667270">
        <ele>389.3</ele>
        <time>2018-04-28T06:41:08Z</time>
      </trkpt>
      <trkpt lat="38.3761020" lon="-0.6667750">
        <ele>389.3</ele>
        <time>2018-04-28T06:41:09Z</time>
      </trkpt>
      <trkpt lat="38.3760620" lon="-0.6668290">
        <ele>389.2</ele>
        <time>2018-04-28T06:41:10Z</time>
      </trkpt>
      <trkpt lat="38.3760240" lon="-0.6668860">
        <ele>388.3</ele>
        <time>2018-04-28T06:41:11Z</time>
      </trkpt>
      <trkpt lat="38.3759830" lon="-0.6669560">
        <ele>387.4</ele>
        <time>2018-04-28T06:41:12Z</time>
      </trkpt>
      <trkpt lat="38.3759350" lon="-0.6670420">
        <ele>386.6</ele>
        <time>2018-04-28T06:41:13Z</time>
      </trkpt>
      <trkpt lat="38.3758910" lon="-0.6671360">
        <ele>385.6</ele>
        <time>2018-04-28T06:41:14Z</time>
      </trkpt>
      <trkpt lat="38.3758440" lon="-0.6672460">
        <ele>384.3</ele>
        <time>2018-04-28T06:41:15Z</time>
      </trkpt>
      <trkpt lat="38.3757850" lon="-0.6673570">
        <ele>382.8</ele>
        <time>2018-04-28T06:41:16Z</time>
      </trkpt>
      <trkpt lat="38.3757090" lon="-0.6674470">
        <ele>381.3</ele>
        <time>2018-04-28T06:41:17Z</time>
      </trkpt>
      <trkpt lat="38.3756210" lon="-0.6675280">
        <ele>379.7</ele>
        <time>2018-04-28T06:41:18Z</time>
      </trkpt>
      <trkpt lat="38.3755330" lon="-0.6676120">
        <ele>378.5</ele>
        <time>2018-04-28T06:41:19Z</time>
      </trkpt>
      <trkpt lat="38.3754520" lon="-0.6677030">
        <ele>377.7</ele>
        <time>2018-04-28T06:41:20Z</time>
      </trkpt>
      <trkpt lat="38.3753810" lon="-0.6678030">
        <ele>376.5</ele>
        <time>2018-04-28T06:41:21Z</time>
      </trkpt>
      <trkpt lat="38.3753160" lon="-0.6679220">
        <ele>375.3</ele>
        <time>2018-04-28T06:41:22Z</time>
      </trkpt>
      <trkpt lat="38.3752450" lon="-0.6680470">
        <ele>373.8</ele>
        <time>2018-04-28T06:41:23Z</time>
      </trkpt>
      <trkpt lat="38.3751610" lon="-0.6681660">
        <ele>371.3</ele>
        <time>2018-04-28T06:41:24Z</time>
      </trkpt>
      <trkpt lat="38.3750740" lon="-0.6682930">
        <ele>368.3</ele>
        <time>2018-04-28T06:41:25Z</time>
      </trkpt>
      <trkpt lat="38.3749900" lon="-0.6684210">
        <ele>365.1</ele>
        <time>2018-04-28T06:41:26Z</time>
      </trkpt>
      <trkpt lat="38.3749050" lon="-0.6685520">
        <ele>361.8</ele>
        <time>2018-04-28T06:41:27Z</time>
      </trkpt>
      <trkpt lat="38.3748180" lon="-0.6686870">
        <ele>360.5</ele>
        <time>2018-04-28T06:41:28Z</time>
      </trkpt>
      <trkpt lat="38.3747270" lon="-0.6688230">
        <ele>359.3</ele>
        <time>2018-04-28T06:41:29Z</time>
      </trkpt>
      <trkpt lat="38.3746260" lon="-0.6689570">
        <ele>357.6</ele>
        <time>2018-04-28T06:41:30Z</time>
      </trkpt>
      <trkpt lat="38.3745180" lon="-0.6690880">
        <ele>355.9</ele>
        <time>2018-04-28T06:41:31Z</time>
      </trkpt>
      <trkpt lat="38.3744120" lon="-0.6692110">
        <ele>354.1</ele>
        <time>2018-04-28T06:41:32Z</time>
      </trkpt>
      <trkpt lat="38.3743030" lon="-0.6693320">
        <ele>352.6</ele>
        <time>2018-04-28T06:41:33Z</time>
      </trkpt>
      <trkpt lat="38.3742020" lon="-0.6694420">
        <ele>351.0</ele>
        <time>2018-04-28T06:41:34Z</time>
      </trkpt>
      <trkpt lat="38.3741090" lon="-0.6695490">
        <ele>349.7</ele>
        <time>2018-04-28T06:41:35Z</time>
      </trkpt>
      <trkpt lat="38.3740250" lon="-0.6696500">
        <ele>348.2</ele>
        <time>2018-04-28T06:41:36Z</time>
      </trkpt>
      <trkpt lat="38.3739500" lon="-0.6697500">
        <ele>347.1</ele>
        <time>2018-04-28T06:41:37Z</time>
      </trkpt>
      <trkpt lat="38.3738820" lon="-0.6698530">
        <ele>345.7</ele>
        <time>2018-04-28T06:41:38Z</time>
      </trkpt>
      <trkpt lat="38.3738210" lon="-0.6699480">
        <ele>344.6</ele>
        <time>2018-04-28T06:41:39Z</time>
      </trkpt>
      <trkpt lat="38.3737670" lon="-0.6700310">
        <ele>343.6</ele>
        <time>2018-04-28T06:41:40Z</time>
      </trkpt>
      <trkpt lat="38.3737190" lon="-0.6701070">
        <ele>342.9</ele>
        <time>2018-04-28T06:41:41Z</time>
      </trkpt>
      <trkpt lat="38.3736870" lon="-0.6701490">
        <ele>342.4</ele>
        <time>2018-04-28T06:41:42Z</time>
      </trkpt>
      <trkpt lat="38.3736540" lon="-0.6702010">
        <ele>341.9</ele>
        <time>2018-04-28T06:41:43Z</time>
      </trkpt>
      <trkpt lat="38.3736370" lon="-0.6702720">
        <ele>341.4</ele>
        <time>2018-04-28T06:41:44Z</time>
      </trkpt>
      <trkpt lat="38.3736200" lon="-0.6703540">
        <ele>340.6</ele>
        <time>2018-04-28T06:41:45Z</time>
      </trkpt>
      <trkpt lat="38.3735870" lon="-0.6704410">
        <ele>340.0</ele>
        <time>2018-04-28T06:41:46Z</time>
      </trkpt>
      <trkpt lat="38.3735420" lon="-0.6705430">
        <ele>339.0</ele>
        <time>2018-04-28T06:41:47Z</time>
      </trkpt>
      <trkpt lat="38.3734860" lon="-0.6706570">
        <ele>337.8</ele>
        <time>2018-04-28T06:41:48Z</time>
      </trkpt>
      <trkpt lat="38.3734220" lon="-0.6707850">
        <ele>336.3</ele>
        <time>2018-04-28T06:41:49Z</time>
      </trkpt>
      <trkpt lat="38.3733560" lon="-0.6709290">
        <ele>334.6</ele>
        <time>2018-04-28T06:41:50Z</time>
      </trkpt>
      <trkpt lat="38.3732860" lon="-0.6710680">
        <ele>332.8</ele>
        <time>2018-04-28T06:41:51Z</time>
      </trkpt>
      <trkpt lat="38.3732070" lon="-0.6712170">
        <ele>330.6</ele>
        <time>2018-04-28T06:41:52Z</time>
      </trkpt>
      <trkpt lat="38.3731140" lon="-0.6713870">
        <ele>328.1</ele>
        <time>2018-04-28T06:41:53Z</time>
      </trkpt>
      <trkpt lat="38.3730260" lon="-0.6715540">
        <ele>325.6</ele>
        <time>2018-04-28T06:41:54Z</time>
      </trkpt>
      <trkpt lat="38.3729450" lon="-0.6717120">
        <ele>323.2</ele>
        <time>2018-04-28T06:41:55Z</time>
      </trkpt>
      <trkpt lat="38.3728730" lon="-0.6718690">
        <ele>320.8</ele>
        <time>2018-04-28T06:41:56Z</time>
      </trkpt>
      <trkpt lat="38.3728110" lon="-0.6720260">
        <ele>318.5</ele>
        <time>2018-04-28T06:41:57Z</time>
      </trkpt>
      <trkpt lat="38.3727530" lon="-0.6721760">
        <ele>316.4</ele>
        <time>2018-04-28T06:41:58Z</time>
      </trkpt>
      <trkpt lat="38.3727080" lon="-0.6723150">
        <ele>314.5</ele>
        <time>2018-04-28T06:41:59Z</time>
      </trkpt>
      <trkpt lat="38.3726800" lon="-0.6723990">
        <ele>313.4</ele>
        <time>2018-04-28T06:42:00Z</time>
      </trkpt>
      <trkpt lat="38.3726580" lon="-0.6724970">
        <ele>312.7</ele>
        <time>2018-04-28T06:42:01Z</time>
      </trkpt>
      <trkpt lat="38.3726730" lon="-0.6725860">
        <ele>312.0</ele>
        <time>2018-04-28T06:42:02Z</time>
      </trkpt>
      <trkpt lat="38.3726990" lon="-0.6726960">
        <ele>311.1</ele>
        <time>2018-04-28T06:42:03Z</time>
      </trkpt>
      <trkpt lat="38.3727490" lon="-0.6727940">
        <ele>310.2</ele>
        <time>2018-04-28T06:42:04Z</time>
      </trkpt>
      <trkpt lat="38.3728040" lon="-0.6728980">
        <ele>309.2</ele>
        <time>2018-04-28T06:42:05Z</time>
      </trkpt>
      <trkpt lat="38.3728670" lon="-0.6730100">
        <ele>308.6</ele>
        <time>2018-04-28T06:42:06Z</time>
      </trkpt>
      <trkpt lat="38.3729320" lon="-0.6731190">
        <ele>307.9</ele>
        <time>2018-04-28T06:42:07Z</time>
      </trkpt>
      <trkpt lat="38.3730010" lon="-0.6732280">
        <ele>307.4</ele>
        <time>2018-04-28T06:42:08Z</time>
      </trkpt>
      <trkpt lat="38.3730680" lon="-0.6733350">
        <ele>306.9</ele>
        <time>2018-04-28T06:42:09Z</time>
      </trkpt>
      <trkpt lat="38.3731260" lon="-0.6734460">
        <ele>306.5</ele>
        <time>2018-04-28T06:42:10Z</time>
      </trkpt>
      <trkpt lat="38.3731740" lon="-0.6735670">
        <ele>306.0</ele>
        <time>2018-04-28T06:42:11Z</time>
      </trkpt>
      <trkpt lat="38.3732040" lon="-0.6736960">
        <ele>305.5</ele>
        <time>2018-04-28T06:42:12Z</time>
      </trkpt>
      <trkpt lat="38.3732250" lon="-0.6738230">
        <ele>305.0</ele>
        <time>2018-04-28T06:42:13Z</time>
      </trkpt>
      <trkpt lat="38.3732390" lon="-0.6739470">
        <ele>304.5</ele>
        <time>2018-04-28T06:42:14Z</time>
      </trkpt>
      <trkpt lat="38.3732550" lon="-0.6740700">
        <ele>304.2</ele>
        <time>2018-04-28T06:42:15Z</time>
      </trkpt>
      <trkpt lat="38.3732700" lon="-0.6741890">
        <ele>304.0</ele>
        <time>2018-04-28T06:42:16Z</time>
      </trkpt>
      <trkpt lat="38.3732930" lon="-0.6743020">
        <ele>303.7</ele>
        <time>2018-04-28T06:42:17Z</time>
      </trkpt>
      <trkpt lat="38.3733180" lon="-0.6744110">
        <ele>303.5</ele>
        <time>2018-04-28T06:42:18Z</time>
      </trkpt>
      <trkpt lat="38.3733530" lon="-0.6745150">
        <ele>303.3</ele>
        <time>2018-04-28T06:42:19Z</time>
      </trkpt>
      <trkpt lat="38.3733990" lon="-0.6746130">
        <ele>303.0</ele>
        <time>2018-04-28T06:42:20Z</time>
      </trkpt>
      <trkpt lat="38.3734460" lon="-0.6747040">
        <ele>302.8</ele>
        <time>2018-04-28T06:42:21Z</time>
      </trkpt>
      <trkpt lat="38.3734970" lon="-0.6747910">
        <ele>302.6</ele>
        <time>2018-04-28T06:42:22Z</time>
      </trkpt>
      <trkpt lat="38.3735520" lon="-0.6748780">
        <ele>302.4</ele>
        <time>2018-04-28T06:42:23Z</time>
      </trkpt>
      <trkpt lat="38.3736090" lon="-0.6749670">
        <ele>302.0</ele>
        <time>2018-04-28T06:42:24Z</time>
      </trkpt>
      <trkpt lat="38.3736700" lon="-0.6750550">
        <ele>301.3</ele>
        <time>2018-04-28T06:42:25Z</time>
      </trkpt>
      <trkpt lat="38.3737360" lon="-0.6751430">
        <ele>300.6</ele>
        <time>2018-04-28T06:42:26Z</time>
      </trkpt>
      <trkpt lat="38.3738030" lon="-0.6752150">
        <ele>299.9</ele>
        <time>2018-04-28T06:42:27Z</time>
      </trkpt>
      <trkpt lat="38.3738820" lon="-0.6752660">
        <ele>298.7</ele>
        <time>2018-04-28T06:42:28Z</time>
      </trkpt>
      <trkpt lat="38.3739870" lon="-0.6752710">
        <ele>297.4</ele>
        <time>2018-04-28T06:42:29Z</time>
      </trkpt>
      <trkpt lat="38.3740720" lon="-0.6752510">
        <ele>296.8</ele>
        <time>2018-04-28T06:42:30Z</time>
      </trkpt>
      <trkpt lat="38.3741640" lon="-0.6752310">
        <ele>296.4</ele>
        <time>2018-04-28T06:42:31Z</time>
      </trkpt>
      <trkpt lat="38.3742550" lon="-0.6752210">
        <ele>296.1</ele>
        <time>2018-04-28T06:42:32Z</time>
      </trkpt>
      <trkpt lat="38.3743450" lon="-0.6752230">
        <ele>295.8</ele>
        <time>2018-04-28T06:42:33Z</time>
      </trkpt>
      <trkpt lat="38.3744320" lon="-0.6752370">
        <ele>295.7</ele>
        <time>2018-04-28T06:42:34Z</time>
      </trkpt>
      <trkpt lat="38.3745170" lon="-0.6752590">
        <ele>295.7</ele>
        <time>2018-04-28T06:42:35Z</time>
      </trkpt>
      <trkpt lat="38.3745990" lon="-0.6752850">
        <ele>295.6</ele>
        <time>2018-04-28T06:42:36Z</time>
      </trkpt>
      <trkpt lat="38.3746790" lon="-0.6753150">
        <ele>295.6</ele>
        <time>2018-04-28T06:42:37Z</time>
      </trkpt>
      <trkpt lat="38.3747570" lon="-0.6753480">
        <ele>295.6</ele>
        <time>2018-04-28T06:42:38Z</time>
      </trkpt>
      <trkpt lat="38.3748320" lon="-0.6753810">
        <ele>295.7</ele>
        <time>2018-04-28T06:42:39Z</time>
      </trkpt>
      <trkpt lat="38.3749070" lon="-0.6754130">
        <ele>295.8</ele>
        <time>2018-04-28T06:42:40Z</time>
      </trkpt>
      <trkpt lat="38.3749820" lon="-0.6754460">
        <ele>295.8</ele>
        <time>2018-04-28T06:42:41Z</time>
      </trkpt>
      <trkpt lat="38.3750550" lon="-0.6754780">
        <ele>295.9</ele>
        <time>2018-04-28T06:42:42Z</time>
      </trkpt>
      <trkpt lat="38.3751270" lon="-0.6755110">
        <ele>296.0</ele>
        <time>2018-04-28T06:42:43Z</time>
      </trkpt>
      <trkpt lat="38.3751970" lon="-0.6755420">
        <ele>296.2</ele>
        <time>2018-04-28T06:42:44Z</time>
      </trkpt>
      <trkpt lat="38.3752650" lon="-0.6755720">
        <ele>296.3</ele>
        <time>2018-04-28T06:42:45Z</time>
      </trkpt>
      <trkpt lat="38.3753330" lon="-0.6756000">
        <ele>296.4</ele>
        <time>2018-04-28T06:42:46Z</time>
      </trkpt>
      <trkpt lat="38.3753980" lon="-0.6756260">
        <ele>296.6</ele>
        <time>2018-04-28T06:42:47Z</time>
      </trkpt>
      <trkpt lat="38.3754630" lon="-0.6756530">
        <ele>296.8</ele>
        <time>2018-04-28T06:42:48Z</time>
      </trkpt>
      <trkpt lat="38.3755280" lon="-0.6756770">
        <ele>297.0</ele>
        <time>2018-04-28T06:42:49Z</time>
      </trkpt>
      <trkpt lat="38.3755920" lon="-0.6756930">
        <ele>297.2</ele>
        <time>2018-04-28T06:42:50Z</time>
      </trkpt>
      <trkpt lat="38.3756560" lon="-0.6757030">
        <ele>297.5</ele>
        <time>2018-04-28T06:42:51Z</time>
      </trkpt>
      <trkpt lat="38.3757190" lon="-0.6757030">
        <ele>297.7</ele>
        <time>2018-04-28T06:42:52Z</time>
      </trkpt>
      <trkpt lat="38.3757790" lon="-0.6757030">
        <ele>298.0</ele>
        <time>2018-04-28T06:42:53Z</time>
      </trkpt>
      <trkpt lat="38.3758350" lon="-0.6757020">
        <ele>298.2</ele>
        <time>2018-04-28T06:42:54Z</time>
      </trkpt>
      <trkpt lat="38.3758870" lon="-0.6756960">
        <ele>298.5</ele>
        <time>2018-04-28T06:42:55Z</time>
      </trkpt>
      <trkpt lat="38.3759400" lon="-0.6756820">
        <ele>298.7</ele>
        <time>2018-04-28T06:42:56Z</time>
      </trkpt>
      <trkpt lat="38.3759910" lon="-0.6756630">
        <ele>298.9</ele>
        <time>2018-04-28T06:42:57Z</time>
      </trkpt>
      <trkpt lat="38.3760410" lon="-0.6756420">
        <ele>299.1</ele>
        <time>2018-04-28T06:42:58Z</time>
      </trkpt>
      <trkpt lat="38.3760840" lon="-0.6756110">
        <ele>299.2</ele>
        <time>2018-04-28T06:42:59Z</time>
      </trkpt>
      <trkpt lat="38.3761260" lon="-0.6755820">
        <ele>299.3</ele>
        <time>2018-04-28T06:43:00Z</time>
      </trkpt>
      <trkpt lat="38.3761640" lon="-0.6755540">
        <ele>299.4</ele>
        <time>2018-04-28T06:43:01Z</time>
      </trkpt>
      <trkpt lat="38.3762020" lon="-0.6755270">
        <ele>299.5</ele>
        <time>2018-04-28T06:43:02Z</time>
      </trkpt>
      <trkpt lat="38.3762400" lon="-0.6754990">
        <ele>299.6</ele>
        <time>2018-04-28T06:43:03Z</time>
      </trkpt>
      <trkpt lat="38.3762790" lon="-0.6754720">
        <ele>299.7</ele>
        <time>2018-04-28T06:43:04Z</time>
      </trkpt>
      <trkpt lat="38.3763180" lon="-0.6754460">
        <ele>299.7</ele>
        <time>2018-04-28T06:43:05Z</time>
      </trkpt>
      <trkpt lat="38.3763550" lon="-0.6754210">
        <ele>299.7</ele>
        <time>2018-04-28T06:43:06Z</time>
      </trkpt>
      <trkpt lat="38.3763940" lon="-0.6753970">
        <ele>299.8</ele>
        <time>2018-04-28T06:43:07Z</time>
      </trkpt>
      <trkpt lat="38.3764330" lon="-0.6753710">
        <ele>299.8</ele>
        <time>2018-04-28T06:43:08Z</time>
      </trkpt>
      <trkpt lat="38.3764730" lon="-0.6753450">
        <ele>299.8</ele>
        <time>2018-04-28T06:43:09Z</time>
      </trkpt>
      <trkpt lat="38.3765130" lon="-0.6753180">
        <ele>299.8</ele>
        <time>2018-04-28T06:43:10Z</time>
      </trkpt>
      <trkpt lat="38.3765530" lon="-0.6752910">
        <ele>299.9</ele>
        <time>2018-04-28T06:43:11Z</time>
      </trkpt>
      <trkpt lat="38.3765940" lon="-0.6752650">
        <ele>299.9</ele>
        <time>2018-04-28T06:43:12Z</time>
      </trkpt>
      <trkpt lat="38.3766350" lon="-0.6752400">
        <ele>299.9</ele>
        <time>2018-04-28T06:43:13Z</time>
      </trkpt>
      <trkpt lat="38.3766780" lon="-0.6752170">
        <ele>300.0</ele>
        <time>2018-04-28T06:43:14Z</time>
      </trkpt>
      <trkpt lat="38.3767220" lon="-0.6751990">
        <ele>300.0</ele>
        <time>2018-04-28T06:43:15Z</time>
      </trkpt>
      <trkpt lat="38.3767700" lon="-0.6751920">
        <ele>300.0</ele>
        <time>2018-04-28T06:43:16Z</time>
      </trkpt>
      <trkpt lat="38.3768190" lon="-0.6752020">
        <ele>299.9</ele>
        <time>2018-04-28T06:43:17Z</time>
      </trkpt>
      <trkpt lat="38.3768710" lon="-0.6752180">
        <ele>299.8</ele>
        <time>2018-04-28T06:43:18Z</time>
      </trkpt>
      <trkpt lat="38.3769280" lon="-0.6752370">
        <ele>299.6</ele>
        <time>2018-04-28T06:43:19Z</time>
      </trkpt>
      <trkpt lat="38.3769870" lon="-0.6752590">
        <ele>299.5</ele>
        <time>2018-04-28T06:43:20Z</time>
      </trkpt>
      <trkpt lat="38.3770470" lon="-0.6752830">
        <ele>299.4</ele>
        <time>2018-04-28T06:43:21Z</time>
      </trkpt>
      <trkpt lat="38.3771100" lon="-0.6753090">
        <ele>299.2</ele>
        <time>2018-04-28T06:43:22Z</time>
      </trkpt>
      <trkpt lat="38.3771730" lon="-0.6753350">
        <ele>299.1</ele>
        <time>2018-04-28T06:43:23Z</time>
      </trkpt>
      <trkpt lat="38.3772360" lon="-0.6753620">
        <ele>298.9</ele>
        <time>2018-04-28T06:43:24Z</time>
      </trkpt>
      <trkpt lat="38.3773000" lon="-0.6753900">
        <ele>298.8</ele>
        <time>2018-04-28T06:43:25Z</time>
      </trkpt>
      <trkpt lat="38.3773660" lon="-0.6754190">
        <ele>298.7</ele>
        <time>2018-04-28T06:43:26Z</time>
      </trkpt>
      <trkpt lat="38.3774330" lon="-0.6754510">
        <ele>298.7</ele>
        <time>2018-04-28T06:43:27Z</time>
      </trkpt>
      <trkpt lat="38.3775000" lon="-0.6754810">
        <ele>298.6</ele>
        <time>2018-04-28T06:43:28Z</time>
      </trkpt>
      <trkpt lat="38.3775690" lon="-0.6755090">
        <ele>298.5</ele>
        <time>2018-04-28T06:43:29Z</time>
      </trkpt>
      <trkpt lat="38.3776380" lon="-0.6755400">
        <ele>298.5</ele>
        <time>2018-04-28T06:43:30Z</time>
      </trkpt>
      <trkpt lat="38.3777040" lon="-0.6755770">
        <ele>298.5</ele>
        <time>2018-04-28T06:43:31Z</time>
      </trkpt>
      <trkpt lat="38.3777680" lon="-0.6756250">
        <ele>298.5</ele>
        <time>2018-04-28T06:43:32Z</time>
      </trkpt>
      <trkpt lat="38.3778250" lon="-0.6756830">
        <ele>298.5</ele>
        <time>2018-04-28T06:43:33Z</time>
      </trkpt>
      <trkpt lat="38.3778780" lon="-0.6757450">
        <ele>298.5</ele>
        <time>2018-04-28T06:43:34Z</time>
      </trkpt>
      <trkpt lat="38.3779280" lon="-0.6758080">
        <ele>298.6</ele>
        <time>2018-04-28T06:43:35Z</time>
      </trkpt>
      <trkpt lat="38.3779760" lon="-0.6758730">
        <ele>298.7</ele>
        <time>2018-04-28T06:43:36Z</time>
      </trkpt>
      <trkpt lat="38.3780230" lon="-0.6759340">
        <ele>298.8</ele>
        <time>2018-04-28T06:43:37Z</time>
      </trkpt>
      <trkpt lat="38.3780700" lon="-0.6759900">
        <ele>299.0</ele>
        <time>2018-04-28T06:43:38Z</time>
      </trkpt>
      <trkpt lat="38.3781150" lon="-0.6760370">
        <ele>299.7</ele>
        <time>2018-04-28T06:43:39Z</time>
      </trkpt>
      <trkpt lat="38.3781590" lon="-0.6760700">
        <ele>300.5</ele>
        <time>2018-04-28T06:43:40Z</time>
      </trkpt>
      <trkpt lat="38.3781990" lon="-0.6760950">
        <ele>301.1</ele>
        <time>2018-04-28T06:43:41Z</time>
      </trkpt>
      <trkpt lat="38.3782410" lon="-0.6761130">
        <ele>301.5</ele>
        <time>2018-04-28T06:43:42Z</time>
      </trkpt>
      <trkpt lat="38.3782780" lon="-0.6761250">
        <ele>301.8</ele>
        <time>2018-04-28T06:43:43Z</time>
      </trkpt>
      <trkpt lat="38.3783150" lon="-0.6761330">
        <ele>302.2</ele>
        <time>2018-04-28T06:43:44Z</time>
      </trkpt>
      <trkpt lat="38.3783540" lon="-0.6761370">
        <ele>302.6</ele>
        <time>2018-04-28T06:43:45Z</time>
      </trkpt>
      <trkpt lat="38.3783930" lon="-0.6761420">
        <ele>302.9</ele>
        <time>2018-04-28T06:43:46Z</time>
      </trkpt>
      <trkpt lat="38.3784300" lon="-0.6761450">
        <ele>303.3</ele>
        <time>2018-04-28T06:43:47Z</time>
      </trkpt>
      <trkpt lat="38.3784680" lon="-0.6761490">
        <ele>303.6</ele>
        <time>2018-04-28T06:43:48Z</time>
      </trkpt>
      <trkpt lat="38.3785110" lon="-0.6761390">
        <ele>304.0</ele>
        <time>2018-04-28T06:43:49Z</time>
      </trkpt>
      <trkpt lat="38.3785480" lon="-0.6761280">
        <ele>304.2</ele>
        <time>2018-04-28T06:43:50Z</time>
      </trkpt>
      <trkpt lat="38.3785860" lon="-0.6761140">
        <ele>304.5</ele>
        <time>2018-04-28T06:43:51Z</time>
      </trkpt>
      <trkpt lat="38.3786210" lon="-0.6760970">
        <ele>304.7</ele>
        <time>2018-04-28T06:43:52Z</time>
      </trkpt>
      <trkpt lat="38.3786550" lon="-0.6760810">
        <ele>304.9</ele>
        <time>2018-04-28T06:43:53Z</time>
      </trkpt>
      <trkpt lat="38.3786890" lon="-0.6760630">
        <ele>305.1</ele>
        <time>2018-04-28T06:43:54Z</time>
      </trkpt>
      <trkpt lat="38.3787220" lon="-0.6760500">
        <ele>305.4</ele>
        <time>2018-04-28T06:43:55Z</time>
      </trkpt>
      <trkpt lat="38.3787570" lon="-0.6760390">
        <ele>305.7</ele>
        <time>2018-04-28T06:43:56Z</time>
      </trkpt>
      <trkpt lat="38.3787910" lon="-0.6760310">
        <ele>306.1</ele>
        <time>2018-04-28T06:43:57Z</time>
      </trkpt>
      <trkpt lat="38.3788250" lon="-0.6760200">
        <ele>306.4</ele>
        <time>2018-04-28T06:43:58Z</time>
      </trkpt>
      <trkpt lat="38.3788570" lon="-0.6760080">
        <ele>306.7</ele>
        <time>2018-04-28T06:43:59Z</time>
      </trkpt>
      <trkpt lat="38.3788920" lon="-0.6759980">
        <ele>306.9</ele>
        <time>2018-04-28T06:44:00Z</time>
      </trkpt>
      <trkpt lat="38.3789270" lon="-0.6759880">
        <ele>307.1</ele>
        <time>2018-04-28T06:44:01Z</time>
      </trkpt>
      <trkpt lat="38.3789620" lon="-0.6759810">
        <ele>307.3</ele>
        <time>2018-04-28T06:44:02Z</time>
      </trkpt>
      <trkpt lat="38.3789990" lon="-0.6759710">
        <ele>307.5</ele>
        <time>2018-04-28T06:44:03Z</time>
      </trkpt>
      <trkpt lat="38.3790360" lon="-0.6759600">
        <ele>307.7</ele>
        <time>2018-04-28T06:44:04Z</time>
      </trkpt>
      <trkpt lat="38.3790720" lon="-0.6759510">
        <ele>307.9</ele>
        <time>2018-04-28T06:44:05Z</time>
      </trkpt>
      <trkpt lat="38.3791100" lon="-0.6759430">
        <ele>308.3</ele>
        <time>2018-04-28T06:44:06Z</time>
      </trkpt>
      <trkpt lat="38.3791460" lon="-0.6759350">
        <ele>308.7</ele>
        <time>2018-04-28T06:44:07Z</time>
      </trkpt>
      <trkpt lat="38.3791820" lon="-0.6759260">
        <ele>309.1</ele>
        <time>2018-04-28T06:44:08Z</time>
      </trkpt>
      <trkpt lat="38.3792160" lon="-0.6759190">
        <ele>309.4</ele>
        <time>2018-04-28T06:44:09Z</time>
      </trkpt>
      <trkpt lat="38.3792500" lon="-0.6759140">
        <ele>309.7</ele>
        <time>2018-04-28T06:44:10Z</time>
      </trkpt>
      <trkpt lat="38.3792840" lon="-0.6759100">
        <ele>310.0</ele>
        <time>2018-04-28T06:44:11Z</time>
      </trkpt>
      <trkpt lat="38.3793180" lon="-0.6759050">
        <ele>310.3</ele>
        <time>2018-04-28T06:44:12Z</time>
      </trkpt>
      <trkpt lat="38.3793490" lon="-0.6759010">
        <ele>310.5</ele>
        <time>2018-04-28T06:44:13Z</time>
      </trkpt>
      <trkpt lat="38.3793800" lon="-0.6758940">
        <ele>310.8</ele>
        <time>2018-04-28T06:44:14Z</time>
      </trkpt>
      <trkpt lat="38.3794110" lon="-0.6758880">
        <ele>311.0</ele>
        <time>2018-04-28T06:44:15Z</time>
      </trkpt>
      <trkpt lat="38.3794410" lon="-0.6758860">
        <ele>311.5</ele>
        <time>2018-04-28T06:44:16Z</time>
      </trkpt>
      <trkpt lat="38.3794700" lon="-0.6758840">
        <ele>312.1</ele>
        <time>2018-04-28T06:44:17Z</time>
      </trkpt>
      <trkpt lat="38.3794990" lon="-0.6758820">
        <ele>312.6</ele>
        <time>2018-04-28T06:44:18Z</time>
      </trkpt>
      <trkpt lat="38.3795290" lon="-0.6758810">
        <ele>312.9</ele>
        <time>2018-04-28T06:44:19Z</time>
      </trkpt>
      <trkpt lat="38.3795600" lon="-0.6758800">
        <ele>313.2</ele>
        <time>2018-04-28T06:44:20Z</time>
      </trkpt>
      <trkpt lat="38.3795890" lon="-0.6758800">
        <ele>313.5</ele>
        <time>2018-04-28T06:44:21Z</time>
      </trkpt>
      <trkpt lat="38.3796200" lon="-0.6758790">
        <ele>313.8</ele>
        <time>2018-04-28T06:44:22Z</time>
      </trkpt>
      <trkpt lat="38.3796510" lon="-0.6758750">
        <ele>314.2</ele>
        <time>2018-04-28T06:44:23Z</time>
      </trkpt>
      <trkpt lat="38.3796840" lon="-0.6758700">
        <ele>314.5</ele>
        <time>2018-04-28T06:44:24Z</time>
      </trkpt>
      <trkpt lat="38.3797130" lon="-0.6758710">
        <ele>314.8</ele>
        <time>2018-04-28T06:44:25Z</time>
      </trkpt>
      <trkpt lat="38.3797420" lon="-0.6758700">
        <ele>315.1</ele>
        <time>2018-04-28T06:44:26Z</time>
      </trkpt>
      <trkpt lat="38.3797730" lon="-0.6758690">
        <ele>315.4</ele>
        <time>2018-04-28T06:44:27Z</time>
      </trkpt>
      <trkpt lat="38.3798060" lon="-0.6758680">
        <ele>315.8</ele>
        <time>2018-04-28T06:44:28Z</time>
      </trkpt>
      <trkpt lat="38.3798400" lon="-0.6758670">
        <ele>316.1</ele>
        <time>2018-04-28T06:44:29Z</time>
      </trkpt>
      <trkpt lat="38.3798770" lon="-0.6758670">
        <ele>316.5</ele>
        <time>2018-04-28T06:44:30Z</time>
      </trkpt>
      <trkpt lat="38.3799170" lon="-0.6758640">
        <ele>316.9</ele>
        <time>2018-04-28T06:44:31Z</time>
      </trkpt>
      <trkpt lat="38.3799550" lon="-0.6758610">
        <ele>317.2</ele>
        <time>2018-04-28T06:44:32Z</time>
      </trkpt>
      <trkpt lat="38.3799900" lon="-0.6758590">
        <ele>317.5</ele>
        <time>2018-04-28T06:44:33Z</time>
      </trkpt>
      <trkpt lat="38.3800230" lon="-0.6758550">
        <ele>317.9</ele>
        <time>2018-04-28T06:44:34Z</time>
      </trkpt>
      <trkpt lat="38.3800580" lon="-0.6758500">
        <ele>318.3</ele>
        <time>2018-04-28T06:44:35Z</time>
      </trkpt>
      <trkpt lat="38.3800920" lon="-0.6758440">
        <ele>318.6</ele>
        <time>2018-04-28T06:44:36Z</time>
      </trkpt>
      <trkpt lat="38.3801240" lon="-0.6758390">
        <ele>318.9</ele>
        <time>2018-04-28T06:44:37Z</time>
      </trkpt>
      <trkpt lat="38.3801570" lon="-0.6758360">
        <ele>319.1</ele>
        <time>2018-04-28T06:44:38Z</time>
      </trkpt>
      <trkpt lat="38.3801900" lon="-0.6758330">
        <ele>319.4</ele>
        <time>2018-04-28T06:44:39Z</time>
      </trkpt>
      <trkpt lat="38.3802240" lon="-0.6758290">
        <ele>319.6</ele>
        <time>2018-04-28T06:44:40Z</time>
      </trkpt>
      <trkpt lat="38.3802580" lon="-0.6758250">
        <ele>319.8</ele>
        <time>2018-04-28T06:44:41Z</time>
      </trkpt>
      <trkpt lat="38.3802930" lon="-0.6758200">
        <ele>320.1</ele>
        <time>2018-04-28T06:44:42Z</time>
      </trkpt>
      <trkpt lat="38.3803280" lon="-0.6758140">
        <ele>320.3</ele>
        <time>2018-04-28T06:44:43Z</time>
      </trkpt>
      <trkpt lat="38.3803630" lon="-0.6758090">
        <ele>320.6</ele>
        <time>2018-04-28T06:44:44Z</time>
      </trkpt>
      <trkpt lat="38.3803990" lon="-0.6758050">
        <ele>320.8</ele>
        <time>2018-04-28T06:44:45Z</time>
      </trkpt>
      <trkpt lat="38.3804330" lon="-0.6758010">
        <ele>321.1</ele>
        <time>2018-04-28T06:44:46Z</time>
      </trkpt>
      <trkpt lat="38.3804680" lon="-0.6757960">
        <ele>321.4</ele>
        <time>2018-04-28T06:44:47Z</time>
      </trkpt>
      <trkpt lat="38.3805030" lon="-0.6757920">
        <ele>321.6</ele>
        <time>2018-04-28T06:44:48Z</time>
      </trkpt>
      <trkpt lat="38.3805390" lon="-0.6757850">
        <ele>321.8</ele>
        <time>2018-04-28T06:44:49Z</time>
      </trkpt>
      <trkpt lat="38.3805750" lon="-0.6757750">
        <ele>322.0</ele>
        <time>2018-04-28T06:44:50Z</time>
      </trkpt>
      <trkpt lat="38.3806130" lon="-0.6757690">
        <ele>322.2</ele>
        <time>2018-04-28T06:44:51Z</time>
      </trkpt>
      <trkpt lat="38.3806490" lon="-0.6757620">
        <ele>322.4</ele>
        <time>2018-04-28T06:44:52Z</time>
      </trkpt>
      <trkpt lat="38.3806830" lon="-0.6757570">
        <ele>322.6</ele>
        <time>2018-04-28T06:44:53Z</time>
      </trkpt>
      <trkpt lat="38.3807160" lon="-0.6757520">
        <ele>322.7</ele>
        <time>2018-04-28T06:44:54Z</time>
      </trkpt>
      <trkpt lat="38.3807490" lon="-0.6757470">
        <ele>322.9</ele>
        <time>2018-04-28T06:44:55Z</time>
      </trkpt>
      <trkpt lat="38.3807800" lon="-0.6757420">
        <ele>323.1</ele>
        <time>2018-04-28T06:44:56Z</time>
      </trkpt>
      <trkpt lat="38.3808090" lon="-0.6757370">
        <ele>323.3</ele>
        <time>2018-04-28T06:44:57Z</time>
      </trkpt>
      <trkpt lat="38.3808370" lon="-0.6757310">
        <ele>323.5</ele>
        <time>2018-04-28T06:44:58Z</time>
      </trkpt>
      <trkpt lat="38.3808660" lon="-0.6757250">
        <ele>323.7</ele>
        <time>2018-04-28T06:44:59Z</time>
      </trkpt>
      <trkpt lat="38.3808950" lon="-0.6757180">
        <ele>323.9</ele>
        <time>2018-04-28T06:45:00Z</time>
      </trkpt>
      <trkpt lat="38.3809230" lon="-0.6757120">
        <ele>324.0</ele>
        <time>2018-04-28T06:45:01Z</time>
      </trkpt>
      <trkpt lat="38.3809510" lon="-0.6757080">
        <ele>324.0</ele>
        <time>2018-04-28T06:45:02Z</time>
      </trkpt>
      <trkpt lat="38.3809790" lon="-0.6757070">
        <ele>324.0</ele>
        <time>2018-04-28T06:45:03Z</time>
      </trkpt>
      <trkpt lat="38.3810060" lon="-0.6757040">
        <ele>323.9</ele>
        <time>2018-04-28T06:45:04Z</time>
      </trkpt>
      <trkpt lat="38.3810320" lon="-0.6757010">
        <ele>323.9</ele>
        <time>2018-04-28T06:45:05Z</time>
      </trkpt>
      <trkpt lat="38.3810590" lon="-0.6756970">
        <ele>323.9</ele>
        <time>2018-04-28T06:45:06Z</time>
      </trkpt>
      <trkpt lat="38.3810850" lon="-0.6757000">
        <ele>323.8</ele>
        <time>2018-04-28T06:45:07Z</time>
      </trkpt>
      <trkpt lat="38.3811140" lon="-0.6757010">
        <ele>323.8</ele>
        <time>2018-04-28T06:45:08Z</time>
      </trkpt>
      <trkpt lat="38.3811460" lon="-0.6757040">
        <ele>323.8</ele>
        <time>2018-04-28T06:45:09Z</time>
      </trkpt>
      <trkpt lat="38.3811760" lon="-0.6757070">
        <ele>323.7</ele>
        <time>2018-04-28T06:45:10Z</time>
      </trkpt>
      <trkpt lat="38.3812040" lon="-0.6757100">
        <ele>323.7</ele>
        <time>2018-04-28T06:45:11Z</time>
      </trkpt>
      <trkpt lat="38.3812350" lon="-0.6757140">
        <ele>323.6</ele>
        <time>2018-04-28T06:45:12Z</time>
      </trkpt>
      <trkpt lat="38.3812660" lon="-0.6757210">
        <ele>323.4</ele>
        <time>2018-04-28T06:45:13Z</time>
      </trkpt>
      <trkpt lat="38.3812950" lon="-0.6757350">
        <ele>323.4</ele>
        <time>2018-04-28T06:45:14Z</time>
      </trkpt>
      <trkpt lat="38.3813270" lon="-0.6757520">
        <ele>323.5</ele>
        <time>2018-04-28T06:45:15Z</time>
      </trkpt>
      <trkpt lat="38.3813620" lon="-0.6757720">
        <ele>323.5</ele>
        <time>2018-04-28T06:45:16Z</time>
      </trkpt>
      <trkpt lat="38.3814020" lon="-0.6757920">
        <ele>323.4</ele>
        <time>2018-04-28T06:45:17Z</time>
      </trkpt>
      <trkpt lat="38.3814520" lon="-0.6758150">
        <ele>323.2</ele>
        <time>2018-04-28T06:45:18Z</time>
      </trkpt>
      <trkpt lat="38.3815130" lon="-0.6758290">
        <ele>323.3</ele>
        <time>2018-04-28T06:45:19Z</time>
      </trkpt>
      <trkpt lat="38.3815810" lon="-0.6758410">
        <ele>323.3</ele>
        <time>2018-04-28T06:45:20Z</time>
      </trkpt>
      <trkpt lat="38.3816620" lon="-0.6758510">
        <ele>323.3</ele>
        <time>2018-04-28T06:45:21Z</time>
      </trkpt>
      <trkpt lat="38.3817490" lon="-0.6758640">
        <ele>322.7</ele>
        <time>2018-04-28T06:45:22Z</time>
      </trkpt>
      <trkpt lat="38.3818380" lon="-0.6758820">
        <ele>322.4</ele>
        <time>2018-04-28T06:45:23Z</time>
      </trkpt>
      <trkpt lat="38.3819420" lon="-0.6758940">
        <ele>322.1</ele>
        <time>2018-04-28T06:45:24Z</time>
      </trkpt>
      <trkpt lat="38.3820460" lon="-0.6759090">
        <ele>321.4</ele>
        <time>2018-04-28T06:45:25Z</time>
      </trkpt>
      <trkpt lat="38.3821470" lon="-0.6759280">
        <ele>320.2</ele>
        <time>2018-04-28T06:45:26Z</time>
      </trkpt>
      <trkpt lat="38.3822470" lon="-0.6759480">
        <ele>319.4</ele>
        <time>2018-04-28T06:45:27Z</time>
      </trkpt>
      <trkpt lat="38.3823440" lon="-0.6759860">
        <ele>318.5</ele>
        <time>2018-04-28T06:45:28Z</time>
      </trkpt>
      <trkpt lat="38.3824350" lon="-0.6760200">
        <ele>318.2</ele>
        <time>2018-04-28T06:45:29Z</time>
      </trkpt>
      <trkpt lat="38.3825270" lon="-0.6760570">
        <ele>317.4</ele>
        <time>2018-04-28T06:45:30Z</time>
      </trkpt>
      <trkpt lat="38.3826180" lon="-0.6761000">
        <ele>316.6</ele>
        <time>2018-04-28T06:45:31Z</time>
      </trkpt>
      <trkpt lat="38.3827080" lon="-0.6761370">
        <ele>315.8</ele>
        <time>2018-04-28T06:45:32Z</time>
      </trkpt>
      <trkpt lat="38.3827950" lon="-0.6761740">
        <ele>315.2</ele>
        <time>2018-04-28T06:45:33Z</time>
      </trkpt>
      <trkpt lat="38.3828890" lon="-0.6762030">
        <ele>314.2</ele>
        <time>2018-04-28T06:45:34Z</time>
      </trkpt>
      <trkpt lat="38.3829800" lon="-0.6762330">
        <ele>313.5</ele>
        <time>2018-04-28T06:45:35Z</time>
      </trkpt>
      <trkpt lat="38.3830720" lon="-0.6762640">
        <ele>312.9</ele>
        <time>2018-04-28T06:45:36Z</time>
      </trkpt>
      <trkpt lat="38.3831710" lon="-0.6762980">
        <ele>312.4</ele>
        <time>2018-04-28T06:45:37Z</time>
      </trkpt>
      <trkpt lat="38.3832690" lon="-0.6763360">
        <ele>311.6</ele>
        <time>2018-04-28T06:45:38Z</time>
      </trkpt>
      <trkpt lat="38.3833650" lon="-0.6763780">
        <ele>310.6</ele>
        <time>2018-04-28T06:45:39Z</time>
      </trkpt>
      <trkpt lat="38.3834630" lon="-0.6764210">
        <ele>310.1</ele>
        <time>2018-04-28T06:45:40Z</time>
      </trkpt>
      <trkpt lat="38.3835600" lon="-0.6764660">
        <ele>309.5</ele>
        <time>2018-04-28T06:45:41Z</time>
      </trkpt>
      <trkpt lat="38.3836560" lon="-0.6765130">
        <ele>308.7</ele>
        <time>2018-04-28T06:45:42Z</time>
      </trkpt>
      <trkpt lat="38.3837550" lon="-0.6765590">
        <ele>307.9</ele>
        <time>2018-04-28T06:45:43Z</time>
      </trkpt>
      <trkpt lat="38.3838520" lon="-0.6766070">
        <ele>307.2</ele>
        <time>2018-04-28T06:45:44Z</time>
      </trkpt>
      <trkpt lat="38.3839500" lon="-0.6766540">
        <ele>306.6</ele>
        <time>2018-04-28T06:45:45Z</time>
      </trkpt>
      <trkpt lat="38.3840490" lon="-0.6766970">
        <ele>305.9</ele>
        <time>2018-04-28T06:45:46Z</time>
      </trkpt>
      <trkpt lat="38.3841460" lon="-0.6767450">
        <ele>305.2</ele>
        <time>2018-04-28T06:45:47Z</time>
      </trkpt>
      <trkpt lat="38.3842350" lon="-0.6767990">
        <ele>304.7</ele>
        <time>2018-04-28T06:45:48Z</time>
      </trkpt>
      <trkpt lat="38.3843240" lon="-0.6768520">
        <ele>304.4</ele>
        <time>2018-04-28T06:45:49Z</time>
      </trkpt>
      <trkpt lat="38.3844040" lon="-0.6769050">
        <ele>304.2</ele>
        <time>2018-04-28T06:45:50Z</time>
      </trkpt>
      <trkpt lat="38.3844850" lon="-0.6769570">
        <ele>303.9</ele>
        <time>2018-04-28T06:45:51Z</time>
      </trkpt>
      <trkpt lat="38.3845640" lon="-0.6770010">
        <ele>303.6</ele>
        <time>2018-04-28T06:45:52Z</time>
      </trkpt>
      <trkpt lat="38.3846440" lon="-0.6770400">
        <ele>303.3</ele>
        <time>2018-04-28T06:45:53Z</time>
      </trkpt>
      <trkpt lat="38.3847240" lon="-0.6770720">
        <ele>302.8</ele>
        <time>2018-04-28T06:45:54Z</time>
      </trkpt>
      <trkpt lat="38.3848110" lon="-0.6770950">
        <ele>302.1</ele>
        <time>2018-04-28T06:45:55Z</time>
      </trkpt>
      <trkpt lat="38.3848980" lon="-0.6771070">
        <ele>301.3</ele>
        <time>2018-04-28T06:45:56Z</time>
      </trkpt>
      <trkpt lat="38.3849830" lon="-0.6771170">
        <ele>300.7</ele>
        <time>2018-04-28T06:45:57Z</time>
      </trkpt>
      <trkpt lat="38.3850730" lon="-0.6770840">
        <ele>300.1</ele>
        <time>2018-04-28T06:45:58Z</time>
      </trkpt>
      <trkpt lat="38.3851510" lon="-0.6770120">
        <ele>299.6</ele>
        <time>2018-04-28T06:45:59Z</time>
      </trkpt>
      <trkpt lat="38.3852220" lon="-0.6769510">
        <ele>299.3</ele>
        <time>2018-04-28T06:46:00Z</time>
      </trkpt>
      <trkpt lat="38.3852830" lon="-0.6768750">
        <ele>298.9</ele>
        <time>2018-04-28T06:46:01Z</time>
      </trkpt>
      <trkpt lat="38.3853430" lon="-0.6768030">
        <ele>298.5</ele>
        <time>2018-04-28T06:46:02Z</time>
      </trkpt>
      <trkpt lat="38.3854020" lon="-0.6767340">
        <ele>298.3</ele>
        <time>2018-04-28T06:46:03Z</time>
      </trkpt>
      <trkpt lat="38.3854590" lon="-0.6766690">
        <ele>298.0</ele>
        <time>2018-04-28T06:46:04Z</time>
      </trkpt>
      <trkpt lat="38.3855170" lon="-0.6766090">
        <ele>297.6</ele>
        <time>2018-04-28T06:46:05Z</time>
      </trkpt>
      <trkpt lat="38.3855760" lon="-0.6765540">
        <ele>297.3</ele>
        <time>2018-04-28T06:46:06Z</time>
      </trkpt>
      <trkpt lat="38.3856350" lon="-0.6765090">
        <ele>296.7</ele>
        <time>2018-04-28T06:46:07Z</time>
      </trkpt>
      <trkpt lat="38.3856950" lon="-0.6764870">
        <ele>296.3</ele>
        <time>2018-04-28T06:46:08Z</time>
      </trkpt>
      <trkpt lat="38.3857580" lon="-0.6764810">
        <ele>295.8</ele>
        <time>2018-04-28T06:46:09Z</time>
      </trkpt>
      <trkpt lat="38.3858240" lon="-0.6765020">
        <ele>295.1</ele>
        <time>2018-04-28T06:46:10Z</time>
      </trkpt>
      <trkpt lat="38.3858740" lon="-0.6765460">
        <ele>294.6</ele>
        <time>2018-04-28T06:46:11Z</time>
      </trkpt>
      <trkpt lat="38.3859250" lon="-0.6766020">
        <ele>294.4</ele>
        <time>2018-04-28T06:46:12Z</time>
      </trkpt>
      <trkpt lat="38.3859720" lon="-0.6766680">
        <ele>294.1</ele>
        <time>2018-04-28T06:46:13Z</time>
      </trkpt>
      <trkpt lat="38.3860160" lon="-0.6767400">
        <ele>293.8</ele>
        <time>2018-04-28T06:46:14Z</time>
      </trkpt>
      <trkpt lat="38.3860580" lon="-0.6768230">
        <ele>293.6</ele>
        <time>2018-04-28T06:46:15Z</time>
      </trkpt>
      <trkpt lat="38.3861010" lon="-0.6769090">
        <ele>293.3</ele>
        <time>2018-04-28T06:46:16Z</time>
      </trkpt>
      <trkpt lat="38.3861460" lon="-0.6769960">
        <ele>293.1</ele>
        <time>2018-04-28T06:46:17Z</time>
      </trkpt>
      <trkpt lat="38.3861910" lon="-0.6770840">
        <ele>292.8</ele>
        <time>2018-04-28T06:46:18Z</time>
      </trkpt>
      <trkpt lat="38.3862400" lon="-0.6771780">
        <ele>292.6</ele>
        <time>2018-04-28T06:46:19Z</time>
      </trkpt>
      <trkpt lat="38.3862910" lon="-0.6772780">
        <ele>292.4</ele>
        <time>2018-04-28T06:46:20Z</time>
      </trkpt>
      <trkpt lat="38.3863420" lon="-0.6773780">
        <ele>292.4</ele>
        <time>2018-04-28T06:46:21Z</time>
      </trkpt>
      <trkpt lat="38.3863960" lon="-0.6774770">
        <ele>292.3</ele>
        <time>2018-04-28T06:46:22Z</time>
      </trkpt>
      <trkpt lat="38.3864530" lon="-0.6775750">
        <ele>292.2</ele>
        <time>2018-04-28T06:46:23Z</time>
      </trkpt>
      <trkpt lat="38.3865120" lon="-0.6776730">
        <ele>292.1</ele>
        <time>2018-04-28T06:46:24Z</time>
      </trkpt>
      <trkpt lat="38.3865660" lon="-0.6777730">
        <ele>292.1</ele>
        <time>2018-04-28T06:46:25Z</time>
      </trkpt>
      <trkpt lat="38.3866090" lon="-0.6778750">
        <ele>292.0</ele>
        <time>2018-04-28T06:46:26Z</time>
      </trkpt>
      <trkpt lat="38.3866380" lon="-0.6779770">
        <ele>292.0</ele>
        <time>2018-04-28T06:46:27Z</time>
      </trkpt>
      <trkpt lat="38.3866630" lon="-0.6780830">
        <ele>292.1</ele>
        <time>2018-04-28T06:46:28Z</time>
      </trkpt>
      <trkpt lat="38.3866790" lon="-0.6781880">
        <ele>292.1</ele>
        <time>2018-04-28T06:46:29Z</time>
      </trkpt>
      <trkpt lat="38.3866940" lon="-0.6782920">
        <ele>292.1</ele>
        <time>2018-04-28T06:46:30Z</time>
      </trkpt>
      <trkpt lat="38.3867040" lon="-0.6783960">
        <ele>292.2</ele>
        <time>2018-04-28T06:46:31Z</time>
      </trkpt>
      <trkpt lat="38.3867170" lon="-0.6785010">
        <ele>292.2</ele>
        <time>2018-04-28T06:46:32Z</time>
      </trkpt>
      <trkpt lat="38.3867300" lon="-0.6786040">
        <ele>292.2</ele>
        <time>2018-04-28T06:46:33Z</time>
      </trkpt>
      <trkpt lat="38.3867410" lon="-0.6787070">
        <ele>292.2</ele>
        <time>2018-04-28T06:46:34Z</time>
      </trkpt>
      <trkpt lat="38.3867530" lon="-0.6788100">
        <ele>292.1</ele>
        <time>2018-04-28T06:46:35Z</time>
      </trkpt>
      <trkpt lat="38.3867630" lon="-0.6789110">
        <ele>292.1</ele>
        <time>2018-04-28T06:46:36Z</time>
      </trkpt>
      <trkpt lat="38.3867720" lon="-0.6790110">
        <ele>292.1</ele>
        <time>2018-04-28T06:46:37Z</time>
      </trkpt>
      <trkpt lat="38.3867780" lon="-0.6791090">
        <ele>292.0</ele>
        <time>2018-04-28T06:46:38Z</time>
      </trkpt>
      <trkpt lat="38.3867800" lon="-0.6792050">
        <ele>291.9</ele>
        <time>2018-04-28T06:46:39Z</time>
      </trkpt>
      <trkpt lat="38.3867800" lon="-0.6792980">
        <ele>291.8</ele>
        <time>2018-04-28T06:46:40Z</time>
      </trkpt>
      <trkpt lat="38.3867790" lon="-0.6793920">
        <ele>291.7</ele>
        <time>2018-04-28T06:46:41Z</time>
      </trkpt>
      <trkpt lat="38.3867680" lon="-0.6794830">
        <ele>291.5</ele>
        <time>2018-04-28T06:46:42Z</time>
      </trkpt>
      <trkpt lat="38.3867480" lon="-0.6795730">
        <ele>291.4</ele>
        <time>2018-04-28T06:46:43Z</time>
      </trkpt>
      <trkpt lat="38.3867260" lon="-0.6796650">
        <ele>291.3</ele>
        <time>2018-04-28T06:46:44Z</time>
      </trkpt>
      <trkpt lat="38.3866970" lon="-0.6797510">
        <ele>291.2</ele>
        <time>2018-04-28T06:46:45Z</time>
      </trkpt>
      <trkpt lat="38.3866650" lon="-0.6798390">
        <ele>291.1</ele>
        <time>2018-04-28T06:46:46Z</time>
      </trkpt>
      <trkpt lat="38.3866290" lon="-0.6799220">
        <ele>291.1</ele>
        <time>2018-04-28T06:46:47Z</time>
      </trkpt>
      <trkpt lat="38.3865890" lon="-0.6800020">
        <ele>291.0</ele>
        <time>2018-04-28T06:46:48Z</time>
      </trkpt>
      <trkpt lat="38.3865410" lon="-0.6800790">
        <ele>290.9</ele>
        <time>2018-04-28T06:46:49Z</time>
      </trkpt>
      <trkpt lat="38.3864900" lon="-0.6801500">
        <ele>290.9</ele>
        <time>2018-04-28T06:46:50Z</time>
      </trkpt>
      <trkpt lat="38.3864330" lon="-0.6802170">
        <ele>290.8</ele>
        <time>2018-04-28T06:46:51Z</time>
      </trkpt>
      <trkpt lat="38.3863780" lon="-0.6802830">
        <ele>290.8</ele>
        <time>2018-04-28T06:46:52Z</time>
      </trkpt>
      <trkpt lat="38.3863230" lon="-0.6803460">
        <ele>290.7</ele>
        <time>2018-04-28T06:46:53Z</time>
      </trkpt>
      <trkpt lat="38.3862660" lon="-0.6804070">
        <ele>290.6</ele>
        <time>2018-04-28T06:46:54Z</time>
      </trkpt>
      <trkpt lat="38.3862100" lon="-0.6804680">
        <ele>290.5</ele>
        <time>2018-04-28T06:46:55Z</time>
      </trkpt>
      <trkpt lat="38.3861530" lon="-0.6805300">
        <ele>290.4</ele>
        <time>2018-04-28T06:46:56Z</time>
      </trkpt>
      <trkpt lat="38.3860980" lon="-0.6805920">
        <ele>290.3</ele>
        <time>2018-04-28T06:46:57Z</time>
      </trkpt>
      <trkpt lat="38.3860430" lon="-0.6806590">
        <ele>290.2</ele>
        <time>2018-04-28T06:46:58Z</time>
      </trkpt>
      <trkpt lat="38.3859910" lon="-0.6807300">
        <ele>290.2</ele>
        <time>2018-04-28T06:46:59Z</time>
      </trkpt>
      <trkpt lat="38.3859410" lon="-0.6808050">
        <ele>289.9</ele>
        <time>2018-04-28T06:47:00Z</time>
      </trkpt>
      <trkpt lat="38.3858940" lon="-0.6808820">
        <ele>289.8</ele>
        <time>2018-04-28T06:47:01Z</time>
      </trkpt>
      <trkpt lat="38.3858470" lon="-0.6809620">
        <ele>289.7</ele>
        <time>2018-04-28T06:47:02Z</time>
      </trkpt>
      <trkpt lat="38.3858010" lon="-0.6810440">
        <ele>289.5</ele>
        <time>2018-04-28T06:47:03Z</time>
      </trkpt>
      <trkpt lat="38.3857570" lon="-0.6811270">
        <ele>289.4</ele>
        <time>2018-04-28T06:47:04Z</time>
      </trkpt>
      <trkpt lat="38.3857140" lon="-0.6812100">
        <ele>289.3</ele>
        <time>2018-04-28T06:47:05Z</time>
      </trkpt>
      <trkpt lat="38.3856740" lon="-0.6812950">
        <ele>289.0</ele>
        <time>2018-04-28T06:47:06Z</time>
      </trkpt>
      <trkpt lat="38.3856360" lon="-0.6813820">
        <ele>288.7</ele>
        <time>2018-04-28T06:47:07Z</time>
      </trkpt>
      <trkpt lat="38.3855990" lon="-0.6814700">
        <ele>288.5</ele>
        <time>2018-04-28T06:47:08Z</time>
      </trkpt>
      <trkpt lat="38.3855620" lon="-0.6815610">
        <ele>288.2</ele>
        <time>2018-04-28T06:47:09Z</time>
      </trkpt>
      <trkpt lat="38.3855260" lon="-0.6816530">
        <ele>287.9</ele>
        <time>2018-04-28T06:47:10Z</time>
      </trkpt>
      <trkpt lat="38.3854890" lon="-0.6817490">
        <ele>287.5</ele>
        <time>2018-04-28T06:47:11Z</time>
      </trkpt>
      <trkpt lat="38.3854520" lon="-0.6818460">
        <ele>287.3</ele>
        <time>2018-04-28T06:47:12Z</time>
      </trkpt>
      <trkpt lat="38.3854150" lon="-0.6819470">
        <ele>287.1</ele>
        <time>2018-04-28T06:47:13Z</time>
      </trkpt>
      <trkpt lat="38.3853780" lon="-0.6820500">
        <ele>286.9</ele>
        <time>2018-04-28T06:47:14Z</time>
      </trkpt>
      <trkpt lat="38.3853410" lon="-0.6821550">
        <ele>286.6</ele>
        <time>2018-04-28T06:47:15Z</time>
      </trkpt>
      <trkpt lat="38.3853030" lon="-0.6822590">
        <ele>286.2</ele>
        <time>2018-04-28T06:47:16Z</time>
      </trkpt>
      <trkpt lat="38.3852630" lon="-0.6823620">
        <ele>286.0</ele>
        <time>2018-04-28T06:47:17Z</time>
      </trkpt>
      <trkpt lat="38.3852200" lon="-0.6824630">
        <ele>285.7</ele>
        <time>2018-04-28T06:47:18Z</time>
      </trkpt>
      <trkpt lat="38.3851740" lon="-0.6825620">
        <ele>285.3</ele>
        <time>2018-04-28T06:47:19Z</time>
      </trkpt>
      <trkpt lat="38.3851250" lon="-0.6826560">
        <ele>284.8</ele>
        <time>2018-04-28T06:47:20Z</time>
      </trkpt>
      <trkpt lat="38.3850680" lon="-0.6827450">
        <ele>284.5</ele>
        <time>2018-04-28T06:47:21Z</time>
      </trkpt>
      <trkpt lat="38.3850070" lon="-0.6828310">
        <ele>284.2</ele>
        <time>2018-04-28T06:47:22Z</time>
      </trkpt>
      <trkpt lat="38.3849420" lon="-0.6829160">
        <ele>283.9</ele>
        <time>2018-04-28T06:47:23Z</time>
      </trkpt>
      <trkpt lat="38.3848730" lon="-0.6830000">
        <ele>283.6</ele>
        <time>2018-04-28T06:47:24Z</time>
      </trkpt>
      <trkpt lat="38.3848020" lon="-0.6830800">
        <ele>283.3</ele>
        <time>2018-04-28T06:47:25Z</time>
      </trkpt>
      <trkpt lat="38.3847320" lon="-0.6831600">
        <ele>283.0</ele>
        <time>2018-04-28T06:47:26Z</time>
      </trkpt>
      <trkpt lat="38.3846630" lon="-0.6832420">
        <ele>282.8</ele>
        <time>2018-04-28T06:47:27Z</time>
      </trkpt>
      <trkpt lat="38.3845950" lon="-0.6833230">
        <ele>282.6</ele>
        <time>2018-04-28T06:47:28Z</time>
      </trkpt>
      <trkpt lat="38.3845270" lon="-0.6834040">
        <ele>282.4</ele>
        <time>2018-04-28T06:47:29Z</time>
      </trkpt>
      <trkpt lat="38.3844590" lon="-0.6834830">
        <ele>282.2</ele>
        <time>2018-04-28T06:47:30Z</time>
      </trkpt>
      <trkpt lat="38.3843920" lon="-0.6835600">
        <ele>282.1</ele>
        <time>2018-04-28T06:47:31Z</time>
      </trkpt>
      <trkpt lat="38.3843240" lon="-0.6836360">
        <ele>282.0</ele>
        <time>2018-04-28T06:47:32Z</time>
      </trkpt>
      <trkpt lat="38.3842560" lon="-0.6837110">
        <ele>281.9</ele>
        <time>2018-04-28T06:47:33Z</time>
      </trkpt>
      <trkpt lat="38.3841850" lon="-0.6837790">
        <ele>281.8</ele>
        <time>2018-04-28T06:47:34Z</time>
      </trkpt>
      <trkpt lat="38.3841100" lon="-0.6838410">
        <ele>281.7</ele>
        <time>2018-04-28T06:47:35Z</time>
      </trkpt>
      <trkpt lat="38.3840340" lon="-0.6838980">
        <ele>281.6</ele>
        <time>2018-04-28T06:47:36Z</time>
      </trkpt>
      <trkpt lat="38.3839580" lon="-0.6839490">
        <ele>281.3</ele>
        <time>2018-04-28T06:47:37Z</time>
      </trkpt>
      <trkpt lat="38.3838810" lon="-0.6839970">
        <ele>281.0</ele>
        <time>2018-04-28T06:47:38Z</time>
      </trkpt>
      <trkpt lat="38.3838050" lon="-0.6840450">
        <ele>280.7</ele>
        <time>2018-04-28T06:47:39Z</time>
      </trkpt>
      <trkpt lat="38.3837300" lon="-0.6840890">
        <ele>280.4</ele>
        <time>2018-04-28T06:47:40Z</time>
      </trkpt>
      <trkpt lat="38.3836550" lon="-0.6841340">
        <ele>280.0</ele>
        <time>2018-04-28T06:47:41Z</time>
      </trkpt>
      <trkpt lat="38.3835790" lon="-0.6841790">
        <ele>279.6</ele>
        <time>2018-04-28T06:47:42Z</time>
      </trkpt>
      <trkpt lat="38.3835020" lon="-0.6842250">
        <ele>279.0</ele>
        <time>2018-04-28T06:47:43Z</time>
      </trkpt>
      <trkpt lat="38.3834210" lon="-0.6842730">
        <ele>278.5</ele>
        <time>2018-04-28T06:47:44Z</time>
      </trkpt>
      <trkpt lat="38.3833390" lon="-0.6843210">
        <ele>277.9</ele>
        <time>2018-04-28T06:47:45Z</time>
      </trkpt>
      <trkpt lat="38.3832550" lon="-0.6843740">
        <ele>277.4</ele>
        <time>2018-04-28T06:47:46Z</time>
      </trkpt>
      <trkpt lat="38.3831690" lon="-0.6844240">
        <ele>276.8</ele>
        <time>2018-04-28T06:47:47Z</time>
      </trkpt>
      <trkpt lat="38.3830800" lon="-0.6844750">
        <ele>276.3</ele>
        <time>2018-04-28T06:47:48Z</time>
      </trkpt>
      <trkpt lat="38.3829910" lon="-0.6845270">
        <ele>275.8</ele>
        <time>2018-04-28T06:47:49Z</time>
      </trkpt>
      <trkpt lat="38.3829000" lon="-0.6845760">
        <ele>275.2</ele>
        <time>2018-04-28T06:47:50Z</time>
      </trkpt>
      <trkpt lat="38.3828060" lon="-0.6846220">
        <ele>274.6</ele>
        <time>2018-04-28T06:47:51Z</time>
      </trkpt>
      <trkpt lat="38.3827100" lon="-0.6846670">
        <ele>274.2</ele>
        <time>2018-04-28T06:47:52Z</time>
      </trkpt>
      <trkpt lat="38.3826120" lon="-0.6847100">
        <ele>273.8</ele>
        <time>2018-04-28T06:47:53Z</time>
      </trkpt>
      <trkpt lat="38.3825140" lon="-0.6847510">
        <ele>273.5</ele>
        <time>2018-04-28T06:47:54Z</time>
      </trkpt>
      <trkpt lat="38.3824170" lon="-0.6847940">
        <ele>273.2</ele>
        <time>2018-04-28T06:47:55Z</time>
      </trkpt>
      <trkpt lat="38.3823200" lon="-0.6848370">
        <ele>272.9</ele>
        <time>2018-04-28T06:47:56Z</time>
      </trkpt>
      <trkpt lat="38.3822260" lon="-0.6848820">
        <ele>272.8</ele>
        <time>2018-04-28T06:47:57Z</time>
      </trkpt>
      <trkpt lat="38.3821330" lon="-0.6849220">
        <ele>272.7</ele>
        <time>2018-04-28T06:47:58Z</time>
      </trkpt>
      <trkpt lat="38.3820420" lon="-0.6849590">
        <ele>272.6</ele>
        <time>2018-04-28T06:47:59Z</time>
      </trkpt>
      <trkpt lat="38.3819520" lon="-0.6849950">
        <ele>272.5</ele>
        <time>2018-04-28T06:48:00Z</time>
      </trkpt>
      <trkpt lat="38.3818640" lon="-0.6850280">
        <ele>272.4</ele>
        <time>2018-04-28T06:48:01Z</time>
      </trkpt>
      <trkpt lat="38.3817770" lon="-0.6850600">
        <ele>272.3</ele>
        <time>2018-04-28T06:48:02Z</time>
      </trkpt>
      <trkpt lat="38.3816930" lon="-0.6850910">
        <ele>272.3</ele>
        <time>2018-04-28T06:48:03Z</time>
      </trkpt>
      <trkpt lat="38.3816090" lon="-0.6851240">
        <ele>272.2</ele>
        <time>2018-04-28T06:48:04Z</time>
      </trkpt>
      <trkpt lat="38.3815260" lon="-0.6851550">
        <ele>272.2</ele>
        <time>2018-04-28T06:48:05Z</time>
      </trkpt>
      <trkpt lat="38.3814450" lon="-0.6851870">
        <ele>272.2</ele>
        <time>2018-04-28T06:48:06Z</time>
      </trkpt>
      <trkpt lat="38.3813660" lon="-0.6852230">
        <ele>272.1</ele>
        <time>2018-04-28T06:48:07Z</time>
      </trkpt>
      <trkpt lat="38.3812900" lon="-0.6852600">
        <ele>272.1</ele>
        <time>2018-04-28T06:48:08Z</time>
      </trkpt>
      <trkpt lat="38.3812180" lon="-0.6853020">
        <ele>272.1</ele>
        <time>2018-04-28T06:48:09Z</time>
      </trkpt>
      <trkpt lat="38.3811490" lon="-0.6853490">
        <ele>272.0</ele>
        <time>2018-04-28T06:48:10Z</time>
      </trkpt>
      <trkpt lat="38.3810810" lon="-0.6853980">
        <ele>272.0</ele>
        <time>2018-04-28T06:48:11Z</time>
      </trkpt>
      <trkpt lat="38.3810150" lon="-0.6854490">
        <ele>271.9</ele>
        <time>2018-04-28T06:48:12Z</time>
      </trkpt>
      <trkpt lat="38.3809480" lon="-0.6854990">
        <ele>271.9</ele>
        <time>2018-04-28T06:48:13Z</time>
      </trkpt>
      <trkpt lat="38.3808820" lon="-0.6855510">
        <ele>271.9</ele>
        <time>2018-04-28T06:48:14Z</time>
      </trkpt>
      <trkpt lat="38.3808150" lon="-0.6856020">
        <ele>271.8</ele>
        <time>2018-04-28T06:48:15Z</time>
      </trkpt>
      <trkpt lat="38.3807470" lon="-0.6856520">
        <ele>271.8</ele>
        <time>2018-04-28T06:48:16Z</time>
      </trkpt>
      <trkpt lat="38.3806790" lon="-0.6857020">
        <ele>271.8</ele>
        <time>2018-04-28T06:48:17Z</time>
      </trkpt>
      <trkpt lat="38.3806120" lon="-0.6857530">
        <ele>271.7</ele>
        <time>2018-04-28T06:48:18Z</time>
      </trkpt>
      <trkpt lat="38.3805450" lon="-0.6858020">
        <ele>271.7</ele>
        <time>2018-04-28T06:48:19Z</time>
      </trkpt>
      <trkpt lat="38.3804790" lon="-0.6858500">
        <ele>271.7</ele>
        <time>2018-04-28T06:48:20Z</time>
      </trkpt>
      <trkpt lat="38.3804140" lon="-0.6858960">
        <ele>271.7</ele>
        <time>2018-04-28T06:48:21Z</time>
      </trkpt>
      <trkpt lat="38.3803480" lon="-0.6859410">
        <ele>271.6</ele>
        <time>2018-04-28T06:48:22Z</time>
      </trkpt>
      <trkpt lat="38.3802800" lon="-0.6859840">
        <ele>271.6</ele>
        <time>2018-04-28T06:48:23Z</time>
      </trkpt>
      <trkpt lat="38.3802130" lon="-0.6860260">
        <ele>271.5</ele>
        <time>2018-04-28T06:48:24Z</time>
      </trkpt>
      <trkpt lat="38.3801450" lon="-0.6860650">
        <ele>271.5</ele>
        <time>2018-04-28T06:48:25Z</time>
      </trkpt>
      <trkpt lat="38.3800770" lon="-0.6861040">
        <ele>271.4</ele>
        <time>2018-04-28T06:48:26Z</time>
      </trkpt>
      <trkpt lat="38.3800090" lon="-0.6861390">
        <ele>271.4</ele>
        <time>2018-04-28T06:48:27Z</time>
      </trkpt>
      <trkpt lat="38.3799410" lon="-0.6861720">
        <ele>271.3</ele>
        <time>2018-04-28T06:48:28Z</time>
      </trkpt>
      <trkpt lat="38.3798750" lon="-0.6862050">
        <ele>271.3</ele>
        <time>2018-04-28T06:48:29Z</time>
      </trkpt>
      <trkpt lat="38.3798080" lon="-0.6862400">
        <ele>271.2</ele>
        <time>2018-04-28T06:48:30Z</time>
      </trkpt>
      <trkpt lat="38.3797410" lon="-0.6862730">
        <ele>271.2</ele>
        <time>2018-04-28T06:48:31Z</time>
      </trkpt>
      <trkpt lat="38.3796740" lon="-0.6863030">
        <ele>271.1</ele>
        <time>2018-04-28T06:48:32Z</time>
      </trkpt>
      <trkpt lat="38.3796100" lon="-0.6863380">
        <ele>271.1</ele>
        <time>2018-04-28T06:48:33Z</time>
      </trkpt>
      <trkpt lat="38.3795480" lon="-0.6863820">
        <ele>271.0</ele>
        <time>2018-04-28T06:48:34Z</time>
      </trkpt>
      <trkpt lat="38.3794960" lon="-0.6864330">
        <ele>268.5</ele>
        <time>2018-04-28T06:48:35Z</time>
      </trkpt>
      <trkpt lat="38.3794490" lon="-0.6864950">
        <ele>266.0</ele>
        <time>2018-04-28T06:48:36Z</time>
      </trkpt>
      <trkpt lat="38.3793960" lon="-0.6865500">
        <ele>265.9</ele>
        <time>2018-04-28T06:48:37Z</time>
      </trkpt>
      <trkpt lat="38.3793370" lon="-0.6865940">
        <ele>265.8</ele>
        <time>2018-04-28T06:48:38Z</time>
      </trkpt>
      <trkpt lat="38.3792740" lon="-0.6866320">
        <ele>265.7</ele>
        <time>2018-04-28T06:48:39Z</time>
      </trkpt>
      <trkpt lat="38.3792070" lon="-0.6866680">
        <ele>265.6</ele>
        <time>2018-04-28T06:48:40Z</time>
      </trkpt>
      <trkpt lat="38.3791390" lon="-0.6867010">
        <ele>265.5</ele>
        <time>2018-04-28T06:48:41Z</time>
      </trkpt>
      <trkpt lat="38.3790700" lon="-0.6867300">
        <ele>265.4</ele>
        <time>2018-04-28T06:48:42Z</time>
      </trkpt>
      <trkpt lat="38.3790000" lon="-0.6867590">
        <ele>265.3</ele>
        <time>2018-04-28T06:48:43Z</time>
      </trkpt>
      <trkpt lat="38.3789300" lon="-0.6867830">
        <ele>265.0</ele>
        <time>2018-04-28T06:48:44Z</time>
      </trkpt>
      <trkpt lat="38.3788570" lon="-0.6868000">
        <ele>264.9</ele>
        <time>2018-04-28T06:48:45Z</time>
      </trkpt>
      <trkpt lat="38.3787850" lon="-0.6868110">
        <ele>264.7</ele>
        <time>2018-04-28T06:48:46Z</time>
      </trkpt>
      <trkpt lat="38.3787110" lon="-0.6868150">
        <ele>264.5</ele>
        <time>2018-04-28T06:48:47Z</time>
      </trkpt>
      <trkpt lat="38.3786350" lon="-0.6868100">
        <ele>264.3</ele>
        <time>2018-04-28T06:48:48Z</time>
      </trkpt>
      <trkpt lat="38.3785640" lon="-0.6867960">
        <ele>264.2</ele>
        <time>2018-04-28T06:48:49Z</time>
      </trkpt>
      <trkpt lat="38.3784930" lon="-0.6867780">
        <ele>264.1</ele>
        <time>2018-04-28T06:48:50Z</time>
      </trkpt>
      <trkpt lat="38.3784250" lon="-0.6867540">
        <ele>264.7</ele>
        <time>2018-04-28T06:48:51Z</time>
      </trkpt>
      <trkpt lat="38.3783560" lon="-0.6867290">
        <ele>267.7</ele>
        <time>2018-04-28T06:48:52Z</time>
      </trkpt>
      <trkpt lat="38.3782890" lon="-0.6866990">
        <ele>270.6</ele>
        <time>2018-04-28T06:48:53Z</time>
      </trkpt>
      <trkpt lat="38.3782210" lon="-0.6866680">
        <ele>271.8</ele>
        <time>2018-04-28T06:48:54Z</time>
      </trkpt>
      <trkpt lat="38.3781540" lon="-0.6866410">
        <ele>271.6</ele>
        <time>2018-04-28T06:48:55Z</time>
      </trkpt>
      <trkpt lat="38.3780870" lon="-0.6866160">
        <ele>271.3</ele>
        <time>2018-04-28T06:48:56Z</time>
      </trkpt>
      <trkpt lat="38.3780190" lon="-0.6866000">
        <ele>271.1</ele>
        <time>2018-04-28T06:48:57Z</time>
      </trkpt>
      <trkpt lat="38.3779480" lon="-0.6865950">
        <ele>271.0</ele>
        <time>2018-04-28T06:48:58Z</time>
      </trkpt>
      <trkpt lat="38.3778770" lon="-0.6865960">
        <ele>270.9</ele>
        <time>2018-04-28T06:48:59Z</time>
      </trkpt>
      <trkpt lat="38.3778010" lon="-0.6866110">
        <ele>270.8</ele>
        <time>2018-04-28T06:49:00Z</time>
      </trkpt>
      <trkpt lat="38.3777320" lon="-0.6866370">
        <ele>270.7</ele>
        <time>2018-04-28T06:49:01Z</time>
      </trkpt>
      <trkpt lat="38.3776690" lon="-0.6866710">
        <ele>270.5</ele>
        <time>2018-04-28T06:49:02Z</time>
      </trkpt>
      <trkpt lat="38.3776090" lon="-0.6867100">
        <ele>270.4</ele>
        <time>2018-04-28T06:49:03Z</time>
      </trkpt>
      <trkpt lat="38.3775520" lon="-0.6867480">
        <ele>270.3</ele>
        <time>2018-04-28T06:49:04Z</time>
      </trkpt>
      <trkpt lat="38.3774990" lon="-0.6867870">
        <ele>270.2</ele>
        <time>2018-04-28T06:49:05Z</time>
      </trkpt>
      <trkpt lat="38.3774470" lon="-0.6868260">
        <ele>270.1</ele>
        <time>2018-04-28T06:49:06Z</time>
      </trkpt>
      <trkpt lat="38.3773960" lon="-0.6868660">
        <ele>270.0</ele>
        <time>2018-04-28T06:49:07Z</time>
      </trkpt>
      <trkpt lat="38.3773480" lon="-0.6869110">
        <ele>269.9</ele>
        <time>2018-04-28T06:49:08Z</time>
      </trkpt>
      <trkpt lat="38.3773020" lon="-0.6869540">
        <ele>269.8</ele>
        <time>2018-04-28T06:49:09Z</time>
      </trkpt>
      <trkpt lat="38.3772650" lon="-0.6869980">
        <ele>269.6</ele>
        <time>2018-04-28T06:49:10Z</time>
      </trkpt>
      <trkpt lat="38.3772310" lon="-0.6870470">
        <ele>269.4</ele>
        <time>2018-04-28T06:49:11Z</time>
      </trkpt>
      <trkpt lat="38.3772060" lon="-0.6870930">
        <ele>269.2</ele>
        <time>2018-04-28T06:49:12Z</time>
      </trkpt>
      <trkpt lat="38.3771770" lon="-0.6871400">
        <ele>269.1</ele>
        <time>2018-04-28T06:49:13Z</time>
      </trkpt>
      <trkpt lat="38.3771460" lon="-0.6871860">
        <ele>269.0</ele>
        <time>2018-04-28T06:49:14Z</time>
      </trkpt>
      <trkpt lat="38.3771180" lon="-0.6872290">
        <ele>268.9</ele>
        <time>2018-04-28T06:49:15Z</time>
      </trkpt>
      <trkpt lat="38.3770910" lon="-0.6872760">
        <ele>268.8</ele>
        <time>2018-04-28T06:49:16Z</time>
      </trkpt>
      <trkpt lat="38.3770640" lon="-0.6873230">
        <ele>268.7</ele>
        <time>2018-04-28T06:49:17Z</time>
      </trkpt>
      <trkpt lat="38.3770370" lon="-0.6873670">
        <ele>268.6</ele>
        <time>2018-04-28T06:49:18Z</time>
      </trkpt>
      <trkpt lat="38.3770090" lon="-0.6874150">
        <ele>268.5</ele>
        <time>2018-04-28T06:49:19Z</time>
      </trkpt>
      <trkpt lat="38.3769830" lon="-0.6874650">
        <ele>268.4</ele>
        <time>2018-04-28T06:49:20Z</time>
      </trkpt>
      <trkpt lat="38.3769520" lon="-0.6875150">
        <ele>268.3</ele>
        <time>2018-04-28T06:49:21Z</time>
      </trkpt>
      <trkpt lat="38.3769220" lon="-0.6875650">
        <ele>268.2</ele>
        <time>2018-04-28T06:49:22Z</time>
      </trkpt>
      <trkpt lat="38.3768960" lon="-0.6876170">
        <ele>268.1</ele>
        <time>2018-04-28T06:49:23Z</time>
      </trkpt>
      <trkpt lat="38.3768660" lon="-0.6876720">
        <ele>268.0</ele>
        <time>2018-04-28T06:49:24Z</time>
      </trkpt>
      <trkpt lat="38.3768320" lon="-0.6877300">
        <ele>268.0</ele>
        <time>2018-04-28T06:49:25Z</time>
      </trkpt>
      <trkpt lat="38.3768010" lon="-0.6877860">
        <ele>268.0</ele>
        <time>2018-04-28T06:49:26Z</time>
      </trkpt>
      <trkpt lat="38.3767630" lon="-0.6878450">
        <ele>268.0</ele>
        <time>2018-04-28T06:49:27Z</time>
      </trkpt>
      <trkpt lat="38.3767250" lon="-0.6879090">
        <ele>267.9</ele>
        <time>2018-04-28T06:49:28Z</time>
      </trkpt>
      <trkpt lat="38.3766820" lon="-0.6879760">
        <ele>267.9</ele>
        <time>2018-04-28T06:49:29Z</time>
      </trkpt>
      <trkpt lat="38.3766400" lon="-0.6880500">
        <ele>267.8</ele>
        <time>2018-04-28T06:49:30Z</time>
      </trkpt>
      <trkpt lat="38.3766000" lon="-0.6881240">
        <ele>267.6</ele>
        <time>2018-04-28T06:49:31Z</time>
      </trkpt>
      <trkpt lat="38.3765550" lon="-0.6882000">
        <ele>267.4</ele>
        <time>2018-04-28T06:49:32Z</time>
      </trkpt>
      <trkpt lat="38.3765090" lon="-0.6882800">
        <ele>267.2</ele>
        <time>2018-04-28T06:49:33Z</time>
      </trkpt>
      <trkpt lat="38.3764620" lon="-0.6883630">
        <ele>267.0</ele>
        <time>2018-04-28T06:49:34Z</time>
      </trkpt>
      <trkpt lat="38.3764130" lon="-0.6884480">
        <ele>266.7</ele>
        <time>2018-04-28T06:49:35Z</time>
      </trkpt>
      <trkpt lat="38.3763630" lon="-0.6885340">
        <ele>266.5</ele>
        <time>2018-04-28T06:49:36Z</time>
      </trkpt>
      <trkpt lat="38.3763140" lon="-0.6886210">
        <ele>266.2</ele>
        <time>2018-04-28T06:49:37Z</time>
      </trkpt>
      <trkpt lat="38.3762640" lon="-0.6887090">
        <ele>265.9</ele>
        <time>2018-04-28T06:49:38Z</time>
      </trkpt>
      <trkpt lat="38.3762100" lon="-0.6887990">
        <ele>265.7</ele>
        <time>2018-04-28T06:49:39Z</time>
      </trkpt>
      <trkpt lat="38.3761540" lon="-0.6888860">
        <ele>265.5</ele>
        <time>2018-04-28T06:49:40Z</time>
      </trkpt>
      <trkpt lat="38.3760880" lon="-0.6889670">
        <ele>265.3</ele>
        <time>2018-04-28T06:49:41Z</time>
      </trkpt>
      <trkpt lat="38.3760140" lon="-0.6890450">
        <ele>265.1</ele>
        <time>2018-04-28T06:49:42Z</time>
      </trkpt>
      <trkpt lat="38.3759410" lon="-0.6891180">
        <ele>264.2</ele>
        <time>2018-04-28T06:49:43Z</time>
      </trkpt>
      <trkpt lat="38.3758630" lon="-0.6891790">
        <ele>262.5</ele>
        <time>2018-04-28T06:49:44Z</time>
      </trkpt>
      <trkpt lat="38.3757850" lon="-0.6892290">
        <ele>261.0</ele>
        <time>2018-04-28T06:49:45Z</time>
      </trkpt>
      <trkpt lat="38.3757060" lon="-0.6892710">
        <ele>259.4</ele>
        <time>2018-04-28T06:49:46Z</time>
      </trkpt>
      <trkpt lat="38.3756220" lon="-0.6893000">
        <ele>258.0</ele>
        <time>2018-04-28T06:49:47Z</time>
      </trkpt>
      <trkpt lat="38.3755400" lon="-0.6893310">
        <ele>258.2</ele>
        <time>2018-04-28T06:49:48Z</time>
      </trkpt>
      <trkpt lat="38.3754590" lon="-0.6893600">
        <ele>258.3</ele>
        <time>2018-04-28T06:49:49Z</time>
      </trkpt>
      <trkpt lat="38.3753760" lon="-0.6893880">
        <ele>258.4</ele>
        <time>2018-04-28T06:49:50Z</time>
      </trkpt>
      <trkpt lat="38.3752960" lon="-0.6894130">
        <ele>258.4</ele>
        <time>2018-04-28T06:49:51Z</time>
      </trkpt>
      <trkpt lat="38.3752190" lon="-0.6894370">
        <ele>258.5</ele>
        <time>2018-04-28T06:49:52Z</time>
      </trkpt>
      <trkpt lat="38.3751370" lon="-0.6894600">
        <ele>258.5</ele>
        <time>2018-04-28T06:49:53Z</time>
      </trkpt>
      <trkpt lat="38.3750580" lon="-0.6894810">
        <ele>258.6</ele>
        <time>2018-04-28T06:49:54Z</time>
      </trkpt>
      <trkpt lat="38.3749790" lon="-0.6894960">
        <ele>258.6</ele>
        <time>2018-04-28T06:49:55Z</time>
      </trkpt>
      <trkpt lat="38.3748990" lon="-0.6895080">
        <ele>258.6</ele>
        <time>2018-04-28T06:49:56Z</time>
      </trkpt>
      <trkpt lat="38.3748190" lon="-0.6895180">
        <ele>258.7</ele>
        <time>2018-04-28T06:49:57Z</time>
      </trkpt>
      <trkpt lat="38.3747390" lon="-0.6895230">
        <ele>258.7</ele>
        <time>2018-04-28T06:49:58Z</time>
      </trkpt>
      <trkpt lat="38.3746580" lon="-0.6895270">
        <ele>258.8</ele>
        <time>2018-04-28T06:49:59Z</time>
      </trkpt>
      <trkpt lat="38.3745780" lon="-0.6895320">
        <ele>258.8</ele>
        <time>2018-04-28T06:50:00Z</time>
      </trkpt>
      <trkpt lat="38.3744970" lon="-0.6895350">
        <ele>258.9</ele>
        <time>2018-04-28T06:50:01Z</time>
      </trkpt>
      <trkpt lat="38.3744170" lon="-0.6895390">
        <ele>258.9</ele>
        <time>2018-04-28T06:50:02Z</time>
      </trkpt>
      <trkpt lat="38.3743360" lon="-0.6895440">
        <ele>259.0</ele>
        <time>2018-04-28T06:50:03Z</time>
      </trkpt>
      <trkpt lat="38.3742550" lon="-0.6895520">
        <ele>259.0</ele>
        <time>2018-04-28T06:50:04Z</time>
      </trkpt>
      <trkpt lat="38.3741730" lon="-0.6895590">
        <ele>258.8</ele>
        <time>2018-04-28T06:50:05Z</time>
      </trkpt>
      <trkpt lat="38.3740900" lon="-0.6895650">
        <ele>258.7</ele>
        <time>2018-04-28T06:50:06Z</time>
      </trkpt>
      <trkpt lat="38.3740080" lon="-0.6895710">
        <ele>258.6</ele>
        <time>2018-04-28T06:50:07Z</time>
      </trkpt>
      <trkpt lat="38.3739260" lon="-0.6895760">
        <ele>258.5</ele>
        <time>2018-04-28T06:50:08Z</time>
      </trkpt>
      <trkpt lat="38.3738430" lon="-0.6895820">
        <ele>258.4</ele>
        <time>2018-04-28T06:50:09Z</time>
      </trkpt>
      <trkpt lat="38.3737620" lon="-0.6895860">
        <ele>258.3</ele>
        <time>2018-04-28T06:50:10Z</time>
      </trkpt>
      <trkpt lat="38.3736800" lon="-0.6895880">
        <ele>258.2</ele>
        <time>2018-04-28T06:50:11Z</time>
      </trkpt>
      <trkpt lat="38.3735990" lon="-0.6895870">
        <ele>258.1</ele>
        <time>2018-04-28T06:50:12Z</time>
      </trkpt>
      <trkpt lat="38.3735200" lon="-0.6895850">
        <ele>258.0</ele>
        <time>2018-04-28T06:50:13Z</time>
      </trkpt>
      <trkpt lat="38.3734400" lon="-0.6895810">
        <ele>257.6</ele>
        <time>2018-04-28T06:50:14Z</time>
      </trkpt>
      <trkpt lat="38.3733610" lon="-0.6895760">
        <ele>256.9</ele>
        <time>2018-04-28T06:50:15Z</time>
      </trkpt>
      <trkpt lat="38.3732820" lon="-0.6895670">
        <ele>256.1</ele>
        <time>2018-04-28T06:50:16Z</time>
      </trkpt>
      <trkpt lat="38.3732030" lon="-0.6895560">
        <ele>256.0</ele>
        <time>2018-04-28T06:50:17Z</time>
      </trkpt>
      <trkpt lat="38.3731250" lon="-0.6895420">
        <ele>255.9</ele>
        <time>2018-04-28T06:50:18Z</time>
      </trkpt>
      <trkpt lat="38.3730470" lon="-0.6895250">
        <ele>255.8</ele>
        <time>2018-04-28T06:50:19Z</time>
      </trkpt>
      <trkpt lat="38.3729700" lon="-0.6895080">
        <ele>255.8</ele>
        <time>2018-04-28T06:50:20Z</time>
      </trkpt>
      <trkpt lat="38.3728920" lon="-0.6894910">
        <ele>255.9</ele>
        <time>2018-04-28T06:50:21Z</time>
      </trkpt>
      <trkpt lat="38.3728140" lon="-0.6894760">
        <ele>256.0</ele>
        <time>2018-04-28T06:50:22Z</time>
      </trkpt>
      <trkpt lat="38.3727370" lon="-0.6894680">
        <ele>256.9</ele>
        <time>2018-04-28T06:50:23Z</time>
      </trkpt>
      <trkpt lat="38.3726580" lon="-0.6894670">
        <ele>258.9</ele>
        <time>2018-04-28T06:50:24Z</time>
      </trkpt>
      <trkpt lat="38.3725820" lon="-0.6894850">
        <ele>260.8</ele>
        <time>2018-04-28T06:50:25Z</time>
      </trkpt>
      <trkpt lat="38.3725110" lon="-0.6895170">
        <ele>262.7</ele>
        <time>2018-04-28T06:50:26Z</time>
      </trkpt>
      <trkpt lat="38.3724450" lon="-0.6895660">
        <ele>262.3</ele>
        <time>2018-04-28T06:50:27Z</time>
      </trkpt>
      <trkpt lat="38.3723890" lon="-0.6896250">
        <ele>261.5</ele>
        <time>2018-04-28T06:50:28Z</time>
      </trkpt>
      <trkpt lat="38.3723370" lon="-0.6896940">
        <ele>260.9</ele>
        <time>2018-04-28T06:50:29Z</time>
      </trkpt>
      <trkpt lat="38.3722970" lon="-0.6897620">
        <ele>260.6</ele>
        <time>2018-04-28T06:50:30Z</time>
      </trkpt>
      <trkpt lat="38.3722570" lon="-0.6898330">
        <ele>260.5</ele>
        <time>2018-04-28T06:50:31Z</time>
      </trkpt>
      <trkpt lat="38.3722180" lon="-0.6899060">
        <ele>260.4</ele>
        <time>2018-04-28T06:50:32Z</time>
      </trkpt>
      <trkpt lat="38.3721800" lon="-0.6899810">
        <ele>260.3</ele>
        <time>2018-04-28T06:50:33Z</time>
      </trkpt>
      <trkpt lat="38.3721440" lon="-0.6900570">
        <ele>260.2</ele>
        <time>2018-04-28T06:50:34Z</time>
      </trkpt>
      <trkpt lat="38.3721070" lon="-0.6901330">
        <ele>260.1</ele>
        <time>2018-04-28T06:50:35Z</time>
      </trkpt>
      <trkpt lat="38.3720710" lon="-0.6902110">
        <ele>260.0</ele>
        <time>2018-04-28T06:50:36Z</time>
      </trkpt>
      <trkpt lat="38.3720340" lon="-0.6902880">
        <ele>259.9</ele>
        <time>2018-04-28T06:50:37Z</time>
      </trkpt>
      <trkpt lat="38.3719980" lon="-0.6903650">
        <ele>259.8</ele>
        <time>2018-04-28T06:50:38Z</time>
      </trkpt>
      <trkpt lat="38.3719610" lon="-0.6904420">
        <ele>259.7</ele>
        <time>2018-04-28T06:50:39Z</time>
      </trkpt>
      <trkpt lat="38.3719240" lon="-0.6905200">
        <ele>259.6</ele>
        <time>2018-04-28T06:50:40Z</time>
      </trkpt>
      <trkpt lat="38.3718870" lon="-0.6905980">
        <ele>259.5</ele>
        <time>2018-04-28T06:50:41Z</time>
      </trkpt>
      <trkpt lat="38.3718480" lon="-0.6906740">
        <ele>259.5</ele>
        <time>2018-04-28T06:50:42Z</time>
      </trkpt>
      <trkpt lat="38.3718080" lon="-0.6907480">
        <ele>259.4</ele>
        <time>2018-04-28T06:50:43Z</time>
      </trkpt>
      <trkpt lat="38.3717640" lon="-0.6908210">
        <ele>259.3</ele>
        <time>2018-04-28T06:50:44Z</time>
      </trkpt>
      <trkpt lat="38.3717180" lon="-0.6908920">
        <ele>259.2</ele>
        <time>2018-04-28T06:50:45Z</time>
      </trkpt>
      <trkpt lat="38.3716720" lon="-0.6909640">
        <ele>259.1</ele>
        <time>2018-04-28T06:50:46Z</time>
      </trkpt>
      <trkpt lat="38.3716250" lon="-0.6910360">
        <ele>258.9</ele>
        <time>2018-04-28T06:50:47Z</time>
      </trkpt>
      <trkpt lat="38.3715760" lon="-0.6911090">
        <ele>258.8</ele>
        <time>2018-04-28T06:50:48Z</time>
      </trkpt>
      <trkpt lat="38.3715260" lon="-0.6911820">
        <ele>258.6</ele>
        <time>2018-04-28T06:50:49Z</time>
      </trkpt>
      <trkpt lat="38.3714750" lon="-0.6912570">
        <ele>258.5</ele>
        <time>2018-04-28T06:50:50Z</time>
      </trkpt>
      <trkpt lat="38.3714240" lon="-0.6913320">
        <ele>258.3</ele>
        <time>2018-04-28T06:50:51Z</time>
      </trkpt>
      <trkpt lat="38.3713720" lon="-0.6914060">
        <ele>257.9</ele>
        <time>2018-04-28T06:50:52Z</time>
      </trkpt>
      <trkpt lat="38.3713180" lon="-0.6914820">
        <ele>257.3</ele>
        <time>2018-04-28T06:50:53Z</time>
      </trkpt>
      <trkpt lat="38.3712630" lon="-0.6915590">
        <ele>256.7</ele>
        <time>2018-04-28T06:50:54Z</time>
      </trkpt>
      <trkpt lat="38.3712080" lon="-0.6916370">
        <ele>256.0</ele>
        <time>2018-04-28T06:50:55Z</time>
      </trkpt>
      <trkpt lat="38.3711530" lon="-0.6917160">
        <ele>255.6</ele>
        <time>2018-04-28T06:50:56Z</time>
      </trkpt>
      <trkpt lat="38.3710990" lon="-0.6917960">
        <ele>255.3</ele>
        <time>2018-04-28T06:50:57Z</time>
      </trkpt>
      <trkpt lat="38.3710430" lon="-0.6918770">
        <ele>254.9</ele>
        <time>2018-04-28T06:50:58Z</time>
      </trkpt>
      <trkpt lat="38.3709870" lon="-0.6919590">
        <ele>254.3</ele>
        <time>2018-04-28T06:50:59Z</time>
      </trkpt>
      <trkpt lat="38.3709300" lon="-0.6920410">
        <ele>253.7</ele>
        <time>2018-04-28T06:51:00Z</time>
      </trkpt>
      <trkpt lat="38.3708720" lon="-0.6921230">
        <ele>253.1</ele>
        <time>2018-04-28T06:51:01Z</time>
      </trkpt>
      <trkpt lat="38.3708130" lon="-0.6922070">
        <ele>252.5</ele>
        <time>2018-04-28T06:51:02Z</time>
      </trkpt>
      <trkpt lat="38.3707590" lon="-0.6922900">
        <ele>252.1</ele>
        <time>2018-04-28T06:51:03Z</time>
      </trkpt>
      <trkpt lat="38.3707040" lon="-0.6923730">
        <ele>251.9</ele>
        <time>2018-04-28T06:51:04Z</time>
      </trkpt>
      <trkpt lat="38.3706450" lon="-0.6924560">
        <ele>251.6</ele>
        <time>2018-04-28T06:51:05Z</time>
      </trkpt>
      <trkpt lat="38.3705870" lon="-0.6925420">
        <ele>251.3</ele>
        <time>2018-04-28T06:51:06Z</time>
      </trkpt>
      <trkpt lat="38.3705280" lon="-0.6926270">
        <ele>251.1</ele>
        <time>2018-04-28T06:51:07Z</time>
      </trkpt>
      <trkpt lat="38.3704700" lon="-0.6927110">
        <ele>250.6</ele>
        <time>2018-04-28T06:51:08Z</time>
      </trkpt>
      <trkpt lat="38.3704120" lon="-0.6927950">
        <ele>249.9</ele>
        <time>2018-04-28T06:51:09Z</time>
      </trkpt>
      <trkpt lat="38.3703530" lon="-0.6928790">
        <ele>249.2</ele>
        <time>2018-04-28T06:51:10Z</time>
      </trkpt>
      <trkpt lat="38.3702920" lon="-0.6929650">
        <ele>248.8</ele>
        <time>2018-04-28T06:51:11Z</time>
      </trkpt>
      <trkpt lat="38.3702320" lon="-0.6930510">
        <ele>248.5</ele>
        <time>2018-04-28T06:51:12Z</time>
      </trkpt>
      <trkpt lat="38.3701730" lon="-0.6931390">
        <ele>248.1</ele>
        <time>2018-04-28T06:51:13Z</time>
      </trkpt>
      <trkpt lat="38.3701120" lon="-0.6932280">
        <ele>247.8</ele>
        <time>2018-04-28T06:51:14Z</time>
      </trkpt>
      <trkpt lat="38.3700500" lon="-0.6933170">
        <ele>247.3</ele>
        <time>2018-04-28T06:51:15Z</time>
      </trkpt>
      <trkpt lat="38.3699880" lon="-0.6934070">
        <ele>246.6</ele>
        <time>2018-04-28T06:51:16Z</time>
      </trkpt>
      <trkpt lat="38.3699250" lon="-0.6934970">
        <ele>245.9</ele>
        <time>2018-04-28T06:51:17Z</time>
      </trkpt>
      <trkpt lat="38.3698610" lon="-0.6935880">
        <ele>245.2</ele>
        <time>2018-04-28T06:51:18Z</time>
      </trkpt>
      <trkpt lat="38.3697970" lon="-0.6936780">
        <ele>245.0</ele>
        <time>2018-04-28T06:51:19Z</time>
      </trkpt>
      <trkpt lat="38.3697330" lon="-0.6937670">
        <ele>244.9</ele>
        <time>2018-04-28T06:51:20Z</time>
      </trkpt>
      <trkpt lat="38.3696660" lon="-0.6938530">
        <ele>244.8</ele>
        <time>2018-04-28T06:51:21Z</time>
      </trkpt>
      <trkpt lat="38.3696000" lon="-0.6939410">
        <ele>244.6</ele>
        <time>2018-04-28T06:51:22Z</time>
      </trkpt>
      <trkpt lat="38.3695330" lon="-0.6940280">
        <ele>244.4</ele>
        <time>2018-04-28T06:51:23Z</time>
      </trkpt>
      <trkpt lat="38.3694650" lon="-0.6941130">
        <ele>244.1</ele>
        <time>2018-04-28T06:51:24Z</time>
      </trkpt>
      <trkpt lat="38.3693980" lon="-0.6941970">
        <ele>243.8</ele>
        <time>2018-04-28T06:51:25Z</time>
      </trkpt>
      <trkpt lat="38.3693290" lon="-0.6942790">
        <ele>243.5</ele>
        <time>2018-04-28T06:51:26Z</time>
      </trkpt>
      <trkpt lat="38.3692600" lon="-0.6943610">
        <ele>243.2</ele>
        <time>2018-04-28T06:51:27Z</time>
      </trkpt>
      <trkpt lat="38.3691910" lon="-0.6944420">
        <ele>242.9</ele>
        <time>2018-04-28T06:51:28Z</time>
      </trkpt>
      <trkpt lat="38.3691230" lon="-0.6945230">
        <ele>242.6</ele>
        <time>2018-04-28T06:51:29Z</time>
      </trkpt>
      <trkpt lat="38.3690540" lon="-0.6946020">
        <ele>242.3</ele>
        <time>2018-04-28T06:51:30Z</time>
      </trkpt>
      <trkpt lat="38.3689860" lon="-0.6946800">
        <ele>242.0</ele>
        <time>2018-04-28T06:51:31Z</time>
      </trkpt>
      <trkpt lat="38.3689180" lon="-0.6947600">
        <ele>241.8</ele>
        <time>2018-04-28T06:51:32Z</time>
      </trkpt>
      <trkpt lat="38.3688500" lon="-0.6948380">
        <ele>241.5</ele>
        <time>2018-04-28T06:51:33Z</time>
      </trkpt>
      <trkpt lat="38.3687820" lon="-0.6949170">
        <ele>241.2</ele>
        <time>2018-04-28T06:51:34Z</time>
      </trkpt>
      <trkpt lat="38.3687170" lon="-0.6949960">
        <ele>240.9</ele>
        <time>2018-04-28T06:51:35Z</time>
      </trkpt>
      <trkpt lat="38.3686500" lon="-0.6950750">
        <ele>240.6</ele>
        <time>2018-04-28T06:51:36Z</time>
      </trkpt>
      <trkpt lat="38.3685860" lon="-0.6951530">
        <ele>240.5</ele>
        <time>2018-04-28T06:51:37Z</time>
      </trkpt>
      <trkpt lat="38.3685270" lon="-0.6952300">
        <ele>240.4</ele>
        <time>2018-04-28T06:51:38Z</time>
      </trkpt>
      <trkpt lat="38.3684650" lon="-0.6953070">
        <ele>240.3</ele>
        <time>2018-04-28T06:51:39Z</time>
      </trkpt>
      <trkpt lat="38.3684050" lon="-0.6953840">
        <ele>240.2</ele>
        <time>2018-04-28T06:51:40Z</time>
      </trkpt>
      <trkpt lat="38.3683450" lon="-0.6954580">
        <ele>240.1</ele>
        <time>2018-04-28T06:51:41Z</time>
      </trkpt>
      <trkpt lat="38.3682870" lon="-0.6955320">
        <ele>240.0</ele>
        <time>2018-04-28T06:51:42Z</time>
      </trkpt>
      <trkpt lat="38.3682310" lon="-0.6956080">
        <ele>240.0</ele>
        <time>2018-04-28T06:51:43Z</time>
      </trkpt>
      <trkpt lat="38.3681740" lon="-0.6956830">
        <ele>240.0</ele>
        <time>2018-04-28T06:51:44Z</time>
      </trkpt>
      <trkpt lat="38.3681180" lon="-0.6957590">
        <ele>240.0</ele>
        <time>2018-04-28T06:51:45Z</time>
      </trkpt>
      <trkpt lat="38.3680640" lon="-0.6958370">
        <ele>240.0</ele>
        <time>2018-04-28T06:51:46Z</time>
      </trkpt>
      <trkpt lat="38.3680110" lon="-0.6959160">
        <ele>240.0</ele>
        <time>2018-04-28T06:51:47Z</time>
      </trkpt>
      <trkpt lat="38.3679610" lon="-0.6959950">
        <ele>240.0</ele>
        <time>2018-04-28T06:51:48Z</time>
      </trkpt>
      <trkpt lat="38.3679100" lon="-0.6960720">
        <ele>240.0</ele>
        <time>2018-04-28T06:51:49Z</time>
      </trkpt>
      <trkpt lat="38.3678590" lon="-0.6961500">
        <ele>240.0</ele>
        <time>2018-04-28T06:51:50Z</time>
      </trkpt>
      <trkpt lat="38.3678070" lon="-0.6962270">
        <ele>240.0</ele>
        <time>2018-04-28T06:51:51Z</time>
      </trkpt>
      <trkpt lat="38.3677560" lon="-0.6963020">
        <ele>240.0</ele>
        <time>2018-04-28T06:51:52Z</time>
      </trkpt>
      <trkpt lat="38.3677000" lon="-0.6963750">
        <ele>240.0</ele>
        <time>2018-04-28T06:51:53Z</time>
      </trkpt>
      <trkpt lat="38.3676460" lon="-0.6964510">
        <ele>239.9</ele>
        <time>2018-04-28T06:51:54Z</time>
      </trkpt>
      <trkpt lat="38.3675900" lon="-0.6965290">
        <ele>239.8</ele>
        <time>2018-04-28T06:51:55Z</time>
      </trkpt>
      <trkpt lat="38.3675340" lon="-0.6966060">
        <ele>239.7</ele>
        <time>2018-04-28T06:51:56Z</time>
      </trkpt>
      <trkpt lat="38.3674750" lon="-0.6966850">
        <ele>239.6</ele>
        <time>2018-04-28T06:51:57Z</time>
      </trkpt>
      <trkpt lat="38.3674160" lon="-0.6967650">
        <ele>239.5</ele>
        <time>2018-04-28T06:51:58Z</time>
      </trkpt>
      <trkpt lat="38.3673560" lon="-0.6968480">
        <ele>239.4</ele>
        <time>2018-04-28T06:51:59Z</time>
      </trkpt>
      <trkpt lat="38.3672940" lon="-0.6969350">
        <ele>239.1</ele>
        <time>2018-04-28T06:52:00Z</time>
      </trkpt>
      <trkpt lat="38.3672320" lon="-0.6970220">
        <ele>238.8</ele>
        <time>2018-04-28T06:52:01Z</time>
      </trkpt>
      <trkpt lat="38.3671680" lon="-0.6971100">
        <ele>238.3</ele>
        <time>2018-04-28T06:52:02Z</time>
      </trkpt>
      <trkpt lat="38.3671040" lon="-0.6971980">
        <ele>237.9</ele>
        <time>2018-04-28T06:52:03Z</time>
      </trkpt>
      <trkpt lat="38.3670390" lon="-0.6972880">
        <ele>237.7</ele>
        <time>2018-04-28T06:52:04Z</time>
      </trkpt>
      <trkpt lat="38.3669730" lon="-0.6973780">
        <ele>237.5</ele>
        <time>2018-04-28T06:52:05Z</time>
      </trkpt>
      <trkpt lat="38.3669060" lon="-0.6974680">
        <ele>237.2</ele>
        <time>2018-04-28T06:52:06Z</time>
      </trkpt>
      <trkpt lat="38.3668390" lon="-0.6975580">
        <ele>236.8</ele>
        <time>2018-04-28T06:52:07Z</time>
      </trkpt>
      <trkpt lat="38.3667720" lon="-0.6976460">
        <ele>236.5</ele>
        <time>2018-04-28T06:52:08Z</time>
      </trkpt>
      <trkpt lat="38.3667080" lon="-0.6977330">
        <ele>236.1</ele>
        <time>2018-04-28T06:52:09Z</time>
      </trkpt>
      <trkpt lat="38.3666440" lon="-0.6978200">
        <ele>235.7</ele>
        <time>2018-04-28T06:52:10Z</time>
      </trkpt>
      <trkpt lat="38.3665840" lon="-0.6979020">
        <ele>235.3</ele>
        <time>2018-04-28T06:52:11Z</time>
      </trkpt>
      <trkpt lat="38.3665260" lon="-0.6979820">
        <ele>234.9</ele>
        <time>2018-04-28T06:52:12Z</time>
      </trkpt>
      <trkpt lat="38.3664890" lon="-0.6980650">
        <ele>234.6</ele>
        <time>2018-04-28T06:52:13Z</time>
      </trkpt>
      <trkpt lat="38.3664630" lon="-0.6981610">
        <ele>234.3</ele>
        <time>2018-04-28T06:52:14Z</time>
      </trkpt>
      <trkpt lat="38.3664310" lon="-0.6982590">
        <ele>234.0</ele>
        <time>2018-04-28T06:52:15Z</time>
      </trkpt>
      <trkpt lat="38.3663950" lon="-0.6983570">
        <ele>233.8</ele>
        <time>2018-04-28T06:52:16Z</time>
      </trkpt>
      <trkpt lat="38.3663620" lon="-0.6984500">
        <ele>233.7</ele>
        <time>2018-04-28T06:52:17Z</time>
      </trkpt>
      <trkpt lat="38.3663370" lon="-0.6985470">
        <ele>233.6</ele>
        <time>2018-04-28T06:52:18Z</time>
      </trkpt>
      <trkpt lat="38.3663200" lon="-0.6986500">
        <ele>233.5</ele>
        <time>2018-04-28T06:52:19Z</time>
      </trkpt>
      <trkpt lat="38.3663040" lon="-0.6987510">
        <ele>233.5</ele>
        <time>2018-04-28T06:52:20Z</time>
      </trkpt>
      <trkpt lat="38.3662920" lon="-0.6988500">
        <ele>233.4</ele>
        <time>2018-04-28T06:52:21Z</time>
      </trkpt>
      <trkpt lat="38.3662910" lon="-0.6989510">
        <ele>233.3</ele>
        <time>2018-04-28T06:52:22Z</time>
      </trkpt>
      <trkpt lat="38.3662910" lon="-0.6990510">
        <ele>233.2</ele>
        <time>2018-04-28T06:52:23Z</time>
      </trkpt>
      <trkpt lat="38.3662950" lon="-0.6991500">
        <ele>233.1</ele>
        <time>2018-04-28T06:52:24Z</time>
      </trkpt>
      <trkpt lat="38.3663100" lon="-0.6992480">
        <ele>233.0</ele>
        <time>2018-04-28T06:52:25Z</time>
      </trkpt>
      <trkpt lat="38.3663410" lon="-0.6993380">
        <ele>233.1</ele>
        <time>2018-04-28T06:52:26Z</time>
      </trkpt>
      <trkpt lat="38.3663810" lon="-0.6994210">
        <ele>233.2</ele>
        <time>2018-04-28T06:52:27Z</time>
      </trkpt>
      <trkpt lat="38.3664280" lon="-0.6994910">
        <ele>233.3</ele>
        <time>2018-04-28T06:52:28Z</time>
      </trkpt>
      <trkpt lat="38.3664960" lon="-0.6995400">
        <ele>233.4</ele>
        <time>2018-04-28T06:52:29Z</time>
      </trkpt>
      <trkpt lat="38.3665660" lon="-0.6995650">
        <ele>233.6</ele>
        <time>2018-04-28T06:52:30Z</time>
      </trkpt>
      <trkpt lat="38.3666360" lon="-0.6995710">
        <ele>233.7</ele>
        <time>2018-04-28T06:52:31Z</time>
      </trkpt>
      <trkpt lat="38.3667070" lon="-0.6995590">
        <ele>233.8</ele>
        <time>2018-04-28T06:52:32Z</time>
      </trkpt>
      <trkpt lat="38.3667750" lon="-0.6995270">
        <ele>233.9</ele>
        <time>2018-04-28T06:52:33Z</time>
      </trkpt>
      <trkpt lat="38.3668380" lon="-0.6994670">
        <ele>233.8</ele>
        <time>2018-04-28T06:52:34Z</time>
      </trkpt>
      <trkpt lat="38.3668880" lon="-0.6993950">
        <ele>233.8</ele>
        <time>2018-04-28T06:52:35Z</time>
      </trkpt>
      <trkpt lat="38.3669190" lon="-0.6993150">
        <ele>233.8</ele>
        <time>2018-04-28T06:52:36Z</time>
      </trkpt>
      <trkpt lat="38.3669370" lon="-0.6992300">
        <ele>233.8</ele>
        <time>2018-04-28T06:52:37Z</time>
      </trkpt>
      <trkpt lat="38.3669280" lon="-0.6991460">
        <ele>233.9</ele>
        <time>2018-04-28T06:52:38Z</time>
      </trkpt>
      <trkpt lat="38.3669030" lon="-0.6990620">
        <ele>234.0</ele>
        <time>2018-04-28T06:52:39Z</time>
      </trkpt>
      <trkpt lat="38.3668850" lon="-0.6989770">
        <ele>234.1</ele>
        <time>2018-04-28T06:52:40Z</time>
      </trkpt>
      <trkpt lat="38.3668570" lon="-0.6988920">
        <ele>234.3</ele>
        <time>2018-04-28T06:52:41Z</time>
      </trkpt>
      <trkpt lat="38.3668310" lon="-0.6988070">
        <ele>234.6</ele>
        <time>2018-04-28T06:52:42Z</time>
      </trkpt>
      <trkpt lat="38.3668030" lon="-0.6987210">
        <ele>234.9</ele>
        <time>2018-04-28T06:52:43Z</time>
      </trkpt>
      <trkpt lat="38.3667770" lon="-0.6986370">
        <ele>235.2</ele>
        <time>2018-04-28T06:52:44Z</time>
      </trkpt>
      <trkpt lat="38.3667480" lon="-0.6985520">
        <ele>235.5</ele>
        <time>2018-04-28T06:52:45Z</time>
      </trkpt>
      <trkpt lat="38.3667180" lon="-0.6984650">
        <ele>235.7</ele>
        <time>2018-04-28T06:52:46Z</time>
      </trkpt>
      <trkpt lat="38.3666880" lon="-0.6983780">
        <ele>236.0</ele>
        <time>2018-04-28T06:52:47Z</time>
      </trkpt>
      <trkpt lat="38.3666610" lon="-0.6982850">
        <ele>236.2</ele>
        <time>2018-04-28T06:52:48Z</time>
      </trkpt>
      <trkpt lat="38.3666310" lon="-0.6981940">
        <ele>236.5</ele>
        <time>2018-04-28T06:52:49Z</time>
      </trkpt>
      <trkpt lat="38.3666050" lon="-0.6981020">
        <ele>236.8</ele>
        <time>2018-04-28T06:52:50Z</time>
      </trkpt>
      <trkpt lat="38.3665790" lon="-0.6980070">
        <ele>237.0</ele>
        <time>2018-04-28T06:52:51Z</time>
      </trkpt>
      <trkpt lat="38.3665540" lon="-0.6979150">
        <ele>237.3</ele>
        <time>2018-04-28T06:52:52Z</time>
      </trkpt>
      <trkpt lat="38.3665260" lon="-0.6978220">
        <ele>237.6</ele>
        <time>2018-04-28T06:52:53Z</time>
      </trkpt>
      <trkpt lat="38.3664930" lon="-0.6977310">
        <ele>237.8</ele>
        <time>2018-04-28T06:52:54Z</time>
      </trkpt>
      <trkpt lat="38.3664600" lon="-0.6976400">
        <ele>238.1</ele>
        <time>2018-04-28T06:52:55Z</time>
      </trkpt>
      <trkpt lat="38.3664280" lon="-0.6975470">
        <ele>238.2</ele>
        <time>2018-04-28T06:52:56Z</time>
      </trkpt>
      <trkpt lat="38.3663990" lon="-0.6974540">
        <ele>238.4</ele>
        <time>2018-04-28T06:52:57Z</time>
      </trkpt>
      <trkpt lat="38.3663750" lon="-0.6973620">
        <ele>238.6</ele>
        <time>2018-04-28T06:52:58Z</time>
      </trkpt>
      <trkpt lat="38.3663540" lon="-0.6972710">
        <ele>238.7</ele>
        <time>2018-04-28T06:52:59Z</time>
      </trkpt>
      <trkpt lat="38.3663290" lon="-0.6971840">
        <ele>238.8</ele>
        <time>2018-04-28T06:53:00Z</time>
      </trkpt>
      <trkpt lat="38.3662890" lon="-0.6971110">
        <ele>238.9</ele>
        <time>2018-04-28T06:53:01Z</time>
      </trkpt>
      <trkpt lat="38.3662410" lon="-0.6970520">
        <ele>239.0</ele>
        <time>2018-04-28T06:53:02Z</time>
      </trkpt>
      <trkpt lat="38.3661980" lon="-0.6969870">
        <ele>239.1</ele>
        <time>2018-04-28T06:53:03Z</time>
      </trkpt>
      <trkpt lat="38.3661720" lon="-0.6969100">
        <ele>239.2</ele>
        <time>2018-04-28T06:53:04Z</time>
      </trkpt>
      <trkpt lat="38.3661490" lon="-0.6968240">
        <ele>239.4</ele>
        <time>2018-04-28T06:53:05Z</time>
      </trkpt>
      <trkpt lat="38.3661230" lon="-0.6967390">
        <ele>239.6</ele>
        <time>2018-04-28T06:53:06Z</time>
      </trkpt>
      <trkpt lat="38.3660970" lon="-0.6966540">
        <ele>239.9</ele>
        <time>2018-04-28T06:53:07Z</time>
      </trkpt>
      <trkpt lat="38.3660730" lon="-0.6965670">
        <ele>240.0</ele>
        <time>2018-04-28T06:53:08Z</time>
      </trkpt>
      <trkpt lat="38.3660490" lon="-0.6964830">
        <ele>240.2</ele>
        <time>2018-04-28T06:53:09Z</time>
      </trkpt>
      <trkpt lat="38.3660310" lon="-0.6963990">
        <ele>240.3</ele>
        <time>2018-04-28T06:53:10Z</time>
      </trkpt>
      <trkpt lat="38.3660110" lon="-0.6963180">
        <ele>240.4</ele>
        <time>2018-04-28T06:53:11Z</time>
      </trkpt>
      <trkpt lat="38.3659910" lon="-0.6962420">
        <ele>240.6</ele>
        <time>2018-04-28T06:53:12Z</time>
      </trkpt>
      <trkpt lat="38.3659720" lon="-0.6961660">
        <ele>240.8</ele>
        <time>2018-04-28T06:53:13Z</time>
      </trkpt>
      <trkpt lat="38.3659540" lon="-0.6960860">
        <ele>240.9</ele>
        <time>2018-04-28T06:53:14Z</time>
      </trkpt>
      <trkpt lat="38.3659360" lon="-0.6960060">
        <ele>241.0</ele>
        <time>2018-04-28T06:53:15Z</time>
      </trkpt>
      <trkpt lat="38.3659150" lon="-0.6959240">
        <ele>241.1</ele>
        <time>2018-04-28T06:53:16Z</time>
      </trkpt>
      <trkpt lat="38.3658970" lon="-0.6958420">
        <ele>241.2</ele>
        <time>2018-04-28T06:53:17Z</time>
      </trkpt>
      <trkpt lat="38.3658800" lon="-0.6957600">
        <ele>241.4</ele>
        <time>2018-04-28T06:53:18Z</time>
      </trkpt>
      <trkpt lat="38.3658610" lon="-0.6956760">
        <ele>241.5</ele>
        <time>2018-04-28T06:53:19Z</time>
      </trkpt>
      <trkpt lat="38.3658420" lon="-0.6955940">
        <ele>241.6</ele>
        <time>2018-04-28T06:53:20Z</time>
      </trkpt>
      <trkpt lat="38.3658240" lon="-0.6955130">
        <ele>241.7</ele>
        <time>2018-04-28T06:53:21Z</time>
      </trkpt>
      <trkpt lat="38.3658050" lon="-0.6954320">
        <ele>241.8</ele>
        <time>2018-04-28T06:53:22Z</time>
      </trkpt>
      <trkpt lat="38.3657880" lon="-0.6953530">
        <ele>241.9</ele>
        <time>2018-04-28T06:53:23Z</time>
      </trkpt>
      <trkpt lat="38.3657680" lon="-0.6952770">
        <ele>242.0</ele>
        <time>2018-04-28T06:53:24Z</time>
      </trkpt>
      <trkpt lat="38.3657500" lon="-0.6952010">
        <ele>242.0</ele>
        <time>2018-04-28T06:53:25Z</time>
      </trkpt>
      <trkpt lat="38.3657320" lon="-0.6951230">
        <ele>242.1</ele>
        <time>2018-04-28T06:53:26Z</time>
      </trkpt>
      <trkpt lat="38.3657120" lon="-0.6950440">
        <ele>242.1</ele>
        <time>2018-04-28T06:53:27Z</time>
      </trkpt>
      <trkpt lat="38.3656920" lon="-0.6949650">
        <ele>242.1</ele>
        <time>2018-04-28T06:53:28Z</time>
      </trkpt>
      <trkpt lat="38.3656740" lon="-0.6948840">
        <ele>242.1</ele>
        <time>2018-04-28T06:53:29Z</time>
      </trkpt>
      <trkpt lat="38.3656540" lon="-0.6948000">
        <ele>242.2</ele>
        <time>2018-04-28T06:53:30Z</time>
      </trkpt>
      <trkpt lat="38.3656330" lon="-0.6947170">
        <ele>242.2</ele>
        <time>2018-04-28T06:53:31Z</time>
      </trkpt>
      <trkpt lat="38.3656130" lon="-0.6946350">
        <ele>242.2</ele>
        <time>2018-04-28T06:53:32Z</time>
      </trkpt>
      <trkpt lat="38.3655930" lon="-0.6945520">
        <ele>242.2</ele>
        <time>2018-04-28T06:53:33Z</time>
      </trkpt>
      <trkpt lat="38.3655720" lon="-0.6944670">
        <ele>242.2</ele>
        <time>2018-04-28T06:53:34Z</time>
      </trkpt>
      <trkpt lat="38.3655520" lon="-0.6943810">
        <ele>242.3</ele>
        <time>2018-04-28T06:53:35Z</time>
      </trkpt>
      <trkpt lat="38.3655320" lon="-0.6942970">
        <ele>242.3</ele>
        <time>2018-04-28T06:53:36Z</time>
      </trkpt>
      <trkpt lat="38.3655090" lon="-0.6942100">
        <ele>242.3</ele>
        <time>2018-04-28T06:53:37Z</time>
      </trkpt>
      <trkpt lat="38.3654930" lon="-0.6941220">
        <ele>242.3</ele>
        <time>2018-04-28T06:53:38Z</time>
      </trkpt>
      <trkpt lat="38.3654740" lon="-0.6940340">
        <ele>242.3</ele>
        <time>2018-04-28T06:53:39Z</time>
      </trkpt>
      <trkpt lat="38.3654560" lon="-0.6939460">
        <ele>242.3</ele>
        <time>2018-04-28T06:53:40Z</time>
      </trkpt>
      <trkpt lat="38.3654350" lon="-0.6938600">
        <ele>242.3</ele>
        <time>2018-04-28T06:53:41Z</time>
      </trkpt>
      <trkpt lat="38.3654130" lon="-0.6937740">
        <ele>242.4</ele>
        <time>2018-04-28T06:53:42Z</time>
      </trkpt>
      <trkpt lat="38.3653930" lon="-0.6936870">
        <ele>242.5</ele>
        <time>2018-04-28T06:53:43Z</time>
      </trkpt>
      <trkpt lat="38.3653710" lon="-0.6936030">
        <ele>242.5</ele>
        <time>2018-04-28T06:53:44Z</time>
      </trkpt>
      <trkpt lat="38.3653540" lon="-0.6935180">
        <ele>242.6</ele>
        <time>2018-04-28T06:53:45Z</time>
      </trkpt>
      <trkpt lat="38.3653340" lon="-0.6934370">
        <ele>242.7</ele>
        <time>2018-04-28T06:53:46Z</time>
      </trkpt>
      <trkpt lat="38.3653130" lon="-0.6933560">
        <ele>242.8</ele>
        <time>2018-04-28T06:53:47Z</time>
      </trkpt>
      <trkpt lat="38.3652940" lon="-0.6932740">
        <ele>242.9</ele>
        <time>2018-04-28T06:53:48Z</time>
      </trkpt>
      <trkpt lat="38.3652740" lon="-0.6931920">
        <ele>243.0</ele>
        <time>2018-04-28T06:53:49Z</time>
      </trkpt>
      <trkpt lat="38.3652540" lon="-0.6931090">
        <ele>243.1</ele>
        <time>2018-04-28T06:53:50Z</time>
      </trkpt>
      <trkpt lat="38.3652350" lon="-0.6930240">
        <ele>243.2</ele>
        <time>2018-04-28T06:53:51Z</time>
      </trkpt>
      <trkpt lat="38.3652150" lon="-0.6929410">
        <ele>243.3</ele>
        <time>2018-04-28T06:53:52Z</time>
      </trkpt>
      <trkpt lat="38.3651930" lon="-0.6928570">
        <ele>243.4</ele>
        <time>2018-04-28T06:53:53Z</time>
      </trkpt>
      <trkpt lat="38.3651730" lon="-0.6927720">
        <ele>243.4</ele>
        <time>2018-04-28T06:53:54Z</time>
      </trkpt>
      <trkpt lat="38.3651510" lon="-0.6926880">
        <ele>243.5</ele>
        <time>2018-04-28T06:53:55Z</time>
      </trkpt>
      <trkpt lat="38.3651280" lon="-0.6926070">
        <ele>243.6</ele>
        <time>2018-04-28T06:53:56Z</time>
      </trkpt>
      <trkpt lat="38.3651020" lon="-0.6925300">
        <ele>243.7</ele>
        <time>2018-04-28T06:53:57Z</time>
      </trkpt>
      <trkpt lat="38.3650850" lon="-0.6924560">
        <ele>243.8</ele>
        <time>2018-04-28T06:53:58Z</time>
      </trkpt>
      <trkpt lat="38.3650620" lon="-0.6923800">
        <ele>244.0</ele>
        <time>2018-04-28T06:53:59Z</time>
      </trkpt>
      <trkpt lat="38.3650400" lon="-0.6922990">
        <ele>244.2</ele>
        <time>2018-04-28T06:54:00Z</time>
      </trkpt>
      <trkpt lat="38.3650170" lon="-0.6922160">
        <ele>244.3</ele>
        <time>2018-04-28T06:54:01Z</time>
      </trkpt>
      <trkpt lat="38.3649910" lon="-0.6921300">
        <ele>244.5</ele>
        <time>2018-04-28T06:54:02Z</time>
      </trkpt>
      <trkpt lat="38.3649640" lon="-0.6920460">
        <ele>244.6</ele>
        <time>2018-04-28T06:54:03Z</time>
      </trkpt>
      <trkpt lat="38.3649350" lon="-0.6919610">
        <ele>244.7</ele>
        <time>2018-04-28T06:54:04Z</time>
      </trkpt>
      <trkpt lat="38.3649060" lon="-0.6918760">
        <ele>244.9</ele>
        <time>2018-04-28T06:54:05Z</time>
      </trkpt>
      <trkpt lat="38.3648810" lon="-0.6917920">
        <ele>245.0</ele>
        <time>2018-04-28T06:54:06Z</time>
      </trkpt>
      <trkpt lat="38.3648530" lon="-0.6917090">
        <ele>245.2</ele>
        <time>2018-04-28T06:54:07Z</time>
      </trkpt>
      <trkpt lat="38.3648250" lon="-0.6916230">
        <ele>245.3</ele>
        <time>2018-04-28T06:54:08Z</time>
      </trkpt>
      <trkpt lat="38.3647950" lon="-0.6915420">
        <ele>245.5</ele>
        <time>2018-04-28T06:54:09Z</time>
      </trkpt>
      <trkpt lat="38.3647650" lon="-0.6914650">
        <ele>245.7</ele>
        <time>2018-04-28T06:54:10Z</time>
      </trkpt>
      <trkpt lat="38.3647310" lon="-0.6913890">
        <ele>245.9</ele>
        <time>2018-04-28T06:54:11Z</time>
      </trkpt>
      <trkpt lat="38.3646960" lon="-0.6913070">
        <ele>246.1</ele>
        <time>2018-04-28T06:54:12Z</time>
      </trkpt>
      <trkpt lat="38.3646640" lon="-0.6912270">
        <ele>246.5</ele>
        <time>2018-04-28T06:54:13Z</time>
      </trkpt>
      <trkpt lat="38.3646340" lon="-0.6911470">
        <ele>246.7</ele>
        <time>2018-04-28T06:54:14Z</time>
      </trkpt>
      <trkpt lat="38.3646050" lon="-0.6910650">
        <ele>247.0</ele>
        <time>2018-04-28T06:54:15Z</time>
      </trkpt>
      <trkpt lat="38.3645760" lon="-0.6909880">
        <ele>247.2</ele>
        <time>2018-04-28T06:54:16Z</time>
      </trkpt>
      <trkpt lat="38.3645400" lon="-0.6909170">
        <ele>247.4</ele>
        <time>2018-04-28T06:54:17Z</time>
      </trkpt>
      <trkpt lat="38.3645100" lon="-0.6908430">
        <ele>247.7</ele>
        <time>2018-04-28T06:54:18Z</time>
      </trkpt>
      <trkpt lat="38.3644790" lon="-0.6907660">
        <ele>248.0</ele>
        <time>2018-04-28T06:54:19Z</time>
      </trkpt>
      <trkpt lat="38.3644470" lon="-0.6906880">
        <ele>248.3</ele>
        <time>2018-04-28T06:54:20Z</time>
      </trkpt>
      <trkpt lat="38.3644160" lon="-0.6906090">
        <ele>248.5</ele>
        <time>2018-04-28T06:54:21Z</time>
      </trkpt>
      <trkpt lat="38.3643830" lon="-0.6905330">
        <ele>248.8</ele>
        <time>2018-04-28T06:54:22Z</time>
      </trkpt>
      <trkpt lat="38.3643520" lon="-0.6904590">
        <ele>249.0</ele>
        <time>2018-04-28T06:54:23Z</time>
      </trkpt>
      <trkpt lat="38.3643220" lon="-0.6903940">
        <ele>249.3</ele>
        <time>2018-04-28T06:54:24Z</time>
      </trkpt>
      <trkpt lat="38.3643010" lon="-0.6903370">
        <ele>249.5</ele>
        <time>2018-04-28T06:54:25Z</time>
      </trkpt>
      <trkpt lat="38.3642790" lon="-0.6902790">
        <ele>249.8</ele>
        <time>2018-04-28T06:54:26Z</time>
      </trkpt>
      <trkpt lat="38.3642580" lon="-0.6902180">
        <ele>250.0</ele>
        <time>2018-04-28T06:54:27Z</time>
      </trkpt>
      <trkpt lat="38.3642350" lon="-0.6901530">
        <ele>250.3</ele>
        <time>2018-04-28T06:54:28Z</time>
      </trkpt>
      <trkpt lat="38.3642120" lon="-0.6900880">
        <ele>250.7</ele>
        <time>2018-04-28T06:54:29Z</time>
      </trkpt>
      <trkpt lat="38.3641860" lon="-0.6900220">
        <ele>250.8</ele>
        <time>2018-04-28T06:54:30Z</time>
      </trkpt>
      <trkpt lat="38.3641600" lon="-0.6899550">
        <ele>251.0</ele>
        <time>2018-04-28T06:54:31Z</time>
      </trkpt>
      <trkpt lat="38.3641360" lon="-0.6898850">
        <ele>251.1</ele>
        <time>2018-04-28T06:54:32Z</time>
      </trkpt>
      <trkpt lat="38.3641110" lon="-0.6898160">
        <ele>251.3</ele>
        <time>2018-04-28T06:54:33Z</time>
      </trkpt>
      <trkpt lat="38.3640830" lon="-0.6897480">
        <ele>251.4</ele>
        <time>2018-04-28T06:54:34Z</time>
      </trkpt>
      <trkpt lat="38.3640550" lon="-0.6896800">
        <ele>251.5</ele>
        <time>2018-04-28T06:54:35Z</time>
      </trkpt>
      <trkpt lat="38.3640250" lon="-0.6896130">
        <ele>251.7</ele>
        <time>2018-04-28T06:54:36Z</time>
      </trkpt>
      <trkpt lat="38.3639980" lon="-0.6895470">
        <ele>252.0</ele>
        <time>2018-04-28T06:54:37Z</time>
      </trkpt>
      <trkpt lat="38.3639710" lon="-0.6894850">
        <ele>252.3</ele>
        <time>2018-04-28T06:54:38Z</time>
      </trkpt>
      <trkpt lat="38.3639480" lon="-0.6894230">
        <ele>252.4</ele>
        <time>2018-04-28T06:54:39Z</time>
      </trkpt>
      <trkpt lat="38.3639260" lon="-0.6893640">
        <ele>252.6</ele>
        <time>2018-04-28T06:54:40Z</time>
      </trkpt>
      <trkpt lat="38.3638980" lon="-0.6893140">
        <ele>252.8</ele>
        <time>2018-04-28T06:54:41Z</time>
      </trkpt>
      <trkpt lat="38.3638440" lon="-0.6892920">
        <ele>253.0</ele>
        <time>2018-04-28T06:54:42Z</time>
      </trkpt>
      <trkpt lat="38.3638100" lon="-0.6892910">
        <ele>253.0</ele>
        <time>2018-04-28T06:54:43Z</time>
      </trkpt>
      <trkpt lat="38.3637690" lon="-0.6893220">
        <ele>253.0</ele>
        <time>2018-04-28T06:54:44Z</time>
      </trkpt>
      <trkpt lat="38.3637260" lon="-0.6893450">
        <ele>253.0</ele>
        <time>2018-04-28T06:54:45Z</time>
      </trkpt>
      <trkpt lat="38.3636800" lon="-0.6893700">
        <ele>253.0</ele>
        <time>2018-04-28T06:54:46Z</time>
      </trkpt>
      <trkpt lat="38.3636340" lon="-0.6893970">
        <ele>253.0</ele>
        <time>2018-04-28T06:54:47Z</time>
      </trkpt>
      <trkpt lat="38.3635870" lon="-0.6894230">
        <ele>253.0</ele>
        <time>2018-04-28T06:54:48Z</time>
      </trkpt>
      <trkpt lat="38.3635360" lon="-0.6894480">
        <ele>253.0</ele>
        <time>2018-04-28T06:54:49Z</time>
      </trkpt>
      <trkpt lat="38.3634850" lon="-0.6894750">
        <ele>253.0</ele>
        <time>2018-04-28T06:54:50Z</time>
      </trkpt>
      <trkpt lat="38.3634330" lon="-0.6895040">
        <ele>253.0</ele>
        <time>2018-04-28T06:54:51Z</time>
      </trkpt>
      <trkpt lat="38.3633790" lon="-0.6895320">
        <ele>253.0</ele>
        <time>2018-04-28T06:54:52Z</time>
      </trkpt>
      <trkpt lat="38.3633250" lon="-0.6895630">
        <ele>253.0</ele>
        <time>2018-04-28T06:54:53Z</time>
      </trkpt>
      <trkpt lat="38.3632700" lon="-0.6895940">
        <ele>253.0</ele>
        <time>2018-04-28T06:54:54Z</time>
      </trkpt>
      <trkpt lat="38.3632140" lon="-0.6896250">
        <ele>253.0</ele>
        <time>2018-04-28T06:54:55Z</time>
      </trkpt>
      <trkpt lat="38.3631560" lon="-0.6896540">
        <ele>253.1</ele>
        <time>2018-04-28T06:54:56Z</time>
      </trkpt>
      <trkpt lat="38.3630980" lon="-0.6896850">
        <ele>253.1</ele>
        <time>2018-04-28T06:54:57Z</time>
      </trkpt>
      <trkpt lat="38.3630390" lon="-0.6897160">
        <ele>253.1</ele>
        <time>2018-04-28T06:54:58Z</time>
      </trkpt>
      <trkpt lat="38.3629800" lon="-0.6897450">
        <ele>253.1</ele>
        <time>2018-04-28T06:54:59Z</time>
      </trkpt>
      <trkpt lat="38.3629180" lon="-0.6897720">
        <ele>253.2</ele>
        <time>2018-04-28T06:55:00Z</time>
      </trkpt>
      <trkpt lat="38.3628560" lon="-0.6898040">
        <ele>253.2</ele>
        <time>2018-04-28T06:55:01Z</time>
      </trkpt>
      <trkpt lat="38.3627930" lon="-0.6898380">
        <ele>253.2</ele>
        <time>2018-04-28T06:55:02Z</time>
      </trkpt>
      <trkpt lat="38.3627300" lon="-0.6898710">
        <ele>253.3</ele>
        <time>2018-04-28T06:55:03Z</time>
      </trkpt>
      <trkpt lat="38.3626650" lon="-0.6899000">
        <ele>253.3</ele>
        <time>2018-04-28T06:55:04Z</time>
      </trkpt>
      <trkpt lat="38.3625990" lon="-0.6899280">
        <ele>253.4</ele>
        <time>2018-04-28T06:55:05Z</time>
      </trkpt>
      <trkpt lat="38.3625320" lon="-0.6899540">
        <ele>253.4</ele>
        <time>2018-04-28T06:55:06Z</time>
      </trkpt>
      <trkpt lat="38.3624650" lon="-0.6899790">
        <ele>253.4</ele>
        <time>2018-04-28T06:55:07Z</time>
      </trkpt>
      <trkpt lat="38.3623960" lon="-0.6900030">
        <ele>253.5</ele>
        <time>2018-04-28T06:55:08Z</time>
      </trkpt>
      <trkpt lat="38.3623280" lon="-0.6900250">
        <ele>253.5</ele>
        <time>2018-04-28T06:55:09Z</time>
      </trkpt>
      <trkpt lat="38.3622590" lon="-0.6900420">
        <ele>253.5</ele>
        <time>2018-04-28T06:55:10Z</time>
      </trkpt>
      <trkpt lat="38.3621900" lon="-0.6900570">
        <ele>253.5</ele>
        <time>2018-04-28T06:55:11Z</time>
      </trkpt>
      <trkpt lat="38.3621230" lon="-0.6900690">
        <ele>253.5</ele>
        <time>2018-04-28T06:55:12Z</time>
      </trkpt>
      <trkpt lat="38.3620550" lon="-0.6900800">
        <ele>253.6</ele>
        <time>2018-04-28T06:55:13Z</time>
      </trkpt>
      <trkpt lat="38.3619860" lon="-0.6900910">
        <ele>253.5</ele>
        <time>2018-04-28T06:55:14Z</time>
      </trkpt>
      <trkpt lat="38.3619190" lon="-0.6901000">
        <ele>253.5</ele>
        <time>2018-04-28T06:55:15Z</time>
      </trkpt>
      <trkpt lat="38.3618520" lon="-0.6901090">
        <ele>253.5</ele>
        <time>2018-04-28T06:55:16Z</time>
      </trkpt>
      <trkpt lat="38.3617850" lon="-0.6901210">
        <ele>253.5</ele>
        <time>2018-04-28T06:55:17Z</time>
      </trkpt>
      <trkpt lat="38.3617160" lon="-0.6901310">
        <ele>253.4</ele>
        <time>2018-04-28T06:55:18Z</time>
      </trkpt>
      <trkpt lat="38.3616440" lon="-0.6901380">
        <ele>253.4</ele>
        <time>2018-04-28T06:55:19Z</time>
      </trkpt>
      <trkpt lat="38.3615740" lon="-0.6901490">
        <ele>253.4</ele>
        <time>2018-04-28T06:55:20Z</time>
      </trkpt>
      <trkpt lat="38.3615030" lon="-0.6901590">
        <ele>253.3</ele>
        <time>2018-04-28T06:55:21Z</time>
      </trkpt>
      <trkpt lat="38.3614310" lon="-0.6901680">
        <ele>253.3</ele>
        <time>2018-04-28T06:55:22Z</time>
      </trkpt>
      <trkpt lat="38.3613570" lon="-0.6901810">
        <ele>253.2</ele>
        <time>2018-04-28T06:55:23Z</time>
      </trkpt>
      <trkpt lat="38.3612860" lon="-0.6902040">
        <ele>253.2</ele>
        <time>2018-04-28T06:55:24Z</time>
      </trkpt>
      <trkpt lat="38.3612160" lon="-0.6902360">
        <ele>253.2</ele>
        <time>2018-04-28T06:55:25Z</time>
      </trkpt>
      <trkpt lat="38.3611480" lon="-0.6902750">
        <ele>253.2</ele>
        <time>2018-04-28T06:55:26Z</time>
      </trkpt>
      <trkpt lat="38.3610810" lon="-0.6903180">
        <ele>253.2</ele>
        <time>2018-04-28T06:55:27Z</time>
      </trkpt>
      <trkpt lat="38.3610140" lon="-0.6903610">
        <ele>253.3</ele>
        <time>2018-04-28T06:55:28Z</time>
      </trkpt>
      <trkpt lat="38.3609480" lon="-0.6904070">
        <ele>253.3</ele>
        <time>2018-04-28T06:55:29Z</time>
      </trkpt>
      <trkpt lat="38.3608850" lon="-0.6904530">
        <ele>253.3</ele>
        <time>2018-04-28T06:55:30Z</time>
      </trkpt>
      <trkpt lat="38.3608220" lon="-0.6905000">
        <ele>253.4</ele>
        <time>2018-04-28T06:55:31Z</time>
      </trkpt>
      <trkpt lat="38.3607600" lon="-0.6905430">
        <ele>253.4</ele>
        <time>2018-04-28T06:55:32Z</time>
      </trkpt>
      <trkpt lat="38.3606970" lon="-0.6905850">
        <ele>253.4</ele>
        <time>2018-04-28T06:55:33Z</time>
      </trkpt>
      <trkpt lat="38.3606350" lon="-0.6906280">
        <ele>253.4</ele>
        <time>2018-04-28T06:55:34Z</time>
      </trkpt>
      <trkpt lat="38.3605710" lon="-0.6906680">
        <ele>253.4</ele>
        <time>2018-04-28T06:55:35Z</time>
      </trkpt>
      <trkpt lat="38.3605070" lon="-0.6907010">
        <ele>253.3</ele>
        <time>2018-04-28T06:55:36Z</time>
      </trkpt>
      <trkpt lat="38.3604430" lon="-0.6907260">
        <ele>253.3</ele>
        <time>2018-04-28T06:55:37Z</time>
      </trkpt>
      <trkpt lat="38.3603730" lon="-0.6907440">
        <ele>253.2</ele>
        <time>2018-04-28T06:55:38Z</time>
      </trkpt>
      <trkpt lat="38.3603020" lon="-0.6907620">
        <ele>253.2</ele>
        <time>2018-04-28T06:55:39Z</time>
      </trkpt>
      <trkpt lat="38.3602320" lon="-0.6907810">
        <ele>253.2</ele>
        <time>2018-04-28T06:55:40Z</time>
      </trkpt>
      <trkpt lat="38.3601630" lon="-0.6908020">
        <ele>253.1</ele>
        <time>2018-04-28T06:55:41Z</time>
      </trkpt>
      <trkpt lat="38.3600910" lon="-0.6908250">
        <ele>253.1</ele>
        <time>2018-04-28T06:55:42Z</time>
      </trkpt>
      <trkpt lat="38.3600210" lon="-0.6908500">
        <ele>253.0</ele>
        <time>2018-04-28T06:55:43Z</time>
      </trkpt>
      <trkpt lat="38.3599530" lon="-0.6908750">
        <ele>253.0</ele>
        <time>2018-04-28T06:55:44Z</time>
      </trkpt>
      <trkpt lat="38.3598860" lon="-0.6909020">
        <ele>253.0</ele>
        <time>2018-04-28T06:55:45Z</time>
      </trkpt>
      <trkpt lat="38.3598190" lon="-0.6909280">
        <ele>252.9</ele>
        <time>2018-04-28T06:55:46Z</time>
      </trkpt>
      <trkpt lat="38.3597500" lon="-0.6909540">
        <ele>252.9</ele>
        <time>2018-04-28T06:55:47Z</time>
      </trkpt>
      <trkpt lat="38.3596820" lon="-0.6909780">
        <ele>252.8</ele>
        <time>2018-04-28T06:55:48Z</time>
      </trkpt>
      <trkpt lat="38.3596140" lon="-0.6910000">
        <ele>252.8</ele>
        <time>2018-04-28T06:55:49Z</time>
      </trkpt>
      <trkpt lat="38.3595410" lon="-0.6910240">
        <ele>252.7</ele>
        <time>2018-04-28T06:55:50Z</time>
      </trkpt>
      <trkpt lat="38.3594680" lon="-0.6910430">
        <ele>252.7</ele>
        <time>2018-04-28T06:55:51Z</time>
      </trkpt>
      <trkpt lat="38.3593930" lon="-0.6910590">
        <ele>252.6</ele>
        <time>2018-04-28T06:55:52Z</time>
      </trkpt>
      <trkpt lat="38.3593150" lon="-0.6910710">
        <ele>252.5</ele>
        <time>2018-04-28T06:55:53Z</time>
      </trkpt>
      <trkpt lat="38.3592400" lon="-0.6910780">
        <ele>252.4</ele>
        <time>2018-04-28T06:55:54Z</time>
      </trkpt>
      <trkpt lat="38.3591630" lon="-0.6910830">
        <ele>252.4</ele>
        <time>2018-04-28T06:55:55Z</time>
      </trkpt>
      <trkpt lat="38.3590850" lon="-0.6910870">
        <ele>252.2</ele>
        <time>2018-04-28T06:55:56Z</time>
      </trkpt>
      <trkpt lat="38.3590080" lon="-0.6910880">
        <ele>252.2</ele>
        <time>2018-04-28T06:55:57Z</time>
      </trkpt>
      <trkpt lat="38.3589300" lon="-0.6910860">
        <ele>252.1</ele>
        <time>2018-04-28T06:55:58Z</time>
      </trkpt>
      <trkpt lat="38.3588520" lon="-0.6910850">
        <ele>252.0</ele>
        <time>2018-04-28T06:55:59Z</time>
      </trkpt>
      <trkpt lat="38.3587710" lon="-0.6910810">
        <ele>252.0</ele>
        <time>2018-04-28T06:56:00Z</time>
      </trkpt>
      <trkpt lat="38.3586930" lon="-0.6910800">
        <ele>251.9</ele>
        <time>2018-04-28T06:56:01Z</time>
      </trkpt>
      <trkpt lat="38.3586170" lon="-0.6910820">
        <ele>251.9</ele>
        <time>2018-04-28T06:56:02Z</time>
      </trkpt>
      <trkpt lat="38.3585430" lon="-0.6910870">
        <ele>251.9</ele>
        <time>2018-04-28T06:56:03Z</time>
      </trkpt>
      <trkpt lat="38.3584670" lon="-0.6910950">
        <ele>251.8</ele>
        <time>2018-04-28T06:56:04Z</time>
      </trkpt>
      <trkpt lat="38.3583910" lon="-0.6911030">
        <ele>251.8</ele>
        <time>2018-04-28T06:56:05Z</time>
      </trkpt>
      <trkpt lat="38.3583160" lon="-0.6911120">
        <ele>251.8</ele>
        <time>2018-04-28T06:56:06Z</time>
      </trkpt>
      <trkpt lat="38.3582430" lon="-0.6911220">
        <ele>251.8</ele>
        <time>2018-04-28T06:56:07Z</time>
      </trkpt>
      <trkpt lat="38.3581670" lon="-0.6911320">
        <ele>251.8</ele>
        <time>2018-04-28T06:56:08Z</time>
      </trkpt>
      <trkpt lat="38.3580940" lon="-0.6911420">
        <ele>251.8</ele>
        <time>2018-04-28T06:56:09Z</time>
      </trkpt>
      <trkpt lat="38.3580190" lon="-0.6911510">
        <ele>251.8</ele>
        <time>2018-04-28T06:56:10Z</time>
      </trkpt>
      <trkpt lat="38.3579440" lon="-0.6911610">
        <ele>251.7</ele>
        <time>2018-04-28T06:56:11Z</time>
      </trkpt>
      <trkpt lat="38.3578690" lon="-0.6911720">
        <ele>251.5</ele>
        <time>2018-04-28T06:56:12Z</time>
      </trkpt>
      <trkpt lat="38.3577940" lon="-0.6911860">
        <ele>251.4</ele>
        <time>2018-04-28T06:56:13Z</time>
      </trkpt>
      <trkpt lat="38.3577220" lon="-0.6912030">
        <ele>251.2</ele>
        <time>2018-04-28T06:56:14Z</time>
      </trkpt>
      <trkpt lat="38.3576490" lon="-0.6912220">
        <ele>251.1</ele>
        <time>2018-04-28T06:56:15Z</time>
      </trkpt>
      <trkpt lat="38.3575720" lon="-0.6912450">
        <ele>250.9</ele>
        <time>2018-04-28T06:56:16Z</time>
      </trkpt>
      <trkpt lat="38.3574950" lon="-0.6912730">
        <ele>250.7</ele>
        <time>2018-04-28T06:56:17Z</time>
      </trkpt>
      <trkpt lat="38.3574180" lon="-0.6913020">
        <ele>250.5</ele>
        <time>2018-04-28T06:56:18Z</time>
      </trkpt>
      <trkpt lat="38.3573390" lon="-0.6913270">
        <ele>250.3</ele>
        <time>2018-04-28T06:56:19Z</time>
      </trkpt>
      <trkpt lat="38.3572590" lon="-0.6913530">
        <ele>250.2</ele>
        <time>2018-04-28T06:56:20Z</time>
      </trkpt>
      <trkpt lat="38.3571800" lon="-0.6913810">
        <ele>250.2</ele>
        <time>2018-04-28T06:56:21Z</time>
      </trkpt>
      <trkpt lat="38.3571000" lon="-0.6914050">
        <ele>250.2</ele>
        <time>2018-04-28T06:56:22Z</time>
      </trkpt>
      <trkpt lat="38.3570190" lon="-0.6914270">
        <ele>250.1</ele>
        <time>2018-04-28T06:56:23Z</time>
      </trkpt>
      <trkpt lat="38.3569390" lon="-0.6914520">
        <ele>250.1</ele>
        <time>2018-04-28T06:56:24Z</time>
      </trkpt>
      <trkpt lat="38.3568580" lon="-0.6914790">
        <ele>250.1</ele>
        <time>2018-04-28T06:56:25Z</time>
      </trkpt>
      <trkpt lat="38.3567780" lon="-0.6915040">
        <ele>250.2</ele>
        <time>2018-04-28T06:56:26Z</time>
      </trkpt>
      <trkpt lat="38.3567020" lon="-0.6915280">
        <ele>250.2</ele>
        <time>2018-04-28T06:56:27Z</time>
      </trkpt>
      <trkpt lat="38.3566250" lon="-0.6915480">
        <ele>250.2</ele>
        <time>2018-04-28T06:56:28Z</time>
      </trkpt>
      <trkpt lat="38.3565490" lon="-0.6915670">
        <ele>250.1</ele>
        <time>2018-04-28T06:56:29Z</time>
      </trkpt>
      <trkpt lat="38.3564740" lon="-0.6915850">
        <ele>250.0</ele>
        <time>2018-04-28T06:56:30Z</time>
      </trkpt>
      <trkpt lat="38.3563990" lon="-0.6916010">
        <ele>249.9</ele>
        <time>2018-04-28T06:56:31Z</time>
      </trkpt>
      <trkpt lat="38.3563250" lon="-0.6916180">
        <ele>249.8</ele>
        <time>2018-04-28T06:56:32Z</time>
      </trkpt>
      <trkpt lat="38.3562490" lon="-0.6916380">
        <ele>249.7</ele>
        <time>2018-04-28T06:56:33Z</time>
      </trkpt>
      <trkpt lat="38.3561760" lon="-0.6916610">
        <ele>249.6</ele>
        <time>2018-04-28T06:56:34Z</time>
      </trkpt>
      <trkpt lat="38.3561010" lon="-0.6916880">
        <ele>249.5</ele>
        <time>2018-04-28T06:56:35Z</time>
      </trkpt>
      <trkpt lat="38.3560280" lon="-0.6917270">
        <ele>249.3</ele>
        <time>2018-04-28T06:56:36Z</time>
      </trkpt>
      <trkpt lat="38.3559560" lon="-0.6917690">
        <ele>249.1</ele>
        <time>2018-04-28T06:56:37Z</time>
      </trkpt>
      <trkpt lat="38.3558820" lon="-0.6918120">
        <ele>248.8</ele>
        <time>2018-04-28T06:56:38Z</time>
      </trkpt>
      <trkpt lat="38.3558090" lon="-0.6918540">
        <ele>248.6</ele>
        <time>2018-04-28T06:56:39Z</time>
      </trkpt>
      <trkpt lat="38.3557340" lon="-0.6918940">
        <ele>248.4</ele>
        <time>2018-04-28T06:56:40Z</time>
      </trkpt>
      <trkpt lat="38.3556580" lon="-0.6919320">
        <ele>248.3</ele>
        <time>2018-04-28T06:56:41Z</time>
      </trkpt>
      <trkpt lat="38.3555810" lon="-0.6919700">
        <ele>248.1</ele>
        <time>2018-04-28T06:56:42Z</time>
      </trkpt>
      <trkpt lat="38.3555040" lon="-0.6920070">
        <ele>248.0</ele>
        <time>2018-04-28T06:56:43Z</time>
      </trkpt>
      <trkpt lat="38.3554250" lon="-0.6920420">
        <ele>247.8</ele>
        <time>2018-04-28T06:56:44Z</time>
      </trkpt>
      <trkpt lat="38.3553460" lon="-0.6920740">
        <ele>247.7</ele>
        <time>2018-04-28T06:56:45Z</time>
      </trkpt>
      <trkpt lat="38.3552680" lon="-0.6921040">
        <ele>247.6</ele>
        <time>2018-04-28T06:56:46Z</time>
      </trkpt>
      <trkpt lat="38.3551880" lon="-0.6921300">
        <ele>247.5</ele>
        <time>2018-04-28T06:56:47Z</time>
      </trkpt>
      <trkpt lat="38.3551080" lon="-0.6921560">
        <ele>247.5</ele>
        <time>2018-04-28T06:56:48Z</time>
      </trkpt>
      <trkpt lat="38.3550280" lon="-0.6921830">
        <ele>247.4</ele>
        <time>2018-04-28T06:56:49Z</time>
      </trkpt>
      <trkpt lat="38.3549460" lon="-0.6922110">
        <ele>247.3</ele>
        <time>2018-04-28T06:56:50Z</time>
      </trkpt>
      <trkpt lat="38.3548630" lon="-0.6922420">
        <ele>247.2</ele>
        <time>2018-04-28T06:56:51Z</time>
      </trkpt>
      <trkpt lat="38.3547830" lon="-0.6922740">
        <ele>247.1</ele>
        <time>2018-04-28T06:56:52Z</time>
      </trkpt>
      <trkpt lat="38.3547040" lon="-0.6923080">
        <ele>247.0</ele>
        <time>2018-04-28T06:56:53Z</time>
      </trkpt>
      <trkpt lat="38.3546250" lon="-0.6923360">
        <ele>246.9</ele>
        <time>2018-04-28T06:56:54Z</time>
      </trkpt>
      <trkpt lat="38.3545470" lon="-0.6923570">
        <ele>246.8</ele>
        <time>2018-04-28T06:56:55Z</time>
      </trkpt>
      <trkpt lat="38.3544660" lon="-0.6923710">
        <ele>246.8</ele>
        <time>2018-04-28T06:56:56Z</time>
      </trkpt>
      <trkpt lat="38.3543860" lon="-0.6923770">
        <ele>246.8</ele>
        <time>2018-04-28T06:56:57Z</time>
      </trkpt>
      <trkpt lat="38.3543050" lon="-0.6923790">
        <ele>246.8</ele>
        <time>2018-04-28T06:56:58Z</time>
      </trkpt>
      <trkpt lat="38.3542250" lon="-0.6923740">
        <ele>246.8</ele>
        <time>2018-04-28T06:56:59Z</time>
      </trkpt>
      <trkpt lat="38.3541430" lon="-0.6923630">
        <ele>246.9</ele>
        <time>2018-04-28T06:57:00Z</time>
      </trkpt>
      <trkpt lat="38.3540620" lon="-0.6923510">
        <ele>246.9</ele>
        <time>2018-04-28T06:57:01Z</time>
      </trkpt>
      <trkpt lat="38.3539810" lon="-0.6923360">
        <ele>246.9</ele>
        <time>2018-04-28T06:57:02Z</time>
      </trkpt>
      <trkpt lat="38.3539020" lon="-0.6923200">
        <ele>247.0</ele>
        <time>2018-04-28T06:57:03Z</time>
      </trkpt>
      <trkpt lat="38.3538230" lon="-0.6923040">
        <ele>247.0</ele>
        <time>2018-04-28T06:57:04Z</time>
      </trkpt>
      <trkpt lat="38.3537410" lon="-0.6922890">
        <ele>247.1</ele>
        <time>2018-04-28T06:57:05Z</time>
      </trkpt>
      <trkpt lat="38.3536610" lon="-0.6922760">
        <ele>247.1</ele>
        <time>2018-04-28T06:57:06Z</time>
      </trkpt>
      <trkpt lat="38.3535830" lon="-0.6922660">
        <ele>247.2</ele>
        <time>2018-04-28T06:57:07Z</time>
      </trkpt>
      <trkpt lat="38.3535060" lon="-0.6922630">
        <ele>247.3</ele>
        <time>2018-04-28T06:57:08Z</time>
      </trkpt>
      <trkpt lat="38.3534310" lon="-0.6922610">
        <ele>247.4</ele>
        <time>2018-04-28T06:57:09Z</time>
      </trkpt>
      <trkpt lat="38.3533540" lon="-0.6922610">
        <ele>247.6</ele>
        <time>2018-04-28T06:57:10Z</time>
      </trkpt>
      <trkpt lat="38.3532790" lon="-0.6922620">
        <ele>247.7</ele>
        <time>2018-04-28T06:57:11Z</time>
      </trkpt>
      <trkpt lat="38.3532040" lon="-0.6922690">
        <ele>247.8</ele>
        <time>2018-04-28T06:57:12Z</time>
      </trkpt>
      <trkpt lat="38.3531310" lon="-0.6922760">
        <ele>247.9</ele>
        <time>2018-04-28T06:57:13Z</time>
      </trkpt>
      <trkpt lat="38.3530580" lon="-0.6922830">
        <ele>248.0</ele>
        <time>2018-04-28T06:57:14Z</time>
      </trkpt>
      <trkpt lat="38.3529860" lon="-0.6922900">
        <ele>248.1</ele>
        <time>2018-04-28T06:57:15Z</time>
      </trkpt>
      <trkpt lat="38.3529160" lon="-0.6922960">
        <ele>248.2</ele>
        <time>2018-04-28T06:57:16Z</time>
      </trkpt>
      <trkpt lat="38.3528460" lon="-0.6923000">
        <ele>248.5</ele>
        <time>2018-04-28T06:57:17Z</time>
      </trkpt>
      <trkpt lat="38.3527780" lon="-0.6923010">
        <ele>248.8</ele>
        <time>2018-04-28T06:57:18Z</time>
      </trkpt>
      <trkpt lat="38.3527100" lon="-0.6923030">
        <ele>248.9</ele>
        <time>2018-04-28T06:57:19Z</time>
      </trkpt>
      <trkpt lat="38.3526430" lon="-0.6923050">
        <ele>249.1</ele>
        <time>2018-04-28T06:57:20Z</time>
      </trkpt>
      <trkpt lat="38.3525730" lon="-0.6923080">
        <ele>249.3</ele>
        <time>2018-04-28T06:57:21Z</time>
      </trkpt>
      <trkpt lat="38.3525040" lon="-0.6923120">
        <ele>249.7</ele>
        <time>2018-04-28T06:57:22Z</time>
      </trkpt>
      <trkpt lat="38.3524360" lon="-0.6923160">
        <ele>249.9</ele>
        <time>2018-04-28T06:57:23Z</time>
      </trkpt>
      <trkpt lat="38.3523670" lon="-0.6923180">
        <ele>250.0</ele>
        <time>2018-04-28T06:57:24Z</time>
      </trkpt>
      <trkpt lat="38.3523010" lon="-0.6923180">
        <ele>250.2</ele>
        <time>2018-04-28T06:57:25Z</time>
      </trkpt>
      <trkpt lat="38.3522360" lon="-0.6923080">
        <ele>250.4</ele>
        <time>2018-04-28T06:57:26Z</time>
      </trkpt>
      <trkpt lat="38.3521710" lon="-0.6922920">
        <ele>250.6</ele>
        <time>2018-04-28T06:57:27Z</time>
      </trkpt>
      <trkpt lat="38.3521130" lon="-0.6922670">
        <ele>250.9</ele>
        <time>2018-04-28T06:57:28Z</time>
      </trkpt>
      <trkpt lat="38.3520580" lon="-0.6922350">
        <ele>251.1</ele>
        <time>2018-04-28T06:57:29Z</time>
      </trkpt>
      <trkpt lat="38.3520030" lon="-0.6922000">
        <ele>251.3</ele>
        <time>2018-04-28T06:57:30Z</time>
      </trkpt>
      <trkpt lat="38.3519500" lon="-0.6921670">
        <ele>251.4</ele>
        <time>2018-04-28T06:57:31Z</time>
      </trkpt>
      <trkpt lat="38.3518950" lon="-0.6921330">
        <ele>251.6</ele>
        <time>2018-04-28T06:57:32Z</time>
      </trkpt>
      <trkpt lat="38.3518410" lon="-0.6920970">
        <ele>251.7</ele>
        <time>2018-04-28T06:57:33Z</time>
      </trkpt>
      <trkpt lat="38.3517830" lon="-0.6920660">
        <ele>251.8</ele>
        <time>2018-04-28T06:57:34Z</time>
      </trkpt>
      <trkpt lat="38.3517260" lon="-0.6920410">
        <ele>252.0</ele>
        <time>2018-04-28T06:57:35Z</time>
      </trkpt>
      <trkpt lat="38.3516690" lon="-0.6920150">
        <ele>252.3</ele>
        <time>2018-04-28T06:57:36Z</time>
      </trkpt>
      <trkpt lat="38.3516120" lon="-0.6919890">
        <ele>252.5</ele>
        <time>2018-04-28T06:57:37Z</time>
      </trkpt>
      <trkpt lat="38.3515560" lon="-0.6919660">
        <ele>252.6</ele>
        <time>2018-04-28T06:57:38Z</time>
      </trkpt>
      <trkpt lat="38.3515000" lon="-0.6919470">
        <ele>252.8</ele>
        <time>2018-04-28T06:57:39Z</time>
      </trkpt>
      <trkpt lat="38.3514430" lon="-0.6919300">
        <ele>252.9</ele>
        <time>2018-04-28T06:57:40Z</time>
      </trkpt>
      <trkpt lat="38.3513860" lon="-0.6919120">
        <ele>253.0</ele>
        <time>2018-04-28T06:57:41Z</time>
      </trkpt>
      <trkpt lat="38.3513300" lon="-0.6918930">
        <ele>253.1</ele>
        <time>2018-04-28T06:57:42Z</time>
      </trkpt>
      <trkpt lat="38.3512740" lon="-0.6918750">
        <ele>253.2</ele>
        <time>2018-04-28T06:57:43Z</time>
      </trkpt>
      <trkpt lat="38.3512190" lon="-0.6918520">
        <ele>253.3</ele>
        <time>2018-04-28T06:57:44Z</time>
      </trkpt>
      <trkpt lat="38.3511640" lon="-0.6918330">
        <ele>253.4</ele>
        <time>2018-04-28T06:57:45Z</time>
      </trkpt>
      <trkpt lat="38.3511070" lon="-0.6918170">
        <ele>253.5</ele>
        <time>2018-04-28T06:57:46Z</time>
      </trkpt>
      <trkpt lat="38.3510490" lon="-0.6918060">
        <ele>253.6</ele>
        <time>2018-04-28T06:57:47Z</time>
      </trkpt>
      <trkpt lat="38.3509890" lon="-0.6918020">
        <ele>253.8</ele>
        <time>2018-04-28T06:57:48Z</time>
      </trkpt>
      <trkpt lat="38.3509300" lon="-0.6918050">
        <ele>253.9</ele>
        <time>2018-04-28T06:57:49Z</time>
      </trkpt>
      <trkpt lat="38.3508730" lon="-0.6918150">
        <ele>254.0</ele>
        <time>2018-04-28T06:57:50Z</time>
      </trkpt>
      <trkpt lat="38.3508160" lon="-0.6918280">
        <ele>254.0</ele>
        <time>2018-04-28T06:57:51Z</time>
      </trkpt>
      <trkpt lat="38.3507580" lon="-0.6918410">
        <ele>254.1</ele>
        <time>2018-04-28T06:57:52Z</time>
      </trkpt>
      <trkpt lat="38.3507010" lon="-0.6918570">
        <ele>254.1</ele>
        <time>2018-04-28T06:57:53Z</time>
      </trkpt>
      <trkpt lat="38.3506430" lon="-0.6918740">
        <ele>254.2</ele>
        <time>2018-04-28T06:57:54Z</time>
      </trkpt>
      <trkpt lat="38.3505860" lon="-0.6918900">
        <ele>254.2</ele>
        <time>2018-04-28T06:57:55Z</time>
      </trkpt>
      <trkpt lat="38.3505280" lon="-0.6919040">
        <ele>254.2</ele>
        <time>2018-04-28T06:57:56Z</time>
      </trkpt>
      <trkpt lat="38.3504690" lon="-0.6919170">
        <ele>254.2</ele>
        <time>2018-04-28T06:57:57Z</time>
      </trkpt>
      <trkpt lat="38.3504100" lon="-0.6919300">
        <ele>254.2</ele>
        <time>2018-04-28T06:57:58Z</time>
      </trkpt>
      <trkpt lat="38.3503510" lon="-0.6919450">
        <ele>254.3</ele>
        <time>2018-04-28T06:57:59Z</time>
      </trkpt>
      <trkpt lat="38.3502940" lon="-0.6919590">
        <ele>254.3</ele>
        <time>2018-04-28T06:58:00Z</time>
      </trkpt>
      <trkpt lat="38.3502350" lon="-0.6919740">
        <ele>254.3</ele>
        <time>2018-04-28T06:58:01Z</time>
      </trkpt>
      <trkpt lat="38.3501760" lon="-0.6919910">
        <ele>254.2</ele>
        <time>2018-04-28T06:58:02Z</time>
      </trkpt>
      <trkpt lat="38.3501180" lon="-0.6920100">
        <ele>254.2</ele>
        <time>2018-04-28T06:58:03Z</time>
      </trkpt>
      <trkpt lat="38.3500600" lon="-0.6920330">
        <ele>254.2</ele>
        <time>2018-04-28T06:58:04Z</time>
      </trkpt>
      <trkpt lat="38.3500030" lon="-0.6920570">
        <ele>254.2</ele>
        <time>2018-04-28T06:58:05Z</time>
      </trkpt>
      <trkpt lat="38.3499450" lon="-0.6920800">
        <ele>254.2</ele>
        <time>2018-04-28T06:58:06Z</time>
      </trkpt>
      <trkpt lat="38.3498900" lon="-0.6921110">
        <ele>254.2</ele>
        <time>2018-04-28T06:58:07Z</time>
      </trkpt>
      <trkpt lat="38.3498360" lon="-0.6921510">
        <ele>254.1</ele>
        <time>2018-04-28T06:58:08Z</time>
      </trkpt>
      <trkpt lat="38.3497840" lon="-0.6921890">
        <ele>254.1</ele>
        <time>2018-04-28T06:58:09Z</time>
      </trkpt>
      <trkpt lat="38.3497330" lon="-0.6922250">
        <ele>254.1</ele>
        <time>2018-04-28T06:58:10Z</time>
      </trkpt>
      <trkpt lat="38.3496800" lon="-0.6922610">
        <ele>254.0</ele>
        <time>2018-04-28T06:58:11Z</time>
      </trkpt>
      <trkpt lat="38.3496300" lon="-0.6922950">
        <ele>254.0</ele>
        <time>2018-04-28T06:58:12Z</time>
      </trkpt>
      <trkpt lat="38.3495950" lon="-0.6923270">
        <ele>254.0</ele>
        <time>2018-04-28T06:58:13Z</time>
      </trkpt>
      <trkpt lat="38.3495600" lon="-0.6923610">
        <ele>254.0</ele>
        <time>2018-04-28T06:58:14Z</time>
      </trkpt>
      <trkpt lat="38.3495200" lon="-0.6923990">
        <ele>254.0</ele>
        <time>2018-04-28T06:58:15Z</time>
      </trkpt>
      <trkpt lat="38.3494760" lon="-0.6924370">
        <ele>253.9</ele>
        <time>2018-04-28T06:58:16Z</time>
      </trkpt>
      <trkpt lat="38.3494250" lon="-0.6924710">
        <ele>253.9</ele>
        <time>2018-04-28T06:58:17Z</time>
      </trkpt>
      <trkpt lat="38.3493730" lon="-0.6924930">
        <ele>253.9</ele>
        <time>2018-04-28T06:58:18Z</time>
      </trkpt>
      <trkpt lat="38.3493200" lon="-0.6925130">
        <ele>253.9</ele>
        <time>2018-04-28T06:58:19Z</time>
      </trkpt>
      <trkpt lat="38.3492680" lon="-0.6925350">
        <ele>253.9</ele>
        <time>2018-04-28T06:58:20Z</time>
      </trkpt>
      <trkpt lat="38.3492120" lon="-0.6925570">
        <ele>253.8</ele>
        <time>2018-04-28T06:58:21Z</time>
      </trkpt>
      <trkpt lat="38.3491560" lon="-0.6925790">
        <ele>253.8</ele>
        <time>2018-04-28T06:58:22Z</time>
      </trkpt>
      <trkpt lat="38.3491020" lon="-0.6926010">
        <ele>253.8</ele>
        <time>2018-04-28T06:58:23Z</time>
      </trkpt>
      <trkpt lat="38.3490480" lon="-0.6926270">
        <ele>253.8</ele>
        <time>2018-04-28T06:58:24Z</time>
      </trkpt>
      <trkpt lat="38.3489900" lon="-0.6926500">
        <ele>253.7</ele>
        <time>2018-04-28T06:58:25Z</time>
      </trkpt>
      <trkpt lat="38.3489280" lon="-0.6926740">
        <ele>253.7</ele>
        <time>2018-04-28T06:58:26Z</time>
      </trkpt>
      <trkpt lat="38.3488660" lon="-0.6926970">
        <ele>253.7</ele>
        <time>2018-04-28T06:58:27Z</time>
      </trkpt>
      <trkpt lat="38.3488040" lon="-0.6927210">
        <ele>253.7</ele>
        <time>2018-04-28T06:58:28Z</time>
      </trkpt>
      <trkpt lat="38.3487450" lon="-0.6927470">
        <ele>253.7</ele>
        <time>2018-04-28T06:58:29Z</time>
      </trkpt>
      <trkpt lat="38.3486840" lon="-0.6927720">
        <ele>253.7</ele>
        <time>2018-04-28T06:58:30Z</time>
      </trkpt>
      <trkpt lat="38.3486230" lon="-0.6927970">
        <ele>253.7</ele>
        <time>2018-04-28T06:58:31Z</time>
      </trkpt>
      <trkpt lat="38.3485610" lon="-0.6928230">
        <ele>253.7</ele>
        <time>2018-04-28T06:58:32Z</time>
      </trkpt>
      <trkpt lat="38.3484990" lon="-0.6928500">
        <ele>253.7</ele>
        <time>2018-04-28T06:58:33Z</time>
      </trkpt>
      <trkpt lat="38.3484380" lon="-0.6928800">
        <ele>253.7</ele>
        <time>2018-04-28T06:58:34Z</time>
      </trkpt>
      <trkpt lat="38.3483790" lon="-0.6929170">
        <ele>253.7</ele>
        <time>2018-04-28T06:58:35Z</time>
      </trkpt>
      <trkpt lat="38.3483220" lon="-0.6929560">
        <ele>253.7</ele>
        <time>2018-04-28T06:58:36Z</time>
      </trkpt>
      <trkpt lat="38.3482670" lon="-0.6930020">
        <ele>253.7</ele>
        <time>2018-04-28T06:58:37Z</time>
      </trkpt>
      <trkpt lat="38.3482150" lon="-0.6930480">
        <ele>253.7</ele>
        <time>2018-04-28T06:58:38Z</time>
      </trkpt>
      <trkpt lat="38.3481610" lon="-0.6930920">
        <ele>253.7</ele>
        <time>2018-04-28T06:58:39Z</time>
      </trkpt>
      <trkpt lat="38.3481050" lon="-0.6931330">
        <ele>253.8</ele>
        <time>2018-04-28T06:58:40Z</time>
      </trkpt>
      <trkpt lat="38.3480480" lon="-0.6931670">
        <ele>253.8</ele>
        <time>2018-04-28T06:58:41Z</time>
      </trkpt>
      <trkpt lat="38.3479880" lon="-0.6931950">
        <ele>253.8</ele>
        <time>2018-04-28T06:58:42Z</time>
      </trkpt>
      <trkpt lat="38.3479280" lon="-0.6932200">
        <ele>253.9</ele>
        <time>2018-04-28T06:58:43Z</time>
      </trkpt>
      <trkpt lat="38.3478670" lon="-0.6932440">
        <ele>254.0</ele>
        <time>2018-04-28T06:58:44Z</time>
      </trkpt>
      <trkpt lat="38.3478060" lon="-0.6932640">
        <ele>254.0</ele>
        <time>2018-04-28T06:58:45Z</time>
      </trkpt>
      <trkpt lat="38.3477430" lon="-0.6932850">
        <ele>254.0</ele>
        <time>2018-04-28T06:58:46Z</time>
      </trkpt>
      <trkpt lat="38.3476810" lon="-0.6933060">
        <ele>254.1</ele>
        <time>2018-04-28T06:58:47Z</time>
      </trkpt>
      <trkpt lat="38.3476190" lon="-0.6933270">
        <ele>254.1</ele>
        <time>2018-04-28T06:58:48Z</time>
      </trkpt>
      <trkpt lat="38.3475590" lon="-0.6933480">
        <ele>254.1</ele>
        <time>2018-04-28T06:58:49Z</time>
      </trkpt>
      <trkpt lat="38.3474980" lon="-0.6933690">
        <ele>254.2</ele>
        <time>2018-04-28T06:58:50Z</time>
      </trkpt>
      <trkpt lat="38.3474370" lon="-0.6933900">
        <ele>254.3</ele>
        <time>2018-04-28T06:58:51Z</time>
      </trkpt>
      <trkpt lat="38.3473750" lon="-0.6934140">
        <ele>254.4</ele>
        <time>2018-04-28T06:58:52Z</time>
      </trkpt>
      <trkpt lat="38.3473110" lon="-0.6934370">
        <ele>254.5</ele>
        <time>2018-04-28T06:58:53Z</time>
      </trkpt>
      <trkpt lat="38.3472510" lon="-0.6934620">
        <ele>254.5</ele>
        <time>2018-04-28T06:58:54Z</time>
      </trkpt>
      <trkpt lat="38.3471950" lon="-0.6934880">
        <ele>254.6</ele>
        <time>2018-04-28T06:58:55Z</time>
      </trkpt>
      <trkpt lat="38.3471380" lon="-0.6935130">
        <ele>254.7</ele>
        <time>2018-04-28T06:58:56Z</time>
      </trkpt>
      <trkpt lat="38.3470810" lon="-0.6935380">
        <ele>254.7</ele>
        <time>2018-04-28T06:58:57Z</time>
      </trkpt>
      <trkpt lat="38.3470250" lon="-0.6935610">
        <ele>254.8</ele>
        <time>2018-04-28T06:58:58Z</time>
      </trkpt>
      <trkpt lat="38.3469680" lon="-0.6935820">
        <ele>254.8</ele>
        <time>2018-04-28T06:58:59Z</time>
      </trkpt>
      <trkpt lat="38.3469080" lon="-0.6936000">
        <ele>254.8</ele>
        <time>2018-04-28T06:59:00Z</time>
      </trkpt>
      <trkpt lat="38.3468490" lon="-0.6936110">
        <ele>254.9</ele>
        <time>2018-04-28T06:59:01Z</time>
      </trkpt>
      <trkpt lat="38.3467900" lon="-0.6936140">
        <ele>254.9</ele>
        <time>2018-04-28T06:59:02Z</time>
      </trkpt>
      <trkpt lat="38.3467310" lon="-0.6936100">
        <ele>255.0</ele>
        <time>2018-04-28T06:59:03Z</time>
      </trkpt>
      <trkpt lat="38.3466710" lon="-0.6936080">
        <ele>255.0</ele>
        <time>2018-04-28T06:59:04Z</time>
      </trkpt>
      <trkpt lat="38.3466070" lon="-0.6936060">
        <ele>255.0</ele>
        <time>2018-04-28T06:59:05Z</time>
      </trkpt>
      <trkpt lat="38.3465470" lon="-0.6936140">
        <ele>255.0</ele>
        <time>2018-04-28T06:59:06Z</time>
      </trkpt>
      <trkpt lat="38.3464850" lon="-0.6936220">
        <ele>255.0</ele>
        <time>2018-04-28T06:59:07Z</time>
      </trkpt>
      <trkpt lat="38.3464220" lon="-0.6936320">
        <ele>255.0</ele>
        <time>2018-04-28T06:59:08Z</time>
      </trkpt>
      <trkpt lat="38.3463510" lon="-0.6936460">
        <ele>255.1</ele>
        <time>2018-04-28T06:59:09Z</time>
      </trkpt>
      <trkpt lat="38.3462820" lon="-0.6936620">
        <ele>255.2</ele>
        <time>2018-04-28T06:59:10Z</time>
      </trkpt>
      <trkpt lat="38.3462160" lon="-0.6936780">
        <ele>255.2</ele>
        <time>2018-04-28T06:59:11Z</time>
      </trkpt>
      <trkpt lat="38.3461480" lon="-0.6936950">
        <ele>255.3</ele>
        <time>2018-04-28T06:59:12Z</time>
      </trkpt>
      <trkpt lat="38.3460790" lon="-0.6937120">
        <ele>255.4</ele>
        <time>2018-04-28T06:59:13Z</time>
      </trkpt>
      <trkpt lat="38.3460140" lon="-0.6937340">
        <ele>255.5</ele>
        <time>2018-04-28T06:59:14Z</time>
      </trkpt>
      <trkpt lat="38.3459480" lon="-0.6937590">
        <ele>255.5</ele>
        <time>2018-04-28T06:59:15Z</time>
      </trkpt>
      <trkpt lat="38.3458830" lon="-0.6937850">
        <ele>255.6</ele>
        <time>2018-04-28T06:59:16Z</time>
      </trkpt>
      <trkpt lat="38.3458170" lon="-0.6938080">
        <ele>255.7</ele>
        <time>2018-04-28T06:59:17Z</time>
      </trkpt>
      <trkpt lat="38.3457530" lon="-0.6938290">
        <ele>255.9</ele>
        <time>2018-04-28T06:59:18Z</time>
      </trkpt>
      <trkpt lat="38.3456900" lon="-0.6938510">
        <ele>256.2</ele>
        <time>2018-04-28T06:59:19Z</time>
      </trkpt>
      <trkpt lat="38.3456290" lon="-0.6938770">
        <ele>256.4</ele>
        <time>2018-04-28T06:59:20Z</time>
      </trkpt>
      <trkpt lat="38.3455700" lon="-0.6939030">
        <ele>256.6</ele>
        <time>2018-04-28T06:59:21Z</time>
      </trkpt>
      <trkpt lat="38.3455120" lon="-0.6939250">
        <ele>256.7</ele>
        <time>2018-04-28T06:59:22Z</time>
      </trkpt>
      <trkpt lat="38.3454540" lon="-0.6939440">
        <ele>256.8</ele>
        <time>2018-04-28T06:59:23Z</time>
      </trkpt>
      <trkpt lat="38.3453980" lon="-0.6939570">
        <ele>256.9</ele>
        <time>2018-04-28T06:59:24Z</time>
      </trkpt>
      <trkpt lat="38.3453390" lon="-0.6939680">
        <ele>257.1</ele>
        <time>2018-04-28T06:59:25Z</time>
      </trkpt>
      <trkpt lat="38.3452820" lon="-0.6939760">
        <ele>257.2</ele>
        <time>2018-04-28T06:59:26Z</time>
      </trkpt>
      <trkpt lat="38.3452240" lon="-0.6939850">
        <ele>257.3</ele>
        <time>2018-04-28T06:59:27Z</time>
      </trkpt>
      <trkpt lat="38.3451670" lon="-0.6939920">
        <ele>257.4</ele>
        <time>2018-04-28T06:59:28Z</time>
      </trkpt>
      <trkpt lat="38.3451100" lon="-0.6939990">
        <ele>257.5</ele>
        <time>2018-04-28T06:59:29Z</time>
      </trkpt>
      <trkpt lat="38.3450530" lon="-0.6940040">
        <ele>257.6</ele>
        <time>2018-04-28T06:59:30Z</time>
      </trkpt>
      <trkpt lat="38.3449970" lon="-0.6940100">
        <ele>257.7</ele>
        <time>2018-04-28T06:59:31Z</time>
      </trkpt>
      <trkpt lat="38.3449400" lon="-0.6940170">
        <ele>257.8</ele>
        <time>2018-04-28T06:59:32Z</time>
      </trkpt>
      <trkpt lat="38.3448840" lon="-0.6940240">
        <ele>257.9</ele>
        <time>2018-04-28T06:59:33Z</time>
      </trkpt>
      <trkpt lat="38.3448260" lon="-0.6940330">
        <ele>258.1</ele>
        <time>2018-04-28T06:59:34Z</time>
      </trkpt>
      <trkpt lat="38.3447690" lon="-0.6940450">
        <ele>258.2</ele>
        <time>2018-04-28T06:59:35Z</time>
      </trkpt>
      <trkpt lat="38.3447110" lon="-0.6940620">
        <ele>258.4</ele>
        <time>2018-04-28T06:59:36Z</time>
      </trkpt>
      <trkpt lat="38.3446530" lon="-0.6940800">
        <ele>258.6</ele>
        <time>2018-04-28T06:59:37Z</time>
      </trkpt>
      <trkpt lat="38.3445940" lon="-0.6940980">
        <ele>258.8</ele>
        <time>2018-04-28T06:59:38Z</time>
      </trkpt>
      <trkpt lat="38.3445350" lon="-0.6941130">
        <ele>258.9</ele>
        <time>2018-04-28T06:59:39Z</time>
      </trkpt>
      <trkpt lat="38.3444750" lon="-0.6941220">
        <ele>259.1</ele>
        <time>2018-04-28T06:59:40Z</time>
      </trkpt>
      <trkpt lat="38.3444150" lon="-0.6941260">
        <ele>259.3</ele>
        <time>2018-04-28T06:59:41Z</time>
      </trkpt>
      <trkpt lat="38.3443540" lon="-0.6941240">
        <ele>259.5</ele>
        <time>2018-04-28T06:59:42Z</time>
      </trkpt>
      <trkpt lat="38.3442950" lon="-0.6941160">
        <ele>259.9</ele>
        <time>2018-04-28T06:59:43Z</time>
      </trkpt>
      <trkpt lat="38.3442350" lon="-0.6941060">
        <ele>260.1</ele>
        <time>2018-04-28T06:59:44Z</time>
      </trkpt>
      <trkpt lat="38.3441770" lon="-0.6940960">
        <ele>260.4</ele>
        <time>2018-04-28T06:59:45Z</time>
      </trkpt>
      <trkpt lat="38.3441200" lon="-0.6940860">
        <ele>260.6</ele>
        <time>2018-04-28T06:59:46Z</time>
      </trkpt>
      <trkpt lat="38.3440650" lon="-0.6940750">
        <ele>260.9</ele>
        <time>2018-04-28T06:59:47Z</time>
      </trkpt>
      <trkpt lat="38.3440130" lon="-0.6940660">
        <ele>261.1</ele>
        <time>2018-04-28T06:59:48Z</time>
      </trkpt>
      <trkpt lat="38.3439620" lon="-0.6940550">
        <ele>261.4</ele>
        <time>2018-04-28T06:59:49Z</time>
      </trkpt>
      <trkpt lat="38.3439110" lon="-0.6940430">
        <ele>261.6</ele>
        <time>2018-04-28T06:59:50Z</time>
      </trkpt>
      <trkpt lat="38.3438610" lon="-0.6940290">
        <ele>261.8</ele>
        <time>2018-04-28T06:59:51Z</time>
      </trkpt>
      <trkpt lat="38.3438100" lon="-0.6940150">
        <ele>262.0</ele>
        <time>2018-04-28T06:59:52Z</time>
      </trkpt>
      <trkpt lat="38.3437580" lon="-0.6939990">
        <ele>262.2</ele>
        <time>2018-04-28T06:59:53Z</time>
      </trkpt>
      <trkpt lat="38.3437040" lon="-0.6939850">
        <ele>262.4</ele>
        <time>2018-04-28T06:59:54Z</time>
      </trkpt>
      <trkpt lat="38.3436480" lon="-0.6939750">
        <ele>262.6</ele>
        <time>2018-04-28T06:59:55Z</time>
      </trkpt>
      <trkpt lat="38.3435950" lon="-0.6939670">
        <ele>262.9</ele>
        <time>2018-04-28T06:59:56Z</time>
      </trkpt>
      <trkpt lat="38.3435400" lon="-0.6939610">
        <ele>263.1</ele>
        <time>2018-04-28T06:59:57Z</time>
      </trkpt>
      <trkpt lat="38.3434840" lon="-0.6939640">
        <ele>263.3</ele>
        <time>2018-04-28T06:59:58Z</time>
      </trkpt>
      <trkpt lat="38.3434290" lon="-0.6939710">
        <ele>263.4</ele>
        <time>2018-04-28T06:59:59Z</time>
      </trkpt>
      <trkpt lat="38.3433750" lon="-0.6939840">
        <ele>263.5</ele>
        <time>2018-04-28T07:00:00Z</time>
      </trkpt>
      <trkpt lat="38.3433190" lon="-0.6939940">
        <ele>263.6</ele>
        <time>2018-04-28T07:00:01Z</time>
      </trkpt>
      <trkpt lat="38.3432620" lon="-0.6940040">
        <ele>263.7</ele>
        <time>2018-04-28T07:00:02Z</time>
      </trkpt>
      <trkpt lat="38.3432060" lon="-0.6940120">
        <ele>263.8</ele>
        <time>2018-04-28T07:00:03Z</time>
      </trkpt>
      <trkpt lat="38.3431480" lon="-0.6940210">
        <ele>263.9</ele>
        <time>2018-04-28T07:00:04Z</time>
      </trkpt>
      <trkpt lat="38.3430910" lon="-0.6940260">
        <ele>263.9</ele>
        <time>2018-04-28T07:00:05Z</time>
      </trkpt>
      <trkpt lat="38.3430350" lon="-0.6940320">
        <ele>264.0</ele>
        <time>2018-04-28T07:00:06Z</time>
      </trkpt>
      <trkpt lat="38.3429790" lon="-0.6940410">
        <ele>264.0</ele>
        <time>2018-04-28T07:00:07Z</time>
      </trkpt>
      <trkpt lat="38.3429230" lon="-0.6940510">
        <ele>264.1</ele>
        <time>2018-04-28T07:00:08Z</time>
      </trkpt>
      <trkpt lat="38.3428660" lon="-0.6940600">
        <ele>264.1</ele>
        <time>2018-04-28T07:00:09Z</time>
      </trkpt>
      <trkpt lat="38.3428090" lon="-0.6940670">
        <ele>264.1</ele>
        <time>2018-04-28T07:00:10Z</time>
      </trkpt>
      <trkpt lat="38.3427510" lon="-0.6940710">
        <ele>264.2</ele>
        <time>2018-04-28T07:00:11Z</time>
      </trkpt>
      <trkpt lat="38.3426920" lon="-0.6940750">
        <ele>264.2</ele>
        <time>2018-04-28T07:00:12Z</time>
      </trkpt>
      <trkpt lat="38.3426300" lon="-0.6940800">
        <ele>264.3</ele>
        <time>2018-04-28T07:00:13Z</time>
      </trkpt>
      <trkpt lat="38.3425700" lon="-0.6940890">
        <ele>264.4</ele>
        <time>2018-04-28T07:00:14Z</time>
      </trkpt>
      <trkpt lat="38.3425090" lon="-0.6941010">
        <ele>264.4</ele>
        <time>2018-04-28T07:00:15Z</time>
      </trkpt>
      <trkpt lat="38.3424480" lon="-0.6941160">
        <ele>264.5</ele>
        <time>2018-04-28T07:00:16Z</time>
      </trkpt>
      <trkpt lat="38.3423870" lon="-0.6941350">
        <ele>264.5</ele>
        <time>2018-04-28T07:00:17Z</time>
      </trkpt>
      <trkpt lat="38.3423250" lon="-0.6941550">
        <ele>264.6</ele>
        <time>2018-04-28T07:00:18Z</time>
      </trkpt>
      <trkpt lat="38.3422630" lon="-0.6941740">
        <ele>264.7</ele>
        <time>2018-04-28T07:00:19Z</time>
      </trkpt>
      <trkpt lat="38.3422020" lon="-0.6941960">
        <ele>264.8</ele>
        <time>2018-04-28T07:00:20Z</time>
      </trkpt>
      <trkpt lat="38.3421420" lon="-0.6942200">
        <ele>264.9</ele>
        <time>2018-04-28T07:00:21Z</time>
      </trkpt>
      <trkpt lat="38.3420800" lon="-0.6942420">
        <ele>265.0</ele>
        <time>2018-04-28T07:00:22Z</time>
      </trkpt>
      <trkpt lat="38.3420160" lon="-0.6942550">
        <ele>265.1</ele>
        <time>2018-04-28T07:00:23Z</time>
      </trkpt>
      <trkpt lat="38.3419520" lon="-0.6942630">
        <ele>265.4</ele>
        <time>2018-04-28T07:00:24Z</time>
      </trkpt>
      <trkpt lat="38.3418890" lon="-0.6942690">
        <ele>265.7</ele>
        <time>2018-04-28T07:00:25Z</time>
      </trkpt>
      <trkpt lat="38.3418270" lon="-0.6942750">
        <ele>266.0</ele>
        <time>2018-04-28T07:00:26Z</time>
      </trkpt>
      <trkpt lat="38.3417650" lon="-0.6942780">
        <ele>266.3</ele>
        <time>2018-04-28T07:00:27Z</time>
      </trkpt>
      <trkpt lat="38.3417020" lon="-0.6942750">
        <ele>266.7</ele>
        <time>2018-04-28T07:00:28Z</time>
      </trkpt>
      <trkpt lat="38.3416400" lon="-0.6942680">
        <ele>266.9</ele>
        <time>2018-04-28T07:00:29Z</time>
      </trkpt>
      <trkpt lat="38.3415830" lon="-0.6942530">
        <ele>267.2</ele>
        <time>2018-04-28T07:00:30Z</time>
      </trkpt>
      <trkpt lat="38.3415270" lon="-0.6942360">
        <ele>267.4</ele>
        <time>2018-04-28T07:00:31Z</time>
      </trkpt>
      <trkpt lat="38.3414730" lon="-0.6942160">
        <ele>267.7</ele>
        <time>2018-04-28T07:00:32Z</time>
      </trkpt>
      <trkpt lat="38.3414220" lon="-0.6941940">
        <ele>268.0</ele>
        <time>2018-04-28T07:00:33Z</time>
      </trkpt>
      <trkpt lat="38.3413700" lon="-0.6941750">
        <ele>268.3</ele>
        <time>2018-04-28T07:00:34Z</time>
      </trkpt>
      <trkpt lat="38.3413170" lon="-0.6941630">
        <ele>268.6</ele>
        <time>2018-04-28T07:00:35Z</time>
      </trkpt>
      <trkpt lat="38.3412650" lon="-0.6941550">
        <ele>268.9</ele>
        <time>2018-04-28T07:00:36Z</time>
      </trkpt>
      <trkpt lat="38.3412140" lon="-0.6941520">
        <ele>269.2</ele>
        <time>2018-04-28T07:00:37Z</time>
      </trkpt>
      <trkpt lat="38.3411670" lon="-0.6941600">
        <ele>269.4</ele>
        <time>2018-04-28T07:00:38Z</time>
      </trkpt>
      <trkpt lat="38.3411200" lon="-0.6941660">
        <ele>269.7</ele>
        <time>2018-04-28T07:00:39Z</time>
      </trkpt>
      <trkpt lat="38.3410760" lon="-0.6941710">
        <ele>270.0</ele>
        <time>2018-04-28T07:00:40Z</time>
      </trkpt>
      <trkpt lat="38.3410240" lon="-0.6941660">
        <ele>270.2</ele>
        <time>2018-04-28T07:00:41Z</time>
      </trkpt>
      <trkpt lat="38.3409720" lon="-0.6941610">
        <ele>270.4</ele>
        <time>2018-04-28T07:00:42Z</time>
      </trkpt>
      <trkpt lat="38.3409220" lon="-0.6941540">
        <ele>270.7</ele>
        <time>2018-04-28T07:00:43Z</time>
      </trkpt>
      <trkpt lat="38.3408720" lon="-0.6941390">
        <ele>270.9</ele>
        <time>2018-04-28T07:00:44Z</time>
      </trkpt>
      <trkpt lat="38.3408220" lon="-0.6941250">
        <ele>271.3</ele>
        <time>2018-04-28T07:00:45Z</time>
      </trkpt>
      <trkpt lat="38.3407750" lon="-0.6941080">
        <ele>271.7</ele>
        <time>2018-04-28T07:00:46Z</time>
      </trkpt>
      <trkpt lat="38.3407290" lon="-0.6940890">
        <ele>272.1</ele>
        <time>2018-04-28T07:00:47Z</time>
      </trkpt>
      <trkpt lat="38.3406860" lon="-0.6940700">
        <ele>272.5</ele>
        <time>2018-04-28T07:00:48Z</time>
      </trkpt>
      <trkpt lat="38.3406450" lon="-0.6940520">
        <ele>272.9</ele>
        <time>2018-04-28T07:00:49Z</time>
      </trkpt>
      <trkpt lat="38.3406060" lon="-0.6940330">
        <ele>273.1</ele>
        <time>2018-04-28T07:00:50Z</time>
      </trkpt>
      <trkpt lat="38.3405670" lon="-0.6940170">
        <ele>273.4</ele>
        <time>2018-04-28T07:00:51Z</time>
      </trkpt>
      <trkpt lat="38.3405310" lon="-0.6940010">
        <ele>273.7</ele>
        <time>2018-04-28T07:00:52Z</time>
      </trkpt>
      <trkpt lat="38.3404920" lon="-0.6939850">
        <ele>274.0</ele>
        <time>2018-04-28T07:00:53Z</time>
      </trkpt>
      <trkpt lat="38.3404530" lon="-0.6939700">
        <ele>274.2</ele>
        <time>2018-04-28T07:00:54Z</time>
      </trkpt>
      <trkpt lat="38.3404140" lon="-0.6939550">
        <ele>274.6</ele>
        <time>2018-04-28T07:00:55Z</time>
      </trkpt>
      <trkpt lat="38.3403740" lon="-0.6939420">
        <ele>274.9</ele>
        <time>2018-04-28T07:00:56Z</time>
      </trkpt>
      <trkpt lat="38.3403350" lon="-0.6939300">
        <ele>275.2</ele>
        <time>2018-04-28T07:00:57Z</time>
      </trkpt>
      <trkpt lat="38.3402970" lon="-0.6939180">
        <ele>275.5</ele>
        <time>2018-04-28T07:00:58Z</time>
      </trkpt>
      <trkpt lat="38.3402610" lon="-0.6939080">
        <ele>275.8</ele>
        <time>2018-04-28T07:00:59Z</time>
      </trkpt>
      <trkpt lat="38.3402220" lon="-0.6938980">
        <ele>276.1</ele>
        <time>2018-04-28T07:01:00Z</time>
      </trkpt>
      <trkpt lat="38.3401850" lon="-0.6938870">
        <ele>276.4</ele>
        <time>2018-04-28T07:01:01Z</time>
      </trkpt>
      <trkpt lat="38.3401460" lon="-0.6938800">
        <ele>276.7</ele>
        <time>2018-04-28T07:01:02Z</time>
      </trkpt>
      <trkpt lat="38.3401070" lon="-0.6938740">
        <ele>277.0</ele>
        <time>2018-04-28T07:01:03Z</time>
      </trkpt>
      <trkpt lat="38.3400690" lon="-0.6938680">
        <ele>277.4</ele>
        <time>2018-04-28T07:01:04Z</time>
      </trkpt>
      <trkpt lat="38.3400300" lon="-0.6938640">
        <ele>277.7</ele>
        <time>2018-04-28T07:01:05Z</time>
      </trkpt>
      <trkpt lat="38.3399940" lon="-0.6938590">
        <ele>278.0</ele>
        <time>2018-04-28T07:01:06Z</time>
      </trkpt>
      <trkpt lat="38.3399580" lon="-0.6938560">
        <ele>278.2</ele>
        <time>2018-04-28T07:01:07Z</time>
      </trkpt>
      <trkpt lat="38.3399220" lon="-0.6938550">
        <ele>278.5</ele>
        <time>2018-04-28T07:01:08Z</time>
      </trkpt>
      <trkpt lat="38.3398840" lon="-0.6938530">
        <ele>278.8</ele>
        <time>2018-04-28T07:01:09Z</time>
      </trkpt>
      <trkpt lat="38.3398460" lon="-0.6938510">
        <ele>279.1</ele>
        <time>2018-04-28T07:01:10Z</time>
      </trkpt>
      <trkpt lat="38.3398090" lon="-0.6938490">
        <ele>279.4</ele>
        <time>2018-04-28T07:01:11Z</time>
      </trkpt>
      <trkpt lat="38.3397720" lon="-0.6938450">
        <ele>279.6</ele>
        <time>2018-04-28T07:01:12Z</time>
      </trkpt>
      <trkpt lat="38.3397350" lon="-0.6938410">
        <ele>279.9</ele>
        <time>2018-04-28T07:01:13Z</time>
      </trkpt>
      <trkpt lat="38.3396970" lon="-0.6938360">
        <ele>280.2</ele>
        <time>2018-04-28T07:01:14Z</time>
      </trkpt>
      <trkpt lat="38.3396580" lon="-0.6938290">
        <ele>280.4</ele>
        <time>2018-04-28T07:01:15Z</time>
      </trkpt>
      <trkpt lat="38.3396200" lon="-0.6938220">
        <ele>280.8</ele>
        <time>2018-04-28T07:01:16Z</time>
      </trkpt>
      <trkpt lat="38.3395800" lon="-0.6938170">
        <ele>281.1</ele>
        <time>2018-04-28T07:01:17Z</time>
      </trkpt>
      <trkpt lat="38.3395420" lon="-0.6938130">
        <ele>281.4</ele>
        <time>2018-04-28T07:01:18Z</time>
      </trkpt>
      <trkpt lat="38.3395030" lon="-0.6938100">
        <ele>281.7</ele>
        <time>2018-04-28T07:01:19Z</time>
      </trkpt>
      <trkpt lat="38.3394640" lon="-0.6938080">
        <ele>282.0</ele>
        <time>2018-04-28T07:01:20Z</time>
      </trkpt>
      <trkpt lat="38.3394250" lon="-0.6938050">
        <ele>282.1</ele>
        <time>2018-04-28T07:01:21Z</time>
      </trkpt>
      <trkpt lat="38.3393860" lon="-0.6938030">
        <ele>282.3</ele>
        <time>2018-04-28T07:01:22Z</time>
      </trkpt>
      <trkpt lat="38.3393470" lon="-0.6938000">
        <ele>282.4</ele>
        <time>2018-04-28T07:01:23Z</time>
      </trkpt>
      <trkpt lat="38.3393070" lon="-0.6938010">
        <ele>282.6</ele>
        <time>2018-04-28T07:01:24Z</time>
      </trkpt>
      <trkpt lat="38.3392640" lon="-0.6938030">
        <ele>282.7</ele>
        <time>2018-04-28T07:01:25Z</time>
      </trkpt>
      <trkpt lat="38.3392230" lon="-0.6938070">
        <ele>282.9</ele>
        <time>2018-04-28T07:01:26Z</time>
      </trkpt>
      <trkpt lat="38.3391790" lon="-0.6938110">
        <ele>283.1</ele>
        <time>2018-04-28T07:01:27Z</time>
      </trkpt>
      <trkpt lat="38.3391320" lon="-0.6938170">
        <ele>283.3</ele>
        <time>2018-04-28T07:01:28Z</time>
      </trkpt>
      <trkpt lat="38.3390850" lon="-0.6938240">
        <ele>283.6</ele>
        <time>2018-04-28T07:01:29Z</time>
      </trkpt>
      <trkpt lat="38.3390430" lon="-0.6938350">
        <ele>283.7</ele>
        <time>2018-04-28T07:01:30Z</time>
      </trkpt>
      <trkpt lat="38.3390030" lon="-0.6938460">
        <ele>283.8</ele>
        <time>2018-04-28T07:01:31Z</time>
      </trkpt>
      <trkpt lat="38.3389620" lon="-0.6938560">
        <ele>283.9</ele>
        <time>2018-04-28T07:01:32Z</time>
      </trkpt>
      <trkpt lat="38.3389220" lon="-0.6938640">
        <ele>284.0</ele>
        <time>2018-04-28T07:01:33Z</time>
      </trkpt>
      <trkpt lat="38.3388790" lon="-0.6938750">
        <ele>284.1</ele>
        <time>2018-04-28T07:01:34Z</time>
      </trkpt>
      <trkpt lat="38.3388380" lon="-0.6938850">
        <ele>284.2</ele>
        <time>2018-04-28T07:01:35Z</time>
      </trkpt>
      <trkpt lat="38.3387980" lon="-0.6938960">
        <ele>284.3</ele>
        <time>2018-04-28T07:01:36Z</time>
      </trkpt>
      <trkpt lat="38.3387570" lon="-0.6939080">
        <ele>284.4</ele>
        <time>2018-04-28T07:01:37Z</time>
      </trkpt>
      <trkpt lat="38.3387140" lon="-0.6939210">
        <ele>284.5</ele>
        <time>2018-04-28T07:01:38Z</time>
      </trkpt>
      <trkpt lat="38.3386690" lon="-0.6939340">
        <ele>284.6</ele>
        <time>2018-04-28T07:01:39Z</time>
      </trkpt>
      <trkpt lat="38.3386250" lon="-0.6939500">
        <ele>284.7</ele>
        <time>2018-04-28T07:01:40Z</time>
      </trkpt>
      <trkpt lat="38.3385800" lon="-0.6939680">
        <ele>284.8</ele>
        <time>2018-04-28T07:01:41Z</time>
      </trkpt>
      <trkpt lat="38.3385350" lon="-0.6939870">
        <ele>284.8</ele>
        <time>2018-04-28T07:01:42Z</time>
      </trkpt>
      <trkpt lat="38.3384920" lon="-0.6940070">
        <ele>284.9</ele>
        <time>2018-04-28T07:01:43Z</time>
      </trkpt>
      <trkpt lat="38.3384480" lon="-0.6940270">
        <ele>285.0</ele>
        <time>2018-04-28T07:01:44Z</time>
      </trkpt>
      <trkpt lat="38.3384060" lon="-0.6940500">
        <ele>285.1</ele>
        <time>2018-04-28T07:01:45Z</time>
      </trkpt>
      <trkpt lat="38.3383650" lon="-0.6940730">
        <ele>285.1</ele>
        <time>2018-04-28T07:01:46Z</time>
      </trkpt>
      <trkpt lat="38.3383240" lon="-0.6940970">
        <ele>285.2</ele>
        <time>2018-04-28T07:01:47Z</time>
      </trkpt>
      <trkpt lat="38.3382820" lon="-0.6941220">
        <ele>285.3</ele>
        <time>2018-04-28T07:01:48Z</time>
      </trkpt>
      <trkpt lat="38.3382390" lon="-0.6941510">
        <ele>285.4</ele>
        <time>2018-04-28T07:01:49Z</time>
      </trkpt>
      <trkpt lat="38.3381940" lon="-0.6941790">
        <ele>285.5</ele>
        <time>2018-04-28T07:01:50Z</time>
      </trkpt>
      <trkpt lat="38.3381470" lon="-0.6942080">
        <ele>285.6</ele>
        <time>2018-04-28T07:01:51Z</time>
      </trkpt>
      <trkpt lat="38.3380990" lon="-0.6942360">
        <ele>285.7</ele>
        <time>2018-04-28T07:01:52Z</time>
      </trkpt>
      <trkpt lat="38.3380500" lon="-0.6942660">
        <ele>285.8</ele>
        <time>2018-04-28T07:01:53Z</time>
      </trkpt>
      <trkpt lat="38.3380010" lon="-0.6942950">
        <ele>285.9</ele>
        <time>2018-04-28T07:01:54Z</time>
      </trkpt>
      <trkpt lat="38.3379500" lon="-0.6943230">
        <ele>286.1</ele>
        <time>2018-04-28T07:01:55Z</time>
      </trkpt>
      <trkpt lat="38.3378990" lon="-0.6943490">
        <ele>286.2</ele>
        <time>2018-04-28T07:01:56Z</time>
      </trkpt>
      <trkpt lat="38.3378470" lon="-0.6943710">
        <ele>286.3</ele>
        <time>2018-04-28T07:01:57Z</time>
      </trkpt>
      <trkpt lat="38.3377940" lon="-0.6943880">
        <ele>286.5</ele>
        <time>2018-04-28T07:01:58Z</time>
      </trkpt>
      <trkpt lat="38.3377410" lon="-0.6944010">
        <ele>286.6</ele>
        <time>2018-04-28T07:01:59Z</time>
      </trkpt>
      <trkpt lat="38.3376870" lon="-0.6944130">
        <ele>286.8</ele>
        <time>2018-04-28T07:02:00Z</time>
      </trkpt>
      <trkpt lat="38.3376320" lon="-0.6944210">
        <ele>287.0</ele>
        <time>2018-04-28T07:02:01Z</time>
      </trkpt>
      <trkpt lat="38.3375780" lon="-0.6944280">
        <ele>287.2</ele>
        <time>2018-04-28T07:02:02Z</time>
      </trkpt>
      <trkpt lat="38.3375260" lon="-0.6944440">
        <ele>287.3</ele>
        <time>2018-04-28T07:02:03Z</time>
      </trkpt>
      <trkpt lat="38.3374780" lon="-0.6944730">
        <ele>287.5</ele>
        <time>2018-04-28T07:02:04Z</time>
      </trkpt>
      <trkpt lat="38.3374370" lon="-0.6945120">
        <ele>287.7</ele>
        <time>2018-04-28T07:02:05Z</time>
      </trkpt>
      <trkpt lat="38.3374050" lon="-0.6945630">
        <ele>287.8</ele>
        <time>2018-04-28T07:02:06Z</time>
      </trkpt>
      <trkpt lat="38.3373830" lon="-0.6946180">
        <ele>288.0</ele>
        <time>2018-04-28T07:02:07Z</time>
      </trkpt>
      <trkpt lat="38.3373690" lon="-0.6946770">
        <ele>288.2</ele>
        <time>2018-04-28T07:02:08Z</time>
      </trkpt>
      <trkpt lat="38.3373670" lon="-0.6947450">
        <ele>288.4</ele>
        <time>2018-04-28T07:02:09Z</time>
      </trkpt>
      <trkpt lat="38.3373670" lon="-0.6948120">
        <ele>288.6</ele>
        <time>2018-04-28T07:02:10Z</time>
      </trkpt>
      <trkpt lat="38.3373660" lon="-0.6948780">
        <ele>288.8</ele>
        <time>2018-04-28T07:02:11Z</time>
      </trkpt>
      <trkpt lat="38.3373630" lon="-0.6949420">
        <ele>288.9</ele>
        <time>2018-04-28T07:02:12Z</time>
      </trkpt>
      <trkpt lat="38.3373580" lon="-0.6950050">
        <ele>289.1</ele>
        <time>2018-04-28T07:02:13Z</time>
      </trkpt>
      <trkpt lat="38.3373500" lon="-0.6950690">
        <ele>289.3</ele>
        <time>2018-04-28T07:02:14Z</time>
      </trkpt>
      <trkpt lat="38.3373310" lon="-0.6951200">
        <ele>289.4</ele>
        <time>2018-04-28T07:02:15Z</time>
      </trkpt>
      <trkpt lat="38.3372970" lon="-0.6951600">
        <ele>289.6</ele>
        <time>2018-04-28T07:02:16Z</time>
      </trkpt>
      <trkpt lat="38.3372660" lon="-0.6951840">
        <ele>290.0</ele>
        <time>2018-04-28T07:02:17Z</time>
      </trkpt>
      <trkpt lat="38.3372360" lon="-0.6951940">
        <ele>291.5</ele>
        <time>2018-04-28T07:02:18Z</time>
      </trkpt>
      <trkpt lat="38.3372060" lon="-0.6951840">
        <ele>291.8</ele>
        <time>2018-04-28T07:02:19Z</time>
      </trkpt>
      <trkpt lat="38.3371790" lon="-0.6951650">
        <ele>292.1</ele>
        <time>2018-04-28T07:02:20Z</time>
      </trkpt>
      <trkpt lat="38.3371520" lon="-0.6951450">
        <ele>292.4</ele>
        <time>2018-04-28T07:02:21Z</time>
      </trkpt>
      <trkpt lat="38.3371410" lon="-0.6951200">
        <ele>292.6</ele>
        <time>2018-04-28T07:02:22Z</time>
      </trkpt>
      <trkpt lat="38.3371250" lon="-0.6950890">
        <ele>293.0</ele>
        <time>2018-04-28T07:02:23Z</time>
      </trkpt>
      <trkpt lat="38.3371150" lon="-0.6950550">
        <ele>293.2</ele>
        <time>2018-04-28T07:02:24Z</time>
      </trkpt>
      <trkpt lat="38.3371010" lon="-0.6950140">
        <ele>293.4</ele>
        <time>2018-04-28T07:02:25Z</time>
      </trkpt>
      <trkpt lat="38.3370890" lon="-0.6949730">
        <ele>293.6</ele>
        <time>2018-04-28T07:02:26Z</time>
      </trkpt>
      <trkpt lat="38.3370750" lon="-0.6949310">
        <ele>293.8</ele>
        <time>2018-04-28T07:02:27Z</time>
      </trkpt>
      <trkpt lat="38.3370620" lon="-0.6948850">
        <ele>294.0</ele>
        <time>2018-04-28T07:02:28Z</time>
      </trkpt>
      <trkpt lat="38.3370440" lon="-0.6948410">
        <ele>294.1</ele>
        <time>2018-04-28T07:02:29Z</time>
      </trkpt>
      <trkpt lat="38.3370280" lon="-0.6947990">
        <ele>294.3</ele>
        <time>2018-04-28T07:02:30Z</time>
      </trkpt>
      <trkpt lat="38.3370110" lon="-0.6947540">
        <ele>294.6</ele>
        <time>2018-04-28T07:02:31Z</time>
      </trkpt>
      <trkpt lat="38.3369940" lon="-0.6947110">
        <ele>294.8</ele>
        <time>2018-04-28T07:02:32Z</time>
      </trkpt>
      <trkpt lat="38.3369760" lon="-0.6946680">
        <ele>295.1</ele>
        <time>2018-04-28T07:02:33Z</time>
      </trkpt>
      <trkpt lat="38.3369590" lon="-0.6946270">
        <ele>295.5</ele>
        <time>2018-04-28T07:02:34Z</time>
      </trkpt>
      <trkpt lat="38.3369420" lon="-0.6945870">
        <ele>295.9</ele>
        <time>2018-04-28T07:02:35Z</time>
      </trkpt>
      <trkpt lat="38.3369250" lon="-0.6945480">
        <ele>296.3</ele>
        <time>2018-04-28T07:02:36Z</time>
      </trkpt>
      <trkpt lat="38.3369080" lon="-0.6945100">
        <ele>296.6</ele>
        <time>2018-04-28T07:02:37Z</time>
      </trkpt>
      <trkpt lat="38.3368920" lon="-0.6944720">
        <ele>296.7</ele>
        <time>2018-04-28T07:02:38Z</time>
      </trkpt>
      <trkpt lat="38.3368740" lon="-0.6944380">
        <ele>296.9</ele>
        <time>2018-04-28T07:02:39Z</time>
      </trkpt>
      <trkpt lat="38.3368560" lon="-0.6944030">
        <ele>297.1</ele>
        <time>2018-04-28T07:02:40Z</time>
      </trkpt>
      <trkpt lat="38.3368340" lon="-0.6943750">
        <ele>297.3</ele>
        <time>2018-04-28T07:02:41Z</time>
      </trkpt>
      <trkpt lat="38.3368120" lon="-0.6943480">
        <ele>297.6</ele>
        <time>2018-04-28T07:02:42Z</time>
      </trkpt>
      <trkpt lat="38.3367880" lon="-0.6943230">
        <ele>297.8</ele>
        <time>2018-04-28T07:02:43Z</time>
      </trkpt>
      <trkpt lat="38.3367620" lon="-0.6943010">
        <ele>298.0</ele>
        <time>2018-04-28T07:02:44Z</time>
      </trkpt>
      <trkpt lat="38.3367360" lon="-0.6942740">
        <ele>298.1</ele>
        <time>2018-04-28T07:02:45Z</time>
      </trkpt>
      <trkpt lat="38.3367100" lon="-0.6942490">
        <ele>298.3</ele>
        <time>2018-04-28T07:02:46Z</time>
      </trkpt>
      <trkpt lat="38.3366820" lon="-0.6942280">
        <ele>298.4</ele>
        <time>2018-04-28T07:02:47Z</time>
      </trkpt>
      <trkpt lat="38.3366560" lon="-0.6942070">
        <ele>298.6</ele>
        <time>2018-04-28T07:02:48Z</time>
      </trkpt>
      <trkpt lat="38.3366290" lon="-0.6941870">
        <ele>298.7</ele>
        <time>2018-04-28T07:02:49Z</time>
      </trkpt>
      <trkpt lat="38.3366030" lon="-0.6941690">
        <ele>298.8</ele>
        <time>2018-04-28T07:02:50Z</time>
      </trkpt>
      <trkpt lat="38.3365740" lon="-0.6941490">
        <ele>299.0</ele>
        <time>2018-04-28T07:02:51Z</time>
      </trkpt>
      <trkpt lat="38.3365450" lon="-0.6941270">
        <ele>299.0</ele>
        <time>2018-04-28T07:02:52Z</time>
      </trkpt>
      <trkpt lat="38.3365160" lon="-0.6941080">
        <ele>299.0</ele>
        <time>2018-04-28T07:02:53Z</time>
      </trkpt>
      <trkpt lat="38.3364880" lon="-0.6940890">
        <ele>299.1</ele>
        <time>2018-04-28T07:02:54Z</time>
      </trkpt>
      <trkpt lat="38.3364590" lon="-0.6940690">
        <ele>299.1</ele>
        <time>2018-04-28T07:02:55Z</time>
      </trkpt>
      <trkpt lat="38.3364300" lon="-0.6940480">
        <ele>299.2</ele>
        <time>2018-04-28T07:02:56Z</time>
      </trkpt>
      <trkpt lat="38.3363960" lon="-0.6940230">
        <ele>299.2</ele>
        <time>2018-04-28T07:02:57Z</time>
      </trkpt>
      <trkpt lat="38.3363630" lon="-0.6939970">
        <ele>299.2</ele>
        <time>2018-04-28T07:02:58Z</time>
      </trkpt>
      <trkpt lat="38.3363290" lon="-0.6939700">
        <ele>299.2</ele>
        <time>2018-04-28T07:02:59Z</time>
      </trkpt>
      <trkpt lat="38.3362920" lon="-0.6939460">
        <ele>299.2</ele>
        <time>2018-04-28T07:03:00Z</time>
      </trkpt>
      <trkpt lat="38.3362540" lon="-0.6939170">
        <ele>299.2</ele>
        <time>2018-04-28T07:03:01Z</time>
      </trkpt>
      <trkpt lat="38.3362130" lon="-0.6938900">
        <ele>299.2</ele>
        <time>2018-04-28T07:03:02Z</time>
      </trkpt>
      <trkpt lat="38.3361690" lon="-0.6938640">
        <ele>299.2</ele>
        <time>2018-04-28T07:03:03Z</time>
      </trkpt>
      <trkpt lat="38.3361210" lon="-0.6938420">
        <ele>299.1</ele>
        <time>2018-04-28T07:03:04Z</time>
      </trkpt>
      <trkpt lat="38.3360740" lon="-0.6938170">
        <ele>299.1</ele>
        <time>2018-04-28T07:03:05Z</time>
      </trkpt>
      <trkpt lat="38.3360250" lon="-0.6937910">
        <ele>299.0</ele>
        <time>2018-04-28T07:03:06Z</time>
      </trkpt>
      <trkpt lat="38.3359720" lon="-0.6937670">
        <ele>299.0</ele>
        <time>2018-04-28T07:03:07Z</time>
      </trkpt>
      <trkpt lat="38.3359200" lon="-0.6937420">
        <ele>298.9</ele>
        <time>2018-04-28T07:03:08Z</time>
      </trkpt>
      <trkpt lat="38.3358660" lon="-0.6937180">
        <ele>298.8</ele>
        <time>2018-04-28T07:03:09Z</time>
      </trkpt>
      <trkpt lat="38.3358110" lon="-0.6936930">
        <ele>298.8</ele>
        <time>2018-04-28T07:03:10Z</time>
      </trkpt>
      <trkpt lat="38.3357510" lon="-0.6936700">
        <ele>298.7</ele>
        <time>2018-04-28T07:03:11Z</time>
      </trkpt>
      <trkpt lat="38.3356930" lon="-0.6936520">
        <ele>298.7</ele>
        <time>2018-04-28T07:03:12Z</time>
      </trkpt>
      <trkpt lat="38.3356290" lon="-0.6936420">
        <ele>298.6</ele>
        <time>2018-04-28T07:03:13Z</time>
      </trkpt>
      <trkpt lat="38.3355650" lon="-0.6936340">
        <ele>298.6</ele>
        <time>2018-04-28T07:03:14Z</time>
      </trkpt>
      <trkpt lat="38.3355020" lon="-0.6936330">
        <ele>298.5</ele>
        <time>2018-04-28T07:03:15Z</time>
      </trkpt>
      <trkpt lat="38.3354410" lon="-0.6936330">
        <ele>298.5</ele>
        <time>2018-04-28T07:03:16Z</time>
      </trkpt>
      <trkpt lat="38.3353790" lon="-0.6936350">
        <ele>298.4</ele>
        <time>2018-04-28T07:03:17Z</time>
      </trkpt>
      <trkpt lat="38.3353150" lon="-0.6936550">
        <ele>298.4</ele>
        <time>2018-04-28T07:03:18Z</time>
      </trkpt>
      <trkpt lat="38.3352520" lon="-0.6936710">
        <ele>298.3</ele>
        <time>2018-04-28T07:03:19Z</time>
      </trkpt>
      <trkpt lat="38.3351880" lon="-0.6936780">
        <ele>298.2</ele>
        <time>2018-04-28T07:03:20Z</time>
      </trkpt>
      <trkpt lat="38.3351230" lon="-0.6936800">
        <ele>298.0</ele>
        <time>2018-04-28T07:03:21Z</time>
      </trkpt>
      <trkpt lat="38.3350590" lon="-0.6936820">
        <ele>297.9</ele>
        <time>2018-04-28T07:03:22Z</time>
      </trkpt>
      <trkpt lat="38.3349970" lon="-0.6936690">
        <ele>297.7</ele>
        <time>2018-04-28T07:03:23Z</time>
      </trkpt>
      <trkpt lat="38.3349270" lon="-0.6936510">
        <ele>297.5</ele>
        <time>2018-04-28T07:03:24Z</time>
      </trkpt>
      <trkpt lat="38.3348510" lon="-0.6936490">
        <ele>297.2</ele>
        <time>2018-04-28T07:03:25Z</time>
      </trkpt>
      <trkpt lat="38.3347750" lon="-0.6936530">
        <ele>296.9</ele>
        <time>2018-04-28T07:03:26Z</time>
      </trkpt>
      <trkpt lat="38.3346990" lon="-0.6936570">
        <ele>296.7</ele>
        <time>2018-04-28T07:03:27Z</time>
      </trkpt>
      <trkpt lat="38.3346240" lon="-0.6936620">
        <ele>296.5</ele>
        <time>2018-04-28T07:03:28Z</time>
      </trkpt>
      <trkpt lat="38.3345450" lon="-0.6936700">
        <ele>296.3</ele>
        <time>2018-04-28T07:03:29Z</time>
      </trkpt>
      <trkpt lat="38.3344700" lon="-0.6936770">
        <ele>296.1</ele>
        <time>2018-04-28T07:03:30Z</time>
      </trkpt>
      <trkpt lat="38.3343930" lon="-0.6936840">
        <ele>295.8</ele>
        <time>2018-04-28T07:03:31Z</time>
      </trkpt>
      <trkpt lat="38.3343150" lon="-0.6936880">
        <ele>295.5</ele>
        <time>2018-04-28T07:03:32Z</time>
      </trkpt>
      <trkpt lat="38.3342350" lon="-0.6936920">
        <ele>295.2</ele>
        <time>2018-04-28T07:03:33Z</time>
      </trkpt>
      <trkpt lat="38.3341540" lon="-0.6936970">
        <ele>294.7</ele>
        <time>2018-04-28T07:03:34Z</time>
      </trkpt>
      <trkpt lat="38.3340720" lon="-0.6936970">
        <ele>294.3</ele>
        <time>2018-04-28T07:03:35Z</time>
      </trkpt>
      <trkpt lat="38.3339870" lon="-0.6936970">
        <ele>293.5</ele>
        <time>2018-04-28T07:03:36Z</time>
      </trkpt>
      <trkpt lat="38.3339010" lon="-0.6936920">
        <ele>292.9</ele>
        <time>2018-04-28T07:03:37Z</time>
      </trkpt>
      <trkpt lat="38.3338100" lon="-0.6936810">
        <ele>292.3</ele>
        <time>2018-04-28T07:03:38Z</time>
      </trkpt>
      <trkpt lat="38.3337190" lon="-0.6936630">
        <ele>291.2</ele>
        <time>2018-04-28T07:03:39Z</time>
      </trkpt>
      <trkpt lat="38.3336250" lon="-0.6936380">
        <ele>290.5</ele>
        <time>2018-04-28T07:03:40Z</time>
      </trkpt>
      <trkpt lat="38.3335310" lon="-0.6936120">
        <ele>290.0</ele>
        <time>2018-04-28T07:03:41Z</time>
      </trkpt>
      <trkpt lat="38.3334360" lon="-0.6935900">
        <ele>289.5</ele>
        <time>2018-04-28T07:03:42Z</time>
      </trkpt>
      <trkpt lat="38.3333520" lon="-0.6935730">
        <ele>289.0</ele>
        <time>2018-04-28T07:03:43Z</time>
      </trkpt>
      <trkpt lat="38.3332750" lon="-0.6935720">
        <ele>288.3</ele>
        <time>2018-04-28T07:03:44Z</time>
      </trkpt>
      <trkpt lat="38.3332090" lon="-0.6935680">
        <ele>287.7</ele>
        <time>2018-04-28T07:03:45Z</time>
      </trkpt>
      <trkpt lat="38.3331340" lon="-0.6935750">
        <ele>287.2</ele>
        <time>2018-04-28T07:03:46Z</time>
      </trkpt>
      <trkpt lat="38.3330580" lon="-0.6935820">
        <ele>286.8</ele>
        <time>2018-04-28T07:03:47Z</time>
      </trkpt>
      <trkpt lat="38.3329790" lon="-0.6935930">
        <ele>286.4</ele>
        <time>2018-04-28T07:03:48Z</time>
      </trkpt>
      <trkpt lat="38.3329020" lon="-0.6935990">
        <ele>285.9</ele>
        <time>2018-04-28T07:03:49Z</time>
      </trkpt>
      <trkpt lat="38.3328260" lon="-0.6936030">
        <ele>285.4</ele>
        <time>2018-04-28T07:03:50Z</time>
      </trkpt>
      <trkpt lat="38.3327460" lon="-0.6936030">
        <ele>284.7</ele>
        <time>2018-04-28T07:03:51Z</time>
      </trkpt>
      <trkpt lat="38.3326610" lon="-0.6935920">
        <ele>284.0</ele>
        <time>2018-04-28T07:03:52Z</time>
      </trkpt>
      <trkpt lat="38.3325760" lon="-0.6935770">
        <ele>283.0</ele>
        <time>2018-04-28T07:03:53Z</time>
      </trkpt>
      <trkpt lat="38.3324860" lon="-0.6935560">
        <ele>282.1</ele>
        <time>2018-04-28T07:03:54Z</time>
      </trkpt>
      <trkpt lat="38.3323970" lon="-0.6935320">
        <ele>281.2</ele>
        <time>2018-04-28T07:03:55Z</time>
      </trkpt>
      <trkpt lat="38.3323030" lon="-0.6935080">
        <ele>280.2</ele>
        <time>2018-04-28T07:03:56Z</time>
      </trkpt>
      <trkpt lat="38.3322020" lon="-0.6934810">
        <ele>279.0</ele>
        <time>2018-04-28T07:03:57Z</time>
      </trkpt>
      <trkpt lat="38.3320920" lon="-0.6934620">
        <ele>277.8</ele>
        <time>2018-04-28T07:03:58Z</time>
      </trkpt>
      <trkpt lat="38.3320230" lon="-0.6934500">
        <ele>277.1</ele>
        <time>2018-04-28T07:03:59Z</time>
      </trkpt>
      <trkpt lat="38.3319490" lon="-0.6934270">
        <ele>276.3</ele>
        <time>2018-04-28T07:04:00Z</time>
      </trkpt>
      <trkpt lat="38.3318870" lon="-0.6933910">
        <ele>275.8</ele>
        <time>2018-04-28T07:04:01Z</time>
      </trkpt>
      <trkpt lat="38.3318390" lon="-0.6933480">
        <ele>275.3</ele>
        <time>2018-04-28T07:04:02Z</time>
      </trkpt>
      <trkpt lat="38.3317950" lon="-0.6933000">
        <ele>274.9</ele>
        <time>2018-04-28T07:04:03Z</time>
      </trkpt>
      <trkpt lat="38.3317930" lon="-0.6932390">
        <ele>274.9</ele>
        <time>2018-04-28T07:04:04Z</time>
      </trkpt>
      <trkpt lat="38.3317930" lon="-0.6931780">
        <ele>274.8</ele>
        <time>2018-04-28T07:04:05Z</time>
      </trkpt>
      <trkpt lat="38.3318000" lon="-0.6931110">
        <ele>274.8</ele>
        <time>2018-04-28T07:04:06Z</time>
      </trkpt>
      <trkpt lat="38.3318040" lon="-0.6930390">
        <ele>274.7</ele>
        <time>2018-04-28T07:04:07Z</time>
      </trkpt>
      <trkpt lat="38.3318040" lon="-0.6929660">
        <ele>274.6</ele>
        <time>2018-04-28T07:04:08Z</time>
      </trkpt>
      <trkpt lat="38.3318020" lon="-0.6928940">
        <ele>274.5</ele>
        <time>2018-04-28T07:04:09Z</time>
      </trkpt>
      <trkpt lat="38.3317980" lon="-0.6928220">
        <ele>274.4</ele>
        <time>2018-04-28T07:04:10Z</time>
      </trkpt>
      <trkpt lat="38.3317940" lon="-0.6927450">
        <ele>274.3</ele>
        <time>2018-04-28T07:04:11Z</time>
      </trkpt>
      <trkpt lat="38.3317950" lon="-0.6926670">
        <ele>274.2</ele>
        <time>2018-04-28T07:04:12Z</time>
      </trkpt>
      <trkpt lat="38.3317930" lon="-0.6925870">
        <ele>274.1</ele>
        <time>2018-04-28T07:04:13Z</time>
      </trkpt>
      <trkpt lat="38.3317910" lon="-0.6925060">
        <ele>274.0</ele>
        <time>2018-04-28T07:04:14Z</time>
      </trkpt>
      <trkpt lat="38.3317900" lon="-0.6924240">
        <ele>273.9</ele>
        <time>2018-04-28T07:04:15Z</time>
      </trkpt>
      <trkpt lat="38.3317860" lon="-0.6923430">
        <ele>273.8</ele>
        <time>2018-04-28T07:04:16Z</time>
      </trkpt>
      <trkpt lat="38.3317810" lon="-0.6922620">
        <ele>273.7</ele>
        <time>2018-04-28T07:04:17Z</time>
      </trkpt>
      <trkpt lat="38.3317770" lon="-0.6921810">
        <ele>273.6</ele>
        <time>2018-04-28T07:04:18Z</time>
      </trkpt>
      <trkpt lat="38.3317740" lon="-0.6921020">
        <ele>273.5</ele>
        <time>2018-04-28T07:04:19Z</time>
      </trkpt>
      <trkpt lat="38.3317710" lon="-0.6920220">
        <ele>273.4</ele>
        <time>2018-04-28T07:04:20Z</time>
      </trkpt>
      <trkpt lat="38.3317690" lon="-0.6919410">
        <ele>273.3</ele>
        <time>2018-04-28T07:04:21Z</time>
      </trkpt>
      <trkpt lat="38.3317680" lon="-0.6918580">
        <ele>273.1</ele>
        <time>2018-04-28T07:04:22Z</time>
      </trkpt>
      <trkpt lat="38.3317690" lon="-0.6917750">
        <ele>273.0</ele>
        <time>2018-04-28T07:04:23Z</time>
      </trkpt>
      <trkpt lat="38.3317660" lon="-0.6916910">
        <ele>272.9</ele>
        <time>2018-04-28T07:04:24Z</time>
      </trkpt>
      <trkpt lat="38.3317640" lon="-0.6916080">
        <ele>272.7</ele>
        <time>2018-04-28T07:04:25Z</time>
      </trkpt>
      <trkpt lat="38.3317610" lon="-0.6915240">
        <ele>272.7</ele>
        <time>2018-04-28T07:04:26Z</time>
      </trkpt>
      <trkpt lat="38.3317590" lon="-0.6914390">
        <ele>272.6</ele>
        <time>2018-04-28T07:04:27Z</time>
      </trkpt>
      <trkpt lat="38.3317580" lon="-0.6913530">
        <ele>272.5</ele>
        <time>2018-04-28T07:04:28Z</time>
      </trkpt>
      <trkpt lat="38.3317580" lon="-0.6912680">
        <ele>272.3</ele>
        <time>2018-04-28T07:04:29Z</time>
      </trkpt>
      <trkpt lat="38.3317570" lon="-0.6911810">
        <ele>272.2</ele>
        <time>2018-04-28T07:04:30Z</time>
      </trkpt>
      <trkpt lat="38.3317550" lon="-0.6910920">
        <ele>272.0</ele>
        <time>2018-04-28T07:04:31Z</time>
      </trkpt>
      <trkpt lat="38.3317510" lon="-0.6910030">
        <ele>271.9</ele>
        <time>2018-04-28T07:04:32Z</time>
      </trkpt>
      <trkpt lat="38.3317480" lon="-0.6909150">
        <ele>271.8</ele>
        <time>2018-04-28T07:04:33Z</time>
      </trkpt>
      <trkpt lat="38.3317520" lon="-0.6908290">
        <ele>271.7</ele>
        <time>2018-04-28T07:04:34Z</time>
      </trkpt>
      <trkpt lat="38.3317500" lon="-0.6907450">
        <ele>271.5</ele>
        <time>2018-04-28T07:04:35Z</time>
      </trkpt>
      <trkpt lat="38.3317420" lon="-0.6906600">
        <ele>271.2</ele>
        <time>2018-04-28T07:04:36Z</time>
      </trkpt>
      <trkpt lat="38.3317330" lon="-0.6905770">
        <ele>270.9</ele>
        <time>2018-04-28T07:04:37Z</time>
      </trkpt>
      <trkpt lat="38.3317210" lon="-0.6904940">
        <ele>270.6</ele>
        <time>2018-04-28T07:04:38Z</time>
      </trkpt>
      <trkpt lat="38.3317060" lon="-0.6904100">
        <ele>270.3</ele>
        <time>2018-04-28T07:04:39Z</time>
      </trkpt>
      <trkpt lat="38.3316860" lon="-0.6903280">
        <ele>269.7</ele>
        <time>2018-04-28T07:04:40Z</time>
      </trkpt>
      <trkpt lat="38.3316570" lon="-0.6902470">
        <ele>269.2</ele>
        <time>2018-04-28T07:04:41Z</time>
      </trkpt>
      <trkpt lat="38.3316130" lon="-0.6901670">
        <ele>268.5</ele>
        <time>2018-04-28T07:04:42Z</time>
      </trkpt>
      <trkpt lat="38.3315610" lon="-0.6900890">
        <ele>267.5</ele>
        <time>2018-04-28T07:04:43Z</time>
      </trkpt>
      <trkpt lat="38.3315060" lon="-0.6900150">
        <ele>266.7</ele>
        <time>2018-04-28T07:04:44Z</time>
      </trkpt>
      <trkpt lat="38.3314630" lon="-0.6899620">
        <ele>265.9</ele>
        <time>2018-04-28T07:04:45Z</time>
      </trkpt>
      <trkpt lat="38.3314330" lon="-0.6899200">
        <ele>265.6</ele>
        <time>2018-04-28T07:04:46Z</time>
      </trkpt>
      <trkpt lat="38.3314140" lon="-0.6898760">
        <ele>265.4</ele>
        <time>2018-04-28T07:04:47Z</time>
      </trkpt>
      <trkpt lat="38.3314050" lon="-0.6898370">
        <ele>265.2</ele>
        <time>2018-04-28T07:04:48Z</time>
      </trkpt>
      <trkpt lat="38.3314010" lon="-0.6897850">
        <ele>264.9</ele>
        <time>2018-04-28T07:04:49Z</time>
      </trkpt>
      <trkpt lat="38.3313980" lon="-0.6897200">
        <ele>264.6</ele>
        <time>2018-04-28T07:04:50Z</time>
      </trkpt>
      <trkpt lat="38.3313950" lon="-0.6896480">
        <ele>264.3</ele>
        <time>2018-04-28T07:04:51Z</time>
      </trkpt>
      <trkpt lat="38.3313900" lon="-0.6895740">
        <ele>264.2</ele>
        <time>2018-04-28T07:04:52Z</time>
      </trkpt>
      <trkpt lat="38.3313790" lon="-0.6894970">
        <ele>263.7</ele>
        <time>2018-04-28T07:04:53Z</time>
      </trkpt>
      <trkpt lat="38.3313630" lon="-0.6894190">
        <ele>263.6</ele>
        <time>2018-04-28T07:04:54Z</time>
      </trkpt>
      <trkpt lat="38.3313430" lon="-0.6893420">
        <ele>263.1</ele>
        <time>2018-04-28T07:04:55Z</time>
      </trkpt>
      <trkpt lat="38.3313210" lon="-0.6892660">
        <ele>262.7</ele>
        <time>2018-04-28T07:04:56Z</time>
      </trkpt>
      <trkpt lat="38.3312970" lon="-0.6891940">
        <ele>262.7</ele>
        <time>2018-04-28T07:04:57Z</time>
      </trkpt>
      <trkpt lat="38.3312740" lon="-0.6891240">
        <ele>262.4</ele>
        <time>2018-04-28T07:04:58Z</time>
      </trkpt>
      <trkpt lat="38.3312550" lon="-0.6890660">
        <ele>261.8</ele>
        <time>2018-04-28T07:04:59Z</time>
      </trkpt>
      <trkpt lat="38.3312380" lon="-0.6890120">
        <ele>261.3</ele>
        <time>2018-04-28T07:05:00Z</time>
      </trkpt>
      <trkpt lat="38.3312190" lon="-0.6889860">
        <ele>261.0</ele>
        <time>2018-04-28T07:05:01Z</time>
      </trkpt>
      <trkpt lat="38.3311930" lon="-0.6889720">
        <ele>260.6</ele>
        <time>2018-04-28T07:05:02Z</time>
      </trkpt>
      <trkpt lat="38.3311580" lon="-0.6889560">
        <ele>260.1</ele>
        <time>2018-04-28T07:05:03Z</time>
      </trkpt>
      <trkpt lat="38.3311260" lon="-0.6889420">
        <ele>259.6</ele>
        <time>2018-04-28T07:05:04Z</time>
      </trkpt>
      <trkpt lat="38.3310950" lon="-0.6889300">
        <ele>259.3</ele>
        <time>2018-04-28T07:05:05Z</time>
      </trkpt>
      <trkpt lat="38.3310660" lon="-0.6889150">
        <ele>258.9</ele>
        <time>2018-04-28T07:05:06Z</time>
      </trkpt>
      <trkpt lat="38.3310370" lon="-0.6888990">
        <ele>258.6</ele>
        <time>2018-04-28T07:05:07Z</time>
      </trkpt>
      <trkpt lat="38.3310030" lon="-0.6888810">
        <ele>257.6</ele>
        <time>2018-04-28T07:05:08Z</time>
      </trkpt>
      <trkpt lat="38.3309860" lon="-0.6888570">
        <ele>257.1</ele>
        <time>2018-04-28T07:05:09Z</time>
      </trkpt>
      <trkpt lat="38.3309790" lon="-0.6888300">
        <ele>256.7</ele>
        <time>2018-04-28T07:05:10Z</time>
      </trkpt>
      <trkpt lat="38.3309730" lon="-0.6887990">
        <ele>256.2</ele>
        <time>2018-04-28T07:05:11Z</time>
      </trkpt>
      <trkpt lat="38.3309700" lon="-0.6887590">
        <ele>255.7</ele>
        <time>2018-04-28T07:05:12Z</time>
      </trkpt>
      <trkpt lat="38.3309680" lon="-0.6887150">
        <ele>255.3</ele>
        <time>2018-04-28T07:05:13Z</time>
      </trkpt>
      <trkpt lat="38.3309650" lon="-0.6886650">
        <ele>254.8</ele>
        <time>2018-04-28T07:05:14Z</time>
      </trkpt>
      <trkpt lat="38.3309660" lon="-0.6886100">
        <ele>254.1</ele>
        <time>2018-04-28T07:05:15Z</time>
      </trkpt>
      <trkpt lat="38.3309650" lon="-0.6885470">
        <ele>253.8</ele>
        <time>2018-04-28T07:05:16Z</time>
      </trkpt>
      <trkpt lat="38.3309650" lon="-0.6884810">
        <ele>253.4</ele>
        <time>2018-04-28T07:05:17Z</time>
      </trkpt>
      <trkpt lat="38.3309640" lon="-0.6884150">
        <ele>253.1</ele>
        <time>2018-04-28T07:05:18Z</time>
      </trkpt>
      <trkpt lat="38.3309560" lon="-0.6883420">
        <ele>253.0</ele>
        <time>2018-04-28T07:05:19Z</time>
      </trkpt>
      <trkpt lat="38.3309570" lon="-0.6882590">
        <ele>253.2</ele>
        <time>2018-04-28T07:05:20Z</time>
      </trkpt>
      <trkpt lat="38.3309560" lon="-0.6881740">
        <ele>253.5</ele>
        <time>2018-04-28T07:05:21Z</time>
      </trkpt>
      <trkpt lat="38.3309540" lon="-0.6880870">
        <ele>253.9</ele>
        <time>2018-04-28T07:05:22Z</time>
      </trkpt>
      <trkpt lat="38.3309440" lon="-0.6879870">
        <ele>253.6</ele>
        <time>2018-04-28T07:05:23Z</time>
      </trkpt>
      <trkpt lat="38.3309470" lon="-0.6879070">
        <ele>253.7</ele>
        <time>2018-04-28T07:05:24Z</time>
      </trkpt>
      <trkpt lat="38.3309470" lon="-0.6878400">
        <ele>253.8</ele>
        <time>2018-04-28T07:05:25Z</time>
      </trkpt>
      <trkpt lat="38.3309390" lon="-0.6877890">
        <ele>253.9</ele>
        <time>2018-04-28T07:05:26Z</time>
      </trkpt>
      <trkpt lat="38.3309350" lon="-0.6877290">
        <ele>253.9</ele>
        <time>2018-04-28T07:05:27Z</time>
      </trkpt>
      <trkpt lat="38.3309280" lon="-0.6876670">
        <ele>253.9</ele>
        <time>2018-04-28T07:05:28Z</time>
      </trkpt>
      <trkpt lat="38.3309230" lon="-0.6876020">
        <ele>254.0</ele>
        <time>2018-04-28T07:05:29Z</time>
      </trkpt>
      <trkpt lat="38.3309220" lon="-0.6875290">
        <ele>254.0</ele>
        <time>2018-04-28T07:05:30Z</time>
      </trkpt>
      <trkpt lat="38.3309240" lon="-0.6874510">
        <ele>254.1</ele>
        <time>2018-04-28T07:05:31Z</time>
      </trkpt>
      <trkpt lat="38.3309330" lon="-0.6873760">
        <ele>254.1</ele>
        <time>2018-04-28T07:05:32Z</time>
      </trkpt>
      <trkpt lat="38.3309440" lon="-0.6873070">
        <ele>254.2</ele>
        <time>2018-04-28T07:05:33Z</time>
      </trkpt>
      <trkpt lat="38.3309430" lon="-0.6872600">
        <ele>254.2</ele>
        <time>2018-04-28T07:05:34Z</time>
      </trkpt>
      <trkpt lat="38.3309450" lon="-0.6872160">
        <ele>254.3</ele>
        <time>2018-04-28T07:05:35Z</time>
      </trkpt>
      <trkpt lat="38.3309400" lon="-0.6871780">
        <ele>254.4</ele>
        <time>2018-04-28T07:05:36Z</time>
      </trkpt>
      <trkpt lat="38.3309340" lon="-0.6871470">
        <ele>254.4</ele>
        <time>2018-04-28T07:05:37Z</time>
      </trkpt>
      <trkpt lat="38.3309300" lon="-0.6871140">
        <ele>254.5</ele>
        <time>2018-04-28T07:05:38Z</time>
      </trkpt>
      <trkpt lat="38.3309300" lon="-0.6870810">
        <ele>254.5</ele>
        <time>2018-04-28T07:05:39Z</time>
      </trkpt>
      <trkpt lat="38.3309290" lon="-0.6870470">
        <ele>254.6</ele>
        <time>2018-04-28T07:05:40Z</time>
      </trkpt>
      <trkpt lat="38.3309320" lon="-0.6870140">
        <ele>254.7</ele>
        <time>2018-04-28T07:05:41Z</time>
      </trkpt>
      <trkpt lat="38.3309290" lon="-0.6869760">
        <ele>254.7</ele>
        <time>2018-04-28T07:05:42Z</time>
      </trkpt>
      <trkpt lat="38.3309290" lon="-0.6869360">
        <ele>254.8</ele>
        <time>2018-04-28T07:05:43Z</time>
      </trkpt>
      <trkpt lat="38.3309300" lon="-0.6868940">
        <ele>254.8</ele>
        <time>2018-04-28T07:05:44Z</time>
      </trkpt>
      <trkpt lat="38.3309290" lon="-0.6868480">
        <ele>254.9</ele>
        <time>2018-04-28T07:05:45Z</time>
      </trkpt>
      <trkpt lat="38.3309290" lon="-0.6868020">
        <ele>255.0</ele>
        <time>2018-04-28T07:05:46Z</time>
      </trkpt>
      <trkpt lat="38.3309280" lon="-0.6867550">
        <ele>255.0</ele>
        <time>2018-04-28T07:05:47Z</time>
      </trkpt>
      <trkpt lat="38.3309270" lon="-0.6867040">
        <ele>255.1</ele>
        <time>2018-04-28T07:05:48Z</time>
      </trkpt>
      <trkpt lat="38.3309250" lon="-0.6866440">
        <ele>255.2</ele>
        <time>2018-04-28T07:05:49Z</time>
      </trkpt>
      <trkpt lat="38.3309260" lon="-0.6865850">
        <ele>255.3</ele>
        <time>2018-04-28T07:05:50Z</time>
      </trkpt>
      <trkpt lat="38.3309320" lon="-0.6865110">
        <ele>255.3</ele>
        <time>2018-04-28T07:05:51Z</time>
      </trkpt>
      <trkpt lat="38.3309280" lon="-0.6864110">
        <ele>255.4</ele>
        <time>2018-04-28T07:05:52Z</time>
      </trkpt>
      <trkpt lat="38.3309200" lon="-0.6863040">
        <ele>255.4</ele>
        <time>2018-04-28T07:05:53Z</time>
      </trkpt>
      <trkpt lat="38.3309240" lon="-0.6862040">
        <ele>255.2</ele>
        <time>2018-04-28T07:05:54Z</time>
      </trkpt>
      <trkpt lat="38.3309270" lon="-0.6861120">
        <ele>255.1</ele>
        <time>2018-04-28T07:05:55Z</time>
      </trkpt>
      <trkpt lat="38.3309140" lon="-0.6860270">
        <ele>254.3</ele>
        <time>2018-04-28T07:05:56Z</time>
      </trkpt>
      <trkpt lat="38.3309160" lon="-0.6859370">
        <ele>254.3</ele>
        <time>2018-04-28T07:05:57Z</time>
      </trkpt>
      <trkpt lat="38.3309190" lon="-0.6858440">
        <ele>255.0</ele>
        <time>2018-04-28T07:05:58Z</time>
      </trkpt>
      <trkpt lat="38.3309240" lon="-0.6857700">
        <ele>255.0</ele>
        <time>2018-04-28T07:05:59Z</time>
      </trkpt>
      <trkpt lat="38.3309240" lon="-0.6857160">
        <ele>255.0</ele>
        <time>2018-04-28T07:06:00Z</time>
      </trkpt>
      <trkpt lat="38.3309200" lon="-0.6856740">
        <ele>255.0</ele>
        <time>2018-04-28T07:06:01Z</time>
      </trkpt>
      <trkpt lat="38.3309210" lon="-0.6856340">
        <ele>255.0</ele>
        <time>2018-04-28T07:06:02Z</time>
      </trkpt>
      <trkpt lat="38.3309260" lon="-0.6855840">
        <ele>254.9</ele>
        <time>2018-04-28T07:06:03Z</time>
      </trkpt>
      <trkpt lat="38.3309260" lon="-0.6855270">
        <ele>254.6</ele>
        <time>2018-04-28T07:06:04Z</time>
      </trkpt>
      <trkpt lat="38.3309300" lon="-0.6854650">
        <ele>254.5</ele>
        <time>2018-04-28T07:06:05Z</time>
      </trkpt>
      <trkpt lat="38.3309320" lon="-0.6854090">
        <ele>254.4</ele>
        <time>2018-04-28T07:06:06Z</time>
      </trkpt>
      <trkpt lat="38.3309330" lon="-0.6853560">
        <ele>254.3</ele>
        <time>2018-04-28T07:06:07Z</time>
      </trkpt>
      <trkpt lat="38.3309270" lon="-0.6852990">
        <ele>254.2</ele>
        <time>2018-04-28T07:06:08Z</time>
      </trkpt>
      <trkpt lat="38.3309240" lon="-0.6852400">
        <ele>254.1</ele>
        <time>2018-04-28T07:06:09Z</time>
      </trkpt>
      <trkpt lat="38.3309200" lon="-0.6851790">
        <ele>253.8</ele>
        <time>2018-04-28T07:06:10Z</time>
      </trkpt>
      <trkpt lat="38.3309200" lon="-0.6851170">
        <ele>253.6</ele>
        <time>2018-04-28T07:06:11Z</time>
      </trkpt>
      <trkpt lat="38.3309200" lon="-0.6850600">
        <ele>253.3</ele>
        <time>2018-04-28T07:06:12Z</time>
      </trkpt>
      <trkpt lat="38.3309180" lon="-0.6850040">
        <ele>253.1</ele>
        <time>2018-04-28T07:06:13Z</time>
      </trkpt>
      <trkpt lat="38.3309180" lon="-0.6849420">
        <ele>252.9</ele>
        <time>2018-04-28T07:06:14Z</time>
      </trkpt>
      <trkpt lat="38.3309180" lon="-0.6848730">
        <ele>252.7</ele>
        <time>2018-04-28T07:06:15Z</time>
      </trkpt>
      <trkpt lat="38.3309160" lon="-0.6848010">
        <ele>252.5</ele>
        <time>2018-04-28T07:06:16Z</time>
      </trkpt>
      <trkpt lat="38.3309140" lon="-0.6847330">
        <ele>252.3</ele>
        <time>2018-04-28T07:06:17Z</time>
      </trkpt>
      <trkpt lat="38.3309120" lon="-0.6846660">
        <ele>252.2</ele>
        <time>2018-04-28T07:06:18Z</time>
      </trkpt>
      <trkpt lat="38.3309100" lon="-0.6845970">
        <ele>252.1</ele>
        <time>2018-04-28T07:06:19Z</time>
      </trkpt>
      <trkpt lat="38.3309080" lon="-0.6845260">
        <ele>251.9</ele>
        <time>2018-04-28T07:06:20Z</time>
      </trkpt>
      <trkpt lat="38.3309080" lon="-0.6844560">
        <ele>251.9</ele>
        <time>2018-04-28T07:06:21Z</time>
      </trkpt>
      <trkpt lat="38.3309020" lon="-0.6843890">
        <ele>251.8</ele>
        <time>2018-04-28T07:06:22Z</time>
      </trkpt>
      <trkpt lat="38.3308920" lon="-0.6843180">
        <ele>251.8</ele>
        <time>2018-04-28T07:06:23Z</time>
      </trkpt>
      <trkpt lat="38.3308810" lon="-0.6842520">
        <ele>251.8</ele>
        <time>2018-04-28T07:06:24Z</time>
      </trkpt>
      <trkpt lat="38.3308750" lon="-0.6841840">
        <ele>251.9</ele>
        <time>2018-04-28T07:06:25Z</time>
      </trkpt>
      <trkpt lat="38.3308860" lon="-0.6841180">
        <ele>251.9</ele>
        <time>2018-04-28T07:06:26Z</time>
      </trkpt>
      <trkpt lat="38.3308970" lon="-0.6840590">
        <ele>251.9</ele>
        <time>2018-04-28T07:06:27Z</time>
      </trkpt>
      <trkpt lat="38.3309040" lon="-0.6840000">
        <ele>252.0</ele>
        <time>2018-04-28T07:06:28Z</time>
      </trkpt>
      <trkpt lat="38.3309000" lon="-0.6839510">
        <ele>251.6</ele>
        <time>2018-04-28T07:06:29Z</time>
      </trkpt>
      <trkpt lat="38.3308880" lon="-0.6839220">
        <ele>251.3</ele>
        <time>2018-04-28T07:06:30Z</time>
      </trkpt>
      <trkpt lat="38.3308610" lon="-0.6838860">
        <ele>250.9</ele>
        <time>2018-04-28T07:06:31Z</time>
      </trkpt>
      <trkpt lat="38.3308110" lon="-0.6838460">
        <ele>250.3</ele>
        <time>2018-04-28T07:06:32Z</time>
      </trkpt>
      <trkpt lat="38.3307600" lon="-0.6837930">
        <ele>249.7</ele>
        <time>2018-04-28T07:06:33Z</time>
      </trkpt>
      <trkpt lat="38.3307050" lon="-0.6837300">
        <ele>249.0</ele>
        <time>2018-04-28T07:06:34Z</time>
      </trkpt>
      <trkpt lat="38.3306400" lon="-0.6836610">
        <ele>248.4</ele>
        <time>2018-04-28T07:06:35Z</time>
      </trkpt>
      <trkpt lat="38.3305760" lon="-0.6835940">
        <ele>247.8</ele>
        <time>2018-04-28T07:06:36Z</time>
      </trkpt>
      <trkpt lat="38.3305140" lon="-0.6835240">
        <ele>247.3</ele>
        <time>2018-04-28T07:06:37Z</time>
      </trkpt>
      <trkpt lat="38.3304510" lon="-0.6834550">
        <ele>247.2</ele>
        <time>2018-04-28T07:06:38Z</time>
      </trkpt>
      <trkpt lat="38.3303840" lon="-0.6833870">
        <ele>247.1</ele>
        <time>2018-04-28T07:06:39Z</time>
      </trkpt>
      <trkpt lat="38.3303180" lon="-0.6833200">
        <ele>247.0</ele>
        <time>2018-04-28T07:06:40Z</time>
      </trkpt>
      <trkpt lat="38.3302480" lon="-0.6832500">
        <ele>246.9</ele>
        <time>2018-04-28T07:06:41Z</time>
      </trkpt>
      <trkpt lat="38.3301760" lon="-0.6831760">
        <ele>246.8</ele>
        <time>2018-04-28T07:06:42Z</time>
      </trkpt>
      <trkpt lat="38.3301080" lon="-0.6831020">
        <ele>246.8</ele>
        <time>2018-04-28T07:06:43Z</time>
      </trkpt>
      <trkpt lat="38.3300410" lon="-0.6830260">
        <ele>246.7</ele>
        <time>2018-04-28T07:06:44Z</time>
      </trkpt>
      <trkpt lat="38.3299760" lon="-0.6829500">
        <ele>246.7</ele>
        <time>2018-04-28T07:06:45Z</time>
      </trkpt>
      <trkpt lat="38.3299100" lon="-0.6828740">
        <ele>246.6</ele>
        <time>2018-04-28T07:06:46Z</time>
      </trkpt>
      <trkpt lat="38.3298460" lon="-0.6827990">
        <ele>246.6</ele>
        <time>2018-04-28T07:06:47Z</time>
      </trkpt>
      <trkpt lat="38.3297780" lon="-0.6827270">
        <ele>246.6</ele>
        <time>2018-04-28T07:06:48Z</time>
      </trkpt>
      <trkpt lat="38.3297170" lon="-0.6826540">
        <ele>246.5</ele>
        <time>2018-04-28T07:06:49Z</time>
      </trkpt>
      <trkpt lat="38.3296660" lon="-0.6825810">
        <ele>246.5</ele>
        <time>2018-04-28T07:06:50Z</time>
      </trkpt>
      <trkpt lat="38.3296080" lon="-0.6825150">
        <ele>246.5</ele>
        <time>2018-04-28T07:06:51Z</time>
      </trkpt>
      <trkpt lat="38.3295540" lon="-0.6824550">
        <ele>246.4</ele>
        <time>2018-04-28T07:06:52Z</time>
      </trkpt>
      <trkpt lat="38.3295010" lon="-0.6823960">
        <ele>246.4</ele>
        <time>2018-04-28T07:06:53Z</time>
      </trkpt>
      <trkpt lat="38.3294480" lon="-0.6823370">
        <ele>246.3</ele>
        <time>2018-04-28T07:06:54Z</time>
      </trkpt>
      <trkpt lat="38.3293930" lon="-0.6822800">
        <ele>246.2</ele>
        <time>2018-04-28T07:06:55Z</time>
      </trkpt>
      <trkpt lat="38.3293360" lon="-0.6822260">
        <ele>246.1</ele>
        <time>2018-04-28T07:06:56Z</time>
      </trkpt>
      <trkpt lat="38.3292820" lon="-0.6821690">
        <ele>245.8</ele>
        <time>2018-04-28T07:06:57Z</time>
      </trkpt>
      <trkpt lat="38.3292310" lon="-0.6821120">
        <ele>245.2</ele>
        <time>2018-04-28T07:06:58Z</time>
      </trkpt>
      <trkpt lat="38.3291810" lon="-0.6820560">
        <ele>244.5</ele>
        <time>2018-04-28T07:06:59Z</time>
      </trkpt>
      <trkpt lat="38.3291310" lon="-0.6820010">
        <ele>243.8</ele>
        <time>2018-04-28T07:07:00Z</time>
      </trkpt>
      <trkpt lat="38.3290770" lon="-0.6819450">
        <ele>243.2</ele>
        <time>2018-04-28T07:07:01Z</time>
      </trkpt>
      <trkpt lat="38.3290120" lon="-0.6818940">
        <ele>242.4</ele>
        <time>2018-04-28T07:07:02Z</time>
      </trkpt>
      <trkpt lat="38.3289410" lon="-0.6818460">
        <ele>241.6</ele>
        <time>2018-04-28T07:07:03Z</time>
      </trkpt>
      <trkpt lat="38.3288630" lon="-0.6818090">
        <ele>241.0</ele>
        <time>2018-04-28T07:07:04Z</time>
      </trkpt>
      <trkpt lat="38.3287690" lon="-0.6817800">
        <ele>240.5</ele>
        <time>2018-04-28T07:07:05Z</time>
      </trkpt>
      <trkpt lat="38.3286730" lon="-0.6817520">
        <ele>239.6</ele>
        <time>2018-04-28T07:07:06Z</time>
      </trkpt>
      <trkpt lat="38.3285770" lon="-0.6817130">
        <ele>238.7</ele>
        <time>2018-04-28T07:07:07Z</time>
      </trkpt>
      <trkpt lat="38.3284780" lon="-0.6816690">
        <ele>238.0</ele>
        <time>2018-04-28T07:07:08Z</time>
      </trkpt>
      <trkpt lat="38.3283800" lon="-0.6816220">
        <ele>237.5</ele>
        <time>2018-04-28T07:07:09Z</time>
      </trkpt>
      <trkpt lat="38.3282820" lon="-0.6815750">
        <ele>236.7</ele>
        <time>2018-04-28T07:07:10Z</time>
      </trkpt>
      <trkpt lat="38.3281840" lon="-0.6815280">
        <ele>235.8</ele>
        <time>2018-04-28T07:07:11Z</time>
      </trkpt>
      <trkpt lat="38.3280860" lon="-0.6814780">
        <ele>235.1</ele>
        <time>2018-04-28T07:07:12Z</time>
      </trkpt>
      <trkpt lat="38.3279890" lon="-0.6814270">
        <ele>234.3</ele>
        <time>2018-04-28T07:07:13Z</time>
      </trkpt>
      <trkpt lat="38.3278920" lon="-0.6813760">
        <ele>233.6</ele>
        <time>2018-04-28T07:07:14Z</time>
      </trkpt>
      <trkpt lat="38.3277940" lon="-0.6813250">
        <ele>233.1</ele>
        <time>2018-04-28T07:07:15Z</time>
      </trkpt>
      <trkpt lat="38.3276960" lon="-0.6812760">
        <ele>232.9</ele>
        <time>2018-04-28T07:07:16Z</time>
      </trkpt>
      <trkpt lat="38.3276020" lon="-0.6812280">
        <ele>232.8</ele>
        <time>2018-04-28T07:07:17Z</time>
      </trkpt>
      <trkpt lat="38.3275250" lon="-0.6811870">
        <ele>232.7</ele>
        <time>2018-04-28T07:07:18Z</time>
      </trkpt>
      <trkpt lat="38.3274440" lon="-0.6811510">
        <ele>232.6</ele>
        <time>2018-04-28T07:07:19Z</time>
      </trkpt>
      <trkpt lat="38.3273600" lon="-0.6811180">
        <ele>232.6</ele>
        <time>2018-04-28T07:07:20Z</time>
      </trkpt>
      <trkpt lat="38.3272730" lon="-0.6810810">
        <ele>232.5</ele>
        <time>2018-04-28T07:07:21Z</time>
      </trkpt>
      <trkpt lat="38.3271820" lon="-0.6810410">
        <ele>232.5</ele>
        <time>2018-04-28T07:07:22Z</time>
      </trkpt>
      <trkpt lat="38.3270890" lon="-0.6809980">
        <ele>232.4</ele>
        <time>2018-04-28T07:07:23Z</time>
      </trkpt>
      <trkpt lat="38.3269980" lon="-0.6809560">
        <ele>232.4</ele>
        <time>2018-04-28T07:07:24Z</time>
      </trkpt>
      <trkpt lat="38.3269160" lon="-0.6809110">
        <ele>232.3</ele>
        <time>2018-04-28T07:07:25Z</time>
      </trkpt>
      <trkpt lat="38.3268330" lon="-0.6808670">
        <ele>232.2</ele>
        <time>2018-04-28T07:07:26Z</time>
      </trkpt>
      <trkpt lat="38.3267570" lon="-0.6808250">
        <ele>232.2</ele>
        <time>2018-04-28T07:07:27Z</time>
      </trkpt>
      <trkpt lat="38.3266880" lon="-0.6807840">
        <ele>232.1</ele>
        <time>2018-04-28T07:07:28Z</time>
      </trkpt>
      <trkpt lat="38.3266170" lon="-0.6807450">
        <ele>232.1</ele>
        <time>2018-04-28T07:07:29Z</time>
      </trkpt>
      <trkpt lat="38.3265450" lon="-0.6807110">
        <ele>232.0</ele>
        <time>2018-04-28T07:07:30Z</time>
      </trkpt>
      <trkpt lat="38.3264770" lon="-0.6806790">
        <ele>232.0</ele>
        <time>2018-04-28T07:07:31Z</time>
      </trkpt>
      <trkpt lat="38.3264060" lon="-0.6806480">
        <ele>232.2</ele>
        <time>2018-04-28T07:07:32Z</time>
      </trkpt>
      <trkpt lat="38.3263390" lon="-0.6806110">
        <ele>232.3</ele>
        <time>2018-04-28T07:07:33Z</time>
      </trkpt>
      <trkpt lat="38.3262750" lon="-0.6805710">
        <ele>232.4</ele>
        <time>2018-04-28T07:07:34Z</time>
      </trkpt>
      <trkpt lat="38.3262120" lon="-0.6805280">
        <ele>232.4</ele>
        <time>2018-04-28T07:07:35Z</time>
      </trkpt>
      <trkpt lat="38.3261540" lon="-0.6804800">
        <ele>232.3</ele>
        <time>2018-04-28T07:07:36Z</time>
      </trkpt>
      <trkpt lat="38.3261010" lon="-0.6804260">
        <ele>232.3</ele>
        <time>2018-04-28T07:07:37Z</time>
      </trkpt>
      <trkpt lat="38.3260570" lon="-0.6803620">
        <ele>232.2</ele>
        <time>2018-04-28T07:07:38Z</time>
      </trkpt>
      <trkpt lat="38.3260130" lon="-0.6802960">
        <ele>231.9</ele>
        <time>2018-04-28T07:07:39Z</time>
      </trkpt>
      <trkpt lat="38.3259720" lon="-0.6802290">
        <ele>231.7</ele>
        <time>2018-04-28T07:07:40Z</time>
      </trkpt>
      <trkpt lat="38.3259240" lon="-0.6801610">
        <ele>231.2</ele>
        <time>2018-04-28T07:07:41Z</time>
      </trkpt>
      <trkpt lat="38.3258650" lon="-0.6800950">
        <ele>230.5</ele>
        <time>2018-04-28T07:07:42Z</time>
      </trkpt>
      <trkpt lat="38.3258030" lon="-0.6800390">
        <ele>229.8</ele>
        <time>2018-04-28T07:07:43Z</time>
      </trkpt>
      <trkpt lat="38.3257270" lon="-0.6799870">
        <ele>228.9</ele>
        <time>2018-04-28T07:07:44Z</time>
      </trkpt>
      <trkpt lat="38.3256420" lon="-0.6799440">
        <ele>228.2</ele>
        <time>2018-04-28T07:07:45Z</time>
      </trkpt>
      <trkpt lat="38.3255580" lon="-0.6799160">
        <ele>227.6</ele>
        <time>2018-04-28T07:07:46Z</time>
      </trkpt>
      <trkpt lat="38.3254550" lon="-0.6799050">
        <ele>226.8</ele>
        <time>2018-04-28T07:07:47Z</time>
      </trkpt>
      <trkpt lat="38.3253550" lon="-0.6799100">
        <ele>226.4</ele>
        <time>2018-04-28T07:07:48Z</time>
      </trkpt>
      <trkpt lat="38.3252570" lon="-0.6799200">
        <ele>226.0</ele>
        <time>2018-04-28T07:07:49Z</time>
      </trkpt>
      <trkpt lat="38.3251590" lon="-0.6799290">
        <ele>225.7</ele>
        <time>2018-04-28T07:07:50Z</time>
      </trkpt>
      <trkpt lat="38.3250630" lon="-0.6799310">
        <ele>225.3</ele>
        <time>2018-04-28T07:07:51Z</time>
      </trkpt>
      <trkpt lat="38.3249690" lon="-0.6799220">
        <ele>224.9</ele>
        <time>2018-04-28T07:07:52Z</time>
      </trkpt>
      <trkpt lat="38.3248780" lon="-0.6799040">
        <ele>224.6</ele>
        <time>2018-04-28T07:07:53Z</time>
      </trkpt>
      <trkpt lat="38.3247950" lon="-0.6798730">
        <ele>224.2</ele>
        <time>2018-04-28T07:07:54Z</time>
      </trkpt>
      <trkpt lat="38.3247260" lon="-0.6798310">
        <ele>223.9</ele>
        <time>2018-04-28T07:07:55Z</time>
      </trkpt>
      <trkpt lat="38.3247050" lon="-0.6797710">
        <ele>223.7</ele>
        <time>2018-04-28T07:07:56Z</time>
      </trkpt>
      <trkpt lat="38.3246790" lon="-0.6797110">
        <ele>223.6</ele>
        <time>2018-04-28T07:07:57Z</time>
      </trkpt>
      <trkpt lat="38.3246550" lon="-0.6796440">
        <ele>223.6</ele>
        <time>2018-04-28T07:07:58Z</time>
      </trkpt>
      <trkpt lat="38.3246390" lon="-0.6795640">
        <ele>223.5</ele>
        <time>2018-04-28T07:07:59Z</time>
      </trkpt>
      <trkpt lat="38.3246180" lon="-0.6794900">
        <ele>223.5</ele>
        <time>2018-04-28T07:08:00Z</time>
      </trkpt>
      <trkpt lat="38.3245980" lon="-0.6794210">
        <ele>223.5</ele>
        <time>2018-04-28T07:08:01Z</time>
      </trkpt>
      <trkpt lat="38.3245750" lon="-0.6793470">
        <ele>223.4</ele>
        <time>2018-04-28T07:08:02Z</time>
      </trkpt>
      <trkpt lat="38.3245490" lon="-0.6792580">
        <ele>223.3</ele>
        <time>2018-04-28T07:08:03Z</time>
      </trkpt>
      <trkpt lat="38.3245040" lon="-0.6791660">
        <ele>223.2</ele>
        <time>2018-04-28T07:08:04Z</time>
      </trkpt>
      <trkpt lat="38.3244660" lon="-0.6790800">
        <ele>223.0</ele>
        <time>2018-04-28T07:08:05Z</time>
      </trkpt>
      <trkpt lat="38.3244190" lon="-0.6789910">
        <ele>222.9</ele>
        <time>2018-04-28T07:08:06Z</time>
      </trkpt>
      <trkpt lat="38.3243680" lon="-0.6788980">
        <ele>222.7</ele>
        <time>2018-04-28T07:08:07Z</time>
      </trkpt>
      <trkpt lat="38.3242980" lon="-0.6788030">
        <ele>222.6</ele>
        <time>2018-04-28T07:08:08Z</time>
      </trkpt>
      <trkpt lat="38.3242310" lon="-0.6787190">
        <ele>222.5</ele>
        <time>2018-04-28T07:08:09Z</time>
      </trkpt>
      <trkpt lat="38.3241610" lon="-0.6786460">
        <ele>222.4</ele>
        <time>2018-04-28T07:08:10Z</time>
      </trkpt>
      <trkpt lat="38.3240890" lon="-0.6785860">
        <ele>222.3</ele>
        <time>2018-04-28T07:08:11Z</time>
      </trkpt>
      <trkpt lat="38.3240160" lon="-0.6785340">
        <ele>222.3</ele>
        <time>2018-04-28T07:08:12Z</time>
      </trkpt>
      <trkpt lat="38.3239470" lon="-0.6784700">
        <ele>222.4</ele>
        <time>2018-04-28T07:08:13Z</time>
      </trkpt>
      <trkpt lat="38.3238860" lon="-0.6784010">
        <ele>222.4</ele>
        <time>2018-04-28T07:08:14Z</time>
      </trkpt>
      <trkpt lat="38.3238240" lon="-0.6783280">
        <ele>222.6</ele>
        <time>2018-04-28T07:08:15Z</time>
      </trkpt>
      <trkpt lat="38.3237660" lon="-0.6782570">
        <ele>222.8</ele>
        <time>2018-04-28T07:08:16Z</time>
      </trkpt>
      <trkpt lat="38.3237130" lon="-0.6781970">
        <ele>223.0</ele>
        <time>2018-04-28T07:08:17Z</time>
      </trkpt>
      <trkpt lat="38.3236600" lon="-0.6781390">
        <ele>223.2</ele>
        <time>2018-04-28T07:08:18Z</time>
      </trkpt>
      <trkpt lat="38.3236100" lon="-0.6780770">
        <ele>223.5</ele>
        <time>2018-04-28T07:08:19Z</time>
      </trkpt>
      <trkpt lat="38.3235630" lon="-0.6780200">
        <ele>223.7</ele>
        <time>2018-04-28T07:08:20Z</time>
      </trkpt>
      <trkpt lat="38.3235150" lon="-0.6779670">
        <ele>223.9</ele>
        <time>2018-04-28T07:08:21Z</time>
      </trkpt>
      <trkpt lat="38.3234650" lon="-0.6779190">
        <ele>224.2</ele>
        <time>2018-04-28T07:08:22Z</time>
      </trkpt>
      <trkpt lat="38.3234100" lon="-0.6778830">
        <ele>224.5</ele>
        <time>2018-04-28T07:08:23Z</time>
      </trkpt>
      <trkpt lat="38.3233560" lon="-0.6778530">
        <ele>224.6</ele>
        <time>2018-04-28T07:08:24Z</time>
      </trkpt>
      <trkpt lat="38.3233040" lon="-0.6778240">
        <ele>225.0</ele>
        <time>2018-04-28T07:08:25Z</time>
      </trkpt>
      <trkpt lat="38.3232530" lon="-0.6778000">
        <ele>225.2</ele>
        <time>2018-04-28T07:08:26Z</time>
      </trkpt>
      <trkpt lat="38.3232020" lon="-0.6777780">
        <ele>225.5</ele>
        <time>2018-04-28T07:08:27Z</time>
      </trkpt>
      <trkpt lat="38.3231520" lon="-0.6777570">
        <ele>225.8</ele>
        <time>2018-04-28T07:08:28Z</time>
      </trkpt>
      <trkpt lat="38.3231000" lon="-0.6777330">
        <ele>226.1</ele>
        <time>2018-04-28T07:08:29Z</time>
      </trkpt>
      <trkpt lat="38.3230460" lon="-0.6777030">
        <ele>226.5</ele>
        <time>2018-04-28T07:08:30Z</time>
      </trkpt>
      <trkpt lat="38.3229920" lon="-0.6776690">
        <ele>227.0</ele>
        <time>2018-04-28T07:08:31Z</time>
      </trkpt>
      <trkpt lat="38.3229370" lon="-0.6776350">
        <ele>227.3</ele>
        <time>2018-04-28T07:08:32Z</time>
      </trkpt>
      <trkpt lat="38.3228820" lon="-0.6775980">
        <ele>227.6</ele>
        <time>2018-04-28T07:08:33Z</time>
      </trkpt>
      <trkpt lat="38.3228280" lon="-0.6775600">
        <ele>228.1</ele>
        <time>2018-04-28T07:08:34Z</time>
      </trkpt>
      <trkpt lat="38.3227740" lon="-0.6775160">
        <ele>228.4</ele>
        <time>2018-04-28T07:08:35Z</time>
      </trkpt>
      <trkpt lat="38.3227260" lon="-0.6774680">
        <ele>228.9</ele>
        <time>2018-04-28T07:08:36Z</time>
      </trkpt>
      <trkpt lat="38.3226870" lon="-0.6774110">
        <ele>229.3</ele>
        <time>2018-04-28T07:08:37Z</time>
      </trkpt>
      <trkpt lat="38.3226550" lon="-0.6773560">
        <ele>229.5</ele>
        <time>2018-04-28T07:08:38Z</time>
      </trkpt>
      <trkpt lat="38.3226170" lon="-0.6773040">
        <ele>229.7</ele>
        <time>2018-04-28T07:08:39Z</time>
      </trkpt>
      <trkpt lat="38.3225780" lon="-0.6772510">
        <ele>230.0</ele>
        <time>2018-04-28T07:08:40Z</time>
      </trkpt>
      <trkpt lat="38.3225380" lon="-0.6772010">
        <ele>230.3</ele>
        <time>2018-04-28T07:08:41Z</time>
      </trkpt>
      <trkpt lat="38.3225030" lon="-0.6771510">
        <ele>230.5</ele>
        <time>2018-04-28T07:08:42Z</time>
      </trkpt>
      <trkpt lat="38.3224800" lon="-0.6770950">
        <ele>230.8</ele>
        <time>2018-04-28T07:08:43Z</time>
      </trkpt>
      <trkpt lat="38.3224610" lon="-0.6770370">
        <ele>231.0</ele>
        <time>2018-04-28T07:08:44Z</time>
      </trkpt>
      <trkpt lat="38.3224530" lon="-0.6769720">
        <ele>231.0</ele>
        <time>2018-04-28T07:08:45Z</time>
      </trkpt>
      <trkpt lat="38.3224510" lon="-0.6769100">
        <ele>231.0</ele>
        <time>2018-04-28T07:08:46Z</time>
      </trkpt>
      <trkpt lat="38.3224470" lon="-0.6768520">
        <ele>231.1</ele>
        <time>2018-04-28T07:08:47Z</time>
      </trkpt>
      <trkpt lat="38.3224320" lon="-0.6767960">
        <ele>231.2</ele>
        <time>2018-04-28T07:08:48Z</time>
      </trkpt>
      <trkpt lat="38.3224200" lon="-0.6767410">
        <ele>231.3</ele>
        <time>2018-04-28T07:08:49Z</time>
      </trkpt>
      <trkpt lat="38.3224050" lon="-0.6766850">
        <ele>231.5</ele>
        <time>2018-04-28T07:08:50Z</time>
      </trkpt>
      <trkpt lat="38.3223890" lon="-0.6766300">
        <ele>231.9</ele>
        <time>2018-04-28T07:08:51Z</time>
      </trkpt>
      <trkpt lat="38.3223680" lon="-0.6765780">
        <ele>232.0</ele>
        <time>2018-04-28T07:08:52Z</time>
      </trkpt>
      <trkpt lat="38.3223540" lon="-0.6765240">
        <ele>232.4</ele>
        <time>2018-04-28T07:08:53Z</time>
      </trkpt>
      <trkpt lat="38.3223600" lon="-0.6764690">
        <ele>232.5</ele>
        <time>2018-04-28T07:08:54Z</time>
      </trkpt>
      <trkpt lat="38.3223510" lon="-0.6764120">
        <ele>232.6</ele>
        <time>2018-04-28T07:08:55Z</time>
      </trkpt>
      <trkpt lat="38.3223550" lon="-0.6763410">
        <ele>232.7</ele>
        <time>2018-04-28T07:08:56Z</time>
      </trkpt>
      <trkpt lat="38.3223580" lon="-0.6762700">
        <ele>232.8</ele>
        <time>2018-04-28T07:08:57Z</time>
      </trkpt>
      <trkpt lat="38.3223610" lon="-0.6761930">
        <ele>233.0</ele>
        <time>2018-04-28T07:08:58Z</time>
      </trkpt>
      <trkpt lat="38.3223620" lon="-0.6761140">
        <ele>233.3</ele>
        <time>2018-04-28T07:08:59Z</time>
      </trkpt>
      <trkpt lat="38.3223660" lon="-0.6760310">
        <ele>233.6</ele>
        <time>2018-04-28T07:09:00Z</time>
      </trkpt>
      <trkpt lat="38.3223800" lon="-0.6759500">
        <ele>233.3</ele>
        <time>2018-04-28T07:09:01Z</time>
      </trkpt>
      <trkpt lat="38.3223850" lon="-0.6758660">
        <ele>233.3</ele>
        <time>2018-04-28T07:09:02Z</time>
      </trkpt>
      <trkpt lat="38.3223870" lon="-0.6757810">
        <ele>233.2</ele>
        <time>2018-04-28T07:09:03Z</time>
      </trkpt>
      <trkpt lat="38.3223750" lon="-0.6756890">
        <ele>233.1</ele>
        <time>2018-04-28T07:09:04Z</time>
      </trkpt>
      <trkpt lat="38.3223640" lon="-0.6755970">
        <ele>233.3</ele>
        <time>2018-04-28T07:09:05Z</time>
      </trkpt>
      <trkpt lat="38.3223570" lon="-0.6755050">
        <ele>233.0</ele>
        <time>2018-04-28T07:09:06Z</time>
      </trkpt>
      <trkpt lat="38.3223530" lon="-0.6754110">
        <ele>232.7</ele>
        <time>2018-04-28T07:09:07Z</time>
      </trkpt>
      <trkpt lat="38.3223430" lon="-0.6753160">
        <ele>232.4</ele>
        <time>2018-04-28T07:09:08Z</time>
      </trkpt>
      <trkpt lat="38.3223360" lon="-0.6752180">
        <ele>232.0</ele>
        <time>2018-04-28T07:09:09Z</time>
      </trkpt>
      <trkpt lat="38.3223310" lon="-0.6751180">
        <ele>232.3</ele>
        <time>2018-04-28T07:09:10Z</time>
      </trkpt>
      <trkpt lat="38.3223320" lon="-0.6750170">
        <ele>232.0</ele>
        <time>2018-04-28T07:09:11Z</time>
      </trkpt>
      <trkpt lat="38.3223320" lon="-0.6749150">
        <ele>231.6</ele>
        <time>2018-04-28T07:09:12Z</time>
      </trkpt>
      <trkpt lat="38.3223230" lon="-0.6748150">
        <ele>231.3</ele>
        <time>2018-04-28T07:09:13Z</time>
      </trkpt>
      <trkpt lat="38.3222850" lon="-0.6747190">
        <ele>231.5</ele>
        <time>2018-04-28T07:09:14Z</time>
      </trkpt>
      <trkpt lat="38.3222550" lon="-0.6746250">
        <ele>231.2</ele>
        <time>2018-04-28T07:09:15Z</time>
      </trkpt>
      <trkpt lat="38.3222320" lon="-0.6745290">
        <ele>230.6</ele>
        <time>2018-04-28T07:09:16Z</time>
      </trkpt>
      <trkpt lat="38.3222180" lon="-0.6744260">
        <ele>230.5</ele>
        <time>2018-04-28T07:09:17Z</time>
      </trkpt>
      <trkpt lat="38.3222060" lon="-0.6743260">
        <ele>229.8</ele>
        <time>2018-04-28T07:09:18Z</time>
      </trkpt>
      <trkpt lat="38.3222080" lon="-0.6742200">
        <ele>229.5</ele>
        <time>2018-04-28T07:09:19Z</time>
      </trkpt>
      <trkpt lat="38.3222070" lon="-0.6741180">
        <ele>229.3</ele>
        <time>2018-04-28T07:09:20Z</time>
      </trkpt>
      <trkpt lat="38.3222100" lon="-0.6740150">
        <ele>229.1</ele>
        <time>2018-04-28T07:09:21Z</time>
      </trkpt>
      <trkpt lat="38.3222110" lon="-0.6739060">
        <ele>229.0</ele>
        <time>2018-04-28T07:09:22Z</time>
      </trkpt>
      <trkpt lat="38.3222060" lon="-0.6737970">
        <ele>228.8</ele>
        <time>2018-04-28T07:09:23Z</time>
      </trkpt>
      <trkpt lat="38.3221960" lon="-0.6736890">
        <ele>228.9</ele>
        <time>2018-04-28T07:09:24Z</time>
      </trkpt>
      <trkpt lat="38.3221730" lon="-0.6735800">
        <ele>228.4</ele>
        <time>2018-04-28T07:09:25Z</time>
      </trkpt>
      <trkpt lat="38.3221500" lon="-0.6734750">
        <ele>228.4</ele>
        <time>2018-04-28T07:09:26Z</time>
      </trkpt>
      <trkpt lat="38.3221220" lon="-0.6733660">
        <ele>228.1</ele>
        <time>2018-04-28T07:09:27Z</time>
      </trkpt>
      <trkpt lat="38.3220920" lon="-0.6732580">
        <ele>228.0</ele>
        <time>2018-04-28T07:09:28Z</time>
      </trkpt>
      <trkpt lat="38.3220630" lon="-0.6731490">
        <ele>227.4</ele>
        <time>2018-04-28T07:09:29Z</time>
      </trkpt>
      <trkpt lat="38.3220420" lon="-0.6730310">
        <ele>226.7</ele>
        <time>2018-04-28T07:09:30Z</time>
      </trkpt>
      <trkpt lat="38.3220170" lon="-0.6729120">
        <ele>225.7</ele>
        <time>2018-04-28T07:09:31Z</time>
      </trkpt>
      <trkpt lat="38.3219920" lon="-0.6727940">
        <ele>225.1</ele>
        <time>2018-04-28T07:09:32Z</time>
      </trkpt>
      <trkpt lat="38.3219730" lon="-0.6726770">
        <ele>224.4</ele>
        <time>2018-04-28T07:09:33Z</time>
      </trkpt>
      <trkpt lat="38.3219560" lon="-0.6725570">
        <ele>223.8</ele>
        <time>2018-04-28T07:09:34Z</time>
      </trkpt>
      <trkpt lat="38.3219400" lon="-0.6724380">
        <ele>223.1</ele>
        <time>2018-04-28T07:09:35Z</time>
      </trkpt>
      <trkpt lat="38.3219270" lon="-0.6723160">
        <ele>223.2</ele>
        <time>2018-04-28T07:09:36Z</time>
      </trkpt>
      <trkpt lat="38.3219120" lon="-0.6721960">
        <ele>223.5</ele>
        <time>2018-04-28T07:09:37Z</time>
      </trkpt>
      <trkpt lat="38.3218970" lon="-0.6720760">
        <ele>223.7</ele>
        <time>2018-04-28T07:09:38Z</time>
      </trkpt>
      <trkpt lat="38.3218850" lon="-0.6719550">
        <ele>223.8</ele>
        <time>2018-04-28T07:09:39Z</time>
      </trkpt>
      <trkpt lat="38.3218830" lon="-0.6718340">
        <ele>223.9</ele>
        <time>2018-04-28T07:09:40Z</time>
      </trkpt>
      <trkpt lat="38.3218860" lon="-0.6717140">
        <ele>224.0</ele>
        <time>2018-04-28T07:09:41Z</time>
      </trkpt>
      <trkpt lat="38.3218920" lon="-0.6715980">
        <ele>224.1</ele>
        <time>2018-04-28T07:09:42Z</time>
      </trkpt>
      <trkpt lat="38.3218940" lon="-0.6714840">
        <ele>224.3</ele>
        <time>2018-04-28T07:09:43Z</time>
      </trkpt>
      <trkpt lat="38.3218870" lon="-0.6713750">
        <ele>224.5</ele>
        <time>2018-04-28T07:09:44Z</time>
      </trkpt>
      <trkpt lat="38.3218740" lon="-0.6712690">
        <ele>224.7</ele>
        <time>2018-04-28T07:09:45Z</time>
      </trkpt>
      <trkpt lat="38.3218540" lon="-0.6711670">
        <ele>225.0</ele>
        <time>2018-04-28T07:09:46Z</time>
      </trkpt>
      <trkpt lat="38.3218280" lon="-0.6710690">
        <ele>225.3</ele>
        <time>2018-04-28T07:09:47Z</time>
      </trkpt>
      <trkpt lat="38.3217990" lon="-0.6709730">
        <ele>225.7</ele>
        <time>2018-04-28T07:09:48Z</time>
      </trkpt>
      <trkpt lat="38.3217670" lon="-0.6708830">
        <ele>225.9</ele>
        <time>2018-04-28T07:09:49Z</time>
      </trkpt>
      <trkpt lat="38.3217370" lon="-0.6707980">
        <ele>226.2</ele>
        <time>2018-04-28T07:09:50Z</time>
      </trkpt>
      <trkpt lat="38.3217100" lon="-0.6707130">
        <ele>226.4</ele>
        <time>2018-04-28T07:09:51Z</time>
      </trkpt>
      <trkpt lat="38.3216840" lon="-0.6706270">
        <ele>226.7</ele>
        <time>2018-04-28T07:09:52Z</time>
      </trkpt>
      <trkpt lat="38.3216600" lon="-0.6705380">
        <ele>226.6</ele>
        <time>2018-04-28T07:09:53Z</time>
      </trkpt>
      <trkpt lat="38.3216520" lon="-0.6704430">
        <ele>226.0</ele>
        <time>2018-04-28T07:09:54Z</time>
      </trkpt>
      <trkpt lat="38.3216530" lon="-0.6703440">
        <ele>225.3</ele>
        <time>2018-04-28T07:09:55Z</time>
      </trkpt>
      <trkpt lat="38.3216620" lon="-0.6702480">
        <ele>224.8</ele>
        <time>2018-04-28T07:09:56Z</time>
      </trkpt>
      <trkpt lat="38.3216600" lon="-0.6701400">
        <ele>224.3</ele>
        <time>2018-04-28T07:09:57Z</time>
      </trkpt>
      <trkpt lat="38.3216600" lon="-0.6700360">
        <ele>223.5</ele>
        <time>2018-04-28T07:09:58Z</time>
      </trkpt>
      <trkpt lat="38.3216620" lon="-0.6699300">
        <ele>223.1</ele>
        <time>2018-04-28T07:09:59Z</time>
      </trkpt>
      <trkpt lat="38.3216660" lon="-0.6698270">
        <ele>222.6</ele>
        <time>2018-04-28T07:10:00Z</time>
      </trkpt>
      <trkpt lat="38.3216670" lon="-0.6697080">
        <ele>222.2</ele>
        <time>2018-04-28T07:10:01Z</time>
      </trkpt>
      <trkpt lat="38.3216660" lon="-0.6695930">
        <ele>221.9</ele>
        <time>2018-04-28T07:10:02Z</time>
      </trkpt>
      <trkpt lat="38.3216650" lon="-0.6694740">
        <ele>221.6</ele>
        <time>2018-04-28T07:10:03Z</time>
      </trkpt>
      <trkpt lat="38.3216530" lon="-0.6693620">
        <ele>221.4</ele>
        <time>2018-04-28T07:10:04Z</time>
      </trkpt>
      <trkpt lat="38.3216560" lon="-0.6692440">
        <ele>221.1</ele>
        <time>2018-04-28T07:10:05Z</time>
      </trkpt>
      <trkpt lat="38.3216610" lon="-0.6691290">
        <ele>220.6</ele>
        <time>2018-04-28T07:10:06Z</time>
      </trkpt>
      <trkpt lat="38.3216660" lon="-0.6690160">
        <ele>220.2</ele>
        <time>2018-04-28T07:10:07Z</time>
      </trkpt>
      <trkpt lat="38.3216650" lon="-0.6689010">
        <ele>219.8</ele>
        <time>2018-04-28T07:10:08Z</time>
      </trkpt>
      <trkpt lat="38.3216600" lon="-0.6687820">
        <ele>219.2</ele>
        <time>2018-04-28T07:10:09Z</time>
      </trkpt>
      <trkpt lat="38.3216470" lon="-0.6686620">
        <ele>218.6</ele>
        <time>2018-04-28T07:10:10Z</time>
      </trkpt>
      <trkpt lat="38.3216280" lon="-0.6685430">
        <ele>217.9</ele>
        <time>2018-04-28T07:10:11Z</time>
      </trkpt>
      <trkpt lat="38.3216110" lon="-0.6684190">
        <ele>217.4</ele>
        <time>2018-04-28T07:10:12Z</time>
      </trkpt>
      <trkpt lat="38.3215930" lon="-0.6682910">
        <ele>216.6</ele>
        <time>2018-04-28T07:10:13Z</time>
      </trkpt>
      <trkpt lat="38.3215720" lon="-0.6681630">
        <ele>215.8</ele>
        <time>2018-04-28T07:10:14Z</time>
      </trkpt>
      <trkpt lat="38.3215310" lon="-0.6680410">
        <ele>215.0</ele>
        <time>2018-04-28T07:10:15Z</time>
      </trkpt>
      <trkpt lat="38.3215050" lon="-0.6679160">
        <ele>214.0</ele>
        <time>2018-04-28T07:10:16Z</time>
      </trkpt>
      <trkpt lat="38.3214940" lon="-0.6678110">
        <ele>213.3</ele>
        <time>2018-04-28T07:10:17Z</time>
      </trkpt>
      <trkpt lat="38.3214900" lon="-0.6677310">
        <ele>212.7</ele>
        <time>2018-04-28T07:10:18Z</time>
      </trkpt>
      <trkpt lat="38.3214860" lon="-0.6676420">
        <ele>212.1</ele>
        <time>2018-04-28T07:10:19Z</time>
      </trkpt>
      <trkpt lat="38.3215590" lon="-0.6676050">
        <ele>211.4</ele>
        <time>2018-04-28T07:10:20Z</time>
      </trkpt>
      <trkpt lat="38.3215950" lon="-0.6675960">
        <ele>211.0</ele>
        <time>2018-04-28T07:10:21Z</time>
      </trkpt>
      <trkpt lat="38.3216650" lon="-0.6675720">
        <ele>210.3</ele>
        <time>2018-04-28T07:10:22Z</time>
      </trkpt>
      <trkpt lat="38.3217430" lon="-0.6675770">
        <ele>209.6</ele>
        <time>2018-04-28T07:10:23Z</time>
      </trkpt>
      <trkpt lat="38.3218190" lon="-0.6675770">
        <ele>209.0</ele>
        <time>2018-04-28T07:10:24Z</time>
      </trkpt>
      <trkpt lat="38.3218880" lon="-0.6675710">
        <ele>208.5</ele>
        <time>2018-04-28T07:10:25Z</time>
      </trkpt>
      <trkpt lat="38.3219450" lon="-0.6675570">
        <ele>208.1</ele>
        <time>2018-04-28T07:10:26Z</time>
      </trkpt>
      <trkpt lat="38.3219830" lon="-0.6675200">
        <ele>207.8</ele>
        <time>2018-04-28T07:10:27Z</time>
      </trkpt>
      <trkpt lat="38.3220090" lon="-0.6674580">
        <ele>206.8</ele>
        <time>2018-04-28T07:10:28Z</time>
      </trkpt>
      <trkpt lat="38.3219740" lon="-0.6673880">
        <ele>205.8</ele>
        <time>2018-04-28T07:10:29Z</time>
      </trkpt>
      <trkpt lat="38.3219600" lon="-0.6672970">
        <ele>204.9</ele>
        <time>2018-04-28T07:10:30Z</time>
      </trkpt>
      <trkpt lat="38.3219450" lon="-0.6671870">
        <ele>204.0</ele>
        <time>2018-04-28T07:10:31Z</time>
      </trkpt>
      <trkpt lat="38.3219350" lon="-0.6670780">
        <ele>203.2</ele>
        <time>2018-04-28T07:10:32Z</time>
      </trkpt>
      <trkpt lat="38.3219280" lon="-0.6669650">
        <ele>202.4</ele>
        <time>2018-04-28T07:10:33Z</time>
      </trkpt>
      <trkpt lat="38.3219210" lon="-0.6668490">
        <ele>202.0</ele>
        <time>2018-04-28T07:10:34Z</time>
      </trkpt>
      <trkpt lat="38.3219130" lon="-0.6667340">
        <ele>201.5</ele>
        <time>2018-04-28T07:10:35Z</time>
      </trkpt>
      <trkpt lat="38.3219020" lon="-0.6666190">
        <ele>201.1</ele>
        <time>2018-04-28T07:10:36Z</time>
      </trkpt>
      <trkpt lat="38.3218930" lon="-0.6665040">
        <ele>200.5</ele>
        <time>2018-04-28T07:10:37Z</time>
      </trkpt>
      <trkpt lat="38.3218860" lon="-0.6663890">
        <ele>200.0</ele>
        <time>2018-04-28T07:10:38Z</time>
      </trkpt>
      <trkpt lat="38.3218790" lon="-0.6662750">
        <ele>199.5</ele>
        <time>2018-04-28T07:10:39Z</time>
      </trkpt>
      <trkpt lat="38.3218740" lon="-0.6661620">
        <ele>199.1</ele>
        <time>2018-04-28T07:10:40Z</time>
      </trkpt>
      <trkpt lat="38.3218720" lon="-0.6660500">
        <ele>198.7</ele>
        <time>2018-04-28T07:10:41Z</time>
      </trkpt>
      <trkpt lat="38.3218750" lon="-0.6659380">
        <ele>198.3</ele>
        <time>2018-04-28T07:10:42Z</time>
      </trkpt>
      <trkpt lat="38.3218740" lon="-0.6658290">
        <ele>197.5</ele>
        <time>2018-04-28T07:10:43Z</time>
      </trkpt>
      <trkpt lat="38.3218730" lon="-0.6657190">
        <ele>196.7</ele>
        <time>2018-04-28T07:10:44Z</time>
      </trkpt>
      <trkpt lat="38.3218680" lon="-0.6656130">
        <ele>196.2</ele>
        <time>2018-04-28T07:10:45Z</time>
      </trkpt>
      <trkpt lat="38.3218590" lon="-0.6655020">
        <ele>195.7</ele>
        <time>2018-04-28T07:10:46Z</time>
      </trkpt>
      <trkpt lat="38.3218520" lon="-0.6653880">
        <ele>195.0</ele>
        <time>2018-04-28T07:10:47Z</time>
      </trkpt>
      <trkpt lat="38.3218440" lon="-0.6652710">
        <ele>194.3</ele>
        <time>2018-04-28T07:10:48Z</time>
      </trkpt>
      <trkpt lat="38.3218420" lon="-0.6651580">
        <ele>193.7</ele>
        <time>2018-04-28T07:10:49Z</time>
      </trkpt>
      <trkpt lat="38.3218340" lon="-0.6650430">
        <ele>193.2</ele>
        <time>2018-04-28T07:10:50Z</time>
      </trkpt>
      <trkpt lat="38.3218260" lon="-0.6649260">
        <ele>192.1</ele>
        <time>2018-04-28T07:10:51Z</time>
      </trkpt>
      <trkpt lat="38.3218150" lon="-0.6648090">
        <ele>191.4</ele>
        <time>2018-04-28T07:10:52Z</time>
      </trkpt>
      <trkpt lat="38.3218040" lon="-0.6646920">
        <ele>190.8</ele>
        <time>2018-04-28T07:10:53Z</time>
      </trkpt>
      <trkpt lat="38.3217960" lon="-0.6645730">
        <ele>190.2</ele>
        <time>2018-04-28T07:10:54Z</time>
      </trkpt>
      <trkpt lat="38.3217890" lon="-0.6644650">
        <ele>189.6</ele>
        <time>2018-04-28T07:10:55Z</time>
      </trkpt>
      <trkpt lat="38.3217930" lon="-0.6643800">
        <ele>189.3</ele>
        <time>2018-04-28T07:10:56Z</time>
      </trkpt>
      <trkpt lat="38.3218540" lon="-0.6643680">
        <ele>188.8</ele>
        <time>2018-04-28T07:10:57Z</time>
      </trkpt>
      <trkpt lat="38.3218840" lon="-0.6643420">
        <ele>188.8</ele>
        <time>2018-04-28T07:10:58Z</time>
      </trkpt>
      <trkpt lat="38.3219270" lon="-0.6643240">
        <ele>188.7</ele>
        <time>2018-04-28T07:10:59Z</time>
      </trkpt>
      <trkpt lat="38.3219860" lon="-0.6643180">
        <ele>188.6</ele>
        <time>2018-04-28T07:11:00Z</time>
      </trkpt>
      <trkpt lat="38.3220460" lon="-0.6643150">
        <ele>188.5</ele>
        <time>2018-04-28T07:11:01Z</time>
      </trkpt>
      <trkpt lat="38.3221050" lon="-0.6643130">
        <ele>188.4</ele>
        <time>2018-04-28T07:11:02Z</time>
      </trkpt>
      <trkpt lat="38.3221650" lon="-0.6643110">
        <ele>188.3</ele>
        <time>2018-04-28T07:11:03Z</time>
      </trkpt>
      <trkpt lat="38.3222320" lon="-0.6643080">
        <ele>188.3</ele>
        <time>2018-04-28T07:11:04Z</time>
      </trkpt>
      <trkpt lat="38.3222980" lon="-0.6643070">
        <ele>188.3</ele>
        <time>2018-04-28T07:11:05Z</time>
      </trkpt>
      <trkpt lat="38.3223650" lon="-0.6643090">
        <ele>188.4</ele>
        <time>2018-04-28T07:11:06Z</time>
      </trkpt>
      <trkpt lat="38.3224330" lon="-0.6643090">
        <ele>188.5</ele>
        <time>2018-04-28T07:11:07Z</time>
      </trkpt>
      <trkpt lat="38.3225020" lon="-0.6643070">
        <ele>188.5</ele>
        <time>2018-04-28T07:11:08Z</time>
      </trkpt>
      <trkpt lat="38.3225720" lon="-0.6643070">
        <ele>188.6</ele>
        <time>2018-04-28T07:11:09Z</time>
      </trkpt>
      <trkpt lat="38.3226260" lon="-0.6643090">
        <ele>188.6</ele>
        <time>2018-04-28T07:11:10Z</time>
      </trkpt>
      <trkpt lat="38.3226800" lon="-0.6643120">
        <ele>188.7</ele>
        <time>2018-04-28T07:11:11Z</time>
      </trkpt>
      <trkpt lat="38.3227870" lon="-0.6643180">
        <ele>188.9</ele>
        <time>2018-04-28T07:11:12Z</time>
      </trkpt>
      <trkpt lat="38.3228530" lon="-0.6643210">
        <ele>189.0</ele>
        <time>2018-04-28T07:11:13Z</time>
      </trkpt>
      <trkpt lat="38.3229140" lon="-0.6643240">
        <ele>189.1</ele>
        <time>2018-04-28T07:11:14Z</time>
      </trkpt>
      <trkpt lat="38.3229610" lon="-0.6643350">
        <ele>189.3</ele>
        <time>2018-04-28T07:11:15Z</time>
      </trkpt>
      <trkpt lat="38.3230120" lon="-0.6643430">
        <ele>189.5</ele>
        <time>2018-04-28T07:11:16Z</time>
      </trkpt>
      <trkpt lat="38.3230510" lon="-0.6643510">
        <ele>189.7</ele>
        <time>2018-04-28T07:11:17Z</time>
      </trkpt>
      <trkpt lat="38.3230980" lon="-0.6643570">
        <ele>189.9</ele>
        <time>2018-04-28T07:11:18Z</time>
      </trkpt>
      <trkpt lat="38.3231420" lon="-0.6643620">
        <ele>190.0</ele>
        <time>2018-04-28T07:11:19Z</time>
      </trkpt>
      <trkpt lat="38.3231880" lon="-0.6643660">
        <ele>189.9</ele>
        <time>2018-04-28T07:11:20Z</time>
      </trkpt>
      <trkpt lat="38.3232350" lon="-0.6643720">
        <ele>189.9</ele>
        <time>2018-04-28T07:11:21Z</time>
      </trkpt>
      <trkpt lat="38.3232850" lon="-0.6643740">
        <ele>189.8</ele>
        <time>2018-04-28T07:11:22Z</time>
      </trkpt>
      <trkpt lat="38.3233420" lon="-0.6643680">
        <ele>189.7</ele>
        <time>2018-04-28T07:11:23Z</time>
      </trkpt>
      <trkpt lat="38.3234160" lon="-0.6643500">
        <ele>189.5</ele>
        <time>2018-04-28T07:11:24Z</time>
      </trkpt>
      <trkpt lat="38.3234760" lon="-0.6643270">
        <ele>189.3</ele>
        <time>2018-04-28T07:11:25Z</time>
      </trkpt>
      <trkpt lat="38.3235420" lon="-0.6642990">
        <ele>189.2</ele>
        <time>2018-04-28T07:11:26Z</time>
      </trkpt>
      <trkpt lat="38.3236080" lon="-0.6642600">
        <ele>189.1</ele>
        <time>2018-04-28T07:11:27Z</time>
      </trkpt>
      <trkpt lat="38.3236790" lon="-0.6642130">
        <ele>189.0</ele>
        <time>2018-04-28T07:11:28Z</time>
      </trkpt>
      <trkpt lat="38.3237530" lon="-0.6641750">
        <ele>189.1</ele>
        <time>2018-04-28T07:11:29Z</time>
      </trkpt>
      <trkpt lat="38.3238190" lon="-0.6641560">
        <ele>189.1</ele>
        <time>2018-04-28T07:11:30Z</time>
      </trkpt>
      <trkpt lat="38.3238770" lon="-0.6641800">
        <ele>189.3</ele>
        <time>2018-04-28T07:11:31Z</time>
      </trkpt>
      <trkpt lat="38.3239340" lon="-0.6642290">
        <ele>189.4</ele>
        <time>2018-04-28T07:11:32Z</time>
      </trkpt>
      <trkpt lat="38.3239710" lon="-0.6642910">
        <ele>189.5</ele>
        <time>2018-04-28T07:11:33Z</time>
      </trkpt>
      <trkpt lat="38.3240090" lon="-0.6643520">
        <ele>189.7</ele>
        <time>2018-04-28T07:11:34Z</time>
      </trkpt>
      <trkpt lat="38.3240480" lon="-0.6644130">
        <ele>189.8</ele>
        <time>2018-04-28T07:11:35Z</time>
      </trkpt>
      <trkpt lat="38.3240840" lon="-0.6644730">
        <ele>189.9</ele>
        <time>2018-04-28T07:11:36Z</time>
      </trkpt>
      <trkpt lat="38.3241180" lon="-0.6645330">
        <ele>190.1</ele>
        <time>2018-04-28T07:11:37Z</time>
      </trkpt>
      <trkpt lat="38.3241530" lon="-0.6645900">
        <ele>190.2</ele>
        <time>2018-04-28T07:11:38Z</time>
      </trkpt>
      <trkpt lat="38.3241880" lon="-0.6646450">
        <ele>190.3</ele>
        <time>2018-04-28T07:11:39Z</time>
      </trkpt>
      <trkpt lat="38.3242250" lon="-0.6646980">
        <ele>190.6</ele>
        <time>2018-04-28T07:11:40Z</time>
      </trkpt>
      <trkpt lat="38.3242730" lon="-0.6647300">
        <ele>190.6</ele>
        <time>2018-04-28T07:11:41Z</time>
      </trkpt>
      <trkpt lat="38.3243200" lon="-0.6647350">
        <ele>190.3</ele>
        <time>2018-04-28T07:11:42Z</time>
      </trkpt>
      <trkpt lat="38.3243730" lon="-0.6647310">
        <ele>190.0</ele>
        <time>2018-04-28T07:11:43Z</time>
      </trkpt>
      <trkpt lat="38.3244350" lon="-0.6647230">
        <ele>189.5</ele>
        <time>2018-04-28T07:11:44Z</time>
      </trkpt>
      <trkpt lat="38.3245050" lon="-0.6647170">
        <ele>189.0</ele>
        <time>2018-04-28T07:11:45Z</time>
      </trkpt>
      <trkpt lat="38.3245770" lon="-0.6647170">
        <ele>188.6</ele>
        <time>2018-04-28T07:11:46Z</time>
      </trkpt>
      <trkpt lat="38.3246500" lon="-0.6647250">
        <ele>188.1</ele>
        <time>2018-04-28T07:11:47Z</time>
      </trkpt>
      <trkpt lat="38.3247270" lon="-0.6647410">
        <ele>187.6</ele>
        <time>2018-04-28T07:11:48Z</time>
      </trkpt>
      <trkpt lat="38.3248030" lon="-0.6647620">
        <ele>187.2</ele>
        <time>2018-04-28T07:11:49Z</time>
      </trkpt>
      <trkpt lat="38.3248840" lon="-0.6647870">
        <ele>186.8</ele>
        <time>2018-04-28T07:11:50Z</time>
      </trkpt>
      <trkpt lat="38.3249650" lon="-0.6648110">
        <ele>186.4</ele>
        <time>2018-04-28T07:11:51Z</time>
      </trkpt>
      <trkpt lat="38.3250450" lon="-0.6648340">
        <ele>186.3</ele>
        <time>2018-04-28T07:11:52Z</time>
      </trkpt>
      <trkpt lat="38.3251300" lon="-0.6648530">
        <ele>186.2</ele>
        <time>2018-04-28T07:11:53Z</time>
      </trkpt>
      <trkpt lat="38.3252210" lon="-0.6648610">
        <ele>186.0</ele>
        <time>2018-04-28T07:11:54Z</time>
      </trkpt>
      <trkpt lat="38.3253160" lon="-0.6648430">
        <ele>185.9</ele>
        <time>2018-04-28T07:11:55Z</time>
      </trkpt>
      <trkpt lat="38.3253970" lon="-0.6647890">
        <ele>185.7</ele>
        <time>2018-04-28T07:11:56Z</time>
      </trkpt>
      <trkpt lat="38.3254610" lon="-0.6647030">
        <ele>185.3</ele>
        <time>2018-04-28T07:11:57Z</time>
      </trkpt>
      <trkpt lat="38.3254550" lon="-0.6646010">
        <ele>185.0</ele>
        <time>2018-04-28T07:11:58Z</time>
      </trkpt>
      <trkpt lat="38.3254570" lon="-0.6644970">
        <ele>184.6</ele>
        <time>2018-04-28T07:11:59Z</time>
      </trkpt>
      <trkpt lat="38.3254440" lon="-0.6643860">
        <ele>184.3</ele>
        <time>2018-04-28T07:12:00Z</time>
      </trkpt>
      <trkpt lat="38.3254160" lon="-0.6642830">
        <ele>184.2</ele>
        <time>2018-04-28T07:12:01Z</time>
      </trkpt>
      <trkpt lat="38.3253810" lon="-0.6641890">
        <ele>184.0</ele>
        <time>2018-04-28T07:12:02Z</time>
      </trkpt>
      <trkpt lat="38.3253360" lon="-0.6640960">
        <ele>184.0</ele>
        <time>2018-04-28T07:12:03Z</time>
      </trkpt>
      <trkpt lat="38.3252950" lon="-0.6640020">
        <ele>184.0</ele>
        <time>2018-04-28T07:12:04Z</time>
      </trkpt>
      <trkpt lat="38.3252980" lon="-0.6638930">
        <ele>184.0</ele>
        <time>2018-04-28T07:12:05Z</time>
      </trkpt>
      <trkpt lat="38.3253000" lon="-0.6637920">
        <ele>184.0</ele>
        <time>2018-04-28T07:12:06Z</time>
      </trkpt>
      <trkpt lat="38.3253050" lon="-0.6636770">
        <ele>184.0</ele>
        <time>2018-04-28T07:12:07Z</time>
      </trkpt>
      <trkpt lat="38.3253020" lon="-0.6635630">
        <ele>184.0</ele>
        <time>2018-04-28T07:12:08Z</time>
      </trkpt>
      <trkpt lat="38.3252910" lon="-0.6634490">
        <ele>183.7</ele>
        <time>2018-04-28T07:12:09Z</time>
      </trkpt>
      <trkpt lat="38.3252840" lon="-0.6633370">
        <ele>183.2</ele>
        <time>2018-04-28T07:12:10Z</time>
      </trkpt>
      <trkpt lat="38.3252760" lon="-0.6632260">
        <ele>182.7</ele>
        <time>2018-04-28T07:12:11Z</time>
      </trkpt>
      <trkpt lat="38.3252680" lon="-0.6631180">
        <ele>182.3</ele>
        <time>2018-04-28T07:12:12Z</time>
      </trkpt>
      <trkpt lat="38.3252560" lon="-0.6630100">
        <ele>181.9</ele>
        <time>2018-04-28T07:12:13Z</time>
      </trkpt>
      <trkpt lat="38.3252110" lon="-0.6629360">
        <ele>181.1</ele>
        <time>2018-04-28T07:12:14Z</time>
      </trkpt>
      <trkpt lat="38.3251650" lon="-0.6628580">
        <ele>179.9</ele>
        <time>2018-04-28T07:12:15Z</time>
      </trkpt>
      <trkpt lat="38.3251330" lon="-0.6627770">
        <ele>179.0</ele>
        <time>2018-04-28T07:12:16Z</time>
      </trkpt>
      <trkpt lat="38.3250710" lon="-0.6627260">
        <ele>179.9</ele>
        <time>2018-04-28T07:12:17Z</time>
      </trkpt>
      <trkpt lat="38.3250220" lon="-0.6626680">
        <ele>180.8</ele>
        <time>2018-04-28T07:12:18Z</time>
      </trkpt>
      <trkpt lat="38.3249720" lon="-0.6626130">
        <ele>181.6</ele>
        <time>2018-04-28T07:12:19Z</time>
      </trkpt>
      <trkpt lat="38.3249140" lon="-0.6625650">
        <ele>182.5</ele>
        <time>2018-04-28T07:12:20Z</time>
      </trkpt>
      <trkpt lat="38.3248650" lon="-0.6625140">
        <ele>182.1</ele>
        <time>2018-04-28T07:12:21Z</time>
      </trkpt>
      <trkpt lat="38.3248210" lon="-0.6624490">
        <ele>180.0</ele>
        <time>2018-04-28T07:12:22Z</time>
      </trkpt>
      <trkpt lat="38.3248090" lon="-0.6623690">
        <ele>180.0</ele>
        <time>2018-04-28T07:12:23Z</time>
      </trkpt>
      <trkpt lat="38.3247990" lon="-0.6622910">
        <ele>180.0</ele>
        <time>2018-04-28T07:12:24Z</time>
      </trkpt>
      <trkpt lat="38.3248040" lon="-0.6622110">
        <ele>180.0</ele>
        <time>2018-04-28T07:12:25Z</time>
      </trkpt>
      <trkpt lat="38.3248220" lon="-0.6621310">
        <ele>179.8</ele>
        <time>2018-04-28T07:12:26Z</time>
      </trkpt>
      <trkpt lat="38.3248590" lon="-0.6620680">
        <ele>179.7</ele>
        <time>2018-04-28T07:12:27Z</time>
      </trkpt>
      <trkpt lat="38.3248850" lon="-0.6620180">
        <ele>179.6</ele>
        <time>2018-04-28T07:12:28Z</time>
      </trkpt>
      <trkpt lat="38.3248920" lon="-0.6619760">
        <ele>179.4</ele>
        <time>2018-04-28T07:12:29Z</time>
      </trkpt>
      <trkpt lat="38.3248900" lon="-0.6619380">
        <ele>179.3</ele>
        <time>2018-04-28T07:12:30Z</time>
      </trkpt>
      <trkpt lat="38.3248790" lon="-0.6618820">
        <ele>179.2</ele>
        <time>2018-04-28T07:12:31Z</time>
      </trkpt>
      <trkpt lat="38.3248580" lon="-0.6618120">
        <ele>179.0</ele>
        <time>2018-04-28T07:12:32Z</time>
      </trkpt>
      <trkpt lat="38.3248370" lon="-0.6617430">
        <ele>178.8</ele>
        <time>2018-04-28T07:12:33Z</time>
      </trkpt>
      <trkpt lat="38.3247950" lon="-0.6616760">
        <ele>178.8</ele>
        <time>2018-04-28T07:12:34Z</time>
      </trkpt>
      <trkpt lat="38.3247350" lon="-0.6616260">
        <ele>178.8</ele>
        <time>2018-04-28T07:12:35Z</time>
      </trkpt>
      <trkpt lat="38.3246770" lon="-0.6616050">
        <ele>178.9</ele>
        <time>2018-04-28T07:12:36Z</time>
      </trkpt>
      <trkpt lat="38.3246310" lon="-0.6616080">
        <ele>179.0</ele>
        <time>2018-04-28T07:12:37Z</time>
      </trkpt>
      <trkpt lat="38.3245970" lon="-0.6616130">
        <ele>179.0</ele>
        <time>2018-04-28T07:12:38Z</time>
      </trkpt>
      <trkpt lat="38.3245560" lon="-0.6616320">
        <ele>179.2</ele>
        <time>2018-04-28T07:12:39Z</time>
      </trkpt>
      <trkpt lat="38.3245160" lon="-0.6616400">
        <ele>179.4</ele>
        <time>2018-04-28T07:12:40Z</time>
      </trkpt>
      <trkpt lat="38.3244760" lon="-0.6616480">
        <ele>179.4</ele>
        <time>2018-04-28T07:12:41Z</time>
      </trkpt>
      <trkpt lat="38.3244360" lon="-0.6616570">
        <ele>179.5</ele>
        <time>2018-04-28T07:12:42Z</time>
      </trkpt>
      <trkpt lat="38.3243930" lon="-0.6616680">
        <ele>179.6</ele>
        <time>2018-04-28T07:12:43Z</time>
      </trkpt>
      <trkpt lat="38.3243480" lon="-0.6616800">
        <ele>180.0</ele>
        <time>2018-04-28T07:12:44Z</time>
      </trkpt>
      <trkpt lat="38.3243040" lon="-0.6616900">
        <ele>180.0</ele>
        <time>2018-04-28T07:12:45Z</time>
      </trkpt>
      <trkpt lat="38.3242610" lon="-0.6616990">
        <ele>180.1</ele>
        <time>2018-04-28T07:12:46Z</time>
      </trkpt>
      <trkpt lat="38.3242140" lon="-0.6617060">
        <ele>180.3</ele>
        <time>2018-04-28T07:12:47Z</time>
      </trkpt>
      <trkpt lat="38.3241650" lon="-0.6617000">
        <ele>180.3</ele>
        <time>2018-04-28T07:12:48Z</time>
      </trkpt>
      <trkpt lat="38.3241200" lon="-0.6616860">
        <ele>180.4</ele>
        <time>2018-04-28T07:12:49Z</time>
      </trkpt>
      <trkpt lat="38.3240760" lon="-0.6616690">
        <ele>180.5</ele>
        <time>2018-04-28T07:12:50Z</time>
      </trkpt>
      <trkpt lat="38.3240490" lon="-0.6616360">
        <ele>180.4</ele>
        <time>2018-04-28T07:12:51Z</time>
      </trkpt>
      <trkpt lat="38.3240320" lon="-0.6615830">
        <ele>180.2</ele>
        <time>2018-04-28T07:12:52Z</time>
      </trkpt>
      <trkpt lat="38.3240070" lon="-0.6615350">
        <ele>179.9</ele>
        <time>2018-04-28T07:12:53Z</time>
      </trkpt>
      <trkpt lat="38.3239830" lon="-0.6614810">
        <ele>179.6</ele>
        <time>2018-04-28T07:12:54Z</time>
      </trkpt>
      <trkpt lat="38.3239590" lon="-0.6614220">
        <ele>179.4</ele>
        <time>2018-04-28T07:12:55Z</time>
      </trkpt>
      <trkpt lat="38.3239400" lon="-0.6613590">
        <ele>179.1</ele>
        <time>2018-04-28T07:12:56Z</time>
      </trkpt>
      <trkpt lat="38.3239260" lon="-0.6612910">
        <ele>178.8</ele>
        <time>2018-04-28T07:12:57Z</time>
      </trkpt>
      <trkpt lat="38.3239110" lon="-0.6612190">
        <ele>178.5</ele>
        <time>2018-04-28T07:12:58Z</time>
      </trkpt>
      <trkpt lat="38.3238980" lon="-0.6611470">
        <ele>178.1</ele>
        <time>2018-04-28T07:12:59Z</time>
      </trkpt>
      <trkpt lat="38.3238770" lon="-0.6610930">
        <ele>177.9</ele>
        <time>2018-04-28T07:13:00Z</time>
      </trkpt>
      <trkpt lat="38.3238560" lon="-0.6610440">
        <ele>177.7</ele>
        <time>2018-04-28T07:13:01Z</time>
      </trkpt>
      <trkpt lat="38.3238140" lon="-0.6610160">
        <ele>177.6</ele>
        <time>2018-04-28T07:13:02Z</time>
      </trkpt>
      <trkpt lat="38.3237760" lon="-0.6610090">
        <ele>177.5</ele>
        <time>2018-04-28T07:13:03Z</time>
      </trkpt>
      <trkpt lat="38.3237290" lon="-0.6610470">
        <ele>177.7</ele>
        <time>2018-04-28T07:13:04Z</time>
      </trkpt>
      <trkpt lat="38.3236810" lon="-0.6610960">
        <ele>177.8</ele>
        <time>2018-04-28T07:13:05Z</time>
      </trkpt>
      <trkpt lat="38.3236360" lon="-0.6611490">
        <ele>177.9</ele>
        <time>2018-04-28T07:13:06Z</time>
      </trkpt>
      <trkpt lat="38.3235900" lon="-0.6612030">
        <ele>178.2</ele>
        <time>2018-04-28T07:13:07Z</time>
      </trkpt>
      <trkpt lat="38.3235410" lon="-0.6612530">
        <ele>178.3</ele>
        <time>2018-04-28T07:13:08Z</time>
      </trkpt>
      <trkpt lat="38.3234930" lon="-0.6613010">
        <ele>178.4</ele>
        <time>2018-04-28T07:13:09Z</time>
      </trkpt>
      <trkpt lat="38.3234460" lon="-0.6613550">
        <ele>178.5</ele>
        <time>2018-04-28T07:13:10Z</time>
      </trkpt>
      <trkpt lat="38.3233980" lon="-0.6614080">
        <ele>178.5</ele>
        <time>2018-04-28T07:13:11Z</time>
      </trkpt>
      <trkpt lat="38.3233480" lon="-0.6614620">
        <ele>178.7</ele>
        <time>2018-04-28T07:13:12Z</time>
      </trkpt>
      <trkpt lat="38.3232970" lon="-0.6615130">
        <ele>178.6</ele>
        <time>2018-04-28T07:13:13Z</time>
      </trkpt>
      <trkpt lat="38.3232500" lon="-0.6615680">
        <ele>178.7</ele>
        <time>2018-04-28T07:13:14Z</time>
      </trkpt>
      <trkpt lat="38.3232030" lon="-0.6616250">
        <ele>178.6</ele>
        <time>2018-04-28T07:13:15Z</time>
      </trkpt>
      <trkpt lat="38.3231530" lon="-0.6616780">
        <ele>178.7</ele>
        <time>2018-04-28T07:13:16Z</time>
      </trkpt>
      <trkpt lat="38.3231030" lon="-0.6617310">
        <ele>178.6</ele>
        <time>2018-04-28T07:13:17Z</time>
      </trkpt>
      <trkpt lat="38.3230550" lon="-0.6617840">
        <ele>178.6</ele>
        <time>2018-04-28T07:13:18Z</time>
      </trkpt>
      <trkpt lat="38.3230040" lon="-0.6618300">
        <ele>178.5</ele>
        <time>2018-04-28T07:13:19Z</time>
      </trkpt>
      <trkpt lat="38.3229690" lon="-0.6618570">
        <ele>178.5</ele>
        <time>2018-04-28T07:13:20Z</time>
      </trkpt>
      <trkpt lat="38.3229370" lon="-0.6618380">
        <ele>178.4</ele>
        <time>2018-04-28T07:13:21Z</time>
      </trkpt>
      <trkpt lat="38.3229160" lon="-0.6618200">
        <ele>178.3</ele>
        <time>2018-04-28T07:13:22Z</time>
      </trkpt>
      <trkpt lat="38.3228870" lon="-0.6617900">
        <ele>178.2</ele>
        <time>2018-04-28T07:13:23Z</time>
      </trkpt>
      <trkpt lat="38.3228520" lon="-0.6617420">
        <ele>178.0</ele>
        <time>2018-04-28T07:13:24Z</time>
      </trkpt>
      <trkpt lat="38.3228240" lon="-0.6616940">
        <ele>177.8</ele>
        <time>2018-04-28T07:13:25Z</time>
      </trkpt>
      <trkpt lat="38.3227950" lon="-0.6616450">
        <ele>177.7</ele>
        <time>2018-04-28T07:13:26Z</time>
      </trkpt>
      <trkpt lat="38.3227540" lon="-0.6615760">
        <ele>177.3</ele>
        <time>2018-04-28T07:13:27Z</time>
      </trkpt>
      <trkpt lat="38.3227140" lon="-0.6615080">
        <ele>177.1</ele>
        <time>2018-04-28T07:13:28Z</time>
      </trkpt>
      <trkpt lat="38.3226710" lon="-0.6614410">
        <ele>176.9</ele>
        <time>2018-04-28T07:13:29Z</time>
      </trkpt>
      <trkpt lat="38.3226290" lon="-0.6613700">
        <ele>176.7</ele>
        <time>2018-04-28T07:13:30Z</time>
      </trkpt>
      <trkpt lat="38.3225860" lon="-0.6613000">
        <ele>176.5</ele>
        <time>2018-04-28T07:13:31Z</time>
      </trkpt>
      <trkpt lat="38.3225420" lon="-0.6612280">
        <ele>176.3</ele>
        <time>2018-04-28T07:13:32Z</time>
      </trkpt>
      <trkpt lat="38.3224970" lon="-0.6611530">
        <ele>176.1</ele>
        <time>2018-04-28T07:13:33Z</time>
      </trkpt>
      <trkpt lat="38.3224530" lon="-0.6610780">
        <ele>175.8</ele>
        <time>2018-04-28T07:13:34Z</time>
      </trkpt>
      <trkpt lat="38.3224080" lon="-0.6610050">
        <ele>175.5</ele>
        <time>2018-04-28T07:13:35Z</time>
      </trkpt>
      <trkpt lat="38.3223630" lon="-0.6609300">
        <ele>175.2</ele>
        <time>2018-04-28T07:13:36Z</time>
      </trkpt>
      <trkpt lat="38.3223220" lon="-0.6608520">
        <ele>174.9</ele>
        <time>2018-04-28T07:13:37Z</time>
      </trkpt>
      <trkpt lat="38.3222750" lon="-0.6607750">
        <ele>174.5</ele>
        <time>2018-04-28T07:13:38Z</time>
      </trkpt>
      <trkpt lat="38.3222270" lon="-0.6606950">
        <ele>174.1</ele>
        <time>2018-04-28T07:13:39Z</time>
      </trkpt>
      <trkpt lat="38.3221790" lon="-0.6606150">
        <ele>173.5</ele>
        <time>2018-04-28T07:13:40Z</time>
      </trkpt>
      <trkpt lat="38.3221310" lon="-0.6605290">
        <ele>172.8</ele>
        <time>2018-04-28T07:13:41Z</time>
      </trkpt>
      <trkpt lat="38.3220790" lon="-0.6604420">
        <ele>172.4</ele>
        <time>2018-04-28T07:13:42Z</time>
      </trkpt>
      <trkpt lat="38.3220320" lon="-0.6603520">
        <ele>171.9</ele>
        <time>2018-04-28T07:13:43Z</time>
      </trkpt>
      <trkpt lat="38.3219760" lon="-0.6602600">
        <ele>171.0</ele>
        <time>2018-04-28T07:13:44Z</time>
      </trkpt>
      <trkpt lat="38.3219230" lon="-0.6601650">
        <ele>170.3</ele>
        <time>2018-04-28T07:13:45Z</time>
      </trkpt>
      <trkpt lat="38.3218690" lon="-0.6600710">
        <ele>169.8</ele>
        <time>2018-04-28T07:13:46Z</time>
      </trkpt>
      <trkpt lat="38.3218140" lon="-0.6599800">
        <ele>169.4</ele>
        <time>2018-04-28T07:13:47Z</time>
      </trkpt>
      <trkpt lat="38.3217600" lon="-0.6598910">
        <ele>169.1</ele>
        <time>2018-04-28T07:13:48Z</time>
      </trkpt>
      <trkpt lat="38.3217040" lon="-0.6598050">
        <ele>168.7</ele>
        <time>2018-04-28T07:13:49Z</time>
      </trkpt>
      <trkpt lat="38.3216360" lon="-0.6597240">
        <ele>168.1</ele>
        <time>2018-04-28T07:13:50Z</time>
      </trkpt>
      <trkpt lat="38.3215740" lon="-0.6596400">
        <ele>167.7</ele>
        <time>2018-04-28T07:13:51Z</time>
      </trkpt>
      <trkpt lat="38.3215140" lon="-0.6595540">
        <ele>167.1</ele>
        <time>2018-04-28T07:13:52Z</time>
      </trkpt>
      <trkpt lat="38.3214570" lon="-0.6594650">
        <ele>166.7</ele>
        <time>2018-04-28T07:13:53Z</time>
      </trkpt>
      <trkpt lat="38.3214030" lon="-0.6593730">
        <ele>166.3</ele>
        <time>2018-04-28T07:13:54Z</time>
      </trkpt>
      <trkpt lat="38.3213500" lon="-0.6592820">
        <ele>165.7</ele>
        <time>2018-04-28T07:13:55Z</time>
      </trkpt>
      <trkpt lat="38.3212960" lon="-0.6591950">
        <ele>165.4</ele>
        <time>2018-04-28T07:13:56Z</time>
      </trkpt>
      <trkpt lat="38.3212370" lon="-0.6591110">
        <ele>165.0</ele>
        <time>2018-04-28T07:13:57Z</time>
      </trkpt>
      <trkpt lat="38.3211790" lon="-0.6590320">
        <ele>164.6</ele>
        <time>2018-04-28T07:13:58Z</time>
      </trkpt>
      <trkpt lat="38.3211160" lon="-0.6589630">
        <ele>164.0</ele>
        <time>2018-04-28T07:13:59Z</time>
      </trkpt>
      <trkpt lat="38.3210490" lon="-0.6588920">
        <ele>163.5</ele>
        <time>2018-04-28T07:14:00Z</time>
      </trkpt>
      <trkpt lat="38.3209820" lon="-0.6588240">
        <ele>163.0</ele>
        <time>2018-04-28T07:14:01Z</time>
      </trkpt>
      <trkpt lat="38.3209140" lon="-0.6587560">
        <ele>162.6</ele>
        <time>2018-04-28T07:14:02Z</time>
      </trkpt>
      <trkpt lat="38.3208450" lon="-0.6586860">
        <ele>162.3</ele>
        <time>2018-04-28T07:14:03Z</time>
      </trkpt>
      <trkpt lat="38.3207770" lon="-0.6586140">
        <ele>161.7</ele>
        <time>2018-04-28T07:14:04Z</time>
      </trkpt>
      <trkpt lat="38.3207130" lon="-0.6585380">
        <ele>161.1</ele>
        <time>2018-04-28T07:14:05Z</time>
      </trkpt>
      <trkpt lat="38.3206500" lon="-0.6584580">
        <ele>160.7</ele>
        <time>2018-04-28T07:14:06Z</time>
      </trkpt>
      <trkpt lat="38.3205850" lon="-0.6583810">
        <ele>160.3</ele>
        <time>2018-04-28T07:14:07Z</time>
      </trkpt>
      <trkpt lat="38.3205100" lon="-0.6583130">
        <ele>160.0</ele>
        <time>2018-04-28T07:14:08Z</time>
      </trkpt>
      <trkpt lat="38.3204370" lon="-0.6582570">
        <ele>159.7</ele>
        <time>2018-04-28T07:14:09Z</time>
      </trkpt>
      <trkpt lat="38.3203560" lon="-0.6582200">
        <ele>159.5</ele>
        <time>2018-04-28T07:14:10Z</time>
      </trkpt>
      <trkpt lat="38.3202780" lon="-0.6581820">
        <ele>159.2</ele>
        <time>2018-04-28T07:14:11Z</time>
      </trkpt>
      <trkpt lat="38.3202090" lon="-0.6581230">
        <ele>158.8</ele>
        <time>2018-04-28T07:14:12Z</time>
      </trkpt>
      <trkpt lat="38.3201560" lon="-0.6580480">
        <ele>158.4</ele>
        <time>2018-04-28T07:14:13Z</time>
      </trkpt>
      <trkpt lat="38.3201000" lon="-0.6579680">
        <ele>157.9</ele>
        <time>2018-04-28T07:14:14Z</time>
      </trkpt>
      <trkpt lat="38.3200500" lon="-0.6578870">
        <ele>157.4</ele>
        <time>2018-04-28T07:14:15Z</time>
      </trkpt>
      <trkpt lat="38.3199990" lon="-0.6578030">
        <ele>156.9</ele>
        <time>2018-04-28T07:14:16Z</time>
      </trkpt>
      <trkpt lat="38.3199490" lon="-0.6577100">
        <ele>156.4</ele>
        <time>2018-04-28T07:14:17Z</time>
      </trkpt>
      <trkpt lat="38.3198880" lon="-0.6576220">
        <ele>155.9</ele>
        <time>2018-04-28T07:14:18Z</time>
      </trkpt>
      <trkpt lat="38.3198230" lon="-0.6575430">
        <ele>155.3</ele>
        <time>2018-04-28T07:14:19Z</time>
      </trkpt>
      <trkpt lat="38.3197620" lon="-0.6574830">
        <ele>155.0</ele>
        <time>2018-04-28T07:14:20Z</time>
      </trkpt>
      <trkpt lat="38.3196910" lon="-0.6574690">
        <ele>154.7</ele>
        <time>2018-04-28T07:14:21Z</time>
      </trkpt>
      <trkpt lat="38.3195830" lon="-0.6574560">
        <ele>154.2</ele>
        <time>2018-04-28T07:14:22Z</time>
      </trkpt>
      <trkpt lat="38.3194880" lon="-0.6574340">
        <ele>154.3</ele>
        <time>2018-04-28T07:14:23Z</time>
      </trkpt>
      <trkpt lat="38.3193990" lon="-0.6574060">
        <ele>154.8</ele>
        <time>2018-04-28T07:14:24Z</time>
      </trkpt>
      <trkpt lat="38.3193130" lon="-0.6573680">
        <ele>155.3</ele>
        <time>2018-04-28T07:14:25Z</time>
      </trkpt>
      <trkpt lat="38.3192210" lon="-0.6573250">
        <ele>155.6</ele>
        <time>2018-04-28T07:14:26Z</time>
      </trkpt>
      <trkpt lat="38.3191300" lon="-0.6572870">
        <ele>155.8</ele>
        <time>2018-04-28T07:14:27Z</time>
      </trkpt>
      <trkpt lat="38.3190340" lon="-0.6572550">
        <ele>156.0</ele>
        <time>2018-04-28T07:14:28Z</time>
      </trkpt>
      <trkpt lat="38.3189440" lon="-0.6572270">
        <ele>156.2</ele>
        <time>2018-04-28T07:14:29Z</time>
      </trkpt>
      <trkpt lat="38.3188560" lon="-0.6572040">
        <ele>156.4</ele>
        <time>2018-04-28T07:14:30Z</time>
      </trkpt>
      <trkpt lat="38.3187700" lon="-0.6571850">
        <ele>156.6</ele>
        <time>2018-04-28T07:14:31Z</time>
      </trkpt>
      <trkpt lat="38.3186880" lon="-0.6571700">
        <ele>156.7</ele>
        <time>2018-04-28T07:14:32Z</time>
      </trkpt>
      <trkpt lat="38.3186120" lon="-0.6571510">
        <ele>156.9</ele>
        <time>2018-04-28T07:14:33Z</time>
      </trkpt>
      <trkpt lat="38.3185350" lon="-0.6571220">
        <ele>157.1</ele>
        <time>2018-04-28T07:14:34Z</time>
      </trkpt>
      <trkpt lat="38.3184590" lon="-0.6570850">
        <ele>157.2</ele>
        <time>2018-04-28T07:14:35Z</time>
      </trkpt>
      <trkpt lat="38.3183960" lon="-0.6570350">
        <ele>157.4</ele>
        <time>2018-04-28T07:14:36Z</time>
      </trkpt>
      <trkpt lat="38.3183310" lon="-0.6569800">
        <ele>157.5</ele>
        <time>2018-04-28T07:14:37Z</time>
      </trkpt>
      <trkpt lat="38.3182680" lon="-0.6569190">
        <ele>157.6</ele>
        <time>2018-04-28T07:14:38Z</time>
      </trkpt>
      <trkpt lat="38.3182050" lon="-0.6568560">
        <ele>157.8</ele>
        <time>2018-04-28T07:14:39Z</time>
      </trkpt>
      <trkpt lat="38.3181450" lon="-0.6567900">
        <ele>157.9</ele>
        <time>2018-04-28T07:14:40Z</time>
      </trkpt>
      <trkpt lat="38.3180860" lon="-0.6567240">
        <ele>158.1</ele>
        <time>2018-04-28T07:14:41Z</time>
      </trkpt>
      <trkpt lat="38.3180290" lon="-0.6566560">
        <ele>158.2</ele>
        <time>2018-04-28T07:14:42Z</time>
      </trkpt>
      <trkpt lat="38.3179740" lon="-0.6565850">
        <ele>158.4</ele>
        <time>2018-04-28T07:14:43Z</time>
      </trkpt>
      <trkpt lat="38.3179160" lon="-0.6565190">
        <ele>158.6</ele>
        <time>2018-04-28T07:14:44Z</time>
      </trkpt>
      <trkpt lat="38.3178600" lon="-0.6564520">
        <ele>158.7</ele>
        <time>2018-04-28T07:14:45Z</time>
      </trkpt>
      <trkpt lat="38.3178030" lon="-0.6563860">
        <ele>158.9</ele>
        <time>2018-04-28T07:14:46Z</time>
      </trkpt>
      <trkpt lat="38.3177430" lon="-0.6563240">
        <ele>158.7</ele>
        <time>2018-04-28T07:14:47Z</time>
      </trkpt>
      <trkpt lat="38.3176810" lon="-0.6562620">
        <ele>157.3</ele>
        <time>2018-04-28T07:14:48Z</time>
      </trkpt>
      <trkpt lat="38.3176210" lon="-0.6562010">
        <ele>155.9</ele>
        <time>2018-04-28T07:14:49Z</time>
      </trkpt>
      <trkpt lat="38.3175580" lon="-0.6561410">
        <ele>154.6</ele>
        <time>2018-04-28T07:14:50Z</time>
      </trkpt>
      <trkpt lat="38.3174940" lon="-0.6560830">
        <ele>153.4</ele>
        <time>2018-04-28T07:14:51Z</time>
      </trkpt>
      <trkpt lat="38.3174330" lon="-0.6560260">
        <ele>152.7</ele>
        <time>2018-04-28T07:14:52Z</time>
      </trkpt>
      <trkpt lat="38.3173690" lon="-0.6559710">
        <ele>152.0</ele>
        <time>2018-04-28T07:14:53Z</time>
      </trkpt>
      <trkpt lat="38.3173030" lon="-0.6559190">
        <ele>151.5</ele>
        <time>2018-04-28T07:14:54Z</time>
      </trkpt>
      <trkpt lat="38.3172370" lon="-0.6558690">
        <ele>151.2</ele>
        <time>2018-04-28T07:14:55Z</time>
      </trkpt>
      <trkpt lat="38.3171680" lon="-0.6558220">
        <ele>150.9</ele>
        <time>2018-04-28T07:14:56Z</time>
      </trkpt>
      <trkpt lat="38.3171000" lon="-0.6557730">
        <ele>150.6</ele>
        <time>2018-04-28T07:14:57Z</time>
      </trkpt>
      <trkpt lat="38.3170320" lon="-0.6557340">
        <ele>150.3</ele>
        <time>2018-04-28T07:14:58Z</time>
      </trkpt>
      <trkpt lat="38.3169590" lon="-0.6556930">
        <ele>150.0</ele>
        <time>2018-04-28T07:14:59Z</time>
      </trkpt>
      <trkpt lat="38.3168900" lon="-0.6556570">
        <ele>149.7</ele>
        <time>2018-04-28T07:15:00Z</time>
      </trkpt>
      <trkpt lat="38.3168180" lon="-0.6556200">
        <ele>149.2</ele>
        <time>2018-04-28T07:15:01Z</time>
      </trkpt>
      <trkpt lat="38.3167500" lon="-0.6555780">
        <ele>148.7</ele>
        <time>2018-04-28T07:15:02Z</time>
      </trkpt>
      <trkpt lat="38.3166990" lon="-0.6555150">
        <ele>148.3</ele>
        <time>2018-04-28T07:15:03Z</time>
      </trkpt>
      <trkpt lat="38.3166460" lon="-0.6554440">
        <ele>147.6</ele>
        <time>2018-04-28T07:15:04Z</time>
      </trkpt>
      <trkpt lat="38.3166030" lon="-0.6553610">
        <ele>147.0</ele>
        <time>2018-04-28T07:15:05Z</time>
      </trkpt>
      <trkpt lat="38.3165620" lon="-0.6552830">
        <ele>147.0</ele>
        <time>2018-04-28T07:15:06Z</time>
      </trkpt>
      <trkpt lat="38.3165200" lon="-0.6552110">
        <ele>147.5</ele>
        <time>2018-04-28T07:15:07Z</time>
      </trkpt>
      <trkpt lat="38.3164730" lon="-0.6551410">
        <ele>148.4</ele>
        <time>2018-04-28T07:15:08Z</time>
      </trkpt>
      <trkpt lat="38.3164210" lon="-0.6550720">
        <ele>149.4</ele>
        <time>2018-04-28T07:15:09Z</time>
      </trkpt>
      <trkpt lat="38.3163570" lon="-0.6550030">
        <ele>150.5</ele>
        <time>2018-04-28T07:15:10Z</time>
      </trkpt>
      <trkpt lat="38.3162820" lon="-0.6549420">
        <ele>151.6</ele>
        <time>2018-04-28T07:15:11Z</time>
      </trkpt>
      <trkpt lat="38.3161940" lon="-0.6549190">
        <ele>151.9</ele>
        <time>2018-04-28T07:15:12Z</time>
      </trkpt>
      <trkpt lat="38.3161080" lon="-0.6549070">
        <ele>151.7</ele>
        <time>2018-04-28T07:15:13Z</time>
      </trkpt>
      <trkpt lat="38.3160250" lon="-0.6549150">
        <ele>151.6</ele>
        <time>2018-04-28T07:15:14Z</time>
      </trkpt>
      <trkpt lat="38.3159680" lon="-0.6549420">
        <ele>151.5</ele>
        <time>2018-04-28T07:15:15Z</time>
      </trkpt>
      <trkpt lat="38.3158950" lon="-0.6550400">
        <ele>151.3</ele>
        <time>2018-04-28T07:15:16Z</time>
      </trkpt>
      <trkpt lat="38.3158410" lon="-0.6551290">
        <ele>151.2</ele>
        <time>2018-04-28T07:15:17Z</time>
      </trkpt>
      <trkpt lat="38.3158190" lon="-0.6552410">
        <ele>151.0</ele>
        <time>2018-04-28T07:15:18Z</time>
      </trkpt>
      <trkpt lat="38.3157850" lon="-0.6553380">
        <ele>150.9</ele>
        <time>2018-04-28T07:15:19Z</time>
      </trkpt>
      <trkpt lat="38.3157460" lon="-0.6554310">
        <ele>150.8</ele>
        <time>2018-04-28T07:15:20Z</time>
      </trkpt>
      <trkpt lat="38.3157020" lon="-0.6555170">
        <ele>150.7</ele>
        <time>2018-04-28T07:15:21Z</time>
      </trkpt>
      <trkpt lat="38.3156540" lon="-0.6555970">
        <ele>150.6</ele>
        <time>2018-04-28T07:15:22Z</time>
      </trkpt>
      <trkpt lat="38.3155980" lon="-0.6556700">
        <ele>150.5</ele>
        <time>2018-04-28T07:15:23Z</time>
      </trkpt>
      <trkpt lat="38.3155410" lon="-0.6557380">
        <ele>150.4</ele>
        <time>2018-04-28T07:15:24Z</time>
      </trkpt>
      <trkpt lat="38.3154790" lon="-0.6557930">
        <ele>150.2</ele>
        <time>2018-04-28T07:15:25Z</time>
      </trkpt>
      <trkpt lat="38.3154090" lon="-0.6558410">
        <ele>150.0</ele>
        <time>2018-04-28T07:15:26Z</time>
      </trkpt>
      <trkpt lat="38.3153360" lon="-0.6558720">
        <ele>149.8</ele>
        <time>2018-04-28T07:15:27Z</time>
      </trkpt>
      <trkpt lat="38.3152610" lon="-0.6558920">
        <ele>149.6</ele>
        <time>2018-04-28T07:15:28Z</time>
      </trkpt>
      <trkpt lat="38.3151850" lon="-0.6559060">
        <ele>149.3</ele>
        <time>2018-04-28T07:15:29Z</time>
      </trkpt>
      <trkpt lat="38.3151060" lon="-0.6559180">
        <ele>149.0</ele>
        <time>2018-04-28T07:15:30Z</time>
      </trkpt>
      <trkpt lat="38.3150300" lon="-0.6559260">
        <ele>148.5</ele>
        <time>2018-04-28T07:15:31Z</time>
      </trkpt>
      <trkpt lat="38.3149520" lon="-0.6559270">
        <ele>147.9</ele>
        <time>2018-04-28T07:15:32Z</time>
      </trkpt>
      <trkpt lat="38.3148740" lon="-0.6559220">
        <ele>147.3</ele>
        <time>2018-04-28T07:15:33Z</time>
      </trkpt>
      <trkpt lat="38.3147960" lon="-0.6559090">
        <ele>146.8</ele>
        <time>2018-04-28T07:15:34Z</time>
      </trkpt>
      <trkpt lat="38.3147190" lon="-0.6558950">
        <ele>146.5</ele>
        <time>2018-04-28T07:15:35Z</time>
      </trkpt>
      <trkpt lat="38.3146430" lon="-0.6558680">
        <ele>146.3</ele>
        <time>2018-04-28T07:15:36Z</time>
      </trkpt>
      <trkpt lat="38.3145650" lon="-0.6558350">
        <ele>146.0</ele>
        <time>2018-04-28T07:15:37Z</time>
      </trkpt>
      <trkpt lat="38.3144870" lon="-0.6557940">
        <ele>145.8</ele>
        <time>2018-04-28T07:15:38Z</time>
      </trkpt>
      <trkpt lat="38.3144090" lon="-0.6557460">
        <ele>145.5</ele>
        <time>2018-04-28T07:15:39Z</time>
      </trkpt>
      <trkpt lat="38.3143340" lon="-0.6556890">
        <ele>145.3</ele>
        <time>2018-04-28T07:15:40Z</time>
      </trkpt>
      <trkpt lat="38.3142620" lon="-0.6556250">
        <ele>145.1</ele>
        <time>2018-04-28T07:15:41Z</time>
      </trkpt>
      <trkpt lat="38.3141950" lon="-0.6555580">
        <ele>144.9</ele>
        <time>2018-04-28T07:15:42Z</time>
      </trkpt>
      <trkpt lat="38.3141400" lon="-0.6554750">
        <ele>144.8</ele>
        <time>2018-04-28T07:15:43Z</time>
      </trkpt>
      <trkpt lat="38.3141050" lon="-0.6553810">
        <ele>144.7</ele>
        <time>2018-04-28T07:15:44Z</time>
      </trkpt>
      <trkpt lat="38.3140550" lon="-0.6552920">
        <ele>144.6</ele>
        <time>2018-04-28T07:15:45Z</time>
      </trkpt>
      <trkpt lat="38.3140060" lon="-0.6551990">
        <ele>144.4</ele>
        <time>2018-04-28T07:15:46Z</time>
      </trkpt>
      <trkpt lat="38.3139620" lon="-0.6551080">
        <ele>144.3</ele>
        <time>2018-04-28T07:15:47Z</time>
      </trkpt>
      <trkpt lat="38.3139200" lon="-0.6550180">
        <ele>144.2</ele>
        <time>2018-04-28T07:15:48Z</time>
      </trkpt>
      <trkpt lat="38.3138710" lon="-0.6549310">
        <ele>144.1</ele>
        <time>2018-04-28T07:15:49Z</time>
      </trkpt>
      <trkpt lat="38.3138210" lon="-0.6548460">
        <ele>144.0</ele>
        <time>2018-04-28T07:15:50Z</time>
      </trkpt>
      <trkpt lat="38.3137650" lon="-0.6547710">
        <ele>143.9</ele>
        <time>2018-04-28T07:15:51Z</time>
      </trkpt>
      <trkpt lat="38.3136820" lon="-0.6547130">
        <ele>143.7</ele>
        <time>2018-04-28T07:15:52Z</time>
      </trkpt>
      <trkpt lat="38.3135770" lon="-0.6546810">
        <ele>143.5</ele>
        <time>2018-04-28T07:15:53Z</time>
      </trkpt>
      <trkpt lat="38.3134830" lon="-0.6546540">
        <ele>143.3</ele>
        <time>2018-04-28T07:15:54Z</time>
      </trkpt>
      <trkpt lat="38.3133930" lon="-0.6546270">
        <ele>143.1</ele>
        <time>2018-04-28T07:15:55Z</time>
      </trkpt>
      <trkpt lat="38.3133030" lon="-0.6546080">
        <ele>142.8</ele>
        <time>2018-04-28T07:15:56Z</time>
      </trkpt>
      <trkpt lat="38.3132130" lon="-0.6545930">
        <ele>142.2</ele>
        <time>2018-04-28T07:15:57Z</time>
      </trkpt>
      <trkpt lat="38.3131230" lon="-0.6545970">
        <ele>141.7</ele>
        <time>2018-04-28T07:15:58Z</time>
      </trkpt>
      <trkpt lat="38.3130340" lon="-0.6545770">
        <ele>141.1</ele>
        <time>2018-04-28T07:15:59Z</time>
      </trkpt>
      <trkpt lat="38.3129430" lon="-0.6545460">
        <ele>140.7</ele>
        <time>2018-04-28T07:16:00Z</time>
      </trkpt>
      <trkpt lat="38.3128530" lon="-0.6545170">
        <ele>140.5</ele>
        <time>2018-04-28T07:16:01Z</time>
      </trkpt>
      <trkpt lat="38.3127660" lon="-0.6544870">
        <ele>140.5</ele>
        <time>2018-04-28T07:16:02Z</time>
      </trkpt>
      <trkpt lat="38.3126840" lon="-0.6544550">
        <ele>140.7</ele>
        <time>2018-04-28T07:16:03Z</time>
      </trkpt>
      <trkpt lat="38.3126040" lon="-0.6544220">
        <ele>141.0</ele>
        <time>2018-04-28T07:16:04Z</time>
      </trkpt>
      <trkpt lat="38.3125230" lon="-0.6543900">
        <ele>141.3</ele>
        <time>2018-04-28T07:16:05Z</time>
      </trkpt>
      <trkpt lat="38.3124410" lon="-0.6543640">
        <ele>141.5</ele>
        <time>2018-04-28T07:16:06Z</time>
      </trkpt>
      <trkpt lat="38.3123640" lon="-0.6543390">
        <ele>141.7</ele>
        <time>2018-04-28T07:16:07Z</time>
      </trkpt>
      <trkpt lat="38.3122900" lon="-0.6543080">
        <ele>141.9</ele>
        <time>2018-04-28T07:16:08Z</time>
      </trkpt>
      <trkpt lat="38.3122180" lon="-0.6542750">
        <ele>142.0</ele>
        <time>2018-04-28T07:16:09Z</time>
      </trkpt>
      <trkpt lat="38.3121390" lon="-0.6542400">
        <ele>141.9</ele>
        <time>2018-04-28T07:16:10Z</time>
      </trkpt>
      <trkpt lat="38.3120640" lon="-0.6542040">
        <ele>141.7</ele>
        <time>2018-04-28T07:16:11Z</time>
      </trkpt>
      <trkpt lat="38.3119950" lon="-0.6541700">
        <ele>141.5</ele>
        <time>2018-04-28T07:16:12Z</time>
      </trkpt>
      <trkpt lat="38.3119330" lon="-0.6541330">
        <ele>141.4</ele>
        <time>2018-04-28T07:16:13Z</time>
      </trkpt>
      <trkpt lat="38.3118670" lon="-0.6540980">
        <ele>141.3</ele>
        <time>2018-04-28T07:16:14Z</time>
      </trkpt>
      <trkpt lat="38.3118080" lon="-0.6540630">
        <ele>141.1</ele>
        <time>2018-04-28T07:16:15Z</time>
      </trkpt>
      <trkpt lat="38.3117490" lon="-0.6540210">
        <ele>141.0</ele>
        <time>2018-04-28T07:16:16Z</time>
      </trkpt>
      <trkpt lat="38.3116960" lon="-0.6539680">
        <ele>140.7</ele>
        <time>2018-04-28T07:16:17Z</time>
      </trkpt>
      <trkpt lat="38.3116670" lon="-0.6539080">
        <ele>140.3</ele>
        <time>2018-04-28T07:16:18Z</time>
      </trkpt>
      <trkpt lat="38.3116480" lon="-0.6538430">
        <ele>139.9</ele>
        <time>2018-04-28T07:16:19Z</time>
      </trkpt>
      <trkpt lat="38.3116250" lon="-0.6537780">
        <ele>139.5</ele>
        <time>2018-04-28T07:16:20Z</time>
      </trkpt>
      <trkpt lat="38.3116030" lon="-0.6537170">
        <ele>139.0</ele>
        <time>2018-04-28T07:16:21Z</time>
      </trkpt>
      <trkpt lat="38.3115830" lon="-0.6536570">
        <ele>138.6</ele>
        <time>2018-04-28T07:16:22Z</time>
      </trkpt>
      <trkpt lat="38.3115630" lon="-0.6536020">
        <ele>138.2</ele>
        <time>2018-04-28T07:16:23Z</time>
      </trkpt>
      <trkpt lat="38.3115460" lon="-0.6535490">
        <ele>137.9</ele>
        <time>2018-04-28T07:16:24Z</time>
      </trkpt>
      <trkpt lat="38.3115300" lon="-0.6534980">
        <ele>137.6</ele>
        <time>2018-04-28T07:16:25Z</time>
      </trkpt>
      <trkpt lat="38.3115080" lon="-0.6534490">
        <ele>137.3</ele>
        <time>2018-04-28T07:16:26Z</time>
      </trkpt>
      <trkpt lat="38.3114900" lon="-0.6534010">
        <ele>136.9</ele>
        <time>2018-04-28T07:16:27Z</time>
      </trkpt>
      <trkpt lat="38.3114790" lon="-0.6533540">
        <ele>136.4</ele>
        <time>2018-04-28T07:16:28Z</time>
      </trkpt>
      <trkpt lat="38.3114680" lon="-0.6533070">
        <ele>135.9</ele>
        <time>2018-04-28T07:16:29Z</time>
      </trkpt>
      <trkpt lat="38.3114650" lon="-0.6532540">
        <ele>135.5</ele>
        <time>2018-04-28T07:16:30Z</time>
      </trkpt>
      <trkpt lat="38.3114680" lon="-0.6531880">
        <ele>135.0</ele>
        <time>2018-04-28T07:16:31Z</time>
      </trkpt>
      <trkpt lat="38.3114700" lon="-0.6531170">
        <ele>134.5</ele>
        <time>2018-04-28T07:16:32Z</time>
      </trkpt>
      <trkpt lat="38.3114710" lon="-0.6530390">
        <ele>134.0</ele>
        <time>2018-04-28T07:16:33Z</time>
      </trkpt>
      <trkpt lat="38.3114690" lon="-0.6529610">
        <ele>134.0</ele>
        <time>2018-04-28T07:16:34Z</time>
      </trkpt>
      <trkpt lat="38.3114500" lon="-0.6528890">
        <ele>134.0</ele>
        <time>2018-04-28T07:16:35Z</time>
      </trkpt>
      <trkpt lat="38.3114310" lon="-0.6528300">
        <ele>134.0</ele>
        <time>2018-04-28T07:16:36Z</time>
      </trkpt>
      <trkpt lat="38.3114060" lon="-0.6527800">
        <ele>134.0</ele>
        <time>2018-04-28T07:16:37Z</time>
      </trkpt>
      <trkpt lat="38.3113630" lon="-0.6527330">
        <ele>134.0</ele>
        <time>2018-04-28T07:16:38Z</time>
      </trkpt>
      <trkpt lat="38.3113090" lon="-0.6526890">
        <ele>134.2</ele>
        <time>2018-04-28T07:16:39Z</time>
      </trkpt>
      <trkpt lat="38.3112550" lon="-0.6526390">
        <ele>134.6</ele>
        <time>2018-04-28T07:16:40Z</time>
      </trkpt>
      <trkpt lat="38.3112080" lon="-0.6525840">
        <ele>135.0</ele>
        <time>2018-04-28T07:16:41Z</time>
      </trkpt>
      <trkpt lat="38.3111590" lon="-0.6525310">
        <ele>135.3</ele>
        <time>2018-04-28T07:16:42Z</time>
      </trkpt>
      <trkpt lat="38.3111110" lon="-0.6524800">
        <ele>135.5</ele>
        <time>2018-04-28T07:16:43Z</time>
      </trkpt>
      <trkpt lat="38.3110620" lon="-0.6524270">
        <ele>135.8</ele>
        <time>2018-04-28T07:16:44Z</time>
      </trkpt>
      <trkpt lat="38.3110190" lon="-0.6523770">
        <ele>135.9</ele>
        <time>2018-04-28T07:16:45Z</time>
      </trkpt>
      <trkpt lat="38.3109760" lon="-0.6523260">
        <ele>136.1</ele>
        <time>2018-04-28T07:16:46Z</time>
      </trkpt>
      <trkpt lat="38.3109340" lon="-0.6522750">
        <ele>136.2</ele>
        <time>2018-04-28T07:16:47Z</time>
      </trkpt>
      <trkpt lat="38.3108870" lon="-0.6522220">
        <ele>136.4</ele>
        <time>2018-04-28T07:16:48Z</time>
      </trkpt>
      <trkpt lat="38.3108410" lon="-0.6521690">
        <ele>136.6</ele>
        <time>2018-04-28T07:16:49Z</time>
      </trkpt>
      <trkpt lat="38.3107950" lon="-0.6521170">
        <ele>136.8</ele>
        <time>2018-04-28T07:16:50Z</time>
      </trkpt>
      <trkpt lat="38.3107500" lon="-0.6520670">
        <ele>137.0</ele>
        <time>2018-04-28T07:16:51Z</time>
      </trkpt>
      <trkpt lat="38.3107070" lon="-0.6520190">
        <ele>137.2</ele>
        <time>2018-04-28T07:16:52Z</time>
      </trkpt>
      <trkpt lat="38.3106670" lon="-0.6519710">
        <ele>137.5</ele>
        <time>2018-04-28T07:16:53Z</time>
      </trkpt>
      <trkpt lat="38.3106230" lon="-0.6519220">
        <ele>137.8</ele>
        <time>2018-04-28T07:16:54Z</time>
      </trkpt>
      <trkpt lat="38.3105820" lon="-0.6518750">
        <ele>138.0</ele>
        <time>2018-04-28T07:16:55Z</time>
      </trkpt>
      <trkpt lat="38.3105420" lon="-0.6518270">
        <ele>138.2</ele>
        <time>2018-04-28T07:16:56Z</time>
      </trkpt>
      <trkpt lat="38.3105010" lon="-0.6517780">
        <ele>138.3</ele>
        <time>2018-04-28T07:16:57Z</time>
      </trkpt>
      <trkpt lat="38.3104600" lon="-0.6517280">
        <ele>138.5</ele>
        <time>2018-04-28T07:16:58Z</time>
      </trkpt>
      <trkpt lat="38.3104190" lon="-0.6516750">
        <ele>138.6</ele>
        <time>2018-04-28T07:16:59Z</time>
      </trkpt>
      <trkpt lat="38.3103750" lon="-0.6516230">
        <ele>138.7</ele>
        <time>2018-04-28T07:17:00Z</time>
      </trkpt>
      <trkpt lat="38.3103330" lon="-0.6515660">
        <ele>138.7</ele>
        <time>2018-04-28T07:17:01Z</time>
      </trkpt>
      <trkpt lat="38.3102900" lon="-0.6515090">
        <ele>138.8</ele>
        <time>2018-04-28T07:17:02Z</time>
      </trkpt>
      <trkpt lat="38.3102460" lon="-0.6514510">
        <ele>138.8</ele>
        <time>2018-04-28T07:17:03Z</time>
      </trkpt>
      <trkpt lat="38.3102000" lon="-0.6513910">
        <ele>138.8</ele>
        <time>2018-04-28T07:17:04Z</time>
      </trkpt>
      <trkpt lat="38.3101530" lon="-0.6513290">
        <ele>138.8</ele>
        <time>2018-04-28T07:17:05Z</time>
      </trkpt>
      <trkpt lat="38.3101050" lon="-0.6512670">
        <ele>138.8</ele>
        <time>2018-04-28T07:17:06Z</time>
      </trkpt>
      <trkpt lat="38.3100550" lon="-0.6512050">
        <ele>138.8</ele>
        <time>2018-04-28T07:17:07Z</time>
      </trkpt>
      <trkpt lat="38.3100060" lon="-0.6511440">
        <ele>138.8</ele>
        <time>2018-04-28T07:17:08Z</time>
      </trkpt>
      <trkpt lat="38.3099580" lon="-0.6510830">
        <ele>138.8</ele>
        <time>2018-04-28T07:17:09Z</time>
      </trkpt>
      <trkpt lat="38.3099080" lon="-0.6510210">
        <ele>138.8</ele>
        <time>2018-04-28T07:17:10Z</time>
      </trkpt>
      <trkpt lat="38.3098570" lon="-0.6509610">
        <ele>138.8</ele>
        <time>2018-04-28T07:17:11Z</time>
      </trkpt>
      <trkpt lat="38.3098040" lon="-0.6508990">
        <ele>138.8</ele>
        <time>2018-04-28T07:17:12Z</time>
      </trkpt>
      <trkpt lat="38.3097570" lon="-0.6508330">
        <ele>138.8</ele>
        <time>2018-04-28T07:17:13Z</time>
      </trkpt>
      <trkpt lat="38.3097100" lon="-0.6507610">
        <ele>138.8</ele>
        <time>2018-04-28T07:17:14Z</time>
      </trkpt>
      <trkpt lat="38.3096640" lon="-0.6506890">
        <ele>138.8</ele>
        <time>2018-04-28T07:17:15Z</time>
      </trkpt>
      <trkpt lat="38.3096200" lon="-0.6506140">
        <ele>138.8</ele>
        <time>2018-04-28T07:17:16Z</time>
      </trkpt>
      <trkpt lat="38.3095790" lon="-0.6505380">
        <ele>138.9</ele>
        <time>2018-04-28T07:17:17Z</time>
      </trkpt>
      <trkpt lat="38.3095380" lon="-0.6504610">
        <ele>138.9</ele>
        <time>2018-04-28T07:17:18Z</time>
      </trkpt>
      <trkpt lat="38.3094990" lon="-0.6503840">
        <ele>139.0</ele>
        <time>2018-04-28T07:17:19Z</time>
      </trkpt>
      <trkpt lat="38.3094600" lon="-0.6503090">
        <ele>139.0</ele>
        <time>2018-04-28T07:17:20Z</time>
      </trkpt>
      <trkpt lat="38.3094180" lon="-0.6502340">
        <ele>139.1</ele>
        <time>2018-04-28T07:17:21Z</time>
      </trkpt>
      <trkpt lat="38.3093780" lon="-0.6501590">
        <ele>139.2</ele>
        <time>2018-04-28T07:17:22Z</time>
      </trkpt>
      <trkpt lat="38.3093360" lon="-0.6500830">
        <ele>139.4</ele>
        <time>2018-04-28T07:17:23Z</time>
      </trkpt>
      <trkpt lat="38.3092970" lon="-0.6500100">
        <ele>139.5</ele>
        <time>2018-04-28T07:17:24Z</time>
      </trkpt>
      <trkpt lat="38.3092580" lon="-0.6499360">
        <ele>139.6</ele>
        <time>2018-04-28T07:17:25Z</time>
      </trkpt>
      <trkpt lat="38.3092210" lon="-0.6498630">
        <ele>139.8</ele>
        <time>2018-04-28T07:17:26Z</time>
      </trkpt>
      <trkpt lat="38.3091830" lon="-0.6497920">
        <ele>139.9</ele>
        <time>2018-04-28T07:17:27Z</time>
      </trkpt>
      <trkpt lat="38.3091470" lon="-0.6497200">
        <ele>140.0</ele>
        <time>2018-04-28T07:17:28Z</time>
      </trkpt>
      <trkpt lat="38.3091140" lon="-0.6496480">
        <ele>140.1</ele>
        <time>2018-04-28T07:17:29Z</time>
      </trkpt>
      <trkpt lat="38.3090750" lon="-0.6495780">
        <ele>140.3</ele>
        <time>2018-04-28T07:17:30Z</time>
      </trkpt>
      <trkpt lat="38.3090380" lon="-0.6495110">
        <ele>140.4</ele>
        <time>2018-04-28T07:17:31Z</time>
      </trkpt>
      <trkpt lat="38.3089940" lon="-0.6494500">
        <ele>140.6</ele>
        <time>2018-04-28T07:17:32Z</time>
      </trkpt>
      <trkpt lat="38.3089460" lon="-0.6493970">
        <ele>140.7</ele>
        <time>2018-04-28T07:17:33Z</time>
      </trkpt>
      <trkpt lat="38.3088910" lon="-0.6493760">
        <ele>140.8</ele>
        <time>2018-04-28T07:17:34Z</time>
      </trkpt>
      <trkpt lat="38.3088340" lon="-0.6493560">
        <ele>141.0</ele>
        <time>2018-04-28T07:17:35Z</time>
      </trkpt>
      <trkpt lat="38.3087820" lon="-0.6493360">
        <ele>141.1</ele>
        <time>2018-04-28T07:17:36Z</time>
      </trkpt>
      <trkpt lat="38.3087290" lon="-0.6493170">
        <ele>141.3</ele>
        <time>2018-04-28T07:17:37Z</time>
      </trkpt>
      <trkpt lat="38.3086750" lon="-0.6492980">
        <ele>141.4</ele>
        <time>2018-04-28T07:17:38Z</time>
      </trkpt>
      <trkpt lat="38.3086100" lon="-0.6492800">
        <ele>141.4</ele>
        <time>2018-04-28T07:17:39Z</time>
      </trkpt>
      <trkpt lat="38.3085420" lon="-0.6492650">
        <ele>141.4</ele>
        <time>2018-04-28T07:17:40Z</time>
      </trkpt>
      <trkpt lat="38.3084670" lon="-0.6492500">
        <ele>141.3</ele>
        <time>2018-04-28T07:17:41Z</time>
      </trkpt>
      <trkpt lat="38.3083870" lon="-0.6492380">
        <ele>141.2</ele>
        <time>2018-04-28T07:17:42Z</time>
      </trkpt>
      <trkpt lat="38.3083000" lon="-0.6492290">
        <ele>141.0</ele>
        <time>2018-04-28T07:17:43Z</time>
      </trkpt>
      <trkpt lat="38.3082080" lon="-0.6492210">
        <ele>140.8</ele>
        <time>2018-04-28T07:17:44Z</time>
      </trkpt>
      <trkpt lat="38.3081140" lon="-0.6492180">
        <ele>140.6</ele>
        <time>2018-04-28T07:17:45Z</time>
      </trkpt>
      <trkpt lat="38.3080200" lon="-0.6492200">
        <ele>140.3</ele>
        <time>2018-04-28T07:17:46Z</time>
      </trkpt>
      <trkpt lat="38.3079280" lon="-0.6492160">
        <ele>140.0</ele>
        <time>2018-04-28T07:17:47Z</time>
      </trkpt>
      <trkpt lat="38.3078370" lon="-0.6492070">
        <ele>139.8</ele>
        <time>2018-04-28T07:17:48Z</time>
      </trkpt>
      <trkpt lat="38.3077470" lon="-0.6491980">
        <ele>139.7</ele>
        <time>2018-04-28T07:17:49Z</time>
      </trkpt>
      <trkpt lat="38.3076590" lon="-0.6491900">
        <ele>139.5</ele>
        <time>2018-04-28T07:17:50Z</time>
      </trkpt>
      <trkpt lat="38.3075720" lon="-0.6491810">
        <ele>139.4</ele>
        <time>2018-04-28T07:17:51Z</time>
      </trkpt>
      <trkpt lat="38.3074870" lon="-0.6491770">
        <ele>139.4</ele>
        <time>2018-04-28T07:17:52Z</time>
      </trkpt>
      <trkpt lat="38.3074030" lon="-0.6491740">
        <ele>139.3</ele>
        <time>2018-04-28T07:17:53Z</time>
      </trkpt>
      <trkpt lat="38.3073200" lon="-0.6491740">
        <ele>139.3</ele>
        <time>2018-04-28T07:17:54Z</time>
      </trkpt>
      <trkpt lat="38.3072400" lon="-0.6491830">
        <ele>139.4</ele>
        <time>2018-04-28T07:17:55Z</time>
      </trkpt>
      <trkpt lat="38.3071640" lon="-0.6492000">
        <ele>139.5</ele>
        <time>2018-04-28T07:17:56Z</time>
      </trkpt>
      <trkpt lat="38.3070900" lon="-0.6492060">
        <ele>139.7</ele>
        <time>2018-04-28T07:17:57Z</time>
      </trkpt>
      <trkpt lat="38.3070190" lon="-0.6491910">
        <ele>139.8</ele>
        <time>2018-04-28T07:17:58Z</time>
      </trkpt>
      <trkpt lat="38.3069520" lon="-0.6491610">
        <ele>140.1</ele>
        <time>2018-04-28T07:17:59Z</time>
      </trkpt>
      <trkpt lat="38.3068970" lon="-0.6491090">
        <ele>140.5</ele>
        <time>2018-04-28T07:18:00Z</time>
      </trkpt>
      <trkpt lat="38.3068480" lon="-0.6490480">
        <ele>140.8</ele>
        <time>2018-04-28T07:18:01Z</time>
      </trkpt>
      <trkpt lat="38.3067980" lon="-0.6489890">
        <ele>141.0</ele>
        <time>2018-04-28T07:18:02Z</time>
      </trkpt>
      <trkpt lat="38.3067400" lon="-0.6489420">
        <ele>140.6</ele>
        <time>2018-04-28T07:18:03Z</time>
      </trkpt>
      <trkpt lat="38.3066710" lon="-0.6489150">
        <ele>140.0</ele>
        <time>2018-04-28T07:18:04Z</time>
      </trkpt>
      <trkpt lat="38.3065960" lon="-0.6489050">
        <ele>139.1</ele>
        <time>2018-04-28T07:18:05Z</time>
      </trkpt>
      <trkpt lat="38.3065130" lon="-0.6489100">
        <ele>138.2</ele>
        <time>2018-04-28T07:18:06Z</time>
      </trkpt>
      <trkpt lat="38.3064230" lon="-0.6489280">
        <ele>137.7</ele>
        <time>2018-04-28T07:18:07Z</time>
      </trkpt>
      <trkpt lat="38.3063320" lon="-0.6489530">
        <ele>137.2</ele>
        <time>2018-04-28T07:18:08Z</time>
      </trkpt>
      <trkpt lat="38.3062360" lon="-0.6489830">
        <ele>136.2</ele>
        <time>2018-04-28T07:18:09Z</time>
      </trkpt>
      <trkpt lat="38.3061400" lon="-0.6490200">
        <ele>135.1</ele>
        <time>2018-04-28T07:18:10Z</time>
      </trkpt>
      <trkpt lat="38.3060370" lon="-0.6490590">
        <ele>134.5</ele>
        <time>2018-04-28T07:18:11Z</time>
      </trkpt>
      <trkpt lat="38.3059320" lon="-0.6490930">
        <ele>134.0</ele>
        <time>2018-04-28T07:18:12Z</time>
      </trkpt>
      <trkpt lat="38.3058270" lon="-0.6491230">
        <ele>133.2</ele>
        <time>2018-04-28T07:18:13Z</time>
      </trkpt>
      <trkpt lat="38.3057190" lon="-0.6491480">
        <ele>132.2</ele>
        <time>2018-04-28T07:18:14Z</time>
      </trkpt>
      <trkpt lat="38.3056140" lon="-0.6491690">
        <ele>131.6</ele>
        <time>2018-04-28T07:18:15Z</time>
      </trkpt>
      <trkpt lat="38.3055090" lon="-0.6491890">
        <ele>131.4</ele>
        <time>2018-04-28T07:18:16Z</time>
      </trkpt>
      <trkpt lat="38.3054060" lon="-0.6492080">
        <ele>131.1</ele>
        <time>2018-04-28T07:18:17Z</time>
      </trkpt>
      <trkpt lat="38.3053060" lon="-0.6492260">
        <ele>130.9</ele>
        <time>2018-04-28T07:18:18Z</time>
      </trkpt>
      <trkpt lat="38.3052030" lon="-0.6492430">
        <ele>130.8</ele>
        <time>2018-04-28T07:18:19Z</time>
      </trkpt>
      <trkpt lat="38.3051010" lon="-0.6492600">
        <ele>130.7</ele>
        <time>2018-04-28T07:18:20Z</time>
      </trkpt>
      <trkpt lat="38.3049990" lon="-0.6492710">
        <ele>130.5</ele>
        <time>2018-04-28T07:18:21Z</time>
      </trkpt>
      <trkpt lat="38.3048960" lon="-0.6492810">
        <ele>130.4</ele>
        <time>2018-04-28T07:18:22Z</time>
      </trkpt>
      <trkpt lat="38.3047950" lon="-0.6492910">
        <ele>130.3</ele>
        <time>2018-04-28T07:18:23Z</time>
      </trkpt>
      <trkpt lat="38.3046940" lon="-0.6492960">
        <ele>130.0</ele>
        <time>2018-04-28T07:18:24Z</time>
      </trkpt>
      <trkpt lat="38.3045940" lon="-0.6493030">
        <ele>129.7</ele>
        <time>2018-04-28T07:18:25Z</time>
      </trkpt>
      <trkpt lat="38.3044960" lon="-0.6493120">
        <ele>129.3</ele>
        <time>2018-04-28T07:18:26Z</time>
      </trkpt>
      <trkpt lat="38.3044030" lon="-0.6493260">
        <ele>128.6</ele>
        <time>2018-04-28T07:18:27Z</time>
      </trkpt>
      <trkpt lat="38.3043220" lon="-0.6493760">
        <ele>128.0</ele>
        <time>2018-04-28T07:18:28Z</time>
      </trkpt>
      <trkpt lat="38.3042470" lon="-0.6494420">
        <ele>127.5</ele>
        <time>2018-04-28T07:18:29Z</time>
      </trkpt>
      <trkpt lat="38.3041820" lon="-0.6495340">
        <ele>127.0</ele>
        <time>2018-04-28T07:18:30Z</time>
      </trkpt>
      <trkpt lat="38.3041190" lon="-0.6496180">
        <ele>126.7</ele>
        <time>2018-04-28T07:18:31Z</time>
      </trkpt>
      <trkpt lat="38.3040550" lon="-0.6497030">
        <ele>126.5</ele>
        <time>2018-04-28T07:18:32Z</time>
      </trkpt>
      <trkpt lat="38.3039860" lon="-0.6497760">
        <ele>126.3</ele>
        <time>2018-04-28T07:18:33Z</time>
      </trkpt>
      <trkpt lat="38.3039090" lon="-0.6498310">
        <ele>126.1</ele>
        <time>2018-04-28T07:18:34Z</time>
      </trkpt>
      <trkpt lat="38.3038270" lon="-0.6498690">
        <ele>126.0</ele>
        <time>2018-04-28T07:18:35Z</time>
      </trkpt>
      <trkpt lat="38.3037390" lon="-0.6498970">
        <ele>125.9</ele>
        <time>2018-04-28T07:18:36Z</time>
      </trkpt>
      <trkpt lat="38.3036540" lon="-0.6499160">
        <ele>125.8</ele>
        <time>2018-04-28T07:18:37Z</time>
      </trkpt>
      <trkpt lat="38.3035670" lon="-0.6499260">
        <ele>125.7</ele>
        <time>2018-04-28T07:18:38Z</time>
      </trkpt>
      <trkpt lat="38.3034810" lon="-0.6499390">
        <ele>125.6</ele>
        <time>2018-04-28T07:18:39Z</time>
      </trkpt>
      <trkpt lat="38.3033950" lon="-0.6499580">
        <ele>125.5</ele>
        <time>2018-04-28T07:18:40Z</time>
      </trkpt>
      <trkpt lat="38.3033100" lon="-0.6499850">
        <ele>125.4</ele>
        <time>2018-04-28T07:18:41Z</time>
      </trkpt>
      <trkpt lat="38.3032260" lon="-0.6500200">
        <ele>125.3</ele>
        <time>2018-04-28T07:18:42Z</time>
      </trkpt>
      <trkpt lat="38.3031440" lon="-0.6500610">
        <ele>125.2</ele>
        <time>2018-04-28T07:18:43Z</time>
      </trkpt>
      <trkpt lat="38.3030620" lon="-0.6501070">
        <ele>125.0</ele>
        <time>2018-04-28T07:18:44Z</time>
      </trkpt>
      <trkpt lat="38.3029820" lon="-0.6501600">
        <ele>125.1</ele>
        <time>2018-04-28T07:18:45Z</time>
      </trkpt>
      <trkpt lat="38.3029030" lon="-0.6502160">
        <ele>125.2</ele>
        <time>2018-04-28T07:18:46Z</time>
      </trkpt>
      <trkpt lat="38.3028240" lon="-0.6502770">
        <ele>125.4</ele>
        <time>2018-04-28T07:18:47Z</time>
      </trkpt>
      <trkpt lat="38.3027510" lon="-0.6503370">
        <ele>125.6</ele>
        <time>2018-04-28T07:18:48Z</time>
      </trkpt>
      <trkpt lat="38.3026720" lon="-0.6504000">
        <ele>125.8</ele>
        <time>2018-04-28T07:18:49Z</time>
      </trkpt>
      <trkpt lat="38.3025980" lon="-0.6504610">
        <ele>126.0</ele>
        <time>2018-04-28T07:18:50Z</time>
      </trkpt>
      <trkpt lat="38.3025240" lon="-0.6505240">
        <ele>126.2</ele>
        <time>2018-04-28T07:18:51Z</time>
      </trkpt>
      <trkpt lat="38.3024530" lon="-0.6505890">
        <ele>126.3</ele>
        <time>2018-04-28T07:18:52Z</time>
      </trkpt>
      <trkpt lat="38.3023830" lon="-0.6506530">
        <ele>126.5</ele>
        <time>2018-04-28T07:18:53Z</time>
      </trkpt>
      <trkpt lat="38.3023120" lon="-0.6507150">
        <ele>126.8</ele>
        <time>2018-04-28T07:18:54Z</time>
      </trkpt>
      <trkpt lat="38.3022420" lon="-0.6507750">
        <ele>127.0</ele>
        <time>2018-04-28T07:18:55Z</time>
      </trkpt>
      <trkpt lat="38.3021720" lon="-0.6508340">
        <ele>126.8</ele>
        <time>2018-04-28T07:18:56Z</time>
      </trkpt>
      <trkpt lat="38.3021000" lon="-0.6508890">
        <ele>126.6</ele>
        <time>2018-04-28T07:18:57Z</time>
      </trkpt>
      <trkpt lat="38.3020280" lon="-0.6509410">
        <ele>126.4</ele>
        <time>2018-04-28T07:18:58Z</time>
      </trkpt>
      <trkpt lat="38.3019540" lon="-0.6509910">
        <ele>126.2</ele>
        <time>2018-04-28T07:18:59Z</time>
      </trkpt>
      <trkpt lat="38.3018800" lon="-0.6510400">
        <ele>126.0</ele>
        <time>2018-04-28T07:19:00Z</time>
      </trkpt>
      <trkpt lat="38.3018050" lon="-0.6510890">
        <ele>125.8</ele>
        <time>2018-04-28T07:19:01Z</time>
      </trkpt>
      <trkpt lat="38.3017320" lon="-0.6511380">
        <ele>125.6</ele>
        <time>2018-04-28T07:19:02Z</time>
      </trkpt>
      <trkpt lat="38.3016640" lon="-0.6511930">
        <ele>125.2</ele>
        <time>2018-04-28T07:19:03Z</time>
      </trkpt>
      <trkpt lat="38.3015980" lon="-0.6512540">
        <ele>125.0</ele>
        <time>2018-04-28T07:19:04Z</time>
      </trkpt>
      <trkpt lat="38.3015350" lon="-0.6513250">
        <ele>124.9</ele>
        <time>2018-04-28T07:19:05Z</time>
      </trkpt>
      <trkpt lat="38.3014740" lon="-0.6513990">
        <ele>124.8</ele>
        <time>2018-04-28T07:19:06Z</time>
      </trkpt>
      <trkpt lat="38.3014160" lon="-0.6514790">
        <ele>124.8</ele>
        <time>2018-04-28T07:19:07Z</time>
      </trkpt>
      <trkpt lat="38.3013590" lon="-0.6515570">
        <ele>124.7</ele>
        <time>2018-04-28T07:19:08Z</time>
      </trkpt>
      <trkpt lat="38.3012990" lon="-0.6516350">
        <ele>124.6</ele>
        <time>2018-04-28T07:19:09Z</time>
      </trkpt>
      <trkpt lat="38.3012390" lon="-0.6517110">
        <ele>124.5</ele>
        <time>2018-04-28T07:19:10Z</time>
      </trkpt>
      <trkpt lat="38.3011810" lon="-0.6517890">
        <ele>124.5</ele>
        <time>2018-04-28T07:19:11Z</time>
      </trkpt>
      <trkpt lat="38.3011230" lon="-0.6518670">
        <ele>124.4</ele>
        <time>2018-04-28T07:19:12Z</time>
      </trkpt>
      <trkpt lat="38.3010650" lon="-0.6519430">
        <ele>124.2</ele>
        <time>2018-04-28T07:19:13Z</time>
      </trkpt>
      <trkpt lat="38.3010060" lon="-0.6520180">
        <ele>124.1</ele>
        <time>2018-04-28T07:19:14Z</time>
      </trkpt>
      <trkpt lat="38.3009420" lon="-0.6520880">
        <ele>123.6</ele>
        <time>2018-04-28T07:19:15Z</time>
      </trkpt>
      <trkpt lat="38.3008780" lon="-0.6521620">
        <ele>122.8</ele>
        <time>2018-04-28T07:19:16Z</time>
      </trkpt>
      <trkpt lat="38.3008160" lon="-0.6522380">
        <ele>122.0</ele>
        <time>2018-04-28T07:19:17Z</time>
      </trkpt>
      <trkpt lat="38.3007540" lon="-0.6523110">
        <ele>121.4</ele>
        <time>2018-04-28T07:19:18Z</time>
      </trkpt>
      <trkpt lat="38.3006910" lon="-0.6523760">
        <ele>120.8</ele>
        <time>2018-04-28T07:19:19Z</time>
      </trkpt>
      <trkpt lat="38.3006250" lon="-0.6524370">
        <ele>120.2</ele>
        <time>2018-04-28T07:19:20Z</time>
      </trkpt>
      <trkpt lat="38.3005570" lon="-0.6524900">
        <ele>119.7</ele>
        <time>2018-04-28T07:19:21Z</time>
      </trkpt>
      <trkpt lat="38.3004850" lon="-0.6525320">
        <ele>118.9</ele>
        <time>2018-04-28T07:19:22Z</time>
      </trkpt>
      <trkpt lat="38.3004110" lon="-0.6525630">
        <ele>118.1</ele>
        <time>2018-04-28T07:19:23Z</time>
      </trkpt>
      <trkpt lat="38.3003370" lon="-0.6525910">
        <ele>117.7</ele>
        <time>2018-04-28T07:19:24Z</time>
      </trkpt>
      <trkpt lat="38.3002630" lon="-0.6526110">
        <ele>117.3</ele>
        <time>2018-04-28T07:19:25Z</time>
      </trkpt>
      <trkpt lat="38.3001910" lon="-0.6526320">
        <ele>116.8</ele>
        <time>2018-04-28T07:19:26Z</time>
      </trkpt>
      <trkpt lat="38.3001180" lon="-0.6526520">
        <ele>116.4</ele>
        <time>2018-04-28T07:19:27Z</time>
      </trkpt>
      <trkpt lat="38.3000560" lon="-0.6526840">
        <ele>116.0</ele>
        <time>2018-04-28T07:19:28Z</time>
      </trkpt>
      <trkpt lat="38.3000060" lon="-0.6527360">
        <ele>115.0</ele>
        <time>2018-04-28T07:19:29Z</time>
      </trkpt>
      <trkpt lat="38.2999690" lon="-0.6528050">
        <ele>115.1</ele>
        <time>2018-04-28T07:19:30Z</time>
      </trkpt>
      <trkpt lat="38.2999410" lon="-0.6528920">
        <ele>115.2</ele>
        <time>2018-04-28T07:19:31Z</time>
      </trkpt>
      <trkpt lat="38.2999200" lon="-0.6529930">
        <ele>115.2</ele>
        <time>2018-04-28T07:19:32Z</time>
      </trkpt>
      <trkpt lat="38.2999020" lon="-0.6530960">
        <ele>115.2</ele>
        <time>2018-04-28T07:19:33Z</time>
      </trkpt>
      <trkpt lat="38.2998940" lon="-0.6531990">
        <ele>115.1</ele>
        <time>2018-04-28T07:19:34Z</time>
      </trkpt>
      <trkpt lat="38.2998770" lon="-0.6532760">
        <ele>115.0</ele>
        <time>2018-04-28T07:19:35Z</time>
      </trkpt>
      <trkpt lat="38.2998510" lon="-0.6533340">
        <ele>114.8</ele>
        <time>2018-04-28T07:19:36Z</time>
      </trkpt>
      <trkpt lat="38.2998200" lon="-0.6533900">
        <ele>114.6</ele>
        <time>2018-04-28T07:19:37Z</time>
      </trkpt>
      <trkpt lat="38.2997900" lon="-0.6534290">
        <ele>114.5</ele>
        <time>2018-04-28T07:19:38Z</time>
      </trkpt>
      <trkpt lat="38.2997520" lon="-0.6534650">
        <ele>114.5</ele>
        <time>2018-04-28T07:19:39Z</time>
      </trkpt>
      <trkpt lat="38.2997130" lon="-0.6535020">
        <ele>114.5</ele>
        <time>2018-04-28T07:19:40Z</time>
      </trkpt>
      <trkpt lat="38.2996680" lon="-0.6535360">
        <ele>114.5</ele>
        <time>2018-04-28T07:19:41Z</time>
      </trkpt>
      <trkpt lat="38.2996110" lon="-0.6534170">
        <ele>114.8</ele>
        <time>2018-04-28T07:19:42Z</time>
      </trkpt>
      <trkpt lat="38.2996020" lon="-0.6533060">
        <ele>115.1</ele>
        <time>2018-04-28T07:19:43Z</time>
      </trkpt>
      <trkpt lat="38.2995950" lon="-0.6532710">
        <ele>115.2</ele>
        <time>2018-04-28T07:19:44Z</time>
      </trkpt>
      <trkpt lat="38.2995760" lon="-0.6532340">
        <ele>115.2</ele>
        <time>2018-04-28T07:19:45Z</time>
      </trkpt>
      <trkpt lat="38.2995700" lon="-0.6531910">
        <ele>115.3</ele>
        <time>2018-04-28T07:19:46Z</time>
      </trkpt>
      <trkpt lat="38.2995660" lon="-0.6531460">
        <ele>115.4</ele>
        <time>2018-04-28T07:19:47Z</time>
      </trkpt>
      <trkpt lat="38.2995630" lon="-0.6531020">
        <ele>115.5</ele>
        <time>2018-04-28T07:19:48Z</time>
      </trkpt>
      <trkpt lat="38.2995640" lon="-0.6530580">
        <ele>115.5</ele>
        <time>2018-04-28T07:19:49Z</time>
      </trkpt>
      <trkpt lat="38.2995670" lon="-0.6530130">
        <ele>115.5</ele>
        <time>2018-04-28T07:19:50Z</time>
      </trkpt>
      <trkpt lat="38.2995730" lon="-0.6529700">
        <ele>115.5</ele>
        <time>2018-04-28T07:19:51Z</time>
      </trkpt>
      <trkpt lat="38.2995750" lon="-0.6529280">
        <ele>115.5</ele>
        <time>2018-04-28T07:19:52Z</time>
      </trkpt>
      <trkpt lat="38.2995690" lon="-0.6528870">
        <ele>115.4</ele>
        <time>2018-04-28T07:19:53Z</time>
      </trkpt>
      <trkpt lat="38.2995600" lon="-0.6528480">
        <ele>115.3</ele>
        <time>2018-04-28T07:19:54Z</time>
      </trkpt>
      <trkpt lat="38.2995420" lon="-0.6528130">
        <ele>115.2</ele>
        <time>2018-04-28T07:19:55Z</time>
      </trkpt>
      <trkpt lat="38.2995240" lon="-0.6527930">
        <ele>115.1</ele>
        <time>2018-04-28T07:19:56Z</time>
      </trkpt>
      <trkpt lat="38.2994860" lon="-0.6527720">
        <ele>115.0</ele>
        <time>2018-04-28T07:19:57Z</time>
      </trkpt>
      <trkpt lat="38.2994430" lon="-0.6527590">
        <ele>115.0</ele>
        <time>2018-04-28T07:19:58Z</time>
      </trkpt>
      <trkpt lat="38.2993960" lon="-0.6527510">
        <ele>115.0</ele>
        <time>2018-04-28T07:19:59Z</time>
      </trkpt>
      <trkpt lat="38.2993490" lon="-0.6527440">
        <ele>115.0</ele>
        <time>2018-04-28T07:20:00Z</time>
      </trkpt>
      <trkpt lat="38.2992990" lon="-0.6527340">
        <ele>114.9</ele>
        <time>2018-04-28T07:20:01Z</time>
      </trkpt>
      <trkpt lat="38.2992480" lon="-0.6527260">
        <ele>114.9</ele>
        <time>2018-04-28T07:20:02Z</time>
      </trkpt>
      <trkpt lat="38.2991920" lon="-0.6527180">
        <ele>114.9</ele>
        <time>2018-04-28T07:20:03Z</time>
      </trkpt>
      <trkpt lat="38.2991360" lon="-0.6527110">
        <ele>114.9</ele>
        <time>2018-04-28T07:20:04Z</time>
      </trkpt>
      <trkpt lat="38.2990790" lon="-0.6527060">
        <ele>114.9</ele>
        <time>2018-04-28T07:20:05Z</time>
      </trkpt>
      <trkpt lat="38.2990200" lon="-0.6527040">
        <ele>114.9</ele>
        <time>2018-04-28T07:20:06Z</time>
      </trkpt>
      <trkpt lat="38.2989570" lon="-0.6527060">
        <ele>114.9</ele>
        <time>2018-04-28T07:20:07Z</time>
      </trkpt>
      <trkpt lat="38.2988960" lon="-0.6527120">
        <ele>114.9</ele>
        <time>2018-04-28T07:20:08Z</time>
      </trkpt>
      <trkpt lat="38.2988340" lon="-0.6527220">
        <ele>114.9</ele>
        <time>2018-04-28T07:20:09Z</time>
      </trkpt>
      <trkpt lat="38.2987690" lon="-0.6527480">
        <ele>114.9</ele>
        <time>2018-04-28T07:20:10Z</time>
      </trkpt>
      <trkpt lat="38.2987050" lon="-0.6527700">
        <ele>114.9</ele>
        <time>2018-04-28T07:20:11Z</time>
      </trkpt>
      <trkpt lat="38.2986400" lon="-0.6527930">
        <ele>115.0</ele>
        <time>2018-04-28T07:20:12Z</time>
      </trkpt>
      <trkpt lat="38.2985760" lon="-0.6528080">
        <ele>115.0</ele>
        <time>2018-04-28T07:20:13Z</time>
      </trkpt>
      <trkpt lat="38.2985110" lon="-0.6528150">
        <ele>115.0</ele>
        <time>2018-04-28T07:20:14Z</time>
      </trkpt>
      <trkpt lat="38.2984460" lon="-0.6528250">
        <ele>114.9</ele>
        <time>2018-04-28T07:20:15Z</time>
      </trkpt>
      <trkpt lat="38.2983820" lon="-0.6528380">
        <ele>114.8</ele>
        <time>2018-04-28T07:20:16Z</time>
      </trkpt>
      <trkpt lat="38.2983140" lon="-0.6528510">
        <ele>114.7</ele>
        <time>2018-04-28T07:20:17Z</time>
      </trkpt>
      <trkpt lat="38.2982410" lon="-0.6528640">
        <ele>114.5</ele>
        <time>2018-04-28T07:20:18Z</time>
      </trkpt>
      <trkpt lat="38.2981690" lon="-0.6528740">
        <ele>114.4</ele>
        <time>2018-04-28T07:20:19Z</time>
      </trkpt>
      <trkpt lat="38.2980940" lon="-0.6528900">
        <ele>114.3</ele>
        <time>2018-04-28T07:20:20Z</time>
      </trkpt>
      <trkpt lat="38.2980170" lon="-0.6529110">
        <ele>114.1</ele>
        <time>2018-04-28T07:20:21Z</time>
      </trkpt>
      <trkpt lat="38.2979400" lon="-0.6529270">
        <ele>114.0</ele>
        <time>2018-04-28T07:20:22Z</time>
      </trkpt>
      <trkpt lat="38.2978630" lon="-0.6529400">
        <ele>113.9</ele>
        <time>2018-04-28T07:20:23Z</time>
      </trkpt>
      <trkpt lat="38.2977870" lon="-0.6529510">
        <ele>113.8</ele>
        <time>2018-04-28T07:20:24Z</time>
      </trkpt>
      <trkpt lat="38.2977100" lon="-0.6529530">
        <ele>113.8</ele>
        <time>2018-04-28T07:20:25Z</time>
      </trkpt>
      <trkpt lat="38.2976340" lon="-0.6529550">
        <ele>113.8</ele>
        <time>2018-04-28T07:20:26Z</time>
      </trkpt>
      <trkpt lat="38.2975560" lon="-0.6529590">
        <ele>113.8</ele>
        <time>2018-04-28T07:20:27Z</time>
      </trkpt>
      <trkpt lat="38.2974820" lon="-0.6529780">
        <ele>113.7</ele>
        <time>2018-04-28T07:20:28Z</time>
      </trkpt>
      <trkpt lat="38.2974090" lon="-0.6530070">
        <ele>113.7</ele>
        <time>2018-04-28T07:20:29Z</time>
      </trkpt>
      <trkpt lat="38.2973360" lon="-0.6530480">
        <ele>113.8</ele>
        <time>2018-04-28T07:20:30Z</time>
      </trkpt>
      <trkpt lat="38.2972700" lon="-0.6530980">
        <ele>113.8</ele>
        <time>2018-04-28T07:20:31Z</time>
      </trkpt>
      <trkpt lat="38.2972050" lon="-0.6531490">
        <ele>113.8</ele>
        <time>2018-04-28T07:20:32Z</time>
      </trkpt>
      <trkpt lat="38.2971390" lon="-0.6532000">
        <ele>113.8</ele>
        <time>2018-04-28T07:20:33Z</time>
      </trkpt>
      <trkpt lat="38.2970740" lon="-0.6532480">
        <ele>113.8</ele>
        <time>2018-04-28T07:20:34Z</time>
      </trkpt>
      <trkpt lat="38.2970090" lon="-0.6532960">
        <ele>113.9</ele>
        <time>2018-04-28T07:20:35Z</time>
      </trkpt>
      <trkpt lat="38.2969440" lon="-0.6533460">
        <ele>113.9</ele>
        <time>2018-04-28T07:20:36Z</time>
      </trkpt>
      <trkpt lat="38.2968810" lon="-0.6533960">
        <ele>113.9</ele>
        <time>2018-04-28T07:20:37Z</time>
      </trkpt>
      <trkpt lat="38.2968190" lon="-0.6534470">
        <ele>114.0</ele>
        <time>2018-04-28T07:20:38Z</time>
      </trkpt>
      <trkpt lat="38.2967570" lon="-0.6535020">
        <ele>114.0</ele>
        <time>2018-04-28T07:20:39Z</time>
      </trkpt>
      <trkpt lat="38.2966940" lon="-0.6535530">
        <ele>113.9</ele>
        <time>2018-04-28T07:20:40Z</time>
      </trkpt>
      <trkpt lat="38.2966300" lon="-0.6536050">
        <ele>113.8</ele>
        <time>2018-04-28T07:20:41Z</time>
      </trkpt>
      <trkpt lat="38.2965620" lon="-0.6536480">
        <ele>113.7</ele>
        <time>2018-04-28T07:20:42Z</time>
      </trkpt>
      <trkpt lat="38.2964890" lon="-0.6536760">
        <ele>113.6</ele>
        <time>2018-04-28T07:20:43Z</time>
      </trkpt>
      <trkpt lat="38.2964120" lon="-0.6536910">
        <ele>113.5</ele>
        <time>2018-04-28T07:20:44Z</time>
      </trkpt>
      <trkpt lat="38.2963310" lon="-0.6536960">
        <ele>113.3</ele>
        <time>2018-04-28T07:20:45Z</time>
      </trkpt>
      <trkpt lat="38.2962480" lon="-0.6536970">
        <ele>113.1</ele>
        <time>2018-04-28T07:20:46Z</time>
      </trkpt>
      <trkpt lat="38.2961620" lon="-0.6536950">
        <ele>112.9</ele>
        <time>2018-04-28T07:20:47Z</time>
      </trkpt>
      <trkpt lat="38.2960740" lon="-0.6536920">
        <ele>112.7</ele>
        <time>2018-04-28T07:20:48Z</time>
      </trkpt>
      <trkpt lat="38.2959880" lon="-0.6536900">
        <ele>112.5</ele>
        <time>2018-04-28T07:20:49Z</time>
      </trkpt>
      <trkpt lat="38.2959020" lon="-0.6536930">
        <ele>112.3</ele>
        <time>2018-04-28T07:20:50Z</time>
      </trkpt>
      <trkpt lat="38.2958170" lon="-0.6537010">
        <ele>112.1</ele>
        <time>2018-04-28T07:20:51Z</time>
      </trkpt>
      <trkpt lat="38.2957330" lon="-0.6537120">
        <ele>111.8</ele>
        <time>2018-04-28T07:20:52Z</time>
      </trkpt>
      <trkpt lat="38.2956460" lon="-0.6537300">
        <ele>111.5</ele>
        <time>2018-04-28T07:20:53Z</time>
      </trkpt>
      <trkpt lat="38.2955590" lon="-0.6537450">
        <ele>111.1</ele>
        <time>2018-04-28T07:20:54Z</time>
      </trkpt>
      <trkpt lat="38.2954730" lon="-0.6537620">
        <ele>110.7</ele>
        <time>2018-04-28T07:20:55Z</time>
      </trkpt>
      <trkpt lat="38.2953850" lon="-0.6537790">
        <ele>110.2</ele>
        <time>2018-04-28T07:20:56Z</time>
      </trkpt>
      <trkpt lat="38.2952980" lon="-0.6537950">
        <ele>109.8</ele>
        <time>2018-04-28T07:20:57Z</time>
      </trkpt>
      <trkpt lat="38.2952120" lon="-0.6538090">
        <ele>109.4</ele>
        <time>2018-04-28T07:20:58Z</time>
      </trkpt>
      <trkpt lat="38.2951230" lon="-0.6538230">
        <ele>109.1</ele>
        <time>2018-04-28T07:20:59Z</time>
      </trkpt>
      <trkpt lat="38.2950350" lon="-0.6538350">
        <ele>108.9</ele>
        <time>2018-04-28T07:21:00Z</time>
      </trkpt>
      <trkpt lat="38.2949510" lon="-0.6538500">
        <ele>108.8</ele>
        <time>2018-04-28T07:21:01Z</time>
      </trkpt>
      <trkpt lat="38.2948650" lon="-0.6538640">
        <ele>108.6</ele>
        <time>2018-04-28T07:21:02Z</time>
      </trkpt>
      <trkpt lat="38.2947780" lon="-0.6538710">
        <ele>108.5</ele>
        <time>2018-04-28T07:21:03Z</time>
      </trkpt>
      <trkpt lat="38.2946910" lon="-0.6538700">
        <ele>108.4</ele>
        <time>2018-04-28T07:21:04Z</time>
      </trkpt>
      <trkpt lat="38.2946110" lon="-0.6538560">
        <ele>108.3</ele>
        <time>2018-04-28T07:21:05Z</time>
      </trkpt>
      <trkpt lat="38.2945340" lon="-0.6538320">
        <ele>108.2</ele>
        <time>2018-04-28T07:21:06Z</time>
      </trkpt>
      <trkpt lat="38.2944580" lon="-0.6537970">
        <ele>108.2</ele>
        <time>2018-04-28T07:21:07Z</time>
      </trkpt>
      <trkpt lat="38.2943880" lon="-0.6537530">
        <ele>108.2</ele>
        <time>2018-04-28T07:21:08Z</time>
      </trkpt>
      <trkpt lat="38.2943190" lon="-0.6537060">
        <ele>108.2</ele>
        <time>2018-04-28T07:21:09Z</time>
      </trkpt>
      <trkpt lat="38.2942510" lon="-0.6536580">
        <ele>108.3</ele>
        <time>2018-04-28T07:21:10Z</time>
      </trkpt>
      <trkpt lat="38.2941840" lon="-0.6536120">
        <ele>108.4</ele>
        <time>2018-04-28T07:21:11Z</time>
      </trkpt>
      <trkpt lat="38.2941170" lon="-0.6535640">
        <ele>108.4</ele>
        <time>2018-04-28T07:21:12Z</time>
      </trkpt>
      <trkpt lat="38.2940520" lon="-0.6535170">
        <ele>108.5</ele>
        <time>2018-04-28T07:21:13Z</time>
      </trkpt>
      <trkpt lat="38.2940010" lon="-0.6534670">
        <ele>108.6</ele>
        <time>2018-04-28T07:21:14Z</time>
      </trkpt>
      <trkpt lat="38.2939450" lon="-0.6534180">
        <ele>108.7</ele>
        <time>2018-04-28T07:21:15Z</time>
      </trkpt>
      <trkpt lat="38.2938830" lon="-0.6533790">
        <ele>108.9</ele>
        <time>2018-04-28T07:21:16Z</time>
      </trkpt>
      <trkpt lat="38.2938230" lon="-0.6533460">
        <ele>109.0</ele>
        <time>2018-04-28T07:21:17Z</time>
      </trkpt>
      <trkpt lat="38.2937840" lon="-0.6533340">
        <ele>109.0</ele>
        <time>2018-04-28T07:21:18Z</time>
      </trkpt>
      <trkpt lat="38.2937530" lon="-0.6533350">
        <ele>108.9</ele>
        <time>2018-04-28T07:21:19Z</time>
      </trkpt>
      <trkpt lat="38.2937320" lon="-0.6533460">
        <ele>108.9</ele>
        <time>2018-04-28T07:21:20Z</time>
      </trkpt>
      <trkpt lat="38.2936970" lon="-0.6533670">
        <ele>108.9</ele>
        <time>2018-04-28T07:21:21Z</time>
      </trkpt>
      <trkpt lat="38.2936240" lon="-0.6534600">
        <ele>108.8</ele>
        <time>2018-04-28T07:21:22Z</time>
      </trkpt>
      <trkpt lat="38.2935570" lon="-0.6535440">
        <ele>108.7</ele>
        <time>2018-04-28T07:21:23Z</time>
      </trkpt>
      <trkpt lat="38.2934930" lon="-0.6536130">
        <ele>108.7</ele>
        <time>2018-04-28T07:21:24Z</time>
      </trkpt>
      <trkpt lat="38.2934320" lon="-0.6536700">
        <ele>108.6</ele>
        <time>2018-04-28T07:21:25Z</time>
      </trkpt>
      <trkpt lat="38.2933670" lon="-0.6537310">
        <ele>108.5</ele>
        <time>2018-04-28T07:21:26Z</time>
      </trkpt>
      <trkpt lat="38.2933020" lon="-0.6537890">
        <ele>108.4</ele>
        <time>2018-04-28T07:21:27Z</time>
      </trkpt>
      <trkpt lat="38.2932330" lon="-0.6538460">
        <ele>108.3</ele>
        <time>2018-04-28T07:21:28Z</time>
      </trkpt>
      <trkpt lat="38.2931590" lon="-0.6539000">
        <ele>108.2</ele>
        <time>2018-04-28T07:21:29Z</time>
      </trkpt>
      <trkpt lat="38.2930850" lon="-0.6539490">
        <ele>108.0</ele>
        <time>2018-04-28T07:21:30Z</time>
      </trkpt>
      <trkpt lat="38.2930080" lon="-0.6540010">
        <ele>108.0</ele>
        <time>2018-04-28T07:21:31Z</time>
      </trkpt>
      <trkpt lat="38.2929290" lon="-0.6540580">
        <ele>106.3</ele>
        <time>2018-04-28T07:21:32Z</time>
      </trkpt>
      <trkpt lat="38.2928500" lon="-0.6541220">
        <ele>105.0</ele>
        <time>2018-04-28T07:21:33Z</time>
      </trkpt>
      <trkpt lat="38.2927700" lon="-0.6541850">
        <ele>103.7</ele>
        <time>2018-04-28T07:21:34Z</time>
      </trkpt>
      <trkpt lat="38.2926890" lon="-0.6542510">
        <ele>102.3</ele>
        <time>2018-04-28T07:21:35Z</time>
      </trkpt>
      <trkpt lat="38.2926020" lon="-0.6543440">
        <ele>101.7</ele>
        <time>2018-04-28T07:21:36Z</time>
      </trkpt>
      <trkpt lat="38.2925100" lon="-0.6544580">
        <ele>101.4</ele>
        <time>2018-04-28T07:21:37Z</time>
      </trkpt>
      <trkpt lat="38.2924260" lon="-0.6545570">
        <ele>101.2</ele>
        <time>2018-04-28T07:21:38Z</time>
      </trkpt>
      <trkpt lat="38.2923630" lon="-0.6546750">
        <ele>101.1</ele>
        <time>2018-04-28T07:21:39Z</time>
      </trkpt>
      <trkpt lat="38.2922970" lon="-0.6547920">
        <ele>101.7</ele>
        <time>2018-04-28T07:21:40Z</time>
      </trkpt>
      <trkpt lat="38.2922320" lon="-0.6549060">
        <ele>103.1</ele>
        <time>2018-04-28T07:21:41Z</time>
      </trkpt>
      <trkpt lat="38.2921670" lon="-0.6550190">
        <ele>104.6</ele>
        <time>2018-04-28T07:21:42Z</time>
      </trkpt>
      <trkpt lat="38.2921080" lon="-0.6551270">
        <ele>106.0</ele>
        <time>2018-04-28T07:21:43Z</time>
      </trkpt>
      <trkpt lat="38.2920520" lon="-0.6552310">
        <ele>106.0</ele>
        <time>2018-04-28T07:21:44Z</time>
      </trkpt>
      <trkpt lat="38.2919980" lon="-0.6553260">
        <ele>106.0</ele>
        <time>2018-04-28T07:21:45Z</time>
      </trkpt>
      <trkpt lat="38.2919460" lon="-0.6554160">
        <ele>106.0</ele>
        <time>2018-04-28T07:21:46Z</time>
      </trkpt>
      <trkpt lat="38.2918980" lon="-0.6555040">
        <ele>106.0</ele>
        <time>2018-04-28T07:21:47Z</time>
      </trkpt>
      <trkpt lat="38.2918530" lon="-0.6555860">
        <ele>106.0</ele>
        <time>2018-04-28T07:21:48Z</time>
      </trkpt>
      <trkpt lat="38.2918120" lon="-0.6556630">
        <ele>106.1</ele>
        <time>2018-04-28T07:21:49Z</time>
      </trkpt>
      <trkpt lat="38.2917750" lon="-0.6557370">
        <ele>106.1</ele>
        <time>2018-04-28T07:21:50Z</time>
      </trkpt>
      <trkpt lat="38.2917410" lon="-0.6558040">
        <ele>106.2</ele>
        <time>2018-04-28T07:21:51Z</time>
      </trkpt>
      <trkpt lat="38.2917050" lon="-0.6558740">
        <ele>106.2</ele>
        <time>2018-04-28T07:21:52Z</time>
      </trkpt>
      <trkpt lat="38.2916670" lon="-0.6559430">
        <ele>106.2</ele>
        <time>2018-04-28T07:21:53Z</time>
      </trkpt>
      <trkpt lat="38.2916270" lon="-0.6560100">
        <ele>106.2</ele>
        <time>2018-04-28T07:21:54Z</time>
      </trkpt>
      <trkpt lat="38.2915850" lon="-0.6560730">
        <ele>106.2</ele>
        <time>2018-04-28T07:21:55Z</time>
      </trkpt>
      <trkpt lat="38.2915390" lon="-0.6561340">
        <ele>106.2</ele>
        <time>2018-04-28T07:21:56Z</time>
      </trkpt>
      <trkpt lat="38.2914910" lon="-0.6561940">
        <ele>106.2</ele>
        <time>2018-04-28T07:21:57Z</time>
      </trkpt>
      <trkpt lat="38.2914420" lon="-0.6562540">
        <ele>106.2</ele>
        <time>2018-04-28T07:21:58Z</time>
      </trkpt>
      <trkpt lat="38.2913910" lon="-0.6563150">
        <ele>106.1</ele>
        <time>2018-04-28T07:21:59Z</time>
      </trkpt>
      <trkpt lat="38.2913410" lon="-0.6563760">
        <ele>106.0</ele>
        <time>2018-04-28T07:22:00Z</time>
      </trkpt>
      <trkpt lat="38.2912900" lon="-0.6564360">
        <ele>105.9</ele>
        <time>2018-04-28T07:22:01Z</time>
      </trkpt>
      <trkpt lat="38.2912390" lon="-0.6564970">
        <ele>105.8</ele>
        <time>2018-04-28T07:22:02Z</time>
      </trkpt>
      <trkpt lat="38.2911880" lon="-0.6565610">
        <ele>105.8</ele>
        <time>2018-04-28T07:22:03Z</time>
      </trkpt>
      <trkpt lat="38.2911380" lon="-0.6566280">
        <ele>105.6</ele>
        <time>2018-04-28T07:22:04Z</time>
      </trkpt>
      <trkpt lat="38.2910880" lon="-0.6566970">
        <ele>105.5</ele>
        <time>2018-04-28T07:22:05Z</time>
      </trkpt>
      <trkpt lat="38.2910390" lon="-0.6567690">
        <ele>105.4</ele>
        <time>2018-04-28T07:22:06Z</time>
      </trkpt>
      <trkpt lat="38.2909940" lon="-0.6568450">
        <ele>105.2</ele>
        <time>2018-04-28T07:22:07Z</time>
      </trkpt>
      <trkpt lat="38.2909490" lon="-0.6569210">
        <ele>105.1</ele>
        <time>2018-04-28T07:22:08Z</time>
      </trkpt>
      <trkpt lat="38.2909040" lon="-0.6569990">
        <ele>104.9</ele>
        <time>2018-04-28T07:22:09Z</time>
      </trkpt>
      <trkpt lat="38.2908570" lon="-0.6570760">
        <ele>104.9</ele>
        <time>2018-04-28T07:22:10Z</time>
      </trkpt>
      <trkpt lat="38.2908080" lon="-0.6571540">
        <ele>104.8</ele>
        <time>2018-04-28T07:22:11Z</time>
      </trkpt>
      <trkpt lat="38.2907580" lon="-0.6572340">
        <ele>104.8</ele>
        <time>2018-04-28T07:22:12Z</time>
      </trkpt>
      <trkpt lat="38.2907060" lon="-0.6573100">
        <ele>104.7</ele>
        <time>2018-04-28T07:22:13Z</time>
      </trkpt>
      <trkpt lat="38.2906520" lon="-0.6573850">
        <ele>104.7</ele>
        <time>2018-04-28T07:22:14Z</time>
      </trkpt>
      <trkpt lat="38.2905990" lon="-0.6574580">
        <ele>104.8</ele>
        <time>2018-04-28T07:22:15Z</time>
      </trkpt>
      <trkpt lat="38.2905490" lon="-0.6575330">
        <ele>104.8</ele>
        <time>2018-04-28T07:22:16Z</time>
      </trkpt>
      <trkpt lat="38.2905000" lon="-0.6576080">
        <ele>104.8</ele>
        <time>2018-04-28T07:22:17Z</time>
      </trkpt>
      <trkpt lat="38.2904540" lon="-0.6576820">
        <ele>104.9</ele>
        <time>2018-04-28T07:22:18Z</time>
      </trkpt>
      <trkpt lat="38.2904080" lon="-0.6577540">
        <ele>104.9</ele>
        <time>2018-04-28T07:22:19Z</time>
      </trkpt>
      <trkpt lat="38.2903630" lon="-0.6578260">
        <ele>105.0</ele>
        <time>2018-04-28T07:22:20Z</time>
      </trkpt>
      <trkpt lat="38.2903180" lon="-0.6578970">
        <ele>105.0</ele>
        <time>2018-04-28T07:22:21Z</time>
      </trkpt>
      <trkpt lat="38.2902730" lon="-0.6579660">
        <ele>105.1</ele>
        <time>2018-04-28T07:22:22Z</time>
      </trkpt>
      <trkpt lat="38.2902250" lon="-0.6580370">
        <ele>105.1</ele>
        <time>2018-04-28T07:22:23Z</time>
      </trkpt>
      <trkpt lat="38.2901750" lon="-0.6581060">
        <ele>105.1</ele>
        <time>2018-04-28T07:22:24Z</time>
      </trkpt>
      <trkpt lat="38.2901250" lon="-0.6581730">
        <ele>105.2</ele>
        <time>2018-04-28T07:22:25Z</time>
      </trkpt>
      <trkpt lat="38.2900720" lon="-0.6582420">
        <ele>105.2</ele>
        <time>2018-04-28T07:22:26Z</time>
      </trkpt>
      <trkpt lat="38.2900190" lon="-0.6583080">
        <ele>105.2</ele>
        <time>2018-04-28T07:22:27Z</time>
      </trkpt>
      <trkpt lat="38.2899640" lon="-0.6583710">
        <ele>105.2</ele>
        <time>2018-04-28T07:22:28Z</time>
      </trkpt>
      <trkpt lat="38.2899090" lon="-0.6584390">
        <ele>105.2</ele>
        <time>2018-04-28T07:22:29Z</time>
      </trkpt>
      <trkpt lat="38.2898520" lon="-0.6585040">
        <ele>105.2</ele>
        <time>2018-04-28T07:22:30Z</time>
      </trkpt>
      <trkpt lat="38.2897940" lon="-0.6585690">
        <ele>105.2</ele>
        <time>2018-04-28T07:22:31Z</time>
      </trkpt>
      <trkpt lat="38.2897350" lon="-0.6586330">
        <ele>105.2</ele>
        <time>2018-04-28T07:22:32Z</time>
      </trkpt>
      <trkpt lat="38.2896750" lon="-0.6586990">
        <ele>105.2</ele>
        <time>2018-04-28T07:22:33Z</time>
      </trkpt>
      <trkpt lat="38.2896150" lon="-0.6587690">
        <ele>105.1</ele>
        <time>2018-04-28T07:22:34Z</time>
      </trkpt>
      <trkpt lat="38.2895550" lon="-0.6588370">
        <ele>105.1</ele>
        <time>2018-04-28T07:22:35Z</time>
      </trkpt>
      <trkpt lat="38.2894970" lon="-0.6589030">
        <ele>105.1</ele>
        <time>2018-04-28T07:22:36Z</time>
      </trkpt>
      <trkpt lat="38.2894390" lon="-0.6589680">
        <ele>105.1</ele>
        <time>2018-04-28T07:22:37Z</time>
      </trkpt>
      <trkpt lat="38.2893810" lon="-0.6590310">
        <ele>105.0</ele>
        <time>2018-04-28T07:22:38Z</time>
      </trkpt>
      <trkpt lat="38.2893240" lon="-0.6590930">
        <ele>105.0</ele>
        <time>2018-04-28T07:22:39Z</time>
      </trkpt>
      <trkpt lat="38.2892670" lon="-0.6591570">
        <ele>105.0</ele>
        <time>2018-04-28T07:22:40Z</time>
      </trkpt>
      <trkpt lat="38.2892100" lon="-0.6592180">
        <ele>105.0</ele>
        <time>2018-04-28T07:22:41Z</time>
      </trkpt>
      <trkpt lat="38.2891540" lon="-0.6592800">
        <ele>105.0</ele>
        <time>2018-04-28T07:22:42Z</time>
      </trkpt>
      <trkpt lat="38.2891000" lon="-0.6593430">
        <ele>105.0</ele>
        <time>2018-04-28T07:22:43Z</time>
      </trkpt>
      <trkpt lat="38.2890450" lon="-0.6594050">
        <ele>105.0</ele>
        <time>2018-04-28T07:22:44Z</time>
      </trkpt>
      <trkpt lat="38.2889930" lon="-0.6594700">
        <ele>105.0</ele>
        <time>2018-04-28T07:22:45Z</time>
      </trkpt>
      <trkpt lat="38.2889450" lon="-0.6595360">
        <ele>105.0</ele>
        <time>2018-04-28T07:22:46Z</time>
      </trkpt>
      <trkpt lat="38.2889010" lon="-0.6596020">
        <ele>105.0</ele>
        <time>2018-04-28T07:22:47Z</time>
      </trkpt>
      <trkpt lat="38.2888590" lon="-0.6596780">
        <ele>105.0</ele>
        <time>2018-04-28T07:22:48Z</time>
      </trkpt>
      <trkpt lat="38.2888110" lon="-0.6597390">
        <ele>105.0</ele>
        <time>2018-04-28T07:22:49Z</time>
      </trkpt>
      <trkpt lat="38.2887540" lon="-0.6597780">
        <ele>105.0</ele>
        <time>2018-04-28T07:22:50Z</time>
      </trkpt>
      <trkpt lat="38.2886930" lon="-0.6598220">
        <ele>105.2</ele>
        <time>2018-04-28T07:22:51Z</time>
      </trkpt>
      <trkpt lat="38.2886350" lon="-0.6598640">
        <ele>105.4</ele>
        <time>2018-04-28T07:22:52Z</time>
      </trkpt>
      <trkpt lat="38.2885810" lon="-0.6599160">
        <ele>105.7</ele>
        <time>2018-04-28T07:22:53Z</time>
      </trkpt>
      <trkpt lat="38.2885300" lon="-0.6599730">
        <ele>106.0</ele>
        <time>2018-04-28T07:22:54Z</time>
      </trkpt>
      <trkpt lat="38.2884810" lon="-0.6600310">
        <ele>106.4</ele>
        <time>2018-04-28T07:22:55Z</time>
      </trkpt>
      <trkpt lat="38.2884310" lon="-0.6600910">
        <ele>106.8</ele>
        <time>2018-04-28T07:22:56Z</time>
      </trkpt>
      <trkpt lat="38.2883800" lon="-0.6601490">
        <ele>107.0</ele>
        <time>2018-04-28T07:22:57Z</time>
      </trkpt>
      <trkpt lat="38.2883290" lon="-0.6602080">
        <ele>107.0</ele>
        <time>2018-04-28T07:22:58Z</time>
      </trkpt>
      <trkpt lat="38.2882760" lon="-0.6602630">
        <ele>106.9</ele>
        <time>2018-04-28T07:22:59Z</time>
      </trkpt>
      <trkpt lat="38.2882210" lon="-0.6603190">
        <ele>106.8</ele>
        <time>2018-04-28T07:23:00Z</time>
      </trkpt>
      <trkpt lat="38.2881650" lon="-0.6603750">
        <ele>106.7</ele>
        <time>2018-04-28T07:23:01Z</time>
      </trkpt>
      <trkpt lat="38.2881080" lon="-0.6604290">
        <ele>106.7</ele>
        <time>2018-04-28T07:23:02Z</time>
      </trkpt>
      <trkpt lat="38.2880500" lon="-0.6604820">
        <ele>106.6</ele>
        <time>2018-04-28T07:23:03Z</time>
      </trkpt>
      <trkpt lat="38.2879920" lon="-0.6605350">
        <ele>106.6</ele>
        <time>2018-04-28T07:23:04Z</time>
      </trkpt>
      <trkpt lat="38.2879350" lon="-0.6605890">
        <ele>106.5</ele>
        <time>2018-04-28T07:23:05Z</time>
      </trkpt>
      <trkpt lat="38.2878790" lon="-0.6606440">
        <ele>106.4</ele>
        <time>2018-04-28T07:23:06Z</time>
      </trkpt>
      <trkpt lat="38.2878270" lon="-0.6607020">
        <ele>106.3</ele>
        <time>2018-04-28T07:23:07Z</time>
      </trkpt>
      <trkpt lat="38.2877770" lon="-0.6607640">
        <ele>106.2</ele>
        <time>2018-04-28T07:23:08Z</time>
      </trkpt>
      <trkpt lat="38.2877360" lon="-0.6608340">
        <ele>106.1</ele>
        <time>2018-04-28T07:23:09Z</time>
      </trkpt>
      <trkpt lat="38.2877030" lon="-0.6609070">
        <ele>106.0</ele>
        <time>2018-04-28T07:23:10Z</time>
      </trkpt>
      <trkpt lat="38.2876730" lon="-0.6609870">
        <ele>106.0</ele>
        <time>2018-04-28T07:23:11Z</time>
      </trkpt>
      <trkpt lat="38.2876470" lon="-0.6610700">
        <ele>105.9</ele>
        <time>2018-04-28T07:23:12Z</time>
      </trkpt>
      <trkpt lat="38.2876230" lon="-0.6611540">
        <ele>105.8</ele>
        <time>2018-04-28T07:23:13Z</time>
      </trkpt>
      <trkpt lat="38.2875980" lon="-0.6612370">
        <ele>105.8</ele>
        <time>2018-04-28T07:23:14Z</time>
      </trkpt>
      <trkpt lat="38.2875740" lon="-0.6613220">
        <ele>105.8</ele>
        <time>2018-04-28T07:23:15Z</time>
      </trkpt>
      <trkpt lat="38.2875500" lon="-0.6614040">
        <ele>105.8</ele>
        <time>2018-04-28T07:23:16Z</time>
      </trkpt>
      <trkpt lat="38.2875270" lon="-0.6614860">
        <ele>105.7</ele>
        <time>2018-04-28T07:23:17Z</time>
      </trkpt>
      <trkpt lat="38.2875030" lon="-0.6615690">
        <ele>105.7</ele>
        <time>2018-04-28T07:23:18Z</time>
      </trkpt>
      <trkpt lat="38.2874800" lon="-0.6616520">
        <ele>105.7</ele>
        <time>2018-04-28T07:23:19Z</time>
      </trkpt>
      <trkpt lat="38.2874580" lon="-0.6617340">
        <ele>105.7</ele>
        <time>2018-04-28T07:23:20Z</time>
      </trkpt>
      <trkpt lat="38.2874390" lon="-0.6618180">
        <ele>105.6</ele>
        <time>2018-04-28T07:23:21Z</time>
      </trkpt>
      <trkpt lat="38.2874180" lon="-0.6619020">
        <ele>105.6</ele>
        <time>2018-04-28T07:23:22Z</time>
      </trkpt>
      <trkpt lat="38.2873970" lon="-0.6619870">
        <ele>105.5</ele>
        <time>2018-04-28T07:23:23Z</time>
      </trkpt>
      <trkpt lat="38.2873760" lon="-0.6620720">
        <ele>105.4</ele>
        <time>2018-04-28T07:23:24Z</time>
      </trkpt>
      <trkpt lat="38.2873560" lon="-0.6621540">
        <ele>105.3</ele>
        <time>2018-04-28T07:23:25Z</time>
      </trkpt>
      <trkpt lat="38.2873340" lon="-0.6622350">
        <ele>105.3</ele>
        <time>2018-04-28T07:23:26Z</time>
      </trkpt>
      <trkpt lat="38.2873130" lon="-0.6623170">
        <ele>105.3</ele>
        <time>2018-04-28T07:23:27Z</time>
      </trkpt>
      <trkpt lat="38.2872930" lon="-0.6623990">
        <ele>105.2</ele>
        <time>2018-04-28T07:23:28Z</time>
      </trkpt>
      <trkpt lat="38.2872730" lon="-0.6624810">
        <ele>105.2</ele>
        <time>2018-04-28T07:23:29Z</time>
      </trkpt>
      <trkpt lat="38.2872540" lon="-0.6625640">
        <ele>105.2</ele>
        <time>2018-04-28T07:23:30Z</time>
      </trkpt>
      <trkpt lat="38.2872350" lon="-0.6626470">
        <ele>105.1</ele>
        <time>2018-04-28T07:23:31Z</time>
      </trkpt>
      <trkpt lat="38.2872160" lon="-0.6627290">
        <ele>105.1</ele>
        <time>2018-04-28T07:23:32Z</time>
      </trkpt>
      <trkpt lat="38.2871970" lon="-0.6628120">
        <ele>105.1</ele>
        <time>2018-04-28T07:23:33Z</time>
      </trkpt>
      <trkpt lat="38.2871790" lon="-0.6628920">
        <ele>105.0</ele>
        <time>2018-04-28T07:23:34Z</time>
      </trkpt>
      <trkpt lat="38.2871610" lon="-0.6629740">
        <ele>105.0</ele>
        <time>2018-04-28T07:23:35Z</time>
      </trkpt>
      <trkpt lat="38.2871430" lon="-0.6630550">
        <ele>105.0</ele>
        <time>2018-04-28T07:23:36Z</time>
      </trkpt>
      <trkpt lat="38.2871260" lon="-0.6631360">
        <ele>105.0</ele>
        <time>2018-04-28T07:23:37Z</time>
      </trkpt>
      <trkpt lat="38.2871070" lon="-0.6632150">
        <ele>105.0</ele>
        <time>2018-04-28T07:23:38Z</time>
      </trkpt>
      <trkpt lat="38.2870880" lon="-0.6632960">
        <ele>105.1</ele>
        <time>2018-04-28T07:23:39Z</time>
      </trkpt>
      <trkpt lat="38.2870690" lon="-0.6633780">
        <ele>105.1</ele>
        <time>2018-04-28T07:23:40Z</time>
      </trkpt>
      <trkpt lat="38.2870510" lon="-0.6634620">
        <ele>105.1</ele>
        <time>2018-04-28T07:23:41Z</time>
      </trkpt>
      <trkpt lat="38.2870300" lon="-0.6635490">
        <ele>105.1</ele>
        <time>2018-04-28T07:23:42Z</time>
      </trkpt>
      <trkpt lat="38.2870100" lon="-0.6636340">
        <ele>105.1</ele>
        <time>2018-04-28T07:23:43Z</time>
      </trkpt>
      <trkpt lat="38.2869900" lon="-0.6637160">
        <ele>105.1</ele>
        <time>2018-04-28T07:23:44Z</time>
      </trkpt>
      <trkpt lat="38.2869700" lon="-0.6637980">
        <ele>105.1</ele>
        <time>2018-04-28T07:23:45Z</time>
      </trkpt>
      <trkpt lat="38.2869500" lon="-0.6638830">
        <ele>105.0</ele>
        <time>2018-04-28T07:23:46Z</time>
      </trkpt>
      <trkpt lat="38.2869330" lon="-0.6639680">
        <ele>105.0</ele>
        <time>2018-04-28T07:23:47Z</time>
      </trkpt>
      <trkpt lat="38.2869160" lon="-0.6640470">
        <ele>105.0</ele>
        <time>2018-04-28T07:23:48Z</time>
      </trkpt>
      <trkpt lat="38.2868990" lon="-0.6641250">
        <ele>105.3</ele>
        <time>2018-04-28T07:23:49Z</time>
      </trkpt>
      <trkpt lat="38.2868820" lon="-0.6642050">
        <ele>106.0</ele>
        <time>2018-04-28T07:23:50Z</time>
      </trkpt>
      <trkpt lat="38.2868630" lon="-0.6642810">
        <ele>106.4</ele>
        <time>2018-04-28T07:23:51Z</time>
      </trkpt>
      <trkpt lat="38.2868460" lon="-0.6643570">
        <ele>106.8</ele>
        <time>2018-04-28T07:23:52Z</time>
      </trkpt>
      <trkpt lat="38.2868320" lon="-0.6644350">
        <ele>107.3</ele>
        <time>2018-04-28T07:23:53Z</time>
      </trkpt>
      <trkpt lat="38.2868200" lon="-0.6645130">
        <ele>107.8</ele>
        <time>2018-04-28T07:23:54Z</time>
      </trkpt>
      <trkpt lat="38.2868170" lon="-0.6645900">
        <ele>108.5</ele>
        <time>2018-04-28T07:23:55Z</time>
      </trkpt>
      <trkpt lat="38.2868250" lon="-0.6646670">
        <ele>109.2</ele>
        <time>2018-04-28T07:23:56Z</time>
      </trkpt>
      <trkpt lat="38.2868440" lon="-0.6647410">
        <ele>109.9</ele>
        <time>2018-04-28T07:23:57Z</time>
      </trkpt>
      <trkpt lat="38.2868740" lon="-0.6648080">
        <ele>110.7</ele>
        <time>2018-04-28T07:23:58Z</time>
      </trkpt>
      <trkpt lat="38.2869090" lon="-0.6648710">
        <ele>111.0</ele>
        <time>2018-04-28T07:23:59Z</time>
      </trkpt>
      <trkpt lat="38.2869450" lon="-0.6649340">
        <ele>111.0</ele>
        <time>2018-04-28T07:24:00Z</time>
      </trkpt>
      <trkpt lat="38.2869780" lon="-0.6649980">
        <ele>111.0</ele>
        <time>2018-04-28T07:24:01Z</time>
      </trkpt>
      <trkpt lat="38.2870070" lon="-0.6650650">
        <ele>111.0</ele>
        <time>2018-04-28T07:24:02Z</time>
      </trkpt>
      <trkpt lat="38.2870330" lon="-0.6651360">
        <ele>111.0</ele>
        <time>2018-04-28T07:24:03Z</time>
      </trkpt>
      <trkpt lat="38.2870520" lon="-0.6652090">
        <ele>111.0</ele>
        <time>2018-04-28T07:24:04Z</time>
      </trkpt>
      <trkpt lat="38.2870650" lon="-0.6652850">
        <ele>111.0</ele>
        <time>2018-04-28T07:24:05Z</time>
      </trkpt>
      <trkpt lat="38.2870690" lon="-0.6653630">
        <ele>111.0</ele>
        <time>2018-04-28T07:24:06Z</time>
      </trkpt>
      <trkpt lat="38.2870660" lon="-0.6654430">
        <ele>111.0</ele>
        <time>2018-04-28T07:24:07Z</time>
      </trkpt>
      <trkpt lat="38.2870580" lon="-0.6655240">
        <ele>111.0</ele>
        <time>2018-04-28T07:24:08Z</time>
      </trkpt>
      <trkpt lat="38.2870390" lon="-0.6656030">
        <ele>111.0</ele>
        <time>2018-04-28T07:24:09Z</time>
      </trkpt>
      <trkpt lat="38.2870150" lon="-0.6656820">
        <ele>111.0</ele>
        <time>2018-04-28T07:24:10Z</time>
      </trkpt>
      <trkpt lat="38.2869800" lon="-0.6657540">
        <ele>111.0</ele>
        <time>2018-04-28T07:24:11Z</time>
      </trkpt>
      <trkpt lat="38.2869370" lon="-0.6658230">
        <ele>110.8</ele>
        <time>2018-04-28T07:24:12Z</time>
      </trkpt>
      <trkpt lat="38.2868870" lon="-0.6658850">
        <ele>110.2</ele>
        <time>2018-04-28T07:24:13Z</time>
      </trkpt>
      <trkpt lat="38.2868310" lon="-0.6659380">
        <ele>109.7</ele>
        <time>2018-04-28T07:24:14Z</time>
      </trkpt>
      <trkpt lat="38.2867710" lon="-0.6659850">
        <ele>109.1</ele>
        <time>2018-04-28T07:24:15Z</time>
      </trkpt>
      <trkpt lat="38.2867100" lon="-0.6660320">
        <ele>108.0</ele>
        <time>2018-04-28T07:24:16Z</time>
      </trkpt>
      <trkpt lat="38.2866490" lon="-0.6660800">
        <ele>107.1</ele>
        <time>2018-04-28T07:24:17Z</time>
      </trkpt>
      <trkpt lat="38.2865910" lon="-0.6661420">
        <ele>107.4</ele>
        <time>2018-04-28T07:24:18Z</time>
      </trkpt>
      <trkpt lat="38.2865410" lon="-0.6662160">
        <ele>107.7</ele>
        <time>2018-04-28T07:24:19Z</time>
      </trkpt>
      <trkpt lat="38.2865030" lon="-0.6662970">
        <ele>107.9</ele>
        <time>2018-04-28T07:24:20Z</time>
      </trkpt>
      <trkpt lat="38.2864720" lon="-0.6663860">
        <ele>108.1</ele>
        <time>2018-04-28T07:24:21Z</time>
      </trkpt>
      <trkpt lat="38.2864520" lon="-0.6664820">
        <ele>108.4</ele>
        <time>2018-04-28T07:24:22Z</time>
      </trkpt>
      <trkpt lat="38.2864350" lon="-0.6665810">
        <ele>108.5</ele>
        <time>2018-04-28T07:24:23Z</time>
      </trkpt>
      <trkpt lat="38.2864180" lon="-0.6666800">
        <ele>108.6</ele>
        <time>2018-04-28T07:24:24Z</time>
      </trkpt>
      <trkpt lat="38.2864020" lon="-0.6667800">
        <ele>108.7</ele>
        <time>2018-04-28T07:24:25Z</time>
      </trkpt>
      <trkpt lat="38.2863860" lon="-0.6668790">
        <ele>108.7</ele>
        <time>2018-04-28T07:24:26Z</time>
      </trkpt>
      <trkpt lat="38.2863710" lon="-0.6669790">
        <ele>108.6</ele>
        <time>2018-04-28T07:24:27Z</time>
      </trkpt>
      <trkpt lat="38.2863560" lon="-0.6670790">
        <ele>108.5</ele>
        <time>2018-04-28T07:24:28Z</time>
      </trkpt>
      <trkpt lat="38.2863410" lon="-0.6671790">
        <ele>108.4</ele>
        <time>2018-04-28T07:24:29Z</time>
      </trkpt>
      <trkpt lat="38.2863250" lon="-0.6672780">
        <ele>108.1</ele>
        <time>2018-04-28T07:24:30Z</time>
      </trkpt>
      <trkpt lat="38.2863080" lon="-0.6673780">
        <ele>107.9</ele>
        <time>2018-04-28T07:24:31Z</time>
      </trkpt>
      <trkpt lat="38.2862920" lon="-0.6674790">
        <ele>107.6</ele>
        <time>2018-04-28T07:24:32Z</time>
      </trkpt>
      <trkpt lat="38.2862750" lon="-0.6675810">
        <ele>107.4</ele>
        <time>2018-04-28T07:24:33Z</time>
      </trkpt>
      <trkpt lat="38.2862590" lon="-0.6676810">
        <ele>107.1</ele>
        <time>2018-04-28T07:24:34Z</time>
      </trkpt>
      <trkpt lat="38.2862430" lon="-0.6677830">
        <ele>106.9</ele>
        <time>2018-04-28T07:24:35Z</time>
      </trkpt>
      <trkpt lat="38.2862250" lon="-0.6678850">
        <ele>106.8</ele>
        <time>2018-04-28T07:24:36Z</time>
      </trkpt>
      <trkpt lat="38.2862070" lon="-0.6679850">
        <ele>106.7</ele>
        <time>2018-04-28T07:24:37Z</time>
      </trkpt>
      <trkpt lat="38.2861860" lon="-0.6680860">
        <ele>106.6</ele>
        <time>2018-04-28T07:24:38Z</time>
      </trkpt>
      <trkpt lat="38.2861630" lon="-0.6681870">
        <ele>106.6</ele>
        <time>2018-04-28T07:24:39Z</time>
      </trkpt>
      <trkpt lat="38.2861390" lon="-0.6682870">
        <ele>106.5</ele>
        <time>2018-04-28T07:24:40Z</time>
      </trkpt>
      <trkpt lat="38.2861120" lon="-0.6683870">
        <ele>106.5</ele>
        <time>2018-04-28T07:24:41Z</time>
      </trkpt>
      <trkpt lat="38.2860840" lon="-0.6684870">
        <ele>106.4</ele>
        <time>2018-04-28T07:24:42Z</time>
      </trkpt>
      <trkpt lat="38.2860550" lon="-0.6685860">
        <ele>106.3</ele>
        <time>2018-04-28T07:24:43Z</time>
      </trkpt>
      <trkpt lat="38.2860230" lon="-0.6686850">
        <ele>106.2</ele>
        <time>2018-04-28T07:24:44Z</time>
      </trkpt>
      <trkpt lat="38.2859900" lon="-0.6687850">
        <ele>106.0</ele>
        <time>2018-04-28T07:24:45Z</time>
      </trkpt>
      <trkpt lat="38.2859540" lon="-0.6688820">
        <ele>106.1</ele>
        <time>2018-04-28T07:24:46Z</time>
      </trkpt>
      <trkpt lat="38.2859170" lon="-0.6689780">
        <ele>106.1</ele>
        <time>2018-04-28T07:24:47Z</time>
      </trkpt>
      <trkpt lat="38.2858790" lon="-0.6690740">
        <ele>106.2</ele>
        <time>2018-04-28T07:24:48Z</time>
      </trkpt>
      <trkpt lat="38.2858380" lon="-0.6691680">
        <ele>106.3</ele>
        <time>2018-04-28T07:24:49Z</time>
      </trkpt>
      <trkpt lat="38.2857960" lon="-0.6692600">
        <ele>106.3</ele>
        <time>2018-04-28T07:24:50Z</time>
      </trkpt>
      <trkpt lat="38.2857530" lon="-0.6693510">
        <ele>106.2</ele>
        <time>2018-04-28T07:24:51Z</time>
      </trkpt>
      <trkpt lat="38.2857070" lon="-0.6694390">
        <ele>106.0</ele>
        <time>2018-04-28T07:24:52Z</time>
      </trkpt>
      <trkpt lat="38.2856630" lon="-0.6695270">
        <ele>105.6</ele>
        <time>2018-04-28T07:24:53Z</time>
      </trkpt>
      <trkpt lat="38.2856180" lon="-0.6696130">
        <ele>105.3</ele>
        <time>2018-04-28T07:24:54Z</time>
      </trkpt>
      <trkpt lat="38.2855730" lon="-0.6697020">
        <ele>105.0</ele>
        <time>2018-04-28T07:24:55Z</time>
      </trkpt>
      <trkpt lat="38.2855290" lon="-0.6697900">
        <ele>104.9</ele>
        <time>2018-04-28T07:24:56Z</time>
      </trkpt>
      <trkpt lat="38.2854840" lon="-0.6698780">
        <ele>104.9</ele>
        <time>2018-04-28T07:24:57Z</time>
      </trkpt>
      <trkpt lat="38.2854390" lon="-0.6699690">
        <ele>105.0</ele>
        <time>2018-04-28T07:24:58Z</time>
      </trkpt>
      <trkpt lat="38.2853940" lon="-0.6700590">
        <ele>105.0</ele>
        <time>2018-04-28T07:24:59Z</time>
      </trkpt>
      <trkpt lat="38.2853480" lon="-0.6701480">
        <ele>105.1</ele>
        <time>2018-04-28T07:25:00Z</time>
      </trkpt>
      <trkpt lat="38.2853020" lon="-0.6702370">
        <ele>105.2</ele>
        <time>2018-04-28T07:25:01Z</time>
      </trkpt>
      <trkpt lat="38.2852570" lon="-0.6703250">
        <ele>105.3</ele>
        <time>2018-04-28T07:25:02Z</time>
      </trkpt>
      <trkpt lat="38.2852120" lon="-0.6704130">
        <ele>105.4</ele>
        <time>2018-04-28T07:25:03Z</time>
      </trkpt>
      <trkpt lat="38.2851670" lon="-0.6704990">
        <ele>105.5</ele>
        <time>2018-04-28T07:25:04Z</time>
      </trkpt>
      <trkpt lat="38.2851220" lon="-0.6705870">
        <ele>105.5</ele>
        <time>2018-04-28T07:25:05Z</time>
      </trkpt>
      <trkpt lat="38.2850770" lon="-0.6706740">
        <ele>105.6</ele>
        <time>2018-04-28T07:25:06Z</time>
      </trkpt>
      <trkpt lat="38.2850320" lon="-0.6707610">
        <ele>105.7</ele>
        <time>2018-04-28T07:25:07Z</time>
      </trkpt>
      <trkpt lat="38.2849870" lon="-0.6708470">
        <ele>105.8</ele>
        <time>2018-04-28T07:25:08Z</time>
      </trkpt>
      <trkpt lat="38.2849420" lon="-0.6709320">
        <ele>105.9</ele>
        <time>2018-04-28T07:25:09Z</time>
      </trkpt>
      <trkpt lat="38.2848980" lon="-0.6710180">
        <ele>106.0</ele>
        <time>2018-04-28T07:25:10Z</time>
      </trkpt>
      <trkpt lat="38.2848540" lon="-0.6711050">
        <ele>106.1</ele>
        <time>2018-04-28T07:25:11Z</time>
      </trkpt>
      <trkpt lat="38.2848090" lon="-0.6711900">
        <ele>106.2</ele>
        <time>2018-04-28T07:25:12Z</time>
      </trkpt>
      <trkpt lat="38.2847650" lon="-0.6712760">
        <ele>106.3</ele>
        <time>2018-04-28T07:25:13Z</time>
      </trkpt>
      <trkpt lat="38.2847190" lon="-0.6713640">
        <ele>106.4</ele>
        <time>2018-04-28T07:25:14Z</time>
      </trkpt>
      <trkpt lat="38.2846740" lon="-0.6714530">
        <ele>106.6</ele>
        <time>2018-04-28T07:25:15Z</time>
      </trkpt>
      <trkpt lat="38.2846300" lon="-0.6715410">
        <ele>106.7</ele>
        <time>2018-04-28T07:25:16Z</time>
      </trkpt>
      <trkpt lat="38.2845850" lon="-0.6716290">
        <ele>106.9</ele>
        <time>2018-04-28T07:25:17Z</time>
      </trkpt>
      <trkpt lat="38.2845400" lon="-0.6717150">
        <ele>107.0</ele>
        <time>2018-04-28T07:25:18Z</time>
      </trkpt>
      <trkpt lat="38.2844950" lon="-0.6718030">
        <ele>107.0</ele>
        <time>2018-04-28T07:25:19Z</time>
      </trkpt>
      <trkpt lat="38.2844490" lon="-0.6718900">
        <ele>106.9</ele>
        <time>2018-04-28T07:25:20Z</time>
      </trkpt>
      <trkpt lat="38.2844050" lon="-0.6719760">
        <ele>106.9</ele>
        <time>2018-04-28T07:25:21Z</time>
      </trkpt>
      <trkpt lat="38.2843610" lon="-0.6720630">
        <ele>106.9</ele>
        <time>2018-04-28T07:25:22Z</time>
      </trkpt>
      <trkpt lat="38.2843160" lon="-0.6721490">
        <ele>106.8</ele>
        <time>2018-04-28T07:25:23Z</time>
      </trkpt>
      <trkpt lat="38.2842710" lon="-0.6722370">
        <ele>106.8</ele>
        <time>2018-04-28T07:25:24Z</time>
      </trkpt>
      <trkpt lat="38.2842260" lon="-0.6723280">
        <ele>106.9</ele>
        <time>2018-04-28T07:25:25Z</time>
      </trkpt>
      <trkpt lat="38.2841810" lon="-0.6724150">
        <ele>106.9</ele>
        <time>2018-04-28T07:25:26Z</time>
      </trkpt>
      <trkpt lat="38.2841370" lon="-0.6725030">
        <ele>107.1</ele>
        <time>2018-04-28T07:25:27Z</time>
      </trkpt>
      <trkpt lat="38.2840910" lon="-0.6725930">
        <ele>107.2</ele>
        <time>2018-04-28T07:25:28Z</time>
      </trkpt>
      <trkpt lat="38.2840460" lon="-0.6726810">
        <ele>107.2</ele>
        <time>2018-04-28T07:25:29Z</time>
      </trkpt>
      <trkpt lat="38.2840060" lon="-0.6727730">
        <ele>107.2</ele>
        <time>2018-04-28T07:25:30Z</time>
      </trkpt>
      <trkpt lat="38.2839750" lon="-0.6728710">
        <ele>107.1</ele>
        <time>2018-04-28T07:25:31Z</time>
      </trkpt>
      <trkpt lat="38.2839660" lon="-0.6729680">
        <ele>107.0</ele>
        <time>2018-04-28T07:25:32Z</time>
      </trkpt>
      <trkpt lat="38.2839860" lon="-0.6730650">
        <ele>107.0</ele>
        <time>2018-04-28T07:25:33Z</time>
      </trkpt>
      <trkpt lat="38.2840000" lon="-0.6731690">
        <ele>107.1</ele>
        <time>2018-04-28T07:25:34Z</time>
      </trkpt>
      <trkpt lat="38.2840050" lon="-0.6732690">
        <ele>107.2</ele>
        <time>2018-04-28T07:25:35Z</time>
      </trkpt>
      <trkpt lat="38.2839960" lon="-0.6733710">
        <ele>107.2</ele>
        <time>2018-04-28T07:25:36Z</time>
      </trkpt>
      <trkpt lat="38.2839690" lon="-0.6734620">
        <ele>107.2</ele>
        <time>2018-04-28T07:25:37Z</time>
      </trkpt>
      <trkpt lat="38.2839280" lon="-0.6735480">
        <ele>107.2</ele>
        <time>2018-04-28T07:25:38Z</time>
      </trkpt>
      <trkpt lat="38.2838770" lon="-0.6736230">
        <ele>107.2</ele>
        <time>2018-04-28T07:25:39Z</time>
      </trkpt>
      <trkpt lat="38.2838110" lon="-0.6736790">
        <ele>107.1</ele>
        <time>2018-04-28T07:25:40Z</time>
      </trkpt>
      <trkpt lat="38.2837400" lon="-0.6737230">
        <ele>107.1</ele>
        <time>2018-04-28T07:25:41Z</time>
      </trkpt>
      <trkpt lat="38.2836640" lon="-0.6737520">
        <ele>107.0</ele>
        <time>2018-04-28T07:25:42Z</time>
      </trkpt>
      <trkpt lat="38.2835860" lon="-0.6737840">
        <ele>107.0</ele>
        <time>2018-04-28T07:25:43Z</time>
      </trkpt>
      <trkpt lat="38.2835150" lon="-0.6738230">
        <ele>106.7</ele>
        <time>2018-04-28T07:25:44Z</time>
      </trkpt>
      <trkpt lat="38.2834490" lon="-0.6738850">
        <ele>106.5</ele>
        <time>2018-04-28T07:25:45Z</time>
      </trkpt>
      <trkpt lat="38.2833910" lon="-0.6739590">
        <ele>106.2</ele>
        <time>2018-04-28T07:25:46Z</time>
      </trkpt>
      <trkpt lat="38.2833430" lon="-0.6740380">
        <ele>105.9</ele>
        <time>2018-04-28T07:25:47Z</time>
      </trkpt>
      <trkpt lat="38.2832980" lon="-0.6741220">
        <ele>105.7</ele>
        <time>2018-04-28T07:25:48Z</time>
      </trkpt>
      <trkpt lat="38.2832540" lon="-0.6742100">
        <ele>105.5</ele>
        <time>2018-04-28T07:25:49Z</time>
      </trkpt>
      <trkpt lat="38.2832120" lon="-0.6742980">
        <ele>105.3</ele>
        <time>2018-04-28T07:25:50Z</time>
      </trkpt>
      <trkpt lat="38.2831710" lon="-0.6743850">
        <ele>105.2</ele>
        <time>2018-04-28T07:25:51Z</time>
      </trkpt>
      <trkpt lat="38.2831310" lon="-0.6744740">
        <ele>105.1</ele>
        <time>2018-04-28T07:25:52Z</time>
      </trkpt>
      <trkpt lat="38.2830920" lon="-0.6745640">
        <ele>105.1</ele>
        <time>2018-04-28T07:25:53Z</time>
      </trkpt>
      <trkpt lat="38.2830530" lon="-0.6746550">
        <ele>105.1</ele>
        <time>2018-04-28T07:25:54Z</time>
      </trkpt>
      <trkpt lat="38.2830180" lon="-0.6747480">
        <ele>105.1</ele>
        <time>2018-04-28T07:25:55Z</time>
      </trkpt>
      <trkpt lat="38.2829840" lon="-0.6748400">
        <ele>105.1</ele>
        <time>2018-04-28T07:25:56Z</time>
      </trkpt>
      <trkpt lat="38.2829500" lon="-0.6749340">
        <ele>105.2</ele>
        <time>2018-04-28T07:25:57Z</time>
      </trkpt>
      <trkpt lat="38.2829170" lon="-0.6750290">
        <ele>105.2</ele>
        <time>2018-04-28T07:25:58Z</time>
      </trkpt>
      <trkpt lat="38.2828870" lon="-0.6751210">
        <ele>105.2</ele>
        <time>2018-04-28T07:25:59Z</time>
      </trkpt>
      <trkpt lat="38.2828570" lon="-0.6752150">
        <ele>105.2</ele>
        <time>2018-04-28T07:26:00Z</time>
      </trkpt>
      <trkpt lat="38.2828290" lon="-0.6753080">
        <ele>105.3</ele>
        <time>2018-04-28T07:26:01Z</time>
      </trkpt>
      <trkpt lat="38.2828030" lon="-0.6754030">
        <ele>105.3</ele>
        <time>2018-04-28T07:26:02Z</time>
      </trkpt>
      <trkpt lat="38.2827770" lon="-0.6754970">
        <ele>105.3</ele>
        <time>2018-04-28T07:26:03Z</time>
      </trkpt>
      <trkpt lat="38.2827540" lon="-0.6755950">
        <ele>105.3</ele>
        <time>2018-04-28T07:26:04Z</time>
      </trkpt>
      <trkpt lat="38.2827320" lon="-0.6756900">
        <ele>105.4</ele>
        <time>2018-04-28T07:26:05Z</time>
      </trkpt>
      <trkpt lat="38.2827110" lon="-0.6757870">
        <ele>105.4</ele>
        <time>2018-04-28T07:26:06Z</time>
      </trkpt>
      <trkpt lat="38.2826910" lon="-0.6758850">
        <ele>105.4</ele>
        <time>2018-04-28T07:26:07Z</time>
      </trkpt>
      <trkpt lat="38.2826740" lon="-0.6759840">
        <ele>105.4</ele>
        <time>2018-04-28T07:26:08Z</time>
      </trkpt>
      <trkpt lat="38.2826580" lon="-0.6760850">
        <ele>105.5</ele>
        <time>2018-04-28T07:26:09Z</time>
      </trkpt>
      <trkpt lat="38.2826420" lon="-0.6761830">
        <ele>105.5</ele>
        <time>2018-04-28T07:26:10Z</time>
      </trkpt>
      <trkpt lat="38.2826280" lon="-0.6762810">
        <ele>105.5</ele>
        <time>2018-04-28T07:26:11Z</time>
      </trkpt>
      <trkpt lat="38.2826170" lon="-0.6763810">
        <ele>105.5</ele>
        <time>2018-04-28T07:26:12Z</time>
      </trkpt>
      <trkpt lat="38.2826050" lon="-0.6764790">
        <ele>105.6</ele>
        <time>2018-04-28T07:26:13Z</time>
      </trkpt>
      <trkpt lat="38.2825940" lon="-0.6765780">
        <ele>105.6</ele>
        <time>2018-04-28T07:26:14Z</time>
      </trkpt>
      <trkpt lat="38.2825850" lon="-0.6766740">
        <ele>105.6</ele>
        <time>2018-04-28T07:26:15Z</time>
      </trkpt>
      <trkpt lat="38.2825770" lon="-0.6767740">
        <ele>105.6</ele>
        <time>2018-04-28T07:26:16Z</time>
      </trkpt>
      <trkpt lat="38.2825680" lon="-0.6768710">
        <ele>105.7</ele>
        <time>2018-04-28T07:26:17Z</time>
      </trkpt>
      <trkpt lat="38.2825580" lon="-0.6769710">
        <ele>105.7</ele>
        <time>2018-04-28T07:26:18Z</time>
      </trkpt>
      <trkpt lat="38.2825490" lon="-0.6770710">
        <ele>105.7</ele>
        <time>2018-04-28T07:26:19Z</time>
      </trkpt>
      <trkpt lat="38.2825400" lon="-0.6771700">
        <ele>105.7</ele>
        <time>2018-04-28T07:26:20Z</time>
      </trkpt>
      <trkpt lat="38.2825310" lon="-0.6772700">
        <ele>105.8</ele>
        <time>2018-04-28T07:26:21Z</time>
      </trkpt>
      <trkpt lat="38.2825210" lon="-0.6773680">
        <ele>105.8</ele>
        <time>2018-04-28T07:26:22Z</time>
      </trkpt>
      <trkpt lat="38.2825120" lon="-0.6774680">
        <ele>105.8</ele>
        <time>2018-04-28T07:26:23Z</time>
      </trkpt>
      <trkpt lat="38.2825030" lon="-0.6775660">
        <ele>105.8</ele>
        <time>2018-04-28T07:26:24Z</time>
      </trkpt>
      <trkpt lat="38.2824950" lon="-0.6776650">
        <ele>105.8</ele>
        <time>2018-04-28T07:26:25Z</time>
      </trkpt>
      <trkpt lat="38.2824860" lon="-0.6777640">
        <ele>105.7</ele>
        <time>2018-04-28T07:26:26Z</time>
      </trkpt>
      <trkpt lat="38.2824780" lon="-0.6778630">
        <ele>105.6</ele>
        <time>2018-04-28T07:26:27Z</time>
      </trkpt>
      <trkpt lat="38.2824690" lon="-0.6779620">
        <ele>105.4</ele>
        <time>2018-04-28T07:26:28Z</time>
      </trkpt>
      <trkpt lat="38.2824620" lon="-0.6780610">
        <ele>105.1</ele>
        <time>2018-04-28T07:26:29Z</time>
      </trkpt>
      <trkpt lat="38.2824560" lon="-0.6781620">
        <ele>104.9</ele>
        <time>2018-04-28T07:26:30Z</time>
      </trkpt>
      <trkpt lat="38.2824510" lon="-0.6782620">
        <ele>104.6</ele>
        <time>2018-04-28T07:26:31Z</time>
      </trkpt>
      <trkpt lat="38.2824460" lon="-0.6783620">
        <ele>104.4</ele>
        <time>2018-04-28T07:26:32Z</time>
      </trkpt>
      <trkpt lat="38.2824430" lon="-0.6784630">
        <ele>104.2</ele>
        <time>2018-04-28T07:26:33Z</time>
      </trkpt>
      <trkpt lat="38.2824400" lon="-0.6785630">
        <ele>104.1</ele>
        <time>2018-04-28T07:26:34Z</time>
      </trkpt>
      <trkpt lat="38.2824370" lon="-0.6786630">
        <ele>104.0</ele>
        <time>2018-04-28T07:26:35Z</time>
      </trkpt>
      <trkpt lat="38.2824350" lon="-0.6787630">
        <ele>104.0</ele>
        <time>2018-04-28T07:26:36Z</time>
      </trkpt>
      <trkpt lat="38.2824340" lon="-0.6788630">
        <ele>104.0</ele>
        <time>2018-04-28T07:26:37Z</time>
      </trkpt>
      <trkpt lat="38.2824330" lon="-0.6789640">
        <ele>104.0</ele>
        <time>2018-04-28T07:26:38Z</time>
      </trkpt>
      <trkpt lat="38.2824340" lon="-0.6790640">
        <ele>104.0</ele>
        <time>2018-04-28T07:26:39Z</time>
      </trkpt>
      <trkpt lat="38.2824360" lon="-0.6791640">
        <ele>104.1</ele>
        <time>2018-04-28T07:26:40Z</time>
      </trkpt>
      <trkpt lat="38.2824390" lon="-0.6792650">
        <ele>104.1</ele>
        <time>2018-04-28T07:26:41Z</time>
      </trkpt>
      <trkpt lat="38.2824420" lon="-0.6793650">
        <ele>104.1</ele>
        <time>2018-04-28T07:26:42Z</time>
      </trkpt>
      <trkpt lat="38.2824460" lon="-0.6794660">
        <ele>104.1</ele>
        <time>2018-04-28T07:26:43Z</time>
      </trkpt>
      <trkpt lat="38.2824480" lon="-0.6795680">
        <ele>104.2</ele>
        <time>2018-04-28T07:26:44Z</time>
      </trkpt>
      <trkpt lat="38.2824510" lon="-0.6796690">
        <ele>104.2</ele>
        <time>2018-04-28T07:26:45Z</time>
      </trkpt>
      <trkpt lat="38.2824550" lon="-0.6797700">
        <ele>104.2</ele>
        <time>2018-04-28T07:26:46Z</time>
      </trkpt>
      <trkpt lat="38.2824610" lon="-0.6798710">
        <ele>104.2</ele>
        <time>2018-04-28T07:26:47Z</time>
      </trkpt>
      <trkpt lat="38.2824690" lon="-0.6799720">
        <ele>104.3</ele>
        <time>2018-04-28T07:26:48Z</time>
      </trkpt>
      <trkpt lat="38.2824770" lon="-0.6800730">
        <ele>104.3</ele>
        <time>2018-04-28T07:26:49Z</time>
      </trkpt>
      <trkpt lat="38.2824840" lon="-0.6801750">
        <ele>104.3</ele>
        <time>2018-04-28T07:26:50Z</time>
      </trkpt>
      <trkpt lat="38.2824920" lon="-0.6802750">
        <ele>104.3</ele>
        <time>2018-04-28T07:26:51Z</time>
      </trkpt>
      <trkpt lat="38.2825000" lon="-0.6803760">
        <ele>104.3</ele>
        <time>2018-04-28T07:26:52Z</time>
      </trkpt>
      <trkpt lat="38.2825080" lon="-0.6804770">
        <ele>104.3</ele>
        <time>2018-04-28T07:26:53Z</time>
      </trkpt>
      <trkpt lat="38.2825170" lon="-0.6805760">
        <ele>104.3</ele>
        <time>2018-04-28T07:26:54Z</time>
      </trkpt>
      <trkpt lat="38.2825260" lon="-0.6806770">
        <ele>104.1</ele>
        <time>2018-04-28T07:26:55Z</time>
      </trkpt>
      <trkpt lat="38.2825350" lon="-0.6807770">
        <ele>103.9</ele>
        <time>2018-04-28T07:26:56Z</time>
      </trkpt>
      <trkpt lat="38.2825430" lon="-0.6808770">
        <ele>103.7</ele>
        <time>2018-04-28T07:26:57Z</time>
      </trkpt>
      <trkpt lat="38.2825500" lon="-0.6809780">
        <ele>103.4</ele>
        <time>2018-04-28T07:26:58Z</time>
      </trkpt>
      <trkpt lat="38.2825580" lon="-0.6810760">
        <ele>103.0</ele>
        <time>2018-04-28T07:26:59Z</time>
      </trkpt>
      <trkpt lat="38.2825670" lon="-0.6811750">
        <ele>102.9</ele>
        <time>2018-04-28T07:27:00Z</time>
      </trkpt>
      <trkpt lat="38.2825750" lon="-0.6812730">
        <ele>102.8</ele>
        <time>2018-04-28T07:27:01Z</time>
      </trkpt>
      <trkpt lat="38.2825820" lon="-0.6813700">
        <ele>102.7</ele>
        <time>2018-04-28T07:27:02Z</time>
      </trkpt>
      <trkpt lat="38.2825890" lon="-0.6814660">
        <ele>102.7</ele>
        <time>2018-04-28T07:27:03Z</time>
      </trkpt>
      <trkpt lat="38.2825960" lon="-0.6815590">
        <ele>102.7</ele>
        <time>2018-04-28T07:27:04Z</time>
      </trkpt>
      <trkpt lat="38.2826050" lon="-0.6816520">
        <ele>102.7</ele>
        <time>2018-04-28T07:27:05Z</time>
      </trkpt>
      <trkpt lat="38.2826150" lon="-0.6817440">
        <ele>102.8</ele>
        <time>2018-04-28T07:27:06Z</time>
      </trkpt>
      <trkpt lat="38.2826330" lon="-0.6818350">
        <ele>102.9</ele>
        <time>2018-04-28T07:27:07Z</time>
      </trkpt>
      <trkpt lat="38.2826610" lon="-0.6819210">
        <ele>103.0</ele>
        <time>2018-04-28T07:27:08Z</time>
      </trkpt>
      <trkpt lat="38.2827030" lon="-0.6819940">
        <ele>103.0</ele>
        <time>2018-04-28T07:27:09Z</time>
      </trkpt>
      <trkpt lat="38.2827510" lon="-0.6820660">
        <ele>103.0</ele>
        <time>2018-04-28T07:27:10Z</time>
      </trkpt>
      <trkpt lat="38.2827910" lon="-0.6821430">
        <ele>103.0</ele>
        <time>2018-04-28T07:27:11Z</time>
      </trkpt>
      <trkpt lat="38.2828210" lon="-0.6822260">
        <ele>103.0</ele>
        <time>2018-04-28T07:27:12Z</time>
      </trkpt>
      <trkpt lat="38.2828380" lon="-0.6823160">
        <ele>103.0</ele>
        <time>2018-04-28T07:27:13Z</time>
      </trkpt>
      <trkpt lat="38.2828360" lon="-0.6824090">
        <ele>102.8</ele>
        <time>2018-04-28T07:27:14Z</time>
      </trkpt>
      <trkpt lat="38.2828220" lon="-0.6825030">
        <ele>102.4</ele>
        <time>2018-04-28T07:27:15Z</time>
      </trkpt>
      <trkpt lat="38.2827930" lon="-0.6825890">
        <ele>102.0</ele>
        <time>2018-04-28T07:27:16Z</time>
      </trkpt>
      <trkpt lat="38.2827460" lon="-0.6826690">
        <ele>102.0</ele>
        <time>2018-04-28T07:27:17Z</time>
      </trkpt>
      <trkpt lat="38.2826820" lon="-0.6827340">
        <ele>102.0</ele>
        <time>2018-04-28T07:27:18Z</time>
      </trkpt>
      <trkpt lat="38.2826130" lon="-0.6827810">
        <ele>101.6</ele>
        <time>2018-04-28T07:27:19Z</time>
      </trkpt>
      <trkpt lat="38.2825350" lon="-0.6828110">
        <ele>101.1</ele>
        <time>2018-04-28T07:27:20Z</time>
      </trkpt>
      <trkpt lat="38.2824560" lon="-0.6827980">
        <ele>100.6</ele>
        <time>2018-04-28T07:27:21Z</time>
      </trkpt>
      <trkpt lat="38.2823750" lon="-0.6827730">
        <ele>100.2</ele>
        <time>2018-04-28T07:27:22Z</time>
      </trkpt>
      <trkpt lat="38.2822970" lon="-0.6827360">
        <ele>100.0</ele>
        <time>2018-04-28T07:27:23Z</time>
      </trkpt>
      <trkpt lat="38.2822190" lon="-0.6826950">
        <ele>100.0</ele>
        <time>2018-04-28T07:27:24Z</time>
      </trkpt>
      <trkpt lat="38.2821360" lon="-0.6826640">
        <ele>99.8</ele>
        <time>2018-04-28T07:27:25Z</time>
      </trkpt>
      <trkpt lat="38.2820510" lon="-0.6826570">
        <ele>99.6</ele>
        <time>2018-04-28T07:27:26Z</time>
      </trkpt>
      <trkpt lat="38.2819670" lon="-0.6826610">
        <ele>99.4</ele>
        <time>2018-04-28T07:27:27Z</time>
      </trkpt>
      <trkpt lat="38.2818810" lon="-0.6826670">
        <ele>99.1</ele>
        <time>2018-04-28T07:27:28Z</time>
      </trkpt>
      <trkpt lat="38.2817980" lon="-0.6826960">
        <ele>98.8</ele>
        <time>2018-04-28T07:27:29Z</time>
      </trkpt>
      <trkpt lat="38.2817130" lon="-0.6827220">
        <ele>98.5</ele>
        <time>2018-04-28T07:27:30Z</time>
      </trkpt>
      <trkpt lat="38.2816290" lon="-0.6827470">
        <ele>98.2</ele>
        <time>2018-04-28T07:27:31Z</time>
      </trkpt>
      <trkpt lat="38.2815460" lon="-0.6827740">
        <ele>98.0</ele>
        <time>2018-04-28T07:27:32Z</time>
      </trkpt>
      <trkpt lat="38.2814620" lon="-0.6827970">
        <ele>97.9</ele>
        <time>2018-04-28T07:27:33Z</time>
      </trkpt>
      <trkpt lat="38.2813770" lon="-0.6828140">
        <ele>97.9</ele>
        <time>2018-04-28T07:27:34Z</time>
      </trkpt>
      <trkpt lat="38.2812930" lon="-0.6828240">
        <ele>97.7</ele>
        <time>2018-04-28T07:27:35Z</time>
      </trkpt>
      <trkpt lat="38.2812080" lon="-0.6828300">
        <ele>97.5</ele>
        <time>2018-04-28T07:27:36Z</time>
      </trkpt>
      <trkpt lat="38.2811230" lon="-0.6828330">
        <ele>97.1</ele>
        <time>2018-04-28T07:27:37Z</time>
      </trkpt>
      <trkpt lat="38.2810390" lon="-0.6828280">
        <ele>96.8</ele>
        <time>2018-04-28T07:27:38Z</time>
      </trkpt>
      <trkpt lat="38.2809550" lon="-0.6828200">
        <ele>96.4</ele>
        <time>2018-04-28T07:27:39Z</time>
      </trkpt>
      <trkpt lat="38.2808710" lon="-0.6828060">
        <ele>96.1</ele>
        <time>2018-04-28T07:27:40Z</time>
      </trkpt>
      <trkpt lat="38.2807900" lon="-0.6827850">
        <ele>95.9</ele>
        <time>2018-04-28T07:27:41Z</time>
      </trkpt>
      <trkpt lat="38.2807090" lon="-0.6827650">
        <ele>95.7</ele>
        <time>2018-04-28T07:27:42Z</time>
      </trkpt>
      <trkpt lat="38.2806290" lon="-0.6827370">
        <ele>95.7</ele>
        <time>2018-04-28T07:27:43Z</time>
      </trkpt>
      <trkpt lat="38.2805500" lon="-0.6827080">
        <ele>95.6</ele>
        <time>2018-04-28T07:27:44Z</time>
      </trkpt>
      <trkpt lat="38.2804710" lon="-0.6826770">
        <ele>95.6</ele>
        <time>2018-04-28T07:27:45Z</time>
      </trkpt>
      <trkpt lat="38.2803930" lon="-0.6826450">
        <ele>95.6</ele>
        <time>2018-04-28T07:27:46Z</time>
      </trkpt>
      <trkpt lat="38.2803150" lon="-0.6826130">
        <ele>95.5</ele>
        <time>2018-04-28T07:27:47Z</time>
      </trkpt>
      <trkpt lat="38.2802370" lon="-0.6825830">
        <ele>95.5</ele>
        <time>2018-04-28T07:27:48Z</time>
      </trkpt>
      <trkpt lat="38.2801590" lon="-0.6825530">
        <ele>95.5</ele>
        <time>2018-04-28T07:27:49Z</time>
      </trkpt>
      <trkpt lat="38.2800800" lon="-0.6825230">
        <ele>95.5</ele>
        <time>2018-04-28T07:27:50Z</time>
      </trkpt>
      <trkpt lat="38.2800050" lon="-0.6824870">
        <ele>95.5</ele>
        <time>2018-04-28T07:27:51Z</time>
      </trkpt>
      <trkpt lat="38.2799280" lon="-0.6824530">
        <ele>95.5</ele>
        <time>2018-04-28T07:27:52Z</time>
      </trkpt>
      <trkpt lat="38.2798500" lon="-0.6824220">
        <ele>95.4</ele>
        <time>2018-04-28T07:27:53Z</time>
      </trkpt>
      <trkpt lat="38.2797740" lon="-0.6823930">
        <ele>95.4</ele>
        <time>2018-04-28T07:27:54Z</time>
      </trkpt>
      <trkpt lat="38.2796980" lon="-0.6823630">
        <ele>95.4</ele>
        <time>2018-04-28T07:27:55Z</time>
      </trkpt>
      <trkpt lat="38.2796200" lon="-0.6823340">
        <ele>95.4</ele>
        <time>2018-04-28T07:27:56Z</time>
      </trkpt>
      <trkpt lat="38.2795430" lon="-0.6823010">
        <ele>95.4</ele>
        <time>2018-04-28T07:27:57Z</time>
      </trkpt>
      <trkpt lat="38.2794650" lon="-0.6822720">
        <ele>95.3</ele>
        <time>2018-04-28T07:27:58Z</time>
      </trkpt>
      <trkpt lat="38.2793880" lon="-0.6822410">
        <ele>95.3</ele>
        <time>2018-04-28T07:27:59Z</time>
      </trkpt>
      <trkpt lat="38.2793100" lon="-0.6822100">
        <ele>95.3</ele>
        <time>2018-04-28T07:28:00Z</time>
      </trkpt>
      <trkpt lat="38.2792320" lon="-0.6821800">
        <ele>95.3</ele>
        <time>2018-04-28T07:28:01Z</time>
      </trkpt>
      <trkpt lat="38.2791540" lon="-0.6821490">
        <ele>95.3</ele>
        <time>2018-04-28T07:28:02Z</time>
      </trkpt>
      <trkpt lat="38.2790770" lon="-0.6821190">
        <ele>95.3</ele>
        <time>2018-04-28T07:28:03Z</time>
      </trkpt>
      <trkpt lat="38.2790000" lon="-0.6820890">
        <ele>95.2</ele>
        <time>2018-04-28T07:28:04Z</time>
      </trkpt>
      <trkpt lat="38.2789240" lon="-0.6820590">
        <ele>95.2</ele>
        <time>2018-04-28T07:28:05Z</time>
      </trkpt>
      <trkpt lat="38.2788510" lon="-0.6820290">
        <ele>95.2</ele>
        <time>2018-04-28T07:28:06Z</time>
      </trkpt>
      <trkpt lat="38.2787770" lon="-0.6819970">
        <ele>95.1</ele>
        <time>2018-04-28T07:28:07Z</time>
      </trkpt>
      <trkpt lat="38.2787050" lon="-0.6819670">
        <ele>95.0</ele>
        <time>2018-04-28T07:28:08Z</time>
      </trkpt>
      <trkpt lat="38.2786310" lon="-0.6819370">
        <ele>94.9</ele>
        <time>2018-04-28T07:28:09Z</time>
      </trkpt>
      <trkpt lat="38.2785580" lon="-0.6819070">
        <ele>94.6</ele>
        <time>2018-04-28T07:28:10Z</time>
      </trkpt>
      <trkpt lat="38.2784840" lon="-0.6818760">
        <ele>94.3</ele>
        <time>2018-04-28T07:28:11Z</time>
      </trkpt>
      <trkpt lat="38.2784110" lon="-0.6818450">
        <ele>94.0</ele>
        <time>2018-04-28T07:28:12Z</time>
      </trkpt>
      <trkpt lat="38.2783380" lon="-0.6818140">
        <ele>93.7</ele>
        <time>2018-04-28T07:28:13Z</time>
      </trkpt>
      <trkpt lat="38.2782640" lon="-0.6817840">
        <ele>93.5</ele>
        <time>2018-04-28T07:28:14Z</time>
      </trkpt>
      <trkpt lat="38.2781890" lon="-0.6817540">
        <ele>93.3</ele>
        <time>2018-04-28T07:28:15Z</time>
      </trkpt>
      <trkpt lat="38.2781140" lon="-0.6817250">
        <ele>93.2</ele>
        <time>2018-04-28T07:28:16Z</time>
      </trkpt>
      <trkpt lat="38.2780370" lon="-0.6817050">
        <ele>93.1</ele>
        <time>2018-04-28T07:28:17Z</time>
      </trkpt>
      <trkpt lat="38.2779600" lon="-0.6817030">
        <ele>93.0</ele>
        <time>2018-04-28T07:28:18Z</time>
      </trkpt>
      <trkpt lat="38.2778850" lon="-0.6817110">
        <ele>93.1</ele>
        <time>2018-04-28T07:28:19Z</time>
      </trkpt>
      <trkpt lat="38.2778090" lon="-0.6817300">
        <ele>93.2</ele>
        <time>2018-04-28T07:28:20Z</time>
      </trkpt>
      <trkpt lat="38.2777290" lon="-0.6817280">
        <ele>93.2</ele>
        <time>2018-04-28T07:28:21Z</time>
      </trkpt>
      <trkpt lat="38.2776540" lon="-0.6816980">
        <ele>93.1</ele>
        <time>2018-04-28T07:28:22Z</time>
      </trkpt>
      <trkpt lat="38.2775850" lon="-0.6816520">
        <ele>93.0</ele>
        <time>2018-04-28T07:28:23Z</time>
      </trkpt>
      <trkpt lat="38.2775280" lon="-0.6815880">
        <ele>93.0</ele>
        <time>2018-04-28T07:28:24Z</time>
      </trkpt>
      <trkpt lat="38.2774900" lon="-0.6815050">
        <ele>92.9</ele>
        <time>2018-04-28T07:28:25Z</time>
      </trkpt>
      <trkpt lat="38.2774610" lon="-0.6814150">
        <ele>93.0</ele>
        <time>2018-04-28T07:28:26Z</time>
      </trkpt>
      <trkpt lat="38.2774220" lon="-0.6813370">
        <ele>93.0</ele>
        <time>2018-04-28T07:28:27Z</time>
      </trkpt>
      <trkpt lat="38.2773750" lon="-0.6812850">
        <ele>93.0</ele>
        <time>2018-04-28T07:28:28Z</time>
      </trkpt>
      <trkpt lat="38.2772920" lon="-0.6812550">
        <ele>93.0</ele>
        <time>2018-04-28T07:28:29Z</time>
      </trkpt>
      <trkpt lat="38.2772110" lon="-0.6812270">
        <ele>93.0</ele>
        <time>2018-04-28T07:28:30Z</time>
      </trkpt>
      <trkpt lat="38.2771320" lon="-0.6811990">
        <ele>93.1</ele>
        <time>2018-04-28T07:28:31Z</time>
      </trkpt>
      <trkpt lat="38.2770550" lon="-0.6811690">
        <ele>93.1</ele>
        <time>2018-04-28T07:28:32Z</time>
      </trkpt>
      <trkpt lat="38.2769770" lon="-0.6811370">
        <ele>93.0</ele>
        <time>2018-04-28T07:28:33Z</time>
      </trkpt>
      <trkpt lat="38.2769000" lon="-0.6811060">
        <ele>92.9</ele>
        <time>2018-04-28T07:28:34Z</time>
      </trkpt>
      <trkpt lat="38.2768220" lon="-0.6810760">
        <ele>92.6</ele>
        <time>2018-04-28T07:28:35Z</time>
      </trkpt>
      <trkpt lat="38.2767440" lon="-0.6810440">
        <ele>92.3</ele>
        <time>2018-04-28T07:28:36Z</time>
      </trkpt>
      <trkpt lat="38.2766650" lon="-0.6810110">
        <ele>91.9</ele>
        <time>2018-04-28T07:28:37Z</time>
      </trkpt>
      <trkpt lat="38.2765880" lon="-0.6809790">
        <ele>91.7</ele>
        <time>2018-04-28T07:28:38Z</time>
      </trkpt>
      <trkpt lat="38.2765090" lon="-0.6809480">
        <ele>91.6</ele>
        <time>2018-04-28T07:28:39Z</time>
      </trkpt>
      <trkpt lat="38.2764290" lon="-0.6809170">
        <ele>91.6</ele>
        <time>2018-04-28T07:28:40Z</time>
      </trkpt>
      <trkpt lat="38.2763480" lon="-0.6808850">
        <ele>91.7</ele>
        <time>2018-04-28T07:28:41Z</time>
      </trkpt>
      <trkpt lat="38.2762670" lon="-0.6808530">
        <ele>91.7</ele>
        <time>2018-04-28T07:28:42Z</time>
      </trkpt>
      <trkpt lat="38.2761870" lon="-0.6808200">
        <ele>91.8</ele>
        <time>2018-04-28T07:28:43Z</time>
      </trkpt>
      <trkpt lat="38.2761070" lon="-0.6807870">
        <ele>91.8</ele>
        <time>2018-04-28T07:28:44Z</time>
      </trkpt>
      <trkpt lat="38.2760270" lon="-0.6807570">
        <ele>91.9</ele>
        <time>2018-04-28T07:28:45Z</time>
      </trkpt>
      <trkpt lat="38.2759470" lon="-0.6807250">
        <ele>92.0</ele>
        <time>2018-04-28T07:28:46Z</time>
      </trkpt>
      <trkpt lat="38.2758670" lon="-0.6806950">
        <ele>92.1</ele>
        <time>2018-04-28T07:28:47Z</time>
      </trkpt>
      <trkpt lat="38.2757880" lon="-0.6806650">
        <ele>92.2</ele>
        <time>2018-04-28T07:28:48Z</time>
      </trkpt>
      <trkpt lat="38.2757100" lon="-0.6806330">
        <ele>92.3</ele>
        <time>2018-04-28T07:28:49Z</time>
      </trkpt>
      <trkpt lat="38.2756340" lon="-0.6805990">
        <ele>92.3</ele>
        <time>2018-04-28T07:28:50Z</time>
      </trkpt>
      <trkpt lat="38.2755590" lon="-0.6805650">
        <ele>92.4</ele>
        <time>2018-04-28T07:28:51Z</time>
      </trkpt>
      <trkpt lat="38.2754850" lon="-0.6805330">
        <ele>92.5</ele>
        <time>2018-04-28T07:28:52Z</time>
      </trkpt>
      <trkpt lat="38.2754120" lon="-0.6805070">
        <ele>92.5</ele>
        <time>2018-04-28T07:28:53Z</time>
      </trkpt>
      <trkpt lat="38.2753390" lon="-0.6804790">
        <ele>92.5</ele>
        <time>2018-04-28T07:28:54Z</time>
      </trkpt>
      <trkpt lat="38.2752680" lon="-0.6804520">
        <ele>92.5</ele>
        <time>2018-04-28T07:28:55Z</time>
      </trkpt>
      <trkpt lat="38.2751980" lon="-0.6804220">
        <ele>92.3</ele>
        <time>2018-04-28T07:28:56Z</time>
      </trkpt>
      <trkpt lat="38.2751290" lon="-0.6803910">
        <ele>91.9</ele>
        <time>2018-04-28T07:28:57Z</time>
      </trkpt>
      <trkpt lat="38.2750600" lon="-0.6803580">
        <ele>91.6</ele>
        <time>2018-04-28T07:28:58Z</time>
      </trkpt>
      <trkpt lat="38.2749920" lon="-0.6803290">
        <ele>91.2</ele>
        <time>2018-04-28T07:28:59Z</time>
      </trkpt>
      <trkpt lat="38.2749240" lon="-0.6803050">
        <ele>91.0</ele>
        <time>2018-04-28T07:29:00Z</time>
      </trkpt>
      <trkpt lat="38.2748770" lon="-0.6803000">
        <ele>91.0</ele>
        <time>2018-04-28T07:29:01Z</time>
      </trkpt>
      <trkpt lat="38.2748480" lon="-0.6803090">
        <ele>91.0</ele>
        <time>2018-04-28T07:29:02Z</time>
      </trkpt>
      <trkpt lat="38.2748210" lon="-0.6803170">
        <ele>91.0</ele>
        <time>2018-04-28T07:29:03Z</time>
      </trkpt>
      <trkpt lat="38.2748010" lon="-0.6803310">
        <ele>91.0</ele>
        <time>2018-04-28T07:29:04Z</time>
      </trkpt>
      <trkpt lat="38.2747810" lon="-0.6803500">
        <ele>91.0</ele>
        <time>2018-04-28T07:29:05Z</time>
      </trkpt>
      <trkpt lat="38.2747570" lon="-0.6803800">
        <ele>91.0</ele>
        <time>2018-04-28T07:29:06Z</time>
      </trkpt>
      <trkpt lat="38.2747390" lon="-0.6804180">
        <ele>90.9</ele>
        <time>2018-04-28T07:29:07Z</time>
      </trkpt>
      <trkpt lat="38.2747230" lon="-0.6804650">
        <ele>90.8</ele>
        <time>2018-04-28T07:29:08Z</time>
      </trkpt>
      <trkpt lat="38.2747170" lon="-0.6805210">
        <ele>90.7</ele>
        <time>2018-04-28T07:29:09Z</time>
      </trkpt>
      <trkpt lat="38.2747060" lon="-0.6805770">
        <ele>90.6</ele>
        <time>2018-04-28T07:29:10Z</time>
      </trkpt>
      <trkpt lat="38.2746950" lon="-0.6806390">
        <ele>90.4</ele>
        <time>2018-04-28T07:29:11Z</time>
      </trkpt>
      <trkpt lat="38.2746830" lon="-0.6807070">
        <ele>90.2</ele>
        <time>2018-04-28T07:29:12Z</time>
      </trkpt>
      <trkpt lat="38.2746690" lon="-0.6807810">
        <ele>90.0</ele>
        <time>2018-04-28T07:29:13Z</time>
      </trkpt>
      <trkpt lat="38.2746560" lon="-0.6808540">
        <ele>89.7</ele>
        <time>2018-04-28T07:29:14Z</time>
      </trkpt>
      <trkpt lat="38.2746380" lon="-0.6809520">
        <ele>89.5</ele>
        <time>2018-04-28T07:29:15Z</time>
      </trkpt>
      <trkpt lat="38.2746190" lon="-0.6810580">
        <ele>89.2</ele>
        <time>2018-04-28T07:29:16Z</time>
      </trkpt>
      <trkpt lat="38.2746020" lon="-0.6811560">
        <ele>89.0</ele>
        <time>2018-04-28T07:29:17Z</time>
      </trkpt>
      <trkpt lat="38.2745870" lon="-0.6812480">
        <ele>88.9</ele>
        <time>2018-04-28T07:29:18Z</time>
      </trkpt>
      <trkpt lat="38.2745720" lon="-0.6813370">
        <ele>88.8</ele>
        <time>2018-04-28T07:29:19Z</time>
      </trkpt>
      <trkpt lat="38.2745560" lon="-0.6814270">
        <ele>88.7</ele>
        <time>2018-04-28T07:29:20Z</time>
      </trkpt>
      <trkpt lat="38.2745410" lon="-0.6815170">
        <ele>88.6</ele>
        <time>2018-04-28T07:29:21Z</time>
      </trkpt>
      <trkpt lat="38.2745230" lon="-0.6816110">
        <ele>88.4</ele>
        <time>2018-04-28T07:29:22Z</time>
      </trkpt>
      <trkpt lat="38.2745080" lon="-0.6817050">
        <ele>88.3</ele>
        <time>2018-04-28T07:29:23Z</time>
      </trkpt>
      <trkpt lat="38.2744920" lon="-0.6818000">
        <ele>88.2</ele>
        <time>2018-04-28T07:29:24Z</time>
      </trkpt>
      <trkpt lat="38.2744770" lon="-0.6818970">
        <ele>87.9</ele>
        <time>2018-04-28T07:29:25Z</time>
      </trkpt>
      <trkpt lat="38.2744620" lon="-0.6819940">
        <ele>87.7</ele>
        <time>2018-04-28T07:29:26Z</time>
      </trkpt>
      <trkpt lat="38.2744450" lon="-0.6820890">
        <ele>87.6</ele>
        <time>2018-04-28T07:29:27Z</time>
      </trkpt>
      <trkpt lat="38.2744290" lon="-0.6821890">
        <ele>87.4</ele>
        <time>2018-04-28T07:29:28Z</time>
      </trkpt>
      <trkpt lat="38.2744130" lon="-0.6822870">
        <ele>87.3</ele>
        <time>2018-04-28T07:29:29Z</time>
      </trkpt>
      <trkpt lat="38.2743970" lon="-0.6823850">
        <ele>87.1</ele>
        <time>2018-04-28T07:29:30Z</time>
      </trkpt>
      <trkpt lat="38.2743810" lon="-0.6824840">
        <ele>87.0</ele>
        <time>2018-04-28T07:29:31Z</time>
      </trkpt>
      <trkpt lat="38.2743620" lon="-0.6825820">
        <ele>86.8</ele>
        <time>2018-04-28T07:29:32Z</time>
      </trkpt>
      <trkpt lat="38.2743430" lon="-0.6826800">
        <ele>86.6</ele>
        <time>2018-04-28T07:29:33Z</time>
      </trkpt>
      <trkpt lat="38.2743260" lon="-0.6827790">
        <ele>86.4</ele>
        <time>2018-04-28T07:29:34Z</time>
      </trkpt>
      <trkpt lat="38.2743080" lon="-0.6828770">
        <ele>86.3</ele>
        <time>2018-04-28T07:29:35Z</time>
      </trkpt>
      <trkpt lat="38.2742910" lon="-0.6829770">
        <ele>86.1</ele>
        <time>2018-04-28T07:29:36Z</time>
      </trkpt>
      <trkpt lat="38.2742740" lon="-0.6830770">
        <ele>86.2</ele>
        <time>2018-04-28T07:29:37Z</time>
      </trkpt>
      <trkpt lat="38.2742570" lon="-0.6831790">
        <ele>86.7</ele>
        <time>2018-04-28T07:29:38Z</time>
      </trkpt>
      <trkpt lat="38.2742390" lon="-0.6832800">
        <ele>87.2</ele>
        <time>2018-04-28T07:29:39Z</time>
      </trkpt>
      <trkpt lat="38.2742220" lon="-0.6833810">
        <ele>87.6</ele>
        <time>2018-04-28T07:29:40Z</time>
      </trkpt>
      <trkpt lat="38.2742040" lon="-0.6834820">
        <ele>88.1</ele>
        <time>2018-04-28T07:29:41Z</time>
      </trkpt>
      <trkpt lat="38.2741870" lon="-0.6835820">
        <ele>88.5</ele>
        <time>2018-04-28T07:29:42Z</time>
      </trkpt>
      <trkpt lat="38.2741700" lon="-0.6836830">
        <ele>89.0</ele>
        <time>2018-04-28T07:29:43Z</time>
      </trkpt>
      <trkpt lat="38.2741550" lon="-0.6837860">
        <ele>89.3</ele>
        <time>2018-04-28T07:29:44Z</time>
      </trkpt>
      <trkpt lat="38.2741400" lon="-0.6838860">
        <ele>89.6</ele>
        <time>2018-04-28T07:29:45Z</time>
      </trkpt>
      <trkpt lat="38.2741230" lon="-0.6839850">
        <ele>89.9</ele>
        <time>2018-04-28T07:29:46Z</time>
      </trkpt>
      <trkpt lat="38.2741050" lon="-0.6840860">
        <ele>90.2</ele>
        <time>2018-04-28T07:29:47Z</time>
      </trkpt>
      <trkpt lat="38.2740870" lon="-0.6841850">
        <ele>90.5</ele>
        <time>2018-04-28T07:29:48Z</time>
      </trkpt>
      <trkpt lat="38.2740700" lon="-0.6842850">
        <ele>90.8</ele>
        <time>2018-04-28T07:29:49Z</time>
      </trkpt>
      <trkpt lat="38.2740540" lon="-0.6843860">
        <ele>91.1</ele>
        <time>2018-04-28T07:29:50Z</time>
      </trkpt>
      <trkpt lat="38.2740370" lon="-0.6844850">
        <ele>91.3</ele>
        <time>2018-04-28T07:29:51Z</time>
      </trkpt>
      <trkpt lat="38.2740220" lon="-0.6845870">
        <ele>91.6</ele>
        <time>2018-04-28T07:29:52Z</time>
      </trkpt>
      <trkpt lat="38.2740060" lon="-0.6846890">
        <ele>91.9</ele>
        <time>2018-04-28T07:29:53Z</time>
      </trkpt>
      <trkpt lat="38.2739890" lon="-0.6847910">
        <ele>92.2</ele>
        <time>2018-04-28T07:29:54Z</time>
      </trkpt>
      <trkpt lat="38.2739700" lon="-0.6848900">
        <ele>92.6</ele>
        <time>2018-04-28T07:29:55Z</time>
      </trkpt>
      <trkpt lat="38.2739520" lon="-0.6849900">
        <ele>92.9</ele>
        <time>2018-04-28T07:29:56Z</time>
      </trkpt>
      <trkpt lat="38.2739340" lon="-0.6850920">
        <ele>92.9</ele>
        <time>2018-04-28T07:29:57Z</time>
      </trkpt>
      <trkpt lat="38.2739160" lon="-0.6851940">
        <ele>92.8</ele>
        <time>2018-04-28T07:29:58Z</time>
      </trkpt>
      <trkpt lat="38.2738970" lon="-0.6852930">
        <ele>92.8</ele>
        <time>2018-04-28T07:29:59Z</time>
      </trkpt>
      <trkpt lat="38.2738810" lon="-0.6853940">
        <ele>92.7</ele>
        <time>2018-04-28T07:30:00Z</time>
      </trkpt>
      <trkpt lat="38.2738650" lon="-0.6854940">
        <ele>92.6</ele>
        <time>2018-04-28T07:30:01Z</time>
      </trkpt>
      <trkpt lat="38.2738480" lon="-0.6855940">
        <ele>92.6</ele>
        <time>2018-04-28T07:30:02Z</time>
      </trkpt>
      <trkpt lat="38.2738300" lon="-0.6856940">
        <ele>92.5</ele>
        <time>2018-04-28T07:30:03Z</time>
      </trkpt>
      <trkpt lat="38.2738130" lon="-0.6857930">
        <ele>92.5</ele>
        <time>2018-04-28T07:30:04Z</time>
      </trkpt>
      <trkpt lat="38.2737960" lon="-0.6858940">
        <ele>92.4</ele>
        <time>2018-04-28T07:30:05Z</time>
      </trkpt>
      <trkpt lat="38.2737790" lon="-0.6859940">
        <ele>92.3</ele>
        <time>2018-04-28T07:30:06Z</time>
      </trkpt>
      <trkpt lat="38.2737620" lon="-0.6860920">
        <ele>92.3</ele>
        <time>2018-04-28T07:30:07Z</time>
      </trkpt>
      <trkpt lat="38.2737430" lon="-0.6861910">
        <ele>92.2</ele>
        <time>2018-04-28T07:30:08Z</time>
      </trkpt>
      <trkpt lat="38.2737250" lon="-0.6862910">
        <ele>92.1</ele>
        <time>2018-04-28T07:30:09Z</time>
      </trkpt>
      <trkpt lat="38.2737070" lon="-0.6863920">
        <ele>92.0</ele>
        <time>2018-04-28T07:30:10Z</time>
      </trkpt>
      <trkpt lat="38.2736940" lon="-0.6864940">
        <ele>91.9</ele>
        <time>2018-04-28T07:30:11Z</time>
      </trkpt>
      <trkpt lat="38.2736780" lon="-0.6865960">
        <ele>91.8</ele>
        <time>2018-04-28T07:30:12Z</time>
      </trkpt>
      <trkpt lat="38.2736600" lon="-0.6866960">
        <ele>91.8</ele>
        <time>2018-04-28T07:30:13Z</time>
      </trkpt>
      <trkpt lat="38.2736420" lon="-0.6868000">
        <ele>91.7</ele>
        <time>2018-04-28T07:30:14Z</time>
      </trkpt>
      <trkpt lat="38.2736240" lon="-0.6869020">
        <ele>91.6</ele>
        <time>2018-04-28T07:30:15Z</time>
      </trkpt>
      <trkpt lat="38.2736020" lon="-0.6870020">
        <ele>91.6</ele>
        <time>2018-04-28T07:30:16Z</time>
      </trkpt>
      <trkpt lat="38.2735760" lon="-0.6871000">
        <ele>91.5</ele>
        <time>2018-04-28T07:30:17Z</time>
      </trkpt>
      <trkpt lat="38.2735550" lon="-0.6871990">
        <ele>91.5</ele>
        <time>2018-04-28T07:30:18Z</time>
      </trkpt>
      <trkpt lat="38.2735360" lon="-0.6872990">
        <ele>91.5</ele>
        <time>2018-04-28T07:30:19Z</time>
      </trkpt>
      <trkpt lat="38.2735180" lon="-0.6873960">
        <ele>91.4</ele>
        <time>2018-04-28T07:30:20Z</time>
      </trkpt>
      <trkpt lat="38.2734990" lon="-0.6874920">
        <ele>91.4</ele>
        <time>2018-04-28T07:30:21Z</time>
      </trkpt>
      <trkpt lat="38.2734820" lon="-0.6875850">
        <ele>91.4</ele>
        <time>2018-04-28T07:30:22Z</time>
      </trkpt>
      <trkpt lat="38.2734660" lon="-0.6876760">
        <ele>91.3</ele>
        <time>2018-04-28T07:30:23Z</time>
      </trkpt>
      <trkpt lat="38.2734490" lon="-0.6877640">
        <ele>91.3</ele>
        <time>2018-04-28T07:30:24Z</time>
      </trkpt>
      <trkpt lat="38.2734310" lon="-0.6878510">
        <ele>91.2</ele>
        <time>2018-04-28T07:30:25Z</time>
      </trkpt>
      <trkpt lat="38.2734130" lon="-0.6879390">
        <ele>91.1</ele>
        <time>2018-04-28T07:30:26Z</time>
      </trkpt>
      <trkpt lat="38.2733970" lon="-0.6880240">
        <ele>91.1</ele>
        <time>2018-04-28T07:30:27Z</time>
      </trkpt>
      <trkpt lat="38.2733790" lon="-0.6881090">
        <ele>91.0</ele>
        <time>2018-04-28T07:30:28Z</time>
      </trkpt>
      <trkpt lat="38.2732740" lon="-0.6881770">
        <ele>91.0</ele>
        <time>2018-04-28T07:30:29Z</time>
      </trkpt>
      <trkpt lat="38.2731690" lon="-0.6882450">
        <ele>91.0</ele>
        <time>2018-04-28T07:30:30Z</time>
      </trkpt>
      <trkpt lat="38.2731610" lon="-0.6881950">
        <ele>91.0</ele>
        <time>2018-04-28T07:30:31Z</time>
      </trkpt>
      <trkpt lat="38.2731790" lon="-0.6881370">
        <ele>91.0</ele>
        <time>2018-04-28T07:30:32Z</time>
      </trkpt>
      <trkpt lat="38.2731730" lon="-0.6880600">
        <ele>91.0</ele>
        <time>2018-04-28T07:30:33Z</time>
      </trkpt>
      <trkpt lat="38.2731680" lon="-0.6879760">
        <ele>91.0</ele>
        <time>2018-04-28T07:30:34Z</time>
      </trkpt>
      <trkpt lat="38.2731650" lon="-0.6878940">
        <ele>91.0</ele>
        <time>2018-04-28T07:30:35Z</time>
      </trkpt>
      <trkpt lat="38.2731720" lon="-0.6878140">
        <ele>91.0</ele>
        <time>2018-04-28T07:30:36Z</time>
      </trkpt>
      <trkpt lat="38.2731770" lon="-0.6877340">
        <ele>91.0</ele>
        <time>2018-04-28T07:30:37Z</time>
      </trkpt>
      <trkpt lat="38.2731870" lon="-0.6876510">
        <ele>91.0</ele>
        <time>2018-04-28T07:30:38Z</time>
      </trkpt>
      <trkpt lat="38.2731930" lon="-0.6875680">
        <ele>91.0</ele>
        <time>2018-04-28T07:30:39Z</time>
      </trkpt>
      <trkpt lat="38.2732330" lon="-0.6874850">
        <ele>91.1</ele>
        <time>2018-04-28T07:30:40Z</time>
      </trkpt>
      <trkpt lat="38.2732460" lon="-0.6874010">
        <ele>91.3</ele>
        <time>2018-04-28T07:30:41Z</time>
      </trkpt>
      <trkpt lat="38.2732580" lon="-0.6873140">
        <ele>91.4</ele>
        <time>2018-04-28T07:30:42Z</time>
      </trkpt>
      <trkpt lat="38.2732700" lon="-0.6872280">
        <ele>91.6</ele>
        <time>2018-04-28T07:30:43Z</time>
      </trkpt>
      <trkpt lat="38.2732790" lon="-0.6871430">
        <ele>91.7</ele>
        <time>2018-04-28T07:30:44Z</time>
      </trkpt>
      <trkpt lat="38.2732900" lon="-0.6870590">
        <ele>91.9</ele>
        <time>2018-04-28T07:30:45Z</time>
      </trkpt>
      <trkpt lat="38.2733000" lon="-0.6869760">
        <ele>92.0</ele>
        <time>2018-04-28T07:30:46Z</time>
      </trkpt>
      <trkpt lat="38.2733200" lon="-0.6868910">
        <ele>91.7</ele>
        <time>2018-04-28T07:30:47Z</time>
      </trkpt>
      <trkpt lat="38.2733320" lon="-0.6868020">
        <ele>91.4</ele>
        <time>2018-04-28T07:30:48Z</time>
      </trkpt>
      <trkpt lat="38.2733430" lon="-0.6867140">
        <ele>91.3</ele>
        <time>2018-04-28T07:30:49Z</time>
      </trkpt>
      <trkpt lat="38.2733550" lon="-0.6866250">
        <ele>91.2</ele>
        <time>2018-04-28T07:30:50Z</time>
      </trkpt>
      <trkpt lat="38.2733650" lon="-0.6865370">
        <ele>91.1</ele>
        <time>2018-04-28T07:30:51Z</time>
      </trkpt>
      <trkpt lat="38.2733750" lon="-0.6864500">
        <ele>91.4</ele>
        <time>2018-04-28T07:30:52Z</time>
      </trkpt>
      <trkpt lat="38.2733870" lon="-0.6863590">
        <ele>91.3</ele>
        <time>2018-04-28T07:30:53Z</time>
      </trkpt>
      <trkpt lat="38.2733960" lon="-0.6862680">
        <ele>91.7</ele>
        <time>2018-04-28T07:30:54Z</time>
      </trkpt>
      <trkpt lat="38.2734050" lon="-0.6862090">
        <ele>91.8</ele>
        <time>2018-04-28T07:30:58Z</time>
      </trkpt>
      <trkpt lat="38.2734150" lon="-0.6861510">
        <ele>91.8</ele>
        <time>2018-04-28T07:30:59Z</time>
      </trkpt>
      <trkpt lat="38.2734240" lon="-0.6860920">
        <ele>91.9</ele>
        <time>2018-04-28T07:31:00Z</time>
      </trkpt>
      <trkpt lat="38.2734810" lon="-0.6857400">
        <ele>92.8</ele>
        <time>2018-04-28T07:31:02Z</time>
      </trkpt>
      <trkpt lat="38.2735050" lon="-0.6855680">
        <ele>93.5</ele>
        <time>2018-04-28T07:31:03Z</time>
      </trkpt>
      <trkpt lat="38.2735280" lon="-0.6853960">
        <ele>94.3</ele>
        <time>2018-04-28T07:31:04Z</time>
      </trkpt>
    </trkseg>
  </trk>
</gpx>
